<?xml version="1.0" encoding="UTF-8" standalone="no" ?>
<gpx xmlns="http://www.topografix.com/GPX/1/1" xmlns:xsi="http://www.w3.org/2001/XMLSchema-instance" xsi:schemaLocation="http://www.topografix.com/GPX/1/1 http://www.topografix.com/GPX/1/1/gpx.xsd" version="1.1" creator="VisuGPX - https://www.visugpx.com">
  <metadata>
    <name>Les Passerelles 03</name>
    <desc><![CDATA[Trace de Christophe M:
[url]https://strava.app.link/BP8AEOKJJzb[/url]]]></desc>
  </metadata>
  <trk>
    <name><![CDATA[Les Passerelles 03]]></name>
    <extensions>
      <line xmlns="http://www.topografix.com/GPX/gpx_style/0/2">
        <color>0000FF</color>
        <width>4</width>
      </line>
    </extensions>
    <trkseg>
      <trkpt lat="44.91185" lon="5.66787">
        <ele>555</ele>
        <time>2023-05-16T08:00:00.000Z</time>
      </trkpt>
      <trkpt lat="44.91184" lon="5.66796">
        <ele>553</ele>
        <time>2023-05-16T08:00:02.012Z</time>
      </trkpt>
      <trkpt lat="44.91181" lon="5.66795">
        <ele>553.9</ele>
        <time>2023-05-16T08:00:05.223Z</time>
      </trkpt>
      <trkpt lat="44.91181" lon="5.66801">
        <ele>552.5</ele>
        <time>2023-05-16T08:00:06.548Z</time>
      </trkpt>
      <trkpt lat="44.91183" lon="5.66802">
        <ele>552.7</ele>
        <time>2023-05-16T08:00:07.577Z</time>
      </trkpt>
      <trkpt lat="44.91185" lon="5.66799">
        <ele>553.1</ele>
        <time>2023-05-16T08:00:09.225Z</time>
      </trkpt>
      <trkpt lat="44.91187" lon="5.66795">
        <ele>553.5</ele>
        <time>2023-05-16T08:00:11.036Z</time>
      </trkpt>
      <trkpt lat="44.9119" lon="5.66792">
        <ele>554</ele>
        <time>2023-05-16T08:00:13.104Z</time>
      </trkpt>
      <trkpt lat="44.91194" lon="5.6679">
        <ele>554.2</ele>
        <time>2023-05-16T08:00:14.861Z</time>
      </trkpt>
      <trkpt lat="44.91197" lon="5.66787">
        <ele>554.3</ele>
        <time>2023-05-16T08:00:16.288Z</time>
      </trkpt>
      <trkpt lat="44.912" lon="5.66784">
        <ele>554.5</ele>
        <time>2023-05-16T08:00:17.846Z</time>
      </trkpt>
      <trkpt lat="44.91203" lon="5.66782">
        <ele>554.7</ele>
        <time>2023-05-16T08:00:19.280Z</time>
      </trkpt>
      <trkpt lat="44.91207" lon="5.66777">
        <ele>555</ele>
        <time>2023-05-16T08:00:21.558Z</time>
      </trkpt>
      <trkpt lat="44.91209" lon="5.66773">
        <ele>555.2</ele>
        <time>2023-05-16T08:00:23.043Z</time>
      </trkpt>
      <trkpt lat="44.91211" lon="5.66768">
        <ele>555.3</ele>
        <time>2023-05-16T08:00:24.609Z</time>
      </trkpt>
      <trkpt lat="44.91213" lon="5.66765">
        <ele>555.5</ele>
        <time>2023-05-16T08:00:25.905Z</time>
      </trkpt>
      <trkpt lat="44.91216" lon="5.66761">
        <ele>555.6</ele>
        <time>2023-05-16T08:00:27.492Z</time>
      </trkpt>
      <trkpt lat="44.91219" lon="5.66757">
        <ele>555.7</ele>
        <time>2023-05-16T08:00:29.078Z</time>
      </trkpt>
      <trkpt lat="44.91222" lon="5.66753">
        <ele>555.8</ele>
        <time>2023-05-16T08:00:30.665Z</time>
      </trkpt>
      <trkpt lat="44.91224" lon="5.66749">
        <ele>556</ele>
        <time>2023-05-16T08:00:32.151Z</time>
      </trkpt>
      <trkpt lat="44.91226" lon="5.66744">
        <ele>556.6</ele>
        <time>2023-05-16T08:00:34.537Z</time>
      </trkpt>
      <trkpt lat="44.91227" lon="5.6674">
        <ele>557.1</ele>
        <time>2023-05-16T08:00:36.429Z</time>
      </trkpt>
      <trkpt lat="44.91229" lon="5.66736">
        <ele>557.3</ele>
        <time>2023-05-16T08:00:37.915Z</time>
      </trkpt>
      <trkpt lat="44.91231" lon="5.66732">
        <ele>557.6</ele>
        <time>2023-05-16T08:00:39.553Z</time>
      </trkpt>
      <trkpt lat="44.91232" lon="5.66727">
        <ele>558.2</ele>
        <time>2023-05-16T08:00:41.841Z</time>
      </trkpt>
      <trkpt lat="44.91232" lon="5.66723">
        <ele>558.7</ele>
        <time>2023-05-16T08:00:43.695Z</time>
      </trkpt>
      <trkpt lat="44.91232" lon="5.66718">
        <ele>559.2</ele>
        <time>2023-05-16T08:00:45.725Z</time>
      </trkpt>
      <trkpt lat="44.91232" lon="5.66714">
        <ele>559.8</ele>
        <time>2023-05-16T08:00:47.851Z</time>
      </trkpt>
      <trkpt lat="44.9123" lon="5.6671">
        <ele>560.4</ele>
        <time>2023-05-16T08:00:50.091Z</time>
      </trkpt>
      <trkpt lat="44.91229" lon="5.66706">
        <ele>561.1</ele>
        <time>2023-05-16T08:00:52.545Z</time>
      </trkpt>
      <trkpt lat="44.91227" lon="5.66702">
        <ele>561.8</ele>
        <time>2023-05-16T08:00:55.049Z</time>
      </trkpt>
      <trkpt lat="44.91226" lon="5.66699">
        <ele>562.7</ele>
        <time>2023-05-16T08:00:58.604Z</time>
      </trkpt>
      <trkpt lat="44.91222" lon="5.66696">
        <ele>564</ele>
        <time>2023-05-16T08:01:03.225Z</time>
      </trkpt>
      <trkpt lat="44.91219" lon="5.66694">
        <ele>565.3</ele>
        <time>2023-05-16T08:01:08.415Z</time>
      </trkpt>
      <trkpt lat="44.91216" lon="5.66692">
        <ele>566.5</ele>
        <time>2023-05-16T08:01:13.027Z</time>
      </trkpt>
      <trkpt lat="44.91213" lon="5.6669">
        <ele>567.1</ele>
        <time>2023-05-16T08:01:15.234Z</time>
      </trkpt>
      <trkpt lat="44.91211" lon="5.66689">
        <ele>567.8</ele>
        <time>2023-05-16T08:01:17.823Z</time>
      </trkpt>
      <trkpt lat="44.91208" lon="5.66688">
        <ele>568.7</ele>
        <time>2023-05-16T08:01:21.034Z</time>
      </trkpt>
      <trkpt lat="44.91204" lon="5.66688">
        <ele>569.7</ele>
        <time>2023-05-16T08:01:24.536Z</time>
      </trkpt>
      <trkpt lat="44.912" lon="5.66688">
        <ele>570.9</ele>
        <time>2023-05-16T08:01:28.845Z</time>
      </trkpt>
      <trkpt lat="44.91197" lon="5.66688">
        <ele>571.8</ele>
        <time>2023-05-16T08:01:32.076Z</time>
      </trkpt>
      <trkpt lat="44.91193" lon="5.66689">
        <ele>572.6</ele>
        <time>2023-05-16T08:01:34.952Z</time>
      </trkpt>
      <trkpt lat="44.91189" lon="5.66691">
        <ele>573.7</ele>
        <time>2023-05-16T08:01:38.811Z</time>
      </trkpt>
      <trkpt lat="44.91187" lon="5.66691">
        <ele>574.5</ele>
        <time>2023-05-16T08:01:42.037Z</time>
      </trkpt>
      <trkpt lat="44.91183" lon="5.66692">
        <ele>575.3</ele>
        <time>2023-05-16T08:01:44.913Z</time>
      </trkpt>
      <trkpt lat="44.9118" lon="5.66693">
        <ele>575.9</ele>
        <time>2023-05-16T08:01:47.076Z</time>
      </trkpt>
      <trkpt lat="44.91177" lon="5.66694">
        <ele>576.5</ele>
        <time>2023-05-16T08:01:49.240Z</time>
      </trkpt>
      <trkpt lat="44.91174" lon="5.66693">
        <ele>577.1</ele>
        <time>2023-05-16T08:01:51.403Z</time>
      </trkpt>
      <trkpt lat="44.9117" lon="5.66693">
        <ele>577.8</ele>
        <time>2023-05-16T08:01:54.005Z</time>
      </trkpt>
      <trkpt lat="44.91167" lon="5.66692">
        <ele>578.6</ele>
        <time>2023-05-16T08:01:56.812Z</time>
      </trkpt>
      <trkpt lat="44.91163" lon="5.6669">
        <ele>579.7</ele>
        <time>2023-05-16T08:02:00.671Z</time>
      </trkpt>
      <trkpt lat="44.91159" lon="5.66689">
        <ele>580.8</ele>
        <time>2023-05-16T08:02:04.545Z</time>
      </trkpt>
      <trkpt lat="44.91156" lon="5.66686">
        <ele>581.8</ele>
        <time>2023-05-16T08:02:08.069Z</time>
      </trkpt>
      <trkpt lat="44.91153" lon="5.66682">
        <ele>582.8</ele>
        <time>2023-05-16T08:02:11.571Z</time>
      </trkpt>
      <trkpt lat="44.91149" lon="5.66678">
        <ele>584</ele>
        <time>2023-05-16T08:02:15.773Z</time>
      </trkpt>
      <trkpt lat="44.91146" lon="5.66675">
        <ele>585</ele>
        <time>2023-05-16T08:02:19.297Z</time>
      </trkpt>
      <trkpt lat="44.91143" lon="5.66672">
        <ele>585.8</ele>
        <time>2023-05-16T08:02:22.121Z</time>
      </trkpt>
      <trkpt lat="44.9114" lon="5.66669">
        <ele>587.4</ele>
        <time>2023-05-16T08:02:28.816Z</time>
      </trkpt>
      <trkpt lat="44.91137" lon="5.66665">
        <ele>588.7</ele>
        <time>2023-05-16T08:02:33.549Z</time>
      </trkpt>
      <trkpt lat="44.91134" lon="5.66662">
        <ele>589.6</ele>
        <time>2023-05-16T08:02:36.700Z</time>
      </trkpt>
      <trkpt lat="44.91131" lon="5.66658">
        <ele>590.3</ele>
        <time>2023-05-16T08:02:39.331Z</time>
      </trkpt>
      <trkpt lat="44.91128" lon="5.66656">
        <ele>590.9</ele>
        <time>2023-05-16T08:02:41.538Z</time>
      </trkpt>
      <trkpt lat="44.91126" lon="5.66654">
        <ele>591.5</ele>
        <time>2023-05-16T08:02:43.639Z</time>
      </trkpt>
      <trkpt lat="44.91123" lon="5.66653">
        <ele>592.2</ele>
        <time>2023-05-16T08:02:46.099Z</time>
      </trkpt>
      <trkpt lat="44.91119" lon="5.66651">
        <ele>592.7</ele>
        <time>2023-05-16T08:02:48.334Z</time>
      </trkpt>
      <trkpt lat="44.91116" lon="5.6665">
        <ele>593.1</ele>
        <time>2023-05-16T08:02:50.030Z</time>
      </trkpt>
      <trkpt lat="44.91112" lon="5.6665">
        <ele>593.5</ele>
        <time>2023-05-16T08:02:52.009Z</time>
      </trkpt>
      <trkpt lat="44.91109" lon="5.6665">
        <ele>593.9</ele>
        <time>2023-05-16T08:02:53.680Z</time>
      </trkpt>
      <trkpt lat="44.91106" lon="5.6665">
        <ele>594.3</ele>
        <time>2023-05-16T08:02:55.351Z</time>
      </trkpt>
      <trkpt lat="44.91103" lon="5.66651">
        <ele>594.7</ele>
        <time>2023-05-16T08:02:57.047Z</time>
      </trkpt>
      <trkpt lat="44.911" lon="5.66653">
        <ele>594.9</ele>
        <time>2023-05-16T08:02:58.480Z</time>
      </trkpt>
      <trkpt lat="44.91097" lon="5.66654">
        <ele>595.1</ele>
        <time>2023-05-16T08:02:59.833Z</time>
      </trkpt>
      <trkpt lat="44.91094" lon="5.66656">
        <ele>595.3</ele>
        <time>2023-05-16T08:03:01.267Z</time>
      </trkpt>
      <trkpt lat="44.91092" lon="5.66657">
        <ele>595.2</ele>
        <time>2023-05-16T08:03:01.929Z</time>
      </trkpt>
      <trkpt lat="44.91089" lon="5.66657">
        <ele>595.1</ele>
        <time>2023-05-16T08:03:02.896Z</time>
      </trkpt>
      <trkpt lat="44.91086" lon="5.66656">
        <ele>595.2</ele>
        <time>2023-05-16T08:03:04.113Z</time>
      </trkpt>
      <trkpt lat="44.91083" lon="5.66654">
        <ele>595.4</ele>
        <time>2023-05-16T08:03:05.547Z</time>
      </trkpt>
      <trkpt lat="44.91082" lon="5.66651">
        <ele>594.3</ele>
        <time>2023-05-16T08:03:06.279Z</time>
      </trkpt>
      <trkpt lat="44.91083" lon="5.66646">
        <ele>593.6</ele>
        <time>2023-05-16T08:03:07.427Z</time>
      </trkpt>
      <trkpt lat="44.91086" lon="5.66644">
        <ele>593.1</ele>
        <time>2023-05-16T08:03:08.461Z</time>
      </trkpt>
      <trkpt lat="44.91089" lon="5.66641">
        <ele>592.5</ele>
        <time>2023-05-16T08:03:09.608Z</time>
      </trkpt>
      <trkpt lat="44.91093" lon="5.66639">
        <ele>591.5</ele>
        <time>2023-05-16T08:03:10.932Z</time>
      </trkpt>
      <trkpt lat="44.91097" lon="5.66637">
        <ele>590.9</ele>
        <time>2023-05-16T08:03:12.255Z</time>
      </trkpt>
      <trkpt lat="44.91101" lon="5.66635">
        <ele>590.3</ele>
        <time>2023-05-16T08:03:13.579Z</time>
      </trkpt>
      <trkpt lat="44.91104" lon="5.66634">
        <ele>589.7</ele>
        <time>2023-05-16T08:03:14.540Z</time>
      </trkpt>
      <trkpt lat="44.91108" lon="5.66632">
        <ele>589</ele>
        <time>2023-05-16T08:03:15.863Z</time>
      </trkpt>
      <trkpt lat="44.91111" lon="5.66631">
        <ele>588.4</ele>
        <time>2023-05-16T08:03:16.825Z</time>
      </trkpt>
      <trkpt lat="44.91115" lon="5.6663">
        <ele>587.5</ele>
        <time>2023-05-16T08:03:18.092Z</time>
      </trkpt>
      <trkpt lat="44.91118" lon="5.66628">
        <ele>586.6</ele>
        <time>2023-05-16T08:03:19.127Z</time>
      </trkpt>
      <trkpt lat="44.91121" lon="5.66627">
        <ele>586</ele>
        <time>2023-05-16T08:03:20.088Z</time>
      </trkpt>
      <trkpt lat="44.91124" lon="5.66624">
        <ele>586</ele>
        <time>2023-05-16T08:03:21.398Z</time>
      </trkpt>
      <trkpt lat="44.91128" lon="5.66622">
        <ele>586</ele>
        <time>2023-05-16T08:03:22.911Z</time>
      </trkpt>
      <trkpt lat="44.91131" lon="5.6662">
        <ele>586</ele>
        <time>2023-05-16T08:03:24.094Z</time>
      </trkpt>
      <trkpt lat="44.91133" lon="5.66617">
        <ele>586</ele>
        <time>2023-05-16T08:03:25.134Z</time>
      </trkpt>
      <trkpt lat="44.91136" lon="5.66612">
        <ele>586</ele>
        <time>2023-05-16T08:03:26.788Z</time>
      </trkpt>
      <trkpt lat="44.91138" lon="5.66608">
        <ele>586</ele>
        <time>2023-05-16T08:03:28.024Z</time>
      </trkpt>
      <trkpt lat="44.9114" lon="5.66603">
        <ele>586</ele>
        <time>2023-05-16T08:03:29.474Z</time>
      </trkpt>
      <trkpt lat="44.91141" lon="5.66598">
        <ele>586</ele>
        <time>2023-05-16T08:03:30.785Z</time>
      </trkpt>
      <trkpt lat="44.91143" lon="5.66593">
        <ele>586</ele>
        <time>2023-05-16T08:03:32.235Z</time>
      </trkpt>
      <trkpt lat="44.91144" lon="5.66587">
        <ele>586</ele>
        <time>2023-05-16T08:03:33.791Z</time>
      </trkpt>
      <trkpt lat="44.91144" lon="5.66581">
        <ele>586.1</ele>
        <time>2023-05-16T08:03:35.421Z</time>
      </trkpt>
      <trkpt lat="44.91144" lon="5.66575">
        <ele>586.2</ele>
        <time>2023-05-16T08:03:37.051Z</time>
      </trkpt>
      <trkpt lat="44.91144" lon="5.66569">
        <ele>586.3</ele>
        <time>2023-05-16T08:03:38.682Z</time>
      </trkpt>
      <trkpt lat="44.91144" lon="5.66563">
        <ele>586.4</ele>
        <time>2023-05-16T08:03:40.312Z</time>
      </trkpt>
      <trkpt lat="44.91145" lon="5.66558">
        <ele>586.5</ele>
        <time>2023-05-16T08:03:41.740Z</time>
      </trkpt>
      <trkpt lat="44.91146" lon="5.66553">
        <ele>586.6</ele>
        <time>2023-05-16T08:03:43.168Z</time>
      </trkpt>
      <trkpt lat="44.91147" lon="5.66549">
        <ele>586.9</ele>
        <time>2023-05-16T08:03:44.653Z</time>
      </trkpt>
      <trkpt lat="44.91148" lon="5.66543">
        <ele>587.2</ele>
        <time>2023-05-16T08:03:46.594Z</time>
      </trkpt>
      <trkpt lat="44.91149" lon="5.66538">
        <ele>587.5</ele>
        <time>2023-05-16T08:03:48.302Z</time>
      </trkpt>
      <trkpt lat="44.9115" lon="5.66532">
        <ele>587.6</ele>
        <time>2023-05-16T08:03:49.974Z</time>
      </trkpt>
      <trkpt lat="44.9115" lon="5.66527">
        <ele>587.7</ele>
        <time>2023-05-16T08:03:51.353Z</time>
      </trkpt>
      <trkpt lat="44.9115" lon="5.66522">
        <ele>587.8</ele>
        <time>2023-05-16T08:03:52.732Z</time>
      </trkpt>
      <trkpt lat="44.91151" lon="5.66518">
        <ele>587.9</ele>
        <time>2023-05-16T08:03:53.921Z</time>
      </trkpt>
      <trkpt lat="44.91151" lon="5.66513">
        <ele>588</ele>
        <time>2023-05-16T08:03:55.300Z</time>
      </trkpt>
      <trkpt lat="44.91152" lon="5.66508">
        <ele>588</ele>
        <time>2023-05-16T08:03:56.611Z</time>
      </trkpt>
      <trkpt lat="44.91153" lon="5.66503">
        <ele>588.1</ele>
        <time>2023-05-16T08:03:58.039Z</time>
      </trkpt>
      <trkpt lat="44.91154" lon="5.66498">
        <ele>588.2</ele>
        <time>2023-05-16T08:03:59.467Z</time>
      </trkpt>
      <trkpt lat="44.91155" lon="5.66493">
        <ele>588.2</ele>
        <time>2023-05-16T08:04:00.779Z</time>
      </trkpt>
      <trkpt lat="44.91156" lon="5.66488">
        <ele>588.3</ele>
        <time>2023-05-16T08:04:02.207Z</time>
      </trkpt>
      <trkpt lat="44.91156" lon="5.66483">
        <ele>588.4</ele>
        <time>2023-05-16T08:04:03.586Z</time>
      </trkpt>
      <trkpt lat="44.91157" lon="5.66478">
        <ele>588.5</ele>
        <time>2023-05-16T08:04:05.014Z</time>
      </trkpt>
      <trkpt lat="44.91159" lon="5.66473">
        <ele>588.6</ele>
        <time>2023-05-16T08:04:06.579Z</time>
      </trkpt>
      <trkpt lat="44.9116" lon="5.66467">
        <ele>588.7</ele>
        <time>2023-05-16T08:04:08.251Z</time>
      </trkpt>
      <trkpt lat="44.91162" lon="5.66462">
        <ele>588.8</ele>
        <time>2023-05-16T08:04:09.816Z</time>
      </trkpt>
      <trkpt lat="44.91163" lon="5.66457">
        <ele>589</ele>
        <time>2023-05-16T08:04:11.376Z</time>
      </trkpt>
      <trkpt lat="44.91165" lon="5.66452">
        <ele>589.3</ele>
        <time>2023-05-16T08:04:13.215Z</time>
      </trkpt>
      <trkpt lat="44.91168" lon="5.66447">
        <ele>589.6</ele>
        <time>2023-05-16T08:04:15.250Z</time>
      </trkpt>
      <trkpt lat="44.91171" lon="5.66443">
        <ele>589.7</ele>
        <time>2023-05-16T08:04:16.836Z</time>
      </trkpt>
      <trkpt lat="44.91174" lon="5.66438">
        <ele>589.9</ele>
        <time>2023-05-16T08:04:18.732Z</time>
      </trkpt>
      <trkpt lat="44.91177" lon="5.66434">
        <ele>590</ele>
        <time>2023-05-16T08:04:20.319Z</time>
      </trkpt>
      <trkpt lat="44.91179" lon="5.66429">
        <ele>590.1</ele>
        <time>2023-05-16T08:04:21.884Z</time>
      </trkpt>
      <trkpt lat="44.91182" lon="5.66424">
        <ele>590.3</ele>
        <time>2023-05-16T08:04:23.780Z</time>
      </trkpt>
      <trkpt lat="44.91184" lon="5.6642">
        <ele>590.4</ele>
        <time>2023-05-16T08:04:25.133Z</time>
      </trkpt>
      <trkpt lat="44.91187" lon="5.66415">
        <ele>590.5</ele>
        <time>2023-05-16T08:04:26.902Z</time>
      </trkpt>
      <trkpt lat="44.9119" lon="5.6641">
        <ele>590.7</ele>
        <time>2023-05-16T08:04:28.798Z</time>
      </trkpt>
      <trkpt lat="44.91192" lon="5.66405">
        <ele>591.1</ele>
        <time>2023-05-16T08:04:30.799Z</time>
      </trkpt>
      <trkpt lat="44.91195" lon="5.66399">
        <ele>591.5</ele>
        <time>2023-05-16T08:04:33.176Z</time>
      </trkpt>
      <trkpt lat="44.91197" lon="5.66394">
        <ele>591.7</ele>
        <time>2023-05-16T08:04:34.870Z</time>
      </trkpt>
      <trkpt lat="44.91199" lon="5.66388">
        <ele>591.9</ele>
        <time>2023-05-16T08:04:36.786Z</time>
      </trkpt>
      <trkpt lat="44.91202" lon="5.66383">
        <ele>592.1</ele>
        <time>2023-05-16T08:04:38.682Z</time>
      </trkpt>
      <trkpt lat="44.91204" lon="5.66378">
        <ele>592.2</ele>
        <time>2023-05-16T08:04:40.247Z</time>
      </trkpt>
      <trkpt lat="44.91206" lon="5.66372">
        <ele>592.4</ele>
        <time>2023-05-16T08:04:42.162Z</time>
      </trkpt>
      <trkpt lat="44.91209" lon="5.66367">
        <ele>592.5</ele>
        <time>2023-05-16T08:04:43.932Z</time>
      </trkpt>
      <trkpt lat="44.91212" lon="5.66363">
        <ele>592.6</ele>
        <time>2023-05-16T08:04:45.518Z</time>
      </trkpt>
      <trkpt lat="44.91215" lon="5.66358">
        <ele>592.7</ele>
        <time>2023-05-16T08:04:47.287Z</time>
      </trkpt>
      <trkpt lat="44.91217" lon="5.66353">
        <ele>592.9</ele>
        <time>2023-05-16T08:04:48.982Z</time>
      </trkpt>
      <trkpt lat="44.9122" lon="5.66348">
        <ele>593.2</ele>
        <time>2023-05-16T08:04:51.017Z</time>
      </trkpt>
      <trkpt lat="44.91223" lon="5.66344">
        <ele>593.4</ele>
        <time>2023-05-16T08:04:52.733Z</time>
      </trkpt>
      <trkpt lat="44.91226" lon="5.6634">
        <ele>593.5</ele>
        <time>2023-05-16T08:04:54.319Z</time>
      </trkpt>
      <trkpt lat="44.9123" lon="5.66336">
        <ele>593.6</ele>
        <time>2023-05-16T08:04:56.181Z</time>
      </trkpt>
      <trkpt lat="44.91233" lon="5.66332">
        <ele>593.7</ele>
        <time>2023-05-16T08:04:57.767Z</time>
      </trkpt>
      <trkpt lat="44.91237" lon="5.66327">
        <ele>593.8</ele>
        <time>2023-05-16T08:04:59.786Z</time>
      </trkpt>
      <trkpt lat="44.9124" lon="5.66323">
        <ele>593.9</ele>
        <time>2023-05-16T08:05:01.373Z</time>
      </trkpt>
      <trkpt lat="44.91244" lon="5.6632">
        <ele>594</ele>
        <time>2023-05-16T08:05:03.102Z</time>
      </trkpt>
      <trkpt lat="44.91246" lon="5.66316">
        <ele>594.1</ele>
        <time>2023-05-16T08:05:04.455Z</time>
      </trkpt>
      <trkpt lat="44.91248" lon="5.66313">
        <ele>594.2</ele>
        <time>2023-05-16T08:05:05.614Z</time>
      </trkpt>
      <trkpt lat="44.91252" lon="5.66309">
        <ele>594.3</ele>
        <time>2023-05-16T08:05:07.475Z</time>
      </trkpt>
      <trkpt lat="44.91256" lon="5.66305">
        <ele>594.5</ele>
        <time>2023-05-16T08:05:09.463Z</time>
      </trkpt>
      <trkpt lat="44.9126" lon="5.66299">
        <ele>595</ele>
        <time>2023-05-16T08:05:12.211Z</time>
      </trkpt>
      <trkpt lat="44.91262" lon="5.66297">
        <ele>595.2</ele>
        <time>2023-05-16T08:05:13.349Z</time>
      </trkpt>
      <trkpt lat="44.91264" lon="5.66294">
        <ele>595.5</ele>
        <time>2023-05-16T08:05:14.807Z</time>
      </trkpt>
      <trkpt lat="44.91266" lon="5.66291">
        <ele>595.7</ele>
        <time>2023-05-16T08:05:16.103Z</time>
      </trkpt>
      <trkpt lat="44.91269" lon="5.66288">
        <ele>595.9</ele>
        <time>2023-05-16T08:05:17.661Z</time>
      </trkpt>
      <trkpt lat="44.91271" lon="5.66284">
        <ele>596</ele>
        <time>2023-05-16T08:05:19.014Z</time>
      </trkpt>
      <trkpt lat="44.91273" lon="5.66281">
        <ele>596.1</ele>
        <time>2023-05-16T08:05:20.173Z</time>
      </trkpt>
      <trkpt lat="44.91276" lon="5.66278">
        <ele>596.2</ele>
        <time>2023-05-16T08:05:21.600Z</time>
      </trkpt>
      <trkpt lat="44.91278" lon="5.66275">
        <ele>596.3</ele>
        <time>2023-05-16T08:05:22.758Z</time>
      </trkpt>
      <trkpt lat="44.91282" lon="5.66272">
        <ele>596.6</ele>
        <time>2023-05-16T08:05:24.755Z</time>
      </trkpt>
      <trkpt lat="44.91285" lon="5.66269">
        <ele>596.9</ele>
        <time>2023-05-16T08:05:26.462Z</time>
      </trkpt>
      <trkpt lat="44.91288" lon="5.66265">
        <ele>597.2</ele>
        <time>2023-05-16T08:05:28.321Z</time>
      </trkpt>
      <trkpt lat="44.91291" lon="5.6626">
        <ele>597.5</ele>
        <time>2023-05-16T08:05:30.356Z</time>
      </trkpt>
      <trkpt lat="44.91294" lon="5.66256">
        <ele>597.6</ele>
        <time>2023-05-16T08:05:31.943Z</time>
      </trkpt>
      <trkpt lat="44.91296" lon="5.66252">
        <ele>597.7</ele>
        <time>2023-05-16T08:05:33.296Z</time>
      </trkpt>
      <trkpt lat="44.91299" lon="5.66247">
        <ele>597.7</ele>
        <time>2023-05-16T08:05:34.950Z</time>
      </trkpt>
      <trkpt lat="44.91302" lon="5.66241">
        <ele>597.8</ele>
        <time>2023-05-16T08:05:36.919Z</time>
      </trkpt>
      <trkpt lat="44.91305" lon="5.66236">
        <ele>597.9</ele>
        <time>2023-05-16T08:05:38.688Z</time>
      </trkpt>
      <trkpt lat="44.91307" lon="5.6623">
        <ele>597.9</ele>
        <time>2023-05-16T08:05:40.362Z</time>
      </trkpt>
      <trkpt lat="44.91309" lon="5.66224">
        <ele>598</ele>
        <time>2023-05-16T08:05:42.151Z</time>
      </trkpt>
      <trkpt lat="44.9131" lon="5.66217">
        <ele>598.1</ele>
        <time>2023-05-16T08:05:44.068Z</time>
      </trkpt>
      <trkpt lat="44.91311" lon="5.66211">
        <ele>598.2</ele>
        <time>2023-05-16T08:05:45.740Z</time>
      </trkpt>
      <trkpt lat="44.91312" lon="5.66204">
        <ele>598.3</ele>
        <time>2023-05-16T08:05:47.657Z</time>
      </trkpt>
      <trkpt lat="44.91313" lon="5.66198">
        <ele>598.5</ele>
        <time>2023-05-16T08:05:49.456Z</time>
      </trkpt>
      <trkpt lat="44.91315" lon="5.66192">
        <ele>598.6</ele>
        <time>2023-05-16T08:05:51.245Z</time>
      </trkpt>
      <trkpt lat="44.91316" lon="5.66186">
        <ele>598.8</ele>
        <time>2023-05-16T08:05:53.044Z</time>
      </trkpt>
      <trkpt lat="44.91317" lon="5.6618">
        <ele>599.1</ele>
        <time>2023-05-16T08:05:54.984Z</time>
      </trkpt>
      <trkpt lat="44.91317" lon="5.66174">
        <ele>599.4</ele>
        <time>2023-05-16T08:05:56.885Z</time>
      </trkpt>
      <trkpt lat="44.91318" lon="5.66167">
        <ele>599.7</ele>
        <time>2023-05-16T08:05:59.064Z</time>
      </trkpt>
      <trkpt lat="44.91319" lon="5.6616">
        <ele>599.8</ele>
        <time>2023-05-16T08:06:00.981Z</time>
      </trkpt>
      <trkpt lat="44.91319" lon="5.66153">
        <ele>599.9</ele>
        <time>2023-05-16T08:06:02.863Z</time>
      </trkpt>
      <trkpt lat="44.91319" lon="5.66147">
        <ele>600</ele>
        <time>2023-05-16T08:06:04.493Z</time>
      </trkpt>
      <trkpt lat="44.91319" lon="5.66141">
        <ele>600.2</ele>
        <time>2023-05-16T08:06:06.252Z</time>
      </trkpt>
      <trkpt lat="44.91319" lon="5.66135">
        <ele>600.3</ele>
        <time>2023-05-16T08:06:07.882Z</time>
      </trkpt>
      <trkpt lat="44.91318" lon="5.66129">
        <ele>600.4</ele>
        <time>2023-05-16T08:06:09.553Z</time>
      </trkpt>
      <trkpt lat="44.91318" lon="5.66123">
        <ele>600.7</ele>
        <time>2023-05-16T08:06:11.454Z</time>
      </trkpt>
      <trkpt lat="44.91318" lon="5.66116">
        <ele>601</ele>
        <time>2023-05-16T08:06:13.598Z</time>
      </trkpt>
      <trkpt lat="44.91317" lon="5.66109">
        <ele>601.2</ele>
        <time>2023-05-16T08:06:15.641Z</time>
      </trkpt>
      <trkpt lat="44.91316" lon="5.66103">
        <ele>601.4</ele>
        <time>2023-05-16T08:06:17.440Z</time>
      </trkpt>
      <trkpt lat="44.91315" lon="5.66097">
        <ele>601.5</ele>
        <time>2023-05-16T08:06:19.111Z</time>
      </trkpt>
      <trkpt lat="44.91314" lon="5.66091">
        <ele>601.5</ele>
        <time>2023-05-16T08:06:20.667Z</time>
      </trkpt>
      <trkpt lat="44.91313" lon="5.66086">
        <ele>601.6</ele>
        <time>2023-05-16T08:06:22.095Z</time>
      </trkpt>
      <trkpt lat="44.91312" lon="5.66081">
        <ele>601.7</ele>
        <time>2023-05-16T08:06:23.523Z</time>
      </trkpt>
      <trkpt lat="44.91311" lon="5.66076">
        <ele>601.7</ele>
        <time>2023-05-16T08:06:24.835Z</time>
      </trkpt>
      <trkpt lat="44.91309" lon="5.6607">
        <ele>601.8</ele>
        <time>2023-05-16T08:06:26.624Z</time>
      </trkpt>
      <trkpt lat="44.91308" lon="5.66065">
        <ele>601.9</ele>
        <time>2023-05-16T08:06:28.052Z</time>
      </trkpt>
      <trkpt lat="44.91307" lon="5.66059">
        <ele>602</ele>
        <time>2023-05-16T08:06:29.723Z</time>
      </trkpt>
      <trkpt lat="44.91305" lon="5.66053">
        <ele>602</ele>
        <time>2023-05-16T08:06:31.397Z</time>
      </trkpt>
      <trkpt lat="44.91303" lon="5.66047">
        <ele>602.2</ele>
        <time>2023-05-16T08:06:33.312Z</time>
      </trkpt>
      <trkpt lat="44.91301" lon="5.66041">
        <ele>602.5</ele>
        <time>2023-05-16T08:06:35.367Z</time>
      </trkpt>
      <trkpt lat="44.91299" lon="5.66036">
        <ele>602.8</ele>
        <time>2023-05-16T08:06:37.205Z</time>
      </trkpt>
      <trkpt lat="44.91297" lon="5.66032">
        <ele>603</ele>
        <time>2023-05-16T08:06:38.691Z</time>
      </trkpt>
      <trkpt lat="44.91296" lon="5.66027">
        <ele>603.3</ele>
        <time>2023-05-16T08:06:40.400Z</time>
      </trkpt>
      <trkpt lat="44.91294" lon="5.66022">
        <ele>603.4</ele>
        <time>2023-05-16T08:06:41.965Z</time>
      </trkpt>
      <trkpt lat="44.91292" lon="5.66016">
        <ele>603.5</ele>
        <time>2023-05-16T08:06:43.754Z</time>
      </trkpt>
      <trkpt lat="44.91289" lon="5.6601">
        <ele>603.6</ele>
        <time>2023-05-16T08:06:45.722Z</time>
      </trkpt>
      <trkpt lat="44.91286" lon="5.66005">
        <ele>603.7</ele>
        <time>2023-05-16T08:06:47.492Z</time>
      </trkpt>
      <trkpt lat="44.91284" lon="5.65999">
        <ele>603.9</ele>
        <time>2023-05-16T08:06:49.407Z</time>
      </trkpt>
      <trkpt lat="44.91282" lon="5.65994">
        <ele>604</ele>
        <time>2023-05-16T08:06:50.972Z</time>
      </trkpt>
      <trkpt lat="44.9128" lon="5.65991">
        <ele>604.1</ele>
        <time>2023-05-16T08:06:52.131Z</time>
      </trkpt>
      <trkpt lat="44.91278" lon="5.65988">
        <ele>604.2</ele>
        <time>2023-05-16T08:06:53.289Z</time>
      </trkpt>
      <trkpt lat="44.91277" lon="5.65985">
        <ele>604.4</ele>
        <time>2023-05-16T08:06:54.393Z</time>
      </trkpt>
      <trkpt lat="44.91275" lon="5.65981">
        <ele>604.6</ele>
        <time>2023-05-16T08:06:55.879Z</time>
      </trkpt>
      <trkpt lat="44.91273" lon="5.65978">
        <ele>604.8</ele>
        <time>2023-05-16T08:06:57.175Z</time>
      </trkpt>
      <trkpt lat="44.91272" lon="5.65974">
        <ele>605</ele>
        <time>2023-05-16T08:06:58.501Z</time>
      </trkpt>
      <trkpt lat="44.9127" lon="5.65971">
        <ele>605.2</ele>
        <time>2023-05-16T08:06:59.798Z</time>
      </trkpt>
      <trkpt lat="44.91268" lon="5.65966">
        <ele>605.4</ele>
        <time>2023-05-16T08:07:01.492Z</time>
      </trkpt>
      <trkpt lat="44.91266" lon="5.65963">
        <ele>605.5</ele>
        <time>2023-05-16T08:07:02.651Z</time>
      </trkpt>
      <trkpt lat="44.91265" lon="5.6596">
        <ele>605.6</ele>
        <time>2023-05-16T08:07:03.608Z</time>
      </trkpt>
      <trkpt lat="44.91263" lon="5.65956">
        <ele>605.6</ele>
        <time>2023-05-16T08:07:04.844Z</time>
      </trkpt>
      <trkpt lat="44.91261" lon="5.65953">
        <ele>605.7</ele>
        <time>2023-05-16T08:07:06.003Z</time>
      </trkpt>
      <trkpt lat="44.9126" lon="5.6595">
        <ele>605.7</ele>
        <time>2023-05-16T08:07:06.840Z</time>
      </trkpt>
      <trkpt lat="44.91257" lon="5.65944">
        <ele>605.9</ele>
        <time>2023-05-16T08:07:08.933Z</time>
      </trkpt>
      <trkpt lat="44.91254" lon="5.65939">
        <ele>606</ele>
        <time>2023-05-16T08:07:10.702Z</time>
      </trkpt>
      <trkpt lat="44.91251" lon="5.65933">
        <ele>606.2</ele>
        <time>2023-05-16T08:07:12.795Z</time>
      </trkpt>
      <trkpt lat="44.91249" lon="5.65929">
        <ele>606.5</ele>
        <time>2023-05-16T08:07:14.433Z</time>
      </trkpt>
      <trkpt lat="44.91247" lon="5.65924">
        <ele>606.8</ele>
        <time>2023-05-16T08:07:16.272Z</time>
      </trkpt>
      <trkpt lat="44.91245" lon="5.65921">
        <ele>607</ele>
        <time>2023-05-16T08:07:17.568Z</time>
      </trkpt>
      <trkpt lat="44.91242" lon="5.65915">
        <ele>607.2</ele>
        <time>2023-05-16T08:07:19.661Z</time>
      </trkpt>
      <trkpt lat="44.9124" lon="5.65912">
        <ele>607.3</ele>
        <time>2023-05-16T08:07:20.820Z</time>
      </trkpt>
      <trkpt lat="44.91238" lon="5.65908">
        <ele>607.4</ele>
        <time>2023-05-16T08:07:22.173Z</time>
      </trkpt>
      <trkpt lat="44.91236" lon="5.65905">
        <ele>607.5</ele>
        <time>2023-05-16T08:07:23.331Z</time>
      </trkpt>
      <trkpt lat="44.91235" lon="5.65902">
        <ele>607.6</ele>
        <time>2023-05-16T08:07:24.289Z</time>
      </trkpt>
      <trkpt lat="44.91232" lon="5.65896">
        <ele>607.7</ele>
        <time>2023-05-16T08:07:26.257Z</time>
      </trkpt>
      <trkpt lat="44.91229" lon="5.65891">
        <ele>607.9</ele>
        <time>2023-05-16T08:07:28.153Z</time>
      </trkpt>
      <trkpt lat="44.91228" lon="5.65888">
        <ele>608</ele>
        <time>2023-05-16T08:07:29.111Z</time>
      </trkpt>
      <trkpt lat="44.91225" lon="5.65881">
        <ele>608.4</ele>
        <time>2023-05-16T08:07:31.689Z</time>
      </trkpt>
      <trkpt lat="44.91224" lon="5.65878">
        <ele>608.6</ele>
        <time>2023-05-16T08:07:32.793Z</time>
      </trkpt>
      <trkpt lat="44.91222" lon="5.65873">
        <ele>608.8</ele>
        <time>2023-05-16T08:07:34.488Z</time>
      </trkpt>
      <trkpt lat="44.91221" lon="5.65869">
        <ele>609</ele>
        <time>2023-05-16T08:07:35.814Z</time>
      </trkpt>
      <trkpt lat="44.9122" lon="5.65865">
        <ele>609.2</ele>
        <time>2023-05-16T08:07:37.140Z</time>
      </trkpt>
      <trkpt lat="44.91219" lon="5.65862">
        <ele>609.3</ele>
        <time>2023-05-16T08:07:38.097Z</time>
      </trkpt>
      <trkpt lat="44.91218" lon="5.65858">
        <ele>609.4</ele>
        <time>2023-05-16T08:07:39.286Z</time>
      </trkpt>
      <trkpt lat="44.91217" lon="5.65852">
        <ele>609.5</ele>
        <time>2023-05-16T08:07:40.958Z</time>
      </trkpt>
      <trkpt lat="44.91216" lon="5.65846">
        <ele>609.6</ele>
        <time>2023-05-16T08:07:42.629Z</time>
      </trkpt>
      <trkpt lat="44.91216" lon="5.65842">
        <ele>609.7</ele>
        <time>2023-05-16T08:07:43.757Z</time>
      </trkpt>
      <trkpt lat="44.91216" lon="5.65835">
        <ele>609.8</ele>
        <time>2023-05-16T08:07:45.639Z</time>
      </trkpt>
      <trkpt lat="44.91217" lon="5.65828">
        <ele>609.9</ele>
        <time>2023-05-16T08:07:47.556Z</time>
      </trkpt>
      <trkpt lat="44.91219" lon="5.65821">
        <ele>610.3</ele>
        <time>2023-05-16T08:07:49.982Z</time>
      </trkpt>
      <trkpt lat="44.91221" lon="5.65815">
        <ele>610.7</ele>
        <time>2023-05-16T08:07:52.190Z</time>
      </trkpt>
      <trkpt lat="44.91224" lon="5.65808">
        <ele>610.9</ele>
        <time>2023-05-16T08:07:54.492Z</time>
      </trkpt>
      <trkpt lat="44.91227" lon="5.65803">
        <ele>611.1</ele>
        <time>2023-05-16T08:07:56.388Z</time>
      </trkpt>
      <trkpt lat="44.9123" lon="5.65797">
        <ele>611.2</ele>
        <time>2023-05-16T08:07:58.356Z</time>
      </trkpt>
      <trkpt lat="44.91233" lon="5.65792">
        <ele>611.3</ele>
        <time>2023-05-16T08:08:00.126Z</time>
      </trkpt>
      <trkpt lat="44.91237" lon="5.65787">
        <ele>611.4</ele>
        <time>2023-05-16T08:08:02.144Z</time>
      </trkpt>
      <trkpt lat="44.91239" lon="5.65784">
        <ele>611.5</ele>
        <time>2023-05-16T08:08:03.303Z</time>
      </trkpt>
      <trkpt lat="44.91241" lon="5.65781">
        <ele>611.7</ele>
        <time>2023-05-16T08:08:04.599Z</time>
      </trkpt>
      <trkpt lat="44.91243" lon="5.65777">
        <ele>611.8</ele>
        <time>2023-05-16T08:08:05.952Z</time>
      </trkpt>
      <trkpt lat="44.91246" lon="5.65773">
        <ele>612.2</ele>
        <time>2023-05-16T08:08:07.972Z</time>
      </trkpt>
      <trkpt lat="44.91249" lon="5.65767">
        <ele>612.5</ele>
        <time>2023-05-16T08:08:10.201Z</time>
      </trkpt>
      <trkpt lat="44.91253" lon="5.65762">
        <ele>612.6</ele>
        <time>2023-05-16T08:08:12.219Z</time>
      </trkpt>
      <trkpt lat="44.91256" lon="5.65757">
        <ele>612.7</ele>
        <time>2023-05-16T08:08:13.989Z</time>
      </trkpt>
      <trkpt lat="44.9126" lon="5.65752">
        <ele>612.7</ele>
        <time>2023-05-16T08:08:15.893Z</time>
      </trkpt>
      <trkpt lat="44.91264" lon="5.65748">
        <ele>612.8</ele>
        <time>2023-05-16T08:08:17.755Z</time>
      </trkpt>
      <trkpt lat="44.91267" lon="5.65744">
        <ele>612.9</ele>
        <time>2023-05-16T08:08:19.341Z</time>
      </trkpt>
      <trkpt lat="44.91271" lon="5.6574">
        <ele>613</ele>
        <time>2023-05-16T08:08:21.203Z</time>
      </trkpt>
      <trkpt lat="44.91275" lon="5.65736">
        <ele>613</ele>
        <time>2023-05-16T08:08:22.950Z</time>
      </trkpt>
      <trkpt lat="44.91278" lon="5.65732">
        <ele>613.1</ele>
        <time>2023-05-16T08:08:24.537Z</time>
      </trkpt>
      <trkpt lat="44.91282" lon="5.65727">
        <ele>613.2</ele>
        <time>2023-05-16T08:08:26.555Z</time>
      </trkpt>
      <trkpt lat="44.91284" lon="5.65725">
        <ele>613.2</ele>
        <time>2023-05-16T08:08:27.429Z</time>
      </trkpt>
      <trkpt lat="44.91289" lon="5.65722">
        <ele>613.3</ele>
        <time>2023-05-16T08:08:29.480Z</time>
      </trkpt>
      <trkpt lat="44.91292" lon="5.65718">
        <ele>613.5</ele>
        <time>2023-05-16T08:08:31.195Z</time>
      </trkpt>
      <trkpt lat="44.91296" lon="5.65714">
        <ele>613.9</ele>
        <time>2023-05-16T08:08:33.471Z</time>
      </trkpt>
      <trkpt lat="44.91299" lon="5.65712">
        <ele>614</ele>
        <time>2023-05-16T08:08:34.771Z</time>
      </trkpt>
      <trkpt lat="44.91303" lon="5.6571">
        <ele>614</ele>
        <time>2023-05-16T08:08:36.283Z</time>
      </trkpt>
      <trkpt lat="44.91307" lon="5.65707">
        <ele>614</ele>
        <time>2023-05-16T08:08:37.898Z</time>
      </trkpt>
      <trkpt lat="44.91311" lon="5.65702">
        <ele>614</ele>
        <time>2023-05-16T08:08:39.802Z</time>
      </trkpt>
      <trkpt lat="44.91314" lon="5.65698">
        <ele>614</ele>
        <time>2023-05-16T08:08:41.273Z</time>
      </trkpt>
      <trkpt lat="44.91317" lon="5.65692">
        <ele>614</ele>
        <time>2023-05-16T08:08:43.127Z</time>
      </trkpt>
      <trkpt lat="44.91319" lon="5.65688">
        <ele>614</ele>
        <time>2023-05-16T08:08:44.363Z</time>
      </trkpt>
      <trkpt lat="44.91318" lon="5.65683">
        <ele>614</ele>
        <time>2023-05-16T08:08:45.675Z</time>
      </trkpt>
      <trkpt lat="44.91314" lon="5.65677">
        <ele>614</ele>
        <time>2023-05-16T08:08:47.755Z</time>
      </trkpt>
      <trkpt lat="44.91312" lon="5.65675">
        <ele>614</ele>
        <time>2023-05-16T08:08:48.628Z</time>
      </trkpt>
      <trkpt lat="44.91309" lon="5.65672">
        <ele>614</ele>
        <time>2023-05-16T08:08:49.939Z</time>
      </trkpt>
      <trkpt lat="44.91307" lon="5.65669">
        <ele>614</ele>
        <time>2023-05-16T08:08:50.979Z</time>
      </trkpt>
      <trkpt lat="44.91304" lon="5.65664">
        <ele>614</ele>
        <time>2023-05-16T08:08:52.633Z</time>
      </trkpt>
      <trkpt lat="44.91301" lon="5.65659">
        <ele>614</ele>
        <time>2023-05-16T08:08:54.287Z</time>
      </trkpt>
      <trkpt lat="44.91299" lon="5.65656">
        <ele>614</ele>
        <time>2023-05-16T08:08:55.327Z</time>
      </trkpt>
      <trkpt lat="44.91296" lon="5.65654">
        <ele>614</ele>
        <time>2023-05-16T08:08:56.510Z</time>
      </trkpt>
      <trkpt lat="44.91292" lon="5.65652">
        <ele>614</ele>
        <time>2023-05-16T08:08:58.022Z</time>
      </trkpt>
      <trkpt lat="44.91287" lon="5.6565">
        <ele>614</ele>
        <time>2023-05-16T08:08:59.875Z</time>
      </trkpt>
      <trkpt lat="44.91284" lon="5.65648">
        <ele>614</ele>
        <time>2023-05-16T08:09:01.057Z</time>
      </trkpt>
      <trkpt lat="44.91279" lon="5.65648">
        <ele>614</ele>
        <time>2023-05-16T08:09:02.840Z</time>
      </trkpt>
      <trkpt lat="44.91276" lon="5.65647">
        <ele>614</ele>
        <time>2023-05-16T08:09:03.938Z</time>
      </trkpt>
      <trkpt lat="44.91273" lon="5.65648">
        <ele>614</ele>
        <time>2023-05-16T08:09:05.037Z</time>
      </trkpt>
      <trkpt lat="44.9127" lon="5.65649">
        <ele>614</ele>
        <time>2023-05-16T08:09:06.136Z</time>
      </trkpt>
      <trkpt lat="44.91267" lon="5.65651">
        <ele>614</ele>
        <time>2023-05-16T08:09:07.319Z</time>
      </trkpt>
      <trkpt lat="44.91264" lon="5.65652">
        <ele>614.1</ele>
        <time>2023-05-16T08:09:08.535Z</time>
      </trkpt>
      <trkpt lat="44.91258" lon="5.65654">
        <ele>614.1</ele>
        <time>2023-05-16T08:09:10.733Z</time>
      </trkpt>
      <trkpt lat="44.91256" lon="5.65656">
        <ele>614.1</ele>
        <time>2023-05-16T08:09:11.606Z</time>
      </trkpt>
      <trkpt lat="44.91253" lon="5.65659">
        <ele>614.1</ele>
        <time>2023-05-16T08:09:12.917Z</time>
      </trkpt>
      <trkpt lat="44.91251" lon="5.65661">
        <ele>614.1</ele>
        <time>2023-05-16T08:09:13.790Z</time>
      </trkpt>
      <trkpt lat="44.91248" lon="5.65664">
        <ele>614.1</ele>
        <time>2023-05-16T08:09:15.101Z</time>
      </trkpt>
      <trkpt lat="44.91246" lon="5.65666">
        <ele>614.1</ele>
        <time>2023-05-16T08:09:15.974Z</time>
      </trkpt>
      <trkpt lat="44.91243" lon="5.65669">
        <ele>614.1</ele>
        <time>2023-05-16T08:09:17.285Z</time>
      </trkpt>
      <trkpt lat="44.91241" lon="5.65671">
        <ele>614.1</ele>
        <time>2023-05-16T08:09:18.158Z</time>
      </trkpt>
      <trkpt lat="44.91238" lon="5.65674">
        <ele>614.1</ele>
        <time>2023-05-16T08:09:19.469Z</time>
      </trkpt>
      <trkpt lat="44.91234" lon="5.65679">
        <ele>614.1</ele>
        <time>2023-05-16T08:09:21.373Z</time>
      </trkpt>
      <trkpt lat="44.91231" lon="5.65681">
        <ele>614.1</ele>
        <time>2023-05-16T08:09:22.555Z</time>
      </trkpt>
      <trkpt lat="44.91229" lon="5.65683">
        <ele>614.1</ele>
        <time>2023-05-16T08:09:23.429Z</time>
      </trkpt>
      <trkpt lat="44.91225" lon="5.65686">
        <ele>614.2</ele>
        <time>2023-05-16T08:09:25.159Z</time>
      </trkpt>
      <trkpt lat="44.91222" lon="5.65688">
        <ele>614.2</ele>
        <time>2023-05-16T08:09:26.341Z</time>
      </trkpt>
      <trkpt lat="44.91217" lon="5.65686">
        <ele>614.2</ele>
        <time>2023-05-16T08:09:28.194Z</time>
      </trkpt>
      <trkpt lat="44.91212" lon="5.65682">
        <ele>614.3</ele>
        <time>2023-05-16T08:09:30.356Z</time>
      </trkpt>
      <trkpt lat="44.9121" lon="5.65678">
        <ele>614.3</ele>
        <time>2023-05-16T08:09:31.592Z</time>
      </trkpt>
      <trkpt lat="44.91208" lon="5.65674">
        <ele>614.4</ele>
        <time>2023-05-16T08:09:32.945Z</time>
      </trkpt>
      <trkpt lat="44.91199" lon="5.65659">
        <ele>614.6</ele>
        <time>2023-05-16T08:09:38.134Z</time>
      </trkpt>
      <trkpt lat="44.91198" lon="5.65655">
        <ele>614.6</ele>
        <time>2023-05-16T08:09:39.205Z</time>
      </trkpt>
      <trkpt lat="44.91194" lon="5.65649">
        <ele>614.8</ele>
        <time>2023-05-16T08:09:41.522Z</time>
      </trkpt>
      <trkpt lat="44.91191" lon="5.65643">
        <ele>614.9</ele>
        <time>2023-05-16T08:09:43.491Z</time>
      </trkpt>
      <trkpt lat="44.91187" lon="5.65637">
        <ele>615.1</ele>
        <time>2023-05-16T08:09:45.807Z</time>
      </trkpt>
      <trkpt lat="44.91185" lon="5.65633">
        <ele>615.4</ele>
        <time>2023-05-16T08:09:47.445Z</time>
      </trkpt>
      <trkpt lat="44.91182" lon="5.65626">
        <ele>615.8</ele>
        <time>2023-05-16T08:09:50.024Z</time>
      </trkpt>
      <trkpt lat="44.91181" lon="5.65623">
        <ele>615.9</ele>
        <time>2023-05-16T08:09:50.981Z</time>
      </trkpt>
      <trkpt lat="44.91179" lon="5.6562">
        <ele>616</ele>
        <time>2023-05-16T08:09:52.140Z</time>
      </trkpt>
      <trkpt lat="44.91177" lon="5.65617">
        <ele>616.2</ele>
        <time>2023-05-16T08:09:53.436Z</time>
      </trkpt>
      <trkpt lat="44.91176" lon="5.65614">
        <ele>616.3</ele>
        <time>2023-05-16T08:09:54.394Z</time>
      </trkpt>
      <trkpt lat="44.91174" lon="5.65611">
        <ele>616.4</ele>
        <time>2023-05-16T08:09:55.552Z</time>
      </trkpt>
      <trkpt lat="44.91172" lon="5.65608">
        <ele>616.5</ele>
        <time>2023-05-16T08:09:56.711Z</time>
      </trkpt>
      <trkpt lat="44.91169" lon="5.65606">
        <ele>616.6</ele>
        <time>2023-05-16T08:09:58.011Z</time>
      </trkpt>
      <trkpt lat="44.91167" lon="5.65604">
        <ele>616.7</ele>
        <time>2023-05-16T08:09:59.004Z</time>
      </trkpt>
      <trkpt lat="44.91162" lon="5.65601">
        <ele>617</ele>
        <time>2023-05-16T08:10:01.313Z</time>
      </trkpt>
      <trkpt lat="44.91157" lon="5.65599">
        <ele>617.5</ele>
        <time>2023-05-16T08:10:03.851Z</time>
      </trkpt>
      <trkpt lat="44.91153" lon="5.65598">
        <ele>617.9</ele>
        <time>2023-05-16T08:10:05.850Z</time>
      </trkpt>
      <trkpt lat="44.9115" lon="5.65598">
        <ele>618.2</ele>
        <time>2023-05-16T08:10:07.334Z</time>
      </trkpt>
      <trkpt lat="44.91147" lon="5.65598">
        <ele>618.3</ele>
        <time>2023-05-16T08:10:08.522Z</time>
      </trkpt>
      <trkpt lat="44.91142" lon="5.65597">
        <ele>618.5</ele>
        <time>2023-05-16T08:10:10.562Z</time>
      </trkpt>
      <trkpt lat="44.9114" lon="5.65596">
        <ele>618.7</ele>
        <time>2023-05-16T08:10:11.591Z</time>
      </trkpt>
      <trkpt lat="44.91134" lon="5.65595">
        <ele>618.9</ele>
        <time>2023-05-16T08:10:13.980Z</time>
      </trkpt>
      <trkpt lat="44.9113" lon="5.65594">
        <ele>619.1</ele>
        <time>2023-05-16T08:10:15.673Z</time>
      </trkpt>
      <trkpt lat="44.91125" lon="5.65592">
        <ele>619.4</ele>
        <time>2023-05-16T08:10:17.901Z</time>
      </trkpt>
      <trkpt lat="44.91121" lon="5.65589">
        <ele>619.9</ele>
        <time>2023-05-16T08:10:20.225Z</time>
      </trkpt>
      <trkpt lat="44.91116" lon="5.65587">
        <ele>620.3</ele>
        <time>2023-05-16T08:10:22.600Z</time>
      </trkpt>
      <trkpt lat="44.91112" lon="5.65585">
        <ele>620.5</ele>
        <time>2023-05-16T08:10:24.357Z</time>
      </trkpt>
      <trkpt lat="44.91108" lon="5.65583">
        <ele>620.7</ele>
        <time>2023-05-16T08:10:26.113Z</time>
      </trkpt>
      <trkpt lat="44.91104" lon="5.65582">
        <ele>620.9</ele>
        <time>2023-05-16T08:10:27.806Z</time>
      </trkpt>
      <trkpt lat="44.911" lon="5.65581">
        <ele>621.2</ele>
        <time>2023-05-16T08:10:29.643Z</time>
      </trkpt>
      <trkpt lat="44.91097" lon="5.6558">
        <ele>621.7</ele>
        <time>2023-05-16T08:10:31.554Z</time>
      </trkpt>
      <trkpt lat="44.91094" lon="5.65579">
        <ele>622</ele>
        <time>2023-05-16T08:10:33.065Z</time>
      </trkpt>
      <trkpt lat="44.91089" lon="5.65578">
        <ele>622.8</ele>
        <time>2023-05-16T08:10:36.151Z</time>
      </trkpt>
      <trkpt lat="44.91084" lon="5.65578">
        <ele>623.3</ele>
        <time>2023-05-16T08:10:38.625Z</time>
      </trkpt>
      <trkpt lat="44.9108" lon="5.65578">
        <ele>623.8</ele>
        <time>2023-05-16T08:10:40.787Z</time>
      </trkpt>
      <trkpt lat="44.91076" lon="5.65577">
        <ele>624.5</ele>
        <time>2023-05-16T08:10:43.403Z</time>
      </trkpt>
      <trkpt lat="44.91072" lon="5.65576">
        <ele>625</ele>
        <time>2023-05-16T08:10:45.584Z</time>
      </trkpt>
      <trkpt lat="44.91067" lon="5.65576">
        <ele>625.4</ele>
        <time>2023-05-16T08:10:47.893Z</time>
      </trkpt>
      <trkpt lat="44.91063" lon="5.65576">
        <ele>626</ele>
        <time>2023-05-16T08:10:50.262Z</time>
      </trkpt>
      <trkpt lat="44.91058" lon="5.65575">
        <ele>626.6</ele>
        <time>2023-05-16T08:10:52.932Z</time>
      </trkpt>
      <trkpt lat="44.91054" lon="5.65574">
        <ele>627.1</ele>
        <time>2023-05-16T08:10:55.113Z</time>
      </trkpt>
      <trkpt lat="44.91049" lon="5.65572">
        <ele>627.4</ele>
        <time>2023-05-16T08:10:57.341Z</time>
      </trkpt>
      <trkpt lat="44.91045" lon="5.6557">
        <ele>627.9</ele>
        <time>2023-05-16T08:10:59.576Z</time>
      </trkpt>
      <trkpt lat="44.91042" lon="5.65568">
        <ele>628.5</ele>
        <time>2023-05-16T08:11:01.784Z</time>
      </trkpt>
      <trkpt lat="44.91038" lon="5.65567">
        <ele>629.1</ele>
        <time>2023-05-16T08:11:04.169Z</time>
      </trkpt>
      <trkpt lat="44.91035" lon="5.65566">
        <ele>629.6</ele>
        <time>2023-05-16T08:11:06.080Z</time>
      </trkpt>
      <trkpt lat="44.91031" lon="5.65564">
        <ele>630.3</ele>
        <time>2023-05-16T08:11:08.738Z</time>
      </trkpt>
      <trkpt lat="44.91027" lon="5.65563">
        <ele>631</ele>
        <time>2023-05-16T08:11:11.354Z</time>
      </trkpt>
      <trkpt lat="44.91023" lon="5.65564">
        <ele>631.6</ele>
        <time>2023-05-16T08:11:13.739Z</time>
      </trkpt>
      <trkpt lat="44.91019" lon="5.65564">
        <ele>632</ele>
        <time>2023-05-16T08:11:15.718Z</time>
      </trkpt>
      <trkpt lat="44.91016" lon="5.65564">
        <ele>632.4</ele>
        <time>2023-05-16T08:11:17.390Z</time>
      </trkpt>
      <trkpt lat="44.91012" lon="5.65565">
        <ele>632.9</ele>
        <time>2023-05-16T08:11:19.571Z</time>
      </trkpt>
      <trkpt lat="44.91009" lon="5.65565">
        <ele>633.2</ele>
        <time>2023-05-16T08:11:21.055Z</time>
      </trkpt>
      <trkpt lat="44.91005" lon="5.65566">
        <ele>633.4</ele>
        <time>2023-05-16T08:11:22.748Z</time>
      </trkpt>
      <trkpt lat="44.91002" lon="5.65566">
        <ele>633.5</ele>
        <time>2023-05-16T08:11:23.935Z</time>
      </trkpt>
      <trkpt lat="44.90999" lon="5.65566">
        <ele>633.6</ele>
        <time>2023-05-16T08:11:25.123Z</time>
      </trkpt>
      <trkpt lat="44.90995" lon="5.65564">
        <ele>633.7</ele>
        <time>2023-05-16T08:11:26.751Z</time>
      </trkpt>
      <trkpt lat="44.90992" lon="5.65562">
        <ele>633.8</ele>
        <time>2023-05-16T08:11:28.051Z</time>
      </trkpt>
      <trkpt lat="44.90987" lon="5.65561">
        <ele>633.9</ele>
        <time>2023-05-16T08:11:29.965Z</time>
      </trkpt>
      <trkpt lat="44.90983" lon="5.65561">
        <ele>634</ele>
        <time>2023-05-16T08:11:31.507Z</time>
      </trkpt>
      <trkpt lat="44.90978" lon="5.6556">
        <ele>634.1</ele>
        <time>2023-05-16T08:11:33.422Z</time>
      </trkpt>
      <trkpt lat="44.90975" lon="5.6556">
        <ele>634.1</ele>
        <time>2023-05-16T08:11:34.491Z</time>
      </trkpt>
      <trkpt lat="44.90972" lon="5.65561">
        <ele>634.2</ele>
        <time>2023-05-16T08:11:35.708Z</time>
      </trkpt>
      <trkpt lat="44.9097" lon="5.65561">
        <ele>634.3</ele>
        <time>2023-05-16T08:11:36.543Z</time>
      </trkpt>
      <trkpt lat="44.90965" lon="5.65562">
        <ele>634.5</ele>
        <time>2023-05-16T08:11:38.583Z</time>
      </trkpt>
      <trkpt lat="44.90962" lon="5.65563">
        <ele>634.7</ele>
        <time>2023-05-16T08:11:39.936Z</time>
      </trkpt>
      <trkpt lat="44.90959" lon="5.65563">
        <ele>634.9</ele>
        <time>2023-05-16T08:11:41.261Z</time>
      </trkpt>
      <trkpt lat="44.90956" lon="5.65563">
        <ele>635.3</ele>
        <time>2023-05-16T08:11:42.932Z</time>
      </trkpt>
      <trkpt lat="44.90952" lon="5.65565">
        <ele>635.6</ele>
        <time>2023-05-16T08:11:44.831Z</time>
      </trkpt>
      <trkpt lat="44.90948" lon="5.65567">
        <ele>635.8</ele>
        <time>2023-05-16T08:11:46.587Z</time>
      </trkpt>
      <trkpt lat="44.90944" lon="5.6557">
        <ele>636.1</ele>
        <time>2023-05-16T08:11:48.584Z</time>
      </trkpt>
      <trkpt lat="44.90941" lon="5.65572">
        <ele>636.2</ele>
        <time>2023-05-16T08:11:49.884Z</time>
      </trkpt>
      <trkpt lat="44.90938" lon="5.65575">
        <ele>636.4</ele>
        <time>2023-05-16T08:11:51.442Z</time>
      </trkpt>
      <trkpt lat="44.90934" lon="5.65578">
        <ele>636.8</ele>
        <time>2023-05-16T08:11:53.594Z</time>
      </trkpt>
      <trkpt lat="44.90931" lon="5.6558">
        <ele>637.3</ele>
        <time>2023-05-16T08:11:55.564Z</time>
      </trkpt>
      <trkpt lat="44.90927" lon="5.65582">
        <ele>637.7</ele>
        <time>2023-05-16T08:11:57.623Z</time>
      </trkpt>
      <trkpt lat="44.90923" lon="5.65585">
        <ele>637.9</ele>
        <time>2023-05-16T08:11:59.479Z</time>
      </trkpt>
      <trkpt lat="44.9092" lon="5.65588">
        <ele>638.2</ele>
        <time>2023-05-16T08:12:01.186Z</time>
      </trkpt>
      <trkpt lat="44.90916" lon="5.65591">
        <ele>638.4</ele>
        <time>2023-05-16T08:12:03.043Z</time>
      </trkpt>
      <trkpt lat="44.90913" lon="5.65592">
        <ele>638.7</ele>
        <time>2023-05-16T08:12:04.554Z</time>
      </trkpt>
      <trkpt lat="44.90909" lon="5.65594">
        <ele>639.1</ele>
        <time>2023-05-16T08:12:06.612Z</time>
      </trkpt>
      <trkpt lat="44.90906" lon="5.65596">
        <ele>639.4</ele>
        <time>2023-05-16T08:12:08.200Z</time>
      </trkpt>
      <trkpt lat="44.90903" lon="5.65598">
        <ele>639.9</ele>
        <time>2023-05-16T08:12:10.170Z</time>
      </trkpt>
      <trkpt lat="44.90899" lon="5.656">
        <ele>640.1</ele>
        <time>2023-05-16T08:12:11.926Z</time>
      </trkpt>
      <trkpt lat="44.90895" lon="5.65601">
        <ele>640.3</ele>
        <time>2023-05-16T08:12:13.619Z</time>
      </trkpt>
      <trkpt lat="44.90891" lon="5.65602">
        <ele>640.5</ele>
        <time>2023-05-16T08:12:15.312Z</time>
      </trkpt>
      <trkpt lat="44.90886" lon="5.65601">
        <ele>640.7</ele>
        <time>2023-05-16T08:12:17.352Z</time>
      </trkpt>
      <trkpt lat="44.90882" lon="5.656">
        <ele>641</ele>
        <time>2023-05-16T08:12:19.189Z</time>
      </trkpt>
      <trkpt lat="44.90879" lon="5.65598">
        <ele>641.4</ele>
        <time>2023-05-16T08:12:20.954Z</time>
      </trkpt>
      <trkpt lat="44.90875" lon="5.65597">
        <ele>642</ele>
        <time>2023-05-16T08:12:23.340Z</time>
      </trkpt>
      <trkpt lat="44.90871" lon="5.65595">
        <ele>642.5</ele>
        <time>2023-05-16T08:12:25.576Z</time>
      </trkpt>
      <trkpt lat="44.90866" lon="5.65592">
        <ele>642.8</ele>
        <time>2023-05-16T08:12:27.885Z</time>
      </trkpt>
      <trkpt lat="44.90862" lon="5.65589">
        <ele>643.5</ele>
        <time>2023-05-16T08:12:30.613Z</time>
      </trkpt>
      <trkpt lat="44.90858" lon="5.65589">
        <ele>644.1</ele>
        <time>2023-05-16T08:12:32.982Z</time>
      </trkpt>
      <trkpt lat="44.90854" lon="5.65589">
        <ele>644.6</ele>
        <time>2023-05-16T08:12:35.144Z</time>
      </trkpt>
      <trkpt lat="44.9085" lon="5.65588">
        <ele>644.8</ele>
        <time>2023-05-16T08:12:36.837Z</time>
      </trkpt>
      <trkpt lat="44.90847" lon="5.65588">
        <ele>644.9</ele>
        <time>2023-05-16T08:12:38.025Z</time>
      </trkpt>
      <trkpt lat="44.90844" lon="5.65589">
        <ele>645.1</ele>
        <time>2023-05-16T08:12:39.378Z</time>
      </trkpt>
      <trkpt lat="44.90841" lon="5.65591">
        <ele>645.3</ele>
        <time>2023-05-16T08:12:40.812Z</time>
      </trkpt>
      <trkpt lat="44.90838" lon="5.65595">
        <ele>645.7</ele>
        <time>2023-05-16T08:12:42.832Z</time>
      </trkpt>
      <trkpt lat="44.90836" lon="5.656">
        <ele>646.3</ele>
        <time>2023-05-16T08:12:45.218Z</time>
      </trkpt>
      <trkpt lat="44.90836" lon="5.65606">
        <ele>646.7</ele>
        <time>2023-05-16T08:12:47.278Z</time>
      </trkpt>
      <trkpt lat="44.90836" lon="5.65612">
        <ele>647.1</ele>
        <time>2023-05-16T08:12:49.338Z</time>
      </trkpt>
      <trkpt lat="44.90837" lon="5.65617">
        <ele>647.4</ele>
        <time>2023-05-16T08:12:51.047Z</time>
      </trkpt>
      <trkpt lat="44.90838" lon="5.65622">
        <ele>647.8</ele>
        <time>2023-05-16T08:12:52.924Z</time>
      </trkpt>
      <trkpt lat="44.90839" lon="5.65628">
        <ele>648.4</ele>
        <time>2023-05-16T08:12:55.392Z</time>
      </trkpt>
      <trkpt lat="44.9084" lon="5.65631">
        <ele>648.8</ele>
        <time>2023-05-16T08:12:56.893Z</time>
      </trkpt>
      <trkpt lat="44.90841" lon="5.65638">
        <ele>649.2</ele>
        <time>2023-05-16T08:12:59.222Z</time>
      </trkpt>
      <trkpt lat="44.90842" lon="5.65643">
        <ele>649.7</ele>
        <time>2023-05-16T08:13:01.291Z</time>
      </trkpt>
      <trkpt lat="44.90845" lon="5.65648">
        <ele>650.3</ele>
        <time>2023-05-16T08:13:03.839Z</time>
      </trkpt>
      <trkpt lat="44.90846" lon="5.65652">
        <ele>650.7</ele>
        <time>2023-05-16T08:13:05.512Z</time>
      </trkpt>
      <trkpt lat="44.90848" lon="5.65655">
        <ele>651.2</ele>
        <time>2023-05-16T08:13:07.384Z</time>
      </trkpt>
      <trkpt lat="44.9085" lon="5.65659">
        <ele>651.5</ele>
        <time>2023-05-16T08:13:09.021Z</time>
      </trkpt>
      <trkpt lat="44.90853" lon="5.65662">
        <ele>651.7</ele>
        <time>2023-05-16T08:13:10.580Z</time>
      </trkpt>
      <trkpt lat="44.90856" lon="5.65666">
        <ele>652</ele>
        <time>2023-05-16T08:13:12.439Z</time>
      </trkpt>
      <trkpt lat="44.90859" lon="5.65669">
        <ele>652.6</ele>
        <time>2023-05-16T08:13:14.726Z</time>
      </trkpt>
      <trkpt lat="44.90862" lon="5.65673">
        <ele>653.2</ele>
        <time>2023-05-16T08:13:17.129Z</time>
      </trkpt>
      <trkpt lat="44.90865" lon="5.65677">
        <ele>653.6</ele>
        <time>2023-05-16T08:13:19.149Z</time>
      </trkpt>
      <trkpt lat="44.90868" lon="5.65681">
        <ele>654</ele>
        <time>2023-05-16T08:13:21.169Z</time>
      </trkpt>
      <trkpt lat="44.90871" lon="5.65684">
        <ele>654.6</ele>
        <time>2023-05-16T08:13:23.456Z</time>
      </trkpt>
      <trkpt lat="44.90874" lon="5.65687">
        <ele>655.1</ele>
        <time>2023-05-16T08:13:25.524Z</time>
      </trkpt>
      <trkpt lat="44.90877" lon="5.6569">
        <ele>655.5</ele>
        <time>2023-05-16T08:13:27.400Z</time>
      </trkpt>
      <trkpt lat="44.90881" lon="5.65693">
        <ele>655.7</ele>
        <time>2023-05-16T08:13:29.257Z</time>
      </trkpt>
      <trkpt lat="44.90884" lon="5.65694">
        <ele>656.1</ele>
        <time>2023-05-16T08:13:30.952Z</time>
      </trkpt>
      <trkpt lat="44.90888" lon="5.65695">
        <ele>656.5</ele>
        <time>2023-05-16T08:13:32.951Z</time>
      </trkpt>
      <trkpt lat="44.90891" lon="5.65698">
        <ele>657</ele>
        <time>2023-05-16T08:13:35.019Z</time>
      </trkpt>
      <trkpt lat="44.90894" lon="5.65701">
        <ele>657.5</ele>
        <time>2023-05-16T08:13:37.087Z</time>
      </trkpt>
      <trkpt lat="44.90897" lon="5.65704">
        <ele>657.8</ele>
        <time>2023-05-16T08:13:38.794Z</time>
      </trkpt>
      <trkpt lat="44.909" lon="5.65707">
        <ele>658</ele>
        <time>2023-05-16T08:13:40.353Z</time>
      </trkpt>
      <trkpt lat="44.90902" lon="5.6571">
        <ele>658.2</ele>
        <time>2023-05-16T08:13:41.649Z</time>
      </trkpt>
      <trkpt lat="44.90904" lon="5.65714">
        <ele>658.4</ele>
        <time>2023-05-16T08:13:43.135Z</time>
      </trkpt>
      <trkpt lat="44.90908" lon="5.65718">
        <ele>659.1</ele>
        <time>2023-05-16T08:13:45.962Z</time>
      </trkpt>
      <trkpt lat="44.90911" lon="5.65721">
        <ele>659.6</ele>
        <time>2023-05-16T08:13:48.030Z</time>
      </trkpt>
      <trkpt lat="44.90914" lon="5.65725">
        <ele>659.9</ele>
        <time>2023-05-16T08:13:49.889Z</time>
      </trkpt>
      <trkpt lat="44.90916" lon="5.65727">
        <ele>660.1</ele>
        <time>2023-05-16T08:13:51.027Z</time>
      </trkpt>
      <trkpt lat="44.90919" lon="5.65731">
        <ele>660.3</ele>
        <time>2023-05-16T08:13:52.743Z</time>
      </trkpt>
      <trkpt lat="44.90922" lon="5.65735">
        <ele>660.5</ele>
        <time>2023-05-16T08:13:54.458Z</time>
      </trkpt>
      <trkpt lat="44.90925" lon="5.6574">
        <ele>660.8</ele>
        <time>2023-05-16T08:13:56.493Z</time>
      </trkpt>
      <trkpt lat="44.90928" lon="5.65743">
        <ele>661.3</ele>
        <time>2023-05-16T08:13:58.561Z</time>
      </trkpt>
      <trkpt lat="44.9093" lon="5.65746">
        <ele>661.7</ele>
        <time>2023-05-16T08:14:00.209Z</time>
      </trkpt>
      <trkpt lat="44.90933" lon="5.6575">
        <ele>662</ele>
        <time>2023-05-16T08:14:02.068Z</time>
      </trkpt>
      <trkpt lat="44.90936" lon="5.65753">
        <ele>662.2</ele>
        <time>2023-05-16T08:14:03.627Z</time>
      </trkpt>
      <trkpt lat="44.90939" lon="5.65757">
        <ele>662.5</ele>
        <time>2023-05-16T08:14:05.486Z</time>
      </trkpt>
      <trkpt lat="44.90942" lon="5.65761">
        <ele>662.8</ele>
        <time>2023-05-16T08:14:07.345Z</time>
      </trkpt>
      <trkpt lat="44.90945" lon="5.65764">
        <ele>663.4</ele>
        <time>2023-05-16T08:14:09.632Z</time>
      </trkpt>
      <trkpt lat="44.90948" lon="5.65766">
        <ele>663.9</ele>
        <time>2023-05-16T08:14:11.602Z</time>
      </trkpt>
      <trkpt lat="44.90951" lon="5.65767">
        <ele>664.2</ele>
        <time>2023-05-16T08:14:13.113Z</time>
      </trkpt>
      <trkpt lat="44.90954" lon="5.6577">
        <ele>664.5</ele>
        <time>2023-05-16T08:14:14.820Z</time>
      </trkpt>
      <trkpt lat="44.90956" lon="5.65773">
        <ele>664.7</ele>
        <time>2023-05-16T08:14:16.117Z</time>
      </trkpt>
      <trkpt lat="44.90959" lon="5.65777">
        <ele>665.1</ele>
        <time>2023-05-16T08:14:18.137Z</time>
      </trkpt>
      <trkpt lat="44.90962" lon="5.65779">
        <ele>665.7</ele>
        <time>2023-05-16T08:14:20.344Z</time>
      </trkpt>
      <trkpt lat="44.90965" lon="5.65782">
        <ele>666.1</ele>
        <time>2023-05-16T08:14:22.220Z</time>
      </trkpt>
      <trkpt lat="44.90967" lon="5.65786">
        <ele>666.4</ele>
        <time>2023-05-16T08:14:23.858Z</time>
      </trkpt>
      <trkpt lat="44.9097" lon="5.6579">
        <ele>666.7</ele>
        <time>2023-05-16T08:14:25.717Z</time>
      </trkpt>
      <trkpt lat="44.90973" lon="5.65793">
        <ele>667</ele>
        <time>2023-05-16T08:14:27.424Z</time>
      </trkpt>
      <trkpt lat="44.90975" lon="5.65796">
        <ele>667.2</ele>
        <time>2023-05-16T08:14:28.720Z</time>
      </trkpt>
      <trkpt lat="44.90978" lon="5.65799">
        <ele>667.8</ele>
        <time>2023-05-16T08:14:31.007Z</time>
      </trkpt>
      <trkpt lat="44.90982" lon="5.65802">
        <ele>668.3</ele>
        <time>2023-05-16T08:14:33.332Z</time>
      </trkpt>
      <trkpt lat="44.90986" lon="5.65803">
        <ele>668.5</ele>
        <time>2023-05-16T08:14:35.025Z</time>
      </trkpt>
      <trkpt lat="44.90989" lon="5.65806">
        <ele>668.7</ele>
        <time>2023-05-16T08:14:36.583Z</time>
      </trkpt>
      <trkpt lat="44.90992" lon="5.65808">
        <ele>668.8</ele>
        <time>2023-05-16T08:14:37.883Z</time>
      </trkpt>
      <trkpt lat="44.90995" lon="5.6581">
        <ele>668.9</ele>
        <time>2023-05-16T08:14:39.183Z</time>
      </trkpt>
      <trkpt lat="44.90998" lon="5.65813">
        <ele>669.1</ele>
        <time>2023-05-16T08:14:40.741Z</time>
      </trkpt>
      <trkpt lat="44.91001" lon="5.65817">
        <ele>669.5</ele>
        <time>2023-05-16T08:14:42.761Z</time>
      </trkpt>
      <trkpt lat="44.91004" lon="5.6582">
        <ele>670</ele>
        <time>2023-05-16T08:14:44.829Z</time>
      </trkpt>
      <trkpt lat="44.91006" lon="5.65824">
        <ele>670.5</ele>
        <time>2023-05-16T08:14:46.839Z</time>
      </trkpt>
      <trkpt lat="44.91009" lon="5.65828">
        <ele>670.8</ele>
        <time>2023-05-16T08:14:48.698Z</time>
      </trkpt>
      <trkpt lat="44.91011" lon="5.65833">
        <ele>671.1</ele>
        <time>2023-05-16T08:14:50.537Z</time>
      </trkpt>
      <trkpt lat="44.91012" lon="5.65837">
        <ele>671.5</ele>
        <time>2023-05-16T08:14:52.210Z</time>
      </trkpt>
      <trkpt lat="44.91015" lon="5.65842">
        <ele>672</ele>
        <time>2023-05-16T08:14:54.569Z</time>
      </trkpt>
      <trkpt lat="44.91017" lon="5.65845">
        <ele>672.5</ele>
        <time>2023-05-16T08:14:56.441Z</time>
      </trkpt>
      <trkpt lat="44.91019" lon="5.65848">
        <ele>672.8</ele>
        <time>2023-05-16T08:14:57.899Z</time>
      </trkpt>
      <trkpt lat="44.91022" lon="5.65851">
        <ele>673.1</ele>
        <time>2023-05-16T08:14:59.606Z</time>
      </trkpt>
      <trkpt lat="44.91024" lon="5.65854">
        <ele>673.3</ele>
        <time>2023-05-16T08:15:00.903Z</time>
      </trkpt>
      <trkpt lat="44.91026" lon="5.65858">
        <ele>673.5</ele>
        <time>2023-05-16T08:15:02.389Z</time>
      </trkpt>
      <trkpt lat="44.91028" lon="5.65862">
        <ele>673.7</ele>
        <time>2023-05-16T08:15:03.875Z</time>
      </trkpt>
      <trkpt lat="44.9103" lon="5.65867">
        <ele>674.2</ele>
        <time>2023-05-16T08:15:06.057Z</time>
      </trkpt>
      <trkpt lat="44.91033" lon="5.65871">
        <ele>674.8</ele>
        <time>2023-05-16T08:15:08.460Z</time>
      </trkpt>
      <trkpt lat="44.91035" lon="5.65876">
        <ele>675</ele>
        <time>2023-05-16T08:15:10.154Z</time>
      </trkpt>
      <trkpt lat="44.91038" lon="5.6588">
        <ele>675.1</ele>
        <time>2023-05-16T08:15:11.741Z</time>
      </trkpt>
      <trkpt lat="44.91041" lon="5.65884">
        <ele>675.3</ele>
        <time>2023-05-16T08:15:13.456Z</time>
      </trkpt>
      <trkpt lat="44.91045" lon="5.65886">
        <ele>675.5</ele>
        <time>2023-05-16T08:15:15.212Z</time>
      </trkpt>
      <trkpt lat="44.91048" lon="5.65889">
        <ele>675.8</ele>
        <time>2023-05-16T08:15:16.920Z</time>
      </trkpt>
      <trkpt lat="44.91051" lon="5.65892">
        <ele>676.3</ele>
        <time>2023-05-16T08:15:18.988Z</time>
      </trkpt>
      <trkpt lat="44.91054" lon="5.65895">
        <ele>676.9</ele>
        <time>2023-05-16T08:15:21.275Z</time>
      </trkpt>
      <trkpt lat="44.91058" lon="5.65898">
        <ele>677.3</ele>
        <time>2023-05-16T08:15:23.427Z</time>
      </trkpt>
      <trkpt lat="44.9106" lon="5.65901">
        <ele>677.5</ele>
        <time>2023-05-16T08:15:24.723Z</time>
      </trkpt>
      <trkpt lat="44.91063" lon="5.65905">
        <ele>677.8</ele>
        <time>2023-05-16T08:15:26.583Z</time>
      </trkpt>
      <trkpt lat="44.91065" lon="5.65908">
        <ele>678</ele>
        <time>2023-05-16T08:15:27.879Z</time>
      </trkpt>
      <trkpt lat="44.91067" lon="5.65911">
        <ele>678.3</ele>
        <time>2023-05-16T08:15:29.337Z</time>
      </trkpt>
      <trkpt lat="44.91069" lon="5.65915">
        <ele>678.8</ele>
        <time>2023-05-16T08:15:31.347Z</time>
      </trkpt>
      <trkpt lat="44.91072" lon="5.65917">
        <ele>679.2</ele>
        <time>2023-05-16T08:15:33.112Z</time>
      </trkpt>
      <trkpt lat="44.91075" lon="5.6592">
        <ele>679.5</ele>
        <time>2023-05-16T08:15:34.819Z</time>
      </trkpt>
      <trkpt lat="44.91077" lon="5.65924">
        <ele>679.8</ele>
        <time>2023-05-16T08:15:36.457Z</time>
      </trkpt>
      <trkpt lat="44.91079" lon="5.65929">
        <ele>680</ele>
        <time>2023-05-16T08:15:38.151Z</time>
      </trkpt>
      <trkpt lat="44.91081" lon="5.65933">
        <ele>680.3</ele>
        <time>2023-05-16T08:15:39.789Z</time>
      </trkpt>
      <trkpt lat="44.91084" lon="5.65937">
        <ele>680.7</ele>
        <time>2023-05-16T08:15:41.809Z</time>
      </trkpt>
      <trkpt lat="44.91086" lon="5.6594">
        <ele>681.2</ele>
        <time>2023-05-16T08:15:43.681Z</time>
      </trkpt>
      <trkpt lat="44.91088" lon="5.65944">
        <ele>681.7</ele>
        <time>2023-05-16T08:15:45.691Z</time>
      </trkpt>
      <trkpt lat="44.9109" lon="5.65949">
        <ele>682.1</ele>
        <time>2023-05-16T08:15:47.692Z</time>
      </trkpt>
      <trkpt lat="44.91092" lon="5.65952">
        <ele>682.5</ele>
        <time>2023-05-16T08:15:49.340Z</time>
      </trkpt>
      <trkpt lat="44.91094" lon="5.65956">
        <ele>683</ele>
        <time>2023-05-16T08:15:51.350Z</time>
      </trkpt>
      <trkpt lat="44.91097" lon="5.65959">
        <ele>683.5</ele>
        <time>2023-05-16T08:15:53.418Z</time>
      </trkpt>
      <trkpt lat="44.911" lon="5.65963">
        <ele>683.9</ele>
        <time>2023-05-16T08:15:55.438Z</time>
      </trkpt>
      <trkpt lat="44.91103" lon="5.65967">
        <ele>684.2</ele>
        <time>2023-05-16T08:15:57.297Z</time>
      </trkpt>
      <trkpt lat="44.91105" lon="5.65972">
        <ele>684.6</ele>
        <time>2023-05-16T08:15:59.298Z</time>
      </trkpt>
      <trkpt lat="44.91107" lon="5.65978">
        <ele>685.1</ele>
        <time>2023-05-16T08:16:01.675Z</time>
      </trkpt>
      <trkpt lat="44.91111" lon="5.65981">
        <ele>685.8</ele>
        <time>2023-05-16T08:16:04.403Z</time>
      </trkpt>
      <trkpt lat="44.91114" lon="5.65983">
        <ele>686.1</ele>
        <time>2023-05-16T08:16:05.991Z</time>
      </trkpt>
      <trkpt lat="44.91116" lon="5.65987">
        <ele>686.3</ele>
        <time>2023-05-16T08:16:07.477Z</time>
      </trkpt>
      <trkpt lat="44.91119" lon="5.65991">
        <ele>686.6</ele>
        <time>2023-05-16T08:16:09.336Z</time>
      </trkpt>
      <trkpt lat="44.91121" lon="5.65995">
        <ele>686.9</ele>
        <time>2023-05-16T08:16:10.973Z</time>
      </trkpt>
      <trkpt lat="44.91124" lon="5.65999">
        <ele>687.1</ele>
        <time>2023-05-16T08:16:12.688Z</time>
      </trkpt>
      <trkpt lat="44.91125" lon="5.66003">
        <ele>687.5</ele>
        <time>2023-05-16T08:16:14.361Z</time>
      </trkpt>
      <trkpt lat="44.91126" lon="5.66007">
        <ele>687.8</ele>
        <time>2023-05-16T08:16:15.847Z</time>
      </trkpt>
      <trkpt lat="44.91126" lon="5.66013">
        <ele>688.4</ele>
        <time>2023-05-16T08:16:18.283Z</time>
      </trkpt>
      <trkpt lat="44.91126" lon="5.66019">
        <ele>688.6</ele>
        <time>2023-05-16T08:16:20.041Z</time>
      </trkpt>
      <trkpt lat="44.91125" lon="5.66024">
        <ele>688.8</ele>
        <time>2023-05-16T08:16:21.601Z</time>
      </trkpt>
      <trkpt lat="44.91123" lon="5.66029">
        <ele>689</ele>
        <time>2023-05-16T08:16:23.295Z</time>
      </trkpt>
      <trkpt lat="44.9112" lon="5.66033">
        <ele>689.3</ele>
        <time>2023-05-16T08:16:25.154Z</time>
      </trkpt>
      <trkpt lat="44.91118" lon="5.66036">
        <ele>689.7</ele>
        <time>2023-05-16T08:16:26.802Z</time>
      </trkpt>
      <trkpt lat="44.91114" lon="5.66037">
        <ele>690.3</ele>
        <time>2023-05-16T08:16:29.188Z</time>
      </trkpt>
      <trkpt lat="44.91111" lon="5.66039">
        <ele>690.8</ele>
        <time>2023-05-16T08:16:31.158Z</time>
      </trkpt>
      <trkpt lat="44.91107" lon="5.66039">
        <ele>691.2</ele>
        <time>2023-05-16T08:16:33.137Z</time>
      </trkpt>
      <trkpt lat="44.91104" lon="5.66039">
        <ele>691.7</ele>
        <time>2023-05-16T08:16:35.028Z</time>
      </trkpt>
      <trkpt lat="44.911" lon="5.6604">
        <ele>692.4</ele>
        <time>2023-05-16T08:16:37.644Z</time>
      </trkpt>
      <trkpt lat="44.91097" lon="5.66042">
        <ele>692.7</ele>
        <time>2023-05-16T08:16:39.232Z</time>
      </trkpt>
      <trkpt lat="44.91094" lon="5.66044">
        <ele>692.9</ele>
        <time>2023-05-16T08:16:40.666Z</time>
      </trkpt>
      <trkpt lat="44.91091" lon="5.66045">
        <ele>693.1</ele>
        <time>2023-05-16T08:16:42.019Z</time>
      </trkpt>
      <trkpt lat="44.91087" lon="5.66048">
        <ele>693.6</ele>
        <time>2023-05-16T08:16:44.343Z</time>
      </trkpt>
      <trkpt lat="44.91084" lon="5.6605">
        <ele>694.3</ele>
        <time>2023-05-16T08:16:46.826Z</time>
      </trkpt>
      <trkpt lat="44.9108" lon="5.66053">
        <ele>695</ele>
        <time>2023-05-16T08:16:49.554Z</time>
      </trkpt>
      <trkpt lat="44.91076" lon="5.66054">
        <ele>695.4</ele>
        <time>2023-05-16T08:16:51.553Z</time>
      </trkpt>
      <trkpt lat="44.91073" lon="5.66055">
        <ele>695.7</ele>
        <time>2023-05-16T08:16:53.064Z</time>
      </trkpt>
      <trkpt lat="44.91069" lon="5.66058">
        <ele>696</ele>
        <time>2023-05-16T08:16:55.061Z</time>
      </trkpt>
      <trkpt lat="44.91066" lon="5.66059">
        <ele>696.5</ele>
        <time>2023-05-16T08:16:56.972Z</time>
      </trkpt>
      <trkpt lat="44.91063" lon="5.6606">
        <ele>696.9</ele>
        <time>2023-05-16T08:16:58.667Z</time>
      </trkpt>
      <trkpt lat="44.91059" lon="5.6606">
        <ele>697.1</ele>
        <time>2023-05-16T08:17:00.338Z</time>
      </trkpt>
      <trkpt lat="44.91056" lon="5.66061">
        <ele>697.3</ele>
        <time>2023-05-16T08:17:01.691Z</time>
      </trkpt>
      <trkpt lat="44.91053" lon="5.66062">
        <ele>697.5</ele>
        <time>2023-05-16T08:17:03.044Z</time>
      </trkpt>
      <trkpt lat="44.91049" lon="5.66061">
        <ele>697.8</ele>
        <time>2023-05-16T08:17:04.881Z</time>
      </trkpt>
      <trkpt lat="44.91045" lon="5.66061">
        <ele>698.3</ele>
        <time>2023-05-16T08:17:07.043Z</time>
      </trkpt>
      <trkpt lat="44.91041" lon="5.66062">
        <ele>698.9</ele>
        <time>2023-05-16T08:17:09.429Z</time>
      </trkpt>
      <trkpt lat="44.91039" lon="5.66064">
        <ele>699.3</ele>
        <time>2023-05-16T08:17:10.954Z</time>
      </trkpt>
      <trkpt lat="44.91036" lon="5.66067">
        <ele>699.7</ele>
        <time>2023-05-16T08:17:12.830Z</time>
      </trkpt>
      <trkpt lat="44.91033" lon="5.66069">
        <ele>700</ele>
        <time>2023-05-16T08:17:14.418Z</time>
      </trkpt>
      <trkpt lat="44.9103" lon="5.66072">
        <ele>700.4</ele>
        <time>2023-05-16T08:17:16.294Z</time>
      </trkpt>
      <trkpt lat="44.91027" lon="5.66075">
        <ele>700.9</ele>
        <time>2023-05-16T08:17:18.362Z</time>
      </trkpt>
      <trkpt lat="44.91025" lon="5.66077">
        <ele>701.4</ele>
        <time>2023-05-16T08:17:20.146Z</time>
      </trkpt>
      <trkpt lat="44.91023" lon="5.6608">
        <ele>701.7</ele>
        <time>2023-05-16T08:17:21.604Z</time>
      </trkpt>
      <trkpt lat="44.9102" lon="5.66084">
        <ele>701.9</ele>
        <time>2023-05-16T08:17:23.319Z</time>
      </trkpt>
      <trkpt lat="44.91017" lon="5.66087">
        <ele>702.1</ele>
        <time>2023-05-16T08:17:24.877Z</time>
      </trkpt>
      <trkpt lat="44.91016" lon="5.6609">
        <ele>702.3</ele>
        <time>2023-05-16T08:17:25.981Z</time>
      </trkpt>
      <trkpt lat="44.91014" lon="5.66094">
        <ele>702.4</ele>
        <time>2023-05-16T08:17:27.334Z</time>
      </trkpt>
      <trkpt lat="44.91013" lon="5.66098">
        <ele>702.7</ele>
        <time>2023-05-16T08:17:28.820Z</time>
      </trkpt>
      <trkpt lat="44.91011" lon="5.66102">
        <ele>703.2</ele>
        <time>2023-05-16T08:17:30.830Z</time>
      </trkpt>
      <trkpt lat="44.91009" lon="5.66108">
        <ele>712.2</ele>
        <time>2023-05-16T08:17:39.619Z</time>
      </trkpt>
      <trkpt lat="44.91006" lon="5.66113">
        <ele>722.6</ele>
        <time>2023-05-16T08:17:48.304Z</time>
      </trkpt>
      <trkpt lat="44.91004" lon="5.66118">
        <ele>722</ele>
        <time>2023-05-16T08:17:49.573Z</time>
      </trkpt>
      <trkpt lat="44.91001" lon="5.66122">
        <ele>721.7</ele>
        <time>2023-05-16T08:17:50.859Z</time>
      </trkpt>
      <trkpt lat="44.90999" lon="5.66127">
        <ele>721.3</ele>
        <time>2023-05-16T08:17:52.128Z</time>
      </trkpt>
      <trkpt lat="44.90997" lon="5.66131">
        <ele>720.8</ele>
        <time>2023-05-16T08:17:53.210Z</time>
      </trkpt>
      <trkpt lat="44.90995" lon="5.66136">
        <ele>720.2</ele>
        <time>2023-05-16T08:17:54.478Z</time>
      </trkpt>
      <trkpt lat="44.90994" lon="5.66141">
        <ele>719.8</ele>
        <time>2023-05-16T08:17:55.626Z</time>
      </trkpt>
      <trkpt lat="44.90992" lon="5.66145">
        <ele>719.6</ele>
        <time>2023-05-16T08:17:56.707Z</time>
      </trkpt>
      <trkpt lat="44.9099" lon="5.66148">
        <ele>719.4</ele>
        <time>2023-05-16T08:17:57.617Z</time>
      </trkpt>
      <trkpt lat="44.90988" lon="5.66152">
        <ele>719</ele>
        <time>2023-05-16T08:17:58.699Z</time>
      </trkpt>
      <trkpt lat="44.90986" lon="5.66156">
        <ele>718.6</ele>
        <time>2023-05-16T08:17:59.780Z</time>
      </trkpt>
      <trkpt lat="44.90984" lon="5.6616">
        <ele>718.1</ele>
        <time>2023-05-16T08:18:00.862Z</time>
      </trkpt>
      <trkpt lat="44.90982" lon="5.66163">
        <ele>717.6</ele>
        <time>2023-05-16T08:18:01.772Z</time>
      </trkpt>
      <trkpt lat="44.9098" lon="5.66167">
        <ele>717.3</ele>
        <time>2023-05-16T08:18:02.854Z</time>
      </trkpt>
      <trkpt lat="44.90978" lon="5.66171">
        <ele>717</ele>
        <time>2023-05-16T08:18:03.935Z</time>
      </trkpt>
      <trkpt lat="44.90976" lon="5.66175">
        <ele>716.7</ele>
        <time>2023-05-16T08:18:05.017Z</time>
      </trkpt>
      <trkpt lat="44.90974" lon="5.66179">
        <ele>716.2</ele>
        <time>2023-05-16T08:18:06.098Z</time>
      </trkpt>
      <trkpt lat="44.90972" lon="5.66182">
        <ele>715.6</ele>
        <time>2023-05-16T08:18:07.009Z</time>
      </trkpt>
      <trkpt lat="44.90968" lon="5.66185">
        <ele>715.2</ele>
        <time>2023-05-16T08:18:08.421Z</time>
      </trkpt>
      <trkpt lat="44.90965" lon="5.66185">
        <ele>715</ele>
        <time>2023-05-16T08:18:09.357Z</time>
      </trkpt>
      <trkpt lat="44.90961" lon="5.66182">
        <ele>714.7</ele>
        <time>2023-05-16T08:18:10.770Z</time>
      </trkpt>
      <trkpt lat="44.90959" lon="5.66178">
        <ele>714.7</ele>
        <time>2023-05-16T08:18:12.006Z</time>
      </trkpt>
      <trkpt lat="44.90958" lon="5.66171">
        <ele>715.2</ele>
        <time>2023-05-16T08:18:14.498Z</time>
      </trkpt>
      <trkpt lat="44.90959" lon="5.66165">
        <ele>715.9</ele>
        <time>2023-05-16T08:18:17.185Z</time>
      </trkpt>
      <trkpt lat="44.9096" lon="5.66159">
        <ele>716.7</ele>
        <time>2023-05-16T08:18:20.117Z</time>
      </trkpt>
      <trkpt lat="44.90963" lon="5.66155">
        <ele>717.2</ele>
        <time>2023-05-16T08:18:22.317Z</time>
      </trkpt>
      <trkpt lat="44.90966" lon="5.66153">
        <ele>717.6</ele>
        <time>2023-05-16T08:18:24.082Z</time>
      </trkpt>
      <trkpt lat="44.90969" lon="5.66151">
        <ele>718.1</ele>
        <time>2023-05-16T08:18:26.052Z</time>
      </trkpt>
      <trkpt lat="44.90971" lon="5.66148">
        <ele>718.8</ele>
        <time>2023-05-16T08:18:28.504Z</time>
      </trkpt>
      <trkpt lat="44.90975" lon="5.66144">
        <ele>719.5</ele>
        <time>2023-05-16T08:18:31.331Z</time>
      </trkpt>
      <trkpt lat="44.90978" lon="5.66139">
        <ele>719.9</ele>
        <time>2023-05-16T08:18:33.520Z</time>
      </trkpt>
      <trkpt lat="44.9098" lon="5.66134">
        <ele>720.6</ele>
        <time>2023-05-16T08:18:36.137Z</time>
      </trkpt>
      <trkpt lat="44.90982" lon="5.66129">
        <ele>721.3</ele>
        <time>2023-05-16T08:18:38.754Z</time>
      </trkpt>
      <trkpt lat="44.90983" lon="5.66124">
        <ele>721.7</ele>
        <time>2023-05-16T08:18:40.631Z</time>
      </trkpt>
      <trkpt lat="44.90984" lon="5.66119">
        <ele>722.2</ele>
        <time>2023-05-16T08:18:42.700Z</time>
      </trkpt>
      <trkpt lat="44.90984" lon="5.66114">
        <ele>723</ele>
        <time>2023-05-16T08:18:45.512Z</time>
      </trkpt>
      <trkpt lat="44.90986" lon="5.66109">
        <ele>723.5</ele>
        <time>2023-05-16T08:18:47.695Z</time>
      </trkpt>
      <trkpt lat="44.90988" lon="5.66105">
        <ele>723.9</ele>
        <time>2023-05-16T08:18:49.506Z</time>
      </trkpt>
      <trkpt lat="44.90988" lon="5.66101">
        <ele>724.7</ele>
        <time>2023-05-16T08:18:52.341Z</time>
      </trkpt>
      <trkpt lat="44.90989" lon="5.66096">
        <ele>725.4</ele>
        <time>2023-05-16T08:18:54.880Z</time>
      </trkpt>
      <trkpt lat="44.9099" lon="5.66092">
        <ele>725.8</ele>
        <time>2023-05-16T08:18:56.552Z</time>
      </trkpt>
      <trkpt lat="44.90991" lon="5.66087">
        <ele>726.1</ele>
        <time>2023-05-16T08:18:58.260Z</time>
      </trkpt>
      <trkpt lat="44.90992" lon="5.66082">
        <ele>726.4</ele>
        <time>2023-05-16T08:18:59.969Z</time>
      </trkpt>
      <trkpt lat="44.90993" lon="5.66078">
        <ele>726.8</ele>
        <time>2023-05-16T08:19:01.641Z</time>
      </trkpt>
      <trkpt lat="44.90994" lon="5.66074">
        <ele>727.3</ele>
        <time>2023-05-16T08:19:03.533Z</time>
      </trkpt>
      <trkpt lat="44.90994" lon="5.66069">
        <ele>727.8</ele>
        <time>2023-05-16T08:19:05.563Z</time>
      </trkpt>
      <trkpt lat="44.90994" lon="5.66064">
        <ele>728.1</ele>
        <time>2023-05-16T08:19:07.225Z</time>
      </trkpt>
      <trkpt lat="44.90994" lon="5.66057">
        <ele>728.7</ele>
        <time>2023-05-16T08:19:09.867Z</time>
      </trkpt>
      <trkpt lat="44.90994" lon="5.66052">
        <ele>729.3</ele>
        <time>2023-05-16T08:19:12.123Z</time>
      </trkpt>
      <trkpt lat="44.90995" lon="5.66047">
        <ele>729.9</ele>
        <time>2023-05-16T08:19:14.411Z</time>
      </trkpt>
      <trkpt lat="44.90995" lon="5.66042">
        <ele>730.2</ele>
        <time>2023-05-16T08:19:16.073Z</time>
      </trkpt>
      <trkpt lat="44.90996" lon="5.66037">
        <ele>730.4</ele>
        <time>2023-05-16T08:19:17.633Z</time>
      </trkpt>
      <trkpt lat="44.90998" lon="5.66032">
        <ele>730.7</ele>
        <time>2023-05-16T08:19:19.472Z</time>
      </trkpt>
      <trkpt lat="44.90999" lon="5.66027">
        <ele>730.7</ele>
        <time>2023-05-16T08:19:20.783Z</time>
      </trkpt>
      <trkpt lat="44.91001" lon="5.66023">
        <ele>730.6</ele>
        <time>2023-05-16T08:19:21.916Z</time>
      </trkpt>
      <trkpt lat="44.91003" lon="5.66019">
        <ele>730.6</ele>
        <time>2023-05-16T08:19:23.152Z</time>
      </trkpt>
      <trkpt lat="44.91006" lon="5.66016">
        <ele>730.5</ele>
        <time>2023-05-16T08:19:24.359Z</time>
      </trkpt>
      <trkpt lat="44.91009" lon="5.66011">
        <ele>730.4</ele>
        <time>2023-05-16T08:19:25.909Z</time>
      </trkpt>
      <trkpt lat="44.9101" lon="5.66006">
        <ele>729.6</ele>
        <time>2023-05-16T08:19:27.056Z</time>
      </trkpt>
      <trkpt lat="44.9101" lon="5.66002">
        <ele>729</ele>
        <time>2023-05-16T08:19:27.940Z</time>
      </trkpt>
      <trkpt lat="44.91011" lon="5.65997">
        <ele>728.3</ele>
        <time>2023-05-16T08:19:29.087Z</time>
      </trkpt>
      <trkpt lat="44.91011" lon="5.65993">
        <ele>727.6</ele>
        <time>2023-05-16T08:19:29.971Z</time>
      </trkpt>
      <trkpt lat="44.9101" lon="5.65989">
        <ele>727.6</ele>
        <time>2023-05-16T08:19:31.042Z</time>
      </trkpt>
      <trkpt lat="44.91008" lon="5.65986">
        <ele>728.2</ele>
        <time>2023-05-16T08:19:33.180Z</time>
      </trkpt>
      <trkpt lat="44.91006" lon="5.65983">
        <ele>727.5</ele>
        <time>2023-05-16T08:19:34.090Z</time>
      </trkpt>
      <trkpt lat="44.91002" lon="5.65981">
        <ele>730.4</ele>
        <time>2023-05-16T08:19:42.031Z</time>
      </trkpt>
      <trkpt lat="44.90999" lon="5.65979">
        <ele>731.3</ele>
        <time>2023-05-16T08:19:45.201Z</time>
      </trkpt>
      <trkpt lat="44.90996" lon="5.65978">
        <ele>732.8</ele>
        <time>2023-05-16T08:19:50.970Z</time>
      </trkpt>
      <trkpt lat="44.90994" lon="5.65977">
        <ele>732.8</ele>
        <time>2023-05-16T08:19:51.726Z</time>
      </trkpt>
      <trkpt lat="44.90991" lon="5.65975">
        <ele>733.4</ele>
        <time>2023-05-16T08:19:53.934Z</time>
      </trkpt>
      <trkpt lat="44.90988" lon="5.65974">
        <ele>734.7</ele>
        <time>2023-05-16T08:19:59.304Z</time>
      </trkpt>
      <trkpt lat="44.90985" lon="5.65972">
        <ele>736</ele>
        <time>2023-05-16T08:20:04.495Z</time>
      </trkpt>
      <trkpt lat="44.90982" lon="5.65969">
        <ele>736.5</ele>
        <time>2023-05-16T08:20:06.563Z</time>
      </trkpt>
      <trkpt lat="44.90979" lon="5.65966">
        <ele>737.1</ele>
        <time>2023-05-16T08:20:08.850Z</time>
      </trkpt>
      <trkpt lat="44.90976" lon="5.65962">
        <ele>737.7</ele>
        <time>2023-05-16T08:20:11.253Z</time>
      </trkpt>
      <trkpt lat="44.90972" lon="5.65958">
        <ele>739.8</ele>
        <time>2023-05-16T08:20:19.986Z</time>
      </trkpt>
      <trkpt lat="44.90968" lon="5.65955">
        <ele>741.3</ele>
        <time>2023-05-16T08:20:25.542Z</time>
      </trkpt>
      <trkpt lat="44.90965" lon="5.65952">
        <ele>741.6</ele>
        <time>2023-05-16T08:20:27.249Z</time>
      </trkpt>
      <trkpt lat="44.90961" lon="5.65948">
        <ele>742</ele>
        <time>2023-05-16T08:20:29.525Z</time>
      </trkpt>
      <trkpt lat="44.90958" lon="5.65946">
        <ele>742.4</ele>
        <time>2023-05-16T08:20:31.290Z</time>
      </trkpt>
      <trkpt lat="44.90955" lon="5.65943">
        <ele>743.9</ele>
        <time>2023-05-16T08:20:37.396Z</time>
      </trkpt>
      <trkpt lat="44.90951" lon="5.6594">
        <ele>744.4</ele>
        <time>2023-05-16T08:20:39.720Z</time>
      </trkpt>
      <trkpt lat="44.90948" lon="5.65937">
        <ele>745</ele>
        <time>2023-05-16T08:20:42.007Z</time>
      </trkpt>
      <trkpt lat="44.90945" lon="5.65934">
        <ele>746.7</ele>
        <time>2023-05-16T08:20:48.887Z</time>
      </trkpt>
      <trkpt lat="44.90943" lon="5.65931">
        <ele>747.3</ele>
        <time>2023-05-16T08:20:51.025Z</time>
      </trkpt>
      <trkpt lat="44.9094" lon="5.65929">
        <ele>747.8</ele>
        <time>2023-05-16T08:20:52.995Z</time>
      </trkpt>
      <trkpt lat="44.90935" lon="5.65926">
        <ele>751</ele>
        <time>2023-05-16T08:21:03.161Z</time>
      </trkpt>
      <trkpt lat="44.9093" lon="5.65923">
        <ele>751.2</ele>
        <time>2023-05-16T08:21:05.336Z</time>
      </trkpt>
      <trkpt lat="44.90927" lon="5.65921">
        <ele>752.6</ele>
        <time>2023-05-16T08:21:11.121Z</time>
      </trkpt>
      <trkpt lat="44.90923" lon="5.65918">
        <ele>754.2</ele>
        <time>2023-05-16T08:21:17.206Z</time>
      </trkpt>
      <trkpt lat="44.90918" lon="5.65915">
        <ele>754.4</ele>
        <time>2023-05-16T08:21:19.380Z</time>
      </trkpt>
      <trkpt lat="44.90914" lon="5.65912">
        <ele>756.3</ele>
        <time>2023-05-16T08:21:27.212Z</time>
      </trkpt>
      <trkpt lat="44.9091" lon="5.65909">
        <ele>757.9</ele>
        <time>2023-05-16T08:21:33.296Z</time>
      </trkpt>
      <trkpt lat="44.90906" lon="5.65907">
        <ele>757.9</ele>
        <time>2023-05-16T08:21:34.809Z</time>
      </trkpt>
      <trkpt lat="44.90902" lon="5.65905">
        <ele>760.6</ele>
        <time>2023-05-16T08:21:42.750Z</time>
      </trkpt>
      <trkpt lat="44.90898" lon="5.65903">
        <ele>760.6</ele>
        <time>2023-05-16T08:21:44.262Z</time>
      </trkpt>
      <trkpt lat="44.90894" lon="5.65901">
        <ele>762.1</ele>
        <time>2023-05-16T08:21:49.968Z</time>
      </trkpt>
      <trkpt lat="44.9089" lon="5.65899">
        <ele>763.9</ele>
        <time>2023-05-16T08:21:57.423Z</time>
      </trkpt>
      <trkpt lat="44.90886" lon="5.65896">
        <ele>765.5</ele>
        <time>2023-05-16T08:22:03.507Z</time>
      </trkpt>
      <trkpt lat="44.90883" lon="5.65891">
        <ele>765.5</ele>
        <time>2023-05-16T08:22:05.161Z</time>
      </trkpt>
      <trkpt lat="44.90881" lon="5.65888">
        <ele>765.2</ele>
        <time>2023-05-16T08:22:06.072Z</time>
      </trkpt>
      <trkpt lat="44.90878" lon="5.65885">
        <ele>763.6</ele>
        <time>2023-05-16T08:22:07.218Z</time>
      </trkpt>
      <trkpt lat="44.90875" lon="5.65881">
        <ele>764.5</ele>
        <time>2023-05-16T08:22:10.394Z</time>
      </trkpt>
      <trkpt lat="44.90871" lon="5.65879">
        <ele>765.8</ele>
        <time>2023-05-16T08:22:15.088Z</time>
      </trkpt>
      <trkpt lat="44.90868" lon="5.65877">
        <ele>765.5</ele>
        <time>2023-05-16T08:22:16.123Z</time>
      </trkpt>
      <trkpt lat="44.90865" lon="5.65875">
        <ele>766.9</ele>
        <time>2023-05-16T08:22:21.908Z</time>
      </trkpt>
      <trkpt lat="44.90861" lon="5.65872">
        <ele>766.5</ele>
        <time>2023-05-16T08:22:23.321Z</time>
      </trkpt>
      <trkpt lat="44.90857" lon="5.6587">
        <ele>767.9</ele>
        <time>2023-05-16T08:22:28.499Z</time>
      </trkpt>
      <trkpt lat="44.90854" lon="5.65869">
        <ele>767.2</ele>
        <time>2023-05-16T08:22:29.460Z</time>
      </trkpt>
      <trkpt lat="44.90851" lon="5.65867">
        <ele>768.4</ele>
        <time>2023-05-16T08:22:34.072Z</time>
      </trkpt>
      <trkpt lat="44.90849" lon="5.65865">
        <ele>769.7</ele>
        <time>2023-05-16T08:22:38.659Z</time>
      </trkpt>
      <trkpt lat="44.90845" lon="5.65864">
        <ele>768.8</ele>
        <time>2023-05-16T08:22:39.926Z</time>
      </trkpt>
      <trkpt lat="44.90842" lon="5.65861">
        <ele>769.9</ele>
        <time>2023-05-16T08:22:43.872Z</time>
      </trkpt>
      <trkpt lat="44.9084" lon="5.65858">
        <ele>769</ele>
        <time>2023-05-16T08:22:44.782Z</time>
      </trkpt>
      <trkpt lat="44.90837" lon="5.65854">
        <ele>768.1</ele>
        <time>2023-05-16T08:22:46.069Z</time>
      </trkpt>
      <trkpt lat="44.90834" lon="5.65849">
        <ele>767.3</ele>
        <time>2023-05-16T08:22:47.517Z</time>
      </trkpt>
      <trkpt lat="44.9083" lon="5.65845">
        <ele>766.5</ele>
        <time>2023-05-16T08:22:49.046Z</time>
      </trkpt>
      <trkpt lat="44.90826" lon="5.65841">
        <ele>765.6</ele>
        <time>2023-05-16T08:22:50.575Z</time>
      </trkpt>
      <trkpt lat="44.90823" lon="5.65839">
        <ele>764.5</ele>
        <time>2023-05-16T08:22:51.609Z</time>
      </trkpt>
      <trkpt lat="44.9082" lon="5.65836">
        <ele>765.5</ele>
        <time>2023-05-16T08:22:55.134Z</time>
      </trkpt>
      <trkpt lat="44.90817" lon="5.65832">
        <ele>765</ele>
        <time>2023-05-16T08:22:56.420Z</time>
      </trkpt>
      <trkpt lat="44.90813" lon="5.65829">
        <ele>763.5</ele>
        <time>2023-05-16T08:22:57.833Z</time>
      </trkpt>
      <trkpt lat="44.90809" lon="5.65826">
        <ele>764.5</ele>
        <time>2023-05-16T08:23:01.357Z</time>
      </trkpt>
      <trkpt lat="44.90806" lon="5.65824">
        <ele>763.1</ele>
        <time>2023-05-16T08:23:02.392Z</time>
      </trkpt>
      <trkpt lat="44.90803" lon="5.65822">
        <ele>761.8</ele>
        <time>2023-05-16T08:23:03.426Z</time>
      </trkpt>
      <trkpt lat="44.908" lon="5.65819">
        <ele>762.9</ele>
        <time>2023-05-16T08:23:07.373Z</time>
      </trkpt>
      <trkpt lat="44.90796" lon="5.65817">
        <ele>761.5</ele>
        <time>2023-05-16T08:23:08.697Z</time>
      </trkpt>
      <trkpt lat="44.90793" lon="5.65814">
        <ele>762.4</ele>
        <time>2023-05-16T08:23:11.848Z</time>
      </trkpt>
      <trkpt lat="44.9079" lon="5.65812">
        <ele>760.9</ele>
        <time>2023-05-16T08:23:12.883Z</time>
      </trkpt>
      <trkpt lat="44.90786" lon="5.6581">
        <ele>762.8</ele>
        <time>2023-05-16T08:23:20.824Z</time>
      </trkpt>
      <trkpt lat="44.90783" lon="5.65807">
        <ele>761.6</ele>
        <time>2023-05-16T08:23:21.971Z</time>
      </trkpt>
      <trkpt lat="44.90779" lon="5.65804">
        <ele>760.4</ele>
        <time>2023-05-16T08:23:23.383Z</time>
      </trkpt>
      <trkpt lat="44.90777" lon="5.65801">
        <ele>761.5</ele>
        <time>2023-05-16T08:23:27.694Z</time>
      </trkpt>
      <trkpt lat="44.90773" lon="5.65799">
        <ele>760.3</ele>
        <time>2023-05-16T08:23:29.017Z</time>
      </trkpt>
      <trkpt lat="44.9077" lon="5.65796">
        <ele>757.7</ele>
        <time>2023-05-16T08:23:30.164Z</time>
      </trkpt>
      <trkpt lat="44.90766" lon="5.65793">
        <ele>758.6</ele>
        <time>2023-05-16T08:23:33.393Z</time>
      </trkpt>
      <trkpt lat="44.90763" lon="5.65791">
        <ele>757.2</ele>
        <time>2023-05-16T08:23:34.428Z</time>
      </trkpt>
      <trkpt lat="44.9076" lon="5.65788">
        <ele>758.1</ele>
        <time>2023-05-16T08:23:37.579Z</time>
      </trkpt>
      <trkpt lat="44.90757" lon="5.65785">
        <ele>756.7</ele>
        <time>2023-05-16T08:23:38.726Z</time>
      </trkpt>
      <trkpt lat="44.90753" lon="5.65782">
        <ele>756.4</ele>
        <time>2023-05-16T08:23:40.139Z</time>
      </trkpt>
      <trkpt lat="44.90748" lon="5.65779">
        <ele>755</ele>
        <time>2023-05-16T08:23:41.833Z</time>
      </trkpt>
      <trkpt lat="44.90746" lon="5.65777">
        <ele>756.1</ele>
        <time>2023-05-16T08:23:46.419Z</time>
      </trkpt>
      <trkpt lat="44.90741" lon="5.65774">
        <ele>755.8</ele>
        <time>2023-05-16T08:23:48.114Z</time>
      </trkpt>
      <trkpt lat="44.90739" lon="5.65772">
        <ele>755.7</ele>
        <time>2023-05-16T08:23:48.887Z</time>
      </trkpt>
      <trkpt lat="44.90735" lon="5.6577">
        <ele>756.7</ele>
        <time>2023-05-16T08:23:52.392Z</time>
      </trkpt>
      <trkpt lat="44.90731" lon="5.65769">
        <ele>756.2</ele>
        <time>2023-05-16T08:23:53.659Z</time>
      </trkpt>
      <trkpt lat="44.90727" lon="5.65769">
        <ele>757.1</ele>
        <time>2023-05-16T08:23:56.824Z</time>
      </trkpt>
      <trkpt lat="44.90723" lon="5.65769">
        <ele>758</ele>
        <time>2023-05-16T08:23:59.989Z</time>
      </trkpt>
      <trkpt lat="44.90719" lon="5.65768">
        <ele>760</ele>
        <time>2023-05-16T08:24:07.591Z</time>
      </trkpt>
      <trkpt lat="44.90714" lon="5.65768">
        <ele>761</ele>
        <time>2023-05-16T08:24:11.174Z</time>
      </trkpt>
      <trkpt lat="44.90709" lon="5.65768">
        <ele>762.8</ele>
        <time>2023-05-16T08:24:18.076Z</time>
      </trkpt>
      <trkpt lat="44.90705" lon="5.65769">
        <ele>763.6</ele>
        <time>2023-05-16T08:24:20.953Z</time>
      </trkpt>
      <trkpt lat="44.907" lon="5.65769">
        <ele>765.5</ele>
        <time>2023-05-16T08:24:28.427Z</time>
      </trkpt>
      <trkpt lat="44.90695" lon="5.65771">
        <ele>769.8</ele>
        <time>2023-05-16T08:24:38.152Z</time>
      </trkpt>
      <trkpt lat="44.90691" lon="5.65774">
        <ele>770.8</ele>
        <time>2023-05-16T08:24:41.676Z</time>
      </trkpt>
      <trkpt lat="44.90687" lon="5.65777">
        <ele>773.9</ele>
        <time>2023-05-16T08:24:50.152Z</time>
      </trkpt>
      <trkpt lat="44.90683" lon="5.65781">
        <ele>777.5</ele>
        <time>2023-05-16T08:24:59.325Z</time>
      </trkpt>
      <trkpt lat="44.90678" lon="5.65784">
        <ele>780.3</ele>
        <time>2023-05-16T08:25:09.492Z</time>
      </trkpt>
      <trkpt lat="44.90675" lon="5.65788">
        <ele>783</ele>
        <time>2023-05-16T08:25:17.213Z</time>
      </trkpt>
      <trkpt lat="44.90671" lon="5.65792">
        <ele>784.7</ele>
        <time>2023-05-16T08:25:23.627Z</time>
      </trkpt>
      <trkpt lat="44.90667" lon="5.65795">
        <ele>787.3</ele>
        <time>2023-05-16T08:25:32.103Z</time>
      </trkpt>
      <trkpt lat="44.90663" lon="5.65798">
        <ele>790.7</ele>
        <time>2023-05-16T08:25:40.579Z</time>
      </trkpt>
      <trkpt lat="44.90658" lon="5.65798">
        <ele>792.3</ele>
        <time>2023-05-16T08:25:46.434Z</time>
      </trkpt>
      <trkpt lat="44.90654" lon="5.658">
        <ele>793</ele>
        <time>2023-05-16T08:25:49.091Z</time>
      </trkpt>
      <trkpt lat="44.9065" lon="5.65798">
        <ele>794.5</ele>
        <time>2023-05-16T08:25:54.797Z</time>
      </trkpt>
      <trkpt lat="44.90646" lon="5.65796">
        <ele>792.9</ele>
        <time>2023-05-16T08:25:56.121Z</time>
      </trkpt>
      <trkpt lat="44.90644" lon="5.65792">
        <ele>793.8</ele>
        <time>2023-05-16T08:25:59.278Z</time>
      </trkpt>
      <trkpt lat="44.90641" lon="5.65788">
        <ele>792.2</ele>
        <time>2023-05-16T08:26:00.565Z</time>
      </trkpt>
      <trkpt lat="44.90638" lon="5.65783">
        <ele>790</ele>
        <time>2023-05-16T08:26:02.012Z</time>
      </trkpt>
      <trkpt lat="44.90636" lon="5.65778">
        <ele>789.5</ele>
        <time>2023-05-16T08:26:03.281Z</time>
      </trkpt>
      <trkpt lat="44.90635" lon="5.65774">
        <ele>789.1</ele>
        <time>2023-05-16T08:26:04.218Z</time>
      </trkpt>
      <trkpt lat="44.90633" lon="5.65771">
        <ele>789</ele>
        <time>2023-05-16T08:26:05.156Z</time>
      </trkpt>
      <trkpt lat="44.90631" lon="5.65767">
        <ele>788.7</ele>
        <time>2023-05-16T08:26:06.238Z</time>
      </trkpt>
      <trkpt lat="44.90628" lon="5.65764">
        <ele>788.5</ele>
        <time>2023-05-16T08:26:07.384Z</time>
      </trkpt>
      <trkpt lat="44.90626" lon="5.65761">
        <ele>787.2</ele>
        <time>2023-05-16T08:26:08.294Z</time>
      </trkpt>
      <trkpt lat="44.90623" lon="5.65757">
        <ele>788.2</ele>
        <time>2023-05-16T08:26:11.796Z</time>
      </trkpt>
      <trkpt lat="44.9062" lon="5.65754">
        <ele>787.9</ele>
        <time>2023-05-16T08:26:12.943Z</time>
      </trkpt>
      <trkpt lat="44.90618" lon="5.65752">
        <ele>787.6</ele>
        <time>2023-05-16T08:26:13.707Z</time>
      </trkpt>
      <trkpt lat="44.90614" lon="5.6575">
        <ele>788.7</ele>
        <time>2023-05-16T08:26:17.566Z</time>
      </trkpt>
      <trkpt lat="44.90611" lon="5.65748">
        <ele>788.6</ele>
        <time>2023-05-16T08:26:18.646Z</time>
      </trkpt>
      <trkpt lat="44.90609" lon="5.65745">
        <ele>789.8</ele>
        <time>2023-05-16T08:26:23.548Z</time>
      </trkpt>
      <trkpt lat="44.90606" lon="5.65743">
        <ele>789.8</ele>
        <time>2023-05-16T08:26:24.730Z</time>
      </trkpt>
      <trkpt lat="44.90603" lon="5.6574">
        <ele>790.9</ele>
        <time>2023-05-16T08:26:28.677Z</time>
      </trkpt>
      <trkpt lat="44.906" lon="5.65737">
        <ele>790.8</ele>
        <time>2023-05-16T08:26:29.884Z</time>
      </trkpt>
      <trkpt lat="44.90598" lon="5.65734">
        <ele>790.6</ele>
        <time>2023-05-16T08:26:30.794Z</time>
      </trkpt>
      <trkpt lat="44.90595" lon="5.65732">
        <ele>791.7</ele>
        <time>2023-05-16T08:26:34.870Z</time>
      </trkpt>
      <trkpt lat="44.90592" lon="5.65729">
        <ele>791.7</ele>
        <time>2023-05-16T08:26:36.181Z</time>
      </trkpt>
      <trkpt lat="44.9059" lon="5.65727">
        <ele>790.4</ele>
        <time>2023-05-16T08:26:36.945Z</time>
      </trkpt>
      <trkpt lat="44.90587" lon="5.65723">
        <ele>791.7</ele>
        <time>2023-05-16T08:26:41.678Z</time>
      </trkpt>
      <trkpt lat="44.90584" lon="5.65721">
        <ele>791.9</ele>
        <time>2023-05-16T08:26:43.112Z</time>
      </trkpt>
      <trkpt lat="44.90581" lon="5.65718">
        <ele>792</ele>
        <time>2023-05-16T08:26:44.539Z</time>
      </trkpt>
      <trkpt lat="44.90579" lon="5.65715">
        <ele>793.2</ele>
        <time>2023-05-16T08:26:49.441Z</time>
      </trkpt>
      <trkpt lat="44.90576" lon="5.65712">
        <ele>793.2</ele>
        <time>2023-05-16T08:26:50.751Z</time>
      </trkpt>
      <trkpt lat="44.90573" lon="5.65708">
        <ele>793.1</ele>
        <time>2023-05-16T08:26:52.118Z</time>
      </trkpt>
      <trkpt lat="44.90571" lon="5.65705">
        <ele>792.9</ele>
        <time>2023-05-16T08:26:53.028Z</time>
      </trkpt>
      <trkpt lat="44.90568" lon="5.65701">
        <ele>791.5</ele>
        <time>2023-05-16T08:26:54.315Z</time>
      </trkpt>
      <trkpt lat="44.90566" lon="5.65699">
        <ele>792.6</ele>
        <time>2023-05-16T08:26:58.901Z</time>
      </trkpt>
      <trkpt lat="44.90563" lon="5.65696">
        <ele>792.4</ele>
        <time>2023-05-16T08:27:00.048Z</time>
      </trkpt>
      <trkpt lat="44.9056" lon="5.65693">
        <ele>793.6</ele>
        <time>2023-05-16T08:27:04.469Z</time>
      </trkpt>
      <trkpt lat="44.90557" lon="5.6569">
        <ele>793.4</ele>
        <time>2023-05-16T08:27:05.616Z</time>
      </trkpt>
      <trkpt lat="44.90555" lon="5.65687">
        <ele>793.2</ele>
        <time>2023-05-16T08:27:06.526Z</time>
      </trkpt>
      <trkpt lat="44.90552" lon="5.65684">
        <ele>793</ele>
        <time>2023-05-16T08:27:07.673Z</time>
      </trkpt>
      <trkpt lat="44.90549" lon="5.65681">
        <ele>794</ele>
        <time>2023-05-16T08:27:11.197Z</time>
      </trkpt>
      <trkpt lat="44.90546" lon="5.65677">
        <ele>793.7</ele>
        <time>2023-05-16T08:27:12.484Z</time>
      </trkpt>
      <trkpt lat="44.90543" lon="5.65675">
        <ele>793.4</ele>
        <time>2023-05-16T08:27:13.518Z</time>
      </trkpt>
      <trkpt lat="44.90541" lon="5.65673">
        <ele>793.3</ele>
        <time>2023-05-16T08:27:14.291Z</time>
      </trkpt>
      <trkpt lat="44.90538" lon="5.65671">
        <ele>792.9</ele>
        <time>2023-05-16T08:27:15.326Z</time>
      </trkpt>
      <trkpt lat="44.90536" lon="5.65669">
        <ele>793.6</ele>
        <time>2023-05-16T08:27:17.812Z</time>
      </trkpt>
      <trkpt lat="44.90532" lon="5.65668">
        <ele>794.3</ele>
        <time>2023-05-16T08:27:20.428Z</time>
      </trkpt>
      <trkpt lat="44.90528" lon="5.65667">
        <ele>795.8</ele>
        <time>2023-05-16T08:27:26.249Z</time>
      </trkpt>
      <trkpt lat="44.90525" lon="5.65667">
        <ele>795.2</ele>
        <time>2023-05-16T08:27:27.184Z</time>
      </trkpt>
      <trkpt lat="44.90521" lon="5.65667">
        <ele>795.8</ele>
        <time>2023-05-16T08:27:29.553Z</time>
      </trkpt>
      <trkpt lat="44.90518" lon="5.65666">
        <ele>796.4</ele>
        <time>2023-05-16T08:27:31.717Z</time>
      </trkpt>
      <trkpt lat="44.90515" lon="5.65666">
        <ele>796.9</ele>
        <time>2023-05-16T08:27:33.608Z</time>
      </trkpt>
      <trkpt lat="44.90511" lon="5.65665">
        <ele>797.3</ele>
        <time>2023-05-16T08:27:35.607Z</time>
      </trkpt>
      <trkpt lat="44.90507" lon="5.65666">
        <ele>797.9</ele>
        <time>2023-05-16T08:27:37.992Z</time>
      </trkpt>
      <trkpt lat="44.90505" lon="5.65666">
        <ele>798.3</ele>
        <time>2023-05-16T08:27:39.426Z</time>
      </trkpt>
      <trkpt lat="44.90501" lon="5.65665">
        <ele>798.8</ele>
        <time>2023-05-16T08:27:41.606Z</time>
      </trkpt>
      <trkpt lat="44.90498" lon="5.65665">
        <ele>799.1</ele>
        <time>2023-05-16T08:27:43.091Z</time>
      </trkpt>
      <trkpt lat="44.90494" lon="5.65664">
        <ele>799.5</ele>
        <time>2023-05-16T08:27:45.090Z</time>
      </trkpt>
      <trkpt lat="44.90491" lon="5.65665">
        <ele>800</ele>
        <time>2023-05-16T08:27:47.001Z</time>
      </trkpt>
      <trkpt lat="44.90487" lon="5.65666">
        <ele>800.7</ele>
        <time>2023-05-16T08:27:49.617Z</time>
      </trkpt>
      <trkpt lat="44.90485" lon="5.65668">
        <ele>801</ele>
        <time>2023-05-16T08:27:50.929Z</time>
      </trkpt>
      <trkpt lat="44.90482" lon="5.65669">
        <ele>801.2</ele>
        <time>2023-05-16T08:27:52.282Z</time>
      </trkpt>
      <trkpt lat="44.90479" lon="5.6567">
        <ele>801.4</ele>
        <time>2023-05-16T08:27:53.635Z</time>
      </trkpt>
      <trkpt lat="44.90476" lon="5.6567">
        <ele>801.6</ele>
        <time>2023-05-16T08:27:54.960Z</time>
      </trkpt>
      <trkpt lat="44.90473" lon="5.65671">
        <ele>801.8</ele>
        <time>2023-05-16T08:27:56.312Z</time>
      </trkpt>
      <trkpt lat="44.9047" lon="5.65672">
        <ele>802.2</ele>
        <time>2023-05-16T08:27:58.008Z</time>
      </trkpt>
      <trkpt lat="44.90466" lon="5.65672">
        <ele>802.6</ele>
        <time>2023-05-16T08:27:59.987Z</time>
      </trkpt>
      <trkpt lat="44.90463" lon="5.65674">
        <ele>803</ele>
        <time>2023-05-16T08:28:01.752Z</time>
      </trkpt>
      <trkpt lat="44.9046" lon="5.65676">
        <ele>803.3</ele>
        <time>2023-05-16T08:28:03.340Z</time>
      </trkpt>
      <trkpt lat="44.90457" lon="5.65677">
        <ele>803.5</ele>
        <time>2023-05-16T08:28:04.693Z</time>
      </trkpt>
      <trkpt lat="44.90454" lon="5.65678">
        <ele>803.7</ele>
        <time>2023-05-16T08:28:06.046Z</time>
      </trkpt>
      <trkpt lat="44.9045" lon="5.65679">
        <ele>804</ele>
        <time>2023-05-16T08:28:07.883Z</time>
      </trkpt>
      <trkpt lat="44.90447" lon="5.6568">
        <ele>804.3</ele>
        <time>2023-05-16T08:28:09.394Z</time>
      </trkpt>
      <trkpt lat="44.90444" lon="5.65682">
        <ele>804.9</ele>
        <time>2023-05-16T08:28:11.601Z</time>
      </trkpt>
      <trkpt lat="44.90441" lon="5.65683">
        <ele>805.5</ele>
        <time>2023-05-16T08:28:13.765Z</time>
      </trkpt>
      <trkpt lat="44.90438" lon="5.65684">
        <ele>805.9</ele>
        <time>2023-05-16T08:28:15.460Z</time>
      </trkpt>
      <trkpt lat="44.90435" lon="5.65685">
        <ele>806.3</ele>
        <time>2023-05-16T08:28:17.155Z</time>
      </trkpt>
      <trkpt lat="44.90431" lon="5.65687">
        <ele>806.8</ele>
        <time>2023-05-16T08:28:19.391Z</time>
      </trkpt>
      <trkpt lat="44.90428" lon="5.65688">
        <ele>807.4</ele>
        <time>2023-05-16T08:28:21.554Z</time>
      </trkpt>
      <trkpt lat="44.90425" lon="5.65689">
        <ele>807.7</ele>
        <time>2023-05-16T08:28:23.065Z</time>
      </trkpt>
      <trkpt lat="44.90422" lon="5.65689">
        <ele>807.9</ele>
        <time>2023-05-16T08:28:24.390Z</time>
      </trkpt>
      <trkpt lat="44.90418" lon="5.6569">
        <ele>808.2</ele>
        <time>2023-05-16T08:28:26.227Z</time>
      </trkpt>
      <trkpt lat="44.90414" lon="5.65691">
        <ele>808.7</ele>
        <time>2023-05-16T08:28:28.408Z</time>
      </trkpt>
      <trkpt lat="44.90411" lon="5.65693">
        <ele>809.2</ele>
        <time>2023-05-16T08:28:30.378Z</time>
      </trkpt>
      <trkpt lat="44.90408" lon="5.65694">
        <ele>809.7</ele>
        <time>2023-05-16T08:28:32.289Z</time>
      </trkpt>
      <trkpt lat="44.90404" lon="5.65695">
        <ele>809.9</ele>
        <time>2023-05-16T08:28:33.982Z</time>
      </trkpt>
      <trkpt lat="44.904" lon="5.65696">
        <ele>810.2</ele>
        <time>2023-05-16T08:28:35.819Z</time>
      </trkpt>
      <trkpt lat="44.90397" lon="5.65696">
        <ele>810.4</ele>
        <time>2023-05-16T08:28:37.144Z</time>
      </trkpt>
      <trkpt lat="44.90393" lon="5.65697">
        <ele>810.8</ele>
        <time>2023-05-16T08:28:39.143Z</time>
      </trkpt>
      <trkpt lat="44.9039" lon="5.65698">
        <ele>811.3</ele>
        <time>2023-05-16T08:28:41.053Z</time>
      </trkpt>
      <trkpt lat="44.90387" lon="5.65699">
        <ele>811.7</ele>
        <time>2023-05-16T08:28:42.749Z</time>
      </trkpt>
      <trkpt lat="44.90384" lon="5.657">
        <ele>812</ele>
        <time>2023-05-16T08:28:44.260Z</time>
      </trkpt>
      <trkpt lat="44.90381" lon="5.65701">
        <ele>812.2</ele>
        <time>2023-05-16T08:28:45.612Z</time>
      </trkpt>
      <trkpt lat="44.90378" lon="5.65702">
        <ele>812.4</ele>
        <time>2023-05-16T08:28:46.965Z</time>
      </trkpt>
      <trkpt lat="44.90375" lon="5.65703">
        <ele>812.6</ele>
        <time>2023-05-16T08:28:48.318Z</time>
      </trkpt>
      <trkpt lat="44.90372" lon="5.65704">
        <ele>812.9</ele>
        <time>2023-05-16T08:28:49.829Z</time>
      </trkpt>
      <trkpt lat="44.90369" lon="5.65704">
        <ele>813.4</ele>
        <time>2023-05-16T08:28:51.720Z</time>
      </trkpt>
      <trkpt lat="44.90365" lon="5.65704">
        <ele>814.1</ele>
        <time>2023-05-16T08:28:54.323Z</time>
      </trkpt>
      <trkpt lat="44.90362" lon="5.65705">
        <ele>814.6</ele>
        <time>2023-05-16T08:28:56.233Z</time>
      </trkpt>
      <trkpt lat="44.90359" lon="5.65706">
        <ele>814.8</ele>
        <time>2023-05-16T08:28:57.586Z</time>
      </trkpt>
      <trkpt lat="44.90356" lon="5.65708">
        <ele>815.1</ele>
        <time>2023-05-16T08:28:59.174Z</time>
      </trkpt>
      <trkpt lat="44.90353" lon="5.65711">
        <ele>815.5</ele>
        <time>2023-05-16T08:29:01.050Z</time>
      </trkpt>
      <trkpt lat="44.90349" lon="5.65713">
        <ele>816.1</ele>
        <time>2023-05-16T08:29:03.485Z</time>
      </trkpt>
      <trkpt lat="44.90346" lon="5.65715">
        <ele>816.5</ele>
        <time>2023-05-16T08:29:05.250Z</time>
      </trkpt>
      <trkpt lat="44.90343" lon="5.65717">
        <ele>816.7</ele>
        <time>2023-05-16T08:29:06.684Z</time>
      </trkpt>
      <trkpt lat="44.9034" lon="5.65719">
        <ele>817</ele>
        <time>2023-05-16T08:29:08.272Z</time>
      </trkpt>
      <trkpt lat="44.90336" lon="5.6572">
        <ele>817.6</ele>
        <time>2023-05-16T08:29:10.657Z</time>
      </trkpt>
      <trkpt lat="44.90332" lon="5.65721">
        <ele>818.1</ele>
        <time>2023-05-16T08:29:12.838Z</time>
      </trkpt>
      <trkpt lat="44.90329" lon="5.65722">
        <ele>818.4</ele>
        <time>2023-05-16T08:29:14.349Z</time>
      </trkpt>
      <trkpt lat="44.90326" lon="5.65724">
        <ele>818.7</ele>
        <time>2023-05-16T08:29:15.937Z</time>
      </trkpt>
      <trkpt lat="44.90322" lon="5.65726">
        <ele>819</ele>
        <time>2023-05-16T08:29:17.836Z</time>
      </trkpt>
      <trkpt lat="44.90319" lon="5.65729">
        <ele>819.2</ele>
        <time>2023-05-16T08:29:19.395Z</time>
      </trkpt>
      <trkpt lat="44.90316" lon="5.65732">
        <ele>819.4</ele>
        <time>2023-05-16T08:29:20.953Z</time>
      </trkpt>
      <trkpt lat="44.90313" lon="5.65735">
        <ele>819.7</ele>
        <time>2023-05-16T08:29:22.660Z</time>
      </trkpt>
      <trkpt lat="44.9031" lon="5.65738">
        <ele>820.1</ele>
        <time>2023-05-16T08:29:24.536Z</time>
      </trkpt>
      <trkpt lat="44.90307" lon="5.65742">
        <ele>820.6</ele>
        <time>2023-05-16T08:29:26.736Z</time>
      </trkpt>
      <trkpt lat="44.90304" lon="5.65746">
        <ele>820.8</ele>
        <time>2023-05-16T08:29:28.452Z</time>
      </trkpt>
      <trkpt lat="44.90301" lon="5.65749">
        <ele>821</ele>
        <time>2023-05-16T08:29:30.010Z</time>
      </trkpt>
      <trkpt lat="44.90297" lon="5.65751">
        <ele>821.1</ele>
        <time>2023-05-16T08:29:31.638Z</time>
      </trkpt>
      <trkpt lat="44.90293" lon="5.65752">
        <ele>821.5</ele>
        <time>2023-05-16T08:29:33.637Z</time>
      </trkpt>
      <trkpt lat="44.90289" lon="5.65752">
        <ele>821.9</ele>
        <time>2023-05-16T08:29:35.617Z</time>
      </trkpt>
      <trkpt lat="44.90285" lon="5.65749">
        <ele>822.4</ele>
        <time>2023-05-16T08:29:37.941Z</time>
      </trkpt>
      <trkpt lat="44.90283" lon="5.65745">
        <ele>822.6</ele>
        <time>2023-05-16T08:29:39.427Z</time>
      </trkpt>
      <trkpt lat="44.90282" lon="5.6574">
        <ele>822.8</ele>
        <time>2023-05-16T08:29:40.986Z</time>
      </trkpt>
      <trkpt lat="44.90281" lon="5.65736">
        <ele>822.9</ele>
        <time>2023-05-16T08:29:42.176Z</time>
      </trkpt>
      <trkpt lat="44.9028" lon="5.65732">
        <ele>823</ele>
        <time>2023-05-16T08:29:43.365Z</time>
      </trkpt>
      <trkpt lat="44.90278" lon="5.65727">
        <ele>823</ele>
        <time>2023-05-16T08:29:44.814Z</time>
      </trkpt>
      <trkpt lat="44.90276" lon="5.65723">
        <ele>822.9</ele>
        <time>2023-05-16T08:29:45.947Z</time>
      </trkpt>
      <trkpt lat="44.90275" lon="5.65718">
        <ele>822.9</ele>
        <time>2023-05-16T08:29:47.259Z</time>
      </trkpt>
      <trkpt lat="44.90273" lon="5.65714">
        <ele>822.9</ele>
        <time>2023-05-16T08:29:48.495Z</time>
      </trkpt>
      <trkpt lat="44.90271" lon="5.65707">
        <ele>822.9</ele>
        <time>2023-05-16T08:29:50.401Z</time>
      </trkpt>
      <trkpt lat="44.90269" lon="5.65703">
        <ele>822.8</ele>
        <time>2023-05-16T08:29:51.534Z</time>
      </trkpt>
      <trkpt lat="44.90267" lon="5.65699">
        <ele>822.8</ele>
        <time>2023-05-16T08:29:52.770Z</time>
      </trkpt>
      <trkpt lat="44.90265" lon="5.65694">
        <ele>822.7</ele>
        <time>2023-05-16T08:29:54.116Z</time>
      </trkpt>
      <trkpt lat="44.90263" lon="5.65689">
        <ele>822.7</ele>
        <time>2023-05-16T08:29:55.566Z</time>
      </trkpt>
      <trkpt lat="44.90261" lon="5.65685">
        <ele>822.7</ele>
        <time>2023-05-16T08:29:56.802Z</time>
      </trkpt>
      <trkpt lat="44.90258" lon="5.65682">
        <ele>822.6</ele>
        <time>2023-05-16T08:29:58.009Z</time>
      </trkpt>
      <trkpt lat="44.90257" lon="5.65678">
        <ele>822.4</ele>
        <time>2023-05-16T08:29:58.946Z</time>
      </trkpt>
      <trkpt lat="44.90254" lon="5.65673">
        <ele>822.2</ele>
        <time>2023-05-16T08:30:00.400Z</time>
      </trkpt>
      <trkpt lat="44.90252" lon="5.65668">
        <ele>822.1</ele>
        <time>2023-05-16T08:30:01.745Z</time>
      </trkpt>
      <trkpt lat="44.90249" lon="5.65662">
        <ele>822</ele>
        <time>2023-05-16T08:30:03.494Z</time>
      </trkpt>
      <trkpt lat="44.90247" lon="5.65656">
        <ele>821.9</ele>
        <time>2023-05-16T08:30:05.064Z</time>
      </trkpt>
      <trkpt lat="44.90244" lon="5.65651">
        <ele>821.8</ele>
        <time>2023-05-16T08:30:06.613Z</time>
      </trkpt>
      <trkpt lat="44.90241" lon="5.65644">
        <ele>821.7</ele>
        <time>2023-05-16T08:30:08.573Z</time>
      </trkpt>
      <trkpt lat="44.90238" lon="5.65637">
        <ele>821.6</ele>
        <time>2023-05-16T08:30:10.533Z</time>
      </trkpt>
      <trkpt lat="44.90234" lon="5.6563">
        <ele>821.5</ele>
        <time>2023-05-16T08:30:12.698Z</time>
      </trkpt>
      <trkpt lat="44.9023" lon="5.65623">
        <ele>821.3</ele>
        <time>2023-05-16T08:30:14.764Z</time>
      </trkpt>
      <trkpt lat="44.90226" lon="5.65616">
        <ele>821.1</ele>
        <time>2023-05-16T08:30:16.829Z</time>
      </trkpt>
      <trkpt lat="44.90222" lon="5.65609">
        <ele>820.8</ele>
        <time>2023-05-16T08:30:18.816Z</time>
      </trkpt>
      <trkpt lat="44.90217" lon="5.65601">
        <ele>820.6</ele>
        <time>2023-05-16T08:30:21.302Z</time>
      </trkpt>
      <trkpt lat="44.90211" lon="5.65593">
        <ele>820.4</ele>
        <time>2023-05-16T08:30:24.036Z</time>
      </trkpt>
      <trkpt lat="44.90206" lon="5.65585">
        <ele>820.2</ele>
        <time>2023-05-16T08:30:26.522Z</time>
      </trkpt>
      <trkpt lat="44.90199" lon="5.65576">
        <ele>819.9</ele>
        <time>2023-05-16T08:30:29.589Z</time>
      </trkpt>
      <trkpt lat="44.90193" lon="5.65566">
        <ele>819.6</ele>
        <time>2023-05-16T08:30:32.590Z</time>
      </trkpt>
      <trkpt lat="44.90186" lon="5.65556">
        <ele>819.3</ele>
        <time>2023-05-16T08:30:35.831Z</time>
      </trkpt>
      <trkpt lat="44.90179" lon="5.65548">
        <ele>819.1</ele>
        <time>2023-05-16T08:30:38.832Z</time>
      </trkpt>
      <trkpt lat="44.90171" lon="5.65539">
        <ele>818.9</ele>
        <time>2023-05-16T08:30:42.268Z</time>
      </trkpt>
      <trkpt lat="44.90162" lon="5.65532">
        <ele>818.7</ele>
        <time>2023-05-16T08:30:45.720Z</time>
      </trkpt>
      <trkpt lat="44.90152" lon="5.65528">
        <ele>818.6</ele>
        <time>2023-05-16T08:30:49.318Z</time>
      </trkpt>
      <trkpt lat="44.90142" lon="5.65525">
        <ele>818.4</ele>
        <time>2023-05-16T08:30:52.751Z</time>
      </trkpt>
      <trkpt lat="44.90131" lon="5.65523">
        <ele>818.2</ele>
        <time>2023-05-16T08:30:56.493Z</time>
      </trkpt>
      <trkpt lat="44.90121" lon="5.65521">
        <ele>817.9</ele>
        <time>2023-05-16T08:30:59.785Z</time>
      </trkpt>
      <trkpt lat="44.9011" lon="5.65517">
        <ele>817.5</ele>
        <time>2023-05-16T08:31:03.426Z</time>
      </trkpt>
      <trkpt lat="44.901" lon="5.65511">
        <ele>817.2</ele>
        <time>2023-05-16T08:31:06.989Z</time>
      </trkpt>
      <trkpt lat="44.90091" lon="5.65501">
        <ele>816.8</ele>
        <time>2023-05-16T08:31:10.663Z</time>
      </trkpt>
      <trkpt lat="44.90083" lon="5.65491">
        <ele>816.4</ele>
        <time>2023-05-16T08:31:14.067Z</time>
      </trkpt>
      <trkpt lat="44.90077" lon="5.6548">
        <ele>815.9</ele>
        <time>2023-05-16T08:31:17.134Z</time>
      </trkpt>
      <trkpt lat="44.90071" lon="5.65467">
        <ele>815.4</ele>
        <time>2023-05-16T08:31:20.562Z</time>
      </trkpt>
      <trkpt lat="44.90067" lon="5.65456">
        <ele>814.8</ele>
        <time>2023-05-16T08:31:23.294Z</time>
      </trkpt>
      <trkpt lat="44.90063" lon="5.65443">
        <ele>814.1</ele>
        <time>2023-05-16T08:31:26.425Z</time>
      </trkpt>
      <trkpt lat="44.90059" lon="5.65432">
        <ele>813.6</ele>
        <time>2023-05-16T08:31:29.157Z</time>
      </trkpt>
      <trkpt lat="44.90055" lon="5.65421">
        <ele>813.1</ele>
        <time>2023-05-16T08:31:31.888Z</time>
      </trkpt>
      <trkpt lat="44.9005" lon="5.65412">
        <ele>812.6</ele>
        <time>2023-05-16T08:31:34.415Z</time>
      </trkpt>
      <trkpt lat="44.90045" lon="5.65403">
        <ele>812.3</ele>
        <time>2023-05-16T08:31:36.999Z</time>
      </trkpt>
      <trkpt lat="44.90039" lon="5.65395">
        <ele>812</ele>
        <time>2023-05-16T08:31:39.636Z</time>
      </trkpt>
      <trkpt lat="44.90034" lon="5.65389">
        <ele>811.8</ele>
        <time>2023-05-16T08:31:41.769Z</time>
      </trkpt>
      <trkpt lat="44.90028" lon="5.65383">
        <ele>811.8</ele>
        <time>2023-05-16T08:31:44.390Z</time>
      </trkpt>
      <trkpt lat="44.90022" lon="5.65378">
        <ele>811.7</ele>
        <time>2023-05-16T08:31:46.767Z</time>
      </trkpt>
      <trkpt lat="44.90017" lon="5.65375">
        <ele>811.7</ele>
        <time>2023-05-16T08:31:48.704Z</time>
      </trkpt>
      <trkpt lat="44.90011" lon="5.65372">
        <ele>811.7</ele>
        <time>2023-05-16T08:31:50.973Z</time>
      </trkpt>
      <trkpt lat="44.90005" lon="5.6537">
        <ele>811.7</ele>
        <time>2023-05-16T08:31:53.170Z</time>
      </trkpt>
      <trkpt lat="44.9" lon="5.65369">
        <ele>811.8</ele>
        <time>2023-05-16T08:31:55.085Z</time>
      </trkpt>
      <trkpt lat="44.89995" lon="5.65368">
        <ele>811.8</ele>
        <time>2023-05-16T08:31:56.885Z</time>
      </trkpt>
      <trkpt lat="44.8999" lon="5.65369">
        <ele>811.8</ele>
        <time>2023-05-16T08:31:58.685Z</time>
      </trkpt>
      <trkpt lat="44.89985" lon="5.65369">
        <ele>811.9</ele>
        <time>2023-05-16T08:32:00.582Z</time>
      </trkpt>
      <trkpt lat="44.89979" lon="5.65369">
        <ele>811.9</ele>
        <time>2023-05-16T08:32:02.721Z</time>
      </trkpt>
      <trkpt lat="44.89973" lon="5.65369">
        <ele>811.9</ele>
        <time>2023-05-16T08:32:04.859Z</time>
      </trkpt>
      <trkpt lat="44.89967" lon="5.65371">
        <ele>812</ele>
        <time>2023-05-16T08:32:07.171Z</time>
      </trkpt>
      <trkpt lat="44.8996" lon="5.65372">
        <ele>812</ele>
        <time>2023-05-16T08:32:09.679Z</time>
      </trkpt>
      <trkpt lat="44.89953" lon="5.65373">
        <ele>812.1</ele>
        <time>2023-05-16T08:32:12.300Z</time>
      </trkpt>
      <trkpt lat="44.89946" lon="5.65373">
        <ele>812.1</ele>
        <time>2023-05-16T08:32:14.795Z</time>
      </trkpt>
      <trkpt lat="44.8994" lon="5.65373">
        <ele>812.1</ele>
        <time>2023-05-16T08:32:16.934Z</time>
      </trkpt>
      <trkpt lat="44.89935" lon="5.65371">
        <ele>812.2</ele>
        <time>2023-05-16T08:32:18.901Z</time>
      </trkpt>
      <trkpt lat="44.89929" lon="5.65368">
        <ele>812.2</ele>
        <time>2023-05-16T08:32:21.169Z</time>
      </trkpt>
      <trkpt lat="44.89924" lon="5.65365">
        <ele>812.2</ele>
        <time>2023-05-16T08:32:23.106Z</time>
      </trkpt>
      <trkpt lat="44.89919" lon="5.6536">
        <ele>812.2</ele>
        <time>2023-05-16T08:32:25.290Z</time>
      </trkpt>
      <trkpt lat="44.89913" lon="5.65357">
        <ele>812.3</ele>
        <time>2023-05-16T08:32:27.673Z</time>
      </trkpt>
      <trkpt lat="44.89908" lon="5.65354">
        <ele>812.3</ele>
        <time>2023-05-16T08:32:29.609Z</time>
      </trkpt>
      <trkpt lat="44.89902" lon="5.65351">
        <ele>812.3</ele>
        <time>2023-05-16T08:32:31.878Z</time>
      </trkpt>
      <trkpt lat="44.89896" lon="5.65347">
        <ele>812.3</ele>
        <time>2023-05-16T08:32:34.243Z</time>
      </trkpt>
      <trkpt lat="44.8989" lon="5.65345">
        <ele>812.4</ele>
        <time>2023-05-16T08:32:36.555Z</time>
      </trkpt>
      <trkpt lat="44.89885" lon="5.65344">
        <ele>812.4</ele>
        <time>2023-05-16T08:32:38.355Z</time>
      </trkpt>
      <trkpt lat="44.89879" lon="5.65342">
        <ele>812.4</ele>
        <time>2023-05-16T08:32:40.552Z</time>
      </trkpt>
      <trkpt lat="44.89873" lon="5.65341">
        <ele>812.4</ele>
        <time>2023-05-16T08:32:42.706Z</time>
      </trkpt>
      <trkpt lat="44.89867" lon="5.65338">
        <ele>812.5</ele>
        <time>2023-05-16T08:32:45.088Z</time>
      </trkpt>
      <trkpt lat="44.89862" lon="5.65334">
        <ele>812.5</ele>
        <time>2023-05-16T08:32:47.137Z</time>
      </trkpt>
      <trkpt lat="44.89856" lon="5.65331">
        <ele>812.5</ele>
        <time>2023-05-16T08:32:49.406Z</time>
      </trkpt>
      <trkpt lat="44.8985" lon="5.65328">
        <ele>812.5</ele>
        <time>2023-05-16T08:32:51.675Z</time>
      </trkpt>
      <trkpt lat="44.89845" lon="5.65324">
        <ele>812.6</ele>
        <time>2023-05-16T08:32:53.837Z</time>
      </trkpt>
      <trkpt lat="44.8984" lon="5.65321">
        <ele>812.6</ele>
        <time>2023-05-16T08:32:55.774Z</time>
      </trkpt>
      <trkpt lat="44.89834" lon="5.65318">
        <ele>812.6</ele>
        <time>2023-05-16T08:32:58.043Z</time>
      </trkpt>
      <trkpt lat="44.8983" lon="5.65314">
        <ele>812.7</ele>
        <time>2023-05-16T08:32:59.905Z</time>
      </trkpt>
      <trkpt lat="44.89824" lon="5.6531">
        <ele>812.8</ele>
        <time>2023-05-16T08:33:02.383Z</time>
      </trkpt>
      <trkpt lat="44.89818" lon="5.65307">
        <ele>812.8</ele>
        <time>2023-05-16T08:33:04.652Z</time>
      </trkpt>
      <trkpt lat="44.89812" lon="5.65303">
        <ele>812.9</ele>
        <time>2023-05-16T08:33:07.131Z</time>
      </trkpt>
      <trkpt lat="44.89807" lon="5.65299">
        <ele>813</ele>
        <time>2023-05-16T08:33:09.293Z</time>
      </trkpt>
      <trkpt lat="44.89802" lon="5.65294">
        <ele>813.3</ele>
        <time>2023-05-16T08:33:11.845Z</time>
      </trkpt>
      <trkpt lat="44.89797" lon="5.6529">
        <ele>813.6</ele>
        <time>2023-05-16T08:33:14.263Z</time>
      </trkpt>
      <trkpt lat="44.89791" lon="5.65285">
        <ele>814.1</ele>
        <time>2023-05-16T08:33:17.393Z</time>
      </trkpt>
      <trkpt lat="44.89786" lon="5.6528">
        <ele>814.6</ele>
        <time>2023-05-16T08:33:20.238Z</time>
      </trkpt>
      <trkpt lat="44.89782" lon="5.65274">
        <ele>815.1</ele>
        <time>2023-05-16T08:33:22.986Z</time>
      </trkpt>
      <trkpt lat="44.89782" lon="5.65267">
        <ele>815.5</ele>
        <time>2023-05-16T08:33:25.281Z</time>
      </trkpt>
      <trkpt lat="44.89786" lon="5.6526">
        <ele>816</ele>
        <time>2023-05-16T08:33:28.208Z</time>
      </trkpt>
      <trkpt lat="44.8979" lon="5.65255">
        <ele>816.4</ele>
        <time>2023-05-16T08:33:30.633Z</time>
      </trkpt>
      <trkpt lat="44.89795" lon="5.65251">
        <ele>816.7</ele>
        <time>2023-05-16T08:33:33.052Z</time>
      </trkpt>
      <trkpt lat="44.89798" lon="5.65248">
        <ele>816.9</ele>
        <time>2023-05-16T08:33:34.610Z</time>
      </trkpt>
      <trkpt lat="44.89802" lon="5.65242">
        <ele>817.2</ele>
        <time>2023-05-16T08:33:37.060Z</time>
      </trkpt>
      <trkpt lat="44.89805" lon="5.65237">
        <ele>817.4</ele>
        <time>2023-05-16T08:33:38.956Z</time>
      </trkpt>
      <trkpt lat="44.89809" lon="5.65231">
        <ele>817.5</ele>
        <time>2023-05-16T08:33:41.150Z</time>
      </trkpt>
      <trkpt lat="44.89813" lon="5.65226">
        <ele>817.7</ele>
        <time>2023-05-16T08:33:43.293Z</time>
      </trkpt>
      <trkpt lat="44.89816" lon="5.65219">
        <ele>817.8</ele>
        <time>2023-05-16T08:33:45.473Z</time>
      </trkpt>
      <trkpt lat="44.89817" lon="5.65213">
        <ele>817.9</ele>
        <time>2023-05-16T08:33:47.145Z</time>
      </trkpt>
      <trkpt lat="44.89819" lon="5.65206">
        <ele>818.1</ele>
        <time>2023-05-16T08:33:49.289Z</time>
      </trkpt>
      <trkpt lat="44.89823" lon="5.652">
        <ele>818.2</ele>
        <time>2023-05-16T08:33:51.484Z</time>
      </trkpt>
      <trkpt lat="44.89825" lon="5.65194">
        <ele>818.3</ele>
        <time>2023-05-16T08:33:53.273Z</time>
      </trkpt>
      <trkpt lat="44.89828" lon="5.65188">
        <ele>818.4</ele>
        <time>2023-05-16T08:33:55.242Z</time>
      </trkpt>
      <trkpt lat="44.89831" lon="5.65182">
        <ele>818.5</ele>
        <time>2023-05-16T08:33:57.211Z</time>
      </trkpt>
      <trkpt lat="44.89833" lon="5.65175">
        <ele>818.6</ele>
        <time>2023-05-16T08:33:59.231Z</time>
      </trkpt>
      <trkpt lat="44.89835" lon="5.65169">
        <ele>818.7</ele>
        <time>2023-05-16T08:34:01.020Z</time>
      </trkpt>
      <trkpt lat="44.89837" lon="5.65163">
        <ele>818.8</ele>
        <time>2023-05-16T08:34:02.809Z</time>
      </trkpt>
      <trkpt lat="44.89839" lon="5.65156">
        <ele>819</ele>
        <time>2023-05-16T08:34:04.954Z</time>
      </trkpt>
      <trkpt lat="44.89842" lon="5.65153">
        <ele>819.1</ele>
        <time>2023-05-16T08:34:06.381Z</time>
      </trkpt>
      <trkpt lat="44.89845" lon="5.65149">
        <ele>819.2</ele>
        <time>2023-05-16T08:34:07.967Z</time>
      </trkpt>
      <trkpt lat="44.89848" lon="5.65145">
        <ele>819.3</ele>
        <time>2023-05-16T08:34:09.554Z</time>
      </trkpt>
      <trkpt lat="44.89851" lon="5.65141">
        <ele>819.4</ele>
        <time>2023-05-16T08:34:11.141Z</time>
      </trkpt>
      <trkpt lat="44.89853" lon="5.65135">
        <ele>819.5</ele>
        <time>2023-05-16T08:34:12.930Z</time>
      </trkpt>
      <trkpt lat="44.89856" lon="5.65129">
        <ele>819.6</ele>
        <time>2023-05-16T08:34:14.899Z</time>
      </trkpt>
      <trkpt lat="44.89858" lon="5.65123">
        <ele>819.7</ele>
        <time>2023-05-16T08:34:16.688Z</time>
      </trkpt>
      <trkpt lat="44.89859" lon="5.65117">
        <ele>819.8</ele>
        <time>2023-05-16T08:34:18.360Z</time>
      </trkpt>
      <trkpt lat="44.89858" lon="5.65111">
        <ele>820</ele>
        <time>2023-05-16T08:34:20.159Z</time>
      </trkpt>
      <trkpt lat="44.89858" lon="5.65105">
        <ele>820</ele>
        <time>2023-05-16T08:34:21.674Z</time>
      </trkpt>
      <trkpt lat="44.89858" lon="5.651">
        <ele>820</ele>
        <time>2023-05-16T08:34:22.937Z</time>
      </trkpt>
      <trkpt lat="44.89858" lon="5.65093">
        <ele>820</ele>
        <time>2023-05-16T08:34:24.704Z</time>
      </trkpt>
      <trkpt lat="44.89858" lon="5.65085">
        <ele>820</ele>
        <time>2023-05-16T08:34:26.724Z</time>
      </trkpt>
      <trkpt lat="44.89858" lon="5.6508">
        <ele>820</ele>
        <time>2023-05-16T08:34:27.987Z</time>
      </trkpt>
      <trkpt lat="44.89858" lon="5.65075">
        <ele>820</ele>
        <time>2023-05-16T08:34:29.249Z</time>
      </trkpt>
      <trkpt lat="44.89859" lon="5.65071">
        <ele>820</ele>
        <time>2023-05-16T08:34:30.320Z</time>
      </trkpt>
      <trkpt lat="44.8986" lon="5.65065">
        <ele>820</ele>
        <time>2023-05-16T08:34:31.877Z</time>
      </trkpt>
      <trkpt lat="44.8986" lon="5.6506">
        <ele>820.1</ele>
        <time>2023-05-16T08:34:33.256Z</time>
      </trkpt>
      <trkpt lat="44.8986" lon="5.65052">
        <ele>820.1</ele>
        <time>2023-05-16T08:34:35.276Z</time>
      </trkpt>
      <trkpt lat="44.89859" lon="5.65048">
        <ele>820.1</ele>
        <time>2023-05-16T08:34:36.347Z</time>
      </trkpt>
      <trkpt lat="44.8986" lon="5.65041">
        <ele>820.2</ele>
        <time>2023-05-16T08:34:38.264Z</time>
      </trkpt>
      <trkpt lat="44.8986" lon="5.65035">
        <ele>820.3</ele>
        <time>2023-05-16T08:34:39.895Z</time>
      </trkpt>
      <trkpt lat="44.8986" lon="5.6503">
        <ele>820.3</ele>
        <time>2023-05-16T08:34:41.157Z</time>
      </trkpt>
      <trkpt lat="44.8986" lon="5.65023">
        <ele>820.4</ele>
        <time>2023-05-16T08:34:43.040Z</time>
      </trkpt>
      <trkpt lat="44.8986" lon="5.65016">
        <ele>820.7</ele>
        <time>2023-05-16T08:34:45.184Z</time>
      </trkpt>
      <trkpt lat="44.8986" lon="5.65012">
        <ele>820.8</ele>
        <time>2023-05-16T08:34:46.313Z</time>
      </trkpt>
      <trkpt lat="44.8986" lon="5.65008">
        <ele>821.1</ele>
        <time>2023-05-16T08:34:47.744Z</time>
      </trkpt>
      <trkpt lat="44.89859" lon="5.65002">
        <ele>821.3</ele>
        <time>2023-05-16T08:34:49.543Z</time>
      </trkpt>
      <trkpt lat="44.89859" lon="5.64995">
        <ele>821.5</ele>
        <time>2023-05-16T08:34:51.551Z</time>
      </trkpt>
      <trkpt lat="44.89859" lon="5.64988">
        <ele>821.8</ele>
        <time>2023-05-16T08:34:53.696Z</time>
      </trkpt>
      <trkpt lat="44.89859" lon="5.64984">
        <ele>821.9</ele>
        <time>2023-05-16T08:34:54.824Z</time>
      </trkpt>
      <trkpt lat="44.89859" lon="5.64977">
        <ele>822.3</ele>
        <time>2023-05-16T08:34:57.120Z</time>
      </trkpt>
      <trkpt lat="44.89859" lon="5.64971">
        <ele>822.8</ele>
        <time>2023-05-16T08:34:59.357Z</time>
      </trkpt>
      <trkpt lat="44.89859" lon="5.64964">
        <ele>823.2</ele>
        <time>2023-05-16T08:35:01.653Z</time>
      </trkpt>
      <trkpt lat="44.89859" lon="5.64959">
        <ele>823.4</ele>
        <time>2023-05-16T08:35:03.164Z</time>
      </trkpt>
      <trkpt lat="44.89859" lon="5.64953">
        <ele>823.6</ele>
        <time>2023-05-16T08:35:04.923Z</time>
      </trkpt>
      <trkpt lat="44.89858" lon="5.64946">
        <ele>823.9</ele>
        <time>2023-05-16T08:35:07.102Z</time>
      </trkpt>
      <trkpt lat="44.89858" lon="5.6494">
        <ele>824.3</ele>
        <time>2023-05-16T08:35:09.163Z</time>
      </trkpt>
      <trkpt lat="44.89859" lon="5.64933">
        <ele>824.7</ele>
        <time>2023-05-16T08:35:11.491Z</time>
      </trkpt>
      <trkpt lat="44.89859" lon="5.64927">
        <ele>824.8</ele>
        <time>2023-05-16T08:35:13.122Z</time>
      </trkpt>
      <trkpt lat="44.8986" lon="5.6492">
        <ele>825</ele>
        <time>2023-05-16T08:35:15.165Z</time>
      </trkpt>
      <trkpt lat="44.8986" lon="5.64913">
        <ele>825.1</ele>
        <time>2023-05-16T08:35:17.047Z</time>
      </trkpt>
      <trkpt lat="44.89861" lon="5.64906">
        <ele>825.4</ele>
        <time>2023-05-16T08:35:19.226Z</time>
      </trkpt>
      <trkpt lat="44.89862" lon="5.64898">
        <ele>825.8</ele>
        <time>2023-05-16T08:35:21.791Z</time>
      </trkpt>
      <trkpt lat="44.89862" lon="5.64895">
        <ele>826</ele>
        <time>2023-05-16T08:35:22.821Z</time>
      </trkpt>
      <trkpt lat="44.89862" lon="5.64891">
        <ele>826.2</ele>
        <time>2023-05-16T08:35:24.089Z</time>
      </trkpt>
      <trkpt lat="44.89863" lon="5.64883">
        <ele>826.3</ele>
        <time>2023-05-16T08:35:26.254Z</time>
      </trkpt>
      <trkpt lat="44.89864" lon="5.64876">
        <ele>826.4</ele>
        <time>2023-05-16T08:35:28.171Z</time>
      </trkpt>
      <trkpt lat="44.89864" lon="5.64869">
        <ele>826.5</ele>
        <time>2023-05-16T08:35:30.054Z</time>
      </trkpt>
      <trkpt lat="44.89865" lon="5.64862">
        <ele>826.6</ele>
        <time>2023-05-16T08:35:31.971Z</time>
      </trkpt>
      <trkpt lat="44.89866" lon="5.64856">
        <ele>826.6</ele>
        <time>2023-05-16T08:35:33.528Z</time>
      </trkpt>
      <trkpt lat="44.89867" lon="5.6485">
        <ele>826.7</ele>
        <time>2023-05-16T08:35:35.199Z</time>
      </trkpt>
      <trkpt lat="44.89868" lon="5.64843">
        <ele>826.8</ele>
        <time>2023-05-16T08:35:37.117Z</time>
      </trkpt>
      <trkpt lat="44.89869" lon="5.64836">
        <ele>826.9</ele>
        <time>2023-05-16T08:35:39.035Z</time>
      </trkpt>
      <trkpt lat="44.8987" lon="5.64829">
        <ele>827.3</ele>
        <time>2023-05-16T08:35:41.363Z</time>
      </trkpt>
      <trkpt lat="44.89872" lon="5.64822">
        <ele>827.7</ele>
        <time>2023-05-16T08:35:43.790Z</time>
      </trkpt>
      <trkpt lat="44.89873" lon="5.64815">
        <ele>827.9</ele>
        <time>2023-05-16T08:35:45.832Z</time>
      </trkpt>
      <trkpt lat="44.89875" lon="5.64808">
        <ele>828</ele>
        <time>2023-05-16T08:35:47.852Z</time>
      </trkpt>
      <trkpt lat="44.89878" lon="5.64803">
        <ele>828.1</ele>
        <time>2023-05-16T08:35:49.622Z</time>
      </trkpt>
      <trkpt lat="44.89881" lon="5.648">
        <ele>828.2</ele>
        <time>2023-05-16T08:35:51.049Z</time>
      </trkpt>
      <trkpt lat="44.89885" lon="5.64796">
        <ele>828.3</ele>
        <time>2023-05-16T08:35:52.911Z</time>
      </trkpt>
      <trkpt lat="44.89888" lon="5.64795">
        <ele>828.3</ele>
        <time>2023-05-16T08:35:54.010Z</time>
      </trkpt>
      <trkpt lat="44.89891" lon="5.64794">
        <ele>828.4</ele>
        <time>2023-05-16T08:35:55.226Z</time>
      </trkpt>
      <trkpt lat="44.89896" lon="5.64793">
        <ele>828.5</ele>
        <time>2023-05-16T08:35:57.141Z</time>
      </trkpt>
      <trkpt lat="44.899" lon="5.64791">
        <ele>828.6</ele>
        <time>2023-05-16T08:35:58.769Z</time>
      </trkpt>
      <trkpt lat="44.89905" lon="5.64788">
        <ele>828.7</ele>
        <time>2023-05-16T08:36:00.820Z</time>
      </trkpt>
      <trkpt lat="44.89909" lon="5.64786">
        <ele>829</ele>
        <time>2023-05-16T08:36:02.719Z</time>
      </trkpt>
      <trkpt lat="44.89913" lon="5.64784">
        <ele>829.3</ele>
        <time>2023-05-16T08:36:04.618Z</time>
      </trkpt>
      <trkpt lat="44.89917" lon="5.64782">
        <ele>829.5</ele>
        <time>2023-05-16T08:36:06.375Z</time>
      </trkpt>
      <trkpt lat="44.89921" lon="5.6478">
        <ele>829.6</ele>
        <time>2023-05-16T08:36:08.003Z</time>
      </trkpt>
      <trkpt lat="44.89924" lon="5.64779">
        <ele>829.7</ele>
        <time>2023-05-16T08:36:09.219Z</time>
      </trkpt>
      <trkpt lat="44.89928" lon="5.64778">
        <ele>829.8</ele>
        <time>2023-05-16T08:36:10.783Z</time>
      </trkpt>
      <trkpt lat="44.89931" lon="5.64777">
        <ele>829.9</ele>
        <time>2023-05-16T08:36:12.000Z</time>
      </trkpt>
      <trkpt lat="44.89934" lon="5.64777">
        <ele>830</ele>
        <time>2023-05-16T08:36:13.187Z</time>
      </trkpt>
      <trkpt lat="44.89937" lon="5.64777">
        <ele>830.6</ele>
        <time>2023-05-16T08:36:15.337Z</time>
      </trkpt>
      <trkpt lat="44.89939" lon="5.64773">
        <ele>831.2</ele>
        <time>2023-05-16T08:36:17.577Z</time>
      </trkpt>
      <trkpt lat="44.89938" lon="5.64768">
        <ele>831.8</ele>
        <time>2023-05-16T08:36:19.865Z</time>
      </trkpt>
      <trkpt lat="44.89936" lon="5.64763">
        <ele>832.5</ele>
        <time>2023-05-16T08:36:22.482Z</time>
      </trkpt>
      <trkpt lat="44.89935" lon="5.64759">
        <ele>833.1</ele>
        <time>2023-05-16T08:36:24.633Z</time>
      </trkpt>
      <trkpt lat="44.89934" lon="5.64754">
        <ele>833.9</ele>
        <time>2023-05-16T08:36:27.457Z</time>
      </trkpt>
      <trkpt lat="44.89934" lon="5.6475">
        <ele>834.9</ele>
        <time>2023-05-16T08:36:31.258Z</time>
      </trkpt>
      <trkpt lat="44.89934" lon="5.64743">
        <ele>836.2</ele>
        <time>2023-05-16T08:36:35.822Z</time>
      </trkpt>
      <trkpt lat="44.89933" lon="5.64738">
        <ele>837.1</ele>
        <time>2023-05-16T08:36:38.974Z</time>
      </trkpt>
      <trkpt lat="44.89933" lon="5.64733">
        <ele>837.9</ele>
        <time>2023-05-16T08:36:41.786Z</time>
      </trkpt>
      <trkpt lat="44.89932" lon="5.64728">
        <ele>838.8</ele>
        <time>2023-05-16T08:36:44.937Z</time>
      </trkpt>
      <trkpt lat="44.89932" lon="5.64723">
        <ele>839.7</ele>
        <time>2023-05-16T08:36:48.091Z</time>
      </trkpt>
      <trkpt lat="44.89931" lon="5.64719">
        <ele>840.5</ele>
        <time>2023-05-16T08:36:50.904Z</time>
      </trkpt>
      <trkpt lat="44.8993" lon="5.64715">
        <ele>841.2</ele>
        <time>2023-05-16T08:36:53.358Z</time>
      </trkpt>
      <trkpt lat="44.8993" lon="5.6472">
        <ele>842</ele>
        <time>2023-05-16T08:36:56.171Z</time>
      </trkpt>
      <trkpt lat="44.89929" lon="5.64716">
        <ele>842.7</ele>
        <time>2023-05-16T08:36:58.626Z</time>
      </trkpt>
      <trkpt lat="44.89927" lon="5.64711">
        <ele>843.8</ele>
        <time>2023-05-16T08:37:02.499Z</time>
      </trkpt>
      <trkpt lat="44.89927" lon="5.64705">
        <ele>845.2</ele>
        <time>2023-05-16T08:37:07.674Z</time>
      </trkpt>
      <trkpt lat="44.89927" lon="5.647">
        <ele>846.4</ele>
        <time>2023-05-16T08:37:12.158Z</time>
      </trkpt>
      <trkpt lat="44.89927" lon="5.64696">
        <ele>847</ele>
        <time>2023-05-16T08:37:14.285Z</time>
      </trkpt>
      <trkpt lat="44.89927" lon="5.64691">
        <ele>847.7</ele>
        <time>2023-05-16T08:37:16.800Z</time>
      </trkpt>
      <trkpt lat="44.89926" lon="5.64686">
        <ele>848.5</ele>
        <time>2023-05-16T08:37:19.624Z</time>
      </trkpt>
      <trkpt lat="44.89925" lon="5.64681">
        <ele>848.9</ele>
        <time>2023-05-16T08:37:21.502Z</time>
      </trkpt>
      <trkpt lat="44.89924" lon="5.64677">
        <ele>849.4</ele>
        <time>2023-05-16T08:37:23.394Z</time>
      </trkpt>
      <trkpt lat="44.89923" lon="5.64672">
        <ele>849.7</ele>
        <time>2023-05-16T08:37:25.102Z</time>
      </trkpt>
      <trkpt lat="44.89922" lon="5.64668">
        <ele>849.9</ele>
        <time>2023-05-16T08:37:26.428Z</time>
      </trkpt>
      <trkpt lat="44.89922" lon="5.64662">
        <ele>850.1</ele>
        <time>2023-05-16T08:37:28.187Z</time>
      </trkpt>
      <trkpt lat="44.89922" lon="5.64658">
        <ele>850</ele>
        <time>2023-05-16T08:37:29.095Z</time>
      </trkpt>
      <trkpt lat="44.89922" lon="5.64654">
        <ele>850</ele>
        <time>2023-05-16T08:37:30.105Z</time>
      </trkpt>
      <trkpt lat="44.89922" lon="5.64649">
        <ele>850.4</ele>
        <time>2023-05-16T08:37:31.939Z</time>
      </trkpt>
      <trkpt lat="44.89922" lon="5.64643">
        <ele>851.2</ele>
        <time>2023-05-16T08:37:34.848Z</time>
      </trkpt>
      <trkpt lat="44.89921" lon="5.64639">
        <ele>851.6</ele>
        <time>2023-05-16T08:37:36.521Z</time>
      </trkpt>
      <trkpt lat="44.89921" lon="5.64634">
        <ele>851.4</ele>
        <time>2023-05-16T08:37:37.626Z</time>
      </trkpt>
      <trkpt lat="44.89921" lon="5.64629">
        <ele>851.3</ele>
        <time>2023-05-16T08:37:38.785Z</time>
      </trkpt>
      <trkpt lat="44.89922" lon="5.64624">
        <ele>851.3</ele>
        <time>2023-05-16T08:37:40.097Z</time>
      </trkpt>
      <trkpt lat="44.89923" lon="5.6462">
        <ele>851.3</ele>
        <time>2023-05-16T08:37:41.168Z</time>
      </trkpt>
      <trkpt lat="44.89923" lon="5.64616">
        <ele>851.2</ele>
        <time>2023-05-16T08:37:42.076Z</time>
      </trkpt>
      <trkpt lat="44.89922" lon="5.64612">
        <ele>851</ele>
        <time>2023-05-16T08:37:43.013Z</time>
      </trkpt>
      <trkpt lat="44.89921" lon="5.64607">
        <ele>850.7</ele>
        <time>2023-05-16T08:37:44.161Z</time>
      </trkpt>
      <trkpt lat="44.89921" lon="5.64603">
        <ele>850.9</ele>
        <time>2023-05-16T08:37:45.428Z</time>
      </trkpt>
      <trkpt lat="44.89921" lon="5.64598">
        <ele>851.3</ele>
        <time>2023-05-16T08:37:47.262Z</time>
      </trkpt>
      <trkpt lat="44.89921" lon="5.64594">
        <ele>851.7</ele>
        <time>2023-05-16T08:37:48.887Z</time>
      </trkpt>
      <trkpt lat="44.89921" lon="5.6459">
        <ele>851.9</ele>
        <time>2023-05-16T08:37:50.154Z</time>
      </trkpt>
      <trkpt lat="44.8992" lon="5.64586">
        <ele>852.2</ele>
        <time>2023-05-16T08:37:51.640Z</time>
      </trkpt>
      <trkpt lat="44.8992" lon="5.6458">
        <ele>852.7</ele>
        <time>2023-05-16T08:37:53.878Z</time>
      </trkpt>
      <trkpt lat="44.8992" lon="5.64575">
        <ele>853.1</ele>
        <time>2023-05-16T08:37:55.712Z</time>
      </trkpt>
      <trkpt lat="44.89919" lon="5.64569">
        <ele>853.7</ele>
        <time>2023-05-16T08:37:58.181Z</time>
      </trkpt>
      <trkpt lat="44.89918" lon="5.64565">
        <ele>854</ele>
        <time>2023-05-16T08:37:59.667Z</time>
      </trkpt>
      <trkpt lat="44.89917" lon="5.6456">
        <ele>854.2</ele>
        <time>2023-05-16T08:38:01.226Z</time>
      </trkpt>
      <trkpt lat="44.89917" lon="5.64556">
        <ele>854.1</ele>
        <time>2023-05-16T08:38:02.134Z</time>
      </trkpt>
      <trkpt lat="44.89918" lon="5.64551">
        <ele>854</ele>
        <time>2023-05-16T08:38:03.343Z</time>
      </trkpt>
      <trkpt lat="44.89918" lon="5.64547">
        <ele>855.3</ele>
        <time>2023-05-16T08:38:08.645Z</time>
      </trkpt>
      <trkpt lat="44.89917" lon="5.64543">
        <ele>856.7</ele>
        <time>2023-05-16T08:38:14.268Z</time>
      </trkpt>
      <trkpt lat="44.89916" lon="5.64539">
        <ele>858.1</ele>
        <time>2023-05-16T08:38:19.891Z</time>
      </trkpt>
      <trkpt lat="44.89917" lon="5.64534">
        <ele>859.7</ele>
        <time>2023-05-16T08:38:26.583Z</time>
      </trkpt>
      <trkpt lat="44.89917" lon="5.64529">
        <ele>861.3</ele>
        <time>2023-05-16T08:38:33.211Z</time>
      </trkpt>
      <trkpt lat="44.89917" lon="5.64525">
        <ele>862.4</ele>
        <time>2023-05-16T08:38:37.583Z</time>
      </trkpt>
      <trkpt lat="44.89918" lon="5.64521">
        <ele>863.2</ele>
        <time>2023-05-16T08:38:40.396Z</time>
      </trkpt>
      <trkpt lat="44.8992" lon="5.64518">
        <ele>864.1</ele>
        <time>2023-05-16T08:38:43.651Z</time>
      </trkpt>
      <trkpt lat="44.89921" lon="5.64513">
        <ele>865.2</ele>
        <time>2023-05-16T08:38:47.597Z</time>
      </trkpt>
      <trkpt lat="44.89921" lon="5.64508">
        <ele>866.8</ele>
        <time>2023-05-16T08:38:54.225Z</time>
      </trkpt>
      <trkpt lat="44.8992" lon="5.64502">
        <ele>868.5</ele>
        <time>2023-05-16T08:39:00.991Z</time>
      </trkpt>
      <trkpt lat="44.8992" lon="5.64496">
        <ele>869.6</ele>
        <time>2023-05-16T08:39:04.850Z</time>
      </trkpt>
      <trkpt lat="44.89922" lon="5.64493">
        <ele>870.5</ele>
        <time>2023-05-16T08:39:08.105Z</time>
      </trkpt>
      <trkpt lat="44.89923" lon="5.64488">
        <ele>871.6</ele>
        <time>2023-05-16T08:39:12.051Z</time>
      </trkpt>
      <trkpt lat="44.89926" lon="5.64484">
        <ele>872.8</ele>
        <time>2023-05-16T08:39:16.328Z</time>
      </trkpt>
      <trkpt lat="44.89928" lon="5.6448">
        <ele>874.4</ele>
        <time>2023-05-16T08:39:22.818Z</time>
      </trkpt>
      <trkpt lat="44.8993" lon="5.64476">
        <ele>876</ele>
        <time>2023-05-16T08:39:29.309Z</time>
      </trkpt>
      <trkpt lat="44.89931" lon="5.64473">
        <ele>877.4</ele>
        <time>2023-05-16T08:39:33.704Z</time>
      </trkpt>
      <trkpt lat="44.89933" lon="5.64469">
        <ele>878.6</ele>
        <time>2023-05-16T08:39:38.226Z</time>
      </trkpt>
      <trkpt lat="44.89934" lon="5.64464">
        <ele>879.8</ele>
        <time>2023-05-16T08:39:42.646Z</time>
      </trkpt>
      <trkpt lat="44.89935" lon="5.64459">
        <ele>880.8</ele>
        <time>2023-05-16T08:39:46.170Z</time>
      </trkpt>
      <trkpt lat="44.89937" lon="5.64454">
        <ele>882.3</ele>
        <time>2023-05-16T08:39:51.986Z</time>
      </trkpt>
      <trkpt lat="44.89939" lon="5.64451">
        <ele>883.2</ele>
        <time>2023-05-16T08:39:55.242Z</time>
      </trkpt>
      <trkpt lat="44.89941" lon="5.64448">
        <ele>884.2</ele>
        <time>2023-05-16T08:39:58.996Z</time>
      </trkpt>
      <trkpt lat="44.89944" lon="5.64445">
        <ele>885.8</ele>
        <time>2023-05-16T08:40:05.691Z</time>
      </trkpt>
      <trkpt lat="44.89946" lon="5.64441">
        <ele>887.5</ele>
        <time>2023-05-16T08:40:12.181Z</time>
      </trkpt>
      <trkpt lat="44.89948" lon="5.64437">
        <ele>888.2</ele>
        <time>2023-05-16T08:40:14.684Z</time>
      </trkpt>
      <trkpt lat="44.89949" lon="5.64432">
        <ele>889.2</ele>
        <time>2023-05-16T08:40:18.208Z</time>
      </trkpt>
      <trkpt lat="44.89951" lon="5.64428">
        <ele>890.1</ele>
        <time>2023-05-16T08:40:21.365Z</time>
      </trkpt>
      <trkpt lat="44.89953" lon="5.64424">
        <ele>890.9</ele>
        <time>2023-05-16T08:40:24.172Z</time>
      </trkpt>
      <trkpt lat="44.89956" lon="5.64421">
        <ele>891.9</ele>
        <time>2023-05-16T08:40:27.697Z</time>
      </trkpt>
      <trkpt lat="44.89958" lon="5.64418">
        <ele>892.6</ele>
        <time>2023-05-16T08:40:30.148Z</time>
      </trkpt>
      <trkpt lat="44.89961" lon="5.64416">
        <ele>893.5</ele>
        <time>2023-05-16T08:40:33.319Z</time>
      </trkpt>
      <trkpt lat="44.89964" lon="5.64413">
        <ele>894.6</ele>
        <time>2023-05-16T08:40:37.266Z</time>
      </trkpt>
      <trkpt lat="44.89967" lon="5.64412">
        <ele>896</ele>
        <time>2023-05-16T08:40:43.034Z</time>
      </trkpt>
      <trkpt lat="44.89969" lon="5.64409">
        <ele>897.3</ele>
        <time>2023-05-16T08:40:48.496Z</time>
      </trkpt>
      <trkpt lat="44.89972" lon="5.64405">
        <ele>898.3</ele>
        <time>2023-05-16T08:40:51.997Z</time>
      </trkpt>
      <trkpt lat="44.89975" lon="5.64405">
        <ele>899.1</ele>
        <time>2023-05-16T08:40:54.810Z</time>
      </trkpt>
      <trkpt lat="44.89979" lon="5.644">
        <ele>900.5</ele>
        <time>2023-05-16T08:40:59.725Z</time>
      </trkpt>
      <trkpt lat="44.89982" lon="5.64398">
        <ele>901.4</ele>
        <time>2023-05-16T08:41:02.896Z</time>
      </trkpt>
      <trkpt lat="44.89986" lon="5.64395">
        <ele>902.5</ele>
        <time>2023-05-16T08:41:06.748Z</time>
      </trkpt>
      <trkpt lat="44.89988" lon="5.64393">
        <ele>903.5</ele>
        <time>2023-05-16T08:41:10.818Z</time>
      </trkpt>
      <trkpt lat="44.89991" lon="5.64391">
        <ele>904.2</ele>
        <time>2023-05-16T08:41:13.301Z</time>
      </trkpt>
      <trkpt lat="44.89992" lon="5.64387">
        <ele>904.3</ele>
        <time>2023-05-16T08:41:14.490Z</time>
      </trkpt>
      <trkpt lat="44.8999" lon="5.64382">
        <ele>904.4</ele>
        <time>2023-05-16T08:41:16.055Z</time>
      </trkpt>
      <trkpt lat="44.89988" lon="5.64378">
        <ele>904.7</ele>
        <time>2023-05-16T08:41:17.693Z</time>
      </trkpt>
      <trkpt lat="44.89986" lon="5.64375">
        <ele>905.4</ele>
        <time>2023-05-16T08:41:20.145Z</time>
      </trkpt>
      <trkpt lat="44.89983" lon="5.64371">
        <ele>906.2</ele>
        <time>2023-05-16T08:41:23.032Z</time>
      </trkpt>
      <trkpt lat="44.89982" lon="5.64367">
        <ele>906.7</ele>
        <time>2023-05-16T08:41:24.924Z</time>
      </trkpt>
      <trkpt lat="44.8998" lon="5.64364">
        <ele>906.9</ele>
        <time>2023-05-16T08:41:26.221Z</time>
      </trkpt>
      <trkpt lat="44.89978" lon="5.6436">
        <ele>907.2</ele>
        <time>2023-05-16T08:41:27.858Z</time>
      </trkpt>
      <trkpt lat="44.89977" lon="5.64357">
        <ele>907.3</ele>
        <time>2023-05-16T08:41:28.816Z</time>
      </trkpt>
      <trkpt lat="44.89975" lon="5.64351">
        <ele>907.4</ele>
        <time>2023-05-16T08:41:30.605Z</time>
      </trkpt>
      <trkpt lat="44.89973" lon="5.64347">
        <ele>907.4</ele>
        <time>2023-05-16T08:41:31.842Z</time>
      </trkpt>
      <trkpt lat="44.89974" lon="5.64343">
        <ele>907.6</ele>
        <time>2023-05-16T08:41:33.168Z</time>
      </trkpt>
      <trkpt lat="44.89972" lon="5.64338">
        <ele>907.9</ele>
        <time>2023-05-16T08:41:35.007Z</time>
      </trkpt>
      <trkpt lat="44.89971" lon="5.64333">
        <ele>908.2</ele>
        <time>2023-05-16T08:41:36.715Z</time>
      </trkpt>
      <trkpt lat="44.8997" lon="5.64327">
        <ele>909.1</ele>
        <time>2023-05-16T08:41:39.920Z</time>
      </trkpt>
      <trkpt lat="44.89968" lon="5.64322">
        <ele>909.9</ele>
        <time>2023-05-16T08:41:42.798Z</time>
      </trkpt>
      <trkpt lat="44.89968" lon="5.64317">
        <ele>910.2</ele>
        <time>2023-05-16T08:41:44.460Z</time>
      </trkpt>
      <trkpt lat="44.89967" lon="5.64312">
        <ele>910.6</ele>
        <time>2023-05-16T08:41:46.337Z</time>
      </trkpt>
      <trkpt lat="44.89965" lon="5.64307">
        <ele>910.9</ele>
        <time>2023-05-16T08:41:48.176Z</time>
      </trkpt>
      <trkpt lat="44.89965" lon="5.64301">
        <ele>911.3</ele>
        <time>2023-05-16T08:41:50.236Z</time>
      </trkpt>
      <trkpt lat="44.89965" lon="5.64296">
        <ele>911.7</ele>
        <time>2023-05-16T08:41:52.070Z</time>
      </trkpt>
      <trkpt lat="44.89964" lon="5.64292">
        <ele>912.6</ele>
        <time>2023-05-16T08:41:55.300Z</time>
      </trkpt>
      <trkpt lat="44.89965" lon="5.64288">
        <ele>913.6</ele>
        <time>2023-05-16T08:41:59.011Z</time>
      </trkpt>
      <trkpt lat="44.89964" lon="5.64283">
        <ele>915.3</ele>
        <time>2023-05-16T08:42:05.898Z</time>
      </trkpt>
      <trkpt lat="44.89965" lon="5.64278">
        <ele>916.7</ele>
        <time>2023-05-16T08:42:11.408Z</time>
      </trkpt>
      <trkpt lat="44.89965" lon="5.64274">
        <ele>918</ele>
        <time>2023-05-16T08:42:16.711Z</time>
      </trkpt>
      <trkpt lat="44.89965" lon="5.64269">
        <ele>919.1</ele>
        <time>2023-05-16T08:42:20.698Z</time>
      </trkpt>
      <trkpt lat="44.89965" lon="5.64264">
        <ele>920.3</ele>
        <time>2023-05-16T08:42:25.182Z</time>
      </trkpt>
      <trkpt lat="44.89965" lon="5.64259">
        <ele>921.3</ele>
        <time>2023-05-16T08:42:28.726Z</time>
      </trkpt>
      <trkpt lat="44.89965" lon="5.64254">
        <ele>922.3</ele>
        <time>2023-05-16T08:42:32.270Z</time>
      </trkpt>
      <trkpt lat="44.89966" lon="5.64249">
        <ele>923</ele>
        <time>2023-05-16T08:42:34.808Z</time>
      </trkpt>
      <trkpt lat="44.89967" lon="5.64245">
        <ele>923.5</ele>
        <time>2023-05-16T08:42:36.700Z</time>
      </trkpt>
      <trkpt lat="44.89968" lon="5.6424">
        <ele>923.8</ele>
        <time>2023-05-16T08:42:38.409Z</time>
      </trkpt>
      <trkpt lat="44.89968" lon="5.64236">
        <ele>923.9</ele>
        <time>2023-05-16T08:42:39.537Z</time>
      </trkpt>
      <trkpt lat="44.89969" lon="5.64232">
        <ele>924.1</ele>
        <time>2023-05-16T08:42:40.864Z</time>
      </trkpt>
      <trkpt lat="44.8997" lon="5.64227">
        <ele>924.4</ele>
        <time>2023-05-16T08:42:42.572Z</time>
      </trkpt>
      <trkpt lat="44.8997" lon="5.64222">
        <ele>924.5</ele>
        <time>2023-05-16T08:42:43.951Z</time>
      </trkpt>
      <trkpt lat="44.8997" lon="5.64217">
        <ele>924.4</ele>
        <time>2023-05-16T08:42:45.110Z</time>
      </trkpt>
      <trkpt lat="44.89969" lon="5.64211">
        <ele>924.6</ele>
        <time>2023-05-16T08:42:46.910Z</time>
      </trkpt>
      <trkpt lat="44.89968" lon="5.64206">
        <ele>925.1</ele>
        <time>2023-05-16T08:42:48.979Z</time>
      </trkpt>
      <trkpt lat="44.89966" lon="5.64201">
        <ele>925.4</ele>
        <time>2023-05-16T08:42:50.818Z</time>
      </trkpt>
      <trkpt lat="44.89964" lon="5.64198">
        <ele>925.5</ele>
        <time>2023-05-16T08:42:51.977Z</time>
      </trkpt>
      <trkpt lat="44.89963" lon="5.64195">
        <ele>925.6</ele>
        <time>2023-05-16T08:42:52.935Z</time>
      </trkpt>
      <trkpt lat="44.89961" lon="5.64189">
        <ele>926.2</ele>
        <time>2023-05-16T08:42:55.499Z</time>
      </trkpt>
      <trkpt lat="44.89959" lon="5.64185">
        <ele>926.6</ele>
        <time>2023-05-16T08:42:57.310Z</time>
      </trkpt>
      <trkpt lat="44.89958" lon="5.64181">
        <ele>926.8</ele>
        <time>2023-05-16T08:42:58.636Z</time>
      </trkpt>
      <trkpt lat="44.89956" lon="5.64177">
        <ele>926.8</ele>
        <time>2023-05-16T08:42:59.872Z</time>
      </trkpt>
      <trkpt lat="44.89954" lon="5.64174">
        <ele>926.8</ele>
        <time>2023-05-16T08:43:00.913Z</time>
      </trkpt>
      <trkpt lat="44.8995" lon="5.64172">
        <ele>926.8</ele>
        <time>2023-05-16T08:43:02.425Z</time>
      </trkpt>
      <trkpt lat="44.89947" lon="5.6417">
        <ele>926.8</ele>
        <time>2023-05-16T08:43:03.608Z</time>
      </trkpt>
      <trkpt lat="44.89945" lon="5.64166">
        <ele>927.2</ele>
        <time>2023-05-16T08:43:05.419Z</time>
      </trkpt>
      <trkpt lat="44.89943" lon="5.64162">
        <ele>927.9</ele>
        <time>2023-05-16T08:43:07.922Z</time>
      </trkpt>
      <trkpt lat="44.89941" lon="5.64159">
        <ele>928.6</ele>
        <time>2023-05-16T08:43:10.374Z</time>
      </trkpt>
      <trkpt lat="44.89938" lon="5.64156">
        <ele>929.1</ele>
        <time>2023-05-16T08:43:12.442Z</time>
      </trkpt>
      <trkpt lat="44.89935" lon="5.64153">
        <ele>929.3</ele>
        <time>2023-05-16T08:43:14.001Z</time>
      </trkpt>
      <trkpt lat="44.89932" lon="5.64151">
        <ele>929.6</ele>
        <time>2023-05-16T08:43:15.589Z</time>
      </trkpt>
      <trkpt lat="44.89929" lon="5.64148">
        <ele>929.9</ele>
        <time>2023-05-16T08:43:17.296Z</time>
      </trkpt>
      <trkpt lat="44.89927" lon="5.64146">
        <ele>930.2</ele>
        <time>2023-05-16T08:43:18.608Z</time>
      </trkpt>
      <trkpt lat="44.89924" lon="5.64144">
        <ele>930.6</ele>
        <time>2023-05-16T08:43:20.374Z</time>
      </trkpt>
      <trkpt lat="44.89921" lon="5.64141">
        <ele>931.2</ele>
        <time>2023-05-16T08:43:22.661Z</time>
      </trkpt>
      <trkpt lat="44.89919" lon="5.64137">
        <ele>931.7</ele>
        <time>2023-05-16T08:43:24.671Z</time>
      </trkpt>
      <trkpt lat="44.89917" lon="5.64133">
        <ele>932.5</ele>
        <time>2023-05-16T08:43:27.479Z</time>
      </trkpt>
      <trkpt lat="44.89915" lon="5.64129">
        <ele>933.2</ele>
        <time>2023-05-16T08:43:29.982Z</time>
      </trkpt>
      <trkpt lat="44.89914" lon="5.64126">
        <ele>933.8</ele>
        <time>2023-05-16T08:43:32.085Z</time>
      </trkpt>
      <trkpt lat="44.89913" lon="5.64122">
        <ele>934.3</ele>
        <time>2023-05-16T08:43:33.977Z</time>
      </trkpt>
      <trkpt lat="44.89911" lon="5.64118">
        <ele>934.9</ele>
        <time>2023-05-16T08:43:36.216Z</time>
      </trkpt>
      <trkpt lat="44.89911" lon="5.64113">
        <ele>935.5</ele>
        <time>2023-05-16T08:43:38.472Z</time>
      </trkpt>
      <trkpt lat="44.89908" lon="5.6411">
        <ele>935.9</ele>
        <time>2023-05-16T08:43:40.348Z</time>
      </trkpt>
      <trkpt lat="44.89906" lon="5.64106">
        <ele>936.4</ele>
        <time>2023-05-16T08:43:42.358Z</time>
      </trkpt>
      <trkpt lat="44.89905" lon="5.64101">
        <ele>937.1</ele>
        <time>2023-05-16T08:43:44.897Z</time>
      </trkpt>
      <trkpt lat="44.89903" lon="5.64098">
        <ele>937.8</ele>
        <time>2023-05-16T08:43:47.349Z</time>
      </trkpt>
      <trkpt lat="44.89902" lon="5.64093">
        <ele>938.6</ele>
        <time>2023-05-16T08:43:50.173Z</time>
      </trkpt>
      <trkpt lat="44.89903" lon="5.64089">
        <ele>939.2</ele>
        <time>2023-05-16T08:43:52.324Z</time>
      </trkpt>
      <trkpt lat="44.89903" lon="5.64085">
        <ele>939.7</ele>
        <time>2023-05-16T08:43:54.178Z</time>
      </trkpt>
      <trkpt lat="44.89902" lon="5.6408">
        <ele>940.3</ele>
        <time>2023-05-16T08:43:56.466Z</time>
      </trkpt>
      <trkpt lat="44.89901" lon="5.64076">
        <ele>940.5</ele>
        <time>2023-05-16T08:43:57.792Z</time>
      </trkpt>
      <trkpt lat="44.89898" lon="5.64072">
        <ele>941</ele>
        <time>2023-05-16T08:43:59.992Z</time>
      </trkpt>
      <trkpt lat="44.89897" lon="5.64068">
        <ele>942</ele>
        <time>2023-05-16T08:44:03.703Z</time>
      </trkpt>
      <trkpt lat="44.89895" lon="5.64063">
        <ele>943.5</ele>
        <time>2023-05-16T08:44:09.520Z</time>
      </trkpt>
      <trkpt lat="44.89894" lon="5.6406">
        <ele>944</ele>
        <time>2023-05-16T08:44:11.291Z</time>
      </trkpt>
      <trkpt lat="44.89892" lon="5.64056">
        <ele>944</ele>
        <time>2023-05-16T08:44:12.527Z</time>
      </trkpt>
      <trkpt lat="44.89892" lon="5.64052">
        <ele>943.9</ele>
        <time>2023-05-16T08:44:13.435Z</time>
      </trkpt>
      <trkpt lat="44.89889" lon="5.64047">
        <ele>943.7</ele>
        <time>2023-05-16T08:44:14.889Z</time>
      </trkpt>
      <trkpt lat="44.89887" lon="5.64043">
        <ele>943.5</ele>
        <time>2023-05-16T08:44:15.971Z</time>
      </trkpt>
      <trkpt lat="44.89885" lon="5.64039">
        <ele>943.4</ele>
        <time>2023-05-16T08:44:17.104Z</time>
      </trkpt>
      <trkpt lat="44.89881" lon="5.64036">
        <ele>943.2</ele>
        <time>2023-05-16T08:44:18.518Z</time>
      </trkpt>
      <trkpt lat="44.89878" lon="5.64034">
        <ele>943.1</ele>
        <time>2023-05-16T08:44:19.598Z</time>
      </trkpt>
      <trkpt lat="44.89876" lon="5.64031">
        <ele>943</ele>
        <time>2023-05-16T08:44:20.536Z</time>
      </trkpt>
      <trkpt lat="44.89873" lon="5.64027">
        <ele>942.9</ele>
        <time>2023-05-16T08:44:21.903Z</time>
      </trkpt>
      <trkpt lat="44.89871" lon="5.64024">
        <ele>942.9</ele>
        <time>2023-05-16T08:44:22.943Z</time>
      </trkpt>
      <trkpt lat="44.89869" lon="5.64021">
        <ele>942.7</ele>
        <time>2023-05-16T08:44:23.853Z</time>
      </trkpt>
      <trkpt lat="44.89866" lon="5.64018">
        <ele>942.6</ele>
        <time>2023-05-16T08:44:25.060Z</time>
      </trkpt>
      <trkpt lat="44.89864" lon="5.64015">
        <ele>942.4</ele>
        <time>2023-05-16T08:44:25.970Z</time>
      </trkpt>
      <trkpt lat="44.89862" lon="5.64011">
        <ele>942.2</ele>
        <time>2023-05-16T08:44:27.052Z</time>
      </trkpt>
      <trkpt lat="44.89859" lon="5.64007">
        <ele>942.1</ele>
        <time>2023-05-16T08:44:28.419Z</time>
      </trkpt>
      <trkpt lat="44.8986" lon="5.64003">
        <ele>942.1</ele>
        <time>2023-05-16T08:44:29.490Z</time>
      </trkpt>
      <trkpt lat="44.89863" lon="5.64005">
        <ele>942.2</ele>
        <time>2023-05-16T08:44:30.790Z</time>
      </trkpt>
      <trkpt lat="44.89867" lon="5.64009">
        <ele>942.3</ele>
        <time>2023-05-16T08:44:32.652Z</time>
      </trkpt>
      <trkpt lat="44.8987" lon="5.64011">
        <ele>942.4</ele>
        <time>2023-05-16T08:44:33.952Z</time>
      </trkpt>
      <trkpt lat="44.89873" lon="5.64013">
        <ele>942.6</ele>
        <time>2023-05-16T08:44:35.385Z</time>
      </trkpt>
      <trkpt lat="44.89878" lon="5.64017">
        <ele>942.9</ele>
        <time>2023-05-16T08:44:37.804Z</time>
      </trkpt>
      <trkpt lat="44.89881" lon="5.6402">
        <ele>943</ele>
        <time>2023-05-16T08:44:39.231Z</time>
      </trkpt>
      <trkpt lat="44.89885" lon="5.64024">
        <ele>943.1</ele>
        <time>2023-05-16T08:44:41.093Z</time>
      </trkpt>
      <trkpt lat="44.89888" lon="5.64036">
        <ele>943.3</ele>
        <time>2023-05-16T08:44:44.537Z</time>
      </trkpt>
      <trkpt lat="44.89889" lon="5.64039">
        <ele>943.5</ele>
        <time>2023-05-16T08:44:45.641Z</time>
      </trkpt>
      <trkpt lat="44.8989" lon="5.64044">
        <ele>943.7</ele>
        <time>2023-05-16T08:44:47.200Z</time>
      </trkpt>
      <trkpt lat="44.89891" lon="5.64038">
        <ele>943.5</ele>
        <time>2023-05-16T08:44:48.562Z</time>
      </trkpt>
      <trkpt lat="44.8989" lon="5.64034">
        <ele>943.3</ele>
        <time>2023-05-16T08:44:49.499Z</time>
      </trkpt>
      <trkpt lat="44.89887" lon="5.6403">
        <ele>943.2</ele>
        <time>2023-05-16T08:44:50.866Z</time>
      </trkpt>
      <trkpt lat="44.89884" lon="5.64027">
        <ele>943.1</ele>
        <time>2023-05-16T08:44:52.073Z</time>
      </trkpt>
      <trkpt lat="44.89881" lon="5.64023">
        <ele>943</ele>
        <time>2023-05-16T08:44:53.440Z</time>
      </trkpt>
      <trkpt lat="44.89879" lon="5.64021">
        <ele>942.9</ele>
        <time>2023-05-16T08:44:54.212Z</time>
      </trkpt>
      <trkpt lat="44.89876" lon="5.64018">
        <ele>942.8</ele>
        <time>2023-05-16T08:44:55.419Z</time>
      </trkpt>
      <trkpt lat="44.89873" lon="5.64015">
        <ele>942.6</ele>
        <time>2023-05-16T08:44:56.566Z</time>
      </trkpt>
      <trkpt lat="44.89869" lon="5.6401">
        <ele>942.3</ele>
        <time>2023-05-16T08:44:58.232Z</time>
      </trkpt>
      <trkpt lat="44.89866" lon="5.64006">
        <ele>942.2</ele>
        <time>2023-05-16T08:44:59.599Z</time>
      </trkpt>
      <trkpt lat="44.89862" lon="5.64003">
        <ele>942</ele>
        <time>2023-05-16T08:45:01.014Z</time>
      </trkpt>
      <trkpt lat="44.89858" lon="5.64001">
        <ele>941.9</ele>
        <time>2023-05-16T08:45:02.422Z</time>
      </trkpt>
      <trkpt lat="44.89855" lon="5.63999">
        <ele>941.8</ele>
        <time>2023-05-16T08:45:03.502Z</time>
      </trkpt>
      <trkpt lat="44.89852" lon="5.63999">
        <ele>941.7</ele>
        <time>2023-05-16T08:45:04.469Z</time>
      </trkpt>
      <trkpt lat="44.89848" lon="5.63997">
        <ele>941.5</ele>
        <time>2023-05-16T08:45:05.792Z</time>
      </trkpt>
      <trkpt lat="44.89845" lon="5.63994">
        <ele>941.2</ele>
        <time>2023-05-16T08:45:06.939Z</time>
      </trkpt>
      <trkpt lat="44.89843" lon="5.63991">
        <ele>941.1</ele>
        <time>2023-05-16T08:45:07.877Z</time>
      </trkpt>
      <trkpt lat="44.89841" lon="5.63988">
        <ele>940.9</ele>
        <time>2023-05-16T08:45:08.787Z</time>
      </trkpt>
      <trkpt lat="44.89839" lon="5.63985">
        <ele>940.9</ele>
        <time>2023-05-16T08:45:09.827Z</time>
      </trkpt>
      <trkpt lat="44.89837" lon="5.63982">
        <ele>940.8</ele>
        <time>2023-05-16T08:45:10.766Z</time>
      </trkpt>
      <trkpt lat="44.89835" lon="5.63979">
        <ele>940.8</ele>
        <time>2023-05-16T08:45:11.806Z</time>
      </trkpt>
      <trkpt lat="44.89832" lon="5.63976">
        <ele>940.7</ele>
        <time>2023-05-16T08:45:13.013Z</time>
      </trkpt>
      <trkpt lat="44.89829" lon="5.63974">
        <ele>940.7</ele>
        <time>2023-05-16T08:45:14.195Z</time>
      </trkpt>
      <trkpt lat="44.89826" lon="5.63972">
        <ele>940.6</ele>
        <time>2023-05-16T08:45:15.275Z</time>
      </trkpt>
      <trkpt lat="44.89824" lon="5.63969">
        <ele>940.5</ele>
        <time>2023-05-16T08:45:16.213Z</time>
      </trkpt>
      <trkpt lat="44.89821" lon="5.63966">
        <ele>940.3</ele>
        <time>2023-05-16T08:45:17.360Z</time>
      </trkpt>
      <trkpt lat="44.89819" lon="5.63964">
        <ele>940.2</ele>
        <time>2023-05-16T08:45:18.133Z</time>
      </trkpt>
      <trkpt lat="44.89816" lon="5.63961">
        <ele>940.1</ele>
        <time>2023-05-16T08:45:19.340Z</time>
      </trkpt>
      <trkpt lat="44.89812" lon="5.63959">
        <ele>940</ele>
        <time>2023-05-16T08:45:20.748Z</time>
      </trkpt>
      <trkpt lat="44.89809" lon="5.63957">
        <ele>940</ele>
        <time>2023-05-16T08:45:21.930Z</time>
      </trkpt>
      <trkpt lat="44.89807" lon="5.63956">
        <ele>939.9</ele>
        <time>2023-05-16T08:45:22.592Z</time>
      </trkpt>
      <trkpt lat="44.89803" lon="5.63953">
        <ele>939.8</ele>
        <time>2023-05-16T08:45:24.102Z</time>
      </trkpt>
      <trkpt lat="44.898" lon="5.63951">
        <ele>939.5</ele>
        <time>2023-05-16T08:45:25.137Z</time>
      </trkpt>
      <trkpt lat="44.89796" lon="5.6395">
        <ele>939.3</ele>
        <time>2023-05-16T08:45:26.404Z</time>
      </trkpt>
      <trkpt lat="44.89792" lon="5.63949">
        <ele>939.2</ele>
        <time>2023-05-16T08:45:27.748Z</time>
      </trkpt>
      <trkpt lat="44.89789" lon="5.63947">
        <ele>939.1</ele>
        <time>2023-05-16T08:45:28.827Z</time>
      </trkpt>
      <trkpt lat="44.89785" lon="5.63944">
        <ele>939.1</ele>
        <time>2023-05-16T08:45:30.442Z</time>
      </trkpt>
      <trkpt lat="44.89782" lon="5.63943">
        <ele>939</ele>
        <time>2023-05-16T08:45:31.438Z</time>
      </trkpt>
      <trkpt lat="44.89778" lon="5.63942">
        <ele>938.9</ele>
        <time>2023-05-16T08:45:32.782Z</time>
      </trkpt>
      <trkpt lat="44.89774" lon="5.63939">
        <ele>938.8</ele>
        <time>2023-05-16T08:45:34.292Z</time>
      </trkpt>
      <trkpt lat="44.8977" lon="5.63938">
        <ele>938.6</ele>
        <time>2023-05-16T08:45:35.559Z</time>
      </trkpt>
      <trkpt lat="44.89767" lon="5.63936">
        <ele>938.4</ele>
        <time>2023-05-16T08:45:36.594Z</time>
      </trkpt>
      <trkpt lat="44.89763" lon="5.63935">
        <ele>938.2</ele>
        <time>2023-05-16T08:45:37.861Z</time>
      </trkpt>
      <trkpt lat="44.89759" lon="5.63934">
        <ele>938.1</ele>
        <time>2023-05-16T08:45:39.205Z</time>
      </trkpt>
      <trkpt lat="44.89755" lon="5.63931">
        <ele>938</ele>
        <time>2023-05-16T08:45:40.715Z</time>
      </trkpt>
      <trkpt lat="44.89752" lon="5.63929">
        <ele>937.9</ele>
        <time>2023-05-16T08:45:41.794Z</time>
      </trkpt>
      <trkpt lat="44.89749" lon="5.63928">
        <ele>937.8</ele>
        <time>2023-05-16T08:45:42.791Z</time>
      </trkpt>
      <trkpt lat="44.89745" lon="5.63926">
        <ele>937.6</ele>
        <time>2023-05-16T08:45:44.114Z</time>
      </trkpt>
      <trkpt lat="44.89742" lon="5.63925">
        <ele>937.5</ele>
        <time>2023-05-16T08:45:45.110Z</time>
      </trkpt>
      <trkpt lat="44.89738" lon="5.63923">
        <ele>937.2</ele>
        <time>2023-05-16T08:45:46.434Z</time>
      </trkpt>
      <trkpt lat="44.89736" lon="5.63921">
        <ele>936.9</ele>
        <time>2023-05-16T08:45:47.198Z</time>
      </trkpt>
      <trkpt lat="44.89734" lon="5.63917">
        <ele>936.6</ele>
        <time>2023-05-16T08:45:48.280Z</time>
      </trkpt>
      <trkpt lat="44.89732" lon="5.63914">
        <ele>936.5</ele>
        <time>2023-05-16T08:45:49.218Z</time>
      </trkpt>
      <trkpt lat="44.89729" lon="5.63914">
        <ele>936.3</ele>
        <time>2023-05-16T08:45:50.154Z</time>
      </trkpt>
      <trkpt lat="44.89727" lon="5.63911">
        <ele>936</ele>
        <time>2023-05-16T08:45:51.064Z</time>
      </trkpt>
      <trkpt lat="44.89723" lon="5.63914">
        <ele>936</ele>
        <time>2023-05-16T08:45:52.679Z</time>
      </trkpt>
      <trkpt lat="44.8972" lon="5.63919">
        <ele>936.1</ele>
        <time>2023-05-16T08:45:54.448Z</time>
      </trkpt>
      <trkpt lat="44.89718" lon="5.63925">
        <ele>936.2</ele>
        <time>2023-05-16T08:45:56.238Z</time>
      </trkpt>
      <trkpt lat="44.89717" lon="5.63929">
        <ele>936.2</ele>
        <time>2023-05-16T08:45:57.309Z</time>
      </trkpt>
      <trkpt lat="44.89717" lon="5.63933">
        <ele>936.2</ele>
        <time>2023-05-16T08:45:58.319Z</time>
      </trkpt>
      <trkpt lat="44.89716" lon="5.63939">
        <ele>936.3</ele>
        <time>2023-05-16T08:45:59.991Z</time>
      </trkpt>
      <trkpt lat="44.89716" lon="5.63944">
        <ele>936.3</ele>
        <time>2023-05-16T08:46:01.253Z</time>
      </trkpt>
      <trkpt lat="44.89716" lon="5.6395">
        <ele>936.3</ele>
        <time>2023-05-16T08:46:02.768Z</time>
      </trkpt>
      <trkpt lat="44.89715" lon="5.63959">
        <ele>936.4</ele>
        <time>2023-05-16T08:46:05.182Z</time>
      </trkpt>
      <trkpt lat="44.89718" lon="5.63966">
        <ele>936.4</ele>
        <time>2023-05-16T08:46:07.248Z</time>
      </trkpt>
      <trkpt lat="44.8972" lon="5.63975">
        <ele>936.4</ele>
        <time>2023-05-16T08:46:09.629Z</time>
      </trkpt>
      <trkpt lat="44.89723" lon="5.63982">
        <ele>936.3</ele>
        <time>2023-05-16T08:46:11.590Z</time>
      </trkpt>
      <trkpt lat="44.89727" lon="5.6399">
        <ele>936.2</ele>
        <time>2023-05-16T08:46:13.956Z</time>
      </trkpt>
      <trkpt lat="44.8973" lon="5.63998">
        <ele>936.1</ele>
        <time>2023-05-16T08:46:16.135Z</time>
      </trkpt>
      <trkpt lat="44.89731" lon="5.64008">
        <ele>936</ele>
        <time>2023-05-16T08:46:18.579Z</time>
      </trkpt>
      <trkpt lat="44.89734" lon="5.64018">
        <ele>935.9</ele>
        <time>2023-05-16T08:46:21.214Z</time>
      </trkpt>
      <trkpt lat="44.89736" lon="5.64027">
        <ele>935.9</ele>
        <time>2023-05-16T08:46:23.596Z</time>
      </trkpt>
      <trkpt lat="44.89739" lon="5.64038">
        <ele>935.8</ele>
        <time>2023-05-16T08:46:26.465Z</time>
      </trkpt>
      <trkpt lat="44.8974" lon="5.64048">
        <ele>935.8</ele>
        <time>2023-05-16T08:46:29.015Z</time>
      </trkpt>
      <trkpt lat="44.89743" lon="5.64061">
        <ele>935.5</ele>
        <time>2023-05-16T08:46:32.159Z</time>
      </trkpt>
      <trkpt lat="44.89746" lon="5.64072">
        <ele>935.3</ele>
        <time>2023-05-16T08:46:34.927Z</time>
      </trkpt>
      <trkpt lat="44.89748" lon="5.64081">
        <ele>935.1</ele>
        <time>2023-05-16T08:46:37.103Z</time>
      </trkpt>
      <trkpt lat="44.89746" lon="5.64092">
        <ele>934.8</ele>
        <time>2023-05-16T08:46:39.666Z</time>
      </trkpt>
      <trkpt lat="44.89746" lon="5.64101">
        <ele>934.5</ele>
        <time>2023-05-16T08:46:41.655Z</time>
      </trkpt>
      <trkpt lat="44.89746" lon="5.64111">
        <ele>934.2</ele>
        <time>2023-05-16T08:46:43.878Z</time>
      </trkpt>
      <trkpt lat="44.89747" lon="5.64126">
        <ele>933.9</ele>
        <time>2023-05-16T08:46:47.373Z</time>
      </trkpt>
      <trkpt lat="44.89748" lon="5.64139">
        <ele>933.5</ele>
        <time>2023-05-16T08:46:50.274Z</time>
      </trkpt>
      <trkpt lat="44.89748" lon="5.64152">
        <ele>933.2</ele>
        <time>2023-05-16T08:46:53.249Z</time>
      </trkpt>
      <trkpt lat="44.8975" lon="5.64158">
        <ele>933</ele>
        <time>2023-05-16T08:46:54.722Z</time>
      </trkpt>
      <trkpt lat="44.89751" lon="5.64167">
        <ele>932.7</ele>
        <time>2023-05-16T08:46:56.735Z</time>
      </trkpt>
      <trkpt lat="44.89747" lon="5.64176">
        <ele>932.3</ele>
        <time>2023-05-16T08:46:59.083Z</time>
      </trkpt>
      <trkpt lat="44.89744" lon="5.6419">
        <ele>931.7</ele>
        <time>2023-05-16T08:47:02.314Z</time>
      </trkpt>
      <trkpt lat="44.89743" lon="5.64202">
        <ele>931.3</ele>
        <time>2023-05-16T08:47:04.984Z</time>
      </trkpt>
      <trkpt lat="44.89741" lon="5.64216">
        <ele>930.8</ele>
        <time>2023-05-16T08:47:08.139Z</time>
      </trkpt>
      <trkpt lat="44.89738" lon="5.64227">
        <ele>930.5</ele>
        <time>2023-05-16T08:47:10.810Z</time>
      </trkpt>
      <trkpt lat="44.89735" lon="5.64241">
        <ele>930.2</ele>
        <time>2023-05-16T08:47:14.194Z</time>
      </trkpt>
      <trkpt lat="44.89734" lon="5.64248">
        <ele>930.1</ele>
        <time>2023-05-16T08:47:15.892Z</time>
      </trkpt>
      <trkpt lat="44.89729" lon="5.64269">
        <ele>929.9</ele>
        <time>2023-05-16T08:47:21.273Z</time>
      </trkpt>
      <trkpt lat="44.89726" lon="5.64284">
        <ele>929.7</ele>
        <time>2023-05-16T08:47:24.997Z</time>
      </trkpt>
      <trkpt lat="44.89723" lon="5.64301">
        <ele>929.5</ele>
        <time>2023-05-16T08:47:29.209Z</time>
      </trkpt>
      <trkpt lat="44.8972" lon="5.64317">
        <ele>929.3</ele>
        <time>2023-05-16T08:47:33.176Z</time>
      </trkpt>
      <trkpt lat="44.89712" lon="5.64332">
        <ele>929.1</ele>
        <time>2023-05-16T08:47:37.705Z</time>
      </trkpt>
      <trkpt lat="44.89708" lon="5.64346">
        <ele>928.9</ele>
        <time>2023-05-16T08:47:41.306Z</time>
      </trkpt>
      <trkpt lat="44.89704" lon="5.64358">
        <ele>928.7</ele>
        <time>2023-05-16T08:47:44.445Z</time>
      </trkpt>
      <trkpt lat="44.897" lon="5.64373">
        <ele>928.5</ele>
        <time>2023-05-16T08:47:48.281Z</time>
      </trkpt>
      <trkpt lat="44.89696" lon="5.64387">
        <ele>928.3</ele>
        <time>2023-05-16T08:47:51.881Z</time>
      </trkpt>
      <trkpt lat="44.8969" lon="5.64397">
        <ele>928</ele>
        <time>2023-05-16T08:47:54.883Z</time>
      </trkpt>
      <trkpt lat="44.89683" lon="5.6441">
        <ele>927.7</ele>
        <time>2023-05-16T08:47:58.695Z</time>
      </trkpt>
      <trkpt lat="44.89678" lon="5.6442">
        <ele>927.4</ele>
        <time>2023-05-16T08:48:01.480Z</time>
      </trkpt>
      <trkpt lat="44.89671" lon="5.64434">
        <ele>927.1</ele>
        <time>2023-05-16T08:48:05.494Z</time>
      </trkpt>
      <trkpt lat="44.89664" lon="5.64449">
        <ele>926.7</ele>
        <time>2023-05-16T08:48:09.619Z</time>
      </trkpt>
      <trkpt lat="44.89657" lon="5.64462">
        <ele>926.4</ele>
        <time>2023-05-16T08:48:13.431Z</time>
      </trkpt>
      <trkpt lat="44.8965" lon="5.64472">
        <ele>926</ele>
        <time>2023-05-16T08:48:16.577Z</time>
      </trkpt>
      <trkpt lat="44.89644" lon="5.64476">
        <ele>925.8</ele>
        <time>2023-05-16T08:48:18.737Z</time>
      </trkpt>
      <trkpt lat="44.89637" lon="5.64485">
        <ele>925.5</ele>
        <time>2023-05-16T08:48:21.804Z</time>
      </trkpt>
      <trkpt lat="44.89631" lon="5.64493">
        <ele>925.2</ele>
        <time>2023-05-16T08:48:24.441Z</time>
      </trkpt>
      <trkpt lat="44.89629" lon="5.64502">
        <ele>925.1</ele>
        <time>2023-05-16T08:48:26.716Z</time>
      </trkpt>
      <trkpt lat="44.89627" lon="5.64511">
        <ele>925</ele>
        <time>2023-05-16T08:48:28.992Z</time>
      </trkpt>
      <trkpt lat="44.89629" lon="5.6452">
        <ele>925.1</ele>
        <time>2023-05-16T08:48:31.487Z</time>
      </trkpt>
      <trkpt lat="44.89628" lon="5.64529">
        <ele>925.2</ele>
        <time>2023-05-16T08:48:33.901Z</time>
      </trkpt>
      <trkpt lat="44.89632" lon="5.64535">
        <ele>925.2</ele>
        <time>2023-05-16T08:48:35.981Z</time>
      </trkpt>
      <trkpt lat="44.89637" lon="5.64544">
        <ele>925.3</ele>
        <time>2023-05-16T08:48:38.982Z</time>
      </trkpt>
      <trkpt lat="44.89641" lon="5.64554">
        <ele>925.4</ele>
        <time>2023-05-16T08:48:41.995Z</time>
      </trkpt>
      <trkpt lat="44.89645" lon="5.64562">
        <ele>925.5</ele>
        <time>2023-05-16T08:48:44.580Z</time>
      </trkpt>
      <trkpt lat="44.89649" lon="5.64569">
        <ele>925.7</ele>
        <time>2023-05-16T08:48:47.087Z</time>
      </trkpt>
      <trkpt lat="44.89649" lon="5.64578">
        <ele>925.8</ele>
        <time>2023-05-16T08:48:49.473Z</time>
      </trkpt>
      <trkpt lat="44.8965" lon="5.64586">
        <ele>925.9</ele>
        <time>2023-05-16T08:48:51.638Z</time>
      </trkpt>
      <trkpt lat="44.89651" lon="5.64595">
        <ele>926.1</ele>
        <time>2023-05-16T08:48:54.173Z</time>
      </trkpt>
      <trkpt lat="44.89652" lon="5.64602">
        <ele>926.3</ele>
        <time>2023-05-16T08:48:56.216Z</time>
      </trkpt>
      <trkpt lat="44.89652" lon="5.64611">
        <ele>926.5</ele>
        <time>2023-05-16T08:48:58.724Z</time>
      </trkpt>
      <trkpt lat="44.89653" lon="5.64618">
        <ele>926.6</ele>
        <time>2023-05-16T08:49:00.642Z</time>
      </trkpt>
      <trkpt lat="44.89654" lon="5.64626">
        <ele>926.7</ele>
        <time>2023-05-16T08:49:02.807Z</time>
      </trkpt>
      <trkpt lat="44.89657" lon="5.64632">
        <ele>926.9</ele>
        <time>2023-05-16T08:49:04.900Z</time>
      </trkpt>
      <trkpt lat="44.89654" lon="5.64639">
        <ele>927</ele>
        <time>2023-05-16T08:49:07.080Z</time>
      </trkpt>
      <trkpt lat="44.89652" lon="5.64642">
        <ele>927.2</ele>
        <time>2023-05-16T08:49:08.377Z</time>
      </trkpt>
      <trkpt lat="44.89654" lon="5.64646">
        <ele>927.3</ele>
        <time>2023-05-16T08:49:09.730Z</time>
      </trkpt>
      <trkpt lat="44.89655" lon="5.64651">
        <ele>927.4</ele>
        <time>2023-05-16T08:49:11.158Z</time>
      </trkpt>
      <trkpt lat="44.89656" lon="5.64655">
        <ele>927.5</ele>
        <time>2023-05-16T08:49:12.347Z</time>
      </trkpt>
      <trkpt lat="44.89655" lon="5.64659">
        <ele>927.5</ele>
        <time>2023-05-16T08:49:13.418Z</time>
      </trkpt>
      <trkpt lat="44.89656" lon="5.64665">
        <ele>927.6</ele>
        <time>2023-05-16T08:49:15.090Z</time>
      </trkpt>
      <trkpt lat="44.89656" lon="5.64671">
        <ele>927.6</ele>
        <time>2023-05-16T08:49:16.605Z</time>
      </trkpt>
      <trkpt lat="44.89655" lon="5.64676">
        <ele>927.7</ele>
        <time>2023-05-16T08:49:18.034Z</time>
      </trkpt>
      <trkpt lat="44.89654" lon="5.6468">
        <ele>927.7</ele>
        <time>2023-05-16T08:49:19.105Z</time>
      </trkpt>
      <trkpt lat="44.89654" lon="5.64686">
        <ele>927.8</ele>
        <time>2023-05-16T08:49:20.735Z</time>
      </trkpt>
      <trkpt lat="44.89653" lon="5.64691">
        <ele>927.9</ele>
        <time>2023-05-16T08:49:22.164Z</time>
      </trkpt>
      <trkpt lat="44.89652" lon="5.64697">
        <ele>927.9</ele>
        <time>2023-05-16T08:49:23.720Z</time>
      </trkpt>
      <trkpt lat="44.89651" lon="5.64703">
        <ele>928</ele>
        <time>2023-05-16T08:49:25.392Z</time>
      </trkpt>
      <trkpt lat="44.89649" lon="5.64708">
        <ele>928.1</ele>
        <time>2023-05-16T08:49:26.958Z</time>
      </trkpt>
      <trkpt lat="44.89646" lon="5.64716">
        <ele>928.2</ele>
        <time>2023-05-16T08:49:29.357Z</time>
      </trkpt>
      <trkpt lat="44.89644" lon="5.64721">
        <ele>928.3</ele>
        <time>2023-05-16T08:49:30.923Z</time>
      </trkpt>
      <trkpt lat="44.89641" lon="5.64723">
        <ele>928.3</ele>
        <time>2023-05-16T08:49:32.105Z</time>
      </trkpt>
      <trkpt lat="44.89638" lon="5.64731">
        <ele>928.4</ele>
        <time>2023-05-16T08:49:34.504Z</time>
      </trkpt>
      <trkpt lat="44.8964" lon="5.64738">
        <ele>928.5</ele>
        <time>2023-05-16T08:49:36.525Z</time>
      </trkpt>
      <trkpt lat="44.89641" lon="5.64744">
        <ele>928.5</ele>
        <time>2023-05-16T08:49:38.081Z</time>
      </trkpt>
      <trkpt lat="44.89641" lon="5.64749">
        <ele>928.6</ele>
        <time>2023-05-16T08:49:39.460Z</time>
      </trkpt>
      <trkpt lat="44.89641" lon="5.64755">
        <ele>928.6</ele>
        <time>2023-05-16T08:49:40.975Z</time>
      </trkpt>
      <trkpt lat="44.89641" lon="5.64759">
        <ele>928.7</ele>
        <time>2023-05-16T08:49:42.104Z</time>
      </trkpt>
      <trkpt lat="44.89642" lon="5.64767">
        <ele>928.8</ele>
        <time>2023-05-16T08:49:44.269Z</time>
      </trkpt>
      <trkpt lat="44.89642" lon="5.64773">
        <ele>928.8</ele>
        <time>2023-05-16T08:49:45.784Z</time>
      </trkpt>
      <trkpt lat="44.89643" lon="5.64778">
        <ele>928.9</ele>
        <time>2023-05-16T08:49:47.213Z</time>
      </trkpt>
      <trkpt lat="44.89645" lon="5.64784">
        <ele>928.9</ele>
        <time>2023-05-16T08:49:48.887Z</time>
      </trkpt>
      <trkpt lat="44.89647" lon="5.64791">
        <ele>929</ele>
        <time>2023-05-16T08:49:50.907Z</time>
      </trkpt>
      <trkpt lat="44.89649" lon="5.64797">
        <ele>929.1</ele>
        <time>2023-05-16T08:49:52.697Z</time>
      </trkpt>
      <trkpt lat="44.8965" lon="5.64804">
        <ele>929.3</ele>
        <time>2023-05-16T08:49:54.739Z</time>
      </trkpt>
      <trkpt lat="44.89651" lon="5.6482">
        <ele>929.6</ele>
        <time>2023-05-16T08:49:59.144Z</time>
      </trkpt>
      <trkpt lat="44.89652" lon="5.64828">
        <ele>929.8</ele>
        <time>2023-05-16T08:50:01.432Z</time>
      </trkpt>
      <trkpt lat="44.89652" lon="5.64832">
        <ele>930</ele>
        <time>2023-05-16T08:50:02.700Z</time>
      </trkpt>
      <trkpt lat="44.8965" lon="5.64838">
        <ele>930.1</ele>
        <time>2023-05-16T08:50:04.489Z</time>
      </trkpt>
      <trkpt lat="44.89651" lon="5.64844">
        <ele>930.3</ele>
        <time>2023-05-16T08:50:06.289Z</time>
      </trkpt>
      <trkpt lat="44.8965" lon="5.64849">
        <ele>930.4</ele>
        <time>2023-05-16T08:50:07.717Z</time>
      </trkpt>
      <trkpt lat="44.89651" lon="5.64855">
        <ele>930.6</ele>
        <time>2023-05-16T08:50:09.517Z</time>
      </trkpt>
      <trkpt lat="44.8965" lon="5.64859">
        <ele>930.7</ele>
        <time>2023-05-16T08:50:10.706Z</time>
      </trkpt>
      <trkpt lat="44.89649" lon="5.64864">
        <ele>930.8</ele>
        <time>2023-05-16T08:50:12.134Z</time>
      </trkpt>
      <trkpt lat="44.89647" lon="5.64871">
        <ele>931</ele>
        <time>2023-05-16T08:50:14.278Z</time>
      </trkpt>
      <trkpt lat="44.89646" lon="5.64874">
        <ele>931</ele>
        <time>2023-05-16T08:50:15.116Z</time>
      </trkpt>
      <trkpt lat="44.89644" lon="5.64878">
        <ele>931.1</ele>
        <time>2023-05-16T08:50:16.469Z</time>
      </trkpt>
      <trkpt lat="44.89642" lon="5.64883">
        <ele>931.1</ele>
        <time>2023-05-16T08:50:17.919Z</time>
      </trkpt>
      <trkpt lat="44.8964" lon="5.64887">
        <ele>931.2</ele>
        <time>2023-05-16T08:50:19.272Z</time>
      </trkpt>
      <trkpt lat="44.89638" lon="5.64891">
        <ele>931.2</ele>
        <time>2023-05-16T08:50:20.508Z</time>
      </trkpt>
      <trkpt lat="44.89634" lon="5.64903">
        <ele>931.4</ele>
        <time>2023-05-16T08:50:24.087Z</time>
      </trkpt>
      <trkpt lat="44.89632" lon="5.64906">
        <ele>931.4</ele>
        <time>2023-05-16T08:50:25.127Z</time>
      </trkpt>
      <trkpt lat="44.8963" lon="5.6491">
        <ele>931.5</ele>
        <time>2023-05-16T08:50:26.480Z</time>
      </trkpt>
      <trkpt lat="44.89626" lon="5.64912">
        <ele>931.6</ele>
        <time>2023-05-16T08:50:28.109Z</time>
      </trkpt>
      <trkpt lat="44.89623" lon="5.64915">
        <ele>931.7</ele>
        <time>2023-05-16T08:50:29.536Z</time>
      </trkpt>
      <trkpt lat="44.89619" lon="5.64918">
        <ele>931.8</ele>
        <time>2023-05-16T08:50:31.265Z</time>
      </trkpt>
      <trkpt lat="44.89616" lon="5.6492">
        <ele>931.9</ele>
        <time>2023-05-16T08:50:32.565Z</time>
      </trkpt>
      <trkpt lat="44.89613" lon="5.64921">
        <ele>932</ele>
        <time>2023-05-16T08:50:33.782Z</time>
      </trkpt>
      <trkpt lat="44.89609" lon="5.64923">
        <ele>932.1</ele>
        <time>2023-05-16T08:50:35.410Z</time>
      </trkpt>
      <trkpt lat="44.89605" lon="5.64924">
        <ele>932.1</ele>
        <time>2023-05-16T08:50:36.858Z</time>
      </trkpt>
      <trkpt lat="44.896" lon="5.64924">
        <ele>932.3</ele>
        <time>2023-05-16T08:50:38.880Z</time>
      </trkpt>
      <trkpt lat="44.89595" lon="5.64925">
        <ele>932.5</ele>
        <time>2023-05-16T08:50:40.920Z</time>
      </trkpt>
      <trkpt lat="44.89592" lon="5.64925">
        <ele>932.6</ele>
        <time>2023-05-16T08:50:42.107Z</time>
      </trkpt>
      <trkpt lat="44.89588" lon="5.64925">
        <ele>932.8</ele>
        <time>2023-05-16T08:50:43.779Z</time>
      </trkpt>
      <trkpt lat="44.89584" lon="5.64925">
        <ele>932.9</ele>
        <time>2023-05-16T08:50:45.320Z</time>
      </trkpt>
      <trkpt lat="44.89581" lon="5.64926">
        <ele>933</ele>
        <time>2023-05-16T08:50:46.537Z</time>
      </trkpt>
      <trkpt lat="44.89577" lon="5.64926">
        <ele>933</ele>
        <time>2023-05-16T08:50:47.963Z</time>
      </trkpt>
      <trkpt lat="44.89574" lon="5.64927">
        <ele>933.1</ele>
        <time>2023-05-16T08:50:49.179Z</time>
      </trkpt>
      <trkpt lat="44.8957" lon="5.64927">
        <ele>933.2</ele>
        <time>2023-05-16T08:50:50.721Z</time>
      </trkpt>
      <trkpt lat="44.89567" lon="5.64928">
        <ele>933.3</ele>
        <time>2023-05-16T08:50:51.938Z</time>
      </trkpt>
      <trkpt lat="44.89563" lon="5.64928">
        <ele>933.4</ele>
        <time>2023-05-16T08:50:53.480Z</time>
      </trkpt>
      <trkpt lat="44.89558" lon="5.64929">
        <ele>933.5</ele>
        <time>2023-05-16T08:50:55.394Z</time>
      </trkpt>
      <trkpt lat="44.89554" lon="5.6493">
        <ele>933.7</ele>
        <time>2023-05-16T08:50:57.087Z</time>
      </trkpt>
      <trkpt lat="44.8955" lon="5.64931">
        <ele>933.8</ele>
        <time>2023-05-16T08:50:58.651Z</time>
      </trkpt>
      <trkpt lat="44.89547" lon="5.64931">
        <ele>933.9</ele>
        <time>2023-05-16T08:50:59.839Z</time>
      </trkpt>
      <trkpt lat="44.89543" lon="5.64932">
        <ele>934.1</ele>
        <time>2023-05-16T08:51:01.532Z</time>
      </trkpt>
      <trkpt lat="44.89539" lon="5.64932">
        <ele>934.2</ele>
        <time>2023-05-16T08:51:03.073Z</time>
      </trkpt>
      <trkpt lat="44.89534" lon="5.64933">
        <ele>934.3</ele>
        <time>2023-05-16T08:51:04.988Z</time>
      </trkpt>
      <trkpt lat="44.8953" lon="5.64933">
        <ele>934.5</ele>
        <time>2023-05-16T08:51:06.659Z</time>
      </trkpt>
      <trkpt lat="44.89527" lon="5.64934">
        <ele>934.6</ele>
        <time>2023-05-16T08:51:07.876Z</time>
      </trkpt>
      <trkpt lat="44.89524" lon="5.64934">
        <ele>934.7</ele>
        <time>2023-05-16T08:51:09.063Z</time>
      </trkpt>
      <trkpt lat="44.8952" lon="5.64934">
        <ele>934.8</ele>
        <time>2023-05-16T08:51:10.605Z</time>
      </trkpt>
      <trkpt lat="44.89515" lon="5.64934">
        <ele>934.9</ele>
        <time>2023-05-16T08:51:12.502Z</time>
      </trkpt>
      <trkpt lat="44.89512" lon="5.64934">
        <ele>935</ele>
        <time>2023-05-16T08:51:13.690Z</time>
      </trkpt>
      <trkpt lat="44.89508" lon="5.64934">
        <ele>935.1</ele>
        <time>2023-05-16T08:51:15.231Z</time>
      </trkpt>
      <trkpt lat="44.89505" lon="5.64933">
        <ele>935.1</ele>
        <time>2023-05-16T08:51:16.330Z</time>
      </trkpt>
      <trkpt lat="44.89502" lon="5.64932">
        <ele>935.2</ele>
        <time>2023-05-16T08:51:17.547Z</time>
      </trkpt>
      <trkpt lat="44.89499" lon="5.64931">
        <ele>935.2</ele>
        <time>2023-05-16T08:51:18.646Z</time>
      </trkpt>
      <trkpt lat="44.89485" lon="5.64932">
        <ele>935.6</ele>
        <time>2023-05-16T08:51:24.110Z</time>
      </trkpt>
      <trkpt lat="44.8948" lon="5.64932">
        <ele>935.8</ele>
        <time>2023-05-16T08:51:26.132Z</time>
      </trkpt>
      <trkpt lat="44.89477" lon="5.64932">
        <ele>935.8</ele>
        <time>2023-05-16T08:51:27.201Z</time>
      </trkpt>
      <trkpt lat="44.89474" lon="5.64931">
        <ele>935.9</ele>
        <time>2023-05-16T08:51:28.418Z</time>
      </trkpt>
      <trkpt lat="44.89471" lon="5.64928">
        <ele>936</ele>
        <time>2023-05-16T08:51:29.845Z</time>
      </trkpt>
      <trkpt lat="44.89467" lon="5.64926">
        <ele>936.4</ele>
        <time>2023-05-16T08:51:31.903Z</time>
      </trkpt>
      <trkpt lat="44.89464" lon="5.64924">
        <ele>936.8</ele>
        <time>2023-05-16T08:51:33.668Z</time>
      </trkpt>
      <trkpt lat="44.8946" lon="5.64923">
        <ele>937.1</ele>
        <time>2023-05-16T08:51:35.506Z</time>
      </trkpt>
      <trkpt lat="44.89456" lon="5.64922">
        <ele>937.3</ele>
        <time>2023-05-16T08:51:37.199Z</time>
      </trkpt>
      <trkpt lat="44.89452" lon="5.64922">
        <ele>937.5</ele>
        <time>2023-05-16T08:51:38.870Z</time>
      </trkpt>
      <trkpt lat="44.89449" lon="5.64922">
        <ele>937.8</ele>
        <time>2023-05-16T08:51:40.354Z</time>
      </trkpt>
      <trkpt lat="44.89445" lon="5.64921">
        <ele>938.2</ele>
        <time>2023-05-16T08:51:42.353Z</time>
      </trkpt>
      <trkpt lat="44.89442" lon="5.64919">
        <ele>938.5</ele>
        <time>2023-05-16T08:51:43.941Z</time>
      </trkpt>
      <trkpt lat="44.89439" lon="5.64918">
        <ele>938.7</ele>
        <time>2023-05-16T08:51:45.294Z</time>
      </trkpt>
      <trkpt lat="44.89436" lon="5.64918">
        <ele>938.9</ele>
        <time>2023-05-16T08:51:46.619Z</time>
      </trkpt>
      <trkpt lat="44.89432" lon="5.64918">
        <ele>939.1</ele>
        <time>2023-05-16T08:51:48.290Z</time>
      </trkpt>
      <trkpt lat="44.89428" lon="5.64917">
        <ele>939.5</ele>
        <time>2023-05-16T08:51:50.289Z</time>
      </trkpt>
      <trkpt lat="44.89425" lon="5.64915">
        <ele>939.8</ele>
        <time>2023-05-16T08:51:51.877Z</time>
      </trkpt>
      <trkpt lat="44.89422" lon="5.64915">
        <ele>940.2</ele>
        <time>2023-05-16T08:51:53.548Z</time>
      </trkpt>
      <trkpt lat="44.89418" lon="5.64914">
        <ele>940.4</ele>
        <time>2023-05-16T08:51:55.241Z</time>
      </trkpt>
      <trkpt lat="44.89415" lon="5.64914">
        <ele>940.6</ele>
        <time>2023-05-16T08:51:56.566Z</time>
      </trkpt>
      <trkpt lat="44.89412" lon="5.64915">
        <ele>940.8</ele>
        <time>2023-05-16T08:51:57.919Z</time>
      </trkpt>
      <trkpt lat="44.89409" lon="5.64915">
        <ele>941.2</ele>
        <time>2023-05-16T08:51:59.590Z</time>
      </trkpt>
      <trkpt lat="44.89405" lon="5.64914">
        <ele>941.7</ele>
        <time>2023-05-16T08:52:01.771Z</time>
      </trkpt>
      <trkpt lat="44.89401" lon="5.64913">
        <ele>942.1</ele>
        <time>2023-05-16T08:52:03.770Z</time>
      </trkpt>
      <trkpt lat="44.89397" lon="5.64913">
        <ele>942.4</ele>
        <time>2023-05-16T08:52:05.586Z</time>
      </trkpt>
      <trkpt lat="44.89395" lon="5.64913">
        <ele>942.6</ele>
        <time>2023-05-16T08:52:06.576Z</time>
      </trkpt>
      <trkpt lat="44.89391" lon="5.64914">
        <ele>943</ele>
        <time>2023-05-16T08:52:08.575Z</time>
      </trkpt>
      <trkpt lat="44.89387" lon="5.64914">
        <ele>943.4</ele>
        <time>2023-05-16T08:52:10.554Z</time>
      </trkpt>
      <trkpt lat="44.89384" lon="5.64914">
        <ele>943.9</ele>
        <time>2023-05-16T08:52:12.445Z</time>
      </trkpt>
      <trkpt lat="44.89381" lon="5.64914">
        <ele>944.2</ele>
        <time>2023-05-16T08:52:13.930Z</time>
      </trkpt>
      <trkpt lat="44.89377" lon="5.64914">
        <ele>944.5</ele>
        <time>2023-05-16T08:52:15.746Z</time>
      </trkpt>
      <trkpt lat="44.89374" lon="5.64914">
        <ele>944.8</ele>
        <time>2023-05-16T08:52:17.230Z</time>
      </trkpt>
      <trkpt lat="44.89371" lon="5.64913">
        <ele>945.2</ele>
        <time>2023-05-16T08:52:18.925Z</time>
      </trkpt>
      <trkpt lat="44.89366" lon="5.64912">
        <ele>945.6</ele>
        <time>2023-05-16T08:52:21.251Z</time>
      </trkpt>
      <trkpt lat="44.89363" lon="5.64911">
        <ele>945.8</ele>
        <time>2023-05-16T08:52:22.604Z</time>
      </trkpt>
      <trkpt lat="44.89359" lon="5.64911">
        <ele>945.9</ele>
        <time>2023-05-16T08:52:24.146Z</time>
      </trkpt>
      <trkpt lat="44.89355" lon="5.64909">
        <ele>946.2</ele>
        <time>2023-05-16T08:52:26.045Z</time>
      </trkpt>
      <trkpt lat="44.89352" lon="5.64909">
        <ele>946.6</ele>
        <time>2023-05-16T08:52:27.716Z</time>
      </trkpt>
      <trkpt lat="44.89349" lon="5.6491">
        <ele>947</ele>
        <time>2023-05-16T08:52:29.412Z</time>
      </trkpt>
      <trkpt lat="44.89345" lon="5.6491">
        <ele>947.5</ele>
        <time>2023-05-16T08:52:31.574Z</time>
      </trkpt>
      <trkpt lat="44.89342" lon="5.64912">
        <ele>947.7</ele>
        <time>2023-05-16T08:52:33.008Z</time>
      </trkpt>
      <trkpt lat="44.89339" lon="5.64913">
        <ele>947.9</ele>
        <time>2023-05-16T08:52:34.361Z</time>
      </trkpt>
      <trkpt lat="44.89335" lon="5.64913">
        <ele>948.1</ele>
        <time>2023-05-16T08:52:36.032Z</time>
      </trkpt>
      <trkpt lat="44.89332" lon="5.64914">
        <ele>948.5</ele>
        <time>2023-05-16T08:52:37.727Z</time>
      </trkpt>
      <trkpt lat="44.89329" lon="5.64914">
        <ele>948.8</ele>
        <time>2023-05-16T08:52:39.212Z</time>
      </trkpt>
      <trkpt lat="44.89326" lon="5.64912">
        <ele>949.1</ele>
        <time>2023-05-16T08:52:40.800Z</time>
      </trkpt>
      <trkpt lat="44.89322" lon="5.64911">
        <ele>949.3</ele>
        <time>2023-05-16T08:52:42.493Z</time>
      </trkpt>
      <trkpt lat="44.89319" lon="5.6491">
        <ele>949.5</ele>
        <time>2023-05-16T08:52:43.846Z</time>
      </trkpt>
      <trkpt lat="44.89317" lon="5.64909">
        <ele>949.7</ele>
        <time>2023-05-16T08:52:44.875Z</time>
      </trkpt>
      <trkpt lat="44.89313" lon="5.64908">
        <ele>950.1</ele>
        <time>2023-05-16T08:52:46.874Z</time>
      </trkpt>
      <trkpt lat="44.8931" lon="5.64908">
        <ele>950.5</ele>
        <time>2023-05-16T08:52:48.545Z</time>
      </trkpt>
      <trkpt lat="44.89306" lon="5.64907">
        <ele>950.9</ele>
        <time>2023-05-16T08:52:50.544Z</time>
      </trkpt>
      <trkpt lat="44.89302" lon="5.64906">
        <ele>951.2</ele>
        <time>2023-05-16T08:52:52.382Z</time>
      </trkpt>
      <trkpt lat="44.89299" lon="5.64905">
        <ele>951.4</ele>
        <time>2023-05-16T08:52:53.735Z</time>
      </trkpt>
      <trkpt lat="44.89295" lon="5.64904">
        <ele>951.9</ele>
        <time>2023-05-16T08:52:55.916Z</time>
      </trkpt>
      <trkpt lat="44.89291" lon="5.64904">
        <ele>952.4</ele>
        <time>2023-05-16T08:52:58.078Z</time>
      </trkpt>
      <trkpt lat="44.89287" lon="5.64905">
        <ele>952.8</ele>
        <time>2023-05-16T08:53:00.077Z</time>
      </trkpt>
      <trkpt lat="44.89283" lon="5.64907">
        <ele>953.1</ele>
        <time>2023-05-16T08:53:01.976Z</time>
      </trkpt>
      <trkpt lat="44.89279" lon="5.64907">
        <ele>953.4</ele>
        <time>2023-05-16T08:53:03.792Z</time>
      </trkpt>
      <trkpt lat="44.89275" lon="5.64909">
        <ele>953.9</ele>
        <time>2023-05-16T08:53:06.028Z</time>
      </trkpt>
      <trkpt lat="44.89273" lon="5.64909">
        <ele>954.3</ele>
        <time>2023-05-16T08:53:07.461Z</time>
      </trkpt>
      <trkpt lat="44.89269" lon="5.64909">
        <ele>954.8</ele>
        <time>2023-05-16T08:53:09.624Z</time>
      </trkpt>
      <trkpt lat="44.89266" lon="5.6491">
        <ele>955</ele>
        <time>2023-05-16T08:53:10.977Z</time>
      </trkpt>
      <trkpt lat="44.89262" lon="5.6491">
        <ele>955.4</ele>
        <time>2023-05-16T08:53:12.956Z</time>
      </trkpt>
      <trkpt lat="44.89258" lon="5.64912">
        <ele>956</ele>
        <time>2023-05-16T08:53:15.390Z</time>
      </trkpt>
      <trkpt lat="44.89254" lon="5.64913">
        <ele>956.4</ele>
        <time>2023-05-16T08:53:17.390Z</time>
      </trkpt>
      <trkpt lat="44.89251" lon="5.64914">
        <ele>956.6</ele>
        <time>2023-05-16T08:53:18.743Z</time>
      </trkpt>
      <trkpt lat="44.89248" lon="5.64915">
        <ele>957</ele>
        <time>2023-05-16T08:53:20.438Z</time>
      </trkpt>
      <trkpt lat="44.89244" lon="5.64915">
        <ele>957.5</ele>
        <time>2023-05-16T08:53:22.600Z</time>
      </trkpt>
      <trkpt lat="44.89241" lon="5.64915">
        <ele>958</ele>
        <time>2023-05-16T08:53:24.491Z</time>
      </trkpt>
      <trkpt lat="44.89237" lon="5.64915">
        <ele>958.4</ele>
        <time>2023-05-16T08:53:26.470Z</time>
      </trkpt>
      <trkpt lat="44.89235" lon="5.64918">
        <ele>958.7</ele>
        <time>2023-05-16T08:53:27.928Z</time>
      </trkpt>
      <trkpt lat="44.89231" lon="5.6492">
        <ele>959</ele>
        <time>2023-05-16T08:53:29.827Z</time>
      </trkpt>
      <trkpt lat="44.89228" lon="5.6492">
        <ele>959.6</ele>
        <time>2023-05-16T08:53:31.977Z</time>
      </trkpt>
      <trkpt lat="44.89225" lon="5.64921">
        <ele>960</ele>
        <time>2023-05-16T08:53:33.673Z</time>
      </trkpt>
      <trkpt lat="44.89221" lon="5.64921">
        <ele>960.3</ele>
        <time>2023-05-16T08:53:35.489Z</time>
      </trkpt>
      <trkpt lat="44.89219" lon="5.64918">
        <ele>960.5</ele>
        <time>2023-05-16T08:53:36.785Z</time>
      </trkpt>
      <trkpt lat="44.89215" lon="5.6492">
        <ele>961</ele>
        <time>2023-05-16T08:53:39.021Z</time>
      </trkpt>
      <trkpt lat="44.89211" lon="5.6492">
        <ele>961.4</ele>
        <time>2023-05-16T08:53:41.000Z</time>
      </trkpt>
      <trkpt lat="44.89209" lon="5.6492">
        <ele>961.6</ele>
        <time>2023-05-16T08:53:41.990Z</time>
      </trkpt>
      <trkpt lat="44.89206" lon="5.64922">
        <ele>961.8</ele>
        <time>2023-05-16T08:53:43.424Z</time>
      </trkpt>
      <trkpt lat="44.89203" lon="5.64923">
        <ele>962</ele>
        <time>2023-05-16T08:53:44.777Z</time>
      </trkpt>
      <trkpt lat="44.89197" lon="5.64924">
        <ele>962.6</ele>
        <time>2023-05-16T08:53:47.759Z</time>
      </trkpt>
      <trkpt lat="44.89194" lon="5.64925">
        <ele>963</ele>
        <time>2023-05-16T08:53:49.454Z</time>
      </trkpt>
      <trkpt lat="44.8919" lon="5.64926">
        <ele>963.4</ele>
        <time>2023-05-16T08:53:51.453Z</time>
      </trkpt>
      <trkpt lat="44.89186" lon="5.64928">
        <ele>963.7</ele>
        <time>2023-05-16T08:53:53.352Z</time>
      </trkpt>
      <trkpt lat="44.89182" lon="5.64929">
        <ele>963.9</ele>
        <time>2023-05-16T08:53:55.045Z</time>
      </trkpt>
      <trkpt lat="44.89179" lon="5.64929">
        <ele>964</ele>
        <time>2023-05-16T08:53:56.233Z</time>
      </trkpt>
      <trkpt lat="44.89175" lon="5.64929">
        <ele>964.4</ele>
        <time>2023-05-16T08:53:58.212Z</time>
      </trkpt>
      <trkpt lat="44.89171" lon="5.64929">
        <ele>964.9</ele>
        <time>2023-05-16T08:54:00.374Z</time>
      </trkpt>
      <trkpt lat="44.89168" lon="5.64929">
        <ele>965.2</ele>
        <time>2023-05-16T08:54:01.859Z</time>
      </trkpt>
      <trkpt lat="44.89165" lon="5.6493">
        <ele>965.5</ele>
        <time>2023-05-16T08:54:03.370Z</time>
      </trkpt>
      <trkpt lat="44.89161" lon="5.64931">
        <ele>965.8</ele>
        <time>2023-05-16T08:54:05.207Z</time>
      </trkpt>
      <trkpt lat="44.89158" lon="5.64932">
        <ele>966.1</ele>
        <time>2023-05-16T08:54:06.718Z</time>
      </trkpt>
      <trkpt lat="44.89154" lon="5.64933">
        <ele>966.5</ele>
        <time>2023-05-16T08:54:08.717Z</time>
      </trkpt>
      <trkpt lat="44.89152" lon="5.64934">
        <ele>966.8</ele>
        <time>2023-05-16T08:54:09.934Z</time>
      </trkpt>
      <trkpt lat="44.89148" lon="5.64936">
        <ele>967.1</ele>
        <time>2023-05-16T08:54:11.834Z</time>
      </trkpt>
      <trkpt lat="44.89145" lon="5.64936">
        <ele>967.5</ele>
        <time>2023-05-16T08:54:13.505Z</time>
      </trkpt>
      <trkpt lat="44.8914" lon="5.64935">
        <ele>968.1</ele>
        <time>2023-05-16T08:54:16.175Z</time>
      </trkpt>
      <trkpt lat="44.89137" lon="5.64936">
        <ele>968.5</ele>
        <time>2023-05-16T08:54:17.870Z</time>
      </trkpt>
      <trkpt lat="44.89133" lon="5.64937">
        <ele>968.8</ele>
        <time>2023-05-16T08:54:19.708Z</time>
      </trkpt>
      <trkpt lat="44.8913" lon="5.64939">
        <ele>969</ele>
        <time>2023-05-16T08:54:21.142Z</time>
      </trkpt>
      <trkpt lat="44.89127" lon="5.6494">
        <ele>969.2</ele>
        <time>2023-05-16T08:54:22.495Z</time>
      </trkpt>
      <trkpt lat="44.89124" lon="5.64941">
        <ele>969.5</ele>
        <time>2023-05-16T08:54:24.006Z</time>
      </trkpt>
      <trkpt lat="44.8912" lon="5.64942">
        <ele>970</ele>
        <time>2023-05-16T08:54:26.186Z</time>
      </trkpt>
      <trkpt lat="44.89115" lon="5.64943">
        <ele>970.3</ele>
        <time>2023-05-16T08:54:28.363Z</time>
      </trkpt>
      <trkpt lat="44.89111" lon="5.64943">
        <ele>970.6</ele>
        <time>2023-05-16T08:54:30.179Z</time>
      </trkpt>
      <trkpt lat="44.89107" lon="5.64943">
        <ele>970.8</ele>
        <time>2023-05-16T08:54:31.850Z</time>
      </trkpt>
      <trkpt lat="44.89103" lon="5.64944">
        <ele>971.1</ele>
        <time>2023-05-16T08:54:33.688Z</time>
      </trkpt>
      <trkpt lat="44.891" lon="5.64946">
        <ele>971.4</ele>
        <time>2023-05-16T08:54:35.276Z</time>
      </trkpt>
      <trkpt lat="44.89097" lon="5.64948">
        <ele>971.9</ele>
        <time>2023-05-16T08:54:37.246Z</time>
      </trkpt>
      <trkpt lat="44.89093" lon="5.64949">
        <ele>972.1</ele>
        <time>2023-05-16T08:54:38.939Z</time>
      </trkpt>
      <trkpt lat="44.8909" lon="5.6495">
        <ele>972.3</ele>
        <time>2023-05-16T08:54:40.292Z</time>
      </trkpt>
      <trkpt lat="44.89086" lon="5.6495">
        <ele>972.5</ele>
        <time>2023-05-16T08:54:41.963Z</time>
      </trkpt>
      <trkpt lat="44.89084" lon="5.64953">
        <ele>972.9</ele>
        <time>2023-05-16T08:54:43.611Z</time>
      </trkpt>
      <trkpt lat="44.89082" lon="5.64955">
        <ele>973.4</ele>
        <time>2023-05-16T08:54:45.395Z</time>
      </trkpt>
      <trkpt lat="44.89079" lon="5.64958">
        <ele>973.8</ele>
        <time>2023-05-16T08:54:47.271Z</time>
      </trkpt>
      <trkpt lat="44.89076" lon="5.6496">
        <ele>973.9</ele>
        <time>2023-05-16T08:54:48.571Z</time>
      </trkpt>
      <trkpt lat="44.89074" lon="5.64963">
        <ele>973.9</ele>
        <time>2023-05-16T08:54:49.611Z</time>
      </trkpt>
      <trkpt lat="44.89072" lon="5.64966">
        <ele>973.9</ele>
        <time>2023-05-16T08:54:50.652Z</time>
      </trkpt>
      <trkpt lat="44.89069" lon="5.64968">
        <ele>974</ele>
        <time>2023-05-16T08:54:51.952Z</time>
      </trkpt>
      <trkpt lat="44.89068" lon="5.64973">
        <ele>974</ele>
        <time>2023-05-16T08:54:53.264Z</time>
      </trkpt>
      <trkpt lat="44.89066" lon="5.64977">
        <ele>974.1</ele>
        <time>2023-05-16T08:54:54.617Z</time>
      </trkpt>
      <trkpt lat="44.89063" lon="5.64982">
        <ele>974.1</ele>
        <time>2023-05-16T08:54:56.272Z</time>
      </trkpt>
      <trkpt lat="44.89061" lon="5.64987">
        <ele>974.2</ele>
        <time>2023-05-16T08:54:57.837Z</time>
      </trkpt>
      <trkpt lat="44.89059" lon="5.64992">
        <ele>974.2</ele>
        <time>2023-05-16T08:54:59.287Z</time>
      </trkpt>
      <trkpt lat="44.89057" lon="5.64997">
        <ele>974.3</ele>
        <time>2023-05-16T08:55:00.853Z</time>
      </trkpt>
      <trkpt lat="44.89054" lon="5.65002">
        <ele>974.4</ele>
        <time>2023-05-16T08:55:02.623Z</time>
      </trkpt>
      <trkpt lat="44.89051" lon="5.65017">
        <ele>974.6</ele>
        <time>2023-05-16T08:55:06.787Z</time>
      </trkpt>
      <trkpt lat="44.89049" lon="5.65027">
        <ele>974.8</ele>
        <time>2023-05-16T08:55:09.644Z</time>
      </trkpt>
      <trkpt lat="44.89048" lon="5.65037">
        <ele>975</ele>
        <time>2023-05-16T08:55:12.428Z</time>
      </trkpt>
      <trkpt lat="44.89047" lon="5.65043">
        <ele>975.1</ele>
        <time>2023-05-16T08:55:14.100Z</time>
      </trkpt>
      <trkpt lat="44.89047" lon="5.65049">
        <ele>975.1</ele>
        <time>2023-05-16T08:55:15.615Z</time>
      </trkpt>
      <trkpt lat="44.89047" lon="5.65055">
        <ele>975.2</ele>
        <time>2023-05-16T08:55:17.246Z</time>
      </trkpt>
      <trkpt lat="44.89046" lon="5.65062">
        <ele>975.3</ele>
        <time>2023-05-16T08:55:19.164Z</time>
      </trkpt>
      <trkpt lat="44.89047" lon="5.65067">
        <ele>975.4</ele>
        <time>2023-05-16T08:55:20.592Z</time>
      </trkpt>
      <trkpt lat="44.89047" lon="5.65072">
        <ele>975.7</ele>
        <time>2023-05-16T08:55:22.255Z</time>
      </trkpt>
      <trkpt lat="44.89049" lon="5.65076">
        <ele>976</ele>
        <time>2023-05-16T08:55:23.892Z</time>
      </trkpt>
      <trkpt lat="44.89049" lon="5.6508">
        <ele>976.7</ele>
        <time>2023-05-16T08:55:26.344Z</time>
      </trkpt>
      <trkpt lat="44.8905" lon="5.65085">
        <ele>984.6</ele>
        <time>2023-05-16T08:55:33.232Z</time>
      </trkpt>
      <trkpt lat="44.89052" lon="5.6509">
        <ele>985.2</ele>
        <time>2023-05-16T08:55:35.619Z</time>
      </trkpt>
      <trkpt lat="44.89053" lon="5.65095">
        <ele>985.6</ele>
        <time>2023-05-16T08:55:37.496Z</time>
      </trkpt>
      <trkpt lat="44.89055" lon="5.65099">
        <ele>985.8</ele>
        <time>2023-05-16T08:55:38.982Z</time>
      </trkpt>
      <trkpt lat="44.89057" lon="5.65104">
        <ele>986</ele>
        <time>2023-05-16T08:55:40.677Z</time>
      </trkpt>
      <trkpt lat="44.89058" lon="5.65109">
        <ele>986.2</ele>
        <time>2023-05-16T08:55:42.237Z</time>
      </trkpt>
      <trkpt lat="44.8906" lon="5.65114">
        <ele>986.4</ele>
        <time>2023-05-16T08:55:43.932Z</time>
      </trkpt>
      <trkpt lat="44.89061" lon="5.65119">
        <ele>986.7</ele>
        <time>2023-05-16T08:55:45.641Z</time>
      </trkpt>
      <trkpt lat="44.89063" lon="5.65124">
        <ele>986.9</ele>
        <time>2023-05-16T08:55:47.336Z</time>
      </trkpt>
      <trkpt lat="44.89064" lon="5.65129">
        <ele>987.1</ele>
        <time>2023-05-16T08:55:48.896Z</time>
      </trkpt>
      <trkpt lat="44.89064" lon="5.65133">
        <ele>987.8</ele>
        <time>2023-05-16T08:55:51.347Z</time>
      </trkpt>
      <trkpt lat="44.89066" lon="5.65138">
        <ele>988.5</ele>
        <time>2023-05-16T08:55:53.964Z</time>
      </trkpt>
      <trkpt lat="44.89069" lon="5.65142">
        <ele>989.1</ele>
        <time>2023-05-16T08:55:56.367Z</time>
      </trkpt>
      <trkpt lat="44.89072" lon="5.65146">
        <ele>989.9</ele>
        <time>2023-05-16T08:55:59.254Z</time>
      </trkpt>
      <trkpt lat="44.89074" lon="5.65152">
        <ele>990.4</ele>
        <time>2023-05-16T08:56:01.631Z</time>
      </trkpt>
      <trkpt lat="44.89075" lon="5.65156">
        <ele>990.6</ele>
        <time>2023-05-16T08:56:02.958Z</time>
      </trkpt>
      <trkpt lat="44.89076" lon="5.6516">
        <ele>991</ele>
        <time>2023-05-16T08:56:04.630Z</time>
      </trkpt>
      <trkpt lat="44.89077" lon="5.65164">
        <ele>991.5</ele>
        <time>2023-05-16T08:56:06.523Z</time>
      </trkpt>
      <trkpt lat="44.89079" lon="5.65168">
        <ele>991.8</ele>
        <time>2023-05-16T08:56:08.161Z</time>
      </trkpt>
      <trkpt lat="44.89079" lon="5.65173">
        <ele>992.2</ele>
        <time>2023-05-16T08:56:09.995Z</time>
      </trkpt>
      <trkpt lat="44.89079" lon="5.65177">
        <ele>992.7</ele>
        <time>2023-05-16T08:56:11.848Z</time>
      </trkpt>
      <trkpt lat="44.8908" lon="5.65181">
        <ele>993</ele>
        <time>2023-05-16T08:56:13.334Z</time>
      </trkpt>
      <trkpt lat="44.8908" lon="5.65185">
        <ele>993.2</ele>
        <time>2023-05-16T08:56:14.602Z</time>
      </trkpt>
      <trkpt lat="44.8908" lon="5.65189">
        <ele>993.6</ele>
        <time>2023-05-16T08:56:16.227Z</time>
      </trkpt>
      <trkpt lat="44.8908" lon="5.65195">
        <ele>994.1</ele>
        <time>2023-05-16T08:56:18.465Z</time>
      </trkpt>
      <trkpt lat="44.8908" lon="5.652">
        <ele>994.4</ele>
        <time>2023-05-16T08:56:20.127Z</time>
      </trkpt>
      <trkpt lat="44.89079" lon="5.65205">
        <ele>994.6</ele>
        <time>2023-05-16T08:56:21.687Z</time>
      </trkpt>
      <trkpt lat="44.89077" lon="5.65208">
        <ele>995</ele>
        <time>2023-05-16T08:56:23.335Z</time>
      </trkpt>
      <trkpt lat="44.89076" lon="5.65213">
        <ele>995.6</ele>
        <time>2023-05-16T08:56:25.623Z</time>
      </trkpt>
      <trkpt lat="44.89077" lon="5.65219">
        <ele>996</ele>
        <time>2023-05-16T08:56:27.722Z</time>
      </trkpt>
      <trkpt lat="44.89077" lon="5.65223">
        <ele>996.2</ele>
        <time>2023-05-16T08:56:28.990Z</time>
      </trkpt>
      <trkpt lat="44.89078" lon="5.65227">
        <ele>996.7</ele>
        <time>2023-05-16T08:56:30.882Z</time>
      </trkpt>
      <trkpt lat="44.89076" lon="5.65232">
        <ele>997.2</ele>
        <time>2023-05-16T08:56:33.064Z</time>
      </trkpt>
      <trkpt lat="44.89074" lon="5.65237">
        <ele>997.6</ele>
        <time>2023-05-16T08:56:35.065Z</time>
      </trkpt>
      <trkpt lat="44.89072" lon="5.65242">
        <ele>998.3</ele>
        <time>2023-05-16T08:56:37.683Z</time>
      </trkpt>
      <trkpt lat="44.89071" lon="5.65247">
        <ele>998.6</ele>
        <time>2023-05-16T08:56:39.391Z</time>
      </trkpt>
      <trkpt lat="44.8907" lon="5.65251">
        <ele>998.7</ele>
        <time>2023-05-16T08:56:40.581Z</time>
      </trkpt>
      <trkpt lat="44.89069" lon="5.65255">
        <ele>998.8</ele>
        <time>2023-05-16T08:56:41.770Z</time>
      </trkpt>
      <trkpt lat="44.89067" lon="5.65261">
        <ele>999.3</ele>
        <time>2023-05-16T08:56:44.147Z</time>
      </trkpt>
      <trkpt lat="44.89064" lon="5.65264">
        <ele>1000</ele>
        <time>2023-05-16T08:56:46.685Z</time>
      </trkpt>
      <trkpt lat="44.89062" lon="5.65267">
        <ele>1000.4</ele>
        <time>2023-05-16T08:56:48.333Z</time>
      </trkpt>
      <trkpt lat="44.89059" lon="5.65269">
        <ele>1001.3</ele>
        <time>2023-05-16T08:56:51.504Z</time>
      </trkpt>
      <trkpt lat="44.89057" lon="5.65272">
        <ele>1001.7</ele>
        <time>2023-05-16T08:56:53.152Z</time>
      </trkpt>
      <trkpt lat="44.89054" lon="5.65274">
        <ele>1002.3</ele>
        <time>2023-05-16T08:56:55.359Z</time>
      </trkpt>
      <trkpt lat="44.89051" lon="5.65279">
        <ele>1003</ele>
        <time>2023-05-16T08:56:58.117Z</time>
      </trkpt>
      <trkpt lat="44.89048" lon="5.65281">
        <ele>1003.6</ele>
        <time>2023-05-16T08:57:00.324Z</time>
      </trkpt>
      <trkpt lat="44.89045" lon="5.65282">
        <ele>1003.6</ele>
        <time>2023-05-16T08:57:01.423Z</time>
      </trkpt>
      <trkpt lat="44.89043" lon="5.65283">
        <ele>1003.4</ele>
        <time>2023-05-16T08:57:02.085Z</time>
      </trkpt>
      <trkpt lat="44.89039" lon="5.65285">
        <ele>1003.3</ele>
        <time>2023-05-16T08:57:03.493Z</time>
      </trkpt>
      <trkpt lat="44.89036" lon="5.65287">
        <ele>1003.1</ele>
        <time>2023-05-16T08:57:04.528Z</time>
      </trkpt>
      <trkpt lat="44.89033" lon="5.6529">
        <ele>1003</ele>
        <time>2023-05-16T08:57:05.735Z</time>
      </trkpt>
      <trkpt lat="44.8903" lon="5.65289">
        <ele>1003.3</ele>
        <time>2023-05-16T08:57:07.246Z</time>
      </trkpt>
      <trkpt lat="44.89029" lon="5.65284">
        <ele>1003.8</ele>
        <time>2023-05-16T08:57:09.315Z</time>
      </trkpt>
      <trkpt lat="44.89032" lon="5.6528">
        <ele>1004.1</ele>
        <time>2023-05-16T08:57:11.175Z</time>
      </trkpt>
      <trkpt lat="44.89036" lon="5.65277">
        <ele>1004.4</ele>
        <time>2023-05-16T08:57:13.172Z</time>
      </trkpt>
      <trkpt lat="44.89038" lon="5.65275">
        <ele>1005.2</ele>
        <time>2023-05-16T08:57:16.119Z</time>
      </trkpt>
      <trkpt lat="44.89039" lon="5.6527">
        <ele>1005.5</ele>
        <time>2023-05-16T08:57:17.827Z</time>
      </trkpt>
      <trkpt lat="44.89036" lon="5.65269">
        <ele>1005.6</ele>
        <time>2023-05-16T08:57:19.044Z</time>
      </trkpt>
      <trkpt lat="44.89033" lon="5.65271">
        <ele>1005.8</ele>
        <time>2023-05-16T08:57:20.478Z</time>
      </trkpt>
      <trkpt lat="44.8903" lon="5.6527">
        <ele>1006</ele>
        <time>2023-05-16T08:57:21.831Z</time>
      </trkpt>
      <trkpt lat="44.89031" lon="5.65265">
        <ele>1006.3</ele>
        <time>2023-05-16T08:57:23.540Z</time>
      </trkpt>
      <trkpt lat="44.89031" lon="5.65261">
        <ele>1006.5</ele>
        <time>2023-05-16T08:57:24.807Z</time>
      </trkpt>
      <trkpt lat="44.89029" lon="5.65258">
        <ele>1006.8</ele>
        <time>2023-05-16T08:57:26.265Z</time>
      </trkpt>
      <trkpt lat="44.89029" lon="5.65254">
        <ele>1007.1</ele>
        <time>2023-05-16T08:57:27.697Z</time>
      </trkpt>
      <trkpt lat="44.89033" lon="5.65253">
        <ele>1007.6</ele>
        <time>2023-05-16T08:57:29.878Z</time>
      </trkpt>
      <trkpt lat="44.8903" lon="5.65252">
        <ele>1008</ele>
        <time>2023-05-16T08:57:31.573Z</time>
      </trkpt>
      <trkpt lat="44.89026" lon="5.65254">
        <ele>1008.4</ele>
        <time>2023-05-16T08:57:33.631Z</time>
      </trkpt>
      <trkpt lat="44.89023" lon="5.65255">
        <ele>1009</ele>
        <time>2023-05-16T08:57:35.794Z</time>
      </trkpt>
      <trkpt lat="44.8902" lon="5.65257">
        <ele>1009.5</ele>
        <time>2023-05-16T08:57:37.764Z</time>
      </trkpt>
      <trkpt lat="44.89018" lon="5.65255">
        <ele>1009.7</ele>
        <time>2023-05-16T08:57:38.902Z</time>
      </trkpt>
      <trkpt lat="44.89015" lon="5.65255">
        <ele>1009.9</ele>
        <time>2023-05-16T08:57:40.227Z</time>
      </trkpt>
      <trkpt lat="44.89012" lon="5.65259">
        <ele>1010.3</ele>
        <time>2023-05-16T08:57:42.247Z</time>
      </trkpt>
      <trkpt lat="44.8901" lon="5.65261">
        <ele>1010.9</ele>
        <time>2023-05-16T08:57:44.348Z</time>
      </trkpt>
      <trkpt lat="44.89007" lon="5.65263">
        <ele>1011.2</ele>
        <time>2023-05-16T08:57:45.936Z</time>
      </trkpt>
      <trkpt lat="44.89003" lon="5.65265">
        <ele>1011.5</ele>
        <time>2023-05-16T08:57:47.835Z</time>
      </trkpt>
      <trkpt lat="44.89" lon="5.65266">
        <ele>1011.8</ele>
        <time>2023-05-16T08:57:49.346Z</time>
      </trkpt>
      <trkpt lat="44.88997" lon="5.65268">
        <ele>1012.1</ele>
        <time>2023-05-16T08:57:50.934Z</time>
      </trkpt>
      <trkpt lat="44.88995" lon="5.6527">
        <ele>1012.3</ele>
        <time>2023-05-16T08:57:52.072Z</time>
      </trkpt>
      <trkpt lat="44.88991" lon="5.65272">
        <ele>1012.4</ele>
        <time>2023-05-16T08:57:53.700Z</time>
      </trkpt>
      <trkpt lat="44.88988" lon="5.65274">
        <ele>1012.5</ele>
        <time>2023-05-16T08:57:55.000Z</time>
      </trkpt>
      <trkpt lat="44.88985" lon="5.65276">
        <ele>1012.6</ele>
        <time>2023-05-16T08:57:56.300Z</time>
      </trkpt>
      <trkpt lat="44.88982" lon="5.65278">
        <ele>1012.6</ele>
        <time>2023-05-16T08:57:57.483Z</time>
      </trkpt>
      <trkpt lat="44.88979" lon="5.65281">
        <ele>1012.7</ele>
        <time>2023-05-16T08:57:58.910Z</time>
      </trkpt>
      <trkpt lat="44.88976" lon="5.65282">
        <ele>1012.7</ele>
        <time>2023-05-16T08:58:00.009Z</time>
      </trkpt>
      <trkpt lat="44.88972" lon="5.65284">
        <ele>1012.9</ele>
        <time>2023-05-16T08:58:01.765Z</time>
      </trkpt>
      <trkpt lat="44.88969" lon="5.65287">
        <ele>1013</ele>
        <time>2023-05-16T08:58:03.192Z</time>
      </trkpt>
      <trkpt lat="44.88966" lon="5.65291">
        <ele>1013.1</ele>
        <time>2023-05-16T08:58:04.779Z</time>
      </trkpt>
      <trkpt lat="44.88963" lon="5.65294">
        <ele>1013.3</ele>
        <time>2023-05-16T08:58:06.337Z</time>
      </trkpt>
      <trkpt lat="44.8896" lon="5.65298">
        <ele>1013.6</ele>
        <time>2023-05-16T08:58:08.197Z</time>
      </trkpt>
      <trkpt lat="44.88957" lon="5.653">
        <ele>1013.7</ele>
        <time>2023-05-16T08:58:09.496Z</time>
      </trkpt>
      <trkpt lat="44.88955" lon="5.65303">
        <ele>1013.8</ele>
        <time>2023-05-16T08:58:10.655Z</time>
      </trkpt>
      <trkpt lat="44.88952" lon="5.65305">
        <ele>1013.9</ele>
        <time>2023-05-16T08:58:11.955Z</time>
      </trkpt>
      <trkpt lat="44.88949" lon="5.65313">
        <ele>1013.9</ele>
        <time>2023-05-16T08:58:14.241Z</time>
      </trkpt>
      <trkpt lat="44.88946" lon="5.65316">
        <ele>1013.9</ele>
        <time>2023-05-16T08:58:15.551Z</time>
      </trkpt>
      <trkpt lat="44.88943" lon="5.65321">
        <ele>1013.9</ele>
        <time>2023-05-16T08:58:17.206Z</time>
      </trkpt>
      <trkpt lat="44.8894" lon="5.65326">
        <ele>1013.9</ele>
        <time>2023-05-16T08:58:18.861Z</time>
      </trkpt>
      <trkpt lat="44.88937" lon="5.6533">
        <ele>1014</ele>
        <time>2023-05-16T08:58:20.448Z</time>
      </trkpt>
      <trkpt lat="44.88935" lon="5.65333">
        <ele>1014</ele>
        <time>2023-05-16T08:58:21.488Z</time>
      </trkpt>
      <trkpt lat="44.88932" lon="5.65337">
        <ele>1014.1</ele>
        <time>2023-05-16T08:58:23.075Z</time>
      </trkpt>
      <trkpt lat="44.88929" lon="5.6534">
        <ele>1014.2</ele>
        <time>2023-05-16T08:58:24.502Z</time>
      </trkpt>
      <trkpt lat="44.88927" lon="5.65344">
        <ele>1014.3</ele>
        <time>2023-05-16T08:58:25.855Z</time>
      </trkpt>
      <trkpt lat="44.88925" lon="5.65347">
        <ele>1014.5</ele>
        <time>2023-05-16T08:58:27.152Z</time>
      </trkpt>
      <trkpt lat="44.88924" lon="5.65351">
        <ele>1014.7</ele>
        <time>2023-05-16T08:58:28.478Z</time>
      </trkpt>
      <trkpt lat="44.88922" lon="5.65355">
        <ele>1014.8</ele>
        <time>2023-05-16T08:58:29.831Z</time>
      </trkpt>
      <trkpt lat="44.8892" lon="5.65359">
        <ele>1014.9</ele>
        <time>2023-05-16T08:58:31.185Z</time>
      </trkpt>
      <trkpt lat="44.88917" lon="5.65362">
        <ele>1015</ele>
        <time>2023-05-16T08:58:32.612Z</time>
      </trkpt>
      <trkpt lat="44.88914" lon="5.65364">
        <ele>1015</ele>
        <time>2023-05-16T08:58:33.794Z</time>
      </trkpt>
      <trkpt lat="44.8891" lon="5.65368">
        <ele>1015.1</ele>
        <time>2023-05-16T08:58:35.656Z</time>
      </trkpt>
      <trkpt lat="44.88908" lon="5.65373">
        <ele>1015.3</ele>
        <time>2023-05-16T08:58:37.351Z</time>
      </trkpt>
      <trkpt lat="44.88905" lon="5.65377">
        <ele>1015.5</ele>
        <time>2023-05-16T08:58:39.067Z</time>
      </trkpt>
      <trkpt lat="44.88902" lon="5.65379">
        <ele>1015.7</ele>
        <time>2023-05-16T08:58:40.501Z</time>
      </trkpt>
      <trkpt lat="44.88898" lon="5.65382">
        <ele>1015.9</ele>
        <time>2023-05-16T08:58:42.358Z</time>
      </trkpt>
      <trkpt lat="44.88895" lon="5.65386">
        <ele>1015.9</ele>
        <time>2023-05-16T08:58:43.829Z</time>
      </trkpt>
      <trkpt lat="44.88893" lon="5.65391">
        <ele>1015.9</ele>
        <time>2023-05-16T08:58:45.279Z</time>
      </trkpt>
      <trkpt lat="44.8889" lon="5.65395">
        <ele>1016</ele>
        <time>2023-05-16T08:58:46.866Z</time>
      </trkpt>
      <trkpt lat="44.88886" lon="5.65398">
        <ele>1016.1</ele>
        <time>2023-05-16T08:58:48.595Z</time>
      </trkpt>
      <trkpt lat="44.88883" lon="5.654">
        <ele>1016.3</ele>
        <time>2023-05-16T08:58:50.029Z</time>
      </trkpt>
      <trkpt lat="44.88879" lon="5.65402">
        <ele>1016.7</ele>
        <time>2023-05-16T08:58:52.088Z</time>
      </trkpt>
      <trkpt lat="44.88876" lon="5.65405">
        <ele>1017.1</ele>
        <time>2023-05-16T08:58:53.964Z</time>
      </trkpt>
      <trkpt lat="44.88873" lon="5.65408">
        <ele>1017.4</ele>
        <time>2023-05-16T08:58:55.671Z</time>
      </trkpt>
      <trkpt lat="44.88872" lon="5.65412">
        <ele>1017.7</ele>
        <time>2023-05-16T08:58:57.157Z</time>
      </trkpt>
      <trkpt lat="44.88872" lon="5.65416">
        <ele>1018</ele>
        <time>2023-05-16T08:58:58.588Z</time>
      </trkpt>
      <trkpt lat="44.88871" lon="5.65421">
        <ele>1018.4</ele>
        <time>2023-05-16T08:59:00.465Z</time>
      </trkpt>
      <trkpt lat="44.88869" lon="5.65426">
        <ele>1018.5</ele>
        <time>2023-05-16T08:59:02.031Z</time>
      </trkpt>
      <trkpt lat="44.88866" lon="5.65428">
        <ele>1018.7</ele>
        <time>2023-05-16T08:59:03.465Z</time>
      </trkpt>
      <trkpt lat="44.88863" lon="5.65427">
        <ele>1018.9</ele>
        <time>2023-05-16T08:59:04.818Z</time>
      </trkpt>
      <trkpt lat="44.88861" lon="5.65425">
        <ele>1019.2</ele>
        <time>2023-05-16T08:59:06.131Z</time>
      </trkpt>
      <trkpt lat="44.88858" lon="5.65422">
        <ele>1019.5</ele>
        <time>2023-05-16T08:59:07.838Z</time>
      </trkpt>
      <trkpt lat="44.88855" lon="5.6542">
        <ele>1019.7</ele>
        <time>2023-05-16T08:59:09.272Z</time>
      </trkpt>
      <trkpt lat="44.88852" lon="5.65419">
        <ele>1020</ele>
        <time>2023-05-16T08:59:10.783Z</time>
      </trkpt>
      <trkpt lat="44.88849" lon="5.65418">
        <ele>1020.3</ele>
        <time>2023-05-16T08:59:12.294Z</time>
      </trkpt>
      <trkpt lat="44.88846" lon="5.65419">
        <ele>1020.6</ele>
        <time>2023-05-16T08:59:13.805Z</time>
      </trkpt>
      <trkpt lat="44.88845" lon="5.65423">
        <ele>1021.1</ele>
        <time>2023-05-16T08:59:15.697Z</time>
      </trkpt>
      <trkpt lat="44.88846" lon="5.65427">
        <ele>1021.3</ele>
        <time>2023-05-16T08:59:17.024Z</time>
      </trkpt>
      <trkpt lat="44.88844" lon="5.65431">
        <ele>1021.6</ele>
        <time>2023-05-16T08:59:18.662Z</time>
      </trkpt>
      <trkpt lat="44.88842" lon="5.65433">
        <ele>1021.9</ele>
        <time>2023-05-16T08:59:19.974Z</time>
      </trkpt>
      <trkpt lat="44.8884" lon="5.65437">
        <ele>1022.5</ele>
        <time>2023-05-16T08:59:22.214Z</time>
      </trkpt>
      <trkpt lat="44.88838" lon="5.65441">
        <ele>1022.7</ele>
        <time>2023-05-16T08:59:23.700Z</time>
      </trkpt>
      <trkpt lat="44.88835" lon="5.65444">
        <ele>1022.9</ele>
        <time>2023-05-16T08:59:25.258Z</time>
      </trkpt>
      <trkpt lat="44.88835" lon="5.6544">
        <ele>1023.1</ele>
        <time>2023-05-16T08:59:26.526Z</time>
      </trkpt>
      <trkpt lat="44.88833" lon="5.65435">
        <ele>1023.5</ele>
        <time>2023-05-16T08:59:28.527Z</time>
      </trkpt>
      <trkpt lat="44.88831" lon="5.65433">
        <ele>1023.8</ele>
        <time>2023-05-16T08:59:29.840Z</time>
      </trkpt>
      <trkpt lat="44.88829" lon="5.6543">
        <ele>1024</ele>
        <time>2023-05-16T08:59:31.136Z</time>
      </trkpt>
      <trkpt lat="44.88826" lon="5.65427">
        <ele>1024.5</ele>
        <time>2023-05-16T08:59:33.205Z</time>
      </trkpt>
      <trkpt lat="44.88823" lon="5.65426">
        <ele>1024.8</ele>
        <time>2023-05-16T08:59:34.716Z</time>
      </trkpt>
      <trkpt lat="44.88821" lon="5.65426">
        <ele>1025.1</ele>
        <time>2023-05-16T08:59:35.900Z</time>
      </trkpt>
      <trkpt lat="44.88818" lon="5.65425">
        <ele>1025.3</ele>
        <time>2023-05-16T08:59:37.253Z</time>
      </trkpt>
      <trkpt lat="44.88815" lon="5.65426">
        <ele>1025.5</ele>
        <time>2023-05-16T08:59:38.606Z</time>
      </trkpt>
      <trkpt lat="44.88815" lon="5.65431">
        <ele>1025.8</ele>
        <time>2023-05-16T08:59:40.268Z</time>
      </trkpt>
      <trkpt lat="44.88817" lon="5.65435">
        <ele>1026.1</ele>
        <time>2023-05-16T08:59:41.906Z</time>
      </trkpt>
      <trkpt lat="44.88817" lon="5.6544">
        <ele>1026.4</ele>
        <time>2023-05-16T08:59:43.569Z</time>
      </trkpt>
      <trkpt lat="44.88816" lon="5.65445">
        <ele>1026.7</ele>
        <time>2023-05-16T08:59:45.277Z</time>
      </trkpt>
      <trkpt lat="44.88813" lon="5.65449">
        <ele>1027</ele>
        <time>2023-05-16T08:59:47.137Z</time>
      </trkpt>
      <trkpt lat="44.88809" lon="5.65453">
        <ele>1027.5</ele>
        <time>2023-05-16T08:59:49.579Z</time>
      </trkpt>
      <trkpt lat="44.88806" lon="5.65455">
        <ele>1027.9</ele>
        <time>2023-05-16T08:59:51.344Z</time>
      </trkpt>
      <trkpt lat="44.88803" lon="5.65457">
        <ele>1028.1</ele>
        <time>2023-05-16T08:59:52.778Z</time>
      </trkpt>
      <trkpt lat="44.888" lon="5.65459">
        <ele>1028.4</ele>
        <time>2023-05-16T08:59:54.366Z</time>
      </trkpt>
      <trkpt lat="44.88797" lon="5.65461">
        <ele>1028.8</ele>
        <time>2023-05-16T08:59:56.131Z</time>
      </trkpt>
      <trkpt lat="44.88794" lon="5.65463">
        <ele>1029.2</ele>
        <time>2023-05-16T08:59:57.897Z</time>
      </trkpt>
      <trkpt lat="44.88791" lon="5.65465">
        <ele>1029.6</ele>
        <time>2023-05-16T08:59:59.662Z</time>
      </trkpt>
      <trkpt lat="44.88788" lon="5.65468">
        <ele>1029.6</ele>
        <time>2023-05-16T09:00:00.972Z</time>
      </trkpt>
      <trkpt lat="44.88784" lon="5.65472">
        <ele>1029.6</ele>
        <time>2023-05-16T09:00:02.720Z</time>
      </trkpt>
      <trkpt lat="44.88782" lon="5.65475">
        <ele>1029.5</ele>
        <time>2023-05-16T09:00:03.658Z</time>
      </trkpt>
      <trkpt lat="44.8878" lon="5.65478">
        <ele>1029.8</ele>
        <time>2023-05-16T09:00:05.116Z</time>
      </trkpt>
      <trkpt lat="44.88777" lon="5.65482">
        <ele>1029.7</ele>
        <time>2023-05-16T09:00:06.483Z</time>
      </trkpt>
      <trkpt lat="44.88774" lon="5.65484">
        <ele>1029.6</ele>
        <time>2023-05-16T09:00:07.563Z</time>
      </trkpt>
      <trkpt lat="44.88771" lon="5.65487">
        <ele>1029.2</ele>
        <time>2023-05-16T09:00:08.710Z</time>
      </trkpt>
      <trkpt lat="44.8877" lon="5.65491">
        <ele>1029.4</ele>
        <time>2023-05-16T09:00:10.036Z</time>
      </trkpt>
      <trkpt lat="44.8877" lon="5.65495">
        <ele>1028.9</ele>
        <time>2023-05-16T09:00:10.920Z</time>
      </trkpt>
      <trkpt lat="44.88773" lon="5.65494">
        <ele>1028.5</ele>
        <time>2023-05-16T09:00:11.881Z</time>
      </trkpt>
      <trkpt lat="44.88768" lon="5.65492">
        <ele>1029</ele>
        <time>2023-05-16T09:00:14.419Z</time>
      </trkpt>
      <trkpt lat="44.88768" lon="5.65501">
        <ele>1028.2</ele>
        <time>2023-05-16T09:00:16.408Z</time>
      </trkpt>
      <trkpt lat="44.88765" lon="5.655">
        <ele>1028.2</ele>
        <time>2023-05-16T09:00:17.506Z</time>
      </trkpt>
      <trkpt lat="44.88762" lon="5.65499">
        <ele>1028.6</ele>
        <time>2023-05-16T09:00:19.202Z</time>
      </trkpt>
      <trkpt lat="44.88765" lon="5.65493">
        <ele>1028.5</ele>
        <time>2023-05-16T09:00:20.951Z</time>
      </trkpt>
      <trkpt lat="44.88769" lon="5.65493">
        <ele>1028.2</ele>
        <time>2023-05-16T09:00:22.199Z</time>
      </trkpt>
      <trkpt lat="44.88768" lon="5.65496">
        <ele>1028</ele>
        <time>2023-05-16T09:00:22.931Z</time>
      </trkpt>
      <trkpt lat="44.88774" lon="5.65495">
        <ele>1027.6</ele>
        <time>2023-05-16T09:00:24.816Z</time>
      </trkpt>
      <trkpt lat="44.88777" lon="5.65495">
        <ele>1027.1</ele>
        <time>2023-05-16T09:00:25.751Z</time>
      </trkpt>
      <trkpt lat="44.88768" lon="5.65501">
        <ele>1027.3</ele>
        <time>2023-05-16T09:00:29.529Z</time>
      </trkpt>
      <trkpt lat="44.88765" lon="5.65505">
        <ele>1027</ele>
        <time>2023-05-16T09:00:30.816Z</time>
      </trkpt>
      <trkpt lat="44.88762" lon="5.65508">
        <ele>1027</ele>
        <time>2023-05-16T09:00:32.126Z</time>
      </trkpt>
      <trkpt lat="44.8876" lon="5.65511">
        <ele>1026.5</ele>
        <time>2023-05-16T09:00:33.037Z</time>
      </trkpt>
      <trkpt lat="44.88758" lon="5.65513">
        <ele>1026.2</ele>
        <time>2023-05-16T09:00:33.801Z</time>
      </trkpt>
      <trkpt lat="44.88755" lon="5.65516">
        <ele>1026.2</ele>
        <time>2023-05-16T09:00:35.112Z</time>
      </trkpt>
      <trkpt lat="44.88752" lon="5.6552">
        <ele>1025.8</ele>
        <time>2023-05-16T09:00:36.399Z</time>
      </trkpt>
      <trkpt lat="44.88744" lon="5.6553">
        <ele>1025.5</ele>
        <time>2023-05-16T09:00:39.898Z</time>
      </trkpt>
      <trkpt lat="44.88737" lon="5.65535">
        <ele>1024.9</ele>
        <time>2023-05-16T09:00:42.345Z</time>
      </trkpt>
      <trkpt lat="44.88733" lon="5.65539">
        <ele>1024.4</ele>
        <time>2023-05-16T09:00:43.874Z</time>
      </trkpt>
      <trkpt lat="44.88729" lon="5.65545">
        <ele>1023.7</ele>
        <time>2023-05-16T09:00:45.694Z</time>
      </trkpt>
      <trkpt lat="44.88723" lon="5.65551">
        <ele>1022.6</ele>
        <time>2023-05-16T09:00:47.988Z</time>
      </trkpt>
      <trkpt lat="44.88718" lon="5.65555">
        <ele>1021.4</ele>
        <time>2023-05-16T09:00:49.780Z</time>
      </trkpt>
      <trkpt lat="44.88714" lon="5.6556">
        <ele>1020.4</ele>
        <time>2023-05-16T09:00:51.447Z</time>
      </trkpt>
      <trkpt lat="44.8871" lon="5.65565">
        <ele>1018.6</ele>
        <time>2023-05-16T09:00:53.113Z</time>
      </trkpt>
      <trkpt lat="44.88706" lon="5.6557">
        <ele>1017.6</ele>
        <time>2023-05-16T09:00:54.780Z</time>
      </trkpt>
      <trkpt lat="44.88698" lon="5.65574">
        <ele>1016</ele>
        <time>2023-05-16T09:00:57.427Z</time>
      </trkpt>
      <trkpt lat="44.88694" lon="5.65576">
        <ele>1015.6</ele>
        <time>2023-05-16T09:00:58.751Z</time>
      </trkpt>
      <trkpt lat="44.8869" lon="5.6558">
        <ele>1014.7</ele>
        <time>2023-05-16T09:01:00.280Z</time>
      </trkpt>
      <trkpt lat="44.88683" lon="5.65585">
        <ele>1013.7</ele>
        <time>2023-05-16T09:01:02.727Z</time>
      </trkpt>
      <trkpt lat="44.88678" lon="5.65589">
        <ele>1012.8</ele>
        <time>2023-05-16T09:01:04.519Z</time>
      </trkpt>
      <trkpt lat="44.88673" lon="5.65592">
        <ele>1012</ele>
        <time>2023-05-16T09:01:06.214Z</time>
      </trkpt>
      <trkpt lat="44.88668" lon="5.65599">
        <ele>1010.9</ele>
        <time>2023-05-16T09:01:08.410Z</time>
      </trkpt>
      <trkpt lat="44.88664" lon="5.65606">
        <ele>1010.2</ele>
        <time>2023-05-16T09:01:10.398Z</time>
      </trkpt>
      <trkpt lat="44.88659" lon="5.65615">
        <ele>1009</ele>
        <time>2023-05-16T09:01:12.925Z</time>
      </trkpt>
      <trkpt lat="44.88655" lon="5.65621">
        <ele>1008.1</ele>
        <time>2023-05-16T09:01:14.746Z</time>
      </trkpt>
      <trkpt lat="44.88651" lon="5.65628">
        <ele>1007.6</ele>
        <time>2023-05-16T09:01:16.733Z</time>
      </trkpt>
      <trkpt lat="44.88646" lon="5.65633">
        <ele>1006.6</ele>
        <time>2023-05-16T09:01:18.644Z</time>
      </trkpt>
      <trkpt lat="44.88641" lon="5.65638">
        <ele>1006</ele>
        <time>2023-05-16T09:01:20.555Z</time>
      </trkpt>
      <trkpt lat="44.88636" lon="5.65643">
        <ele>1005.4</ele>
        <time>2023-05-16T09:01:22.467Z</time>
      </trkpt>
      <trkpt lat="44.88632" lon="5.65647">
        <ele>1004.8</ele>
        <time>2023-05-16T09:01:23.996Z</time>
      </trkpt>
      <trkpt lat="44.88629" lon="5.65653">
        <ele>1004.2</ele>
        <time>2023-05-16T09:01:25.618Z</time>
      </trkpt>
      <trkpt lat="44.88625" lon="5.65658">
        <ele>1003.7</ele>
        <time>2023-05-16T09:01:27.285Z</time>
      </trkpt>
      <trkpt lat="44.8862" lon="5.65662">
        <ele>1003.2</ele>
        <time>2023-05-16T09:01:29.078Z</time>
      </trkpt>
      <trkpt lat="44.88616" lon="5.65665">
        <ele>1002.6</ele>
        <time>2023-05-16T09:01:30.490Z</time>
      </trkpt>
      <trkpt lat="44.88613" lon="5.65669">
        <ele>1002</ele>
        <time>2023-05-16T09:01:31.778Z</time>
      </trkpt>
      <trkpt lat="44.88608" lon="5.65674">
        <ele>1001.4</ele>
        <time>2023-05-16T09:01:33.689Z</time>
      </trkpt>
      <trkpt lat="44.88604" lon="5.65677">
        <ele>1000.6</ele>
        <time>2023-05-16T09:01:35.102Z</time>
      </trkpt>
      <trkpt lat="44.88599" lon="5.65681">
        <ele>999.9</ele>
        <time>2023-05-16T09:01:36.894Z</time>
      </trkpt>
      <trkpt lat="44.88597" lon="5.65687">
        <ele>999.1</ele>
        <time>2023-05-16T09:01:38.359Z</time>
      </trkpt>
      <trkpt lat="44.88594" lon="5.65692">
        <ele>998.3</ele>
        <time>2023-05-16T09:01:39.807Z</time>
      </trkpt>
      <trkpt lat="44.88589" lon="5.65697">
        <ele>997.4</ele>
        <time>2023-05-16T09:01:41.719Z</time>
      </trkpt>
      <trkpt lat="44.88586" lon="5.65705">
        <ele>995.8</ele>
        <time>2023-05-16T09:01:43.719Z</time>
      </trkpt>
      <trkpt lat="44.88583" lon="5.6571">
        <ele>994.2</ele>
        <time>2023-05-16T09:01:45.167Z</time>
      </trkpt>
      <trkpt lat="44.8858" lon="5.65713">
        <ele>994</ele>
        <time>2023-05-16T09:01:46.313Z</time>
      </trkpt>
      <trkpt lat="44.88577" lon="5.65715">
        <ele>993.1</ele>
        <time>2023-05-16T09:01:47.348Z</time>
      </trkpt>
      <trkpt lat="44.88574" lon="5.65719">
        <ele>992.9</ele>
        <time>2023-05-16T09:01:48.636Z</time>
      </trkpt>
      <trkpt lat="44.88571" lon="5.65722">
        <ele>991.9</ele>
        <time>2023-05-16T09:01:49.782Z</time>
      </trkpt>
      <trkpt lat="44.88569" lon="5.65726">
        <ele>990.9</ele>
        <time>2023-05-16T09:01:50.864Z</time>
      </trkpt>
      <trkpt lat="44.88563" lon="5.65733">
        <ele>989</ele>
        <time>2023-05-16T09:01:53.292Z</time>
      </trkpt>
      <trkpt lat="44.88559" lon="5.65736">
        <ele>988</ele>
        <time>2023-05-16T09:01:54.705Z</time>
      </trkpt>
      <trkpt lat="44.8855" lon="5.65744">
        <ele>986.6</ele>
        <time>2023-05-16T09:01:58.022Z</time>
      </trkpt>
      <trkpt lat="44.88536" lon="5.65752">
        <ele>983.9</ele>
        <time>2023-05-16T09:02:02.733Z</time>
      </trkpt>
      <trkpt lat="44.8853" lon="5.65755">
        <ele>983.8</ele>
        <time>2023-05-16T09:02:04.896Z</time>
      </trkpt>
      <trkpt lat="44.88528" lon="5.65764">
        <ele>983.3</ele>
        <time>2023-05-16T09:02:06.981Z</time>
      </trkpt>
      <trkpt lat="44.88525" lon="5.65766">
        <ele>982.8</ele>
        <time>2023-05-16T09:02:08.015Z</time>
      </trkpt>
      <trkpt lat="44.88521" lon="5.65769">
        <ele>982</ele>
        <time>2023-05-16T09:02:09.428Z</time>
      </trkpt>
      <trkpt lat="44.88517" lon="5.65769">
        <ele>981.2</ele>
        <time>2023-05-16T09:02:10.676Z</time>
      </trkpt>
      <trkpt lat="44.88514" lon="5.65772">
        <ele>980.3</ele>
        <time>2023-05-16T09:02:11.823Z</time>
      </trkpt>
      <trkpt lat="44.88511" lon="5.65775">
        <ele>979.6</ele>
        <time>2023-05-16T09:02:12.969Z</time>
      </trkpt>
      <trkpt lat="44.88508" lon="5.65777">
        <ele>979</ele>
        <time>2023-05-16T09:02:14.004Z</time>
      </trkpt>
      <trkpt lat="44.88504" lon="5.6578">
        <ele>978.1</ele>
        <time>2023-05-16T09:02:15.417Z</time>
      </trkpt>
      <trkpt lat="44.885" lon="5.65781">
        <ele>977</ele>
        <time>2023-05-16T09:02:16.684Z</time>
      </trkpt>
      <trkpt lat="44.88497" lon="5.6578">
        <ele>976</ele>
        <time>2023-05-16T09:02:17.645Z</time>
      </trkpt>
      <trkpt lat="44.88493" lon="5.65781">
        <ele>975</ele>
        <time>2023-05-16T09:02:18.912Z</time>
      </trkpt>
      <trkpt lat="44.8849" lon="5.65787">
        <ele>973.9</ele>
        <time>2023-05-16T09:02:20.535Z</time>
      </trkpt>
      <trkpt lat="44.88488" lon="5.65791">
        <ele>973.2</ele>
        <time>2023-05-16T09:02:21.617Z</time>
      </trkpt>
      <trkpt lat="44.88488" lon="5.65796">
        <ele>972.5</ele>
        <time>2023-05-16T09:02:22.722Z</time>
      </trkpt>
      <trkpt lat="44.88487" lon="5.65802">
        <ele>971.7</ele>
        <time>2023-05-16T09:02:24.084Z</time>
      </trkpt>
      <trkpt lat="44.88487" lon="5.65809">
        <ele>970.6</ele>
        <time>2023-05-16T09:02:25.631Z</time>
      </trkpt>
      <trkpt lat="44.88483" lon="5.65816">
        <ele>969.1</ele>
        <time>2023-05-16T09:02:27.618Z</time>
      </trkpt>
      <trkpt lat="44.88481" lon="5.65821">
        <ele>968.3</ele>
        <time>2023-05-16T09:02:28.887Z</time>
      </trkpt>
      <trkpt lat="44.88478" lon="5.65826">
        <ele>967.6</ele>
        <time>2023-05-16T09:02:30.335Z</time>
      </trkpt>
      <trkpt lat="44.88475" lon="5.65829">
        <ele>967.1</ele>
        <time>2023-05-16T09:02:31.482Z</time>
      </trkpt>
      <trkpt lat="44.88472" lon="5.65833">
        <ele>966.4</ele>
        <time>2023-05-16T09:02:32.769Z</time>
      </trkpt>
      <trkpt lat="44.88467" lon="5.65838">
        <ele>965.6</ele>
        <time>2023-05-16T09:02:34.680Z</time>
      </trkpt>
      <trkpt lat="44.88462" lon="5.65844">
        <ele>964.6</ele>
        <time>2023-05-16T09:02:36.727Z</time>
      </trkpt>
      <trkpt lat="44.88458" lon="5.65853">
        <ele>963.5</ele>
        <time>2023-05-16T09:02:39.075Z</time>
      </trkpt>
      <trkpt lat="44.88452" lon="5.65861">
        <ele>962.5</ele>
        <time>2023-05-16T09:02:41.650Z</time>
      </trkpt>
      <trkpt lat="44.88447" lon="5.65866">
        <ele>961.5</ele>
        <time>2023-05-16T09:02:43.561Z</time>
      </trkpt>
      <trkpt lat="44.88441" lon="5.65874">
        <ele>960.5</ele>
        <time>2023-05-16T09:02:46.135Z</time>
      </trkpt>
      <trkpt lat="44.88436" lon="5.6588">
        <ele>959.4</ele>
        <time>2023-05-16T09:02:48.182Z</time>
      </trkpt>
      <trkpt lat="44.88433" lon="5.65889">
        <ele>958.2</ele>
        <time>2023-05-16T09:02:50.380Z</time>
      </trkpt>
      <trkpt lat="44.88428" lon="5.65898">
        <ele>956.9</ele>
        <time>2023-05-16T09:02:52.908Z</time>
      </trkpt>
      <trkpt lat="44.88423" lon="5.65908">
        <ele>955.5</ele>
        <time>2023-05-16T09:02:55.613Z</time>
      </trkpt>
      <trkpt lat="44.88419" lon="5.65915">
        <ele>954.6</ele>
        <time>2023-05-16T09:02:57.600Z</time>
      </trkpt>
      <trkpt lat="44.88417" lon="5.65921">
        <ele>954</ele>
        <time>2023-05-16T09:02:59.065Z</time>
      </trkpt>
      <trkpt lat="44.8842" lon="5.65915">
        <ele>954</ele>
        <time>2023-05-16T09:03:00.920Z</time>
      </trkpt>
      <trkpt lat="44.88423" lon="5.65918">
        <ele>954</ele>
        <time>2023-05-16T09:03:02.231Z</time>
      </trkpt>
      <trkpt lat="44.88425" lon="5.65925">
        <ele>954</ele>
        <time>2023-05-16T09:03:04.137Z</time>
      </trkpt>
      <trkpt lat="44.88427" lon="5.65932">
        <ele>954</ele>
        <time>2023-05-16T09:03:06.043Z</time>
      </trkpt>
      <trkpt lat="44.88428" lon="5.65939">
        <ele>954</ele>
        <time>2023-05-16T09:03:07.847Z</time>
      </trkpt>
      <trkpt lat="44.8843" lon="5.6595">
        <ele>954</ele>
        <time>2023-05-16T09:03:10.715Z</time>
      </trkpt>
      <trkpt lat="44.88432" lon="5.6596">
        <ele>952</ele>
        <time>2023-05-16T09:03:13.011Z</time>
      </trkpt>
      <trkpt lat="44.88437" lon="5.65967">
        <ele>950.6</ele>
        <time>2023-05-16T09:03:15.208Z</time>
      </trkpt>
      <trkpt lat="44.88441" lon="5.65974">
        <ele>948.7</ele>
        <time>2023-05-16T09:03:17.195Z</time>
      </trkpt>
      <trkpt lat="44.88445" lon="5.65981">
        <ele>946.7</ele>
        <time>2023-05-16T09:03:19.182Z</time>
      </trkpt>
      <trkpt lat="44.88449" lon="5.65986">
        <ele>944.7</ele>
        <time>2023-05-16T09:03:20.849Z</time>
      </trkpt>
      <trkpt lat="44.88457" lon="5.65989">
        <ele>943.4</ele>
        <time>2023-05-16T09:03:23.431Z</time>
      </trkpt>
      <trkpt lat="44.88462" lon="5.65989">
        <ele>942.1</ele>
        <time>2023-05-16T09:03:24.990Z</time>
      </trkpt>
      <trkpt lat="44.88475" lon="5.65989">
        <ele>939.2</ele>
        <time>2023-05-16T09:03:29.045Z</time>
      </trkpt>
      <trkpt lat="44.88484" lon="5.65989">
        <ele>935.9</ele>
        <time>2023-05-16T09:03:31.852Z</time>
      </trkpt>
      <trkpt lat="44.8849" lon="5.6599">
        <ele>934.3</ele>
        <time>2023-05-16T09:03:33.736Z</time>
      </trkpt>
      <trkpt lat="44.88498" lon="5.65992">
        <ele>932.5</ele>
        <time>2023-05-16T09:03:36.270Z</time>
      </trkpt>
      <trkpt lat="44.88502" lon="5.65992">
        <ele>930.7</ele>
        <time>2023-05-16T09:03:37.518Z</time>
      </trkpt>
      <trkpt lat="44.88505" lon="5.65991">
        <ele>929.7</ele>
        <time>2023-05-16T09:03:38.479Z</time>
      </trkpt>
      <trkpt lat="44.88508" lon="5.65994">
        <ele>927.6</ele>
        <time>2023-05-16T09:03:39.626Z</time>
      </trkpt>
      <trkpt lat="44.88511" lon="5.65993">
        <ele>927.7</ele>
        <time>2023-05-16T09:03:40.843Z</time>
      </trkpt>
      <trkpt lat="44.88516" lon="5.65993">
        <ele>926</ele>
        <time>2023-05-16T09:03:42.402Z</time>
      </trkpt>
      <trkpt lat="44.88523" lon="5.65992">
        <ele>924.3</ele>
        <time>2023-05-16T09:03:44.597Z</time>
      </trkpt>
      <trkpt lat="44.88531" lon="5.65991">
        <ele>921.7</ele>
        <time>2023-05-16T09:03:47.102Z</time>
      </trkpt>
      <trkpt lat="44.88539" lon="5.6599">
        <ele>919.9</ele>
        <time>2023-05-16T09:03:49.607Z</time>
      </trkpt>
      <trkpt lat="44.88548" lon="5.65988">
        <ele>918.8</ele>
        <time>2023-05-16T09:03:52.448Z</time>
      </trkpt>
      <trkpt lat="44.88555" lon="5.65988">
        <ele>917.1</ele>
        <time>2023-05-16T09:03:54.632Z</time>
      </trkpt>
      <trkpt lat="44.88562" lon="5.65989">
        <ele>914.7</ele>
        <time>2023-05-16T09:03:56.826Z</time>
      </trkpt>
      <trkpt lat="44.88569" lon="5.65989">
        <ele>912.1</ele>
        <time>2023-05-16T09:03:59.009Z</time>
      </trkpt>
      <trkpt lat="44.88574" lon="5.65988">
        <ele>911.9</ele>
        <time>2023-05-16T09:04:00.608Z</time>
      </trkpt>
      <trkpt lat="44.88579" lon="5.65988">
        <ele>911</ele>
        <time>2023-05-16T09:04:02.167Z</time>
      </trkpt>
      <trkpt lat="44.88583" lon="5.65989">
        <ele>908.4</ele>
        <time>2023-05-16T09:04:03.434Z</time>
      </trkpt>
      <trkpt lat="44.8859" lon="5.65991">
        <ele>907.1</ele>
        <time>2023-05-16T09:04:05.662Z</time>
      </trkpt>
      <trkpt lat="44.88597" lon="5.65989">
        <ele>907.1</ele>
        <time>2023-05-16T09:04:08.207Z</time>
      </trkpt>
      <trkpt lat="44.88605" lon="5.65989">
        <ele>905.6</ele>
        <time>2023-05-16T09:04:10.703Z</time>
      </trkpt>
      <trkpt lat="44.88612" lon="5.65988">
        <ele>904.6</ele>
        <time>2023-05-16T09:04:12.897Z</time>
      </trkpt>
      <trkpt lat="44.88619" lon="5.65988">
        <ele>903</ele>
        <time>2023-05-16T09:04:15.080Z</time>
      </trkpt>
      <trkpt lat="44.88626" lon="5.65988">
        <ele>902</ele>
        <time>2023-05-16T09:04:17.264Z</time>
      </trkpt>
      <trkpt lat="44.88634" lon="5.65987">
        <ele>900.9</ele>
        <time>2023-05-16T09:04:19.769Z</time>
      </trkpt>
      <trkpt lat="44.88638" lon="5.65985">
        <ele>900.7</ele>
        <time>2023-05-16T09:04:21.092Z</time>
      </trkpt>
      <trkpt lat="44.88643" lon="5.65982">
        <ele>899.8</ele>
        <time>2023-05-16T09:04:22.787Z</time>
      </trkpt>
      <trkpt lat="44.88647" lon="5.65981">
        <ele>898.4</ele>
        <time>2023-05-16T09:04:24.054Z</time>
      </trkpt>
      <trkpt lat="44.88654" lon="5.65976">
        <ele>899.3</ele>
        <time>2023-05-16T09:04:28.142Z</time>
      </trkpt>
      <trkpt lat="44.88659" lon="5.65972">
        <ele>899.7</ele>
        <time>2023-05-16T09:04:30.704Z</time>
      </trkpt>
      <trkpt lat="44.88663" lon="5.65968">
        <ele>898.2</ele>
        <time>2023-05-16T09:04:32.233Z</time>
      </trkpt>
      <trkpt lat="44.88668" lon="5.65965">
        <ele>898.3</ele>
        <time>2023-05-16T09:04:34.284Z</time>
      </trkpt>
      <trkpt lat="44.88675" lon="5.65961">
        <ele>897.2</ele>
        <time>2023-05-16T09:04:36.640Z</time>
      </trkpt>
      <trkpt lat="44.88682" lon="5.65959">
        <ele>895.8</ele>
        <time>2023-05-16T09:04:38.867Z</time>
      </trkpt>
      <trkpt lat="44.88689" lon="5.65955">
        <ele>894.9</ele>
        <time>2023-05-16T09:04:41.223Z</time>
      </trkpt>
      <trkpt lat="44.88692" lon="5.65952">
        <ele>895.7</ele>
        <time>2023-05-16T09:04:44.047Z</time>
      </trkpt>
      <trkpt lat="44.88701" lon="5.6595">
        <ele>894.3</ele>
        <time>2023-05-16T09:04:46.889Z</time>
      </trkpt>
      <trkpt lat="44.88709" lon="5.65947">
        <ele>891</ele>
        <time>2023-05-16T09:04:49.470Z</time>
      </trkpt>
      <trkpt lat="44.88717" lon="5.65943">
        <ele>888.7</ele>
        <time>2023-05-16T09:04:52.117Z</time>
      </trkpt>
      <trkpt lat="44.88724" lon="5.65941">
        <ele>887</ele>
        <time>2023-05-16T09:04:54.345Z</time>
      </trkpt>
      <trkpt lat="44.88729" lon="5.65938">
        <ele>884.1</ele>
        <time>2023-05-16T09:04:56.040Z</time>
      </trkpt>
      <trkpt lat="44.88736" lon="5.65939">
        <ele>881.6</ele>
        <time>2023-05-16T09:04:58.234Z</time>
      </trkpt>
      <trkpt lat="44.88744" lon="5.65938">
        <ele>879.1</ele>
        <time>2023-05-16T09:05:00.739Z</time>
      </trkpt>
      <trkpt lat="44.88751" lon="5.65936">
        <ele>877.6</ele>
        <time>2023-05-16T09:05:02.967Z</time>
      </trkpt>
      <trkpt lat="44.88756" lon="5.65935">
        <ele>877.7</ele>
        <time>2023-05-16T09:05:04.881Z</time>
      </trkpt>
      <trkpt lat="44.88761" lon="5.65935">
        <ele>877.3</ele>
        <time>2023-05-16T09:05:06.441Z</time>
      </trkpt>
      <trkpt lat="44.88765" lon="5.65932">
        <ele>876.8</ele>
        <time>2023-05-16T09:05:07.854Z</time>
      </trkpt>
      <trkpt lat="44.88769" lon="5.65932">
        <ele>875.8</ele>
        <time>2023-05-16T09:05:09.101Z</time>
      </trkpt>
      <trkpt lat="44.88774" lon="5.65934">
        <ele>874.4</ele>
        <time>2023-05-16T09:05:10.722Z</time>
      </trkpt>
      <trkpt lat="44.88777" lon="5.65934">
        <ele>873.6</ele>
        <time>2023-05-16T09:05:11.658Z</time>
      </trkpt>
      <trkpt lat="44.8878" lon="5.65934">
        <ele>873.5</ele>
        <time>2023-05-16T09:05:12.625Z</time>
      </trkpt>
      <trkpt lat="44.88778" lon="5.65938">
        <ele>873.7</ele>
        <time>2023-05-16T09:05:14.111Z</time>
      </trkpt>
      <trkpt lat="44.88774" lon="5.65939">
        <ele>874.9</ele>
        <time>2023-05-16T09:05:18.403Z</time>
      </trkpt>
      <trkpt lat="44.88772" lon="5.65939">
        <ele>875.9</ele>
        <time>2023-05-16T09:05:22.146Z</time>
      </trkpt>
      <trkpt lat="44.88769" lon="5.65941">
        <ele>876.7</ele>
        <time>2023-05-16T09:05:24.948Z</time>
      </trkpt>
      <trkpt lat="44.88765" lon="5.65944">
        <ele>877.3</ele>
        <time>2023-05-16T09:05:27.463Z</time>
      </trkpt>
      <trkpt lat="44.88762" lon="5.65947">
        <ele>877.7</ele>
        <time>2023-05-16T09:05:29.339Z</time>
      </trkpt>
      <trkpt lat="44.8876" lon="5.65951">
        <ele>877.7</ele>
        <time>2023-05-16T09:05:30.576Z</time>
      </trkpt>
      <trkpt lat="44.88757" lon="5.65955">
        <ele>877.6</ele>
        <time>2023-05-16T09:05:31.943Z</time>
      </trkpt>
      <trkpt lat="44.88753" lon="5.65959">
        <ele>879</ele>
        <time>2023-05-16T09:05:36.915Z</time>
      </trkpt>
      <trkpt lat="44.88751" lon="5.65963">
        <ele>880.2</ele>
        <time>2023-05-16T09:05:41.437Z</time>
      </trkpt>
      <trkpt lat="44.88748" lon="5.65967">
        <ele>880.6</ele>
        <time>2023-05-16T09:05:43.457Z</time>
      </trkpt>
      <trkpt lat="44.88744" lon="5.6597">
        <ele>880.8</ele>
        <time>2023-05-16T09:05:45.314Z</time>
      </trkpt>
      <trkpt lat="44.88741" lon="5.65972">
        <ele>881.8</ele>
        <time>2023-05-16T09:05:48.909Z</time>
      </trkpt>
      <trkpt lat="44.88737" lon="5.65974">
        <ele>883</ele>
        <time>2023-05-16T09:05:53.163Z</time>
      </trkpt>
      <trkpt lat="44.88735" lon="5.65976">
        <ele>883.7</ele>
        <time>2023-05-16T09:05:55.649Z</time>
      </trkpt>
      <trkpt lat="44.88732" lon="5.65978">
        <ele>884.2</ele>
        <time>2023-05-16T09:05:57.619Z</time>
      </trkpt>
      <trkpt lat="44.88729" lon="5.6598">
        <ele>884.7</ele>
        <time>2023-05-16T09:05:59.589Z</time>
      </trkpt>
      <trkpt lat="44.88726" lon="5.65982">
        <ele>885.1</ele>
        <time>2023-05-16T09:06:01.354Z</time>
      </trkpt>
      <trkpt lat="44.88723" lon="5.65984">
        <ele>885.2</ele>
        <time>2023-05-16T09:06:02.654Z</time>
      </trkpt>
      <trkpt lat="44.88719" lon="5.65986">
        <ele>885.7</ele>
        <time>2023-05-16T09:06:04.890Z</time>
      </trkpt>
      <trkpt lat="44.88716" lon="5.65988">
        <ele>886.6</ele>
        <time>2023-05-16T09:06:08.061Z</time>
      </trkpt>
      <trkpt lat="44.88713" lon="5.65989">
        <ele>887.5</ele>
        <time>2023-05-16T09:06:11.271Z</time>
      </trkpt>
      <trkpt lat="44.88709" lon="5.65992">
        <ele>887.3</ele>
        <time>2023-05-16T09:06:12.686Z</time>
      </trkpt>
      <trkpt lat="44.88706" lon="5.65995">
        <ele>887</ele>
        <time>2023-05-16T09:06:13.833Z</time>
      </trkpt>
      <trkpt lat="44.88703" lon="5.65998">
        <ele>887.9</ele>
        <time>2023-05-16T09:06:16.984Z</time>
      </trkpt>
      <trkpt lat="44.88699" lon="5.66002">
        <ele>889</ele>
        <time>2023-05-16T09:06:20.853Z</time>
      </trkpt>
      <trkpt lat="44.88696" lon="5.66006">
        <ele>888.9</ele>
        <time>2023-05-16T09:06:22.220Z</time>
      </trkpt>
      <trkpt lat="44.88694" lon="5.66009">
        <ele>888.5</ele>
        <time>2023-05-16T09:06:23.130Z</time>
      </trkpt>
      <trkpt lat="44.88692" lon="5.66012">
        <ele>888.1</ele>
        <time>2023-05-16T09:06:24.041Z</time>
      </trkpt>
      <trkpt lat="44.88689" lon="5.66015">
        <ele>887.7</ele>
        <time>2023-05-16T09:06:25.187Z</time>
      </trkpt>
      <trkpt lat="44.88687" lon="5.66019">
        <ele>887.3</ele>
        <time>2023-05-16T09:06:26.269Z</time>
      </trkpt>
      <trkpt lat="44.88684" lon="5.66023">
        <ele>886.9</ele>
        <time>2023-05-16T09:06:27.556Z</time>
      </trkpt>
      <trkpt lat="44.88681" lon="5.66029">
        <ele>886.7</ele>
        <time>2023-05-16T09:06:29.209Z</time>
      </trkpt>
      <trkpt lat="44.88679" lon="5.66032">
        <ele>886.3</ele>
        <time>2023-05-16T09:06:30.119Z</time>
      </trkpt>
      <trkpt lat="44.88677" lon="5.66036">
        <ele>885.4</ele>
        <time>2023-05-16T09:06:31.201Z</time>
      </trkpt>
      <trkpt lat="44.88675" lon="5.6604">
        <ele>884.3</ele>
        <time>2023-05-16T09:06:32.283Z</time>
      </trkpt>
      <trkpt lat="44.88673" lon="5.66045">
        <ele>883.7</ele>
        <time>2023-05-16T09:06:33.552Z</time>
      </trkpt>
      <trkpt lat="44.8867" lon="5.66051">
        <ele>883.3</ele>
        <time>2023-05-16T09:06:35.174Z</time>
      </trkpt>
      <trkpt lat="44.88667" lon="5.66056">
        <ele>882.1</ele>
        <time>2023-05-16T09:06:36.622Z</time>
      </trkpt>
      <trkpt lat="44.88665" lon="5.66059">
        <ele>881.4</ele>
        <time>2023-05-16T09:06:37.533Z</time>
      </trkpt>
      <trkpt lat="44.88663" lon="5.66063">
        <ele>880.7</ele>
        <time>2023-05-16T09:06:38.614Z</time>
      </trkpt>
      <trkpt lat="44.8866" lon="5.66066">
        <ele>880.5</ele>
        <time>2023-05-16T09:06:39.761Z</time>
      </trkpt>
      <trkpt lat="44.88657" lon="5.66069">
        <ele>880.2</ele>
        <time>2023-05-16T09:06:40.908Z</time>
      </trkpt>
      <trkpt lat="44.88654" lon="5.66071">
        <ele>879.4</ele>
        <time>2023-05-16T09:06:41.943Z</time>
      </trkpt>
      <trkpt lat="44.8865" lon="5.66073">
        <ele>878.3</ele>
        <time>2023-05-16T09:06:43.266Z</time>
      </trkpt>
      <trkpt lat="44.88646" lon="5.66074">
        <ele>878</ele>
        <time>2023-05-16T09:06:44.533Z</time>
      </trkpt>
      <trkpt lat="44.88643" lon="5.66076">
        <ele>878.5</ele>
        <time>2023-05-16T09:06:46.503Z</time>
      </trkpt>
      <trkpt lat="44.88639" lon="5.66078">
        <ele>878.9</ele>
        <time>2023-05-16T09:06:48.562Z</time>
      </trkpt>
      <trkpt lat="44.88635" lon="5.66079">
        <ele>878.8</ele>
        <time>2023-05-16T09:06:49.905Z</time>
      </trkpt>
      <trkpt lat="44.88631" lon="5.6608">
        <ele>878.7</ele>
        <time>2023-05-16T09:06:51.249Z</time>
      </trkpt>
      <trkpt lat="44.88626" lon="5.6608">
        <ele>879.5</ele>
        <time>2023-05-16T09:06:54.323Z</time>
      </trkpt>
      <trkpt lat="44.88622" lon="5.66081">
        <ele>880.2</ele>
        <time>2023-05-16T09:06:56.939Z</time>
      </trkpt>
      <trkpt lat="44.8861" lon="5.66083">
        <ele>880.4</ele>
        <time>2023-05-16T09:07:01.474Z</time>
      </trkpt>
      <trkpt lat="44.88607" lon="5.66084">
        <ele>880.6</ele>
        <time>2023-05-16T09:07:02.827Z</time>
      </trkpt>
      <trkpt lat="44.88603" lon="5.66084">
        <ele>880.8</ele>
        <time>2023-05-16T09:07:04.498Z</time>
      </trkpt>
      <trkpt lat="44.88599" lon="5.66084">
        <ele>881.5</ele>
        <time>2023-05-16T09:07:07.100Z</time>
      </trkpt>
      <trkpt lat="44.88594" lon="5.66085">
        <ele>882.5</ele>
        <time>2023-05-16T09:07:10.691Z</time>
      </trkpt>
      <trkpt lat="44.8859" lon="5.66087">
        <ele>882.8</ele>
        <time>2023-05-16T09:07:12.590Z</time>
      </trkpt>
      <trkpt lat="44.88587" lon="5.66088">
        <ele>883.1</ele>
        <time>2023-05-16T09:07:14.101Z</time>
      </trkpt>
      <trkpt lat="44.88584" lon="5.66089">
        <ele>883.6</ele>
        <time>2023-05-16T09:07:16.012Z</time>
      </trkpt>
      <trkpt lat="44.88578" lon="5.66096">
        <ele>884.6</ele>
        <time>2023-05-16T09:07:20.273Z</time>
      </trkpt>
      <trkpt lat="44.88576" lon="5.66099">
        <ele>885.3</ele>
        <time>2023-05-16T09:07:22.725Z</time>
      </trkpt>
      <trkpt lat="44.88571" lon="5.66103">
        <ele>886.5</ele>
        <time>2023-05-16T09:07:26.988Z</time>
      </trkpt>
      <trkpt lat="44.88568" lon="5.66107">
        <ele>887.2</ele>
        <time>2023-05-16T09:07:29.619Z</time>
      </trkpt>
      <trkpt lat="44.88567" lon="5.6611">
        <ele>887.8</ele>
        <time>2023-05-16T09:07:31.722Z</time>
      </trkpt>
      <trkpt lat="44.88564" lon="5.66113">
        <ele>888.1</ele>
        <time>2023-05-16T09:07:33.429Z</time>
      </trkpt>
      <trkpt lat="44.88563" lon="5.66116">
        <ele>888.1</ele>
        <time>2023-05-16T09:07:34.267Z</time>
      </trkpt>
      <trkpt lat="44.88562" lon="5.6612">
        <ele>888.2</ele>
        <time>2023-05-16T09:07:35.456Z</time>
      </trkpt>
      <trkpt lat="44.88559" lon="5.66121">
        <ele>888</ele>
        <time>2023-05-16T09:07:36.417Z</time>
      </trkpt>
      <trkpt lat="44.88557" lon="5.66126">
        <ele>887.7</ele>
        <time>2023-05-16T09:07:37.686Z</time>
      </trkpt>
      <trkpt lat="44.88554" lon="5.66131">
        <ele>887.4</ele>
        <time>2023-05-16T09:07:39.134Z</time>
      </trkpt>
      <trkpt lat="44.88553" lon="5.66136">
        <ele>887.2</ele>
        <time>2023-05-16T09:07:40.282Z</time>
      </trkpt>
      <trkpt lat="44.8855" lon="5.66142">
        <ele>887.1</ele>
        <time>2023-05-16T09:07:42.032Z</time>
      </trkpt>
      <trkpt lat="44.88547" lon="5.66147">
        <ele>887.7</ele>
        <time>2023-05-16T09:07:44.580Z</time>
      </trkpt>
      <trkpt lat="44.88543" lon="5.66152">
        <ele>888.6</ele>
        <time>2023-05-16T09:07:47.971Z</time>
      </trkpt>
      <trkpt lat="44.88541" lon="5.66155">
        <ele>889.5</ele>
        <time>2023-05-16T09:07:51.226Z</time>
      </trkpt>
      <trkpt lat="44.88538" lon="5.66158">
        <ele>890.3</ele>
        <time>2023-05-16T09:07:54.050Z</time>
      </trkpt>
      <trkpt lat="44.88535" lon="5.66161">
        <ele>891.1</ele>
        <time>2023-05-16T09:07:56.874Z</time>
      </trkpt>
      <trkpt lat="44.88532" lon="5.66164">
        <ele>891.9</ele>
        <time>2023-05-16T09:07:59.699Z</time>
      </trkpt>
      <trkpt lat="44.88528" lon="5.66171">
        <ele>893.2</ele>
        <time>2023-05-16T09:08:04.337Z</time>
      </trkpt>
      <trkpt lat="44.88527" lon="5.66174">
        <ele>893.9</ele>
        <time>2023-05-16T09:08:06.846Z</time>
      </trkpt>
      <trkpt lat="44.88525" lon="5.66179">
        <ele>894.2</ele>
        <time>2023-05-16T09:08:08.686Z</time>
      </trkpt>
      <trkpt lat="44.88524" lon="5.66184">
        <ele>894.4</ele>
        <time>2023-05-16T09:08:10.246Z</time>
      </trkpt>
      <trkpt lat="44.88522" lon="5.6619">
        <ele>895.4</ele>
        <time>2023-05-16T09:08:13.787Z</time>
      </trkpt>
      <trkpt lat="44.88521" lon="5.66196">
        <ele>896.4</ele>
        <time>2023-05-16T09:08:17.298Z</time>
      </trkpt>
      <trkpt lat="44.8852" lon="5.66201">
        <ele>896.9</ele>
        <time>2023-05-16T09:08:19.368Z</time>
      </trkpt>
      <trkpt lat="44.88518" lon="5.66208">
        <ele>897.3</ele>
        <time>2023-05-16T09:08:21.795Z</time>
      </trkpt>
      <trkpt lat="44.88516" lon="5.66214">
        <ele>897.8</ele>
        <time>2023-05-16T09:08:24.172Z</time>
      </trkpt>
      <trkpt lat="44.88515" lon="5.66217">
        <ele>898.4</ele>
        <time>2023-05-16T09:08:26.275Z</time>
      </trkpt>
      <trkpt lat="44.88513" lon="5.66221">
        <ele>899</ele>
        <time>2023-05-16T09:08:28.514Z</time>
      </trkpt>
      <trkpt lat="44.88511" lon="5.66225">
        <ele>898.9</ele>
        <time>2023-05-16T09:08:29.648Z</time>
      </trkpt>
      <trkpt lat="44.8851" lon="5.66229">
        <ele>898.8</ele>
        <time>2023-05-16T09:08:30.617Z</time>
      </trkpt>
      <trkpt lat="44.88508" lon="5.66233">
        <ele>898.7</ele>
        <time>2023-05-16T09:08:31.750Z</time>
      </trkpt>
      <trkpt lat="44.88506" lon="5.66237">
        <ele>898.6</ele>
        <time>2023-05-16T09:08:32.883Z</time>
      </trkpt>
      <trkpt lat="44.88505" lon="5.66241">
        <ele>898.5</ele>
        <time>2023-05-16T09:08:33.852Z</time>
      </trkpt>
      <trkpt lat="44.88504" lon="5.66247">
        <ele>898.5</ele>
        <time>2023-05-16T09:08:35.409Z</time>
      </trkpt>
      <trkpt lat="44.88503" lon="5.66252">
        <ele>898.5</ele>
        <time>2023-05-16T09:08:36.721Z</time>
      </trkpt>
      <trkpt lat="44.88503" lon="5.66256">
        <ele>898.4</ele>
        <time>2023-05-16T09:08:37.629Z</time>
      </trkpt>
      <trkpt lat="44.88504" lon="5.6626">
        <ele>897.8</ele>
        <time>2023-05-16T09:08:38.567Z</time>
      </trkpt>
      <trkpt lat="44.88503" lon="5.66265">
        <ele>897.2</ele>
        <time>2023-05-16T09:08:39.715Z</time>
      </trkpt>
      <trkpt lat="44.88501" lon="5.66268">
        <ele>897</ele>
        <time>2023-05-16T09:08:40.625Z</time>
      </trkpt>
      <trkpt lat="44.88499" lon="5.66272">
        <ele>896.9</ele>
        <time>2023-05-16T09:08:41.758Z</time>
      </trkpt>
      <trkpt lat="44.88497" lon="5.66275">
        <ele>896.8</ele>
        <time>2023-05-16T09:08:42.696Z</time>
      </trkpt>
      <trkpt lat="44.88496" lon="5.6628">
        <ele>896.7</ele>
        <time>2023-05-16T09:08:43.905Z</time>
      </trkpt>
      <trkpt lat="44.88496" lon="5.66286">
        <ele>896.6</ele>
        <time>2023-05-16T09:08:45.316Z</time>
      </trkpt>
      <trkpt lat="44.88496" lon="5.66291">
        <ele>896.5</ele>
        <time>2023-05-16T09:08:46.475Z</time>
      </trkpt>
      <trkpt lat="44.88495" lon="5.66296">
        <ele>896.4</ele>
        <time>2023-05-16T09:08:47.684Z</time>
      </trkpt>
      <trkpt lat="44.88496" lon="5.66306">
        <ele>896.1</ele>
        <time>2023-05-16T09:08:49.933Z</time>
      </trkpt>
      <trkpt lat="44.88498" lon="5.66316">
        <ele>895.5</ele>
        <time>2023-05-16T09:08:52.229Z</time>
      </trkpt>
      <trkpt lat="44.88499" lon="5.66323">
        <ele>895.1</ele>
        <time>2023-05-16T09:08:53.807Z</time>
      </trkpt>
      <trkpt lat="44.885" lon="5.66331">
        <ele>894.7</ele>
        <time>2023-05-16T09:08:55.603Z</time>
      </trkpt>
      <trkpt lat="44.88501" lon="5.6634">
        <ele>894.3</ele>
        <time>2023-05-16T09:08:57.616Z</time>
      </trkpt>
      <trkpt lat="44.88503" lon="5.6635">
        <ele>893.7</ele>
        <time>2023-05-16T09:08:59.912Z</time>
      </trkpt>
      <trkpt lat="44.88505" lon="5.66357">
        <ele>893.1</ele>
        <time>2023-05-16T09:09:01.580Z</time>
      </trkpt>
      <trkpt lat="44.88506" lon="5.66364">
        <ele>892.4</ele>
        <time>2023-05-16T09:09:03.158Z</time>
      </trkpt>
      <trkpt lat="44.88508" lon="5.6637">
        <ele>891.8</ele>
        <time>2023-05-16T09:09:04.623Z</time>
      </trkpt>
      <trkpt lat="44.8851" lon="5.66374">
        <ele>891.3</ele>
        <time>2023-05-16T09:09:05.705Z</time>
      </trkpt>
      <trkpt lat="44.88511" lon="5.66378">
        <ele>890.8</ele>
        <time>2023-05-16T09:09:06.643Z</time>
      </trkpt>
      <trkpt lat="44.88514" lon="5.66383">
        <ele>890.2</ele>
        <time>2023-05-16T09:09:08.091Z</time>
      </trkpt>
      <trkpt lat="44.88514" lon="5.66391">
        <ele>889.3</ele>
        <time>2023-05-16T09:09:09.858Z</time>
      </trkpt>
      <trkpt lat="44.88513" lon="5.66401">
        <ele>888.1</ele>
        <time>2023-05-16T09:09:12.090Z</time>
      </trkpt>
      <trkpt lat="44.88515" lon="5.66406">
        <ele>887.2</ele>
        <time>2023-05-16T09:09:13.359Z</time>
      </trkpt>
      <trkpt lat="44.88519" lon="5.66412">
        <ele>885.9</ele>
        <time>2023-05-16T09:09:15.180Z</time>
      </trkpt>
      <trkpt lat="44.88521" lon="5.66417">
        <ele>884.5</ele>
        <time>2023-05-16T09:09:16.449Z</time>
      </trkpt>
      <trkpt lat="44.88519" lon="5.66422">
        <ele>883.3</ele>
        <time>2023-05-16T09:09:17.717Z</time>
      </trkpt>
      <trkpt lat="44.88516" lon="5.66425">
        <ele>882.1</ele>
        <time>2023-05-16T09:09:18.864Z</time>
      </trkpt>
      <trkpt lat="44.88517" lon="5.6643">
        <ele>881.3</ele>
        <time>2023-05-16T09:09:20.012Z</time>
      </trkpt>
      <trkpt lat="44.8852" lon="5.66431">
        <ele>880.5</ele>
        <time>2023-05-16T09:09:20.974Z</time>
      </trkpt>
      <trkpt lat="44.88524" lon="5.66433">
        <ele>879.4</ele>
        <time>2023-05-16T09:09:22.297Z</time>
      </trkpt>
      <trkpt lat="44.88529" lon="5.66437">
        <ele>877.9</ele>
        <time>2023-05-16T09:09:24.090Z</time>
      </trkpt>
      <trkpt lat="44.88534" lon="5.66438">
        <ele>876.9</ele>
        <time>2023-05-16T09:09:25.665Z</time>
      </trkpt>
      <trkpt lat="44.88538" lon="5.66438">
        <ele>876</ele>
        <time>2023-05-16T09:09:26.913Z</time>
      </trkpt>
      <trkpt lat="44.88541" lon="5.66436">
        <ele>874.9</ele>
        <time>2023-05-16T09:09:27.947Z</time>
      </trkpt>
      <trkpt lat="44.88544" lon="5.66433">
        <ele>874.2</ele>
        <time>2023-05-16T09:09:29.094Z</time>
      </trkpt>
      <trkpt lat="44.88547" lon="5.66429">
        <ele>872.8</ele>
        <time>2023-05-16T09:09:30.381Z</time>
      </trkpt>
      <trkpt lat="44.88549" lon="5.66425">
        <ele>871.5</ele>
        <time>2023-05-16T09:09:31.463Z</time>
      </trkpt>
      <trkpt lat="44.88552" lon="5.66419">
        <ele>869.5</ele>
        <time>2023-05-16T09:09:33.086Z</time>
      </trkpt>
      <trkpt lat="44.88554" lon="5.66415">
        <ele>868.1</ele>
        <time>2023-05-16T09:09:34.168Z</time>
      </trkpt>
      <trkpt lat="44.88557" lon="5.66414">
        <ele>867.3</ele>
        <time>2023-05-16T09:09:35.129Z</time>
      </trkpt>
      <trkpt lat="44.88559" lon="5.66416">
        <ele>866.3</ele>
        <time>2023-05-16T09:09:35.894Z</time>
      </trkpt>
      <trkpt lat="44.88561" lon="5.66418">
        <ele>865.4</ele>
        <time>2023-05-16T09:09:36.658Z</time>
      </trkpt>
      <trkpt lat="44.88563" lon="5.66426">
        <ele>864.8</ele>
        <time>2023-05-16T09:09:38.533Z</time>
      </trkpt>
      <trkpt lat="44.88563" lon="5.6644">
        <ele>863.5</ele>
        <time>2023-05-16T09:09:41.627Z</time>
      </trkpt>
      <trkpt lat="44.88563" lon="5.66446">
        <ele>862.9</ele>
        <time>2023-05-16T09:09:42.953Z</time>
      </trkpt>
      <trkpt lat="44.88567" lon="5.66455">
        <ele>861.8</ele>
        <time>2023-05-16T09:09:45.301Z</time>
      </trkpt>
      <trkpt lat="44.88565" lon="5.66461">
        <ele>861</ele>
        <time>2023-05-16T09:09:46.766Z</time>
      </trkpt>
      <trkpt lat="44.88567" lon="5.66468">
        <ele>860</ele>
        <time>2023-05-16T09:09:48.434Z</time>
      </trkpt>
      <trkpt lat="44.88567" lon="5.66474">
        <ele>859.1</ele>
        <time>2023-05-16T09:09:49.760Z</time>
      </trkpt>
      <trkpt lat="44.88567" lon="5.66482">
        <ele>858</ele>
        <time>2023-05-16T09:09:51.528Z</time>
      </trkpt>
      <trkpt lat="44.88567" lon="5.66486">
        <ele>857.3</ele>
        <time>2023-05-16T09:09:52.412Z</time>
      </trkpt>
      <trkpt lat="44.88565" lon="5.66493">
        <ele>856.4</ele>
        <time>2023-05-16T09:09:54.080Z</time>
      </trkpt>
      <trkpt lat="44.88563" lon="5.66499">
        <ele>855.4</ele>
        <time>2023-05-16T09:09:55.545Z</time>
      </trkpt>
      <trkpt lat="44.88561" lon="5.66506">
        <ele>854.4</ele>
        <time>2023-05-16T09:09:57.213Z</time>
      </trkpt>
      <trkpt lat="44.88557" lon="5.66513">
        <ele>853.4</ele>
        <time>2023-05-16T09:09:59.200Z</time>
      </trkpt>
      <trkpt lat="44.88554" lon="5.66519">
        <ele>852.4</ele>
        <time>2023-05-16T09:10:00.823Z</time>
      </trkpt>
      <trkpt lat="44.88549" lon="5.66524">
        <ele>851.3</ele>
        <time>2023-05-16T09:10:02.734Z</time>
      </trkpt>
      <trkpt lat="44.88546" lon="5.66527">
        <ele>850.5</ele>
        <time>2023-05-16T09:10:03.881Z</time>
      </trkpt>
      <trkpt lat="44.88542" lon="5.66529">
        <ele>849.6</ele>
        <time>2023-05-16T09:10:05.205Z</time>
      </trkpt>
      <trkpt lat="44.88535" lon="5.66532">
        <ele>847.6</ele>
        <time>2023-05-16T09:10:07.486Z</time>
      </trkpt>
      <trkpt lat="44.88537" lon="5.66539">
        <ele>845.7</ele>
        <time>2023-05-16T09:10:09.154Z</time>
      </trkpt>
      <trkpt lat="44.8854" lon="5.66542">
        <ele>844.1</ele>
        <time>2023-05-16T09:10:10.301Z</time>
      </trkpt>
      <trkpt lat="44.88543" lon="5.66545">
        <ele>842.1</ele>
        <time>2023-05-16T09:10:11.448Z</time>
      </trkpt>
      <trkpt lat="44.88546" lon="5.66548">
        <ele>840.8</ele>
        <time>2023-05-16T09:10:12.595Z</time>
      </trkpt>
      <trkpt lat="44.88557" lon="5.66555">
        <ele>838.6</ele>
        <time>2023-05-16T09:10:16.358Z</time>
      </trkpt>
      <trkpt lat="44.8856" lon="5.66558">
        <ele>837.9</ele>
        <time>2023-05-16T09:10:17.505Z</time>
      </trkpt>
      <trkpt lat="44.8856" lon="5.66563">
        <ele>837.2</ele>
        <time>2023-05-16T09:10:18.610Z</time>
      </trkpt>
      <trkpt lat="44.88554" lon="5.6657">
        <ele>835.3</ele>
        <time>2023-05-16T09:10:21.038Z</time>
      </trkpt>
      <trkpt lat="44.88549" lon="5.66577">
        <ele>832.5</ele>
        <time>2023-05-16T09:10:23.234Z</time>
      </trkpt>
      <trkpt lat="44.88548" lon="5.66582">
        <ele>831.6</ele>
        <time>2023-05-16T09:10:24.382Z</time>
      </trkpt>
      <trkpt lat="44.88546" lon="5.66589">
        <ele>830.6</ele>
        <time>2023-05-16T09:10:26.050Z</time>
      </trkpt>
      <trkpt lat="44.88548" lon="5.66594">
        <ele>829.6</ele>
        <time>2023-05-16T09:10:27.319Z</time>
      </trkpt>
      <trkpt lat="44.8855" lon="5.66597">
        <ele>829</ele>
        <time>2023-05-16T09:10:28.229Z</time>
      </trkpt>
      <trkpt lat="44.88552" lon="5.66603">
        <ele>828.2</ele>
        <time>2023-05-16T09:10:29.695Z</time>
      </trkpt>
      <trkpt lat="44.88557" lon="5.66614">
        <ele>826.5</ele>
        <time>2023-05-16T09:10:32.583Z</time>
      </trkpt>
      <trkpt lat="44.88562" lon="5.66621">
        <ele>825.2</ele>
        <time>2023-05-16T09:10:34.779Z</time>
      </trkpt>
      <trkpt lat="44.88564" lon="5.66627">
        <ele>823.9</ele>
        <time>2023-05-16T09:10:36.245Z</time>
      </trkpt>
      <trkpt lat="44.88566" lon="5.66632">
        <ele>822.8</ele>
        <time>2023-05-16T09:10:37.514Z</time>
      </trkpt>
      <trkpt lat="44.88568" lon="5.6664">
        <ele>821.2</ele>
        <time>2023-05-16T09:10:39.388Z</time>
      </trkpt>
      <trkpt lat="44.8857" lon="5.66649">
        <ele>819.8</ele>
        <time>2023-05-16T09:10:41.473Z</time>
      </trkpt>
      <trkpt lat="44.88575" lon="5.66658">
        <ele>818.1</ele>
        <time>2023-05-16T09:10:44.000Z</time>
      </trkpt>
      <trkpt lat="44.88581" lon="5.66665">
        <ele>816.6</ele>
        <time>2023-05-16T09:10:46.428Z</time>
      </trkpt>
      <trkpt lat="44.88585" lon="5.6667">
        <ele>814.8</ele>
        <time>2023-05-16T09:10:48.095Z</time>
      </trkpt>
      <trkpt lat="44.88587" lon="5.66676">
        <ele>814.6</ele>
        <time>2023-05-16T09:10:49.569Z</time>
      </trkpt>
      <trkpt lat="44.88583" lon="5.66674">
        <ele>814.3</ele>
        <time>2023-05-16T09:10:50.892Z</time>
      </trkpt>
      <trkpt lat="44.88586" lon="5.66671">
        <ele>814.2</ele>
        <time>2023-05-16T09:10:52.099Z</time>
      </trkpt>
      <trkpt lat="44.88584" lon="5.66669">
        <ele>814</ele>
        <time>2023-05-16T09:10:52.864Z</time>
      </trkpt>
      <trkpt lat="44.88584" lon="5.66674">
        <ele>813.6</ele>
        <time>2023-05-16T09:10:53.969Z</time>
      </trkpt>
      <trkpt lat="44.88582" lon="5.66678">
        <ele>813.2</ele>
        <time>2023-05-16T09:10:55.050Z</time>
      </trkpt>
      <trkpt lat="44.88578" lon="5.66684">
        <ele>812.6</ele>
        <time>2023-05-16T09:10:56.871Z</time>
      </trkpt>
      <trkpt lat="44.88576" lon="5.66687">
        <ele>812.3</ele>
        <time>2023-05-16T09:10:57.781Z</time>
      </trkpt>
      <trkpt lat="44.88572" lon="5.66691">
        <ele>812</ele>
        <time>2023-05-16T09:10:59.310Z</time>
      </trkpt>
      <trkpt lat="44.88562" lon="5.66695">
        <ele>811.1</ele>
        <time>2023-05-16T09:11:02.552Z</time>
      </trkpt>
      <trkpt lat="44.88557" lon="5.66695">
        <ele>810.5</ele>
        <time>2023-05-16T09:11:04.112Z</time>
      </trkpt>
      <trkpt lat="44.8855" lon="5.66696">
        <ele>809.9</ele>
        <time>2023-05-16T09:11:06.306Z</time>
      </trkpt>
      <trkpt lat="44.88544" lon="5.66692">
        <ele>809.6</ele>
        <time>2023-05-16T09:11:08.376Z</time>
      </trkpt>
      <trkpt lat="44.88538" lon="5.6669">
        <ele>809.3</ele>
        <time>2023-05-16T09:11:10.299Z</time>
      </trkpt>
      <trkpt lat="44.88533" lon="5.6669">
        <ele>808.9</ele>
        <time>2023-05-16T09:11:11.858Z</time>
      </trkpt>
      <trkpt lat="44.88525" lon="5.66688">
        <ele>807.9</ele>
        <time>2023-05-16T09:11:14.392Z</time>
      </trkpt>
      <trkpt lat="44.8852" lon="5.66685">
        <ele>806.8</ele>
        <time>2023-05-16T09:11:16.087Z</time>
      </trkpt>
      <trkpt lat="44.88514" lon="5.66682">
        <ele>805.7</ele>
        <time>2023-05-16T09:11:18.072Z</time>
      </trkpt>
      <trkpt lat="44.88508" lon="5.66682">
        <ele>804.5</ele>
        <time>2023-05-16T09:11:19.943Z</time>
      </trkpt>
      <trkpt lat="44.88502" lon="5.66682">
        <ele>803.1</ele>
        <time>2023-05-16T09:11:21.815Z</time>
      </trkpt>
      <trkpt lat="44.88497" lon="5.6668">
        <ele>802</ele>
        <time>2023-05-16T09:11:23.436Z</time>
      </trkpt>
      <trkpt lat="44.8849" lon="5.66678">
        <ele>800.6</ele>
        <time>2023-05-16T09:11:25.663Z</time>
      </trkpt>
      <trkpt lat="44.88484" lon="5.66682">
        <ele>799.3</ele>
        <time>2023-05-16T09:11:27.733Z</time>
      </trkpt>
      <trkpt lat="44.88479" lon="5.66684">
        <ele>798.3</ele>
        <time>2023-05-16T09:11:29.354Z</time>
      </trkpt>
      <trkpt lat="44.88473" lon="5.66679">
        <ele>796.9</ele>
        <time>2023-05-16T09:11:31.527Z</time>
      </trkpt>
      <trkpt lat="44.88468" lon="5.66679">
        <ele>795.5</ele>
        <time>2023-05-16T09:11:33.087Z</time>
      </trkpt>
      <trkpt lat="44.88462" lon="5.6668">
        <ele>794.3</ele>
        <time>2023-05-16T09:11:34.971Z</time>
      </trkpt>
      <trkpt lat="44.88457" lon="5.66677">
        <ele>793.5</ele>
        <time>2023-05-16T09:11:36.666Z</time>
      </trkpt>
      <trkpt lat="44.88452" lon="5.66673">
        <ele>793</ele>
        <time>2023-05-16T09:11:38.458Z</time>
      </trkpt>
      <trkpt lat="44.88448" lon="5.66668">
        <ele>793</ele>
        <time>2023-05-16T09:11:40.363Z</time>
      </trkpt>
      <trkpt lat="44.88444" lon="5.66664">
        <ele>793.2</ele>
        <time>2023-05-16T09:11:42.351Z</time>
      </trkpt>
      <trkpt lat="44.88441" lon="5.66665">
        <ele>793.3</ele>
        <time>2023-05-16T09:11:43.567Z</time>
      </trkpt>
      <trkpt lat="44.88437" lon="5.66665">
        <ele>793.7</ele>
        <time>2023-05-16T09:11:45.546Z</time>
      </trkpt>
      <trkpt lat="44.88438" lon="5.66672">
        <ele>794.2</ele>
        <time>2023-05-16T09:11:48.039Z</time>
      </trkpt>
      <trkpt lat="44.88434" lon="5.66673">
        <ele>794.3</ele>
        <time>2023-05-16T09:11:49.603Z</time>
      </trkpt>
      <trkpt lat="44.88431" lon="5.66676">
        <ele>794.4</ele>
        <time>2023-05-16T09:11:51.030Z</time>
      </trkpt>
      <trkpt lat="44.88428" lon="5.66679">
        <ele>794.5</ele>
        <time>2023-05-16T09:11:52.457Z</time>
      </trkpt>
      <trkpt lat="44.88425" lon="5.66683">
        <ele>794.5</ele>
        <time>2023-05-16T09:11:53.929Z</time>
      </trkpt>
      <trkpt lat="44.88423" lon="5.66687">
        <ele>794.6</ele>
        <time>2023-05-16T09:11:55.282Z</time>
      </trkpt>
      <trkpt lat="44.8842" lon="5.66689">
        <ele>794.6</ele>
        <time>2023-05-16T09:11:56.465Z</time>
      </trkpt>
      <trkpt lat="44.88418" lon="5.6669">
        <ele>794.6</ele>
        <time>2023-05-16T09:11:57.221Z</time>
      </trkpt>
      <trkpt lat="44.88414" lon="5.66693">
        <ele>794.6</ele>
        <time>2023-05-16T09:11:58.836Z</time>
      </trkpt>
      <trkpt lat="44.8841" lon="5.66696">
        <ele>794.6</ele>
        <time>2023-05-16T09:12:00.450Z</time>
      </trkpt>
      <trkpt lat="44.88406" lon="5.66697">
        <ele>794.5</ele>
        <time>2023-05-16T09:12:01.794Z</time>
      </trkpt>
      <trkpt lat="44.88403" lon="5.66698">
        <ele>794.5</ele>
        <time>2023-05-16T09:12:02.893Z</time>
      </trkpt>
      <trkpt lat="44.88399" lon="5.66698">
        <ele>794.5</ele>
        <time>2023-05-16T09:12:04.319Z</time>
      </trkpt>
      <trkpt lat="44.88396" lon="5.66699">
        <ele>794.5</ele>
        <time>2023-05-16T09:12:05.418Z</time>
      </trkpt>
      <trkpt lat="44.88393" lon="5.66701">
        <ele>794.5</ele>
        <time>2023-05-16T09:12:06.600Z</time>
      </trkpt>
      <trkpt lat="44.88391" lon="5.66704">
        <ele>794.5</ele>
        <time>2023-05-16T09:12:07.641Z</time>
      </trkpt>
      <trkpt lat="44.88389" lon="5.66707">
        <ele>794.5</ele>
        <time>2023-05-16T09:12:08.681Z</time>
      </trkpt>
      <trkpt lat="44.88386" lon="5.6671">
        <ele>794.4</ele>
        <time>2023-05-16T09:12:09.888Z</time>
      </trkpt>
      <trkpt lat="44.88382" lon="5.6671">
        <ele>794.4</ele>
        <time>2023-05-16T09:12:11.314Z</time>
      </trkpt>
      <trkpt lat="44.88372" lon="5.6671">
        <ele>794.4</ele>
        <time>2023-05-16T09:12:14.878Z</time>
      </trkpt>
      <trkpt lat="44.88367" lon="5.6671">
        <ele>794.3</ele>
        <time>2023-05-16T09:12:16.555Z</time>
      </trkpt>
      <trkpt lat="44.88362" lon="5.66708">
        <ele>794.3</ele>
        <time>2023-05-16T09:12:18.408Z</time>
      </trkpt>
      <trkpt lat="44.88357" lon="5.66707">
        <ele>794.2</ele>
        <time>2023-05-16T09:12:20.103Z</time>
      </trkpt>
      <trkpt lat="44.88353" lon="5.66702">
        <ele>794.2</ele>
        <time>2023-05-16T09:12:22.007Z</time>
      </trkpt>
      <trkpt lat="44.88351" lon="5.66701">
        <ele>794.2</ele>
        <time>2023-05-16T09:12:22.764Z</time>
      </trkpt>
      <trkpt lat="44.88347" lon="5.66696">
        <ele>794.4</ele>
        <time>2023-05-16T09:12:24.907Z</time>
      </trkpt>
      <trkpt lat="44.88344" lon="5.66693">
        <ele>794.5</ele>
        <time>2023-05-16T09:12:26.334Z</time>
      </trkpt>
      <trkpt lat="44.88341" lon="5.66689">
        <ele>794.6</ele>
        <time>2023-05-16T09:12:27.921Z</time>
      </trkpt>
      <trkpt lat="44.88337" lon="5.66686">
        <ele>794.8</ele>
        <time>2023-05-16T09:12:29.778Z</time>
      </trkpt>
      <trkpt lat="44.88334" lon="5.66684">
        <ele>795.1</ele>
        <time>2023-05-16T09:12:31.366Z</time>
      </trkpt>
      <trkpt lat="44.88329" lon="5.6668">
        <ele>795.4</ele>
        <time>2023-05-16T09:12:33.784Z</time>
      </trkpt>
      <trkpt lat="44.88326" lon="5.66679">
        <ele>795.4</ele>
        <time>2023-05-16T09:12:34.883Z</time>
      </trkpt>
      <trkpt lat="44.88324" lon="5.66677">
        <ele>795.4</ele>
        <time>2023-05-16T09:12:35.757Z</time>
      </trkpt>
      <trkpt lat="44.88321" lon="5.66676">
        <ele>795.4</ele>
        <time>2023-05-16T09:12:36.856Z</time>
      </trkpt>
      <trkpt lat="44.88318" lon="5.66674">
        <ele>795.2</ele>
        <time>2023-05-16T09:12:37.890Z</time>
      </trkpt>
      <trkpt lat="44.88314" lon="5.66672">
        <ele>795.1</ele>
        <time>2023-05-16T09:12:39.299Z</time>
      </trkpt>
      <trkpt lat="44.88311" lon="5.66668">
        <ele>795.2</ele>
        <time>2023-05-16T09:12:40.885Z</time>
      </trkpt>
      <trkpt lat="44.88308" lon="5.66665">
        <ele>795.5</ele>
        <time>2023-05-16T09:12:42.593Z</time>
      </trkpt>
      <trkpt lat="44.88307" lon="5.66662">
        <ele>795.6</ele>
        <time>2023-05-16T09:12:43.551Z</time>
      </trkpt>
      <trkpt lat="44.88305" lon="5.66658">
        <ele>796</ele>
        <time>2023-05-16T09:12:45.362Z</time>
      </trkpt>
      <trkpt lat="44.88302" lon="5.66655">
        <ele>796.5</ele>
        <time>2023-05-16T09:12:47.430Z</time>
      </trkpt>
      <trkpt lat="44.88298" lon="5.66657">
        <ele>797.3</ele>
        <time>2023-05-16T09:12:50.338Z</time>
      </trkpt>
      <trkpt lat="44.88296" lon="5.6666">
        <ele>797.8</ele>
        <time>2023-05-16T09:12:52.211Z</time>
      </trkpt>
      <trkpt lat="44.88295" lon="5.66665">
        <ele>798.5</ele>
        <time>2023-05-16T09:12:54.750Z</time>
      </trkpt>
      <trkpt lat="44.88294" lon="5.6667">
        <ele>799.1</ele>
        <time>2023-05-16T09:12:57.038Z</time>
      </trkpt>
      <trkpt lat="44.88295" lon="5.66674">
        <ele>799.6</ele>
        <time>2023-05-16T09:12:58.930Z</time>
      </trkpt>
      <trkpt lat="44.88294" lon="5.66679">
        <ele>800</ele>
        <time>2023-05-16T09:13:00.808Z</time>
      </trkpt>
      <trkpt lat="44.88292" lon="5.66682">
        <ele>800.3</ele>
        <time>2023-05-16T09:13:02.266Z</time>
      </trkpt>
      <trkpt lat="44.88289" lon="5.66686">
        <ele>800.4</ele>
        <time>2023-05-16T09:13:03.853Z</time>
      </trkpt>
      <trkpt lat="44.88287" lon="5.66689">
        <ele>800.5</ele>
        <time>2023-05-16T09:13:05.012Z</time>
      </trkpt>
      <trkpt lat="44.88286" lon="5.66693">
        <ele>800.5</ele>
        <time>2023-05-16T09:13:06.083Z</time>
      </trkpt>
      <trkpt lat="44.88284" lon="5.66698">
        <ele>800.5</ele>
        <time>2023-05-16T09:13:07.533Z</time>
      </trkpt>
      <trkpt lat="44.88283" lon="5.66701">
        <ele>800.4</ele>
        <time>2023-05-16T09:13:08.270Z</time>
      </trkpt>
      <trkpt lat="44.88282" lon="5.66706">
        <ele>800.4</ele>
        <time>2023-05-16T09:13:09.582Z</time>
      </trkpt>
      <trkpt lat="44.88282" lon="5.66711">
        <ele>800.4</ele>
        <time>2023-05-16T09:13:10.845Z</time>
      </trkpt>
      <trkpt lat="44.88269" lon="5.66759">
        <ele>800.2</ele>
        <time>2023-05-16T09:13:23.607Z</time>
      </trkpt>
      <trkpt lat="44.88264" lon="5.66764">
        <ele>800.2</ele>
        <time>2023-05-16T09:13:25.791Z</time>
      </trkpt>
      <trkpt lat="44.88262" lon="5.66767">
        <ele>800.1</ele>
        <time>2023-05-16T09:13:26.730Z</time>
      </trkpt>
      <trkpt lat="44.88257" lon="5.6677">
        <ele>800.1</ele>
        <time>2023-05-16T09:13:28.666Z</time>
      </trkpt>
      <trkpt lat="44.88254" lon="5.66772">
        <ele>800.1</ele>
        <time>2023-05-16T09:13:29.849Z</time>
      </trkpt>
      <trkpt lat="44.88251" lon="5.66775">
        <ele>800</ele>
        <time>2023-05-16T09:13:31.056Z</time>
      </trkpt>
      <trkpt lat="44.88248" lon="5.66778">
        <ele>800</ele>
        <time>2023-05-16T09:13:32.367Z</time>
      </trkpt>
      <trkpt lat="44.88243" lon="5.6678">
        <ele>800</ele>
        <time>2023-05-16T09:13:34.219Z</time>
      </trkpt>
      <trkpt lat="44.88241" lon="5.66785">
        <ele>800</ele>
        <time>2023-05-16T09:13:35.669Z</time>
      </trkpt>
      <trkpt lat="44.88237" lon="5.66787">
        <ele>800</ele>
        <time>2023-05-16T09:13:37.182Z</time>
      </trkpt>
      <trkpt lat="44.88234" lon="5.6679">
        <ele>800</ele>
        <time>2023-05-16T09:13:38.493Z</time>
      </trkpt>
      <trkpt lat="44.88232" lon="5.66792">
        <ele>800.1</ele>
        <time>2023-05-16T09:13:39.486Z</time>
      </trkpt>
      <trkpt lat="44.88229" lon="5.66795">
        <ele>800.2</ele>
        <time>2023-05-16T09:13:40.914Z</time>
      </trkpt>
      <trkpt lat="44.88227" lon="5.66799">
        <ele>800.3</ele>
        <time>2023-05-16T09:13:42.267Z</time>
      </trkpt>
      <trkpt lat="44.88224" lon="5.66802">
        <ele>800.4</ele>
        <time>2023-05-16T09:13:43.694Z</time>
      </trkpt>
      <trkpt lat="44.88222" lon="5.66804">
        <ele>800.5</ele>
        <time>2023-05-16T09:13:44.688Z</time>
      </trkpt>
      <trkpt lat="44.8822" lon="5.66807">
        <ele>800.8</ele>
        <time>2023-05-16T09:13:46.146Z</time>
      </trkpt>
      <trkpt lat="44.88217" lon="5.6681">
        <ele>801.1</ele>
        <time>2023-05-16T09:13:47.853Z</time>
      </trkpt>
      <trkpt lat="44.88208" lon="5.6682">
        <ele>802.3</ele>
        <time>2023-05-16T09:13:53.616Z</time>
      </trkpt>
      <trkpt lat="44.88204" lon="5.66823">
        <ele>802.8</ele>
        <time>2023-05-16T09:13:55.940Z</time>
      </trkpt>
      <trkpt lat="44.88202" lon="5.66826">
        <ele>803.1</ele>
        <time>2023-05-16T09:13:57.399Z</time>
      </trkpt>
      <trkpt lat="44.88198" lon="5.6683">
        <ele>803.5</ele>
        <time>2023-05-16T09:13:59.675Z</time>
      </trkpt>
      <trkpt lat="44.88196" lon="5.66835">
        <ele>803.7</ele>
        <time>2023-05-16T09:14:01.370Z</time>
      </trkpt>
      <trkpt lat="44.88193" lon="5.66838">
        <ele>804</ele>
        <time>2023-05-16T09:14:03.077Z</time>
      </trkpt>
      <trkpt lat="44.88191" lon="5.66842">
        <ele>804.4</ele>
        <time>2023-05-16T09:14:04.889Z</time>
      </trkpt>
      <trkpt lat="44.88188" lon="5.66845">
        <ele>804.8</ele>
        <time>2023-05-16T09:14:06.765Z</time>
      </trkpt>
      <trkpt lat="44.88185" lon="5.66848">
        <ele>805.1</ele>
        <time>2023-05-16T09:14:08.472Z</time>
      </trkpt>
      <trkpt lat="44.88183" lon="5.66851">
        <ele>805.2</ele>
        <time>2023-05-16T09:14:09.631Z</time>
      </trkpt>
      <trkpt lat="44.8818" lon="5.66854">
        <ele>805.5</ele>
        <time>2023-05-16T09:14:11.338Z</time>
      </trkpt>
      <trkpt lat="44.88176" lon="5.66857">
        <ele>805.7</ele>
        <time>2023-05-16T09:14:13.195Z</time>
      </trkpt>
      <trkpt lat="44.88172" lon="5.6686">
        <ele>806</ele>
        <time>2023-05-16T09:14:15.192Z</time>
      </trkpt>
      <trkpt lat="44.88169" lon="5.66862">
        <ele>806.4</ele>
        <time>2023-05-16T09:14:16.957Z</time>
      </trkpt>
      <trkpt lat="44.88166" lon="5.66864">
        <ele>806.8</ele>
        <time>2023-05-16T09:14:18.722Z</time>
      </trkpt>
      <trkpt lat="44.88161" lon="5.66866">
        <ele>807.3</ele>
        <time>2023-05-16T09:14:21.260Z</time>
      </trkpt>
      <trkpt lat="44.88158" lon="5.6687">
        <ele>807.7</ele>
        <time>2023-05-16T09:14:23.280Z</time>
      </trkpt>
      <trkpt lat="44.88156" lon="5.66874">
        <ele>808.1</ele>
        <time>2023-05-16T09:14:25.092Z</time>
      </trkpt>
      <trkpt lat="44.88154" lon="5.66877">
        <ele>808.4</ele>
        <time>2023-05-16T09:14:26.550Z</time>
      </trkpt>
      <trkpt lat="44.88151" lon="5.6688">
        <ele>808.7</ele>
        <time>2023-05-16T09:14:28.257Z</time>
      </trkpt>
      <trkpt lat="44.88147" lon="5.66881">
        <ele>808.8</ele>
        <time>2023-05-16T09:14:29.821Z</time>
      </trkpt>
      <trkpt lat="44.88144" lon="5.66884">
        <ele>809</ele>
        <time>2023-05-16T09:14:31.380Z</time>
      </trkpt>
      <trkpt lat="44.88142" lon="5.66888">
        <ele>809.1</ele>
        <time>2023-05-16T09:14:32.733Z</time>
      </trkpt>
      <trkpt lat="44.88139" lon="5.6689">
        <ele>809.3</ele>
        <time>2023-05-16T09:14:34.167Z</time>
      </trkpt>
      <trkpt lat="44.88135" lon="5.66891">
        <ele>809.7</ele>
        <time>2023-05-16T09:14:36.166Z</time>
      </trkpt>
      <trkpt lat="44.88132" lon="5.66893">
        <ele>810</ele>
        <time>2023-05-16T09:14:37.754Z</time>
      </trkpt>
      <trkpt lat="44.88129" lon="5.66895">
        <ele>810.4</ele>
        <time>2023-05-16T09:14:39.519Z</time>
      </trkpt>
      <trkpt lat="44.88126" lon="5.66894">
        <ele>810.6</ele>
        <time>2023-05-16T09:14:40.872Z</time>
      </trkpt>
      <trkpt lat="44.88123" lon="5.66893">
        <ele>810.8</ele>
        <time>2023-05-16T09:14:42.225Z</time>
      </trkpt>
      <trkpt lat="44.8812" lon="5.66895">
        <ele>811</ele>
        <time>2023-05-16T09:14:43.659Z</time>
      </trkpt>
      <trkpt lat="44.88117" lon="5.66896">
        <ele>811.1</ele>
        <time>2023-05-16T09:14:44.876Z</time>
      </trkpt>
      <trkpt lat="44.88114" lon="5.66897">
        <ele>811.5</ele>
        <time>2023-05-16T09:14:46.571Z</time>
      </trkpt>
      <trkpt lat="44.88111" lon="5.66898">
        <ele>811.8</ele>
        <time>2023-05-16T09:14:48.082Z</time>
      </trkpt>
      <trkpt lat="44.88107" lon="5.66899">
        <ele>812.1</ele>
        <time>2023-05-16T09:14:49.920Z</time>
      </trkpt>
      <trkpt lat="44.88104" lon="5.66899">
        <ele>812.4</ele>
        <time>2023-05-16T09:14:51.404Z</time>
      </trkpt>
      <trkpt lat="44.88098" lon="5.66899">
        <ele>812.6</ele>
        <time>2023-05-16T09:14:53.779Z</time>
      </trkpt>
      <trkpt lat="44.88096" lon="5.66898">
        <ele>812.7</ele>
        <time>2023-05-16T09:14:54.657Z</time>
      </trkpt>
      <trkpt lat="44.88091" lon="5.66898">
        <ele>813</ele>
        <time>2023-05-16T09:14:56.816Z</time>
      </trkpt>
      <trkpt lat="44.88088" lon="5.66899">
        <ele>813.3</ele>
        <time>2023-05-16T09:14:58.327Z</time>
      </trkpt>
      <trkpt lat="44.88085" lon="5.66899">
        <ele>813.5</ele>
        <time>2023-05-16T09:14:59.652Z</time>
      </trkpt>
      <trkpt lat="44.88081" lon="5.66898">
        <ele>813.6</ele>
        <time>2023-05-16T09:15:01.216Z</time>
      </trkpt>
      <trkpt lat="44.88078" lon="5.66896">
        <ele>813.7</ele>
        <time>2023-05-16T09:15:02.516Z</time>
      </trkpt>
      <trkpt lat="44.88075" lon="5.66897">
        <ele>813.8</ele>
        <time>2023-05-16T09:15:03.732Z</time>
      </trkpt>
      <trkpt lat="44.88071" lon="5.66899">
        <ele>813.9</ele>
        <time>2023-05-16T09:15:05.360Z</time>
      </trkpt>
      <trkpt lat="44.88066" lon="5.66901">
        <ele>814.2</ele>
        <time>2023-05-16T09:15:07.588Z</time>
      </trkpt>
      <trkpt lat="44.88063" lon="5.66903">
        <ele>814.6</ele>
        <time>2023-05-16T09:15:09.353Z</time>
      </trkpt>
      <trkpt lat="44.88059" lon="5.66904">
        <ele>815</ele>
        <time>2023-05-16T09:15:11.352Z</time>
      </trkpt>
      <trkpt lat="44.88056" lon="5.66904">
        <ele>815.2</ele>
        <time>2023-05-16T09:15:12.677Z</time>
      </trkpt>
      <trkpt lat="44.88053" lon="5.66904">
        <ele>815.3</ele>
        <time>2023-05-16T09:15:13.864Z</time>
      </trkpt>
      <trkpt lat="44.8805" lon="5.66904">
        <ele>815.4</ele>
        <time>2023-05-16T09:15:15.052Z</time>
      </trkpt>
      <trkpt lat="44.88045" lon="5.66904">
        <ele>815.4</ele>
        <time>2023-05-16T09:15:16.834Z</time>
      </trkpt>
      <trkpt lat="44.88042" lon="5.66906">
        <ele>815.4</ele>
        <time>2023-05-16T09:15:18.017Z</time>
      </trkpt>
      <trkpt lat="44.88038" lon="5.66908">
        <ele>815.4</ele>
        <time>2023-05-16T09:15:19.529Z</time>
      </trkpt>
      <trkpt lat="44.88034" lon="5.66909">
        <ele>815.3</ele>
        <time>2023-05-16T09:15:20.873Z</time>
      </trkpt>
      <trkpt lat="44.8803" lon="5.66912">
        <ele>815.3</ele>
        <time>2023-05-16T09:15:22.488Z</time>
      </trkpt>
      <trkpt lat="44.88025" lon="5.66916">
        <ele>815.3</ele>
        <time>2023-05-16T09:15:24.537Z</time>
      </trkpt>
      <trkpt lat="44.88023" lon="5.66918">
        <ele>815.2</ele>
        <time>2023-05-16T09:15:25.310Z</time>
      </trkpt>
      <trkpt lat="44.8802" lon="5.6692">
        <ele>815.2</ele>
        <time>2023-05-16T09:15:26.492Z</time>
      </trkpt>
      <trkpt lat="44.88017" lon="5.66921">
        <ele>815.2</ele>
        <time>2023-05-16T09:15:27.591Z</time>
      </trkpt>
      <trkpt lat="44.88014" lon="5.66923">
        <ele>815.2</ele>
        <time>2023-05-16T09:15:28.774Z</time>
      </trkpt>
      <trkpt lat="44.88012" lon="5.66928">
        <ele>815.1</ele>
        <time>2023-05-16T09:15:30.120Z</time>
      </trkpt>
      <trkpt lat="44.88006" lon="5.66932">
        <ele>815.1</ele>
        <time>2023-05-16T09:15:32.485Z</time>
      </trkpt>
      <trkpt lat="44.88002" lon="5.66936">
        <ele>815</ele>
        <time>2023-05-16T09:15:34.128Z</time>
      </trkpt>
      <trkpt lat="44.87997" lon="5.66939">
        <ele>814.8</ele>
        <time>2023-05-16T09:15:35.861Z</time>
      </trkpt>
      <trkpt lat="44.87992" lon="5.66943">
        <ele>814.5</ele>
        <time>2023-05-16T09:15:37.654Z</time>
      </trkpt>
      <trkpt lat="44.87988" lon="5.66948">
        <ele>814.2</ele>
        <time>2023-05-16T09:15:39.320Z</time>
      </trkpt>
      <trkpt lat="44.87986" lon="5.66952">
        <ele>814</ele>
        <time>2023-05-16T09:15:40.402Z</time>
      </trkpt>
      <trkpt lat="44.87985" lon="5.66958">
        <ele>813.9</ele>
        <time>2023-05-16T09:15:41.855Z</time>
      </trkpt>
      <trkpt lat="44.87986" lon="5.66964">
        <ele>813.8</ele>
        <time>2023-05-16T09:15:43.307Z</time>
      </trkpt>
      <trkpt lat="44.87983" lon="5.66969">
        <ele>813.7</ele>
        <time>2023-05-16T09:15:44.857Z</time>
      </trkpt>
      <trkpt lat="44.87984" lon="5.66972">
        <ele>813.5</ele>
        <time>2023-05-16T09:15:45.590Z</time>
      </trkpt>
      <trkpt lat="44.8798" lon="5.66974">
        <ele>813.4</ele>
        <time>2023-05-16T09:15:46.998Z</time>
      </trkpt>
      <trkpt lat="44.87978" lon="5.66978">
        <ele>813.3</ele>
        <time>2023-05-16T09:15:48.131Z</time>
      </trkpt>
      <trkpt lat="44.87977" lon="5.66981">
        <ele>813.2</ele>
        <time>2023-05-16T09:15:48.868Z</time>
      </trkpt>
      <trkpt lat="44.87975" lon="5.66987">
        <ele>813</ele>
        <time>2023-05-16T09:15:50.343Z</time>
      </trkpt>
      <trkpt lat="44.87972" lon="5.66994">
        <ele>812.8</ele>
        <time>2023-05-16T09:15:52.205Z</time>
      </trkpt>
      <trkpt lat="44.87969" lon="5.66999">
        <ele>812.6</ele>
        <time>2023-05-16T09:15:53.659Z</time>
      </trkpt>
      <trkpt lat="44.87967" lon="5.67002">
        <ele>812.5</ele>
        <time>2023-05-16T09:15:54.597Z</time>
      </trkpt>
      <trkpt lat="44.87963" lon="5.67006">
        <ele>812.4</ele>
        <time>2023-05-16T09:15:56.240Z</time>
      </trkpt>
      <trkpt lat="44.87959" lon="5.6701">
        <ele>812.2</ele>
        <time>2023-05-16T09:15:57.786Z</time>
      </trkpt>
      <trkpt lat="44.87956" lon="5.67013">
        <ele>812</ele>
        <time>2023-05-16T09:15:58.933Z</time>
      </trkpt>
      <trkpt lat="44.87953" lon="5.67017">
        <ele>811.5</ele>
        <time>2023-05-16T09:16:00.220Z</time>
      </trkpt>
      <trkpt lat="44.87948" lon="5.6702">
        <ele>811.2</ele>
        <time>2023-05-16T09:16:01.915Z</time>
      </trkpt>
      <trkpt lat="44.87945" lon="5.67022">
        <ele>810.9</ele>
        <time>2023-05-16T09:16:02.949Z</time>
      </trkpt>
      <trkpt lat="44.8794" lon="5.67025">
        <ele>810.4</ele>
        <time>2023-05-16T09:16:04.644Z</time>
      </trkpt>
      <trkpt lat="44.87937" lon="5.67027">
        <ele>810.1</ele>
        <time>2023-05-16T09:16:05.679Z</time>
      </trkpt>
      <trkpt lat="44.87934" lon="5.67028">
        <ele>809.8</ele>
        <time>2023-05-16T09:16:06.640Z</time>
      </trkpt>
      <trkpt lat="44.87931" lon="5.6703">
        <ele>809.5</ele>
        <time>2023-05-16T09:16:07.675Z</time>
      </trkpt>
      <trkpt lat="44.87928" lon="5.67031">
        <ele>809.2</ele>
        <time>2023-05-16T09:16:08.637Z</time>
      </trkpt>
      <trkpt lat="44.87926" lon="5.67033">
        <ele>808.8</ele>
        <time>2023-05-16T09:16:09.401Z</time>
      </trkpt>
      <trkpt lat="44.87922" lon="5.67036">
        <ele>808.4</ele>
        <time>2023-05-16T09:16:10.814Z</time>
      </trkpt>
      <trkpt lat="44.87919" lon="5.67038">
        <ele>808</ele>
        <time>2023-05-16T09:16:11.849Z</time>
      </trkpt>
      <trkpt lat="44.87914" lon="5.67041">
        <ele>807.6</ele>
        <time>2023-05-16T09:16:13.543Z</time>
      </trkpt>
      <trkpt lat="44.8791" lon="5.67044">
        <ele>807.2</ele>
        <time>2023-05-16T09:16:14.956Z</time>
      </trkpt>
      <trkpt lat="44.87907" lon="5.67047">
        <ele>807</ele>
        <time>2023-05-16T09:16:16.103Z</time>
      </trkpt>
      <trkpt lat="44.87903" lon="5.6705">
        <ele>806.7</ele>
        <time>2023-05-16T09:16:17.516Z</time>
      </trkpt>
      <trkpt lat="44.87898" lon="5.67053">
        <ele>806.5</ele>
        <time>2023-05-16T09:16:19.250Z</time>
      </trkpt>
      <trkpt lat="44.87895" lon="5.67055">
        <ele>806.3</ele>
        <time>2023-05-16T09:16:20.284Z</time>
      </trkpt>
      <trkpt lat="44.87892" lon="5.67058">
        <ele>806.1</ele>
        <time>2023-05-16T09:16:21.431Z</time>
      </trkpt>
      <trkpt lat="44.87889" lon="5.67062">
        <ele>806</ele>
        <time>2023-05-16T09:16:22.798Z</time>
      </trkpt>
      <trkpt lat="44.87886" lon="5.67064">
        <ele>805.7</ele>
        <time>2023-05-16T09:16:23.833Z</time>
      </trkpt>
      <trkpt lat="44.87883" lon="5.67066">
        <ele>805.6</ele>
        <time>2023-05-16T09:16:24.913Z</time>
      </trkpt>
      <trkpt lat="44.8788" lon="5.67068">
        <ele>805.4</ele>
        <time>2023-05-16T09:16:25.948Z</time>
      </trkpt>
      <trkpt lat="44.87877" lon="5.67069">
        <ele>805.2</ele>
        <time>2023-05-16T09:16:26.909Z</time>
      </trkpt>
      <trkpt lat="44.87873" lon="5.67069">
        <ele>805.1</ele>
        <time>2023-05-16T09:16:28.231Z</time>
      </trkpt>
      <trkpt lat="44.87869" lon="5.67068">
        <ele>804.9</ele>
        <time>2023-05-16T09:16:29.498Z</time>
      </trkpt>
      <trkpt lat="44.87865" lon="5.67065">
        <ele>804.7</ele>
        <time>2023-05-16T09:16:30.912Z</time>
      </trkpt>
      <trkpt lat="44.87862" lon="5.6706">
        <ele>804.6</ele>
        <time>2023-05-16T09:16:32.462Z</time>
      </trkpt>
      <trkpt lat="44.87859" lon="5.67055">
        <ele>804.6</ele>
        <time>2023-05-16T09:16:34.117Z</time>
      </trkpt>
      <trkpt lat="44.87857" lon="5.67049">
        <ele>804.6</ele>
        <time>2023-05-16T09:16:35.792Z</time>
      </trkpt>
      <trkpt lat="44.87855" lon="5.67043">
        <ele>804.8</ele>
        <time>2023-05-16T09:16:37.708Z</time>
      </trkpt>
      <trkpt lat="44.87853" lon="5.67038">
        <ele>804.9</ele>
        <time>2023-05-16T09:16:39.274Z</time>
      </trkpt>
      <trkpt lat="44.87852" lon="5.67031">
        <ele>805.3</ele>
        <time>2023-05-16T09:16:41.604Z</time>
      </trkpt>
      <trkpt lat="44.87851" lon="5.67024">
        <ele>805.5</ele>
        <time>2023-05-16T09:16:43.647Z</time>
      </trkpt>
      <trkpt lat="44.8785" lon="5.67019">
        <ele>805.6</ele>
        <time>2023-05-16T09:16:45.076Z</time>
      </trkpt>
      <trkpt lat="44.87849" lon="5.67014">
        <ele>806</ele>
        <time>2023-05-16T09:16:46.953Z</time>
      </trkpt>
      <trkpt lat="44.87843" lon="5.66985">
        <ele>807.8</ele>
        <time>2023-05-16T09:16:56.979Z</time>
      </trkpt>
      <trkpt lat="44.87841" lon="5.6698">
        <ele>808.3</ele>
        <time>2023-05-16T09:16:59.161Z</time>
      </trkpt>
      <trkpt lat="44.87839" lon="5.66974">
        <ele>808.7</ele>
        <time>2023-05-16T09:17:01.370Z</time>
      </trkpt>
      <trkpt lat="44.87836" lon="5.66969">
        <ele>808.8</ele>
        <time>2023-05-16T09:17:03.140Z</time>
      </trkpt>
      <trkpt lat="44.87834" lon="5.66963">
        <ele>809.4</ele>
        <time>2023-05-16T09:17:05.704Z</time>
      </trkpt>
      <trkpt lat="44.8783" lon="5.66956">
        <ele>809.6</ele>
        <time>2023-05-16T09:17:08.211Z</time>
      </trkpt>
      <trkpt lat="44.87827" lon="5.66949">
        <ele>810.5</ele>
        <time>2023-05-16T09:17:11.712Z</time>
      </trkpt>
      <trkpt lat="44.87822" lon="5.66941">
        <ele>811.2</ele>
        <time>2023-05-16T09:17:15.357Z</time>
      </trkpt>
      <trkpt lat="44.87818" lon="5.66933">
        <ele>812.1</ele>
        <time>2023-05-16T09:17:19.172Z</time>
      </trkpt>
      <trkpt lat="44.87813" lon="5.66924">
        <ele>812.4</ele>
        <time>2023-05-16T09:17:22.418Z</time>
      </trkpt>
      <trkpt lat="44.87807" lon="5.66916">
        <ele>812.5</ele>
        <time>2023-05-16T09:17:25.473Z</time>
      </trkpt>
      <trkpt lat="44.87803" lon="5.66909">
        <ele>812.6</ele>
        <time>2023-05-16T09:17:27.858Z</time>
      </trkpt>
      <trkpt lat="44.87796" lon="5.66903">
        <ele>812.7</ele>
        <time>2023-05-16T09:17:30.890Z</time>
      </trkpt>
      <trkpt lat="44.87789" lon="5.66896">
        <ele>811.4</ele>
        <time>2023-05-16T09:17:33.566Z</time>
      </trkpt>
      <trkpt lat="44.87781" lon="5.66891">
        <ele>811</ele>
        <time>2023-05-16T09:17:36.295Z</time>
      </trkpt>
      <trkpt lat="44.87771" lon="5.6689">
        <ele>808.1</ele>
        <time>2023-05-16T09:17:39.422Z</time>
      </trkpt>
      <trkpt lat="44.87761" lon="5.66885">
        <ele>806.2</ele>
        <time>2023-05-16T09:17:42.731Z</time>
      </trkpt>
      <trkpt lat="44.87752" lon="5.66881">
        <ele>803.6</ele>
        <time>2023-05-16T09:17:45.674Z</time>
      </trkpt>
      <trkpt lat="44.87741" lon="5.6688">
        <ele>800.6</ele>
        <time>2023-05-16T09:17:49.112Z</time>
      </trkpt>
      <trkpt lat="44.87731" lon="5.66877">
        <ele>798.5</ele>
        <time>2023-05-16T09:17:52.300Z</time>
      </trkpt>
      <trkpt lat="44.87722" lon="5.66873">
        <ele>796.3</ele>
        <time>2023-05-16T09:17:55.243Z</time>
      </trkpt>
      <trkpt lat="44.87714" lon="5.6687">
        <ele>793.5</ele>
        <time>2023-05-16T09:17:57.825Z</time>
      </trkpt>
      <trkpt lat="44.87707" lon="5.66868">
        <ele>792.2</ele>
        <time>2023-05-16T09:18:00.053Z</time>
      </trkpt>
      <trkpt lat="44.87702" lon="5.66866">
        <ele>790.3</ele>
        <time>2023-05-16T09:18:01.674Z</time>
      </trkpt>
      <trkpt lat="44.87695" lon="5.66865">
        <ele>788.1</ele>
        <time>2023-05-16T09:18:03.868Z</time>
      </trkpt>
      <trkpt lat="44.87689" lon="5.66862">
        <ele>786.2</ele>
        <time>2023-05-16T09:18:05.854Z</time>
      </trkpt>
      <trkpt lat="44.87685" lon="5.66858">
        <ele>784.5</ele>
        <time>2023-05-16T09:18:07.383Z</time>
      </trkpt>
      <trkpt lat="44.87684" lon="5.66854">
        <ele>785</ele>
        <time>2023-05-16T09:18:09.275Z</time>
      </trkpt>
      <trkpt lat="44.87682" lon="5.66845">
        <ele>785.2</ele>
        <time>2023-05-16T09:18:11.892Z</time>
      </trkpt>
      <trkpt lat="44.87681" lon="5.66836">
        <ele>786.4</ele>
        <time>2023-05-16T09:18:16.271Z</time>
      </trkpt>
      <trkpt lat="44.87681" lon="5.66829">
        <ele>787.7</ele>
        <time>2023-05-16T09:18:20.835Z</time>
      </trkpt>
      <trkpt lat="44.87684" lon="5.66826">
        <ele>788.7</ele>
        <time>2023-05-16T09:18:24.359Z</time>
      </trkpt>
      <trkpt lat="44.87687" lon="5.66824">
        <ele>790.4</ele>
        <time>2023-05-16T09:18:30.568Z</time>
      </trkpt>
      <trkpt lat="44.87685" lon="5.6682">
        <ele>789.9</ele>
        <time>2023-05-16T09:18:31.650Z</time>
      </trkpt>
      <trkpt lat="44.87682" lon="5.66821">
        <ele>788.7</ele>
        <time>2023-05-16T09:18:32.612Z</time>
      </trkpt>
      <trkpt lat="44.87679" lon="5.66822">
        <ele>787.5</ele>
        <time>2023-05-16T09:18:33.573Z</time>
      </trkpt>
      <trkpt lat="44.87676" lon="5.66822">
        <ele>785.5</ele>
        <time>2023-05-16T09:18:34.509Z</time>
      </trkpt>
      <trkpt lat="44.87673" lon="5.66823">
        <ele>785.4</ele>
        <time>2023-05-16T09:18:35.505Z</time>
      </trkpt>
      <trkpt lat="44.8767" lon="5.66825">
        <ele>784.9</ele>
        <time>2023-05-16T09:18:36.540Z</time>
      </trkpt>
      <trkpt lat="44.8767" lon="5.6683">
        <ele>784.4</ele>
        <time>2023-05-16T09:18:37.645Z</time>
      </trkpt>
      <trkpt lat="44.87671" lon="5.66838">
        <ele>783.5</ele>
        <time>2023-05-16T09:18:39.441Z</time>
      </trkpt>
      <trkpt lat="44.87672" lon="5.66843">
        <ele>783.1</ele>
        <time>2023-05-16T09:18:40.589Z</time>
      </trkpt>
      <trkpt lat="44.87673" lon="5.66847">
        <ele>782.7</ele>
        <time>2023-05-16T09:18:41.526Z</time>
      </trkpt>
      <trkpt lat="44.87673" lon="5.66851">
        <ele>782.3</ele>
        <time>2023-05-16T09:18:42.410Z</time>
      </trkpt>
      <trkpt lat="44.87673" lon="5.66855">
        <ele>782</ele>
        <time>2023-05-16T09:18:43.295Z</time>
      </trkpt>
      <trkpt lat="44.87673" lon="5.66861">
        <ele>781.4</ele>
        <time>2023-05-16T09:18:44.621Z</time>
      </trkpt>
      <trkpt lat="44.87674" lon="5.66869">
        <ele>780.8</ele>
        <time>2023-05-16T09:18:46.416Z</time>
      </trkpt>
      <trkpt lat="44.87674" lon="5.66873">
        <ele>780.5</ele>
        <time>2023-05-16T09:18:47.300Z</time>
      </trkpt>
      <trkpt lat="44.87675" lon="5.66877">
        <ele>780.2</ele>
        <time>2023-05-16T09:18:48.238Z</time>
      </trkpt>
      <trkpt lat="44.87676" lon="5.66881">
        <ele>780</ele>
        <time>2023-05-16T09:18:49.175Z</time>
      </trkpt>
      <trkpt lat="44.87677" lon="5.66886">
        <ele>779.9</ele>
        <time>2023-05-16T09:18:50.384Z</time>
      </trkpt>
      <trkpt lat="44.87678" lon="5.66893">
        <ele>779.7</ele>
        <time>2023-05-16T09:18:51.986Z</time>
      </trkpt>
      <trkpt lat="44.87678" lon="5.66898">
        <ele>779.6</ele>
        <time>2023-05-16T09:18:53.145Z</time>
      </trkpt>
      <trkpt lat="44.87676" lon="5.66903">
        <ele>779.4</ele>
        <time>2023-05-16T09:18:54.414Z</time>
      </trkpt>
      <trkpt lat="44.8767" lon="5.66908">
        <ele>779.4</ele>
        <time>2023-05-16T09:18:56.898Z</time>
      </trkpt>
      <trkpt lat="44.87664" lon="5.66912">
        <ele>779.8</ele>
        <time>2023-05-16T09:18:59.766Z</time>
      </trkpt>
      <trkpt lat="44.87659" lon="5.66916">
        <ele>780</ele>
        <time>2023-05-16T09:19:02.052Z</time>
      </trkpt>
      <trkpt lat="44.87653" lon="5.6692">
        <ele>774</ele>
        <time>2023-05-16T09:19:04.122Z</time>
      </trkpt>
      <trkpt lat="44.87649" lon="5.66921">
        <ele>772.8</ele>
        <time>2023-05-16T09:19:05.389Z</time>
      </trkpt>
      <trkpt lat="44.87644" lon="5.66923">
        <ele>771.8</ele>
        <time>2023-05-16T09:19:07.010Z</time>
      </trkpt>
      <trkpt lat="44.87642" lon="5.66928">
        <ele>771</ele>
        <time>2023-05-16T09:19:08.279Z</time>
      </trkpt>
      <trkpt lat="44.87639" lon="5.66934">
        <ele>770.1</ele>
        <time>2023-05-16T09:19:09.902Z</time>
      </trkpt>
      <trkpt lat="44.87636" lon="5.66939">
        <ele>769.3</ele>
        <time>2023-05-16T09:19:11.350Z</time>
      </trkpt>
      <trkpt lat="44.87636" lon="5.66947">
        <ele>767.9</ele>
        <time>2023-05-16T09:19:13.118Z</time>
      </trkpt>
      <trkpt lat="44.87632" lon="5.66954">
        <ele>766</ele>
        <time>2023-05-16T09:19:15.105Z</time>
      </trkpt>
      <trkpt lat="44.87628" lon="5.66957">
        <ele>764.9</ele>
        <time>2023-05-16T09:19:16.518Z</time>
      </trkpt>
      <trkpt lat="44.87623" lon="5.66958">
        <ele>763.8</ele>
        <time>2023-05-16T09:19:18.093Z</time>
      </trkpt>
      <trkpt lat="44.8762" lon="5.66956">
        <ele>762.9</ele>
        <time>2023-05-16T09:19:19.128Z</time>
      </trkpt>
      <trkpt lat="44.87616" lon="5.66957">
        <ele>761.7</ele>
        <time>2023-05-16T09:19:20.395Z</time>
      </trkpt>
      <trkpt lat="44.87612" lon="5.66959">
        <ele>760.6</ele>
        <time>2023-05-16T09:19:21.719Z</time>
      </trkpt>
      <trkpt lat="44.87607" lon="5.6696">
        <ele>759.6</ele>
        <time>2023-05-16T09:19:23.294Z</time>
      </trkpt>
      <trkpt lat="44.87602" lon="5.66962">
        <ele>759.2</ele>
        <time>2023-05-16T09:19:24.915Z</time>
      </trkpt>
      <trkpt lat="44.87597" lon="5.66964">
        <ele>758.8</ele>
        <time>2023-05-16T09:19:26.536Z</time>
      </trkpt>
      <trkpt lat="44.87593" lon="5.66968">
        <ele>758.6</ele>
        <time>2023-05-16T09:19:28.082Z</time>
      </trkpt>
      <trkpt lat="44.87592" lon="5.66972">
        <ele>758.5</ele>
        <time>2023-05-16T09:19:29.051Z</time>
      </trkpt>
      <trkpt lat="44.87592" lon="5.66982">
        <ele>758.2</ele>
        <time>2023-05-16T09:19:31.276Z</time>
      </trkpt>
      <trkpt lat="44.87592" lon="5.66989">
        <ele>757.9</ele>
        <time>2023-05-16T09:19:32.823Z</time>
      </trkpt>
      <trkpt lat="44.87593" lon="5.66997">
        <ele>757.8</ele>
        <time>2023-05-16T09:19:34.769Z</time>
      </trkpt>
      <trkpt lat="44.87595" lon="5.67006">
        <ele>757.6</ele>
        <time>2023-05-16T09:19:36.946Z</time>
      </trkpt>
      <trkpt lat="44.87597" lon="5.67013">
        <ele>757.3</ele>
        <time>2023-05-16T09:19:38.614Z</time>
      </trkpt>
      <trkpt lat="44.87595" lon="5.67017">
        <ele>757.1</ele>
        <time>2023-05-16T09:19:39.696Z</time>
      </trkpt>
      <trkpt lat="44.87598" lon="5.6702">
        <ele>756.9</ele>
        <time>2023-05-16T09:19:40.843Z</time>
      </trkpt>
      <trkpt lat="44.87602" lon="5.6702">
        <ele>756.6</ele>
        <time>2023-05-16T09:19:42.090Z</time>
      </trkpt>
      <trkpt lat="44.87603" lon="5.67024">
        <ele>756.2</ele>
        <time>2023-05-16T09:19:43.028Z</time>
      </trkpt>
      <trkpt lat="44.87604" lon="5.67032">
        <ele>755.4</ele>
        <time>2023-05-16T09:19:44.823Z</time>
      </trkpt>
      <trkpt lat="44.87609" lon="5.67035">
        <ele>755</ele>
        <time>2023-05-16T09:19:46.518Z</time>
      </trkpt>
      <trkpt lat="44.87611" lon="5.67043">
        <ele>754.4</ele>
        <time>2023-05-16T09:19:48.393Z</time>
      </trkpt>
      <trkpt lat="44.87611" lon="5.67047">
        <ele>753.9</ele>
        <time>2023-05-16T09:19:49.277Z</time>
      </trkpt>
      <trkpt lat="44.87611" lon="5.67052">
        <ele>753.4</ele>
        <time>2023-05-16T09:19:50.382Z</time>
      </trkpt>
      <trkpt lat="44.8761" lon="5.67059">
        <ele>752.5</ele>
        <time>2023-05-16T09:19:51.960Z</time>
      </trkpt>
      <trkpt lat="44.87611" lon="5.67063">
        <ele>751.8</ele>
        <time>2023-05-16T09:19:52.898Z</time>
      </trkpt>
      <trkpt lat="44.87614" lon="5.6707">
        <ele>750.3</ele>
        <time>2023-05-16T09:19:54.706Z</time>
      </trkpt>
      <trkpt lat="44.87616" lon="5.67078">
        <ele>748.6</ele>
        <time>2023-05-16T09:19:56.581Z</time>
      </trkpt>
      <trkpt lat="44.87619" lon="5.67082">
        <ele>747.5</ele>
        <time>2023-05-16T09:19:57.868Z</time>
      </trkpt>
      <trkpt lat="44.87618" lon="5.67086">
        <ele>746.8</ele>
        <time>2023-05-16T09:19:58.806Z</time>
      </trkpt>
      <trkpt lat="44.87618" lon="5.6709">
        <ele>746.2</ele>
        <time>2023-05-16T09:19:59.690Z</time>
      </trkpt>
      <trkpt lat="44.87611" lon="5.6709">
        <ele>745</ele>
        <time>2023-05-16T09:20:01.873Z</time>
      </trkpt>
      <trkpt lat="44.87602" lon="5.67091">
        <ele>743.4</ele>
        <time>2023-05-16T09:20:04.689Z</time>
      </trkpt>
      <trkpt lat="44.87585" lon="5.6709">
        <ele>740.4</ele>
        <time>2023-05-16T09:20:09.996Z</time>
      </trkpt>
      <trkpt lat="44.87578" lon="5.67089">
        <ele>738.9</ele>
        <time>2023-05-16T09:20:12.190Z</time>
      </trkpt>
      <trkpt lat="44.87571" lon="5.67089">
        <ele>737.4</ele>
        <time>2023-05-16T09:20:14.374Z</time>
      </trkpt>
      <trkpt lat="44.87565" lon="5.67089">
        <ele>736</ele>
        <time>2023-05-16T09:20:16.245Z</time>
      </trkpt>
      <trkpt lat="44.87558" lon="5.67086">
        <ele>734.2</ele>
        <time>2023-05-16T09:20:18.527Z</time>
      </trkpt>
      <trkpt lat="44.8755" lon="5.67086">
        <ele>732.2</ele>
        <time>2023-05-16T09:20:21.022Z</time>
      </trkpt>
      <trkpt lat="44.87544" lon="5.67085">
        <ele>730.7</ele>
        <time>2023-05-16T09:20:22.906Z</time>
      </trkpt>
      <trkpt lat="44.87539" lon="5.67084">
        <ele>729.3</ele>
        <time>2023-05-16T09:20:24.481Z</time>
      </trkpt>
      <trkpt lat="44.87533" lon="5.67085">
        <ele>727.8</ele>
        <time>2023-05-16T09:20:26.366Z</time>
      </trkpt>
      <trkpt lat="44.87529" lon="5.67083">
        <ele>726.7</ele>
        <time>2023-05-16T09:20:27.689Z</time>
      </trkpt>
      <trkpt lat="44.87526" lon="5.67082">
        <ele>726.1</ele>
        <time>2023-05-16T09:20:28.651Z</time>
      </trkpt>
      <trkpt lat="44.87522" lon="5.67083">
        <ele>725</ele>
        <time>2023-05-16T09:20:29.918Z</time>
      </trkpt>
      <trkpt lat="44.87517" lon="5.67082">
        <ele>723.8</ele>
        <time>2023-05-16T09:20:31.493Z</time>
      </trkpt>
      <trkpt lat="44.87514" lon="5.67081">
        <ele>722.9</ele>
        <time>2023-05-16T09:20:32.454Z</time>
      </trkpt>
      <trkpt lat="44.8751" lon="5.67079">
        <ele>721.8</ele>
        <time>2023-05-16T09:20:33.778Z</time>
      </trkpt>
      <trkpt lat="44.87507" lon="5.67083">
        <ele>720.7</ele>
        <time>2023-05-16T09:20:35.065Z</time>
      </trkpt>
      <trkpt lat="44.87503" lon="5.67084">
        <ele>719.3</ele>
        <time>2023-05-16T09:20:36.332Z</time>
      </trkpt>
      <trkpt lat="44.875" lon="5.67085">
        <ele>718.2</ele>
        <time>2023-05-16T09:20:37.294Z</time>
      </trkpt>
      <trkpt lat="44.87497" lon="5.67085">
        <ele>717</ele>
        <time>2023-05-16T09:20:38.229Z</time>
      </trkpt>
      <trkpt lat="44.87492" lon="5.67085">
        <ele>716</ele>
        <time>2023-05-16T09:20:39.789Z</time>
      </trkpt>
      <trkpt lat="44.87488" lon="5.67083">
        <ele>715.2</ele>
        <time>2023-05-16T09:20:41.113Z</time>
      </trkpt>
      <trkpt lat="44.87483" lon="5.67083">
        <ele>713.8</ele>
        <time>2023-05-16T09:20:42.672Z</time>
      </trkpt>
      <trkpt lat="44.87477" lon="5.6708">
        <ele>712</ele>
        <time>2023-05-16T09:20:44.657Z</time>
      </trkpt>
      <trkpt lat="44.87471" lon="5.67073">
        <ele>709.4</ele>
        <time>2023-05-16T09:20:47.086Z</time>
      </trkpt>
      <trkpt lat="44.87466" lon="5.67071">
        <ele>708.1</ele>
        <time>2023-05-16T09:20:48.707Z</time>
      </trkpt>
      <trkpt lat="44.87463" lon="5.67068">
        <ele>707.2</ele>
        <time>2023-05-16T09:20:49.853Z</time>
      </trkpt>
      <trkpt lat="44.8746" lon="5.67068">
        <ele>706.5</ele>
        <time>2023-05-16T09:20:50.789Z</time>
      </trkpt>
      <trkpt lat="44.87457" lon="5.67071">
        <ele>705.4</ele>
        <time>2023-05-16T09:20:51.936Z</time>
      </trkpt>
      <trkpt lat="44.87452" lon="5.67074">
        <ele>704</ele>
        <time>2023-05-16T09:20:53.630Z</time>
      </trkpt>
      <trkpt lat="44.87447" lon="5.67076">
        <ele>704</ele>
        <time>2023-05-16T09:20:55.483Z</time>
      </trkpt>
      <trkpt lat="44.87444" lon="5.67076">
        <ele>703.9</ele>
        <time>2023-05-16T09:20:56.450Z</time>
      </trkpt>
      <trkpt lat="44.8744" lon="5.67078">
        <ele>703.7</ele>
        <time>2023-05-16T09:20:57.774Z</time>
      </trkpt>
      <trkpt lat="44.87437" lon="5.67079">
        <ele>703.5</ele>
        <time>2023-05-16T09:20:58.735Z</time>
      </trkpt>
      <trkpt lat="44.87434" lon="5.67081">
        <ele>703.2</ele>
        <time>2023-05-16T09:20:59.770Z</time>
      </trkpt>
      <trkpt lat="44.8743" lon="5.67083">
        <ele>702.7</ele>
        <time>2023-05-16T09:21:01.094Z</time>
      </trkpt>
      <trkpt lat="44.87427" lon="5.67085">
        <ele>702.3</ele>
        <time>2023-05-16T09:21:02.128Z</time>
      </trkpt>
      <trkpt lat="44.87423" lon="5.67086">
        <ele>701.9</ele>
        <time>2023-05-16T09:21:03.396Z</time>
      </trkpt>
      <trkpt lat="44.8742" lon="5.67087">
        <ele>701.5</ele>
        <time>2023-05-16T09:21:04.357Z</time>
      </trkpt>
      <trkpt lat="44.87417" lon="5.67089">
        <ele>701</ele>
        <time>2023-05-16T09:21:05.392Z</time>
      </trkpt>
      <trkpt lat="44.87413" lon="5.6709">
        <ele>700.5</ele>
        <time>2023-05-16T09:21:06.659Z</time>
      </trkpt>
      <trkpt lat="44.8741" lon="5.6709">
        <ele>700.1</ele>
        <time>2023-05-16T09:21:07.595Z</time>
      </trkpt>
      <trkpt lat="44.87406" lon="5.67091">
        <ele>699.7</ele>
        <time>2023-05-16T09:21:08.862Z</time>
      </trkpt>
      <trkpt lat="44.87402" lon="5.67092">
        <ele>699.4</ele>
        <time>2023-05-16T09:21:10.129Z</time>
      </trkpt>
      <trkpt lat="44.87386" lon="5.67093">
        <ele>698.3</ele>
        <time>2023-05-16T09:21:15.124Z</time>
      </trkpt>
      <trkpt lat="44.87374" lon="5.67095">
        <ele>697.8</ele>
        <time>2023-05-16T09:21:18.928Z</time>
      </trkpt>
      <trkpt lat="44.87369" lon="5.67097">
        <ele>697.7</ele>
        <time>2023-05-16T09:21:20.675Z</time>
      </trkpt>
      <trkpt lat="44.87363" lon="5.671">
        <ele>697.7</ele>
        <time>2023-05-16T09:21:22.944Z</time>
      </trkpt>
      <trkpt lat="44.87355" lon="5.671">
        <ele>697.3</ele>
        <time>2023-05-16T09:21:25.440Z</time>
      </trkpt>
      <trkpt lat="44.87347" lon="5.671">
        <ele>697.2</ele>
        <time>2023-05-16T09:21:28.184Z</time>
      </trkpt>
      <trkpt lat="44.87338" lon="5.67099">
        <ele>697.5</ele>
        <time>2023-05-16T09:21:31.757Z</time>
      </trkpt>
      <trkpt lat="44.8733" lon="5.671">
        <ele>697.8</ele>
        <time>2023-05-16T09:21:34.977Z</time>
      </trkpt>
      <trkpt lat="44.87321" lon="5.671">
        <ele>698.2</ele>
        <time>2023-05-16T09:21:38.670Z</time>
      </trkpt>
      <trkpt lat="44.87313" lon="5.67102">
        <ele>699</ele>
        <time>2023-05-16T09:21:42.668Z</time>
      </trkpt>
      <trkpt lat="44.87306" lon="5.67102">
        <ele>699.5</ele>
        <time>2023-05-16T09:21:45.809Z</time>
      </trkpt>
      <trkpt lat="44.87299" lon="5.67103">
        <ele>699.9</ele>
        <time>2023-05-16T09:21:48.815Z</time>
      </trkpt>
      <trkpt lat="44.87294" lon="5.67102">
        <ele>700.1</ele>
        <time>2023-05-16T09:21:50.855Z</time>
      </trkpt>
      <trkpt lat="44.87289" lon="5.67101">
        <ele>700.4</ele>
        <time>2023-05-16T09:21:53.031Z</time>
      </trkpt>
      <trkpt lat="44.87285" lon="5.67099">
        <ele>700.5</ele>
        <time>2023-05-16T09:21:54.660Z</time>
      </trkpt>
      <trkpt lat="44.87281" lon="5.67098">
        <ele>700.7</ele>
        <time>2023-05-16T09:21:56.353Z</time>
      </trkpt>
      <trkpt lat="44.87277" lon="5.67095">
        <ele>700.8</ele>
        <time>2023-05-16T09:21:58.082Z</time>
      </trkpt>
      <trkpt lat="44.87274" lon="5.67094">
        <ele>700.8</ele>
        <time>2023-05-16T09:21:59.181Z</time>
      </trkpt>
      <trkpt lat="44.87271" lon="5.67092">
        <ele>700.8</ele>
        <time>2023-05-16T09:22:00.364Z</time>
      </trkpt>
      <trkpt lat="44.87268" lon="5.6709">
        <ele>700.6</ele>
        <time>2023-05-16T09:22:01.399Z</time>
      </trkpt>
      <trkpt lat="44.87265" lon="5.67088">
        <ele>700.4</ele>
        <time>2023-05-16T09:22:02.434Z</time>
      </trkpt>
      <trkpt lat="44.87263" lon="5.67082">
        <ele>700.1</ele>
        <time>2023-05-16T09:22:03.899Z</time>
      </trkpt>
      <trkpt lat="44.87261" lon="5.67078">
        <ele>700.4</ele>
        <time>2023-05-16T09:22:05.537Z</time>
      </trkpt>
      <trkpt lat="44.87257" lon="5.67075">
        <ele>700.7</ele>
        <time>2023-05-16T09:22:07.534Z</time>
      </trkpt>
      <trkpt lat="44.87254" lon="5.67075">
        <ele>700.6</ele>
        <time>2023-05-16T09:22:08.501Z</time>
      </trkpt>
      <trkpt lat="44.87251" lon="5.67076">
        <ele>700.4</ele>
        <time>2023-05-16T09:22:09.463Z</time>
      </trkpt>
      <trkpt lat="44.87253" lon="5.67088">
        <ele>701.3</ele>
        <time>2023-05-16T09:22:13.831Z</time>
      </trkpt>
      <trkpt lat="44.87254" lon="5.67104">
        <ele>702.3</ele>
        <time>2023-05-16T09:22:19.231Z</time>
      </trkpt>
      <trkpt lat="44.87258" lon="5.67108">
        <ele>702.4</ele>
        <time>2023-05-16T09:22:21.093Z</time>
      </trkpt>
      <trkpt lat="44.87258" lon="5.67114">
        <ele>702.4</ele>
        <time>2023-05-16T09:22:22.609Z</time>
      </trkpt>
      <trkpt lat="44.87259" lon="5.6712">
        <ele>702.3</ele>
        <time>2023-05-16T09:22:24.062Z</time>
      </trkpt>
      <trkpt lat="44.87258" lon="5.67124">
        <ele>702.1</ele>
        <time>2023-05-16T09:22:24.999Z</time>
      </trkpt>
      <trkpt lat="44.87255" lon="5.67125">
        <ele>702</ele>
        <time>2023-05-16T09:22:25.996Z</time>
      </trkpt>
      <trkpt lat="44.87254" lon="5.67134">
        <ele>701.5</ele>
        <time>2023-05-16T09:22:28.009Z</time>
      </trkpt>
      <trkpt lat="44.87253" lon="5.67141">
        <ele>701.5</ele>
        <time>2023-05-16T09:22:29.813Z</time>
      </trkpt>
      <trkpt lat="44.87255" lon="5.67151">
        <ele>702</ele>
        <time>2023-05-16T09:22:33.078Z</time>
      </trkpt>
      <trkpt lat="44.87257" lon="5.67154">
        <ele>701.1</ele>
        <time>2023-05-16T09:22:33.988Z</time>
      </trkpt>
      <trkpt lat="44.87258" lon="5.67159">
        <ele>700.4</ele>
        <time>2023-05-16T09:22:35.136Z</time>
      </trkpt>
      <trkpt lat="44.87258" lon="5.67163">
        <ele>699.7</ele>
        <time>2023-05-16T09:22:36.021Z</time>
      </trkpt>
      <trkpt lat="44.8726" lon="5.67168">
        <ele>699.2</ele>
        <time>2023-05-16T09:22:37.290Z</time>
      </trkpt>
      <trkpt lat="44.87261" lon="5.67173">
        <ele>698.5</ele>
        <time>2023-05-16T09:22:38.438Z</time>
      </trkpt>
      <trkpt lat="44.87262" lon="5.67177">
        <ele>697.7</ele>
        <time>2023-05-16T09:22:39.376Z</time>
      </trkpt>
      <trkpt lat="44.87264" lon="5.6718">
        <ele>696.9</ele>
        <time>2023-05-16T09:22:40.286Z</time>
      </trkpt>
      <trkpt lat="44.87264" lon="5.67184">
        <ele>696.8</ele>
        <time>2023-05-16T09:22:41.195Z</time>
      </trkpt>
      <trkpt lat="44.87264" lon="5.67189">
        <ele>696.7</ele>
        <time>2023-05-16T09:22:42.354Z</time>
      </trkpt>
      <trkpt lat="44.87262" lon="5.67192">
        <ele>695.8</ele>
        <time>2023-05-16T09:22:43.265Z</time>
      </trkpt>
      <trkpt lat="44.87259" lon="5.67197">
        <ele>694.5</ele>
        <time>2023-05-16T09:22:44.713Z</time>
      </trkpt>
      <trkpt lat="44.87258" lon="5.67203">
        <ele>692.7</ele>
        <time>2023-05-16T09:22:46.075Z</time>
      </trkpt>
      <trkpt lat="44.87258" lon="5.67208">
        <ele>691.4</ele>
        <time>2023-05-16T09:22:47.180Z</time>
      </trkpt>
      <trkpt lat="44.87262" lon="5.67213">
        <ele>690.2</ele>
        <time>2023-05-16T09:22:48.847Z</time>
      </trkpt>
      <trkpt lat="44.87265" lon="5.67218">
        <ele>690.3</ele>
        <time>2023-05-16T09:22:50.617Z</time>
      </trkpt>
      <trkpt lat="44.87267" lon="5.67224">
        <ele>691.2</ele>
        <time>2023-05-16T09:22:53.875Z</time>
      </trkpt>
      <trkpt lat="44.87271" lon="5.67233">
        <ele>693.8</ele>
        <time>2023-05-16T09:23:03.666Z</time>
      </trkpt>
      <trkpt lat="44.87275" lon="5.67238">
        <ele>696.2</ele>
        <time>2023-05-16T09:23:13.667Z</time>
      </trkpt>
      <trkpt lat="44.8728" lon="5.67242">
        <ele>698.9</ele>
        <time>2023-05-16T09:23:24.423Z</time>
      </trkpt>
      <trkpt lat="44.87285" lon="5.67247">
        <ele>699.9</ele>
        <time>2023-05-16T09:23:28.235Z</time>
      </trkpt>
      <trkpt lat="44.87291" lon="5.6725">
        <ele>702.4</ele>
        <time>2023-05-16T09:23:38.227Z</time>
      </trkpt>
      <trkpt lat="44.87297" lon="5.67253">
        <ele>705.2</ele>
        <time>2023-05-16T09:23:49.988Z</time>
      </trkpt>
      <trkpt lat="44.87302" lon="5.67255">
        <ele>707.4</ele>
        <time>2023-05-16T09:23:59.092Z</time>
      </trkpt>
      <trkpt lat="44.87306" lon="5.6726">
        <ele>709.6</ele>
        <time>2023-05-16T09:24:08.084Z</time>
      </trkpt>
      <trkpt lat="44.87301" lon="5.67267">
        <ele>710</ele>
        <time>2023-05-16T09:24:11.093Z</time>
      </trkpt>
      <trkpt lat="44.87297" lon="5.67273">
        <ele>708.5</ele>
        <time>2023-05-16T09:24:12.914Z</time>
      </trkpt>
      <trkpt lat="44.87294" lon="5.67278">
        <ele>707.6</ele>
        <time>2023-05-16T09:24:14.362Z</time>
      </trkpt>
      <trkpt lat="44.87293" lon="5.67284">
        <ele>706.6</ele>
        <time>2023-05-16T09:24:15.725Z</time>
      </trkpt>
      <trkpt lat="44.87292" lon="5.67288">
        <ele>705.9</ele>
        <time>2023-05-16T09:24:16.662Z</time>
      </trkpt>
      <trkpt lat="44.87292" lon="5.67293">
        <ele>705</ele>
        <time>2023-05-16T09:24:17.767Z</time>
      </trkpt>
      <trkpt lat="44.8729" lon="5.67296">
        <ele>704.3</ele>
        <time>2023-05-16T09:24:18.678Z</time>
      </trkpt>
      <trkpt lat="44.87289" lon="5.673">
        <ele>703.5</ele>
        <time>2023-05-16T09:24:19.615Z</time>
      </trkpt>
      <trkpt lat="44.87289" lon="5.67304">
        <ele>702.6</ele>
        <time>2023-05-16T09:24:20.499Z</time>
      </trkpt>
      <trkpt lat="44.87288" lon="5.6731">
        <ele>701.5</ele>
        <time>2023-05-16T09:24:21.862Z</time>
      </trkpt>
      <trkpt lat="44.87286" lon="5.67315">
        <ele>700.5</ele>
        <time>2023-05-16T09:24:23.131Z</time>
      </trkpt>
      <trkpt lat="44.87285" lon="5.6732">
        <ele>699.6</ele>
        <time>2023-05-16T09:24:24.279Z</time>
      </trkpt>
      <trkpt lat="44.87286" lon="5.67325">
        <ele>699</ele>
        <time>2023-05-16T09:24:25.427Z</time>
      </trkpt>
      <trkpt lat="44.87287" lon="5.67329">
        <ele>698.6</ele>
        <time>2023-05-16T09:24:26.365Z</time>
      </trkpt>
      <trkpt lat="44.87287" lon="5.67334">
        <ele>696.7</ele>
        <time>2023-05-16T09:24:27.470Z</time>
      </trkpt>
      <trkpt lat="44.87285" lon="5.67338">
        <ele>689.9</ele>
        <time>2023-05-16T09:24:28.552Z</time>
      </trkpt>
      <trkpt lat="44.87282" lon="5.67341">
        <ele>681</ele>
        <time>2023-05-16T09:24:29.699Z</time>
      </trkpt>
      <trkpt lat="44.8728" lon="5.67346">
        <ele>660.1</ele>
        <time>2023-05-16T09:24:30.968Z</time>
      </trkpt>
      <trkpt lat="44.87283" lon="5.67352">
        <ele>627.8</ele>
        <time>2023-05-16T09:24:32.591Z</time>
      </trkpt>
      <trkpt lat="44.87285" lon="5.67355">
        <ele>614.5</ele>
        <time>2023-05-16T09:24:33.502Z</time>
      </trkpt>
      <trkpt lat="44.87288" lon="5.67358">
        <ele>633.5</ele>
        <time>2023-05-16T09:24:40.383Z</time>
      </trkpt>
      <trkpt lat="44.87291" lon="5.67357">
        <ele>648.9</ele>
        <time>2023-05-16T09:24:46.151Z</time>
      </trkpt>
      <trkpt lat="44.87293" lon="5.67359">
        <ele>646.7</ele>
        <time>2023-05-16T09:24:46.916Z</time>
      </trkpt>
      <trkpt lat="44.87296" lon="5.67361">
        <ele>658.4</ele>
        <time>2023-05-16T09:24:53.125Z</time>
      </trkpt>
      <trkpt lat="44.87298" lon="5.67363">
        <ele>664</ele>
        <time>2023-05-16T09:24:57.712Z</time>
      </trkpt>
      <trkpt lat="44.873" lon="5.67367">
        <ele>665.9</ele>
        <time>2023-05-16T09:25:04.205Z</time>
      </trkpt>
      <trkpt lat="44.87303" lon="5.67369">
        <ele>667.4</ele>
        <time>2023-05-16T09:25:10.414Z</time>
      </trkpt>
      <trkpt lat="44.87306" lon="5.67371">
        <ele>666.7</ele>
        <time>2023-05-16T09:25:11.449Z</time>
      </trkpt>
      <trkpt lat="44.87303" lon="5.67369">
        <ele>666.1</ele>
        <time>2023-05-16T09:25:12.484Z</time>
      </trkpt>
      <trkpt lat="44.873" lon="5.67367">
        <ele>665.7</ele>
        <time>2023-05-16T09:25:13.519Z</time>
      </trkpt>
      <trkpt lat="44.87297" lon="5.67364">
        <ele>660.3</ele>
        <time>2023-05-16T09:25:14.665Z</time>
      </trkpt>
      <trkpt lat="44.87293" lon="5.67361">
        <ele>641.1</ele>
        <time>2023-05-16T09:25:16.078Z</time>
      </trkpt>
      <trkpt lat="44.8729" lon="5.67359">
        <ele>640.5</ele>
        <time>2023-05-16T09:25:17.113Z</time>
      </trkpt>
      <trkpt lat="44.87287" lon="5.67357">
        <ele>605.8</ele>
        <time>2023-05-16T09:25:18.148Z</time>
      </trkpt>
      <trkpt lat="44.87284" lon="5.67355">
        <ele>582.3</ele>
        <time>2023-05-16T09:25:19.183Z</time>
      </trkpt>
      <trkpt lat="44.87282" lon="5.67352">
        <ele>584.7</ele>
        <time>2023-05-16T09:25:24.645Z</time>
      </trkpt>
      <trkpt lat="44.87284" lon="5.67355">
        <ele>581.1</ele>
        <time>2023-05-16T09:25:25.556Z</time>
      </trkpt>
      <trkpt lat="44.87287" lon="5.67357">
        <ele>603.4</ele>
        <time>2023-05-16T09:25:31.765Z</time>
      </trkpt>
      <trkpt lat="44.8729" lon="5.67357">
        <ele>622.4</ele>
        <time>2023-05-16T09:25:37.379Z</time>
      </trkpt>
      <trkpt lat="44.87293" lon="5.67359">
        <ele>636.2</ele>
        <time>2023-05-16T09:25:43.588Z</time>
      </trkpt>
      <trkpt lat="44.87296" lon="5.67361">
        <ele>647.8</ele>
        <time>2023-05-16T09:25:49.798Z</time>
      </trkpt>
      <trkpt lat="44.87299" lon="5.67361">
        <ele>655.6</ele>
        <time>2023-05-16T09:25:55.412Z</time>
      </trkpt>
      <trkpt lat="44.87297" lon="5.67364">
        <ele>652.9</ele>
        <time>2023-05-16T09:25:56.322Z</time>
      </trkpt>
      <trkpt lat="44.87298" lon="5.67367">
        <ele>650</ele>
        <time>2023-05-16T09:25:57.055Z</time>
      </trkpt>
      <trkpt lat="44.87301" lon="5.67369">
        <ele>654.2</ele>
        <time>2023-05-16T09:26:03.264Z</time>
      </trkpt>
      <trkpt lat="44.87304" lon="5.6737">
        <ele>655.6</ele>
        <time>2023-05-16T09:26:09.033Z</time>
      </trkpt>
      <trkpt lat="44.87306" lon="5.67372">
        <ele>653</ele>
        <time>2023-05-16T09:26:09.797Z</time>
      </trkpt>
      <trkpt lat="44.87309" lon="5.67374">
        <ele>650.9</ele>
        <time>2023-05-16T09:26:10.832Z</time>
      </trkpt>
      <trkpt lat="44.87311" lon="5.67375">
        <ele>648.7</ele>
        <time>2023-05-16T09:26:11.494Z</time>
      </trkpt>
      <trkpt lat="44.87309" lon="5.67378">
        <ele>648.1</ele>
        <time>2023-05-16T09:26:12.404Z</time>
      </trkpt>
      <trkpt lat="44.8731" lon="5.67382">
        <ele>645.9</ele>
        <time>2023-05-16T09:26:13.342Z</time>
      </trkpt>
      <trkpt lat="44.87313" lon="5.67384">
        <ele>642.2</ele>
        <time>2023-05-16T09:26:14.377Z</time>
      </trkpt>
      <trkpt lat="44.8731" lon="5.67385">
        <ele>643.3</ele>
        <time>2023-05-16T09:26:18.579Z</time>
      </trkpt>
      <trkpt lat="44.87307" lon="5.67385">
        <ele>643.6</ele>
        <time>2023-05-16T09:26:20.063Z</time>
      </trkpt>
      <trkpt lat="44.87303" lon="5.67384">
        <ele>642.4</ele>
        <time>2023-05-16T09:26:21.330Z</time>
      </trkpt>
      <trkpt lat="44.873" lon="5.67384">
        <ele>641</ele>
        <time>2023-05-16T09:26:22.266Z</time>
      </trkpt>
      <trkpt lat="44.87297" lon="5.67383">
        <ele>635.6</ele>
        <time>2023-05-16T09:26:23.227Z</time>
      </trkpt>
      <trkpt lat="44.87294" lon="5.67382">
        <ele>627.6</ele>
        <time>2023-05-16T09:26:24.189Z</time>
      </trkpt>
      <trkpt lat="44.87297" lon="5.67383">
        <ele>634.4</ele>
        <time>2023-05-16T09:26:29.957Z</time>
      </trkpt>
      <trkpt lat="44.873" lon="5.67385">
        <ele>636.8</ele>
        <time>2023-05-16T09:26:36.166Z</time>
      </trkpt>
      <trkpt lat="44.87303" lon="5.67389">
        <ele>637.3</ele>
        <time>2023-05-16T09:26:38.367Z</time>
      </trkpt>
      <trkpt lat="44.87307" lon="5.67392">
        <ele>637.3</ele>
        <time>2023-05-16T09:26:39.982Z</time>
      </trkpt>
      <trkpt lat="44.87311" lon="5.67395">
        <ele>634.8</ele>
        <time>2023-05-16T09:26:41.395Z</time>
      </trkpt>
      <trkpt lat="44.87313" lon="5.67397">
        <ele>631.3</ele>
        <time>2023-05-16T09:26:42.159Z</time>
      </trkpt>
      <trkpt lat="44.87316" lon="5.674">
        <ele>628.6</ele>
        <time>2023-05-16T09:26:43.306Z</time>
      </trkpt>
      <trkpt lat="44.87319" lon="5.67402">
        <ele>625.1</ele>
        <time>2023-05-16T09:26:44.341Z</time>
      </trkpt>
      <trkpt lat="44.87322" lon="5.67404">
        <ele>623.8</ele>
        <time>2023-05-16T09:26:45.376Z</time>
      </trkpt>
      <trkpt lat="44.87339" lon="5.67419">
        <ele>627.1</ele>
        <time>2023-05-16T09:26:57.916Z</time>
      </trkpt>
      <trkpt lat="44.87343" lon="5.67421">
        <ele>628.2</ele>
        <time>2023-05-16T09:27:01.774Z</time>
      </trkpt>
      <trkpt lat="44.87347" lon="5.67423">
        <ele>627.6</ele>
        <time>2023-05-16T09:27:03.098Z</time>
      </trkpt>
      <trkpt lat="44.87348" lon="5.67426">
        <ele>627.9</ele>
        <time>2023-05-16T09:27:04.380Z</time>
      </trkpt>
      <trkpt lat="44.8735" lon="5.67431">
        <ele>624.6</ele>
        <time>2023-05-16T09:27:05.649Z</time>
      </trkpt>
      <trkpt lat="44.87353" lon="5.67437">
        <ele>623.2</ele>
        <time>2023-05-16T09:27:07.272Z</time>
      </trkpt>
      <trkpt lat="44.87355" lon="5.67443">
        <ele>621.8</ele>
        <time>2023-05-16T09:27:08.738Z</time>
      </trkpt>
      <trkpt lat="44.87357" lon="5.6745">
        <ele>618.1</ele>
        <time>2023-05-16T09:27:10.406Z</time>
      </trkpt>
      <trkpt lat="44.87362" lon="5.67453">
        <ele>618</ele>
        <time>2023-05-16T09:27:12.238Z</time>
      </trkpt>
      <trkpt lat="44.87365" lon="5.67456">
        <ele>618.6</ele>
        <time>2023-05-16T09:27:14.525Z</time>
      </trkpt>
      <trkpt lat="44.8737" lon="5.67459">
        <ele>618.9</ele>
        <time>2023-05-16T09:27:16.834Z</time>
      </trkpt>
      <trkpt lat="44.87374" lon="5.67464">
        <ele>617.9</ele>
        <time>2023-05-16T09:27:18.501Z</time>
      </trkpt>
      <trkpt lat="44.87375" lon="5.67468">
        <ele>615.9</ele>
        <time>2023-05-16T09:27:19.439Z</time>
      </trkpt>
      <trkpt lat="44.87377" lon="5.67471">
        <ele>614.8</ele>
        <time>2023-05-16T09:27:20.349Z</time>
      </trkpt>
      <trkpt lat="44.87379" lon="5.67474">
        <ele>613.6</ele>
        <time>2023-05-16T09:27:21.259Z</time>
      </trkpt>
      <trkpt lat="44.87384" lon="5.67477">
        <ele>614</ele>
        <time>2023-05-16T09:27:23.715Z</time>
      </trkpt>
      <trkpt lat="44.87387" lon="5.67479">
        <ele>613</ele>
        <time>2023-05-16T09:27:24.750Z</time>
      </trkpt>
      <trkpt lat="44.87386" lon="5.67483">
        <ele>610.6</ele>
        <time>2023-05-16T09:27:25.687Z</time>
      </trkpt>
      <trkpt lat="44.87384" lon="5.67487">
        <ele>608.9</ele>
        <time>2023-05-16T09:27:26.769Z</time>
      </trkpt>
      <trkpt lat="44.87383" lon="5.67491">
        <ele>606.4</ele>
        <time>2023-05-16T09:27:27.707Z</time>
      </trkpt>
      <trkpt lat="44.87385" lon="5.67496">
        <ele>603.1</ele>
        <time>2023-05-16T09:27:28.976Z</time>
      </trkpt>
      <trkpt lat="44.87387" lon="5.67502">
        <ele>600.5</ele>
        <time>2023-05-16T09:27:30.441Z</time>
      </trkpt>
      <trkpt lat="44.87394" lon="5.67506">
        <ele>601.3</ele>
        <time>2023-05-16T09:27:34.256Z</time>
      </trkpt>
      <trkpt lat="44.87398" lon="5.67501">
        <ele>603.6</ele>
        <time>2023-05-16T09:27:43.839Z</time>
      </trkpt>
      <trkpt lat="44.874" lon="5.67506">
        <ele>602</ele>
        <time>2023-05-16T09:27:45.108Z</time>
      </trkpt>
      <trkpt lat="44.87401" lon="5.6751">
        <ele>599.4</ele>
        <time>2023-05-16T09:27:46.046Z</time>
      </trkpt>
      <trkpt lat="44.87402" lon="5.67517">
        <ele>596.7</ele>
        <time>2023-05-16T09:27:47.624Z</time>
      </trkpt>
      <trkpt lat="44.87405" lon="5.6752">
        <ele>594.8</ele>
        <time>2023-05-16T09:27:48.771Z</time>
      </trkpt>
      <trkpt lat="44.87409" lon="5.67521">
        <ele>592.9</ele>
        <time>2023-05-16T09:27:50.038Z</time>
      </trkpt>
      <trkpt lat="44.87412" lon="5.67522">
        <ele>594.4</ele>
        <time>2023-05-16T09:27:55.807Z</time>
      </trkpt>
      <trkpt lat="44.87415" lon="5.67524">
        <ele>594.9</ele>
        <time>2023-05-16T09:27:57.777Z</time>
      </trkpt>
      <trkpt lat="44.87415" lon="5.67529">
        <ele>591.8</ele>
        <time>2023-05-16T09:27:58.882Z</time>
      </trkpt>
      <trkpt lat="44.87415" lon="5.67533">
        <ele>588.5</ele>
        <time>2023-05-16T09:27:59.766Z</time>
      </trkpt>
      <trkpt lat="44.87417" lon="5.67537">
        <ele>585.2</ele>
        <time>2023-05-16T09:28:00.848Z</time>
      </trkpt>
      <trkpt lat="44.87422" lon="5.6754">
        <ele>584.1</ele>
        <time>2023-05-16T09:28:02.543Z</time>
      </trkpt>
      <trkpt lat="44.87426" lon="5.67542">
        <ele>584.6</ele>
        <time>2023-05-16T09:28:04.779Z</time>
      </trkpt>
      <trkpt lat="44.87431" lon="5.67545">
        <ele>583.4</ele>
        <time>2023-05-16T09:28:06.473Z</time>
      </trkpt>
      <trkpt lat="44.87437" lon="5.67551">
        <ele>582.3</ele>
        <time>2023-05-16T09:28:08.767Z</time>
      </trkpt>
      <trkpt lat="44.87441" lon="5.6756">
        <ele>574.8</ele>
        <time>2023-05-16T09:28:11.115Z</time>
      </trkpt>
      <trkpt lat="44.87445" lon="5.67562">
        <ele>575.2</ele>
        <time>2023-05-16T09:28:13.173Z</time>
      </trkpt>
      <trkpt lat="44.87448" lon="5.67562">
        <ele>575.7</ele>
        <time>2023-05-16T09:28:15.064Z</time>
      </trkpt>
      <trkpt lat="44.87451" lon="5.67562">
        <ele>576.1</ele>
        <time>2023-05-16T09:28:16.735Z</time>
      </trkpt>
      <trkpt lat="44.87454" lon="5.67561">
        <ele>576.5</ele>
        <time>2023-05-16T09:28:18.431Z</time>
      </trkpt>
      <trkpt lat="44.87452" lon="5.67563">
        <ele>575.9</ele>
        <time>2023-05-16T09:28:19.195Z</time>
      </trkpt>
      <trkpt lat="44.87451" lon="5.67568">
        <ele>571.4</ele>
        <time>2023-05-16T09:28:20.344Z</time>
      </trkpt>
      <trkpt lat="44.87449" lon="5.6757">
        <ele>567.9</ele>
        <time>2023-05-16T09:28:21.108Z</time>
      </trkpt>
      <trkpt lat="44.87445" lon="5.67573">
        <ele>562.4</ele>
        <time>2023-05-16T09:28:22.521Z</time>
      </trkpt>
      <trkpt lat="44.87441" lon="5.67575">
        <ele>560.8</ele>
        <time>2023-05-16T09:28:23.845Z</time>
      </trkpt>
      <trkpt lat="44.87436" lon="5.67577">
        <ele>558.4</ele>
        <time>2023-05-16T09:28:25.466Z</time>
      </trkpt>
      <trkpt lat="44.87427" lon="5.67574">
        <ele>555.2</ele>
        <time>2023-05-16T09:28:28.350Z</time>
      </trkpt>
      <trkpt lat="44.87422" lon="5.67575">
        <ele>553.7</ele>
        <time>2023-05-16T09:28:29.925Z</time>
      </trkpt>
      <trkpt lat="44.87419" lon="5.67576">
        <ele>552.2</ele>
        <time>2023-05-16T09:28:30.886Z</time>
      </trkpt>
      <trkpt lat="44.87416" lon="5.67575">
        <ele>550.8</ele>
        <time>2023-05-16T09:28:31.848Z</time>
      </trkpt>
      <trkpt lat="44.87412" lon="5.67575">
        <ele>548.5</ele>
        <time>2023-05-16T09:28:33.095Z</time>
      </trkpt>
      <trkpt lat="44.87407" lon="5.67574">
        <ele>547.2</ele>
        <time>2023-05-16T09:28:34.671Z</time>
      </trkpt>
      <trkpt lat="44.87401" lon="5.67576">
        <ele>545.3</ele>
        <time>2023-05-16T09:28:36.593Z</time>
      </trkpt>
      <trkpt lat="44.87397" lon="5.67578">
        <ele>540.9</ele>
        <time>2023-05-16T09:28:37.917Z</time>
      </trkpt>
      <trkpt lat="44.87394" lon="5.67582">
        <ele>537.6</ele>
        <time>2023-05-16T09:28:39.204Z</time>
      </trkpt>
      <trkpt lat="44.87388" lon="5.67584">
        <ele>535.7</ele>
        <time>2023-05-16T09:28:41.127Z</time>
      </trkpt>
      <trkpt lat="44.87383" lon="5.67586">
        <ele>531.1</ele>
        <time>2023-05-16T09:28:42.748Z</time>
      </trkpt>
      <trkpt lat="44.87378" lon="5.67589">
        <ele>529.5</ele>
        <time>2023-05-16T09:28:44.443Z</time>
      </trkpt>
      <trkpt lat="44.87372" lon="5.67591">
        <ele>525.5</ele>
        <time>2023-05-16T09:28:46.366Z</time>
      </trkpt>
      <trkpt lat="44.87365" lon="5.67594">
        <ele>521.4</ele>
        <time>2023-05-16T09:28:48.648Z</time>
      </trkpt>
      <trkpt lat="44.87358" lon="5.67596">
        <ele>519.3</ele>
        <time>2023-05-16T09:28:50.875Z</time>
      </trkpt>
      <trkpt lat="44.87348" lon="5.67595">
        <ele>517.2</ele>
        <time>2023-05-16T09:28:54.002Z</time>
      </trkpt>
      <trkpt lat="44.87341" lon="5.67597">
        <ele>514</ele>
        <time>2023-05-16T09:28:56.230Z</time>
      </trkpt>
      <trkpt lat="44.87334" lon="5.67598">
        <ele>514</ele>
        <time>2023-05-16T09:28:58.737Z</time>
      </trkpt>
      <trkpt lat="44.87329" lon="5.676">
        <ele>514</ele>
        <time>2023-05-16T09:29:00.590Z</time>
      </trkpt>
      <trkpt lat="44.87322" lon="5.676">
        <ele>514</ele>
        <time>2023-05-16T09:29:03.085Z</time>
      </trkpt>
      <trkpt lat="44.87317" lon="5.676">
        <ele>513.8</ele>
        <time>2023-05-16T09:29:04.666Z</time>
      </trkpt>
      <trkpt lat="44.87311" lon="5.67602">
        <ele>513.5</ele>
        <time>2023-05-16T09:29:06.589Z</time>
      </trkpt>
      <trkpt lat="44.87309" lon="5.67604">
        <ele>513.3</ele>
        <time>2023-05-16T09:29:07.353Z</time>
      </trkpt>
      <trkpt lat="44.87308" lon="5.67607">
        <ele>513.2</ele>
        <time>2023-05-16T09:29:08.090Z</time>
      </trkpt>
      <trkpt lat="44.87311" lon="5.67617">
        <ele>512.4</ele>
        <time>2023-05-16T09:29:10.491Z</time>
      </trkpt>
      <trkpt lat="44.87314" lon="5.67621">
        <ele>512</ele>
        <time>2023-05-16T09:29:11.778Z</time>
      </trkpt>
      <trkpt lat="44.87318" lon="5.67627">
        <ele>511.2</ele>
        <time>2023-05-16T09:29:13.599Z</time>
      </trkpt>
      <trkpt lat="44.8732" lon="5.67633">
        <ele>510.6</ele>
        <time>2023-05-16T09:29:15.064Z</time>
      </trkpt>
      <trkpt lat="44.87325" lon="5.67635">
        <ele>510.1</ele>
        <time>2023-05-16T09:29:16.685Z</time>
      </trkpt>
      <trkpt lat="44.87328" lon="5.67637">
        <ele>509.7</ele>
        <time>2023-05-16T09:29:17.720Z</time>
      </trkpt>
      <trkpt lat="44.87331" lon="5.67641">
        <ele>509.2</ele>
        <time>2023-05-16T09:29:19.007Z</time>
      </trkpt>
      <trkpt lat="44.87332" lon="5.67645">
        <ele>508.8</ele>
        <time>2023-05-16T09:29:19.945Z</time>
      </trkpt>
      <trkpt lat="44.87333" lon="5.67652">
        <ele>508.2</ele>
        <time>2023-05-16T09:29:21.523Z</time>
      </trkpt>
      <trkpt lat="44.87329" lon="5.67652">
        <ele>507.7</ele>
        <time>2023-05-16T09:29:22.771Z</time>
      </trkpt>
      <trkpt lat="44.87329" lon="5.67657">
        <ele>507.2</ele>
        <time>2023-05-16T09:29:23.876Z</time>
      </trkpt>
      <trkpt lat="44.87333" lon="5.67658">
        <ele>506.6</ele>
        <time>2023-05-16T09:29:25.143Z</time>
      </trkpt>
      <trkpt lat="44.87337" lon="5.67661">
        <ele>505.9</ele>
        <time>2023-05-16T09:29:26.556Z</time>
      </trkpt>
      <trkpt lat="44.8734" lon="5.67663">
        <ele>505.4</ele>
        <time>2023-05-16T09:29:27.591Z</time>
      </trkpt>
      <trkpt lat="44.87343" lon="5.67666">
        <ele>505</ele>
        <time>2023-05-16T09:29:28.738Z</time>
      </trkpt>
      <trkpt lat="44.87346" lon="5.6767">
        <ele>504.4</ele>
        <time>2023-05-16T09:29:30.025Z</time>
      </trkpt>
      <trkpt lat="44.87343" lon="5.67671">
        <ele>503.9</ele>
        <time>2023-05-16T09:29:30.986Z</time>
      </trkpt>
      <trkpt lat="44.87339" lon="5.67669">
        <ele>503.4</ele>
        <time>2023-05-16T09:29:32.310Z</time>
      </trkpt>
      <trkpt lat="44.87336" lon="5.67667">
        <ele>502.8</ele>
        <time>2023-05-16T09:29:33.345Z</time>
      </trkpt>
      <trkpt lat="44.87331" lon="5.67664">
        <ele>504.1</ele>
        <time>2023-05-16T09:29:37.899Z</time>
      </trkpt>
      <trkpt lat="44.87328" lon="5.67662">
        <ele>505.3</ele>
        <time>2023-05-16T09:29:42.510Z</time>
      </trkpt>
      <trkpt lat="44.87325" lon="5.6766">
        <ele>504.5</ele>
        <time>2023-05-16T09:29:43.545Z</time>
      </trkpt>
      <trkpt lat="44.87322" lon="5.67657">
        <ele>505.5</ele>
        <time>2023-05-16T09:29:47.069Z</time>
      </trkpt>
      <trkpt lat="44.87319" lon="5.67655">
        <ele>504.5</ele>
        <time>2023-05-16T09:29:48.104Z</time>
      </trkpt>
      <trkpt lat="44.87316" lon="5.67652">
        <ele>505.2</ele>
        <time>2023-05-16T09:29:50.642Z</time>
      </trkpt>
      <trkpt lat="44.87311" lon="5.67648">
        <ele>504.1</ele>
        <time>2023-05-16T09:29:52.435Z</time>
      </trkpt>
      <trkpt lat="44.87308" lon="5.67646">
        <ele>502.3</ele>
        <time>2023-05-16T09:29:53.470Z</time>
      </trkpt>
      <trkpt lat="44.87304" lon="5.67645">
        <ele>501.8</ele>
        <time>2023-05-16T09:29:54.737Z</time>
      </trkpt>
      <trkpt lat="44.87297" lon="5.67637">
        <ele>501.8</ele>
        <time>2023-05-16T09:29:57.947Z</time>
      </trkpt>
      <trkpt lat="44.87295" lon="5.67634">
        <ele>500.7</ele>
        <time>2023-05-16T09:29:58.858Z</time>
      </trkpt>
      <trkpt lat="44.87292" lon="5.6763">
        <ele>502.1</ele>
        <time>2023-05-16T09:30:04.091Z</time>
      </trkpt>
      <trkpt lat="44.87289" lon="5.67627">
        <ele>503.5</ele>
        <time>2023-05-16T09:30:09.604Z</time>
      </trkpt>
      <trkpt lat="44.87287" lon="5.67624">
        <ele>503.3</ele>
        <time>2023-05-16T09:30:10.514Z</time>
      </trkpt>
      <trkpt lat="44.87286" lon="5.67621">
        <ele>503.1</ele>
        <time>2023-05-16T09:30:11.247Z</time>
      </trkpt>
      <trkpt lat="44.87283" lon="5.67617">
        <ele>503.4</ele>
        <time>2023-05-16T09:30:13.107Z</time>
      </trkpt>
      <trkpt lat="44.87285" lon="5.67611">
        <ele>503.9</ele>
        <time>2023-05-16T09:30:15.484Z</time>
      </trkpt>
      <trkpt lat="44.87282" lon="5.67613">
        <ele>504.2</ele>
        <time>2023-05-16T09:30:17.072Z</time>
      </trkpt>
      <trkpt lat="44.87286" lon="5.67612">
        <ele>504.5</ele>
        <time>2023-05-16T09:30:18.910Z</time>
      </trkpt>
      <trkpt lat="44.87287" lon="5.67608">
        <ele>504.9</ele>
        <time>2023-05-16T09:30:20.583Z</time>
      </trkpt>
      <trkpt lat="44.87287" lon="5.67614">
        <ele>505.7</ele>
        <time>2023-05-16T09:30:23.492Z</time>
      </trkpt>
      <trkpt lat="44.8729" lon="5.67614">
        <ele>506.5</ele>
        <time>2023-05-16T09:30:26.305Z</time>
      </trkpt>
      <trkpt lat="44.87292" lon="5.67615">
        <ele>507.3</ele>
        <time>2023-05-16T09:30:29.440Z</time>
      </trkpt>
      <trkpt lat="44.87294" lon="5.67619">
        <ele>508</ele>
        <time>2023-05-16T09:30:31.944Z</time>
      </trkpt>
      <trkpt lat="44.87297" lon="5.67622">
        <ele>509</ele>
        <time>2023-05-16T09:30:35.468Z</time>
      </trkpt>
      <trkpt lat="44.87299" lon="5.67624">
        <ele>509.8</ele>
        <time>2023-05-16T09:30:38.415Z</time>
      </trkpt>
      <trkpt lat="44.87303" lon="5.67627">
        <ele>510.4</ele>
        <time>2023-05-16T09:30:40.931Z</time>
      </trkpt>
      <trkpt lat="44.87307" lon="5.67633">
        <ele>511.1</ele>
        <time>2023-05-16T09:30:44.029Z</time>
      </trkpt>
      <trkpt lat="44.87309" lon="5.67636">
        <ele>511.4</ele>
        <time>2023-05-16T09:30:45.488Z</time>
      </trkpt>
      <trkpt lat="44.87312" lon="5.67641">
        <ele>512.1</ele>
        <time>2023-05-16T09:30:48.245Z</time>
      </trkpt>
      <trkpt lat="44.87315" lon="5.67643">
        <ele>513</ele>
        <time>2023-05-16T09:30:51.416Z</time>
      </trkpt>
      <trkpt lat="44.87317" lon="5.67646">
        <ele>514.3</ele>
        <time>2023-05-16T09:30:56.878Z</time>
      </trkpt>
      <trkpt lat="44.8732" lon="5.67648">
        <ele>515</ele>
        <time>2023-05-16T09:30:59.361Z</time>
      </trkpt>
      <trkpt lat="44.87321" lon="5.67652">
        <ele>515.4</ele>
        <time>2023-05-16T09:31:01.034Z</time>
      </trkpt>
      <trkpt lat="44.87319" lon="5.67657">
        <ele>513.9</ele>
        <time>2023-05-16T09:31:02.303Z</time>
      </trkpt>
      <trkpt lat="44.87316" lon="5.67659">
        <ele>512.4</ele>
        <time>2023-05-16T09:31:03.338Z</time>
      </trkpt>
      <trkpt lat="44.87312" lon="5.67659">
        <ele>512.8</ele>
        <time>2023-05-16T09:31:05.317Z</time>
      </trkpt>
      <trkpt lat="44.87308" lon="5.6766">
        <ele>511.6</ele>
        <time>2023-05-16T09:31:06.584Z</time>
      </trkpt>
      <trkpt lat="44.87302" lon="5.6766">
        <ele>509.8</ele>
        <time>2023-05-16T09:31:08.455Z</time>
      </trkpt>
      <trkpt lat="44.87297" lon="5.6766">
        <ele>509.7</ele>
        <time>2023-05-16T09:31:10.133Z</time>
      </trkpt>
      <trkpt lat="44.87292" lon="5.67661">
        <ele>508.8</ele>
        <time>2023-05-16T09:31:11.708Z</time>
      </trkpt>
      <trkpt lat="44.87287" lon="5.67663">
        <ele>508.5</ele>
        <time>2023-05-16T09:31:13.329Z</time>
      </trkpt>
      <trkpt lat="44.87283" lon="5.67666">
        <ele>507.1</ele>
        <time>2023-05-16T09:31:14.741Z</time>
      </trkpt>
      <trkpt lat="44.8728" lon="5.6767">
        <ele>505.7</ele>
        <time>2023-05-16T09:31:16.029Z</time>
      </trkpt>
      <trkpt lat="44.8728" lon="5.67674">
        <ele>505.5</ele>
        <time>2023-05-16T09:31:16.913Z</time>
      </trkpt>
      <trkpt lat="44.87282" lon="5.67681">
        <ele>504.4</ele>
        <time>2023-05-16T09:31:18.581Z</time>
      </trkpt>
      <trkpt lat="44.87283" lon="5.67686">
        <ele>503.7</ele>
        <time>2023-05-16T09:31:19.730Z</time>
      </trkpt>
      <trkpt lat="44.87284" lon="5.67691">
        <ele>503.1</ele>
        <time>2023-05-16T09:31:20.878Z</time>
      </trkpt>
      <trkpt lat="44.87286" lon="5.67697">
        <ele>502.4</ele>
        <time>2023-05-16T09:31:22.344Z</time>
      </trkpt>
      <trkpt lat="44.87288" lon="5.67704">
        <ele>501.6</ele>
        <time>2023-05-16T09:31:24.012Z</time>
      </trkpt>
      <trkpt lat="44.87292" lon="5.6771">
        <ele>500.7</ele>
        <time>2023-05-16T09:31:25.833Z</time>
      </trkpt>
      <trkpt lat="44.87295" lon="5.67716">
        <ele>499.9</ele>
        <time>2023-05-16T09:31:27.456Z</time>
      </trkpt>
      <trkpt lat="44.87296" lon="5.67721">
        <ele>499.6</ele>
        <time>2023-05-16T09:31:28.604Z</time>
      </trkpt>
      <trkpt lat="44.87295" lon="5.67725">
        <ele>500.7</ele>
        <time>2023-05-16T09:31:32.854Z</time>
      </trkpt>
      <trkpt lat="44.87292" lon="5.67729">
        <ele>499.9</ele>
        <time>2023-05-16T09:31:34.142Z</time>
      </trkpt>
      <trkpt lat="44.8729" lon="5.67735">
        <ele>498</ele>
        <time>2023-05-16T09:31:35.607Z</time>
      </trkpt>
      <trkpt lat="44.87288" lon="5.67737">
        <ele>499.3</ele>
        <time>2023-05-16T09:31:40.195Z</time>
      </trkpt>
      <trkpt lat="44.87285" lon="5.67734">
        <ele>498.2</ele>
        <time>2023-05-16T09:31:41.341Z</time>
      </trkpt>
      <trkpt lat="44.87285" lon="5.6773">
        <ele>502.2</ele>
        <time>2023-05-16T09:31:46.646Z</time>
      </trkpt>
      <trkpt lat="44.87282" lon="5.67728">
        <ele>500.3</ele>
        <time>2023-05-16T09:31:47.681Z</time>
      </trkpt>
      <trkpt lat="44.87279" lon="5.67728">
        <ele>497.9</ele>
        <time>2023-05-16T09:31:48.617Z</time>
      </trkpt>
      <trkpt lat="44.87275" lon="5.67726">
        <ele>496.4</ele>
        <time>2023-05-16T09:31:49.940Z</time>
      </trkpt>
      <trkpt lat="44.87272" lon="5.67724">
        <ele>494.6</ele>
        <time>2023-05-16T09:31:50.975Z</time>
      </trkpt>
      <trkpt lat="44.87269" lon="5.67723">
        <ele>500.6</ele>
        <time>2023-05-16T09:31:56.744Z</time>
      </trkpt>
      <trkpt lat="44.87266" lon="5.6772">
        <ele>502.7</ele>
        <time>2023-05-16T09:32:03.625Z</time>
      </trkpt>
      <trkpt lat="44.87263" lon="5.67719">
        <ele>501.6</ele>
        <time>2023-05-16T09:32:04.586Z</time>
      </trkpt>
      <trkpt lat="44.8726" lon="5.67719">
        <ele>500.4</ele>
        <time>2023-05-16T09:32:05.522Z</time>
      </trkpt>
      <trkpt lat="44.87257" lon="5.6772">
        <ele>499.2</ele>
        <time>2023-05-16T09:32:06.484Z</time>
      </trkpt>
      <trkpt lat="44.87255" lon="5.67718">
        <ele>504.3</ele>
        <time>2023-05-16T09:32:11.071Z</time>
      </trkpt>
      <trkpt lat="44.87251" lon="5.67717">
        <ele>502.2</ele>
        <time>2023-05-16T09:32:12.338Z</time>
      </trkpt>
      <trkpt lat="44.87248" lon="5.67715">
        <ele>500.2</ele>
        <time>2023-05-16T09:32:13.373Z</time>
      </trkpt>
      <trkpt lat="44.87245" lon="5.67714">
        <ele>501.4</ele>
        <time>2023-05-16T09:32:18.149Z</time>
      </trkpt>
      <trkpt lat="44.87243" lon="5.67711">
        <ele>499.2</ele>
        <time>2023-05-16T09:32:19.059Z</time>
      </trkpt>
      <trkpt lat="44.87239" lon="5.67709">
        <ele>498.2</ele>
        <time>2023-05-16T09:32:20.383Z</time>
      </trkpt>
      <trkpt lat="44.87237" lon="5.67707">
        <ele>496.6</ele>
        <time>2023-05-16T09:32:21.147Z</time>
      </trkpt>
      <trkpt lat="44.87233" lon="5.67707">
        <ele>495.8</ele>
        <time>2023-05-16T09:32:22.395Z</time>
      </trkpt>
      <trkpt lat="44.87231" lon="5.67705">
        <ele>495.6</ele>
        <time>2023-05-16T09:32:23.159Z</time>
      </trkpt>
      <trkpt lat="44.87227" lon="5.67705">
        <ele>496.5</ele>
        <time>2023-05-16T09:32:26.324Z</time>
      </trkpt>
      <trkpt lat="44.87225" lon="5.67704">
        <ele>498.1</ele>
        <time>2023-05-16T09:32:30.295Z</time>
      </trkpt>
      <trkpt lat="44.87221" lon="5.67702">
        <ele>500.4</ele>
        <time>2023-05-16T09:32:38.237Z</time>
      </trkpt>
      <trkpt lat="44.87219" lon="5.67699">
        <ele>503.1</ele>
        <time>2023-05-16T09:32:43.699Z</time>
      </trkpt>
      <trkpt lat="44.87216" lon="5.67697">
        <ele>506.4</ele>
        <time>2023-05-16T09:32:49.909Z</time>
      </trkpt>
      <trkpt lat="44.87213" lon="5.67695">
        <ele>509.7</ele>
        <time>2023-05-16T09:32:56.118Z</time>
      </trkpt>
      <trkpt lat="44.87211" lon="5.67693">
        <ele>513.1</ele>
        <time>2023-05-16T09:33:00.705Z</time>
      </trkpt>
      <trkpt lat="44.87208" lon="5.67692">
        <ele>516.2</ele>
        <time>2023-05-16T09:33:06.474Z</time>
      </trkpt>
      <trkpt lat="44.87205" lon="5.6769">
        <ele>519.1</ele>
        <time>2023-05-16T09:33:12.683Z</time>
      </trkpt>
      <trkpt lat="44.87202" lon="5.67688">
        <ele>521.7</ele>
        <time>2023-05-16T09:33:18.892Z</time>
      </trkpt>
      <trkpt lat="44.87198" lon="5.67686">
        <ele>522.8</ele>
        <time>2023-05-16T09:33:22.751Z</time>
      </trkpt>
      <trkpt lat="44.87195" lon="5.67685">
        <ele>523.6</ele>
        <time>2023-05-16T09:33:25.557Z</time>
      </trkpt>
      <trkpt lat="44.87192" lon="5.67684">
        <ele>524</ele>
        <time>2023-05-16T09:33:27.253Z</time>
      </trkpt>
      <trkpt lat="44.87189" lon="5.67683">
        <ele>524.3</ele>
        <time>2023-05-16T09:33:28.764Z</time>
      </trkpt>
      <trkpt lat="44.87186" lon="5.67681">
        <ele>524.8</ele>
        <time>2023-05-16T09:33:30.734Z</time>
      </trkpt>
      <trkpt lat="44.87183" lon="5.67679">
        <ele>525.2</ele>
        <time>2023-05-16T09:33:32.499Z</time>
      </trkpt>
      <trkpt lat="44.87179" lon="5.67678">
        <ele>525.6</ele>
        <time>2023-05-16T09:33:34.498Z</time>
      </trkpt>
      <trkpt lat="44.87176" lon="5.67675">
        <ele>526.1</ele>
        <time>2023-05-16T09:33:36.567Z</time>
      </trkpt>
      <trkpt lat="44.87173" lon="5.67674">
        <ele>526.4</ele>
        <time>2023-05-16T09:33:38.078Z</time>
      </trkpt>
      <trkpt lat="44.8717" lon="5.67672">
        <ele>527.3</ele>
        <time>2023-05-16T09:33:41.248Z</time>
      </trkpt>
      <trkpt lat="44.87167" lon="5.67671">
        <ele>528</ele>
        <time>2023-05-16T09:33:43.708Z</time>
      </trkpt>
      <trkpt lat="44.87163" lon="5.6767">
        <ele>528.6</ele>
        <time>2023-05-16T09:33:46.093Z</time>
      </trkpt>
      <trkpt lat="44.87159" lon="5.67669">
        <ele>529.1</ele>
        <time>2023-05-16T09:33:48.274Z</time>
      </trkpt>
      <trkpt lat="44.87156" lon="5.67667">
        <ele>529.7</ele>
        <time>2023-05-16T09:33:50.482Z</time>
      </trkpt>
      <trkpt lat="44.87153" lon="5.67667">
        <ele>530.2</ele>
        <time>2023-05-16T09:33:52.373Z</time>
      </trkpt>
      <trkpt lat="44.8715" lon="5.67666">
        <ele>530.6</ele>
        <time>2023-05-16T09:33:54.068Z</time>
      </trkpt>
      <trkpt lat="44.87146" lon="5.67664">
        <ele>531.7</ele>
        <time>2023-05-16T09:33:57.927Z</time>
      </trkpt>
      <trkpt lat="44.87143" lon="5.67662">
        <ele>532.7</ele>
        <time>2023-05-16T09:34:01.521Z</time>
      </trkpt>
      <trkpt lat="44.8714" lon="5.6766">
        <ele>533.4</ele>
        <time>2023-05-16T09:34:04.004Z</time>
      </trkpt>
      <trkpt lat="44.87137" lon="5.67658">
        <ele>534.2</ele>
        <time>2023-05-16T09:34:06.806Z</time>
      </trkpt>
      <trkpt lat="44.87134" lon="5.67657">
        <ele>534.9</ele>
        <time>2023-05-16T09:34:09.265Z</time>
      </trkpt>
      <trkpt lat="44.87131" lon="5.67655">
        <ele>535.7</ele>
        <time>2023-05-16T09:34:12.067Z</time>
      </trkpt>
      <trkpt lat="44.87128" lon="5.67654">
        <ele>536.6</ele>
        <time>2023-05-16T09:34:15.278Z</time>
      </trkpt>
      <trkpt lat="44.87126" lon="5.67652">
        <ele>537.5</ele>
        <time>2023-05-16T09:34:18.760Z</time>
      </trkpt>
      <trkpt lat="44.87123" lon="5.67651">
        <ele>546.8</ele>
        <time>2023-05-16T09:34:24.529Z</time>
      </trkpt>
      <trkpt lat="44.8712" lon="5.67649">
        <ele>550.5</ele>
        <time>2023-05-16T09:34:30.738Z</time>
      </trkpt>
      <trkpt lat="44.87117" lon="5.67647">
        <ele>554.7</ele>
        <time>2023-05-16T09:34:36.948Z</time>
      </trkpt>
      <trkpt lat="44.87113" lon="5.67646">
        <ele>558.6</ele>
        <time>2023-05-16T09:34:44.550Z</time>
      </trkpt>
      <trkpt lat="44.87111" lon="5.67645">
        <ele>561.8</ele>
        <time>2023-05-16T09:34:48.521Z</time>
      </trkpt>
      <trkpt lat="44.87109" lon="5.67643">
        <ele>565.1</ele>
        <time>2023-05-16T09:34:53.108Z</time>
      </trkpt>
      <trkpt lat="44.87107" lon="5.67647">
        <ele>569</ele>
        <time>2023-05-16T09:34:59.600Z</time>
      </trkpt>
      <trkpt lat="44.87106" lon="5.67651">
        <ele>572.5</ele>
        <time>2023-05-16T09:35:05.226Z</time>
      </trkpt>
      <trkpt lat="44.87104" lon="5.67654">
        <ele>576.1</ele>
        <time>2023-05-16T09:35:10.688Z</time>
      </trkpt>
      <trkpt lat="44.87101" lon="5.67655">
        <ele>579.2</ele>
        <time>2023-05-16T09:35:16.457Z</time>
      </trkpt>
      <trkpt lat="44.87097" lon="5.67655">
        <ele>581.5</ele>
        <time>2023-05-16T09:35:23.943Z</time>
      </trkpt>
      <trkpt lat="44.87094" lon="5.67656">
        <ele>583.4</ele>
        <time>2023-05-16T09:35:29.711Z</time>
      </trkpt>
      <trkpt lat="44.87091" lon="5.67656">
        <ele>584.5</ele>
        <time>2023-05-16T09:35:33.966Z</time>
      </trkpt>
      <trkpt lat="44.87088" lon="5.67656">
        <ele>585.3</ele>
        <time>2023-05-16T09:35:36.779Z</time>
      </trkpt>
      <trkpt lat="44.87084" lon="5.67656">
        <ele>586.2</ele>
        <time>2023-05-16T09:35:39.943Z</time>
      </trkpt>
      <trkpt lat="44.87081" lon="5.67656">
        <ele>585.9</ele>
        <time>2023-05-16T09:35:40.879Z</time>
      </trkpt>
      <trkpt lat="44.87078" lon="5.67657">
        <ele>585.1</ele>
        <time>2023-05-16T09:35:41.841Z</time>
      </trkpt>
      <trkpt lat="44.87075" lon="5.67658">
        <ele>584.4</ele>
        <time>2023-05-16T09:35:42.802Z</time>
      </trkpt>
      <trkpt lat="44.87074" lon="5.67654">
        <ele>583.7</ele>
        <time>2023-05-16T09:35:43.740Z</time>
      </trkpt>
      <trkpt lat="44.87077" lon="5.67653">
        <ele>582.6</ele>
        <time>2023-05-16T09:35:44.701Z</time>
      </trkpt>
      <trkpt lat="44.8708" lon="5.67651">
        <ele>581.6</ele>
        <time>2023-05-16T09:35:45.736Z</time>
      </trkpt>
      <trkpt lat="44.87083" lon="5.67649">
        <ele>580.8</ele>
        <time>2023-05-16T09:35:46.771Z</time>
      </trkpt>
      <trkpt lat="44.87085" lon="5.67648">
        <ele>581.1</ele>
        <time>2023-05-16T09:35:47.988Z</time>
      </trkpt>
      <trkpt lat="44.87088" lon="5.67645">
        <ele>582.7</ele>
        <time>2023-05-16T09:35:54.683Z</time>
      </trkpt>
      <trkpt lat="44.87085" lon="5.67645">
        <ele>583.9</ele>
        <time>2023-05-16T09:35:59.521Z</time>
      </trkpt>
      <trkpt lat="44.87083" lon="5.67647">
        <ele>586</ele>
        <time>2023-05-16T09:36:04.109Z</time>
      </trkpt>
      <trkpt lat="44.87079" lon="5.67649">
        <ele>586</ele>
        <time>2023-05-16T09:36:05.621Z</time>
      </trkpt>
      <trkpt lat="44.8708" lon="5.67644">
        <ele>585.9</ele>
        <time>2023-05-16T09:36:06.830Z</time>
      </trkpt>
      <trkpt lat="44.8708" lon="5.67639">
        <ele>585.1</ele>
        <time>2023-05-16T09:36:07.935Z</time>
      </trkpt>
      <trkpt lat="44.87078" lon="5.67636">
        <ele>584.4</ele>
        <time>2023-05-16T09:36:08.846Z</time>
      </trkpt>
      <trkpt lat="44.87077" lon="5.67639">
        <ele>583.9</ele>
        <time>2023-05-16T09:36:09.579Z</time>
      </trkpt>
      <trkpt lat="44.87075" lon="5.67643">
        <ele>583.2</ele>
        <time>2023-05-16T09:36:10.661Z</time>
      </trkpt>
      <trkpt lat="44.87072" lon="5.67641">
        <ele>582.7</ele>
        <time>2023-05-16T09:36:11.696Z</time>
      </trkpt>
      <trkpt lat="44.87074" lon="5.67637">
        <ele>582.3</ele>
        <time>2023-05-16T09:36:12.778Z</time>
      </trkpt>
      <trkpt lat="44.87074" lon="5.67633">
        <ele>581.8</ele>
        <time>2023-05-16T09:36:13.662Z</time>
      </trkpt>
      <trkpt lat="44.87072" lon="5.67631">
        <ele>581.8</ele>
        <time>2023-05-16T09:36:14.536Z</time>
      </trkpt>
      <trkpt lat="44.87072" lon="5.67627">
        <ele>581.7</ele>
        <time>2023-05-16T09:36:15.444Z</time>
      </trkpt>
      <trkpt lat="44.87073" lon="5.67623">
        <ele>581.7</ele>
        <time>2023-05-16T09:36:16.516Z</time>
      </trkpt>
      <trkpt lat="44.87072" lon="5.67618">
        <ele>581.4</ele>
        <time>2023-05-16T09:36:17.664Z</time>
      </trkpt>
      <trkpt lat="44.8707" lon="5.67614">
        <ele>581</ele>
        <time>2023-05-16T09:36:18.746Z</time>
      </trkpt>
      <trkpt lat="44.87068" lon="5.6761">
        <ele>580.6</ele>
        <time>2023-05-16T09:36:19.828Z</time>
      </trkpt>
      <trkpt lat="44.87065" lon="5.67607">
        <ele>580.9</ele>
        <time>2023-05-16T09:36:21.536Z</time>
      </trkpt>
      <trkpt lat="44.87063" lon="5.67603">
        <ele>581.1</ele>
        <time>2023-05-16T09:36:23.022Z</time>
      </trkpt>
      <trkpt lat="44.87061" lon="5.676">
        <ele>581.3</ele>
        <time>2023-05-16T09:36:24.319Z</time>
      </trkpt>
      <trkpt lat="44.87058" lon="5.67598">
        <ele>582.3</ele>
        <time>2023-05-16T09:36:27.914Z</time>
      </trkpt>
      <trkpt lat="44.87055" lon="5.67596">
        <ele>583.1</ele>
        <time>2023-05-16T09:36:30.715Z</time>
      </trkpt>
      <trkpt lat="44.87051" lon="5.67596">
        <ele>584.2</ele>
        <time>2023-05-16T09:36:34.598Z</time>
      </trkpt>
      <trkpt lat="44.87047" lon="5.67596">
        <ele>585</ele>
        <time>2023-05-16T09:36:37.464Z</time>
      </trkpt>
      <trkpt lat="44.87045" lon="5.67594">
        <ele>584.5</ele>
        <time>2023-05-16T09:36:38.228Z</time>
      </trkpt>
      <trkpt lat="44.87043" lon="5.67591">
        <ele>584</ele>
        <time>2023-05-16T09:36:39.139Z</time>
      </trkpt>
      <trkpt lat="44.8704" lon="5.67588">
        <ele>583.6</ele>
        <time>2023-05-16T09:36:40.286Z</time>
      </trkpt>
      <trkpt lat="44.87038" lon="5.67584">
        <ele>583.4</ele>
        <time>2023-05-16T09:36:41.368Z</time>
      </trkpt>
      <trkpt lat="44.87038" lon="5.67579">
        <ele>583.1</ele>
        <time>2023-05-16T09:36:42.473Z</time>
      </trkpt>
      <trkpt lat="44.87036" lon="5.67575">
        <ele>583</ele>
        <time>2023-05-16T09:36:43.607Z</time>
      </trkpt>
      <trkpt lat="44.87033" lon="5.67571">
        <ele>583.1</ele>
        <time>2023-05-16T09:36:45.194Z</time>
      </trkpt>
      <trkpt lat="44.87032" lon="5.67567">
        <ele>583.2</ele>
        <time>2023-05-16T09:36:46.383Z</time>
      </trkpt>
      <trkpt lat="44.87031" lon="5.67562">
        <ele>582.9</ele>
        <time>2023-05-16T09:36:47.532Z</time>
      </trkpt>
      <trkpt lat="44.87032" lon="5.67558">
        <ele>582.4</ele>
        <time>2023-05-16T09:36:48.469Z</time>
      </trkpt>
      <trkpt lat="44.87033" lon="5.67553">
        <ele>581.7</ele>
        <time>2023-05-16T09:36:49.617Z</time>
      </trkpt>
      <trkpt lat="44.87035" lon="5.67548">
        <ele>581.2</ele>
        <time>2023-05-16T09:36:50.887Z</time>
      </trkpt>
      <trkpt lat="44.87036" lon="5.67544">
        <ele>580.7</ele>
        <time>2023-05-16T09:36:51.824Z</time>
      </trkpt>
      <trkpt lat="44.87038" lon="5.6754">
        <ele>580.2</ele>
        <time>2023-05-16T09:36:52.906Z</time>
      </trkpt>
      <trkpt lat="44.87039" lon="5.67535">
        <ele>579.4</ele>
        <time>2023-05-16T09:36:54.055Z</time>
      </trkpt>
      <trkpt lat="44.87039" lon="5.67531">
        <ele>578.8</ele>
        <time>2023-05-16T09:36:54.939Z</time>
      </trkpt>
      <trkpt lat="44.87036" lon="5.67529">
        <ele>578.2</ele>
        <time>2023-05-16T09:36:55.974Z</time>
      </trkpt>
      <trkpt lat="44.87032" lon="5.67524">
        <ele>576.1</ele>
        <time>2023-05-16T09:36:57.640Z</time>
      </trkpt>
      <trkpt lat="44.8703" lon="5.67521">
        <ele>575.1</ele>
        <time>2023-05-16T09:36:58.551Z</time>
      </trkpt>
      <trkpt lat="44.87028" lon="5.67518">
        <ele>574.1</ele>
        <time>2023-05-16T09:36:59.461Z</time>
      </trkpt>
      <trkpt lat="44.87027" lon="5.67515">
        <ele>573.4</ele>
        <time>2023-05-16T09:37:00.194Z</time>
      </trkpt>
      <trkpt lat="44.87024" lon="5.67509">
        <ele>572.3</ele>
        <time>2023-05-16T09:37:01.817Z</time>
      </trkpt>
      <trkpt lat="44.87022" lon="5.67506">
        <ele>571.2</ele>
        <time>2023-05-16T09:37:02.728Z</time>
      </trkpt>
      <trkpt lat="44.87021" lon="5.67501">
        <ele>570</ele>
        <time>2023-05-16T09:37:03.876Z</time>
      </trkpt>
      <trkpt lat="44.87022" lon="5.67496">
        <ele>569</ele>
        <time>2023-05-16T09:37:05.024Z</time>
      </trkpt>
      <trkpt lat="44.87022" lon="5.67491">
        <ele>568.2</ele>
        <time>2023-05-16T09:37:06.130Z</time>
      </trkpt>
      <trkpt lat="44.87021" lon="5.67485">
        <ele>567.3</ele>
        <time>2023-05-16T09:37:07.492Z</time>
      </trkpt>
      <trkpt lat="44.87021" lon="5.6748">
        <ele>563.9</ele>
        <time>2023-05-16T09:37:08.597Z</time>
      </trkpt>
      <trkpt lat="44.87019" lon="5.67477">
        <ele>563</ele>
        <time>2023-05-16T09:37:09.508Z</time>
      </trkpt>
      <trkpt lat="44.87017" lon="5.67472">
        <ele>562</ele>
        <time>2023-05-16T09:37:10.777Z</time>
      </trkpt>
      <trkpt lat="44.87018" lon="5.67468">
        <ele>561.6</ele>
        <time>2023-05-16T09:37:11.714Z</time>
      </trkpt>
      <trkpt lat="44.87019" lon="5.67463">
        <ele>561.5</ele>
        <time>2023-05-16T09:37:12.923Z</time>
      </trkpt>
      <trkpt lat="44.87021" lon="5.67459">
        <ele>561.5</ele>
        <time>2023-05-16T09:37:14.160Z</time>
      </trkpt>
      <trkpt lat="44.87022" lon="5.67455">
        <ele>561.3</ele>
        <time>2023-05-16T09:37:15.098Z</time>
      </trkpt>
      <trkpt lat="44.87025" lon="5.67451">
        <ele>561.1</ele>
        <time>2023-05-16T09:37:16.385Z</time>
      </trkpt>
      <trkpt lat="44.87027" lon="5.67446">
        <ele>560.8</ele>
        <time>2023-05-16T09:37:17.654Z</time>
      </trkpt>
      <trkpt lat="44.87029" lon="5.67441">
        <ele>560.5</ele>
        <time>2023-05-16T09:37:18.923Z</time>
      </trkpt>
      <trkpt lat="44.8703" lon="5.67437">
        <ele>560.3</ele>
        <time>2023-05-16T09:37:19.861Z</time>
      </trkpt>
      <trkpt lat="44.87033" lon="5.67435">
        <ele>560.3</ele>
        <time>2023-05-16T09:37:21.043Z</time>
      </trkpt>
      <trkpt lat="44.87036" lon="5.67432">
        <ele>560.2</ele>
        <time>2023-05-16T09:37:22.251Z</time>
      </trkpt>
      <trkpt lat="44.87038" lon="5.67428">
        <ele>560</ele>
        <time>2023-05-16T09:37:23.333Z</time>
      </trkpt>
      <trkpt lat="44.87038" lon="5.67424">
        <ele>559.8</ele>
        <time>2023-05-16T09:37:24.217Z</time>
      </trkpt>
      <trkpt lat="44.87036" lon="5.67422">
        <ele>559.5</ele>
        <time>2023-05-16T09:37:24.981Z</time>
      </trkpt>
      <trkpt lat="44.87033" lon="5.67421">
        <ele>559.3</ele>
        <time>2023-05-16T09:37:25.943Z</time>
      </trkpt>
      <trkpt lat="44.87031" lon="5.6742">
        <ele>555.5</ele>
        <time>2023-05-16T09:37:26.605Z</time>
      </trkpt>
      <trkpt lat="44.87027" lon="5.67419">
        <ele>558</ele>
        <time>2023-05-16T09:37:34.207Z</time>
      </trkpt>
      <trkpt lat="44.87024" lon="5.67419">
        <ele>559.8</ele>
        <time>2023-05-16T09:37:39.821Z</time>
      </trkpt>
      <trkpt lat="44.87021" lon="5.67418">
        <ele>562.2</ele>
        <time>2023-05-16T09:37:45.590Z</time>
      </trkpt>
      <trkpt lat="44.87018" lon="5.67417">
        <ele>564.3</ele>
        <time>2023-05-16T09:37:51.358Z</time>
      </trkpt>
      <trkpt lat="44.87014" lon="5.67417">
        <ele>566.8</ele>
        <time>2023-05-16T09:37:58.844Z</time>
      </trkpt>
      <trkpt lat="44.87011" lon="5.67417">
        <ele>568.9</ele>
        <time>2023-05-16T09:38:04.458Z</time>
      </trkpt>
      <trkpt lat="44.87009" lon="5.67421">
        <ele>571.4</ele>
        <time>2023-05-16T09:38:10.951Z</time>
      </trkpt>
      <trkpt lat="44.87009" lon="5.67426">
        <ele>573.7</ele>
        <time>2023-05-16T09:38:17.582Z</time>
      </trkpt>
      <trkpt lat="44.87007" lon="5.6743">
        <ele>576.2</ele>
        <time>2023-05-16T09:38:24.075Z</time>
      </trkpt>
      <trkpt lat="44.87005" lon="5.67433">
        <ele>578.2</ele>
        <time>2023-05-16T09:38:29.537Z</time>
      </trkpt>
      <trkpt lat="44.87003" lon="5.67438">
        <ele>578.5</ele>
        <time>2023-05-16T09:38:31.377Z</time>
      </trkpt>
      <trkpt lat="44.87001" lon="5.67443">
        <ele>578.8</ele>
        <time>2023-05-16T09:38:33.216Z</time>
      </trkpt>
      <trkpt lat="44.86999" lon="5.67447">
        <ele>579.2</ele>
        <time>2023-05-16T09:38:35.028Z</time>
      </trkpt>
      <trkpt lat="44.86997" lon="5.67451">
        <ele>580</ele>
        <time>2023-05-16T09:38:37.835Z</time>
      </trkpt>
      <trkpt lat="44.86995" lon="5.67454">
        <ele>580.6</ele>
        <time>2023-05-16T09:38:39.973Z</time>
      </trkpt>
      <trkpt lat="44.86993" lon="5.67458">
        <ele>581.1</ele>
        <time>2023-05-16T09:38:41.984Z</time>
      </trkpt>
      <trkpt lat="44.86992" lon="5.67462">
        <ele>581.4</ele>
        <time>2023-05-16T09:38:43.470Z</time>
      </trkpt>
      <trkpt lat="44.86989" lon="5.67465">
        <ele>581.7</ele>
        <time>2023-05-16T09:38:45.177Z</time>
      </trkpt>
      <trkpt lat="44.86985" lon="5.67468">
        <ele>582.8</ele>
        <time>2023-05-16T09:38:49.029Z</time>
      </trkpt>
      <trkpt lat="44.86982" lon="5.67472">
        <ele>584</ele>
        <time>2023-05-16T09:38:53.306Z</time>
      </trkpt>
      <trkpt lat="44.8698" lon="5.67476">
        <ele>584.7</ele>
        <time>2023-05-16T09:38:55.810Z</time>
      </trkpt>
      <trkpt lat="44.86979" lon="5.67479">
        <ele>585.3</ele>
        <time>2023-05-16T09:38:57.913Z</time>
      </trkpt>
      <trkpt lat="44.86977" lon="5.67484">
        <ele>585.9</ele>
        <time>2023-05-16T09:39:00.300Z</time>
      </trkpt>
      <trkpt lat="44.86974" lon="5.67488">
        <ele>586.3</ele>
        <time>2023-05-16T09:39:02.320Z</time>
      </trkpt>
      <trkpt lat="44.86972" lon="5.67491">
        <ele>586.7</ele>
        <time>2023-05-16T09:39:03.969Z</time>
      </trkpt>
      <trkpt lat="44.86969" lon="5.67494">
        <ele>587</ele>
        <time>2023-05-16T09:39:05.676Z</time>
      </trkpt>
      <trkpt lat="44.86967" lon="5.67496">
        <ele>587.4</ele>
        <time>2023-05-16T09:39:07.201Z</time>
      </trkpt>
      <trkpt lat="44.86965" lon="5.675">
        <ele>588</ele>
        <time>2023-05-16T09:39:09.441Z</time>
      </trkpt>
      <trkpt lat="44.86964" lon="5.67504">
        <ele>588.5</ele>
        <time>2023-05-16T09:39:11.333Z</time>
      </trkpt>
      <trkpt lat="44.86962" lon="5.67507">
        <ele>589</ele>
        <time>2023-05-16T09:39:13.206Z</time>
      </trkpt>
      <trkpt lat="44.8696" lon="5.67511">
        <ele>589.5</ele>
        <time>2023-05-16T09:39:15.216Z</time>
      </trkpt>
      <trkpt lat="44.86958" lon="5.67514">
        <ele>589.6</ele>
        <time>2023-05-16T09:39:16.375Z</time>
      </trkpt>
      <trkpt lat="44.86956" lon="5.67518">
        <ele>589.8</ele>
        <time>2023-05-16T09:39:17.862Z</time>
      </trkpt>
      <trkpt lat="44.86954" lon="5.67522">
        <ele>590</ele>
        <time>2023-05-16T09:39:19.348Z</time>
      </trkpt>
      <trkpt lat="44.86952" lon="5.67526">
        <ele>590.1</ele>
        <time>2023-05-16T09:39:20.702Z</time>
      </trkpt>
      <trkpt lat="44.86951" lon="5.67529">
        <ele>590.3</ele>
        <time>2023-05-16T09:39:21.806Z</time>
      </trkpt>
      <trkpt lat="44.86949" lon="5.67533">
        <ele>590.4</ele>
        <time>2023-05-16T09:39:23.159Z</time>
      </trkpt>
      <trkpt lat="44.86948" lon="5.67536">
        <ele>590.6</ele>
        <time>2023-05-16T09:39:24.264Z</time>
      </trkpt>
      <trkpt lat="44.86949" lon="5.6754">
        <ele>591</ele>
        <time>2023-05-16T09:39:25.937Z</time>
      </trkpt>
      <trkpt lat="44.86952" lon="5.67543">
        <ele>591.3</ele>
        <time>2023-05-16T09:39:27.644Z</time>
      </trkpt>
      <trkpt lat="44.86954" lon="5.67547">
        <ele>591.6</ele>
        <time>2023-05-16T09:39:29.282Z</time>
      </trkpt>
      <trkpt lat="44.86956" lon="5.67552">
        <ele>591.9</ele>
        <time>2023-05-16T09:39:31.122Z</time>
      </trkpt>
      <trkpt lat="44.86957" lon="5.67559">
        <ele>592.1</ele>
        <time>2023-05-16T09:39:33.165Z</time>
      </trkpt>
      <trkpt lat="44.86957" lon="5.67563">
        <ele>592.2</ele>
        <time>2023-05-16T09:39:34.295Z</time>
      </trkpt>
      <trkpt lat="44.86957" lon="5.6757">
        <ele>592.3</ele>
        <time>2023-05-16T09:39:36.178Z</time>
      </trkpt>
      <trkpt lat="44.86957" lon="5.67576">
        <ele>592.5</ele>
        <time>2023-05-16T09:39:37.937Z</time>
      </trkpt>
      <trkpt lat="44.86955" lon="5.67582">
        <ele>592.6</ele>
        <time>2023-05-16T09:39:39.727Z</time>
      </trkpt>
      <trkpt lat="44.86954" lon="5.67588">
        <ele>592.7</ele>
        <time>2023-05-16T09:39:41.400Z</time>
      </trkpt>
      <trkpt lat="44.86952" lon="5.67593">
        <ele>592.7</ele>
        <time>2023-05-16T09:39:42.850Z</time>
      </trkpt>
      <trkpt lat="44.86951" lon="5.67598">
        <ele>592.8</ele>
        <time>2023-05-16T09:39:44.279Z</time>
      </trkpt>
      <trkpt lat="44.86949" lon="5.67603">
        <ele>592.8</ele>
        <time>2023-05-16T09:39:45.729Z</time>
      </trkpt>
      <trkpt lat="44.86947" lon="5.67607">
        <ele>592.9</ele>
        <time>2023-05-16T09:39:47.083Z</time>
      </trkpt>
      <trkpt lat="44.86945" lon="5.67612">
        <ele>592.9</ele>
        <time>2023-05-16T09:39:48.533Z</time>
      </trkpt>
      <trkpt lat="44.86941" lon="5.6762">
        <ele>593</ele>
        <time>2023-05-16T09:39:51.120Z</time>
      </trkpt>
      <trkpt lat="44.86928" lon="5.67643">
        <ele>593.1</ele>
        <time>2023-05-16T09:39:58.663Z</time>
      </trkpt>
      <trkpt lat="44.86927" lon="5.67648">
        <ele>593.1</ele>
        <time>2023-05-16T09:39:59.975Z</time>
      </trkpt>
      <trkpt lat="44.86924" lon="5.67653">
        <ele>593.2</ele>
        <time>2023-05-16T09:40:01.745Z</time>
      </trkpt>
      <trkpt lat="44.86922" lon="5.67658">
        <ele>593.2</ele>
        <time>2023-05-16T09:40:03.196Z</time>
      </trkpt>
      <trkpt lat="44.86921" lon="5.67664">
        <ele>593.3</ele>
        <time>2023-05-16T09:40:04.868Z</time>
      </trkpt>
      <trkpt lat="44.86919" lon="5.67669">
        <ele>593.4</ele>
        <time>2023-05-16T09:40:06.435Z</time>
      </trkpt>
      <trkpt lat="44.86917" lon="5.67674">
        <ele>593.5</ele>
        <time>2023-05-16T09:40:08.001Z</time>
      </trkpt>
      <trkpt lat="44.86915" lon="5.67677">
        <ele>593.6</ele>
        <time>2023-05-16T09:40:09.160Z</time>
      </trkpt>
      <trkpt lat="44.86913" lon="5.6768">
        <ele>593.7</ele>
        <time>2023-05-16T09:40:10.319Z</time>
      </trkpt>
      <trkpt lat="44.8691" lon="5.67682">
        <ele>593.7</ele>
        <time>2023-05-16T09:40:11.501Z</time>
      </trkpt>
      <trkpt lat="44.86906" lon="5.67686">
        <ele>593.9</ele>
        <time>2023-05-16T09:40:13.489Z</time>
      </trkpt>
      <trkpt lat="44.86904" lon="5.67689">
        <ele>594.1</ele>
        <time>2023-05-16T09:40:14.786Z</time>
      </trkpt>
      <trkpt lat="44.86902" lon="5.67692">
        <ele>594.4</ele>
        <time>2023-05-16T09:40:16.244Z</time>
      </trkpt>
      <trkpt lat="44.86901" lon="5.67695">
        <ele>594.6</ele>
        <time>2023-05-16T09:40:17.349Z</time>
      </trkpt>
      <trkpt lat="44.86899" lon="5.67699">
        <ele>594.8</ele>
        <time>2023-05-16T09:40:18.835Z</time>
      </trkpt>
      <trkpt lat="44.86898" lon="5.67702">
        <ele>595</ele>
        <time>2023-05-16T09:40:19.939Z</time>
      </trkpt>
      <trkpt lat="44.86896" lon="5.67706">
        <ele>595.3</ele>
        <time>2023-05-16T09:40:21.577Z</time>
      </trkpt>
      <trkpt lat="44.86895" lon="5.67709">
        <ele>595.5</ele>
        <time>2023-05-16T09:40:22.682Z</time>
      </trkpt>
      <trkpt lat="44.86894" lon="5.67714">
        <ele>595.7</ele>
        <time>2023-05-16T09:40:24.242Z</time>
      </trkpt>
      <trkpt lat="44.86892" lon="5.67718">
        <ele>596</ele>
        <time>2023-05-16T09:40:25.880Z</time>
      </trkpt>
      <trkpt lat="44.86891" lon="5.67723">
        <ele>596.3</ele>
        <time>2023-05-16T09:40:27.589Z</time>
      </trkpt>
      <trkpt lat="44.86889" lon="5.67727">
        <ele>596.9</ele>
        <time>2023-05-16T09:40:29.829Z</time>
      </trkpt>
      <trkpt lat="44.86887" lon="5.67731">
        <ele>597.5</ele>
        <time>2023-05-16T09:40:32.068Z</time>
      </trkpt>
      <trkpt lat="44.86885" lon="5.67735">
        <ele>598.2</ele>
        <time>2023-05-16T09:40:34.572Z</time>
      </trkpt>
      <trkpt lat="44.86883" lon="5.67739">
        <ele>598.9</ele>
        <time>2023-05-16T09:40:37.075Z</time>
      </trkpt>
      <trkpt lat="44.86881" lon="5.67744">
        <ele>599.7</ele>
        <time>2023-05-16T09:40:39.953Z</time>
      </trkpt>
      <trkpt lat="44.86879" lon="5.67749">
        <ele>600.5</ele>
        <time>2023-05-16T09:40:42.830Z</time>
      </trkpt>
      <trkpt lat="44.86878" lon="5.67754">
        <ele>601.2</ele>
        <time>2023-05-16T09:40:45.369Z</time>
      </trkpt>
      <trkpt lat="44.86876" lon="5.67758">
        <ele>601.7</ele>
        <time>2023-05-16T09:40:47.379Z</time>
      </trkpt>
      <trkpt lat="44.86873" lon="5.67763">
        <ele>602</ele>
        <time>2023-05-16T09:40:49.415Z</time>
      </trkpt>
      <trkpt lat="44.8687" lon="5.67767">
        <ele>602.2</ele>
        <time>2023-05-16T09:40:51.131Z</time>
      </trkpt>
      <trkpt lat="44.86867" lon="5.67771">
        <ele>602.7</ele>
        <time>2023-05-16T09:40:53.332Z</time>
      </trkpt>
      <trkpt lat="44.86864" lon="5.67775">
        <ele>603.3</ele>
        <time>2023-05-16T09:40:55.735Z</time>
      </trkpt>
      <trkpt lat="44.86862" lon="5.6778">
        <ele>603.6</ele>
        <time>2023-05-16T09:40:57.575Z</time>
      </trkpt>
      <trkpt lat="44.8686" lon="5.67785">
        <ele>603.9</ele>
        <time>2023-05-16T09:40:59.414Z</time>
      </trkpt>
      <trkpt lat="44.86858" lon="5.67789">
        <ele>604.1</ele>
        <time>2023-05-16T09:41:00.901Z</time>
      </trkpt>
      <trkpt lat="44.86856" lon="5.67794">
        <ele>604.6</ele>
        <time>2023-05-16T09:41:03.084Z</time>
      </trkpt>
      <trkpt lat="44.86854" lon="5.678">
        <ele>605.2</ele>
        <time>2023-05-16T09:41:05.649Z</time>
      </trkpt>
      <trkpt lat="44.86852" lon="5.67805">
        <ele>605.7</ele>
        <time>2023-05-16T09:41:07.832Z</time>
      </trkpt>
      <trkpt lat="44.8685" lon="5.6781">
        <ele>606</ele>
        <time>2023-05-16T09:41:09.671Z</time>
      </trkpt>
      <trkpt lat="44.8685" lon="5.67815">
        <ele>606.4</ele>
        <time>2023-05-16T09:41:11.506Z</time>
      </trkpt>
      <trkpt lat="44.86849" lon="5.67822">
        <ele>607.1</ele>
        <time>2023-05-16T09:41:14.377Z</time>
      </trkpt>
      <trkpt lat="44.86846" lon="5.67826">
        <ele>607.5</ele>
        <time>2023-05-16T09:41:16.397Z</time>
      </trkpt>
      <trkpt lat="44.86844" lon="5.6783">
        <ele>607.7</ele>
        <time>2023-05-16T09:41:17.884Z</time>
      </trkpt>
      <trkpt lat="44.86843" lon="5.67834">
        <ele>607.9</ele>
        <time>2023-05-16T09:41:19.211Z</time>
      </trkpt>
      <trkpt lat="44.8684" lon="5.67838">
        <ele>608.1</ele>
        <time>2023-05-16T09:41:20.926Z</time>
      </trkpt>
      <trkpt lat="44.86839" lon="5.67842">
        <ele>608.2</ele>
        <time>2023-05-16T09:41:22.116Z</time>
      </trkpt>
      <trkpt lat="44.86836" lon="5.67846">
        <ele>608.4</ele>
        <time>2023-05-16T09:41:23.832Z</time>
      </trkpt>
      <trkpt lat="44.86835" lon="5.67851">
        <ele>608.6</ele>
        <time>2023-05-16T09:41:25.392Z</time>
      </trkpt>
      <trkpt lat="44.86834" lon="5.67857">
        <ele>608.9</ele>
        <time>2023-05-16T09:41:27.334Z</time>
      </trkpt>
      <trkpt lat="44.86833" lon="5.67863">
        <ele>609.3</ele>
        <time>2023-05-16T09:41:29.433Z</time>
      </trkpt>
      <trkpt lat="44.86831" lon="5.67867">
        <ele>609.7</ele>
        <time>2023-05-16T09:41:31.245Z</time>
      </trkpt>
      <trkpt lat="44.86829" lon="5.67872">
        <ele>609.9</ele>
        <time>2023-05-16T09:41:32.940Z</time>
      </trkpt>
      <trkpt lat="44.86827" lon="5.67875">
        <ele>610.1</ele>
        <time>2023-05-16T09:41:34.237Z</time>
      </trkpt>
      <trkpt lat="44.86824" lon="5.67879">
        <ele>610.4</ele>
        <time>2023-05-16T09:41:36.096Z</time>
      </trkpt>
      <trkpt lat="44.86822" lon="5.67884">
        <ele>610.8</ele>
        <time>2023-05-16T09:41:38.098Z</time>
      </trkpt>
      <trkpt lat="44.86819" lon="5.6789">
        <ele>611.2</ele>
        <time>2023-05-16T09:41:40.476Z</time>
      </trkpt>
      <trkpt lat="44.86816" lon="5.67896">
        <ele>611.6</ele>
        <time>2023-05-16T09:41:42.854Z</time>
      </trkpt>
      <trkpt lat="44.86813" lon="5.67901">
        <ele>611.8</ele>
        <time>2023-05-16T09:41:44.750Z</time>
      </trkpt>
      <trkpt lat="44.86811" lon="5.67906">
        <ele>612</ele>
        <time>2023-05-16T09:41:46.446Z</time>
      </trkpt>
      <trkpt lat="44.86808" lon="5.67912">
        <ele>612.3</ele>
        <time>2023-05-16T09:41:48.675Z</time>
      </trkpt>
      <trkpt lat="44.86806" lon="5.67917">
        <ele>612.5</ele>
        <time>2023-05-16T09:41:50.371Z</time>
      </trkpt>
      <trkpt lat="44.86803" lon="5.67921">
        <ele>612.9</ele>
        <time>2023-05-16T09:41:52.391Z</time>
      </trkpt>
      <trkpt lat="44.868" lon="5.67926">
        <ele>613.2</ele>
        <time>2023-05-16T09:41:54.427Z</time>
      </trkpt>
      <trkpt lat="44.86797" lon="5.67931">
        <ele>613.6</ele>
        <time>2023-05-16T09:41:56.617Z</time>
      </trkpt>
      <trkpt lat="44.86795" lon="5.67934">
        <ele>613.7</ele>
        <time>2023-05-16T09:41:57.776Z</time>
      </trkpt>
      <trkpt lat="44.86793" lon="5.67937">
        <ele>613.8</ele>
        <time>2023-05-16T09:41:58.935Z</time>
      </trkpt>
      <trkpt lat="44.86791" lon="5.67941">
        <ele>613.8</ele>
        <time>2023-05-16T09:42:00.171Z</time>
      </trkpt>
      <trkpt lat="44.86789" lon="5.67945">
        <ele>613.9</ele>
        <time>2023-05-16T09:42:01.525Z</time>
      </trkpt>
      <trkpt lat="44.86787" lon="5.67948">
        <ele>613.9</ele>
        <time>2023-05-16T09:42:02.565Z</time>
      </trkpt>
      <trkpt lat="44.86784" lon="5.67952">
        <ele>614</ele>
        <time>2023-05-16T09:42:04.152Z</time>
      </trkpt>
      <trkpt lat="44.8678" lon="5.67957">
        <ele>614</ele>
        <time>2023-05-16T09:42:06.057Z</time>
      </trkpt>
      <trkpt lat="44.86777" lon="5.67962">
        <ele>614.1</ele>
        <time>2023-05-16T09:42:07.827Z</time>
      </trkpt>
      <trkpt lat="44.86774" lon="5.67966">
        <ele>614.2</ele>
        <time>2023-05-16T09:42:09.414Z</time>
      </trkpt>
      <trkpt lat="44.86772" lon="5.6797">
        <ele>614.2</ele>
        <time>2023-05-16T09:42:10.651Z</time>
      </trkpt>
      <trkpt lat="44.86769" lon="5.67975">
        <ele>614.3</ele>
        <time>2023-05-16T09:42:12.421Z</time>
      </trkpt>
      <trkpt lat="44.86767" lon="5.6798">
        <ele>614.4</ele>
        <time>2023-05-16T09:42:13.987Z</time>
      </trkpt>
      <trkpt lat="44.86764" lon="5.67985">
        <ele>614.5</ele>
        <time>2023-05-16T09:42:15.758Z</time>
      </trkpt>
      <trkpt lat="44.86762" lon="5.67988">
        <ele>614.5</ele>
        <time>2023-05-16T09:42:16.798Z</time>
      </trkpt>
      <trkpt lat="44.8676" lon="5.67991">
        <ele>614.6</ele>
        <time>2023-05-16T09:42:17.957Z</time>
      </trkpt>
      <trkpt lat="44.86758" lon="5.67994">
        <ele>614.8</ele>
        <time>2023-05-16T09:42:19.254Z</time>
      </trkpt>
      <trkpt lat="44.86756" lon="5.67997">
        <ele>614.9</ele>
        <time>2023-05-16T09:42:20.413Z</time>
      </trkpt>
      <trkpt lat="44.86754" lon="5.68">
        <ele>615.1</ele>
        <time>2023-05-16T09:42:21.709Z</time>
      </trkpt>
      <trkpt lat="44.86752" lon="5.68003">
        <ele>615.3</ele>
        <time>2023-05-16T09:42:23.006Z</time>
      </trkpt>
      <trkpt lat="44.8675" lon="5.68007">
        <ele>615.5</ele>
        <time>2023-05-16T09:42:24.493Z</time>
      </trkpt>
      <trkpt lat="44.86747" lon="5.68011">
        <ele>615.6</ele>
        <time>2023-05-16T09:42:26.080Z</time>
      </trkpt>
      <trkpt lat="44.86745" lon="5.68015">
        <ele>615.7</ele>
        <time>2023-05-16T09:42:27.433Z</time>
      </trkpt>
      <trkpt lat="44.86743" lon="5.6802">
        <ele>615.8</ele>
        <time>2023-05-16T09:42:29.000Z</time>
      </trkpt>
      <trkpt lat="44.86741" lon="5.68024">
        <ele>615.9</ele>
        <time>2023-05-16T09:42:30.353Z</time>
      </trkpt>
      <trkpt lat="44.86738" lon="5.68028">
        <ele>615.9</ele>
        <time>2023-05-16T09:42:31.825Z</time>
      </trkpt>
      <trkpt lat="44.86735" lon="5.68033">
        <ele>616</ele>
        <time>2023-05-16T09:42:33.595Z</time>
      </trkpt>
      <trkpt lat="44.86733" lon="5.68036">
        <ele>616.1</ele>
        <time>2023-05-16T09:42:34.754Z</time>
      </trkpt>
      <trkpt lat="44.8673" lon="5.6804">
        <ele>616.2</ele>
        <time>2023-05-16T09:42:36.341Z</time>
      </trkpt>
      <trkpt lat="44.86728" lon="5.68044">
        <ele>616.2</ele>
        <time>2023-05-16T09:42:37.577Z</time>
      </trkpt>
      <trkpt lat="44.86726" lon="5.68047">
        <ele>616.3</ele>
        <time>2023-05-16T09:42:38.736Z</time>
      </trkpt>
      <trkpt lat="44.86724" lon="5.68051">
        <ele>616.4</ele>
        <time>2023-05-16T09:42:40.090Z</time>
      </trkpt>
      <trkpt lat="44.86722" lon="5.68054">
        <ele>616.5</ele>
        <time>2023-05-16T09:42:41.249Z</time>
      </trkpt>
      <trkpt lat="44.86722" lon="5.68058">
        <ele>616.5</ele>
        <time>2023-05-16T09:42:42.259Z</time>
      </trkpt>
      <trkpt lat="44.86722" lon="5.68063">
        <ele>616.7</ele>
        <time>2023-05-16T09:42:43.772Z</time>
      </trkpt>
      <trkpt lat="44.86723" lon="5.6807">
        <ele>617.2</ele>
        <time>2023-05-16T09:42:46.265Z</time>
      </trkpt>
      <trkpt lat="44.86722" lon="5.68077">
        <ele>617.8</ele>
        <time>2023-05-16T09:42:48.938Z</time>
      </trkpt>
      <trkpt lat="44.86719" lon="5.68083">
        <ele>618.7</ele>
        <time>2023-05-16T09:42:52.298Z</time>
      </trkpt>
      <trkpt lat="44.86715" lon="5.68087">
        <ele>619.7</ele>
        <time>2023-05-16T09:42:55.866Z</time>
      </trkpt>
      <trkpt lat="44.86713" lon="5.68093">
        <ele>620.7</ele>
        <time>2023-05-16T09:42:59.408Z</time>
      </trkpt>
      <trkpt lat="44.86713" lon="5.68099">
        <ele>621.4</ele>
        <time>2023-05-16T09:43:02.068Z</time>
      </trkpt>
      <trkpt lat="44.86714" lon="5.68104">
        <ele>622.3</ele>
        <time>2023-05-16T09:43:05.219Z</time>
      </trkpt>
      <trkpt lat="44.86714" lon="5.68109">
        <ele>623.1</ele>
        <time>2023-05-16T09:43:08.032Z</time>
      </trkpt>
      <trkpt lat="44.86712" lon="5.68113">
        <ele>623.9</ele>
        <time>2023-05-16T09:43:10.839Z</time>
      </trkpt>
      <trkpt lat="44.86711" lon="5.68117">
        <ele>624.6</ele>
        <time>2023-05-16T09:43:13.294Z</time>
      </trkpt>
      <trkpt lat="44.86709" lon="5.68122">
        <ele>625.4</ele>
        <time>2023-05-16T09:43:16.172Z</time>
      </trkpt>
      <trkpt lat="44.86706" lon="5.68124">
        <ele>626.3</ele>
        <time>2023-05-16T09:43:19.342Z</time>
      </trkpt>
      <trkpt lat="44.86703" lon="5.68128">
        <ele>627.4</ele>
        <time>2023-05-16T09:43:23.210Z</time>
      </trkpt>
      <trkpt lat="44.86701" lon="5.68131">
        <ele>628.3</ele>
        <time>2023-05-16T09:43:26.465Z</time>
      </trkpt>
      <trkpt lat="44.86699" lon="5.68133">
        <ele>629.2</ele>
        <time>2023-05-16T09:43:29.948Z</time>
      </trkpt>
      <trkpt lat="44.86696" lon="5.68136">
        <ele>630.1</ele>
        <time>2023-05-16T09:43:33.099Z</time>
      </trkpt>
      <trkpt lat="44.86693" lon="5.68138">
        <ele>630.8</ele>
        <time>2023-05-16T09:43:35.582Z</time>
      </trkpt>
      <trkpt lat="44.8669" lon="5.68141">
        <ele>631.5</ele>
        <time>2023-05-16T09:43:38.120Z</time>
      </trkpt>
      <trkpt lat="44.86689" lon="5.68145">
        <ele>631.7</ele>
        <time>2023-05-16T09:43:39.447Z</time>
      </trkpt>
      <trkpt lat="44.86687" lon="5.68147">
        <ele>631.9</ele>
        <time>2023-05-16T09:43:40.585Z</time>
      </trkpt>
      <trkpt lat="44.86686" lon="5.68151">
        <ele>632.1</ele>
        <time>2023-05-16T09:43:41.911Z</time>
      </trkpt>
      <trkpt lat="44.86686" lon="5.68157">
        <ele>632.5</ele>
        <time>2023-05-16T09:43:43.973Z</time>
      </trkpt>
      <trkpt lat="44.86686" lon="5.68161">
        <ele>633</ele>
        <time>2023-05-16T09:43:45.827Z</time>
      </trkpt>
      <trkpt lat="44.86687" lon="5.68166">
        <ele>633.6</ele>
        <time>2023-05-16T09:43:48.115Z</time>
      </trkpt>
      <trkpt lat="44.86688" lon="5.68172">
        <ele>634.1</ele>
        <time>2023-05-16T09:43:50.390Z</time>
      </trkpt>
      <trkpt lat="44.86688" lon="5.68176">
        <ele>634.3</ele>
        <time>2023-05-16T09:43:51.658Z</time>
      </trkpt>
      <trkpt lat="44.86688" lon="5.68181">
        <ele>634.8</ele>
        <time>2023-05-16T09:43:53.689Z</time>
      </trkpt>
      <trkpt lat="44.86687" lon="5.68185">
        <ele>635.6</ele>
        <time>2023-05-16T09:43:56.501Z</time>
      </trkpt>
      <trkpt lat="44.86685" lon="5.6819">
        <ele>636.1</ele>
        <time>2023-05-16T09:43:58.684Z</time>
      </trkpt>
      <trkpt lat="44.86685" lon="5.68194">
        <ele>636.3</ele>
        <time>2023-05-16T09:43:59.952Z</time>
      </trkpt>
      <trkpt lat="44.86684" lon="5.68198">
        <ele>636.5</ele>
        <time>2023-05-16T09:44:01.279Z</time>
      </trkpt>
      <trkpt lat="44.86682" lon="5.68201">
        <ele>636.6</ele>
        <time>2023-05-16T09:44:02.438Z</time>
      </trkpt>
      <trkpt lat="44.8668" lon="5.68205">
        <ele>637</ele>
        <time>2023-05-16T09:44:04.249Z</time>
      </trkpt>
      <trkpt lat="44.86677" lon="5.68208">
        <ele>637.6</ele>
        <time>2023-05-16T09:44:06.537Z</time>
      </trkpt>
      <trkpt lat="44.86675" lon="5.68213">
        <ele>638.1</ele>
        <time>2023-05-16T09:44:08.720Z</time>
      </trkpt>
      <trkpt lat="44.86674" lon="5.68217">
        <ele>638.4</ele>
        <time>2023-05-16T09:44:10.206Z</time>
      </trkpt>
      <trkpt lat="44.86675" lon="5.68221">
        <ele>638.7</ele>
        <time>2023-05-16T09:44:11.692Z</time>
      </trkpt>
      <trkpt lat="44.86673" lon="5.68225">
        <ele>638.9</ele>
        <time>2023-05-16T09:44:13.179Z</time>
      </trkpt>
      <trkpt lat="44.86671" lon="5.68229">
        <ele>639.1</ele>
        <time>2023-05-16T09:44:14.666Z</time>
      </trkpt>
      <trkpt lat="44.8667" lon="5.68233">
        <ele>639.5</ele>
        <time>2023-05-16T09:44:16.339Z</time>
      </trkpt>
      <trkpt lat="44.86666" lon="5.68234">
        <ele>640</ele>
        <time>2023-05-16T09:44:18.520Z</time>
      </trkpt>
      <trkpt lat="44.86663" lon="5.68234">
        <ele>640.3</ele>
        <time>2023-05-16T09:44:20.004Z</time>
      </trkpt>
      <trkpt lat="44.8666" lon="5.68238">
        <ele>640.3</ele>
        <time>2023-05-16T09:44:21.475Z</time>
      </trkpt>
      <trkpt lat="44.86659" lon="5.68241">
        <ele>640.3</ele>
        <time>2023-05-16T09:44:22.313Z</time>
      </trkpt>
      <trkpt lat="44.86657" lon="5.68247">
        <ele>640.3</ele>
        <time>2023-05-16T09:44:23.988Z</time>
      </trkpt>
      <trkpt lat="44.86654" lon="5.68256">
        <ele>640.2</ele>
        <time>2023-05-16T09:44:26.394Z</time>
      </trkpt>
      <trkpt lat="44.86652" lon="5.68266">
        <ele>640</ele>
        <time>2023-05-16T09:44:28.812Z</time>
      </trkpt>
      <trkpt lat="44.86651" lon="5.68282">
        <ele>639.7</ele>
        <time>2023-05-16T09:44:32.559Z</time>
      </trkpt>
      <trkpt lat="44.8665" lon="5.68291">
        <ele>639.3</ele>
        <time>2023-05-16T09:44:34.573Z</time>
      </trkpt>
      <trkpt lat="44.86651" lon="5.68297">
        <ele>639.1</ele>
        <time>2023-05-16T09:44:35.935Z</time>
      </trkpt>
      <trkpt lat="44.86645" lon="5.68296">
        <ele>638.7</ele>
        <time>2023-05-16T09:44:37.819Z</time>
      </trkpt>
      <trkpt lat="44.86641" lon="5.68298">
        <ele>638.5</ele>
        <time>2023-05-16T09:44:39.143Z</time>
      </trkpt>
      <trkpt lat="44.86635" lon="5.68303">
        <ele>638.4</ele>
        <time>2023-05-16T09:44:41.521Z</time>
      </trkpt>
      <trkpt lat="44.86631" lon="5.68305">
        <ele>638.3</ele>
        <time>2023-05-16T09:44:42.929Z</time>
      </trkpt>
      <trkpt lat="44.86626" lon="5.6831">
        <ele>638.3</ele>
        <time>2023-05-16T09:44:45.113Z</time>
      </trkpt>
      <trkpt lat="44.86621" lon="5.68314">
        <ele>638.3</ele>
        <time>2023-05-16T09:44:47.162Z</time>
      </trkpt>
      <trkpt lat="44.86617" lon="5.68318">
        <ele>638.2</ele>
        <time>2023-05-16T09:44:48.805Z</time>
      </trkpt>
      <trkpt lat="44.86612" lon="5.6832">
        <ele>638.2</ele>
        <time>2023-05-16T09:44:50.657Z</time>
      </trkpt>
      <trkpt lat="44.86606" lon="5.68321">
        <ele>638.2</ele>
        <time>2023-05-16T09:44:52.811Z</time>
      </trkpt>
      <trkpt lat="44.86598" lon="5.68322">
        <ele>638.2</ele>
        <time>2023-05-16T09:44:55.674Z</time>
      </trkpt>
      <trkpt lat="44.86591" lon="5.68321">
        <ele>638.2</ele>
        <time>2023-05-16T09:44:58.182Z</time>
      </trkpt>
      <trkpt lat="44.86584" lon="5.6832">
        <ele>638.3</ele>
        <time>2023-05-16T09:45:00.803Z</time>
      </trkpt>
      <trkpt lat="44.8658" lon="5.68322">
        <ele>638.3</ele>
        <time>2023-05-16T09:45:02.316Z</time>
      </trkpt>
      <trkpt lat="44.86576" lon="5.68323">
        <ele>638.3</ele>
        <time>2023-05-16T09:45:03.764Z</time>
      </trkpt>
      <trkpt lat="44.86573" lon="5.68324">
        <ele>638.5</ele>
        <time>2023-05-16T09:45:05.117Z</time>
      </trkpt>
      <trkpt lat="44.86575" lon="5.68328">
        <ele>638.6</ele>
        <time>2023-05-16T09:45:06.470Z</time>
      </trkpt>
      <trkpt lat="44.86574" lon="5.68334">
        <ele>638.8</ele>
        <time>2023-05-16T09:45:08.270Z</time>
      </trkpt>
      <trkpt lat="44.86573" lon="5.68339">
        <ele>639</ele>
        <time>2023-05-16T09:45:09.831Z</time>
      </trkpt>
      <trkpt lat="44.86572" lon="5.68342">
        <ele>639.4</ele>
        <time>2023-05-16T09:45:11.332Z</time>
      </trkpt>
      <trkpt lat="44.86571" lon="5.68348">
        <ele>640</ele>
        <time>2023-05-16T09:45:13.802Z</time>
      </trkpt>
      <trkpt lat="44.86569" lon="5.68352">
        <ele>640.4</ele>
        <time>2023-05-16T09:45:15.613Z</time>
      </trkpt>
      <trkpt lat="44.86567" lon="5.68356">
        <ele>640.7</ele>
        <time>2023-05-16T09:45:17.251Z</time>
      </trkpt>
      <trkpt lat="44.86565" lon="5.6836">
        <ele>641</ele>
        <time>2023-05-16T09:45:18.890Z</time>
      </trkpt>
      <trkpt lat="44.86562" lon="5.68364">
        <ele>641.6</ele>
        <time>2023-05-16T09:45:21.293Z</time>
      </trkpt>
      <trkpt lat="44.86559" lon="5.68367">
        <ele>642.1</ele>
        <time>2023-05-16T09:45:23.361Z</time>
      </trkpt>
      <trkpt lat="44.86555" lon="5.68369">
        <ele>642.3</ele>
        <time>2023-05-16T09:45:25.118Z</time>
      </trkpt>
      <trkpt lat="44.86552" lon="5.68373">
        <ele>642.3</ele>
        <time>2023-05-16T09:45:26.589Z</time>
      </trkpt>
      <trkpt lat="44.86549" lon="5.68378">
        <ele>642.4</ele>
        <time>2023-05-16T09:45:28.359Z</time>
      </trkpt>
      <trkpt lat="44.86547" lon="5.68385">
        <ele>642.5</ele>
        <time>2023-05-16T09:45:30.380Z</time>
      </trkpt>
      <trkpt lat="44.86545" lon="5.68388">
        <ele>642.5</ele>
        <time>2023-05-16T09:45:31.421Z</time>
      </trkpt>
      <trkpt lat="44.86542" lon="5.68392">
        <ele>642.5</ele>
        <time>2023-05-16T09:45:32.892Z</time>
      </trkpt>
      <trkpt lat="44.86539" lon="5.68395">
        <ele>642.5</ele>
        <time>2023-05-16T09:45:34.203Z</time>
      </trkpt>
      <trkpt lat="44.86536" lon="5.68398">
        <ele>642.4</ele>
        <time>2023-05-16T09:45:35.410Z</time>
      </trkpt>
      <trkpt lat="44.86532" lon="5.684">
        <ele>642.3</ele>
        <time>2023-05-16T09:45:36.818Z</time>
      </trkpt>
      <trkpt lat="44.86528" lon="5.68402">
        <ele>642.2</ele>
        <time>2023-05-16T09:45:38.226Z</time>
      </trkpt>
      <trkpt lat="44.86525" lon="5.68407">
        <ele>642.2</ele>
        <time>2023-05-16T09:45:39.882Z</time>
      </trkpt>
      <trkpt lat="44.86522" lon="5.68411">
        <ele>642.1</ele>
        <time>2023-05-16T09:45:41.249Z</time>
      </trkpt>
      <trkpt lat="44.8652" lon="5.68415">
        <ele>642</ele>
        <time>2023-05-16T09:45:42.382Z</time>
      </trkpt>
      <trkpt lat="44.86516" lon="5.6842">
        <ele>641.8</ele>
        <time>2023-05-16T09:45:44.084Z</time>
      </trkpt>
      <trkpt lat="44.86515" lon="5.68425">
        <ele>641.6</ele>
        <time>2023-05-16T09:45:45.233Z</time>
      </trkpt>
      <trkpt lat="44.86514" lon="5.6843">
        <ele>641.4</ele>
        <time>2023-05-16T09:45:46.381Z</time>
      </trkpt>
      <trkpt lat="44.86513" lon="5.68435">
        <ele>641.1</ele>
        <time>2023-05-16T09:45:47.530Z</time>
      </trkpt>
      <trkpt lat="44.8651" lon="5.68439">
        <ele>640.9</ele>
        <time>2023-05-16T09:45:48.817Z</time>
      </trkpt>
      <trkpt lat="44.86508" lon="5.68445">
        <ele>640.5</ele>
        <time>2023-05-16T09:45:50.283Z</time>
      </trkpt>
      <trkpt lat="44.86506" lon="5.68449">
        <ele>640.4</ele>
        <time>2023-05-16T09:45:51.416Z</time>
      </trkpt>
      <trkpt lat="44.86505" lon="5.68454">
        <ele>640.2</ele>
        <time>2023-05-16T09:45:52.565Z</time>
      </trkpt>
      <trkpt lat="44.86502" lon="5.6846">
        <ele>640</ele>
        <time>2023-05-16T09:45:54.218Z</time>
      </trkpt>
      <trkpt lat="44.86498" lon="5.68467">
        <ele>639.6</ele>
        <time>2023-05-16T09:45:56.205Z</time>
      </trkpt>
      <trkpt lat="44.86495" lon="5.68473">
        <ele>639.4</ele>
        <time>2023-05-16T09:45:57.858Z</time>
      </trkpt>
      <trkpt lat="44.86492" lon="5.68477">
        <ele>639.1</ele>
        <time>2023-05-16T09:45:59.145Z</time>
      </trkpt>
      <trkpt lat="44.8649" lon="5.68482">
        <ele>638.9</ele>
        <time>2023-05-16T09:46:00.415Z</time>
      </trkpt>
      <trkpt lat="44.86487" lon="5.68485">
        <ele>638.7</ele>
        <time>2023-05-16T09:46:01.562Z</time>
      </trkpt>
      <trkpt lat="44.86484" lon="5.68489">
        <ele>638.6</ele>
        <time>2023-05-16T09:46:02.929Z</time>
      </trkpt>
      <trkpt lat="44.86482" lon="5.68494">
        <ele>638.4</ele>
        <time>2023-05-16T09:46:04.198Z</time>
      </trkpt>
      <trkpt lat="44.86481" lon="5.68499">
        <ele>638.3</ele>
        <time>2023-05-16T09:46:05.407Z</time>
      </trkpt>
      <trkpt lat="44.86478" lon="5.68504">
        <ele>638.2</ele>
        <time>2023-05-16T09:46:06.957Z</time>
      </trkpt>
      <trkpt lat="44.86475" lon="5.68508">
        <ele>638.1</ele>
        <time>2023-05-16T09:46:08.324Z</time>
      </trkpt>
      <trkpt lat="44.86473" lon="5.68512">
        <ele>638.1</ele>
        <time>2023-05-16T09:46:09.561Z</time>
      </trkpt>
      <trkpt lat="44.8647" lon="5.68516">
        <ele>638.1</ele>
        <time>2023-05-16T09:46:11.032Z</time>
      </trkpt>
      <trkpt lat="44.86466" lon="5.68519">
        <ele>638.2</ele>
        <time>2023-05-16T09:46:12.762Z</time>
      </trkpt>
      <trkpt lat="44.86463" lon="5.68522">
        <ele>638.2</ele>
        <time>2023-05-16T09:46:14.073Z</time>
      </trkpt>
      <trkpt lat="44.8646" lon="5.68527">
        <ele>638.2</ele>
        <time>2023-05-16T09:46:15.728Z</time>
      </trkpt>
      <trkpt lat="44.86458" lon="5.68531">
        <ele>638.4</ele>
        <time>2023-05-16T09:46:17.215Z</time>
      </trkpt>
      <trkpt lat="44.86459" lon="5.68536">
        <ele>638.5</ele>
        <time>2023-05-16T09:46:18.644Z</time>
      </trkpt>
      <trkpt lat="44.86457" lon="5.68541">
        <ele>638.6</ele>
        <time>2023-05-16T09:46:20.210Z</time>
      </trkpt>
      <trkpt lat="44.86458" lon="5.68547">
        <ele>638.8</ele>
        <time>2023-05-16T09:46:22.010Z</time>
      </trkpt>
      <trkpt lat="44.86457" lon="5.68552">
        <ele>639.1</ele>
        <time>2023-05-16T09:46:23.719Z</time>
      </trkpt>
      <trkpt lat="44.86457" lon="5.68556">
        <ele>639.7</ele>
        <time>2023-05-16T09:46:25.846Z</time>
      </trkpt>
      <trkpt lat="44.86456" lon="5.68562">
        <ele>640.4</ele>
        <time>2023-05-16T09:46:28.534Z</time>
      </trkpt>
      <trkpt lat="44.86456" lon="5.68569">
        <ele>641.2</ele>
        <time>2023-05-16T09:46:31.598Z</time>
      </trkpt>
      <trkpt lat="44.86455" lon="5.68575">
        <ele>642</ele>
        <time>2023-05-16T09:46:34.531Z</time>
      </trkpt>
      <trkpt lat="44.86454" lon="5.68583">
        <ele>642.6</ele>
        <time>2023-05-16T09:46:37.422Z</time>
      </trkpt>
      <trkpt lat="44.86456" lon="5.68587">
        <ele>643</ele>
        <time>2023-05-16T09:46:39.233Z</time>
      </trkpt>
      <trkpt lat="44.86458" lon="5.68593">
        <ele>643.7</ele>
        <time>2023-05-16T09:46:42.006Z</time>
      </trkpt>
      <trkpt lat="44.86461" lon="5.68596">
        <ele>644.5</ele>
        <time>2023-05-16T09:46:44.830Z</time>
      </trkpt>
      <trkpt lat="44.86462" lon="5.68601">
        <ele>644.9</ele>
        <time>2023-05-16T09:46:46.708Z</time>
      </trkpt>
      <trkpt lat="44.86462" lon="5.68605">
        <ele>645.3</ele>
        <time>2023-05-16T09:46:48.333Z</time>
      </trkpt>
      <trkpt lat="44.86461" lon="5.68609">
        <ele>646</ele>
        <time>2023-05-16T09:46:50.788Z</time>
      </trkpt>
      <trkpt lat="44.86459" lon="5.68613">
        <ele>646.4</ele>
        <time>2023-05-16T09:46:52.599Z</time>
      </trkpt>
      <trkpt lat="44.86458" lon="5.68618">
        <ele>646.6</ele>
        <time>2023-05-16T09:46:54.160Z</time>
      </trkpt>
      <trkpt lat="44.86455" lon="5.68622">
        <ele>646.8</ele>
        <time>2023-05-16T09:46:55.875Z</time>
      </trkpt>
      <trkpt lat="44.86454" lon="5.68625">
        <ele>647</ele>
        <time>2023-05-16T09:46:56.980Z</time>
      </trkpt>
      <trkpt lat="44.86453" lon="5.6863">
        <ele>647.2</ele>
        <time>2023-05-16T09:46:58.540Z</time>
      </trkpt>
      <trkpt lat="44.86453" lon="5.68636">
        <ele>647.5</ele>
        <time>2023-05-16T09:47:00.442Z</time>
      </trkpt>
      <trkpt lat="44.86453" lon="5.68642">
        <ele>648.1</ele>
        <time>2023-05-16T09:47:02.880Z</time>
      </trkpt>
      <trkpt lat="44.86452" lon="5.68648">
        <ele>648.8</ele>
        <time>2023-05-16T09:47:05.568Z</time>
      </trkpt>
      <trkpt lat="44.86451" lon="5.68653">
        <ele>649.6</ele>
        <time>2023-05-16T09:47:08.392Z</time>
      </trkpt>
      <trkpt lat="44.86449" lon="5.68657">
        <ele>650.4</ele>
        <time>2023-05-16T09:47:11.200Z</time>
      </trkpt>
      <trkpt lat="44.86446" lon="5.68661">
        <ele>651</ele>
        <time>2023-05-16T09:47:13.603Z</time>
      </trkpt>
      <trkpt lat="44.86443" lon="5.68664">
        <ele>651.4</ele>
        <time>2023-05-16T09:47:15.479Z</time>
      </trkpt>
      <trkpt lat="44.86441" lon="5.68668">
        <ele>651.7</ele>
        <time>2023-05-16T09:47:17.117Z</time>
      </trkpt>
      <trkpt lat="44.86439" lon="5.68672">
        <ele>652.2</ele>
        <time>2023-05-16T09:47:19.128Z</time>
      </trkpt>
      <trkpt lat="44.86437" lon="5.68675">
        <ele>652.6</ele>
        <time>2023-05-16T09:47:20.776Z</time>
      </trkpt>
      <trkpt lat="44.86436" lon="5.6868">
        <ele>652.7</ele>
        <time>2023-05-16T09:47:22.205Z</time>
      </trkpt>
      <trkpt lat="44.86434" lon="5.68683">
        <ele>652.9</ele>
        <time>2023-05-16T09:47:23.502Z</time>
      </trkpt>
      <trkpt lat="44.86432" lon="5.68686">
        <ele>653.2</ele>
        <time>2023-05-16T09:47:24.961Z</time>
      </trkpt>
      <trkpt lat="44.8643" lon="5.6869">
        <ele>653.4</ele>
        <time>2023-05-16T09:47:26.447Z</time>
      </trkpt>
      <trkpt lat="44.86429" lon="5.68694">
        <ele>653.6</ele>
        <time>2023-05-16T09:47:27.774Z</time>
      </trkpt>
      <trkpt lat="44.86428" lon="5.68698">
        <ele>654</ele>
        <time>2023-05-16T09:47:29.447Z</time>
      </trkpt>
      <trkpt lat="44.86426" lon="5.68701">
        <ele>654.4</ele>
        <time>2023-05-16T09:47:31.095Z</time>
      </trkpt>
      <trkpt lat="44.86425" lon="5.68706">
        <ele>655</ele>
        <time>2023-05-16T09:47:33.384Z</time>
      </trkpt>
      <trkpt lat="44.86421" lon="5.6871">
        <ele>655.4</ele>
        <time>2023-05-16T09:47:35.661Z</time>
      </trkpt>
      <trkpt lat="44.86419" lon="5.68713">
        <ele>655.6</ele>
        <time>2023-05-16T09:47:36.957Z</time>
      </trkpt>
      <trkpt lat="44.86417" lon="5.68716">
        <ele>656</ele>
        <time>2023-05-16T09:47:38.606Z</time>
      </trkpt>
      <trkpt lat="44.86415" lon="5.6872">
        <ele>656.7</ele>
        <time>2023-05-16T09:47:41.109Z</time>
      </trkpt>
      <trkpt lat="44.86413" lon="5.68725">
        <ele>657.1</ele>
        <time>2023-05-16T09:47:43.111Z</time>
      </trkpt>
      <trkpt lat="44.8641" lon="5.68728">
        <ele>657.3</ele>
        <time>2023-05-16T09:47:44.669Z</time>
      </trkpt>
      <trkpt lat="44.86409" lon="5.68733">
        <ele>657.6</ele>
        <time>2023-05-16T09:47:46.379Z</time>
      </trkpt>
      <trkpt lat="44.86408" lon="5.68736">
        <ele>657.8</ele>
        <time>2023-05-16T09:47:47.483Z</time>
      </trkpt>
      <trkpt lat="44.86404" lon="5.68737">
        <ele>658</ele>
        <time>2023-05-16T09:47:49.176Z</time>
      </trkpt>
      <trkpt lat="44.86401" lon="5.68738">
        <ele>658.2</ele>
        <time>2023-05-16T09:47:50.529Z</time>
      </trkpt>
      <trkpt lat="44.86398" lon="5.68741">
        <ele>658.5</ele>
        <time>2023-05-16T09:47:52.236Z</time>
      </trkpt>
      <trkpt lat="44.86395" lon="5.68743">
        <ele>658.9</ele>
        <time>2023-05-16T09:47:54.001Z</time>
      </trkpt>
      <trkpt lat="44.86392" lon="5.68745">
        <ele>659.4</ele>
        <time>2023-05-16T09:47:55.972Z</time>
      </trkpt>
      <trkpt lat="44.86388" lon="5.68749">
        <ele>660.1</ele>
        <time>2023-05-16T09:47:58.799Z</time>
      </trkpt>
      <trkpt lat="44.86387" lon="5.68753">
        <ele>660.7</ele>
        <time>2023-05-16T09:48:00.950Z</time>
      </trkpt>
      <trkpt lat="44.86387" lon="5.68757">
        <ele>661.2</ele>
        <time>2023-05-16T09:48:02.804Z</time>
      </trkpt>
      <trkpt lat="44.86387" lon="5.68763">
        <ele>661.6</ele>
        <time>2023-05-16T09:48:04.865Z</time>
      </trkpt>
      <trkpt lat="44.86386" lon="5.68768">
        <ele>661.9</ele>
        <time>2023-05-16T09:48:06.574Z</time>
      </trkpt>
      <trkpt lat="44.86383" lon="5.6877">
        <ele>662</ele>
        <time>2023-05-16T09:48:07.874Z</time>
      </trkpt>
      <trkpt lat="44.8638" lon="5.68768">
        <ele>662.2</ele>
        <time>2023-05-16T09:48:09.308Z</time>
      </trkpt>
      <trkpt lat="44.86378" lon="5.68767">
        <ele>662.3</ele>
        <time>2023-05-16T09:48:10.187Z</time>
      </trkpt>
      <trkpt lat="44.86374" lon="5.6877">
        <ele>662.5</ele>
        <time>2023-05-16T09:48:12.043Z</time>
      </trkpt>
      <trkpt lat="44.86371" lon="5.68772">
        <ele>662.7</ele>
        <time>2023-05-16T09:48:13.478Z</time>
      </trkpt>
      <trkpt lat="44.86368" lon="5.68773">
        <ele>663.2</ele>
        <time>2023-05-16T09:48:15.388Z</time>
      </trkpt>
      <trkpt lat="44.86364" lon="5.68775">
        <ele>663.7</ele>
        <time>2023-05-16T09:48:17.624Z</time>
      </trkpt>
      <trkpt lat="44.8636" lon="5.68778">
        <ele>664</ele>
        <time>2023-05-16T09:48:19.621Z</time>
      </trkpt>
      <trkpt lat="44.8636" lon="5.68781">
        <ele>664.3</ele>
        <time>2023-05-16T09:48:20.840Z</time>
      </trkpt>
      <trkpt lat="44.8636" lon="5.68787">
        <ele>664.8</ele>
        <time>2023-05-16T09:48:23.079Z</time>
      </trkpt>
      <trkpt lat="44.86361" lon="5.68792">
        <ele>665.3</ele>
        <time>2023-05-16T09:48:25.148Z</time>
      </trkpt>
      <trkpt lat="44.86362" lon="5.68797">
        <ele>665.7</ele>
        <time>2023-05-16T09:48:27.026Z</time>
      </trkpt>
      <trkpt lat="44.86362" lon="5.68803">
        <ele>665.8</ele>
        <time>2023-05-16T09:48:28.658Z</time>
      </trkpt>
      <trkpt lat="44.86359" lon="5.68807">
        <ele>665.9</ele>
        <time>2023-05-16T09:48:30.245Z</time>
      </trkpt>
      <trkpt lat="44.86355" lon="5.68808">
        <ele>666</ele>
        <time>2023-05-16T09:48:31.809Z</time>
      </trkpt>
      <trkpt lat="44.86352" lon="5.68811">
        <ele>666.1</ele>
        <time>2023-05-16T09:48:33.236Z</time>
      </trkpt>
      <trkpt lat="44.86348" lon="5.68814">
        <ele>666.1</ele>
        <time>2023-05-16T09:48:34.851Z</time>
      </trkpt>
      <trkpt lat="44.86344" lon="5.68816">
        <ele>666.2</ele>
        <time>2023-05-16T09:48:36.479Z</time>
      </trkpt>
      <trkpt lat="44.86342" lon="5.68819">
        <ele>666.3</ele>
        <time>2023-05-16T09:48:37.638Z</time>
      </trkpt>
      <trkpt lat="44.86339" lon="5.68823">
        <ele>666.4</ele>
        <time>2023-05-16T09:48:39.225Z</time>
      </trkpt>
      <trkpt lat="44.86338" lon="5.68828">
        <ele>666.5</ele>
        <time>2023-05-16T09:48:40.654Z</time>
      </trkpt>
      <trkpt lat="44.86337" lon="5.68833">
        <ele>666.7</ele>
        <time>2023-05-16T09:48:42.214Z</time>
      </trkpt>
      <trkpt lat="44.86335" lon="5.68835">
        <ele>666.9</ele>
        <time>2023-05-16T09:48:43.353Z</time>
      </trkpt>
      <trkpt lat="44.86331" lon="5.68838">
        <ele>667.2</ele>
        <time>2023-05-16T09:48:45.350Z</time>
      </trkpt>
      <trkpt lat="44.86328" lon="5.68841">
        <ele>667.7</ele>
        <time>2023-05-16T09:48:47.418Z</time>
      </trkpt>
      <trkpt lat="44.86326" lon="5.68844">
        <ele>668</ele>
        <time>2023-05-16T09:48:48.877Z</time>
      </trkpt>
      <trkpt lat="44.86323" lon="5.68847">
        <ele>668.4</ele>
        <time>2023-05-16T09:48:50.753Z</time>
      </trkpt>
      <trkpt lat="44.86319" lon="5.6885">
        <ele>668.6</ele>
        <time>2023-05-16T09:48:52.610Z</time>
      </trkpt>
      <trkpt lat="44.86317" lon="5.6885">
        <ele>668.7</ele>
        <time>2023-05-16T09:48:53.445Z</time>
      </trkpt>
      <trkpt lat="44.86313" lon="5.6885">
        <ele>668.9</ele>
        <time>2023-05-16T09:48:55.117Z</time>
      </trkpt>
      <trkpt lat="44.8631" lon="5.68852">
        <ele>669.2</ele>
        <time>2023-05-16T09:48:56.705Z</time>
      </trkpt>
      <trkpt lat="44.86306" lon="5.68853">
        <ele>669.6</ele>
        <time>2023-05-16T09:48:58.704Z</time>
      </trkpt>
      <trkpt lat="44.86303" lon="5.68855">
        <ele>670.4</ele>
        <time>2023-05-16T09:49:01.506Z</time>
      </trkpt>
      <trkpt lat="44.86299" lon="5.68856">
        <ele>670.8</ele>
        <time>2023-05-16T09:49:03.505Z</time>
      </trkpt>
      <trkpt lat="44.86296" lon="5.68859">
        <ele>671.5</ele>
        <time>2023-05-16T09:49:06.043Z</time>
      </trkpt>
      <trkpt lat="44.86293" lon="5.68861">
        <ele>672.2</ele>
        <time>2023-05-16T09:49:08.525Z</time>
      </trkpt>
      <trkpt lat="44.86289" lon="5.68862">
        <ele>672.8</ele>
        <time>2023-05-16T09:49:10.911Z</time>
      </trkpt>
      <trkpt lat="44.86285" lon="5.68862">
        <ele>673.1</ele>
        <time>2023-05-16T09:49:12.727Z</time>
      </trkpt>
      <trkpt lat="44.86283" lon="5.68861">
        <ele>673.3</ele>
        <time>2023-05-16T09:49:13.756Z</time>
      </trkpt>
      <trkpt lat="44.8628" lon="5.68862">
        <ele>673.4</ele>
        <time>2023-05-16T09:49:14.973Z</time>
      </trkpt>
      <trkpt lat="44.86277" lon="5.68865">
        <ele>673.6</ele>
        <time>2023-05-16T09:49:16.532Z</time>
      </trkpt>
      <trkpt lat="44.86274" lon="5.68867">
        <ele>673.8</ele>
        <time>2023-05-16T09:49:17.966Z</time>
      </trkpt>
      <trkpt lat="44.86271" lon="5.68868">
        <ele>674.2</ele>
        <time>2023-05-16T09:49:19.661Z</time>
      </trkpt>
      <trkpt lat="44.86268" lon="5.6887">
        <ele>674.7</ele>
        <time>2023-05-16T09:49:21.631Z</time>
      </trkpt>
      <trkpt lat="44.86265" lon="5.68874">
        <ele>675.1</ele>
        <time>2023-05-16T09:49:23.652Z</time>
      </trkpt>
      <trkpt lat="44.86266" lon="5.68879">
        <ele>675.5</ele>
        <time>2023-05-16T09:49:25.529Z</time>
      </trkpt>
      <trkpt lat="44.86267" lon="5.68883">
        <ele>676</ele>
        <time>2023-05-16T09:49:27.422Z</time>
      </trkpt>
      <trkpt lat="44.86264" lon="5.68886">
        <ele>676.4</ele>
        <time>2023-05-16T09:49:29.298Z</time>
      </trkpt>
      <trkpt lat="44.8626" lon="5.68886">
        <ele>676.7</ele>
        <time>2023-05-16T09:49:31.115Z</time>
      </trkpt>
      <trkpt lat="44.86263" lon="5.68888">
        <ele>677</ele>
        <time>2023-05-16T09:49:32.703Z</time>
      </trkpt>
      <trkpt lat="44.86261" lon="5.68883">
        <ele>677.3</ele>
        <time>2023-05-16T09:49:34.542Z</time>
      </trkpt>
      <trkpt lat="44.86257" lon="5.68882">
        <ele>677.5</ele>
        <time>2023-05-16T09:49:36.235Z</time>
      </trkpt>
      <trkpt lat="44.86255" lon="5.68881">
        <ele>677.8</ele>
        <time>2023-05-16T09:49:37.453Z</time>
      </trkpt>
      <trkpt lat="44.86251" lon="5.68879">
        <ele>678.3</ele>
        <time>2023-05-16T09:49:39.689Z</time>
      </trkpt>
      <trkpt lat="44.86249" lon="5.68878">
        <ele>678.6</ele>
        <time>2023-05-16T09:49:40.906Z</time>
      </trkpt>
      <trkpt lat="44.86246" lon="5.68877">
        <ele>678.9</ele>
        <time>2023-05-16T09:49:42.417Z</time>
      </trkpt>
      <trkpt lat="44.86242" lon="5.68877">
        <ele>679</ele>
        <time>2023-05-16T09:49:43.959Z</time>
      </trkpt>
      <trkpt lat="44.86242" lon="5.68882">
        <ele>679.2</ele>
        <time>2023-05-16T09:49:45.471Z</time>
      </trkpt>
      <trkpt lat="44.86245" lon="5.68883">
        <ele>679.3</ele>
        <time>2023-05-16T09:49:46.688Z</time>
      </trkpt>
      <trkpt lat="44.86247" lon="5.68886">
        <ele>679.4</ele>
        <time>2023-05-16T09:49:47.847Z</time>
      </trkpt>
      <trkpt lat="44.8625" lon="5.68888">
        <ele>679.6</ele>
        <time>2023-05-16T09:49:49.281Z</time>
      </trkpt>
      <trkpt lat="44.86253" lon="5.6889">
        <ele>679.7</ele>
        <time>2023-05-16T09:49:50.581Z</time>
      </trkpt>
      <trkpt lat="44.86256" lon="5.68892">
        <ele>680</ele>
        <time>2023-05-16T09:49:52.169Z</time>
      </trkpt>
      <trkpt lat="44.86259" lon="5.68894">
        <ele>680.4</ele>
        <time>2023-05-16T09:49:53.934Z</time>
      </trkpt>
      <trkpt lat="44.86261" lon="5.68898">
        <ele>680.8</ele>
        <time>2023-05-16T09:49:55.746Z</time>
      </trkpt>
      <trkpt lat="44.86259" lon="5.68901">
        <ele>680.6</ele>
        <time>2023-05-16T09:49:56.656Z</time>
      </trkpt>
      <trkpt lat="44.86255" lon="5.689">
        <ele>680.3</ele>
        <time>2023-05-16T09:49:57.923Z</time>
      </trkpt>
      <trkpt lat="44.86252" lon="5.68899">
        <ele>680.1</ele>
        <time>2023-05-16T09:49:58.885Z</time>
      </trkpt>
      <trkpt lat="44.8625" lon="5.68902">
        <ele>679.9</ele>
        <time>2023-05-16T09:49:59.795Z</time>
      </trkpt>
      <trkpt lat="44.8625" lon="5.68907">
        <ele>681.8</ele>
        <time>2023-05-16T09:50:06.428Z</time>
      </trkpt>
      <trkpt lat="44.8625" lon="5.68912">
        <ele>682.1</ele>
        <time>2023-05-16T09:50:08.091Z</time>
      </trkpt>
      <trkpt lat="44.86253" lon="5.68913">
        <ele>682.4</ele>
        <time>2023-05-16T09:50:09.602Z</time>
      </trkpt>
      <trkpt lat="44.86252" lon="5.68918">
        <ele>683.1</ele>
        <time>2023-05-16T09:50:12.141Z</time>
      </trkpt>
      <trkpt lat="44.86249" lon="5.6892">
        <ele>683.6</ele>
        <time>2023-05-16T09:50:14.111Z</time>
      </trkpt>
      <trkpt lat="44.86246" lon="5.68921">
        <ele>684</ele>
        <time>2023-05-16T09:50:15.806Z</time>
      </trkpt>
      <trkpt lat="44.86246" lon="5.68917">
        <ele>684.4</ele>
        <time>2023-05-16T09:50:17.431Z</time>
      </trkpt>
      <trkpt lat="44.86244" lon="5.68919">
        <ele>685</ele>
        <time>2023-05-16T09:50:19.532Z</time>
      </trkpt>
      <trkpt lat="44.86241" lon="5.68922">
        <ele>685.7</ele>
        <time>2023-05-16T09:50:22.070Z</time>
      </trkpt>
      <trkpt lat="44.86238" lon="5.68924">
        <ele>686.1</ele>
        <time>2023-05-16T09:50:23.835Z</time>
      </trkpt>
      <trkpt lat="44.86238" lon="5.68929">
        <ele>686.7</ele>
        <time>2023-05-16T09:50:26.091Z</time>
      </trkpt>
      <trkpt lat="44.86242" lon="5.68929">
        <ele>687.2</ele>
        <time>2023-05-16T09:50:28.254Z</time>
      </trkpt>
      <trkpt lat="44.86245" lon="5.68929">
        <ele>687.9</ele>
        <time>2023-05-16T09:50:30.708Z</time>
      </trkpt>
      <trkpt lat="44.86249" lon="5.68929">
        <ele>688.6</ele>
        <time>2023-05-16T09:50:33.311Z</time>
      </trkpt>
      <trkpt lat="44.86251" lon="5.6893">
        <ele>688.8</ele>
        <time>2023-05-16T09:50:34.340Z</time>
      </trkpt>
      <trkpt lat="44.86255" lon="5.6893">
        <ele>689.3</ele>
        <time>2023-05-16T09:50:36.502Z</time>
      </trkpt>
      <trkpt lat="44.86259" lon="5.68931">
        <ele>689.9</ele>
        <time>2023-05-16T09:50:38.888Z</time>
      </trkpt>
      <trkpt lat="44.86262" lon="5.68931">
        <ele>690.3</ele>
        <time>2023-05-16T09:50:40.559Z</time>
      </trkpt>
      <trkpt lat="44.86266" lon="5.68932">
        <ele>690.5</ele>
        <time>2023-05-16T09:50:42.252Z</time>
      </trkpt>
      <trkpt lat="44.8627" lon="5.68931">
        <ele>690.6</ele>
        <time>2023-05-16T09:50:43.816Z</time>
      </trkpt>
      <trkpt lat="44.86274" lon="5.68931">
        <ele>690.7</ele>
        <time>2023-05-16T09:50:45.358Z</time>
      </trkpt>
      <trkpt lat="44.86277" lon="5.68932">
        <ele>690.7</ele>
        <time>2023-05-16T09:50:46.457Z</time>
      </trkpt>
      <trkpt lat="44.86281" lon="5.68931">
        <ele>690.8</ele>
        <time>2023-05-16T09:50:48.020Z</time>
      </trkpt>
      <trkpt lat="44.86285" lon="5.68931">
        <ele>690.9</ele>
        <time>2023-05-16T09:50:49.562Z</time>
      </trkpt>
      <trkpt lat="44.8629" lon="5.6893">
        <ele>690.9</ele>
        <time>2023-05-16T09:50:51.362Z</time>
      </trkpt>
      <trkpt lat="44.86293" lon="5.6893">
        <ele>690.9</ele>
        <time>2023-05-16T09:50:52.432Z</time>
      </trkpt>
      <trkpt lat="44.86294" lon="5.68934">
        <ele>691</ele>
        <time>2023-05-16T09:50:53.621Z</time>
      </trkpt>
      <trkpt lat="44.86295" lon="5.68939">
        <ele>691</ele>
        <time>2023-05-16T09:50:54.934Z</time>
      </trkpt>
      <trkpt lat="44.863" lon="5.68943">
        <ele>691</ele>
        <time>2023-05-16T09:50:56.983Z</time>
      </trkpt>
      <trkpt lat="44.86304" lon="5.68941">
        <ele>690.7</ele>
        <time>2023-05-16T09:50:58.306Z</time>
      </trkpt>
      <trkpt lat="44.86306" lon="5.68939">
        <ele>690.3</ele>
        <time>2023-05-16T09:50:59.071Z</time>
      </trkpt>
      <trkpt lat="44.86309" lon="5.68937">
        <ele>690</ele>
        <time>2023-05-16T09:51:00.106Z</time>
      </trkpt>
      <trkpt lat="44.86312" lon="5.68934">
        <ele>689.7</ele>
        <time>2023-05-16T09:51:01.253Z</time>
      </trkpt>
      <trkpt lat="44.86316" lon="5.68931">
        <ele>689.4</ele>
        <time>2023-05-16T09:51:02.666Z</time>
      </trkpt>
      <trkpt lat="44.86319" lon="5.68927">
        <ele>689.1</ele>
        <time>2023-05-16T09:51:03.953Z</time>
      </trkpt>
      <trkpt lat="44.86322" lon="5.68924">
        <ele>688.9</ele>
        <time>2023-05-16T09:51:05.100Z</time>
      </trkpt>
      <trkpt lat="44.86324" lon="5.68922">
        <ele>688.6</ele>
        <time>2023-05-16T09:51:05.865Z</time>
      </trkpt>
      <trkpt lat="44.86328" lon="5.68919">
        <ele>688.3</ele>
        <time>2023-05-16T09:51:07.278Z</time>
      </trkpt>
      <trkpt lat="44.86337" lon="5.68912">
        <ele>686.8</ele>
        <time>2023-05-16T09:51:10.483Z</time>
      </trkpt>
      <trkpt lat="44.86345" lon="5.68905">
        <ele>685.5</ele>
        <time>2023-05-16T09:51:13.419Z</time>
      </trkpt>
      <trkpt lat="44.8635" lon="5.68901">
        <ele>684.5</ele>
        <time>2023-05-16T09:51:15.212Z</time>
      </trkpt>
      <trkpt lat="44.86354" lon="5.68898">
        <ele>683.8</ele>
        <time>2023-05-16T09:51:16.625Z</time>
      </trkpt>
      <trkpt lat="44.86357" lon="5.68896">
        <ele>683.4</ele>
        <time>2023-05-16T09:51:17.660Z</time>
      </trkpt>
      <trkpt lat="44.8636" lon="5.68894">
        <ele>683</ele>
        <time>2023-05-16T09:51:18.695Z</time>
      </trkpt>
      <trkpt lat="44.86363" lon="5.68891">
        <ele>680.9</ele>
        <time>2023-05-16T09:51:19.842Z</time>
      </trkpt>
      <trkpt lat="44.86366" lon="5.6889">
        <ele>680.4</ele>
        <time>2023-05-16T09:51:20.803Z</time>
      </trkpt>
      <trkpt lat="44.86369" lon="5.68891">
        <ele>679.6</ele>
        <time>2023-05-16T09:51:21.764Z</time>
      </trkpt>
      <trkpt lat="44.86371" lon="5.68894">
        <ele>679.3</ele>
        <time>2023-05-16T09:51:22.675Z</time>
      </trkpt>
      <trkpt lat="44.86374" lon="5.68896">
        <ele>678.9</ele>
        <time>2023-05-16T09:51:23.710Z</time>
      </trkpt>
      <trkpt lat="44.86378" lon="5.68895">
        <ele>678.3</ele>
        <time>2023-05-16T09:51:24.977Z</time>
      </trkpt>
      <trkpt lat="44.86382" lon="5.68894">
        <ele>677.8</ele>
        <time>2023-05-16T09:51:26.244Z</time>
      </trkpt>
      <trkpt lat="44.86385" lon="5.68896">
        <ele>677.1</ele>
        <time>2023-05-16T09:51:27.279Z</time>
      </trkpt>
      <trkpt lat="44.86386" lon="5.68902">
        <ele>676.5</ele>
        <time>2023-05-16T09:51:28.641Z</time>
      </trkpt>
      <trkpt lat="44.86386" lon="5.68908">
        <ele>675.8</ele>
        <time>2023-05-16T09:51:29.968Z</time>
      </trkpt>
      <trkpt lat="44.8639" lon="5.68909">
        <ele>675.3</ele>
        <time>2023-05-16T09:51:31.235Z</time>
      </trkpt>
      <trkpt lat="44.86394" lon="5.68909">
        <ele>674.8</ele>
        <time>2023-05-16T09:51:32.482Z</time>
      </trkpt>
      <trkpt lat="44.86396" lon="5.68912">
        <ele>674.5</ele>
        <time>2023-05-16T09:51:33.393Z</time>
      </trkpt>
      <trkpt lat="44.86396" lon="5.68916">
        <ele>674.3</ele>
        <time>2023-05-16T09:51:34.277Z</time>
      </trkpt>
      <trkpt lat="44.864" lon="5.68915">
        <ele>673.9</ele>
        <time>2023-05-16T09:51:35.544Z</time>
      </trkpt>
      <trkpt lat="44.86405" lon="5.68915">
        <ele>673.4</ele>
        <time>2023-05-16T09:51:37.104Z</time>
      </trkpt>
      <trkpt lat="44.86409" lon="5.68918">
        <ele>672.9</ele>
        <time>2023-05-16T09:51:38.517Z</time>
      </trkpt>
      <trkpt lat="44.86412" lon="5.68921">
        <ele>672.5</ele>
        <time>2023-05-16T09:51:39.664Z</time>
      </trkpt>
      <trkpt lat="44.86414" lon="5.68924">
        <ele>672</ele>
        <time>2023-05-16T09:51:40.574Z</time>
      </trkpt>
      <trkpt lat="44.86416" lon="5.6893">
        <ele>671.4</ele>
        <time>2023-05-16T09:51:42.040Z</time>
      </trkpt>
      <trkpt lat="44.86416" lon="5.68934">
        <ele>670.9</ele>
        <time>2023-05-16T09:51:42.924Z</time>
      </trkpt>
      <trkpt lat="44.86417" lon="5.68941">
        <ele>670.3</ele>
        <time>2023-05-16T09:51:44.503Z</time>
      </trkpt>
      <trkpt lat="44.86418" lon="5.68948">
        <ele>669.6</ele>
        <time>2023-05-16T09:51:46.081Z</time>
      </trkpt>
      <trkpt lat="44.86425" lon="5.68957">
        <ele>668.4</ele>
        <time>2023-05-16T09:51:49.035Z</time>
      </trkpt>
      <trkpt lat="44.86432" lon="5.68965">
        <ele>667.1</ele>
        <time>2023-05-16T09:51:51.845Z</time>
      </trkpt>
      <trkpt lat="44.86439" lon="5.68973">
        <ele>665.8</ele>
        <time>2023-05-16T09:51:54.655Z</time>
      </trkpt>
      <trkpt lat="44.86447" lon="5.68983">
        <ele>664.3</ele>
        <time>2023-05-16T09:51:57.988Z</time>
      </trkpt>
      <trkpt lat="44.86454" lon="5.68993">
        <ele>662.3</ele>
        <time>2023-05-16T09:52:01.095Z</time>
      </trkpt>
      <trkpt lat="44.86462" lon="5.69002">
        <ele>660.7</ele>
        <time>2023-05-16T09:52:04.287Z</time>
      </trkpt>
      <trkpt lat="44.86471" lon="5.6901">
        <ele>659.2</ele>
        <time>2023-05-16T09:52:07.604Z</time>
      </trkpt>
      <trkpt lat="44.86479" lon="5.69017">
        <ele>658.4</ele>
        <time>2023-05-16T09:52:10.540Z</time>
      </trkpt>
      <trkpt lat="44.86484" lon="5.69022">
        <ele>658</ele>
        <time>2023-05-16T09:52:12.452Z</time>
      </trkpt>
      <trkpt lat="44.86487" lon="5.69025">
        <ele>657.9</ele>
        <time>2023-05-16T09:52:13.659Z</time>
      </trkpt>
      <trkpt lat="44.86492" lon="5.69028">
        <ele>657.7</ele>
        <time>2023-05-16T09:52:15.393Z</time>
      </trkpt>
      <trkpt lat="44.86497" lon="5.69031">
        <ele>657.7</ele>
        <time>2023-05-16T09:52:17.329Z</time>
      </trkpt>
      <trkpt lat="44.86502" lon="5.69034">
        <ele>657.6</ele>
        <time>2023-05-16T09:52:19.161Z</time>
      </trkpt>
      <trkpt lat="44.86506" lon="5.69035">
        <ele>657.5</ele>
        <time>2023-05-16T09:52:20.505Z</time>
      </trkpt>
      <trkpt lat="44.86512" lon="5.69035">
        <ele>657.4</ele>
        <time>2023-05-16T09:52:22.537Z</time>
      </trkpt>
      <trkpt lat="44.86518" lon="5.69038">
        <ele>657.2</ele>
        <time>2023-05-16T09:52:24.601Z</time>
      </trkpt>
      <trkpt lat="44.86521" lon="5.69042">
        <ele>657</ele>
        <time>2023-05-16T09:52:25.889Z</time>
      </trkpt>
      <trkpt lat="44.86524" lon="5.69045">
        <ele>656.8</ele>
        <time>2023-05-16T09:52:27.035Z</time>
      </trkpt>
      <trkpt lat="44.86526" lon="5.69048">
        <ele>656.5</ele>
        <time>2023-05-16T09:52:27.946Z</time>
      </trkpt>
      <trkpt lat="44.8653" lon="5.6905">
        <ele>656.3</ele>
        <time>2023-05-16T09:52:29.270Z</time>
      </trkpt>
      <trkpt lat="44.86534" lon="5.69051">
        <ele>656.2</ele>
        <time>2023-05-16T09:52:30.613Z</time>
      </trkpt>
      <trkpt lat="44.86536" lon="5.69053">
        <ele>656.1</ele>
        <time>2023-05-16T09:52:31.387Z</time>
      </trkpt>
      <trkpt lat="44.86537" lon="5.69057">
        <ele>656</ele>
        <time>2023-05-16T09:52:32.356Z</time>
      </trkpt>
      <trkpt lat="44.86534" lon="5.69063">
        <ele>656</ele>
        <time>2023-05-16T09:52:34.211Z</time>
      </trkpt>
      <trkpt lat="44.86532" lon="5.69067">
        <ele>656</ele>
        <time>2023-05-16T09:52:35.448Z</time>
      </trkpt>
      <trkpt lat="44.86529" lon="5.69071">
        <ele>656</ele>
        <time>2023-05-16T09:52:36.919Z</time>
      </trkpt>
      <trkpt lat="44.86526" lon="5.69077">
        <ele>656</ele>
        <time>2023-05-16T09:52:38.774Z</time>
      </trkpt>
      <trkpt lat="44.86524" lon="5.69082">
        <ele>656</ele>
        <time>2023-05-16T09:52:40.225Z</time>
      </trkpt>
      <trkpt lat="44.86521" lon="5.69085">
        <ele>656</ele>
        <time>2023-05-16T09:52:41.535Z</time>
      </trkpt>
      <trkpt lat="44.86518" lon="5.6909">
        <ele>656</ele>
        <time>2023-05-16T09:52:43.190Z</time>
      </trkpt>
      <trkpt lat="44.86516" lon="5.69093">
        <ele>656</ele>
        <time>2023-05-16T09:52:44.231Z</time>
      </trkpt>
      <trkpt lat="44.86515" lon="5.69097">
        <ele>656</ele>
        <time>2023-05-16T09:52:45.303Z</time>
      </trkpt>
      <trkpt lat="44.86513" lon="5.69101">
        <ele>656</ele>
        <time>2023-05-16T09:52:46.539Z</time>
      </trkpt>
      <trkpt lat="44.86512" lon="5.69104">
        <ele>656</ele>
        <time>2023-05-16T09:52:47.377Z</time>
      </trkpt>
      <trkpt lat="44.8651" lon="5.69108">
        <ele>656.1</ele>
        <time>2023-05-16T09:52:48.731Z</time>
      </trkpt>
      <trkpt lat="44.86509" lon="5.69112">
        <ele>656.1</ele>
        <time>2023-05-16T09:52:49.802Z</time>
      </trkpt>
      <trkpt lat="44.86507" lon="5.69117">
        <ele>656.1</ele>
        <time>2023-05-16T09:52:51.253Z</time>
      </trkpt>
      <trkpt lat="44.86503" lon="5.69127">
        <ele>656.3</ele>
        <time>2023-05-16T09:52:54.385Z</time>
      </trkpt>
      <trkpt lat="44.865" lon="5.69132">
        <ele>656.4</ele>
        <time>2023-05-16T09:52:56.155Z</time>
      </trkpt>
      <trkpt lat="44.86498" lon="5.69134">
        <ele>656.4</ele>
        <time>2023-05-16T09:52:57.029Z</time>
      </trkpt>
      <trkpt lat="44.86495" lon="5.69136">
        <ele>656.5</ele>
        <time>2023-05-16T09:52:58.329Z</time>
      </trkpt>
      <trkpt lat="44.86493" lon="5.69139">
        <ele>656.6</ele>
        <time>2023-05-16T09:52:59.488Z</time>
      </trkpt>
      <trkpt lat="44.86491" lon="5.69142">
        <ele>656.8</ele>
        <time>2023-05-16T09:53:00.785Z</time>
      </trkpt>
      <trkpt lat="44.86488" lon="5.69145">
        <ele>657.1</ele>
        <time>2023-05-16T09:53:02.492Z</time>
      </trkpt>
      <trkpt lat="44.86485" lon="5.69147">
        <ele>657.3</ele>
        <time>2023-05-16T09:53:03.927Z</time>
      </trkpt>
      <trkpt lat="44.86483" lon="5.6915">
        <ele>657.6</ele>
        <time>2023-05-16T09:53:05.385Z</time>
      </trkpt>
      <trkpt lat="44.86479" lon="5.69154">
        <ele>658</ele>
        <time>2023-05-16T09:53:07.661Z</time>
      </trkpt>
      <trkpt lat="44.86475" lon="5.69158">
        <ele>658.3</ele>
        <time>2023-05-16T09:53:09.787Z</time>
      </trkpt>
      <trkpt lat="44.86471" lon="5.6916">
        <ele>658.6</ele>
        <time>2023-05-16T09:53:11.686Z</time>
      </trkpt>
      <trkpt lat="44.86467" lon="5.69162">
        <ele>658.9</ele>
        <time>2023-05-16T09:53:13.585Z</time>
      </trkpt>
      <trkpt lat="44.86463" lon="5.69165">
        <ele>659.2</ele>
        <time>2023-05-16T09:53:15.582Z</time>
      </trkpt>
      <trkpt lat="44.8646" lon="5.69168">
        <ele>659.5</ele>
        <time>2023-05-16T09:53:17.290Z</time>
      </trkpt>
      <trkpt lat="44.86456" lon="5.69169">
        <ele>659.8</ele>
        <time>2023-05-16T09:53:19.127Z</time>
      </trkpt>
      <trkpt lat="44.86453" lon="5.69172">
        <ele>659.9</ele>
        <time>2023-05-16T09:53:20.554Z</time>
      </trkpt>
      <trkpt lat="44.86449" lon="5.69175">
        <ele>660.1</ele>
        <time>2023-05-16T09:53:22.411Z</time>
      </trkpt>
      <trkpt lat="44.86445" lon="5.69179">
        <ele>660.3</ele>
        <time>2023-05-16T09:53:24.399Z</time>
      </trkpt>
      <trkpt lat="44.86442" lon="5.69182">
        <ele>660.5</ele>
        <time>2023-05-16T09:53:25.958Z</time>
      </trkpt>
      <trkpt lat="44.86438" lon="5.69186">
        <ele>660.8</ele>
        <time>2023-05-16T09:53:28.083Z</time>
      </trkpt>
      <trkpt lat="44.86435" lon="5.6919">
        <ele>661</ele>
        <time>2023-05-16T09:53:29.799Z</time>
      </trkpt>
      <trkpt lat="44.86432" lon="5.69194">
        <ele>661.3</ele>
        <time>2023-05-16T09:53:31.659Z</time>
      </trkpt>
      <trkpt lat="44.86428" lon="5.69197">
        <ele>661.7</ele>
        <time>2023-05-16T09:53:33.811Z</time>
      </trkpt>
      <trkpt lat="44.86425" lon="5.692">
        <ele>662.1</ele>
        <time>2023-05-16T09:53:35.687Z</time>
      </trkpt>
      <trkpt lat="44.86422" lon="5.69203">
        <ele>662.4</ele>
        <time>2023-05-16T09:53:37.395Z</time>
      </trkpt>
      <trkpt lat="44.86419" lon="5.69205">
        <ele>662.7</ele>
        <time>2023-05-16T09:53:38.983Z</time>
      </trkpt>
      <trkpt lat="44.86417" lon="5.69207">
        <ele>662.9</ele>
        <time>2023-05-16T09:53:40.121Z</time>
      </trkpt>
      <trkpt lat="44.86414" lon="5.6921">
        <ele>663.3</ele>
        <time>2023-05-16T09:53:41.997Z</time>
      </trkpt>
      <trkpt lat="44.86412" lon="5.69213">
        <ele>663.7</ele>
        <time>2023-05-16T09:53:43.646Z</time>
      </trkpt>
      <trkpt lat="44.86407" lon="5.69217">
        <ele>664.2</ele>
        <time>2023-05-16T09:53:46.364Z</time>
      </trkpt>
      <trkpt lat="44.86404" lon="5.69219">
        <ele>664.7</ele>
        <time>2023-05-16T09:53:48.335Z</time>
      </trkpt>
      <trkpt lat="44.86401" lon="5.69222">
        <ele>665.2</ele>
        <time>2023-05-16T09:53:50.403Z</time>
      </trkpt>
      <trkpt lat="44.86398" lon="5.69223">
        <ele>665.5</ele>
        <time>2023-05-16T09:53:51.914Z</time>
      </trkpt>
      <trkpt lat="44.86395" lon="5.69225">
        <ele>665.9</ele>
        <time>2023-05-16T09:53:53.679Z</time>
      </trkpt>
      <trkpt lat="44.86392" lon="5.69228">
        <ele>666.3</ele>
        <time>2023-05-16T09:53:55.556Z</time>
      </trkpt>
      <trkpt lat="44.86388" lon="5.69231">
        <ele>666.5</ele>
        <time>2023-05-16T09:53:57.412Z</time>
      </trkpt>
      <trkpt lat="44.86385" lon="5.69234">
        <ele>666.6</ele>
        <time>2023-05-16T09:53:58.840Z</time>
      </trkpt>
      <trkpt lat="44.86382" lon="5.69236">
        <ele>666.7</ele>
        <time>2023-05-16T09:54:00.140Z</time>
      </trkpt>
      <trkpt lat="44.86379" lon="5.6924">
        <ele>666.9</ele>
        <time>2023-05-16T09:54:01.856Z</time>
      </trkpt>
      <trkpt lat="44.86377" lon="5.69243">
        <ele>667</ele>
        <time>2023-05-16T09:54:03.014Z</time>
      </trkpt>
      <trkpt lat="44.86374" lon="5.69249">
        <ele>667.2</ele>
        <time>2023-05-16T09:54:05.109Z</time>
      </trkpt>
      <trkpt lat="44.86371" lon="5.69254">
        <ele>667.6</ele>
        <time>2023-05-16T09:54:07.298Z</time>
      </trkpt>
      <trkpt lat="44.86368" lon="5.69258">
        <ele>668.1</ele>
        <time>2023-05-16T09:54:09.499Z</time>
      </trkpt>
      <trkpt lat="44.86366" lon="5.69262">
        <ele>668.5</ele>
        <time>2023-05-16T09:54:11.311Z</time>
      </trkpt>
      <trkpt lat="44.86364" lon="5.69266">
        <ele>668.9</ele>
        <time>2023-05-16T09:54:13.122Z</time>
      </trkpt>
      <trkpt lat="44.86362" lon="5.69269">
        <ele>669.1</ele>
        <time>2023-05-16T09:54:14.419Z</time>
      </trkpt>
      <trkpt lat="44.86359" lon="5.69273">
        <ele>669.5</ele>
        <time>2023-05-16T09:54:16.440Z</time>
      </trkpt>
      <trkpt lat="44.86357" lon="5.69277">
        <ele>669.9</ele>
        <time>2023-05-16T09:54:18.251Z</time>
      </trkpt>
      <trkpt lat="44.86355" lon="5.69282">
        <ele>670.3</ele>
        <time>2023-05-16T09:54:20.253Z</time>
      </trkpt>
      <trkpt lat="44.86354" lon="5.69287">
        <ele>670.7</ele>
        <time>2023-05-16T09:54:22.130Z</time>
      </trkpt>
      <trkpt lat="44.86352" lon="5.69292">
        <ele>671</ele>
        <time>2023-05-16T09:54:23.970Z</time>
      </trkpt>
      <trkpt lat="44.8635" lon="5.69297">
        <ele>671.3</ele>
        <time>2023-05-16T09:54:25.810Z</time>
      </trkpt>
      <trkpt lat="44.86349" lon="5.69303">
        <ele>671.7</ele>
        <time>2023-05-16T09:54:27.909Z</time>
      </trkpt>
      <trkpt lat="44.86348" lon="5.69307">
        <ele>672.1</ele>
        <time>2023-05-16T09:54:29.582Z</time>
      </trkpt>
      <trkpt lat="44.86347" lon="5.69311">
        <ele>672.4</ele>
        <time>2023-05-16T09:54:31.069Z</time>
      </trkpt>
      <trkpt lat="44.86347" lon="5.69315">
        <ele>672.5</ele>
        <time>2023-05-16T09:54:32.198Z</time>
      </trkpt>
      <trkpt lat="44.86346" lon="5.6932">
        <ele>672.6</ele>
        <time>2023-05-16T09:54:33.627Z</time>
      </trkpt>
      <trkpt lat="44.86344" lon="5.69325">
        <ele>672.7</ele>
        <time>2023-05-16T09:54:35.193Z</time>
      </trkpt>
      <trkpt lat="44.86343" lon="5.69332">
        <ele>672.8</ele>
        <time>2023-05-16T09:54:37.112Z</time>
      </trkpt>
      <trkpt lat="44.86343" lon="5.69339">
        <ele>672.9</ele>
        <time>2023-05-16T09:54:38.995Z</time>
      </trkpt>
      <trkpt lat="44.86343" lon="5.69343">
        <ele>673</ele>
        <time>2023-05-16T09:54:40.125Z</time>
      </trkpt>
      <trkpt lat="44.86344" lon="5.69347">
        <ele>673</ele>
        <time>2023-05-16T09:54:41.196Z</time>
      </trkpt>
      <trkpt lat="44.86344" lon="5.69352">
        <ele>673</ele>
        <time>2023-05-16T09:54:42.460Z</time>
      </trkpt>
      <trkpt lat="44.86344" lon="5.69358">
        <ele>673.1</ele>
        <time>2023-05-16T09:54:44.091Z</time>
      </trkpt>
      <trkpt lat="44.86344" lon="5.69366">
        <ele>673.1</ele>
        <time>2023-05-16T09:54:46.112Z</time>
      </trkpt>
      <trkpt lat="44.86345" lon="5.69375">
        <ele>673.2</ele>
        <time>2023-05-16T09:54:48.527Z</time>
      </trkpt>
      <trkpt lat="44.86347" lon="5.69382">
        <ele>673.2</ele>
        <time>2023-05-16T09:54:50.434Z</time>
      </trkpt>
      <trkpt lat="44.86352" lon="5.69391">
        <ele>673.2</ele>
        <time>2023-05-16T09:54:53.323Z</time>
      </trkpt>
      <trkpt lat="44.86357" lon="5.69399">
        <ele>673.1</ele>
        <time>2023-05-16T09:54:55.911Z</time>
      </trkpt>
      <trkpt lat="44.86362" lon="5.69406">
        <ele>673</ele>
        <time>2023-05-16T09:54:58.316Z</time>
      </trkpt>
      <trkpt lat="44.86365" lon="5.69411">
        <ele>673</ele>
        <time>2023-05-16T09:54:59.971Z</time>
      </trkpt>
      <trkpt lat="44.8637" lon="5.69416">
        <ele>673</ele>
        <time>2023-05-16T09:55:02.156Z</time>
      </trkpt>
      <trkpt lat="44.86371" lon="5.69425">
        <ele>673</ele>
        <time>2023-05-16T09:55:04.457Z</time>
      </trkpt>
      <trkpt lat="44.8637" lon="5.69432">
        <ele>673</ele>
        <time>2023-05-16T09:55:06.261Z</time>
      </trkpt>
      <trkpt lat="44.86367" lon="5.69438">
        <ele>673</ele>
        <time>2023-05-16T09:55:08.116Z</time>
      </trkpt>
      <trkpt lat="44.86366" lon="5.69443">
        <ele>673</ele>
        <time>2023-05-16T09:55:09.429Z</time>
      </trkpt>
      <trkpt lat="44.86363" lon="5.69447">
        <ele>673.1</ele>
        <time>2023-05-16T09:55:11.016Z</time>
      </trkpt>
      <trkpt lat="44.86361" lon="5.69452">
        <ele>673.1</ele>
        <time>2023-05-16T09:55:12.467Z</time>
      </trkpt>
      <trkpt lat="44.86359" lon="5.69455">
        <ele>673.2</ele>
        <time>2023-05-16T09:55:13.626Z</time>
      </trkpt>
      <trkpt lat="44.86357" lon="5.69458">
        <ele>673.3</ele>
        <time>2023-05-16T09:55:14.784Z</time>
      </trkpt>
      <trkpt lat="44.86354" lon="5.69463">
        <ele>673.7</ele>
        <time>2023-05-16T09:55:16.974Z</time>
      </trkpt>
      <trkpt lat="44.86351" lon="5.69467">
        <ele>674.2</ele>
        <time>2023-05-16T09:55:19.175Z</time>
      </trkpt>
      <trkpt lat="44.86348" lon="5.69471">
        <ele>674.6</ele>
        <time>2023-05-16T09:55:21.195Z</time>
      </trkpt>
      <trkpt lat="44.86346" lon="5.69475">
        <ele>675.2</ele>
        <time>2023-05-16T09:55:23.435Z</time>
      </trkpt>
      <trkpt lat="44.86343" lon="5.69479">
        <ele>676</ele>
        <time>2023-05-16T09:55:26.322Z</time>
      </trkpt>
      <trkpt lat="44.8634" lon="5.69482">
        <ele>676.5</ele>
        <time>2023-05-16T09:55:28.391Z</time>
      </trkpt>
      <trkpt lat="44.86337" lon="5.69485">
        <ele>677.2</ele>
        <time>2023-05-16T09:55:30.929Z</time>
      </trkpt>
      <trkpt lat="44.86334" lon="5.69486">
        <ele>677.9</ele>
        <time>2023-05-16T09:55:33.388Z</time>
      </trkpt>
      <trkpt lat="44.8633" lon="5.69489">
        <ele>678.6</ele>
        <time>2023-05-16T09:55:36.117Z</time>
      </trkpt>
      <trkpt lat="44.86327" lon="5.69491">
        <ele>678.9</ele>
        <time>2023-05-16T09:55:37.705Z</time>
      </trkpt>
      <trkpt lat="44.86323" lon="5.69492">
        <ele>679.1</ele>
        <time>2023-05-16T09:55:39.398Z</time>
      </trkpt>
      <trkpt lat="44.86319" lon="5.69494">
        <ele>679.3</ele>
        <time>2023-05-16T09:55:41.154Z</time>
      </trkpt>
      <trkpt lat="44.86316" lon="5.69497">
        <ele>679.5</ele>
        <time>2023-05-16T09:55:42.713Z</time>
      </trkpt>
      <trkpt lat="44.86317" lon="5.69501">
        <ele>679.6</ele>
        <time>2023-05-16T09:55:43.903Z</time>
      </trkpt>
      <trkpt lat="44.86317" lon="5.69506">
        <ele>679.9</ele>
        <time>2023-05-16T09:55:45.565Z</time>
      </trkpt>
      <trkpt lat="44.86315" lon="5.69508">
        <ele>680.1</ele>
        <time>2023-05-16T09:55:46.704Z</time>
      </trkpt>
      <trkpt lat="44.86312" lon="5.69515">
        <ele>680.4</ele>
        <time>2023-05-16T09:55:49.140Z</time>
      </trkpt>
      <trkpt lat="44.8631" lon="5.69518">
        <ele>680.5</ele>
        <time>2023-05-16T09:55:50.299Z</time>
      </trkpt>
      <trkpt lat="44.86308" lon="5.69524">
        <ele>680.6</ele>
        <time>2023-05-16T09:55:52.089Z</time>
      </trkpt>
      <trkpt lat="44.86307" lon="5.69529">
        <ele>680.6</ele>
        <time>2023-05-16T09:55:53.402Z</time>
      </trkpt>
      <trkpt lat="44.86305" lon="5.69533">
        <ele>680.6</ele>
        <time>2023-05-16T09:55:54.639Z</time>
      </trkpt>
      <trkpt lat="44.86303" lon="5.69537">
        <ele>680.6</ele>
        <time>2023-05-16T09:55:55.875Z</time>
      </trkpt>
      <trkpt lat="44.86302" lon="5.69541">
        <ele>680.7</ele>
        <time>2023-05-16T09:55:57.065Z</time>
      </trkpt>
      <trkpt lat="44.863" lon="5.69545">
        <ele>680.7</ele>
        <time>2023-05-16T09:55:58.302Z</time>
      </trkpt>
      <trkpt lat="44.86299" lon="5.69549">
        <ele>680.7</ele>
        <time>2023-05-16T09:55:59.373Z</time>
      </trkpt>
      <trkpt lat="44.86298" lon="5.69554">
        <ele>680.7</ele>
        <time>2023-05-16T09:56:00.686Z</time>
      </trkpt>
      <trkpt lat="44.86296" lon="5.69558">
        <ele>680.7</ele>
        <time>2023-05-16T09:56:01.923Z</time>
      </trkpt>
      <trkpt lat="44.86295" lon="5.69563">
        <ele>680.7</ele>
        <time>2023-05-16T09:56:03.235Z</time>
      </trkpt>
      <trkpt lat="44.86294" lon="5.69569">
        <ele>680.7</ele>
        <time>2023-05-16T09:56:04.793Z</time>
      </trkpt>
      <trkpt lat="44.86293" lon="5.69575">
        <ele>680.6</ele>
        <time>2023-05-16T09:56:06.245Z</time>
      </trkpt>
      <trkpt lat="44.86291" lon="5.69581">
        <ele>680.6</ele>
        <time>2023-05-16T09:56:07.921Z</time>
      </trkpt>
      <trkpt lat="44.86289" lon="5.69588">
        <ele>680.6</ele>
        <time>2023-05-16T09:56:09.828Z</time>
      </trkpt>
      <trkpt lat="44.86289" lon="5.69592">
        <ele>680.5</ele>
        <time>2023-05-16T09:56:10.736Z</time>
      </trkpt>
      <trkpt lat="44.86288" lon="5.69596">
        <ele>680.5</ele>
        <time>2023-05-16T09:56:11.808Z</time>
      </trkpt>
      <trkpt lat="44.86286" lon="5.69601">
        <ele>680.5</ele>
        <time>2023-05-16T09:56:13.258Z</time>
      </trkpt>
      <trkpt lat="44.86279" lon="5.69626">
        <ele>680.1</ele>
        <time>2023-05-16T09:56:19.630Z</time>
      </trkpt>
      <trkpt lat="44.86278" lon="5.69633">
        <ele>680</ele>
        <time>2023-05-16T09:56:21.329Z</time>
      </trkpt>
      <trkpt lat="44.86277" lon="5.69641">
        <ele>679.8</ele>
        <time>2023-05-16T09:56:23.178Z</time>
      </trkpt>
      <trkpt lat="44.86276" lon="5.69649">
        <ele>679.5</ele>
        <time>2023-05-16T09:56:24.973Z</time>
      </trkpt>
      <trkpt lat="44.86275" lon="5.69658">
        <ele>679</ele>
        <time>2023-05-16T09:56:26.987Z</time>
      </trkpt>
      <trkpt lat="44.86274" lon="5.69667">
        <ele>678.4</ele>
        <time>2023-05-16T09:56:29.001Z</time>
      </trkpt>
      <trkpt lat="44.86272" lon="5.69678">
        <ele>677.5</ele>
        <time>2023-05-16T09:56:31.512Z</time>
      </trkpt>
      <trkpt lat="44.8627" lon="5.69689">
        <ele>676.3</ele>
        <time>2023-05-16T09:56:34.022Z</time>
      </trkpt>
      <trkpt lat="44.86269" lon="5.69701">
        <ele>674.8</ele>
        <time>2023-05-16T09:56:36.694Z</time>
      </trkpt>
      <trkpt lat="44.86269" lon="5.69715">
        <ele>673</ele>
        <time>2023-05-16T09:56:39.789Z</time>
      </trkpt>
      <trkpt lat="44.86271" lon="5.69729">
        <ele>671.2</ele>
        <time>2023-05-16T09:56:42.946Z</time>
      </trkpt>
      <trkpt lat="44.86273" lon="5.69744">
        <ele>669.5</ele>
        <time>2023-05-16T09:56:46.320Z</time>
      </trkpt>
      <trkpt lat="44.86277" lon="5.6976">
        <ele>667.8</ele>
        <time>2023-05-16T09:56:50.071Z</time>
      </trkpt>
      <trkpt lat="44.86281" lon="5.69776">
        <ele>666.1</ele>
        <time>2023-05-16T09:56:53.822Z</time>
      </trkpt>
      <trkpt lat="44.86286" lon="5.69792">
        <ele>664.6</ele>
        <time>2023-05-16T09:56:57.687Z</time>
      </trkpt>
      <trkpt lat="44.86291" lon="5.69808">
        <ele>663.2</ele>
        <time>2023-05-16T09:57:01.553Z</time>
      </trkpt>
      <trkpt lat="44.86296" lon="5.69823">
        <ele>662</ele>
        <time>2023-05-16T09:57:05.218Z</time>
      </trkpt>
      <trkpt lat="44.863" lon="5.69839">
        <ele>661.1</ele>
        <time>2023-05-16T09:57:08.968Z</time>
      </trkpt>
      <trkpt lat="44.86306" lon="5.69853">
        <ele>660.8</ele>
        <time>2023-05-16T09:57:12.790Z</time>
      </trkpt>
      <trkpt lat="44.86311" lon="5.69867">
        <ele>660.6</ele>
        <time>2023-05-16T09:57:16.540Z</time>
      </trkpt>
      <trkpt lat="44.86315" lon="5.69879">
        <ele>660.7</ele>
        <time>2023-05-16T09:57:20.003Z</time>
      </trkpt>
      <trkpt lat="44.8632" lon="5.69889">
        <ele>660.8</ele>
        <time>2023-05-16T09:57:23.207Z</time>
      </trkpt>
      <trkpt lat="44.86324" lon="5.69898">
        <ele>661.3</ele>
        <time>2023-05-16T09:57:26.528Z</time>
      </trkpt>
      <trkpt lat="44.86327" lon="5.69907">
        <ele>661.9</ele>
        <time>2023-05-16T09:57:29.841Z</time>
      </trkpt>
      <trkpt lat="44.8633" lon="5.69914">
        <ele>662.1</ele>
        <time>2023-05-16T09:57:32.145Z</time>
      </trkpt>
      <trkpt lat="44.86333" lon="5.69918">
        <ele>662.1</ele>
        <time>2023-05-16T09:57:33.616Z</time>
      </trkpt>
      <trkpt lat="44.86335" lon="5.69919">
        <ele>662.1</ele>
        <time>2023-05-16T09:57:34.373Z</time>
      </trkpt>
      <trkpt lat="44.8634" lon="5.69918">
        <ele>662.1</ele>
        <time>2023-05-16T09:57:36.173Z</time>
      </trkpt>
      <trkpt lat="44.86346" lon="5.69918">
        <ele>662.1</ele>
        <time>2023-05-16T09:57:38.312Z</time>
      </trkpt>
      <trkpt lat="44.86349" lon="5.69918">
        <ele>662.1</ele>
        <time>2023-05-16T09:57:39.381Z</time>
      </trkpt>
      <trkpt lat="44.86352" lon="5.69917">
        <ele>662.1</ele>
        <time>2023-05-16T09:57:40.480Z</time>
      </trkpt>
      <trkpt lat="44.86354" lon="5.69915">
        <ele>662.1</ele>
        <time>2023-05-16T09:57:41.354Z</time>
      </trkpt>
      <trkpt lat="44.86358" lon="5.69914">
        <ele>662.1</ele>
        <time>2023-05-16T09:57:42.802Z</time>
      </trkpt>
      <trkpt lat="44.86362" lon="5.69914">
        <ele>662</ele>
        <time>2023-05-16T09:57:44.123Z</time>
      </trkpt>
      <trkpt lat="44.86366" lon="5.69914">
        <ele>661.9</ele>
        <time>2023-05-16T09:57:45.445Z</time>
      </trkpt>
      <trkpt lat="44.86371" lon="5.69912">
        <ele>661.8</ele>
        <time>2023-05-16T09:57:47.192Z</time>
      </trkpt>
      <trkpt lat="44.86375" lon="5.6991">
        <ele>661.5</ele>
        <time>2023-05-16T09:57:48.516Z</time>
      </trkpt>
      <trkpt lat="44.86379" lon="5.69907">
        <ele>660.6</ele>
        <time>2023-05-16T09:57:49.929Z</time>
      </trkpt>
      <trkpt lat="44.86385" lon="5.69906">
        <ele>659.6</ele>
        <time>2023-05-16T09:57:51.813Z</time>
      </trkpt>
      <trkpt lat="44.8639" lon="5.69905">
        <ele>658.5</ele>
        <time>2023-05-16T09:57:53.388Z</time>
      </trkpt>
      <trkpt lat="44.86395" lon="5.69909">
        <ele>658.4</ele>
        <time>2023-05-16T09:57:55.332Z</time>
      </trkpt>
      <trkpt lat="44.86397" lon="5.69912">
        <ele>658.3</ele>
        <time>2023-05-16T09:57:56.270Z</time>
      </trkpt>
      <trkpt lat="44.86398" lon="5.69922">
        <ele>658.1</ele>
        <time>2023-05-16T09:57:58.615Z</time>
      </trkpt>
      <trkpt lat="44.86396" lon="5.69927">
        <ele>657.9</ele>
        <time>2023-05-16T09:57:59.884Z</time>
      </trkpt>
      <trkpt lat="44.86393" lon="5.69935">
        <ele>657.5</ele>
        <time>2023-05-16T09:58:01.885Z</time>
      </trkpt>
      <trkpt lat="44.86389" lon="5.69943">
        <ele>657</ele>
        <time>2023-05-16T09:58:04.049Z</time>
      </trkpt>
      <trkpt lat="44.86386" lon="5.69952">
        <ele>656.5</ele>
        <time>2023-05-16T09:58:06.248Z</time>
      </trkpt>
      <trkpt lat="44.86384" lon="5.6996">
        <ele>655.9</ele>
        <time>2023-05-16T09:58:08.123Z</time>
      </trkpt>
      <trkpt lat="44.8638" lon="5.6997">
        <ele>655.1</ele>
        <time>2023-05-16T09:58:10.661Z</time>
      </trkpt>
      <trkpt lat="44.86376" lon="5.69982">
        <ele>654.3</ele>
        <time>2023-05-16T09:58:13.593Z</time>
      </trkpt>
      <trkpt lat="44.86373" lon="5.69992">
        <ele>653.5</ele>
        <time>2023-05-16T09:58:15.994Z</time>
      </trkpt>
      <trkpt lat="44.86369" lon="5.70003">
        <ele>652.7</ele>
        <time>2023-05-16T09:58:18.727Z</time>
      </trkpt>
      <trkpt lat="44.86364" lon="5.70014">
        <ele>651.7</ele>
        <time>2023-05-16T09:58:21.616Z</time>
      </trkpt>
      <trkpt lat="44.8636" lon="5.70024">
        <ele>650.9</ele>
        <time>2023-05-16T09:58:24.154Z</time>
      </trkpt>
      <trkpt lat="44.86356" lon="5.70034">
        <ele>650.1</ele>
        <time>2023-05-16T09:58:26.693Z</time>
      </trkpt>
      <trkpt lat="44.86352" lon="5.70043">
        <ele>649.4</ele>
        <time>2023-05-16T09:58:29.041Z</time>
      </trkpt>
      <trkpt lat="44.8635" lon="5.70051">
        <ele>649</ele>
        <time>2023-05-16T09:58:30.916Z</time>
      </trkpt>
      <trkpt lat="44.86348" lon="5.70058">
        <ele>648.8</ele>
        <time>2023-05-16T09:58:32.620Z</time>
      </trkpt>
      <trkpt lat="44.86346" lon="5.70062">
        <ele>648.8</ele>
        <time>2023-05-16T09:58:33.857Z</time>
      </trkpt>
      <trkpt lat="44.86344" lon="5.70069">
        <ele>649</ele>
        <time>2023-05-16T09:58:36.002Z</time>
      </trkpt>
      <trkpt lat="44.86342" lon="5.70077">
        <ele>649.4</ele>
        <time>2023-05-16T09:58:38.656Z</time>
      </trkpt>
      <trkpt lat="44.8634" lon="5.70082">
        <ele>649.9</ele>
        <time>2023-05-16T09:58:40.839Z</time>
      </trkpt>
      <trkpt lat="44.86339" lon="5.70087">
        <ele>650.4</ele>
        <time>2023-05-16T09:58:42.909Z</time>
      </trkpt>
      <trkpt lat="44.86339" lon="5.70091">
        <ele>650.7</ele>
        <time>2023-05-16T09:58:44.340Z</time>
      </trkpt>
      <trkpt lat="44.8634" lon="5.70095">
        <ele>651.2</ele>
        <time>2023-05-16T09:58:46.233Z</time>
      </trkpt>
      <trkpt lat="44.86339" lon="5.701">
        <ele>651.7</ele>
        <time>2023-05-16T09:58:48.303Z</time>
      </trkpt>
      <trkpt lat="44.8634" lon="5.70104">
        <ele>652.1</ele>
        <time>2023-05-16T09:58:49.976Z</time>
      </trkpt>
      <trkpt lat="44.86339" lon="5.70111">
        <ele>652.8</ele>
        <time>2023-05-16T09:58:52.847Z</time>
      </trkpt>
      <trkpt lat="44.8634" lon="5.70115">
        <ele>653.3</ele>
        <time>2023-05-16T09:58:54.740Z</time>
      </trkpt>
      <trkpt lat="44.86341" lon="5.7012">
        <ele>653.7</ele>
        <time>2023-05-16T09:58:56.618Z</time>
      </trkpt>
      <trkpt lat="44.86342" lon="5.70124">
        <ele>654.1</ele>
        <time>2023-05-16T09:58:58.291Z</time>
      </trkpt>
      <trkpt lat="44.86343" lon="5.70128">
        <ele>654.4</ele>
        <time>2023-05-16T09:58:59.777Z</time>
      </trkpt>
      <trkpt lat="44.86344" lon="5.70132">
        <ele>654.7</ele>
        <time>2023-05-16T09:59:01.264Z</time>
      </trkpt>
      <trkpt lat="44.86345" lon="5.70137">
        <ele>655.1</ele>
        <time>2023-05-16T09:59:03.141Z</time>
      </trkpt>
      <trkpt lat="44.86346" lon="5.70143">
        <ele>655.4</ele>
        <time>2023-05-16T09:59:05.083Z</time>
      </trkpt>
      <trkpt lat="44.86347" lon="5.70148">
        <ele>655.7</ele>
        <time>2023-05-16T09:59:06.792Z</time>
      </trkpt>
      <trkpt lat="44.86349" lon="5.70153">
        <ele>656.1</ele>
        <time>2023-05-16T09:59:08.794Z</time>
      </trkpt>
      <trkpt lat="44.8635" lon="5.70158">
        <ele>656.6</ele>
        <time>2023-05-16T09:59:10.864Z</time>
      </trkpt>
      <trkpt lat="44.86351" lon="5.70163">
        <ele>657</ele>
        <time>2023-05-16T09:59:12.742Z</time>
      </trkpt>
      <trkpt lat="44.86351" lon="5.70169">
        <ele>657.4</ele>
        <time>2023-05-16T09:59:14.803Z</time>
      </trkpt>
      <trkpt lat="44.86351" lon="5.70175">
        <ele>657.7</ele>
        <time>2023-05-16T09:59:16.705Z</time>
      </trkpt>
      <trkpt lat="44.86351" lon="5.7018">
        <ele>658</ele>
        <time>2023-05-16T09:59:18.368Z</time>
      </trkpt>
      <trkpt lat="44.86353" lon="5.70186">
        <ele>658.6</ele>
        <time>2023-05-16T09:59:20.933Z</time>
      </trkpt>
      <trkpt lat="44.86354" lon="5.7019">
        <ele>659</ele>
        <time>2023-05-16T09:59:22.606Z</time>
      </trkpt>
      <trkpt lat="44.86355" lon="5.70195">
        <ele>659.6</ele>
        <time>2023-05-16T09:59:24.895Z</time>
      </trkpt>
      <trkpt lat="44.86354" lon="5.70201">
        <ele>660.1</ele>
        <time>2023-05-16T09:59:27.169Z</time>
      </trkpt>
      <trkpt lat="44.86354" lon="5.70206">
        <ele>660.7</ele>
        <time>2023-05-16T09:59:29.426Z</time>
      </trkpt>
      <trkpt lat="44.86354" lon="5.7021">
        <ele>661.1</ele>
        <time>2023-05-16T09:59:31.050Z</time>
      </trkpt>
      <trkpt lat="44.86353" lon="5.70215">
        <ele>661.6</ele>
        <time>2023-05-16T09:59:33.120Z</time>
      </trkpt>
      <trkpt lat="44.86353" lon="5.7022">
        <ele>661.8</ele>
        <time>2023-05-16T09:59:34.633Z</time>
      </trkpt>
      <trkpt lat="44.86354" lon="5.70226">
        <ele>662</ele>
        <time>2023-05-16T09:59:36.433Z</time>
      </trkpt>
      <trkpt lat="44.86355" lon="5.70231">
        <ele>662.6</ele>
        <time>2023-05-16T09:59:38.722Z</time>
      </trkpt>
      <trkpt lat="44.86358" lon="5.70235">
        <ele>663.1</ele>
        <time>2023-05-16T09:59:40.922Z</time>
      </trkpt>
      <trkpt lat="44.86362" lon="5.70238">
        <ele>663.4</ele>
        <time>2023-05-16T09:59:42.920Z</time>
      </trkpt>
      <trkpt lat="44.86365" lon="5.70241">
        <ele>663.7</ele>
        <time>2023-05-16T09:59:44.627Z</time>
      </trkpt>
      <trkpt lat="44.86368" lon="5.70242">
        <ele>664</ele>
        <time>2023-05-16T09:59:46.138Z</time>
      </trkpt>
      <trkpt lat="44.86371" lon="5.70244">
        <ele>664.4</ele>
        <time>2023-05-16T09:59:47.903Z</time>
      </trkpt>
      <trkpt lat="44.86375" lon="5.70245">
        <ele>664.9</ele>
        <time>2023-05-16T09:59:50.084Z</time>
      </trkpt>
      <trkpt lat="44.86379" lon="5.70245">
        <ele>665.3</ele>
        <time>2023-05-16T09:59:52.063Z</time>
      </trkpt>
      <trkpt lat="44.86382" lon="5.70247">
        <ele>665.5</ele>
        <time>2023-05-16T09:59:53.497Z</time>
      </trkpt>
      <trkpt lat="44.86386" lon="5.70249">
        <ele>665.8</ele>
        <time>2023-05-16T09:59:55.397Z</time>
      </trkpt>
      <trkpt lat="44.86389" lon="5.70251">
        <ele>666.2</ele>
        <time>2023-05-16T09:59:57.162Z</time>
      </trkpt>
      <trkpt lat="44.86392" lon="5.70253">
        <ele>666.8</ele>
        <time>2023-05-16T09:59:59.369Z</time>
      </trkpt>
      <trkpt lat="44.86395" lon="5.70253">
        <ele>667.1</ele>
        <time>2023-05-16T10:00:00.854Z</time>
      </trkpt>
      <trkpt lat="44.86398" lon="5.70256">
        <ele>667.4</ele>
        <time>2023-05-16T10:00:02.561Z</time>
      </trkpt>
      <trkpt lat="44.86401" lon="5.70258">
        <ele>667.7</ele>
        <time>2023-05-16T10:00:04.149Z</time>
      </trkpt>
      <trkpt lat="44.86404" lon="5.70261">
        <ele>668.3</ele>
        <time>2023-05-16T10:00:06.437Z</time>
      </trkpt>
      <trkpt lat="44.86406" lon="5.70265">
        <ele>668.6</ele>
        <time>2023-05-16T10:00:08.075Z</time>
      </trkpt>
      <trkpt lat="44.86406" lon="5.70269">
        <ele>668.7</ele>
        <time>2023-05-16T10:00:09.204Z</time>
      </trkpt>
      <trkpt lat="44.86404" lon="5.70273">
        <ele>668.8</ele>
        <time>2023-05-16T10:00:10.558Z</time>
      </trkpt>
      <trkpt lat="44.86402" lon="5.70277">
        <ele>668.8</ele>
        <time>2023-05-16T10:00:11.794Z</time>
      </trkpt>
      <trkpt lat="44.86397" lon="5.70282">
        <ele>668.7</ele>
        <time>2023-05-16T10:00:13.873Z</time>
      </trkpt>
      <trkpt lat="44.86394" lon="5.70285">
        <ele>668.6</ele>
        <time>2023-05-16T10:00:15.080Z</time>
      </trkpt>
      <trkpt lat="44.86389" lon="5.70288">
        <ele>668.6</ele>
        <time>2023-05-16T10:00:17.017Z</time>
      </trkpt>
      <trkpt lat="44.86384" lon="5.70291">
        <ele>668.4</ele>
        <time>2023-05-16T10:00:18.751Z</time>
      </trkpt>
      <trkpt lat="44.86377" lon="5.70295">
        <ele>668.3</ele>
        <time>2023-05-16T10:00:21.336Z</time>
      </trkpt>
      <trkpt lat="44.86375" lon="5.70303">
        <ele>668.2</ele>
        <time>2023-05-16T10:00:23.373Z</time>
      </trkpt>
      <trkpt lat="44.86374" lon="5.70312">
        <ele>667.9</ele>
        <time>2023-05-16T10:00:25.387Z</time>
      </trkpt>
      <trkpt lat="44.86375" lon="5.70322">
        <ele>667.3</ele>
        <time>2023-05-16T10:00:27.620Z</time>
      </trkpt>
      <trkpt lat="44.8638" lon="5.70331">
        <ele>666.5</ele>
        <time>2023-05-16T10:00:30.148Z</time>
      </trkpt>
      <trkpt lat="44.86384" lon="5.70342">
        <ele>665.7</ele>
        <time>2023-05-16T10:00:32.881Z</time>
      </trkpt>
      <trkpt lat="44.86387" lon="5.70352">
        <ele>665</ele>
        <time>2023-05-16T10:00:35.282Z</time>
      </trkpt>
      <trkpt lat="44.86392" lon="5.70364">
        <ele>664</ele>
        <time>2023-05-16T10:00:38.359Z</time>
      </trkpt>
      <trkpt lat="44.86396" lon="5.70376">
        <ele>663</ele>
        <time>2023-05-16T10:00:41.290Z</time>
      </trkpt>
      <trkpt lat="44.864" lon="5.70386">
        <ele>662.2</ele>
        <time>2023-05-16T10:00:43.829Z</time>
      </trkpt>
      <trkpt lat="44.86402" lon="5.70395">
        <ele>661.3</ele>
        <time>2023-05-16T10:00:45.914Z</time>
      </trkpt>
      <trkpt lat="44.86403" lon="5.70401">
        <ele>660.7</ele>
        <time>2023-05-16T10:00:47.277Z</time>
      </trkpt>
      <trkpt lat="44.86399" lon="5.70409">
        <ele>659.6</ele>
        <time>2023-05-16T10:00:49.441Z</time>
      </trkpt>
      <trkpt lat="44.86394" lon="5.70416">
        <ele>658.7</ele>
        <time>2023-05-16T10:00:51.638Z</time>
      </trkpt>
      <trkpt lat="44.86389" lon="5.70425">
        <ele>657.7</ele>
        <time>2023-05-16T10:00:54.166Z</time>
      </trkpt>
      <trkpt lat="44.86385" lon="5.70436">
        <ele>656.6</ele>
        <time>2023-05-16T10:00:56.899Z</time>
      </trkpt>
      <trkpt lat="44.86379" lon="5.70448">
        <ele>655.3</ele>
        <time>2023-05-16T10:01:00.145Z</time>
      </trkpt>
      <trkpt lat="44.86375" lon="5.7046">
        <ele>653.9</ele>
        <time>2023-05-16T10:01:03.077Z</time>
      </trkpt>
      <trkpt lat="44.86374" lon="5.70472">
        <ele>652.5</ele>
        <time>2023-05-16T10:01:05.748Z</time>
      </trkpt>
      <trkpt lat="44.86374" lon="5.70482">
        <ele>651.1</ele>
        <time>2023-05-16T10:01:07.959Z</time>
      </trkpt>
      <trkpt lat="44.86376" lon="5.70492">
        <ele>649.6</ele>
        <time>2023-05-16T10:01:10.256Z</time>
      </trkpt>
      <trkpt lat="44.86382" lon="5.70501">
        <ele>648.1</ele>
        <time>2023-05-16T10:01:12.987Z</time>
      </trkpt>
      <trkpt lat="44.86387" lon="5.70512">
        <ele>646.6</ele>
        <time>2023-05-16T10:01:15.876Z</time>
      </trkpt>
      <trkpt lat="44.86391" lon="5.70523">
        <ele>645.3</ele>
        <time>2023-05-16T10:01:18.609Z</time>
      </trkpt>
      <trkpt lat="44.86397" lon="5.70533">
        <ele>644</ele>
        <time>2023-05-16T10:01:21.506Z</time>
      </trkpt>
      <trkpt lat="44.86403" lon="5.70543">
        <ele>642.7</ele>
        <time>2023-05-16T10:01:24.402Z</time>
      </trkpt>
      <trkpt lat="44.8641" lon="5.70551">
        <ele>641.8</ele>
        <time>2023-05-16T10:01:27.212Z</time>
      </trkpt>
      <trkpt lat="44.86416" lon="5.70559">
        <ele>641.1</ele>
        <time>2023-05-16T10:01:29.787Z</time>
      </trkpt>
      <trkpt lat="44.86421" lon="5.70567">
        <ele>640.7</ele>
        <time>2023-05-16T10:01:32.145Z</time>
      </trkpt>
      <trkpt lat="44.86426" lon="5.70573">
        <ele>640.6</ele>
        <time>2023-05-16T10:01:34.378Z</time>
      </trkpt>
      <trkpt lat="44.86431" lon="5.7058">
        <ele>640.4</ele>
        <time>2023-05-16T10:01:36.682Z</time>
      </trkpt>
      <trkpt lat="44.86435" lon="5.70586">
        <ele>640.3</ele>
        <time>2023-05-16T10:01:38.658Z</time>
      </trkpt>
      <trkpt lat="44.86439" lon="5.70594">
        <ele>640.1</ele>
        <time>2023-05-16T10:01:40.925Z</time>
      </trkpt>
      <trkpt lat="44.86441" lon="5.70601">
        <ele>640</ele>
        <time>2023-05-16T10:01:42.726Z</time>
      </trkpt>
      <trkpt lat="44.86443" lon="5.70607">
        <ele>639.9</ele>
        <time>2023-05-16T10:01:44.296Z</time>
      </trkpt>
      <trkpt lat="44.86446" lon="5.70611">
        <ele>639.9</ele>
        <time>2023-05-16T10:01:45.768Z</time>
      </trkpt>
      <trkpt lat="44.86448" lon="5.70617">
        <ele>639.8</ele>
        <time>2023-05-16T10:01:47.338Z</time>
      </trkpt>
      <trkpt lat="44.86451" lon="5.70622">
        <ele>639.7</ele>
        <time>2023-05-16T10:01:48.888Z</time>
      </trkpt>
      <trkpt lat="44.86453" lon="5.70628">
        <ele>639.7</ele>
        <time>2023-05-16T10:01:50.563Z</time>
      </trkpt>
      <trkpt lat="44.86455" lon="5.70635">
        <ele>639.6</ele>
        <time>2023-05-16T10:01:52.365Z</time>
      </trkpt>
      <trkpt lat="44.86456" lon="5.70643">
        <ele>639.6</ele>
        <time>2023-05-16T10:01:54.417Z</time>
      </trkpt>
      <trkpt lat="44.86458" lon="5.70653">
        <ele>639.5</ele>
        <time>2023-05-16T10:01:56.936Z</time>
      </trkpt>
      <trkpt lat="44.8646" lon="5.7066">
        <ele>639.4</ele>
        <time>2023-05-16T10:01:58.737Z</time>
      </trkpt>
      <trkpt lat="44.86465" lon="5.70669">
        <ele>639.3</ele>
        <time>2023-05-16T10:02:01.519Z</time>
      </trkpt>
      <trkpt lat="44.86467" lon="5.70677">
        <ele>639.2</ele>
        <time>2023-05-16T10:02:03.557Z</time>
      </trkpt>
      <trkpt lat="44.8647" lon="5.70685">
        <ele>639</ele>
        <time>2023-05-16T10:02:05.638Z</time>
      </trkpt>
      <trkpt lat="44.86473" lon="5.70691">
        <ele>638.7</ele>
        <time>2023-05-16T10:02:07.261Z</time>
      </trkpt>
      <trkpt lat="44.86477" lon="5.70699">
        <ele>638.3</ele>
        <time>2023-05-16T10:02:09.425Z</time>
      </trkpt>
      <trkpt lat="44.86482" lon="5.70707">
        <ele>637.9</ele>
        <time>2023-05-16T10:02:11.783Z</time>
      </trkpt>
      <trkpt lat="44.86485" lon="5.70715">
        <ele>637.6</ele>
        <time>2023-05-16T10:02:13.784Z</time>
      </trkpt>
      <trkpt lat="44.86491" lon="5.7072">
        <ele>637.4</ele>
        <time>2023-05-16T10:02:16.061Z</time>
      </trkpt>
      <trkpt lat="44.86498" lon="5.70723">
        <ele>637.3</ele>
        <time>2023-05-16T10:02:18.563Z</time>
      </trkpt>
      <trkpt lat="44.86505" lon="5.70721">
        <ele>637.2</ele>
        <time>2023-05-16T10:02:21.002Z</time>
      </trkpt>
      <trkpt lat="44.8651" lon="5.70718">
        <ele>637.1</ele>
        <time>2023-05-16T10:02:22.833Z</time>
      </trkpt>
      <trkpt lat="44.86517" lon="5.70713">
        <ele>637</ele>
        <time>2023-05-16T10:02:25.523Z</time>
      </trkpt>
      <trkpt lat="44.86522" lon="5.70707">
        <ele>636.9</ele>
        <time>2023-05-16T10:02:27.757Z</time>
      </trkpt>
      <trkpt lat="44.86527" lon="5.70701">
        <ele>636.5</ele>
        <time>2023-05-16T10:02:29.804Z</time>
      </trkpt>
      <trkpt lat="44.86533" lon="5.70692">
        <ele>636</ele>
        <time>2023-05-16T10:02:32.535Z</time>
      </trkpt>
      <trkpt lat="44.86539" lon="5.70687">
        <ele>635.5</ele>
        <time>2023-05-16T10:02:34.709Z</time>
      </trkpt>
      <trkpt lat="44.86544" lon="5.70678">
        <ele>634</ele>
        <time>2023-05-16T10:02:37.237Z</time>
      </trkpt>
      <trkpt lat="44.86549" lon="5.70666">
        <ele>632.1</ele>
        <time>2023-05-16T10:02:40.314Z</time>
      </trkpt>
      <trkpt lat="44.86553" lon="5.70653">
        <ele>630.6</ele>
        <time>2023-05-16T10:02:43.447Z</time>
      </trkpt>
      <trkpt lat="44.86556" lon="5.7064">
        <ele>629.4</ele>
        <time>2023-05-16T10:02:46.469Z</time>
      </trkpt>
      <trkpt lat="44.86563" lon="5.70628">
        <ele>627.9</ele>
        <time>2023-05-16T10:02:49.905Z</time>
      </trkpt>
      <trkpt lat="44.8657" lon="5.70618">
        <ele>626.3</ele>
        <time>2023-05-16T10:02:53.012Z</time>
      </trkpt>
      <trkpt lat="44.86578" lon="5.70606">
        <ele>624.4</ele>
        <time>2023-05-16T10:02:56.654Z</time>
      </trkpt>
      <trkpt lat="44.86586" lon="5.70596">
        <ele>622.3</ele>
        <time>2023-05-16T10:02:59.987Z</time>
      </trkpt>
      <trkpt lat="44.86595" lon="5.70586">
        <ele>620.2</ele>
        <time>2023-05-16T10:03:03.560Z</time>
      </trkpt>
      <trkpt lat="44.86604" lon="5.70576">
        <ele>618.6</ele>
        <time>2023-05-16T10:03:07.133Z</time>
      </trkpt>
      <trkpt lat="44.86612" lon="5.70566">
        <ele>616.6</ele>
        <time>2023-05-16T10:03:10.467Z</time>
      </trkpt>
      <trkpt lat="44.86615" lon="5.70556">
        <ele>615.7</ele>
        <time>2023-05-16T10:03:12.868Z</time>
      </trkpt>
      <trkpt lat="44.86621" lon="5.70551">
        <ele>614.6</ele>
        <time>2023-05-16T10:03:15.041Z</time>
      </trkpt>
      <trkpt lat="44.86628" lon="5.70546">
        <ele>613.4</ele>
        <time>2023-05-16T10:03:17.488Z</time>
      </trkpt>
      <trkpt lat="44.86636" lon="5.70543">
        <ele>612.3</ele>
        <time>2023-05-16T10:03:20.070Z</time>
      </trkpt>
      <trkpt lat="44.86644" lon="5.70541">
        <ele>611.1</ele>
        <time>2023-05-16T10:03:22.604Z</time>
      </trkpt>
      <trkpt lat="44.86653" lon="5.7054">
        <ele>609.9</ele>
        <time>2023-05-16T10:03:25.420Z</time>
      </trkpt>
      <trkpt lat="44.86662" lon="5.70541">
        <ele>608.8</ele>
        <time>2023-05-16T10:03:28.236Z</time>
      </trkpt>
      <trkpt lat="44.86669" lon="5.70542">
        <ele>608</ele>
        <time>2023-05-16T10:03:30.430Z</time>
      </trkpt>
      <trkpt lat="44.86673" lon="5.70546">
        <ele>607.6</ele>
        <time>2023-05-16T10:03:31.959Z</time>
      </trkpt>
      <trkpt lat="44.86676" lon="5.70551">
        <ele>607.2</ele>
        <time>2023-05-16T10:03:33.407Z</time>
      </trkpt>
      <trkpt lat="44.86679" lon="5.70557">
        <ele>607</ele>
        <time>2023-05-16T10:03:35.060Z</time>
      </trkpt>
      <trkpt lat="44.8668" lon="5.70565">
        <ele>606.8</ele>
        <time>2023-05-16T10:03:36.908Z</time>
      </trkpt>
      <trkpt lat="44.86681" lon="5.70573">
        <ele>606.7</ele>
        <time>2023-05-16T10:03:38.855Z</time>
      </trkpt>
      <trkpt lat="44.86682" lon="5.70582">
        <ele>606.5</ele>
        <time>2023-05-16T10:03:40.951Z</time>
      </trkpt>
      <trkpt lat="44.86683" lon="5.7059">
        <ele>606.4</ele>
        <time>2023-05-16T10:03:42.897Z</time>
      </trkpt>
      <trkpt lat="44.86683" lon="5.70597">
        <ele>606.1</ele>
        <time>2023-05-16T10:03:44.445Z</time>
      </trkpt>
      <trkpt lat="44.86686" lon="5.70605">
        <ele>605.7</ele>
        <time>2023-05-16T10:03:46.446Z</time>
      </trkpt>
      <trkpt lat="44.86689" lon="5.70613">
        <ele>605.2</ele>
        <time>2023-05-16T10:03:48.446Z</time>
      </trkpt>
      <trkpt lat="44.86692" lon="5.70622">
        <ele>604.5</ele>
        <time>2023-05-16T10:03:50.645Z</time>
      </trkpt>
      <trkpt lat="44.86692" lon="5.70636">
        <ele>603.5</ele>
        <time>2023-05-16T10:03:53.740Z</time>
      </trkpt>
      <trkpt lat="44.86694" lon="5.70649">
        <ele>602.4</ele>
        <time>2023-05-16T10:03:56.680Z</time>
      </trkpt>
      <trkpt lat="44.86698" lon="5.70659">
        <ele>601.5</ele>
        <time>2023-05-16T10:03:59.219Z</time>
      </trkpt>
      <trkpt lat="44.86701" lon="5.70671">
        <ele>600.2</ele>
        <time>2023-05-16T10:04:02.032Z</time>
      </trkpt>
      <trkpt lat="44.86704" lon="5.70682">
        <ele>598.4</ele>
        <time>2023-05-16T10:04:04.637Z</time>
      </trkpt>
      <trkpt lat="44.86707" lon="5.70693">
        <ele>595.8</ele>
        <time>2023-05-16T10:04:07.243Z</time>
      </trkpt>
      <trkpt lat="44.86712" lon="5.707">
        <ele>594.3</ele>
        <time>2023-05-16T10:04:09.439Z</time>
      </trkpt>
      <trkpt lat="44.86714" lon="5.70709">
        <ele>592.6</ele>
        <time>2023-05-16T10:04:11.524Z</time>
      </trkpt>
      <trkpt lat="44.86717" lon="5.70712">
        <ele>591.9</ele>
        <time>2023-05-16T10:04:12.671Z</time>
      </trkpt>
      <trkpt lat="44.8672" lon="5.70713">
        <ele>591.4</ele>
        <time>2023-05-16T10:04:13.633Z</time>
      </trkpt>
      <trkpt lat="44.86722" lon="5.7071">
        <ele>591</ele>
        <time>2023-05-16T10:04:14.543Z</time>
      </trkpt>
      <trkpt lat="44.86723" lon="5.70706">
        <ele>590.7</ele>
        <time>2023-05-16T10:04:15.481Z</time>
      </trkpt>
      <trkpt lat="44.86721" lon="5.707">
        <ele>590.2</ele>
        <time>2023-05-16T10:04:16.947Z</time>
      </trkpt>
      <trkpt lat="44.86722" lon="5.70693">
        <ele>589.9</ele>
        <time>2023-05-16T10:04:18.525Z</time>
      </trkpt>
      <trkpt lat="44.86722" lon="5.70686">
        <ele>589.6</ele>
        <time>2023-05-16T10:04:20.073Z</time>
      </trkpt>
      <trkpt lat="44.86721" lon="5.70679">
        <ele>589.5</ele>
        <time>2023-05-16T10:04:21.771Z</time>
      </trkpt>
      <trkpt lat="44.8672" lon="5.70671">
        <ele>589.4</ele>
        <time>2023-05-16T10:04:23.718Z</time>
      </trkpt>
      <trkpt lat="44.86719" lon="5.70664">
        <ele>589.4</ele>
        <time>2023-05-16T10:04:25.522Z</time>
      </trkpt>
      <trkpt lat="44.86719" lon="5.70658">
        <ele>589.4</ele>
        <time>2023-05-16T10:04:27.038Z</time>
      </trkpt>
      <trkpt lat="44.8672" lon="5.70651">
        <ele>589.4</ele>
        <time>2023-05-16T10:04:28.842Z</time>
      </trkpt>
      <trkpt lat="44.86719" lon="5.70644">
        <ele>589.5</ele>
        <time>2023-05-16T10:04:30.760Z</time>
      </trkpt>
      <trkpt lat="44.8672" lon="5.70638">
        <ele>589.5</ele>
        <time>2023-05-16T10:04:32.318Z</time>
      </trkpt>
      <trkpt lat="44.86719" lon="5.70631">
        <ele>589.5</ele>
        <time>2023-05-16T10:04:34.122Z</time>
      </trkpt>
      <trkpt lat="44.86719" lon="5.70624">
        <ele>589.5</ele>
        <time>2023-05-16T10:04:35.890Z</time>
      </trkpt>
      <trkpt lat="44.86719" lon="5.70618">
        <ele>589.5</ele>
        <time>2023-05-16T10:04:37.406Z</time>
      </trkpt>
      <trkpt lat="44.86719" lon="5.70613">
        <ele>589.5</ele>
        <time>2023-05-16T10:04:38.669Z</time>
      </trkpt>
      <trkpt lat="44.86719" lon="5.70609">
        <ele>589.5</ele>
        <time>2023-05-16T10:04:39.680Z</time>
      </trkpt>
      <trkpt lat="44.86718" lon="5.70605">
        <ele>589.5</ele>
        <time>2023-05-16T10:04:40.751Z</time>
      </trkpt>
      <trkpt lat="44.86719" lon="5.70601">
        <ele>589.5</ele>
        <time>2023-05-16T10:04:41.823Z</time>
      </trkpt>
      <trkpt lat="44.86722" lon="5.70599">
        <ele>589.5</ele>
        <time>2023-05-16T10:04:43.005Z</time>
      </trkpt>
      <trkpt lat="44.86725" lon="5.70603">
        <ele>589.5</ele>
        <time>2023-05-16T10:04:44.477Z</time>
      </trkpt>
      <trkpt lat="44.86726" lon="5.70607">
        <ele>589.5</ele>
        <time>2023-05-16T10:04:45.548Z</time>
      </trkpt>
      <trkpt lat="44.86727" lon="5.70614">
        <ele>589.5</ele>
        <time>2023-05-16T10:04:47.352Z</time>
      </trkpt>
      <trkpt lat="44.86727" lon="5.70619">
        <ele>589.4</ele>
        <time>2023-05-16T10:04:48.512Z</time>
      </trkpt>
      <trkpt lat="44.86728" lon="5.70623">
        <ele>589.4</ele>
        <time>2023-05-16T10:04:49.584Z</time>
      </trkpt>
      <trkpt lat="44.86729" lon="5.70627">
        <ele>589.3</ele>
        <time>2023-05-16T10:04:50.553Z</time>
      </trkpt>
      <trkpt lat="44.86731" lon="5.70631">
        <ele>589.1</ele>
        <time>2023-05-16T10:04:51.635Z</time>
      </trkpt>
      <trkpt lat="44.86735" lon="5.70639">
        <ele>588.7</ele>
        <time>2023-05-16T10:04:53.799Z</time>
      </trkpt>
      <trkpt lat="44.86746" lon="5.7069">
        <ele>584.9</ele>
        <time>2023-05-16T10:05:05.584Z</time>
      </trkpt>
      <trkpt lat="44.86751" lon="5.70699">
        <ele>583.7</ele>
        <time>2023-05-16T10:05:08.112Z</time>
      </trkpt>
      <trkpt lat="44.86757" lon="5.7071">
        <ele>582.1</ele>
        <time>2023-05-16T10:05:11.180Z</time>
      </trkpt>
      <trkpt lat="44.86762" lon="5.7072">
        <ele>580.5</ele>
        <time>2023-05-16T10:05:13.885Z</time>
      </trkpt>
      <trkpt lat="44.86766" lon="5.7073">
        <ele>578.6</ele>
        <time>2023-05-16T10:05:16.423Z</time>
      </trkpt>
      <trkpt lat="44.86769" lon="5.70737">
        <ele>577.4</ele>
        <time>2023-05-16T10:05:18.232Z</time>
      </trkpt>
      <trkpt lat="44.86773" lon="5.70745">
        <ele>575.8</ele>
        <time>2023-05-16T10:05:20.396Z</time>
      </trkpt>
      <trkpt lat="44.86774" lon="5.70753">
        <ele>574.3</ele>
        <time>2023-05-16T10:05:22.192Z</time>
      </trkpt>
      <trkpt lat="44.86777" lon="5.70759">
        <ele>573.2</ele>
        <time>2023-05-16T10:05:23.815Z</time>
      </trkpt>
      <trkpt lat="44.86779" lon="5.70763">
        <ele>572.4</ele>
        <time>2023-05-16T10:05:24.897Z</time>
      </trkpt>
      <trkpt lat="44.86781" lon="5.70766">
        <ele>571.8</ele>
        <time>2023-05-16T10:05:25.807Z</time>
      </trkpt>
      <trkpt lat="44.86785" lon="5.70767">
        <ele>570.9</ele>
        <time>2023-05-16T10:05:27.074Z</time>
      </trkpt>
      <trkpt lat="44.86786" lon="5.7077">
        <ele>570.2</ele>
        <time>2023-05-16T10:05:27.807Z</time>
      </trkpt>
      <trkpt lat="44.86788" lon="5.70775">
        <ele>569.2</ele>
        <time>2023-05-16T10:05:29.076Z</time>
      </trkpt>
      <trkpt lat="44.86788" lon="5.70779">
        <ele>569</ele>
        <time>2023-05-16T10:05:29.961Z</time>
      </trkpt>
      <trkpt lat="44.86791" lon="5.70783">
        <ele>569</ele>
        <time>2023-05-16T10:05:31.432Z</time>
      </trkpt>
      <trkpt lat="44.86793" lon="5.70786">
        <ele>569</ele>
        <time>2023-05-16T10:05:32.473Z</time>
      </trkpt>
      <trkpt lat="44.86796" lon="5.70789">
        <ele>569</ele>
        <time>2023-05-16T10:05:33.783Z</time>
      </trkpt>
      <trkpt lat="44.86798" lon="5.70792">
        <ele>569</ele>
        <time>2023-05-16T10:05:34.824Z</time>
      </trkpt>
      <trkpt lat="44.86801" lon="5.70795">
        <ele>567.9</ele>
        <time>2023-05-16T10:05:35.971Z</time>
      </trkpt>
      <trkpt lat="44.86803" lon="5.70797">
        <ele>560.9</ele>
        <time>2023-05-16T10:05:36.735Z</time>
      </trkpt>
      <trkpt lat="44.86806" lon="5.708">
        <ele>552.4</ele>
        <time>2023-05-16T10:05:37.882Z</time>
      </trkpt>
      <trkpt lat="44.86809" lon="5.70803">
        <ele>544.4</ele>
        <time>2023-05-16T10:05:39.029Z</time>
      </trkpt>
      <trkpt lat="44.86811" lon="5.70806">
        <ele>540</ele>
        <time>2023-05-16T10:05:39.939Z</time>
      </trkpt>
      <trkpt lat="44.86813" lon="5.70809">
        <ele>536</ele>
        <time>2023-05-16T10:05:40.850Z</time>
      </trkpt>
      <trkpt lat="44.86815" lon="5.7081">
        <ele>532</ele>
        <time>2023-05-16T10:05:41.512Z</time>
      </trkpt>
      <trkpt lat="44.86818" lon="5.70812">
        <ele>528.1</ele>
        <time>2023-05-16T10:05:42.547Z</time>
      </trkpt>
      <trkpt lat="44.86821" lon="5.70813">
        <ele>524.6</ele>
        <time>2023-05-16T10:05:43.508Z</time>
      </trkpt>
      <trkpt lat="44.86824" lon="5.70816">
        <ele>521.1</ele>
        <time>2023-05-16T10:05:44.655Z</time>
      </trkpt>
      <trkpt lat="44.86826" lon="5.70819">
        <ele>519.6</ele>
        <time>2023-05-16T10:05:45.565Z</time>
      </trkpt>
      <trkpt lat="44.86829" lon="5.70821">
        <ele>517.7</ele>
        <time>2023-05-16T10:05:46.600Z</time>
      </trkpt>
      <trkpt lat="44.86833" lon="5.70824">
        <ele>516.3</ele>
        <time>2023-05-16T10:05:48.013Z</time>
      </trkpt>
      <trkpt lat="44.86836" lon="5.70826">
        <ele>515.1</ele>
        <time>2023-05-16T10:05:49.048Z</time>
      </trkpt>
      <trkpt lat="44.86838" lon="5.70828">
        <ele>514.3</ele>
        <time>2023-05-16T10:05:49.813Z</time>
      </trkpt>
      <trkpt lat="44.86845" lon="5.70834">
        <ele>512.3</ele>
        <time>2023-05-16T10:05:52.367Z</time>
      </trkpt>
      <trkpt lat="44.86848" lon="5.70836">
        <ele>511.5</ele>
        <time>2023-05-16T10:05:53.402Z</time>
      </trkpt>
      <trkpt lat="44.8685" lon="5.70838">
        <ele>510.7</ele>
        <time>2023-05-16T10:05:54.167Z</time>
      </trkpt>
      <trkpt lat="44.86854" lon="5.70841">
        <ele>509.5</ele>
        <time>2023-05-16T10:05:55.579Z</time>
      </trkpt>
      <trkpt lat="44.86856" lon="5.70845">
        <ele>507.9</ele>
        <time>2023-05-16T10:05:56.662Z</time>
      </trkpt>
      <trkpt lat="44.86859" lon="5.70849">
        <ele>506.1</ele>
        <time>2023-05-16T10:05:57.949Z</time>
      </trkpt>
      <trkpt lat="44.86862" lon="5.70852">
        <ele>504</ele>
        <time>2023-05-16T10:05:59.096Z</time>
      </trkpt>
      <trkpt lat="44.86865" lon="5.70853">
        <ele>502</ele>
        <time>2023-05-16T10:06:00.057Z</time>
      </trkpt>
      <trkpt lat="44.86868" lon="5.70856">
        <ele>500.3</ele>
        <time>2023-05-16T10:06:01.204Z</time>
      </trkpt>
      <trkpt lat="44.86871" lon="5.70859">
        <ele>498.4</ele>
        <time>2023-05-16T10:06:02.351Z</time>
      </trkpt>
      <trkpt lat="44.86874" lon="5.70861">
        <ele>496.6</ele>
        <time>2023-05-16T10:06:03.386Z</time>
      </trkpt>
      <trkpt lat="44.86878" lon="5.70865">
        <ele>494.3</ele>
        <time>2023-05-16T10:06:04.915Z</time>
      </trkpt>
      <trkpt lat="44.86881" lon="5.70867">
        <ele>492.8</ele>
        <time>2023-05-16T10:06:05.950Z</time>
      </trkpt>
      <trkpt lat="44.86886" lon="5.7087">
        <ele>490.4</ele>
        <time>2023-05-16T10:06:07.645Z</time>
      </trkpt>
      <trkpt lat="44.8689" lon="5.70875">
        <ele>487.8</ele>
        <time>2023-05-16T10:06:09.311Z</time>
      </trkpt>
      <trkpt lat="44.86893" lon="5.70877">
        <ele>486.3</ele>
        <time>2023-05-16T10:06:10.346Z</time>
      </trkpt>
      <trkpt lat="44.86895" lon="5.7088">
        <ele>484.7</ele>
        <time>2023-05-16T10:06:11.257Z</time>
      </trkpt>
      <trkpt lat="44.86898" lon="5.70882">
        <ele>483.4</ele>
        <time>2023-05-16T10:06:12.292Z</time>
      </trkpt>
      <trkpt lat="44.86902" lon="5.70886">
        <ele>480.7</ele>
        <time>2023-05-16T10:06:13.821Z</time>
      </trkpt>
      <trkpt lat="44.86907" lon="5.70889">
        <ele>478.1</ele>
        <time>2023-05-16T10:06:15.515Z</time>
      </trkpt>
      <trkpt lat="44.8691" lon="5.70892">
        <ele>476</ele>
        <time>2023-05-16T10:06:16.662Z</time>
      </trkpt>
      <trkpt lat="44.86914" lon="5.70894">
        <ele>474</ele>
        <time>2023-05-16T10:06:17.986Z</time>
      </trkpt>
      <trkpt lat="44.86918" lon="5.70896">
        <ele>471</ele>
        <time>2023-05-16T10:06:19.309Z</time>
      </trkpt>
      <trkpt lat="44.86922" lon="5.70899">
        <ele>467.9</ele>
        <time>2023-05-16T10:06:20.722Z</time>
      </trkpt>
      <trkpt lat="44.86925" lon="5.70902">
        <ele>466.1</ele>
        <time>2023-05-16T10:06:21.869Z</time>
      </trkpt>
      <trkpt lat="44.86929" lon="5.70905">
        <ele>464.3</ele>
        <time>2023-05-16T10:06:23.282Z</time>
      </trkpt>
      <trkpt lat="44.86932" lon="5.70908">
        <ele>464.5</ele>
        <time>2023-05-16T10:06:24.841Z</time>
      </trkpt>
      <trkpt lat="44.86935" lon="5.70911">
        <ele>464.9</ele>
        <time>2023-05-16T10:06:26.717Z</time>
      </trkpt>
      <trkpt lat="44.86938" lon="5.70915">
        <ele>466.5</ele>
        <time>2023-05-16T10:06:33.072Z</time>
      </trkpt>
      <trkpt lat="44.86941" lon="5.70918">
        <ele>468.3</ele>
        <time>2023-05-16T10:06:39.953Z</time>
      </trkpt>
      <trkpt lat="44.86944" lon="5.7092">
        <ele>471.1</ele>
        <time>2023-05-16T10:06:46.162Z</time>
      </trkpt>
      <trkpt lat="44.86947" lon="5.70922">
        <ele>475.8</ele>
        <time>2023-05-16T10:06:52.371Z</time>
      </trkpt>
      <trkpt lat="44.86949" lon="5.70924">
        <ele>479.9</ele>
        <time>2023-05-16T10:06:56.959Z</time>
      </trkpt>
      <trkpt lat="44.86953" lon="5.70927">
        <ele>483.9</ele>
        <time>2023-05-16T10:07:05.436Z</time>
      </trkpt>
      <trkpt lat="44.86955" lon="5.70929">
        <ele>485.7</ele>
        <time>2023-05-16T10:07:10.024Z</time>
      </trkpt>
      <trkpt lat="44.86959" lon="5.70931">
        <ele>488.1</ele>
        <time>2023-05-16T10:07:17.965Z</time>
      </trkpt>
      <trkpt lat="44.86961" lon="5.70933">
        <ele>489.8</ele>
        <time>2023-05-16T10:07:22.553Z</time>
      </trkpt>
      <trkpt lat="44.86964" lon="5.70936">
        <ele>491.5</ele>
        <time>2023-05-16T10:07:29.434Z</time>
      </trkpt>
      <trkpt lat="44.86967" lon="5.70938">
        <ele>493</ele>
        <time>2023-05-16T10:07:35.643Z</time>
      </trkpt>
      <trkpt lat="44.8697" lon="5.7094">
        <ele>493</ele>
        <time>2023-05-16T10:07:36.826Z</time>
      </trkpt>
      <trkpt lat="44.86973" lon="5.70941">
        <ele>493.6</ele>
        <time>2023-05-16T10:07:38.989Z</time>
      </trkpt>
      <trkpt lat="44.86977" lon="5.70942">
        <ele>494.2</ele>
        <time>2023-05-16T10:07:41.375Z</time>
      </trkpt>
      <trkpt lat="44.86978" lon="5.70946">
        <ele>494.6</ele>
        <time>2023-05-16T10:07:43.048Z</time>
      </trkpt>
      <trkpt lat="44.86981" lon="5.70947">
        <ele>494.8</ele>
        <time>2023-05-16T10:07:44.401Z</time>
      </trkpt>
      <trkpt lat="44.86984" lon="5.70947">
        <ele>495</ele>
        <time>2023-05-16T10:07:45.725Z</time>
      </trkpt>
      <trkpt lat="44.86988" lon="5.70946">
        <ele>495.2</ele>
        <time>2023-05-16T10:07:47.418Z</time>
      </trkpt>
      <trkpt lat="44.8699" lon="5.70946">
        <ele>495.4</ele>
        <time>2023-05-16T10:07:48.408Z</time>
      </trkpt>
      <trkpt lat="44.86994" lon="5.70945">
        <ele>495.6</ele>
        <time>2023-05-16T10:07:50.101Z</time>
      </trkpt>
      <trkpt lat="44.86997" lon="5.70946">
        <ele>495.8</ele>
        <time>2023-05-16T10:07:51.454Z</time>
      </trkpt>
      <trkpt lat="44.87001" lon="5.70945">
        <ele>495.9</ele>
        <time>2023-05-16T10:07:53.017Z</time>
      </trkpt>
      <trkpt lat="44.87003" lon="5.70945">
        <ele>495.8</ele>
        <time>2023-05-16T10:07:53.641Z</time>
      </trkpt>
      <trkpt lat="44.87006" lon="5.70943">
        <ele>495.7</ele>
        <time>2023-05-16T10:07:54.721Z</time>
      </trkpt>
      <trkpt lat="44.87008" lon="5.70938">
        <ele>495.5</ele>
        <time>2023-05-16T10:07:55.990Z</time>
      </trkpt>
      <trkpt lat="44.87009" lon="5.70934">
        <ele>495.4</ele>
        <time>2023-05-16T10:07:56.959Z</time>
      </trkpt>
      <trkpt lat="44.8701" lon="5.7093">
        <ele>495.3</ele>
        <time>2023-05-16T10:07:57.929Z</time>
      </trkpt>
      <trkpt lat="44.87011" lon="5.70926">
        <ele>495.1</ele>
        <time>2023-05-16T10:07:58.866Z</time>
      </trkpt>
      <trkpt lat="44.87013" lon="5.70921">
        <ele>494.8</ele>
        <time>2023-05-16T10:08:00.135Z</time>
      </trkpt>
      <trkpt lat="44.87015" lon="5.70915">
        <ele>494.5</ele>
        <time>2023-05-16T10:08:01.601Z</time>
      </trkpt>
      <trkpt lat="44.87017" lon="5.70911">
        <ele>494.3</ele>
        <time>2023-05-16T10:08:02.683Z</time>
      </trkpt>
      <trkpt lat="44.8702" lon="5.70907">
        <ele>494.1</ele>
        <time>2023-05-16T10:08:03.970Z</time>
      </trkpt>
      <trkpt lat="44.87022" lon="5.70902">
        <ele>493.9</ele>
        <time>2023-05-16T10:08:05.240Z</time>
      </trkpt>
      <trkpt lat="44.87024" lon="5.70898">
        <ele>493.7</ele>
        <time>2023-05-16T10:08:06.322Z</time>
      </trkpt>
      <trkpt lat="44.87026" lon="5.70895">
        <ele>493.6</ele>
        <time>2023-05-16T10:08:07.260Z</time>
      </trkpt>
      <trkpt lat="44.87028" lon="5.70888">
        <ele>493.5</ele>
        <time>2023-05-16T10:08:09.061Z</time>
      </trkpt>
      <trkpt lat="44.8703" lon="5.70882">
        <ele>493.5</ele>
        <time>2023-05-16T10:08:10.736Z</time>
      </trkpt>
      <trkpt lat="44.8703" lon="5.70878">
        <ele>493.5</ele>
        <time>2023-05-16T10:08:11.747Z</time>
      </trkpt>
      <trkpt lat="44.8703" lon="5.70873">
        <ele>493.5</ele>
        <time>2023-05-16T10:08:13.010Z</time>
      </trkpt>
      <trkpt lat="44.87029" lon="5.70865">
        <ele>493.6</ele>
        <time>2023-05-16T10:08:15.176Z</time>
      </trkpt>
      <trkpt lat="44.87029" lon="5.7086">
        <ele>493.6</ele>
        <time>2023-05-16T10:08:16.439Z</time>
      </trkpt>
      <trkpt lat="44.87029" lon="5.70854">
        <ele>493.6</ele>
        <time>2023-05-16T10:08:17.955Z</time>
      </trkpt>
      <trkpt lat="44.8703" lon="5.70848">
        <ele>493.7</ele>
        <time>2023-05-16T10:08:19.627Z</time>
      </trkpt>
      <trkpt lat="44.87032" lon="5.70843">
        <ele>493.7</ele>
        <time>2023-05-16T10:08:21.078Z</time>
      </trkpt>
      <trkpt lat="44.87034" lon="5.7084">
        <ele>493.7</ele>
        <time>2023-05-16T10:08:22.118Z</time>
      </trkpt>
      <trkpt lat="44.87037" lon="5.70837">
        <ele>493.7</ele>
        <time>2023-05-16T10:08:23.429Z</time>
      </trkpt>
      <trkpt lat="44.8704" lon="5.70834">
        <ele>493.6</ele>
        <time>2023-05-16T10:08:24.636Z</time>
      </trkpt>
      <trkpt lat="44.87043" lon="5.70831">
        <ele>493.6</ele>
        <time>2023-05-16T10:08:25.947Z</time>
      </trkpt>
      <trkpt lat="44.87047" lon="5.70828">
        <ele>493.5</ele>
        <time>2023-05-16T10:08:27.457Z</time>
      </trkpt>
      <trkpt lat="44.87052" lon="5.70829">
        <ele>493.5</ele>
        <time>2023-05-16T10:08:29.257Z</time>
      </trkpt>
      <trkpt lat="44.87055" lon="5.70832">
        <ele>493.4</ele>
        <time>2023-05-16T10:08:30.464Z</time>
      </trkpt>
      <trkpt lat="44.87059" lon="5.70836">
        <ele>493.4</ele>
        <time>2023-05-16T10:08:32.212Z</time>
      </trkpt>
      <trkpt lat="44.87063" lon="5.70841">
        <ele>493.3</ele>
        <time>2023-05-16T10:08:34.011Z</time>
      </trkpt>
      <trkpt lat="44.87068" lon="5.70846">
        <ele>493.2</ele>
        <time>2023-05-16T10:08:36.089Z</time>
      </trkpt>
      <trkpt lat="44.87071" lon="5.70851">
        <ele>493.1</ele>
        <time>2023-05-16T10:08:37.640Z</time>
      </trkpt>
      <trkpt lat="44.87074" lon="5.70854">
        <ele>493.1</ele>
        <time>2023-05-16T10:08:38.950Z</time>
      </trkpt>
      <trkpt lat="44.87078" lon="5.70854">
        <ele>493.1</ele>
        <time>2023-05-16T10:08:40.376Z</time>
      </trkpt>
      <trkpt lat="44.87082" lon="5.70854">
        <ele>493.2</ele>
        <time>2023-05-16T10:08:41.918Z</time>
      </trkpt>
      <trkpt lat="44.87085" lon="5.70856">
        <ele>493.2</ele>
        <time>2023-05-16T10:08:43.101Z</time>
      </trkpt>
      <trkpt lat="44.87089" lon="5.70858">
        <ele>493.3</ele>
        <time>2023-05-16T10:08:44.729Z</time>
      </trkpt>
      <trkpt lat="44.87093" lon="5.70859">
        <ele>493.3</ele>
        <time>2023-05-16T10:08:46.177Z</time>
      </trkpt>
      <trkpt lat="44.87098" lon="5.70858">
        <ele>493.4</ele>
        <time>2023-05-16T10:08:48.092Z</time>
      </trkpt>
      <trkpt lat="44.87103" lon="5.70853">
        <ele>493.5</ele>
        <time>2023-05-16T10:08:50.390Z</time>
      </trkpt>
      <trkpt lat="44.87105" lon="5.7085">
        <ele>493.4</ele>
        <time>2023-05-16T10:08:51.328Z</time>
      </trkpt>
      <trkpt lat="44.87106" lon="5.70846">
        <ele>493.4</ele>
        <time>2023-05-16T10:08:52.400Z</time>
      </trkpt>
      <trkpt lat="44.87107" lon="5.70842">
        <ele>493.3</ele>
        <time>2023-05-16T10:08:53.369Z</time>
      </trkpt>
      <trkpt lat="44.87108" lon="5.70838">
        <ele>493.3</ele>
        <time>2023-05-16T10:08:54.440Z</time>
      </trkpt>
      <trkpt lat="44.87109" lon="5.70834">
        <ele>493.2</ele>
        <time>2023-05-16T10:08:55.410Z</time>
      </trkpt>
      <trkpt lat="44.8711" lon="5.70829">
        <ele>493.2</ele>
        <time>2023-05-16T10:08:56.722Z</time>
      </trkpt>
      <trkpt lat="44.87111" lon="5.70824">
        <ele>493.2</ele>
        <time>2023-05-16T10:08:58.034Z</time>
      </trkpt>
      <trkpt lat="44.87112" lon="5.7082">
        <ele>493.2</ele>
        <time>2023-05-16T10:08:59.106Z</time>
      </trkpt>
      <trkpt lat="44.87115" lon="5.70816">
        <ele>493.2</ele>
        <time>2023-05-16T10:09:00.577Z</time>
      </trkpt>
      <trkpt lat="44.87117" lon="5.70814">
        <ele>493.2</ele>
        <time>2023-05-16T10:09:01.451Z</time>
      </trkpt>
      <trkpt lat="44.87121" lon="5.7081">
        <ele>493.3</ele>
        <time>2023-05-16T10:09:03.313Z</time>
      </trkpt>
      <trkpt lat="44.87124" lon="5.70808">
        <ele>493.4</ele>
        <time>2023-05-16T10:09:04.613Z</time>
      </trkpt>
      <trkpt lat="44.87127" lon="5.70805">
        <ele>493.5</ele>
        <time>2023-05-16T10:09:06.040Z</time>
      </trkpt>
      <trkpt lat="44.8713" lon="5.70802">
        <ele>493.6</ele>
        <time>2023-05-16T10:09:07.468Z</time>
      </trkpt>
      <trkpt lat="44.87134" lon="5.70799">
        <ele>493.8</ele>
        <time>2023-05-16T10:09:09.325Z</time>
      </trkpt>
      <trkpt lat="44.87138" lon="5.70796">
        <ele>493.9</ele>
        <time>2023-05-16T10:09:11.054Z</time>
      </trkpt>
      <trkpt lat="44.87142" lon="5.70794">
        <ele>494</ele>
        <time>2023-05-16T10:09:12.683Z</time>
      </trkpt>
      <trkpt lat="44.87147" lon="5.70793">
        <ele>494.2</ele>
        <time>2023-05-16T10:09:14.722Z</time>
      </trkpt>
      <trkpt lat="44.87153" lon="5.70793">
        <ele>494.4</ele>
        <time>2023-05-16T10:09:17.097Z</time>
      </trkpt>
      <trkpt lat="44.87161" lon="5.7079">
        <ele>494.8</ele>
        <time>2023-05-16T10:09:20.537Z</time>
      </trkpt>
      <trkpt lat="44.8717" lon="5.7079">
        <ele>496</ele>
        <time>2023-05-16T10:09:25.551Z</time>
      </trkpt>
      <trkpt lat="44.87171" lon="5.70784">
        <ele>496.8</ele>
        <time>2023-05-16T10:09:28.483Z</time>
      </trkpt>
      <trkpt lat="44.87171" lon="5.7078">
        <ele>497.4</ele>
        <time>2023-05-16T10:09:30.610Z</time>
      </trkpt>
      <trkpt lat="44.8717" lon="5.70772">
        <ele>498.4</ele>
        <time>2023-05-16T10:09:34.337Z</time>
      </trkpt>
      <trkpt lat="44.8717" lon="5.70766">
        <ele>499</ele>
        <time>2023-05-16T10:09:36.774Z</time>
      </trkpt>
      <trkpt lat="44.8717" lon="5.70762">
        <ele>499.4</ele>
        <time>2023-05-16T10:09:38.399Z</time>
      </trkpt>
      <trkpt lat="44.8717" lon="5.70758">
        <ele>499.8</ele>
        <time>2023-05-16T10:09:40.023Z</time>
      </trkpt>
      <trkpt lat="44.8717" lon="5.70752">
        <ele>500.3</ele>
        <time>2023-05-16T10:09:42.262Z</time>
      </trkpt>
      <trkpt lat="44.87169" lon="5.70747">
        <ele>500.8</ele>
        <time>2023-05-16T10:09:44.332Z</time>
      </trkpt>
      <trkpt lat="44.87168" lon="5.70743">
        <ele>501.2</ele>
        <time>2023-05-16T10:09:46.005Z</time>
      </trkpt>
      <trkpt lat="44.87166" lon="5.70737">
        <ele>501.8</ele>
        <time>2023-05-16T10:09:48.570Z</time>
      </trkpt>
      <trkpt lat="44.87163" lon="5.70732">
        <ele>502.3</ele>
        <time>2023-05-16T10:09:50.930Z</time>
      </trkpt>
      <trkpt lat="44.8716" lon="5.70727">
        <ele>502.9</ele>
        <time>2023-05-16T10:09:53.478Z</time>
      </trkpt>
      <trkpt lat="44.87157" lon="5.70725">
        <ele>503.2</ele>
        <time>2023-05-16T10:09:55.066Z</time>
      </trkpt>
      <trkpt lat="44.87153" lon="5.7072">
        <ele>503.6</ele>
        <time>2023-05-16T10:09:57.491Z</time>
      </trkpt>
      <trkpt lat="44.8715" lon="5.70717">
        <ele>503.9</ele>
        <time>2023-05-16T10:09:59.199Z</time>
      </trkpt>
      <trkpt lat="44.87145" lon="5.70714">
        <ele>504.4</ele>
        <time>2023-05-16T10:10:01.813Z</time>
      </trkpt>
      <trkpt lat="44.87141" lon="5.7071">
        <ele>504.8</ele>
        <time>2023-05-16T10:10:04.090Z</time>
      </trkpt>
      <trkpt lat="44.87138" lon="5.70706">
        <ele>505.2</ele>
        <time>2023-05-16T10:10:06.110Z</time>
      </trkpt>
      <trkpt lat="44.87136" lon="5.70701">
        <ele>505.6</ele>
        <time>2023-05-16T10:10:08.112Z</time>
      </trkpt>
      <trkpt lat="44.87137" lon="5.70696">
        <ele>506.1</ele>
        <time>2023-05-16T10:10:10.181Z</time>
      </trkpt>
      <trkpt lat="44.87138" lon="5.70692">
        <ele>506.6</ele>
        <time>2023-05-16T10:10:12.074Z</time>
      </trkpt>
      <trkpt lat="44.87139" lon="5.70689">
        <ele>507.2</ele>
        <time>2023-05-16T10:10:14.177Z</time>
      </trkpt>
      <trkpt lat="44.87142" lon="5.70685">
        <ele>508</ele>
        <time>2023-05-16T10:10:17.064Z</time>
      </trkpt>
      <trkpt lat="44.87144" lon="5.70682">
        <ele>508.7</ele>
        <time>2023-05-16T10:10:19.516Z</time>
      </trkpt>
      <trkpt lat="44.87147" lon="5.70678">
        <ele>509.6</ele>
        <time>2023-05-16T10:10:22.692Z</time>
      </trkpt>
      <trkpt lat="44.87149" lon="5.70673">
        <ele>510.6</ele>
        <time>2023-05-16T10:10:26.194Z</time>
      </trkpt>
      <trkpt lat="44.87152" lon="5.70669">
        <ele>511.4</ele>
        <time>2023-05-16T10:10:29.081Z</time>
      </trkpt>
      <trkpt lat="44.87154" lon="5.70665">
        <ele>512</ele>
        <time>2023-05-16T10:10:31.321Z</time>
      </trkpt>
      <trkpt lat="44.87157" lon="5.70662">
        <ele>512.5</ele>
        <time>2023-05-16T10:10:33.389Z</time>
      </trkpt>
      <trkpt lat="44.87159" lon="5.7066">
        <ele>513</ele>
        <time>2023-05-16T10:10:35.173Z</time>
      </trkpt>
      <trkpt lat="44.87161" lon="5.70657">
        <ele>513.4</ele>
        <time>2023-05-16T10:10:36.821Z</time>
      </trkpt>
      <trkpt lat="44.87164" lon="5.70655">
        <ele>513.9</ele>
        <time>2023-05-16T10:10:38.791Z</time>
      </trkpt>
      <trkpt lat="44.87167" lon="5.70653">
        <ele>514.4</ele>
        <time>2023-05-16T10:10:40.762Z</time>
      </trkpt>
      <trkpt lat="44.8717" lon="5.70651">
        <ele>514.9</ele>
        <time>2023-05-16T10:10:42.732Z</time>
      </trkpt>
      <trkpt lat="44.87172" lon="5.70648">
        <ele>515.3</ele>
        <time>2023-05-16T10:10:44.380Z</time>
      </trkpt>
      <trkpt lat="44.87175" lon="5.70644">
        <ele>515.8</ele>
        <time>2023-05-16T10:10:46.581Z</time>
      </trkpt>
      <trkpt lat="44.87177" lon="5.70641">
        <ele>516.3</ele>
        <time>2023-05-16T10:10:48.453Z</time>
      </trkpt>
      <trkpt lat="44.87179" lon="5.70637">
        <ele>516.8</ele>
        <time>2023-05-16T10:10:50.464Z</time>
      </trkpt>
      <trkpt lat="44.87181" lon="5.70634">
        <ele>516.9</ele>
        <time>2023-05-16T10:10:51.622Z</time>
      </trkpt>
      <trkpt lat="44.87184" lon="5.70631">
        <ele>517.1</ele>
        <time>2023-05-16T10:10:53.181Z</time>
      </trkpt>
      <trkpt lat="44.87186" lon="5.70627">
        <ele>517.3</ele>
        <time>2023-05-16T10:10:54.668Z</time>
      </trkpt>
      <trkpt lat="44.87188" lon="5.70625">
        <ele>517.5</ele>
        <time>2023-05-16T10:10:55.806Z</time>
      </trkpt>
      <trkpt lat="44.8719" lon="5.70621">
        <ele>517.6</ele>
        <time>2023-05-16T10:10:57.159Z</time>
      </trkpt>
      <trkpt lat="44.87192" lon="5.70616">
        <ele>517.7</ele>
        <time>2023-05-16T10:10:58.726Z</time>
      </trkpt>
      <trkpt lat="44.87194" lon="5.70613">
        <ele>517.8</ele>
        <time>2023-05-16T10:10:59.884Z</time>
      </trkpt>
      <trkpt lat="44.87196" lon="5.70607">
        <ele>518</ele>
        <time>2023-05-16T10:11:01.801Z</time>
      </trkpt>
      <trkpt lat="44.87198" lon="5.70605">
        <ele>518.1</ele>
        <time>2023-05-16T10:11:02.795Z</time>
      </trkpt>
      <trkpt lat="44.872" lon="5.70602">
        <ele>518.2</ele>
        <time>2023-05-16T10:11:03.953Z</time>
      </trkpt>
      <trkpt lat="44.87201" lon="5.70598">
        <ele>518.2</ele>
        <time>2023-05-16T10:11:05.025Z</time>
      </trkpt>
      <trkpt lat="44.87203" lon="5.70594">
        <ele>518.3</ele>
        <time>2023-05-16T10:11:06.378Z</time>
      </trkpt>
      <trkpt lat="44.87204" lon="5.7059">
        <ele>518.4</ele>
        <time>2023-05-16T10:11:07.568Z</time>
      </trkpt>
      <trkpt lat="44.87206" lon="5.70586">
        <ele>518.5</ele>
        <time>2023-05-16T10:11:08.922Z</time>
      </trkpt>
      <trkpt lat="44.87209" lon="5.7058">
        <ele>518.5</ele>
        <time>2023-05-16T10:11:10.776Z</time>
      </trkpt>
      <trkpt lat="44.87212" lon="5.70574">
        <ele>518.6</ele>
        <time>2023-05-16T10:11:12.746Z</time>
      </trkpt>
      <trkpt lat="44.87214" lon="5.70567">
        <ele>518.7</ele>
        <time>2023-05-16T10:11:14.767Z</time>
      </trkpt>
      <trkpt lat="44.87215" lon="5.7056">
        <ele>518.8</ele>
        <time>2023-05-16T10:11:16.685Z</time>
      </trkpt>
      <trkpt lat="44.87222" lon="5.70539">
        <ele>519</ele>
        <time>2023-05-16T10:11:22.773Z</time>
      </trkpt>
      <trkpt lat="44.87225" lon="5.70535">
        <ele>519</ele>
        <time>2023-05-16T10:11:24.244Z</time>
      </trkpt>
      <trkpt lat="44.87227" lon="5.70531">
        <ele>519</ele>
        <time>2023-05-16T10:11:25.481Z</time>
      </trkpt>
      <trkpt lat="44.8723" lon="5.70527">
        <ele>519</ele>
        <time>2023-05-16T10:11:26.952Z</time>
      </trkpt>
      <trkpt lat="44.87231" lon="5.70523">
        <ele>519</ele>
        <time>2023-05-16T10:11:28.024Z</time>
      </trkpt>
      <trkpt lat="44.87232" lon="5.70516">
        <ele>519</ele>
        <time>2023-05-16T10:11:29.827Z</time>
      </trkpt>
      <trkpt lat="44.87232" lon="5.70512">
        <ele>519.2</ele>
        <time>2023-05-16T10:11:31.095Z</time>
      </trkpt>
      <trkpt lat="44.8723" lon="5.70508">
        <ele>519.8</ele>
        <time>2023-05-16T10:11:33.335Z</time>
      </trkpt>
      <trkpt lat="44.87228" lon="5.70504">
        <ele>520.4</ele>
        <time>2023-05-16T10:11:35.575Z</time>
      </trkpt>
      <trkpt lat="44.87226" lon="5.705">
        <ele>521.1</ele>
        <time>2023-05-16T10:11:38.078Z</time>
      </trkpt>
      <trkpt lat="44.87224" lon="5.70496">
        <ele>521.8</ele>
        <time>2023-05-16T10:11:40.581Z</time>
      </trkpt>
      <trkpt lat="44.87222" lon="5.70491">
        <ele>522.5</ele>
        <time>2023-05-16T10:11:43.199Z</time>
      </trkpt>
      <trkpt lat="44.8722" lon="5.70487">
        <ele>523.1</ele>
        <time>2023-05-16T10:11:45.439Z</time>
      </trkpt>
      <trkpt lat="44.87219" lon="5.70482">
        <ele>523.6</ele>
        <time>2023-05-16T10:11:47.508Z</time>
      </trkpt>
      <trkpt lat="44.87218" lon="5.70478">
        <ele>524.1</ele>
        <time>2023-05-16T10:11:49.401Z</time>
      </trkpt>
      <trkpt lat="44.87218" lon="5.70473">
        <ele>524.6</ele>
        <time>2023-05-16T10:11:51.432Z</time>
      </trkpt>
      <trkpt lat="44.87218" lon="5.70467">
        <ele>525.6</ele>
        <time>2023-05-16T10:11:54.937Z</time>
      </trkpt>
      <trkpt lat="44.87222" lon="5.70462">
        <ele>526.8</ele>
        <time>2023-05-16T10:11:59.158Z</time>
      </trkpt>
      <trkpt lat="44.87225" lon="5.70457">
        <ele>527.9</ele>
        <time>2023-05-16T10:12:03.012Z</time>
      </trkpt>
      <trkpt lat="44.87228" lon="5.70454">
        <ele>528.8</ele>
        <time>2023-05-16T10:12:06.163Z</time>
      </trkpt>
      <trkpt lat="44.87231" lon="5.70451">
        <ele>529.5</ele>
        <time>2023-05-16T10:12:08.701Z</time>
      </trkpt>
      <trkpt lat="44.87234" lon="5.70448">
        <ele>530.2</ele>
        <time>2023-05-16T10:12:11.239Z</time>
      </trkpt>
      <trkpt lat="44.87237" lon="5.70447">
        <ele>530.8</ele>
        <time>2023-05-16T10:12:13.402Z</time>
      </trkpt>
      <trkpt lat="44.87239" lon="5.70444">
        <ele>531.5</ele>
        <time>2023-05-16T10:12:15.854Z</time>
      </trkpt>
      <trkpt lat="44.87243" lon="5.70441">
        <ele>532.2</ele>
        <time>2023-05-16T10:12:18.583Z</time>
      </trkpt>
      <trkpt lat="44.87246" lon="5.70438">
        <ele>532.9</ele>
        <time>2023-05-16T10:12:21.121Z</time>
      </trkpt>
      <trkpt lat="44.8725" lon="5.70436">
        <ele>533.6</ele>
        <time>2023-05-16T10:12:23.778Z</time>
      </trkpt>
      <trkpt lat="44.87253" lon="5.70433">
        <ele>534.1</ele>
        <time>2023-05-16T10:12:25.847Z</time>
      </trkpt>
      <trkpt lat="44.87255" lon="5.7043">
        <ele>534.6</ele>
        <time>2023-05-16T10:12:27.719Z</time>
      </trkpt>
      <trkpt lat="44.87259" lon="5.70427">
        <ele>535.4</ele>
        <time>2023-05-16T10:12:30.685Z</time>
      </trkpt>
      <trkpt lat="44.87263" lon="5.70425">
        <ele>536.1</ele>
        <time>2023-05-16T10:12:33.342Z</time>
      </trkpt>
      <trkpt lat="44.87268" lon="5.70424">
        <ele>536.9</ele>
        <time>2023-05-16T10:12:36.428Z</time>
      </trkpt>
      <trkpt lat="44.87272" lon="5.70423">
        <ele>537.7</ele>
        <time>2023-05-16T10:12:39.305Z</time>
      </trkpt>
      <trkpt lat="44.87276" lon="5.70423">
        <ele>538.5</ele>
        <time>2023-05-16T10:12:42.171Z</time>
      </trkpt>
      <trkpt lat="44.8728" lon="5.70422">
        <ele>539.2</ele>
        <time>2023-05-16T10:12:44.787Z</time>
      </trkpt>
      <trkpt lat="44.87284" lon="5.70421">
        <ele>539.9</ele>
        <time>2023-05-16T10:12:47.403Z</time>
      </trkpt>
      <trkpt lat="44.87288" lon="5.70421">
        <ele>540.6</ele>
        <time>2023-05-16T10:12:50.006Z</time>
      </trkpt>
      <trkpt lat="44.87291" lon="5.70421">
        <ele>541.1</ele>
        <time>2023-05-16T10:12:51.897Z</time>
      </trkpt>
      <trkpt lat="44.87295" lon="5.70421">
        <ele>541.6</ele>
        <time>2023-05-16T10:12:54.059Z</time>
      </trkpt>
      <trkpt lat="44.87298" lon="5.70421">
        <ele>542</ele>
        <time>2023-05-16T10:12:55.731Z</time>
      </trkpt>
      <trkpt lat="44.87301" lon="5.70422">
        <ele>542.5</ele>
        <time>2023-05-16T10:12:57.641Z</time>
      </trkpt>
      <trkpt lat="44.87304" lon="5.70421">
        <ele>543</ele>
        <time>2023-05-16T10:12:59.552Z</time>
      </trkpt>
      <trkpt lat="44.87307" lon="5.70421">
        <ele>543.6</ele>
        <time>2023-05-16T10:13:01.702Z</time>
      </trkpt>
      <trkpt lat="44.8731" lon="5.70421">
        <ele>544.2</ele>
        <time>2023-05-16T10:13:03.852Z</time>
      </trkpt>
      <trkpt lat="44.87313" lon="5.70421">
        <ele>544.9</ele>
        <time>2023-05-16T10:13:06.306Z</time>
      </trkpt>
      <trkpt lat="44.87317" lon="5.7042">
        <ele>545.8</ele>
        <time>2023-05-16T10:13:09.476Z</time>
      </trkpt>
      <trkpt lat="44.87318" lon="5.70416">
        <ele>546.5</ele>
        <time>2023-05-16T10:13:11.931Z</time>
      </trkpt>
      <trkpt lat="44.87318" lon="5.70412">
        <ele>547.4</ele>
        <time>2023-05-16T10:13:15.216Z</time>
      </trkpt>
      <trkpt lat="44.87317" lon="5.70407">
        <ele>548</ele>
        <time>2023-05-16T10:13:17.505Z</time>
      </trkpt>
      <trkpt lat="44.8732" lon="5.70409">
        <ele>547.7</ele>
        <time>2023-05-16T10:13:18.539Z</time>
      </trkpt>
      <trkpt lat="44.87322" lon="5.70414">
        <ele>547.3</ele>
        <time>2023-05-16T10:13:19.809Z</time>
      </trkpt>
      <trkpt lat="44.87322" lon="5.70409">
        <ele>546.9</ele>
        <time>2023-05-16T10:13:20.914Z</time>
      </trkpt>
      <trkpt lat="44.87318" lon="5.70405">
        <ele>546.4</ele>
        <time>2023-05-16T10:13:22.443Z</time>
      </trkpt>
      <trkpt lat="44.87316" lon="5.70402">
        <ele>546.1</ele>
        <time>2023-05-16T10:13:23.353Z</time>
      </trkpt>
      <trkpt lat="44.87313" lon="5.704">
        <ele>545.9</ele>
        <time>2023-05-16T10:13:24.388Z</time>
      </trkpt>
      <trkpt lat="44.8731" lon="5.70397">
        <ele>545.7</ele>
        <time>2023-05-16T10:13:25.535Z</time>
      </trkpt>
      <trkpt lat="44.87307" lon="5.70393">
        <ele>545.4</ele>
        <time>2023-05-16T10:13:26.822Z</time>
      </trkpt>
      <trkpt lat="44.87305" lon="5.70389">
        <ele>545.1</ele>
        <time>2023-05-16T10:13:27.904Z</time>
      </trkpt>
      <trkpt lat="44.87303" lon="5.70386">
        <ele>544.9</ele>
        <time>2023-05-16T10:13:28.815Z</time>
      </trkpt>
      <trkpt lat="44.87301" lon="5.70381">
        <ele>544.5</ele>
        <time>2023-05-16T10:13:30.084Z</time>
      </trkpt>
      <trkpt lat="44.873" lon="5.70377">
        <ele>543.9</ele>
        <time>2023-05-16T10:13:31.021Z</time>
      </trkpt>
      <trkpt lat="44.87298" lon="5.70371">
        <ele>543.1</ele>
        <time>2023-05-16T10:13:32.487Z</time>
      </trkpt>
      <trkpt lat="44.87296" lon="5.70366">
        <ele>542</ele>
        <time>2023-05-16T10:13:33.756Z</time>
      </trkpt>
      <trkpt lat="44.87295" lon="5.7036">
        <ele>541</ele>
        <time>2023-05-16T10:13:35.118Z</time>
      </trkpt>
      <trkpt lat="44.87293" lon="5.70355">
        <ele>540.1</ele>
        <time>2023-05-16T10:13:36.387Z</time>
      </trkpt>
      <trkpt lat="44.87292" lon="5.70349">
        <ele>539.7</ele>
        <time>2023-05-16T10:13:37.750Z</time>
      </trkpt>
      <trkpt lat="44.87289" lon="5.70344">
        <ele>539.4</ele>
        <time>2023-05-16T10:13:39.198Z</time>
      </trkpt>
      <trkpt lat="44.87286" lon="5.7034">
        <ele>539.1</ele>
        <time>2023-05-16T10:13:40.485Z</time>
      </trkpt>
      <trkpt lat="44.87283" lon="5.70334">
        <ele>538.7</ele>
        <time>2023-05-16T10:13:42.108Z</time>
      </trkpt>
      <trkpt lat="44.87281" lon="5.70331">
        <ele>538.5</ele>
        <time>2023-05-16T10:13:43.019Z</time>
      </trkpt>
      <trkpt lat="44.87278" lon="5.70328">
        <ele>538.3</ele>
        <time>2023-05-16T10:13:44.166Z</time>
      </trkpt>
      <trkpt lat="44.87276" lon="5.70325">
        <ele>538</ele>
        <time>2023-05-16T10:13:45.076Z</time>
      </trkpt>
      <trkpt lat="44.87274" lon="5.70321">
        <ele>537.6</ele>
        <time>2023-05-16T10:13:46.158Z</time>
      </trkpt>
      <trkpt lat="44.87272" lon="5.70317">
        <ele>537.2</ele>
        <time>2023-05-16T10:13:47.240Z</time>
      </trkpt>
      <trkpt lat="44.8727" lon="5.70314">
        <ele>536.8</ele>
        <time>2023-05-16T10:13:48.150Z</time>
      </trkpt>
      <trkpt lat="44.87268" lon="5.7031">
        <ele>536.4</ele>
        <time>2023-05-16T10:13:49.233Z</time>
      </trkpt>
      <trkpt lat="44.87265" lon="5.70304">
        <ele>535.6</ele>
        <time>2023-05-16T10:13:50.856Z</time>
      </trkpt>
      <trkpt lat="44.8726" lon="5.70294">
        <ele>533.7</ele>
        <time>2023-05-16T10:13:53.561Z</time>
      </trkpt>
      <trkpt lat="44.87257" lon="5.7029">
        <ele>532.9</ele>
        <time>2023-05-16T10:13:54.848Z</time>
      </trkpt>
      <trkpt lat="44.87255" lon="5.70284">
        <ele>532.6</ele>
        <time>2023-05-16T10:13:56.314Z</time>
      </trkpt>
      <trkpt lat="44.87253" lon="5.70278">
        <ele>532.3</ele>
        <time>2023-05-16T10:13:57.779Z</time>
      </trkpt>
      <trkpt lat="44.87251" lon="5.70273">
        <ele>532</ele>
        <time>2023-05-16T10:13:59.048Z</time>
      </trkpt>
      <trkpt lat="44.87248" lon="5.70268">
        <ele>531.7</ele>
        <time>2023-05-16T10:14:00.496Z</time>
      </trkpt>
      <trkpt lat="44.87246" lon="5.70262">
        <ele>531.4</ele>
        <time>2023-05-16T10:14:01.962Z</time>
      </trkpt>
      <trkpt lat="44.87244" lon="5.70256">
        <ele>531.1</ele>
        <time>2023-05-16T10:14:03.428Z</time>
      </trkpt>
      <trkpt lat="44.87243" lon="5.7025">
        <ele>530.6</ele>
        <time>2023-05-16T10:14:04.790Z</time>
      </trkpt>
      <trkpt lat="44.87242" lon="5.70243">
        <ele>530.4</ele>
        <time>2023-05-16T10:14:06.392Z</time>
      </trkpt>
      <trkpt lat="44.87242" lon="5.70237">
        <ele>530.1</ele>
        <time>2023-05-16T10:14:07.718Z</time>
      </trkpt>
      <trkpt lat="44.87241" lon="5.7023">
        <ele>529.9</ele>
        <time>2023-05-16T10:14:09.320Z</time>
      </trkpt>
      <trkpt lat="44.87241" lon="5.70224">
        <ele>529.7</ele>
        <time>2023-05-16T10:14:10.646Z</time>
      </trkpt>
      <trkpt lat="44.87241" lon="5.70217">
        <ele>529.5</ele>
        <time>2023-05-16T10:14:12.213Z</time>
      </trkpt>
      <trkpt lat="44.87241" lon="5.70211">
        <ele>529.2</ele>
        <time>2023-05-16T10:14:13.539Z</time>
      </trkpt>
      <trkpt lat="44.87241" lon="5.70205">
        <ele>528.9</ele>
        <time>2023-05-16T10:14:14.865Z</time>
      </trkpt>
      <trkpt lat="44.87242" lon="5.70199">
        <ele>528.7</ele>
        <time>2023-05-16T10:14:16.228Z</time>
      </trkpt>
      <trkpt lat="44.87242" lon="5.70194">
        <ele>528.5</ele>
        <time>2023-05-16T10:14:17.333Z</time>
      </trkpt>
      <trkpt lat="44.87242" lon="5.70188">
        <ele>528.2</ele>
        <time>2023-05-16T10:14:18.659Z</time>
      </trkpt>
      <trkpt lat="44.87242" lon="5.70182">
        <ele>527.9</ele>
        <time>2023-05-16T10:14:19.985Z</time>
      </trkpt>
      <trkpt lat="44.87241" lon="5.70176">
        <ele>527.6</ele>
        <time>2023-05-16T10:14:21.348Z</time>
      </trkpt>
      <trkpt lat="44.8724" lon="5.70172">
        <ele>527.2</ele>
        <time>2023-05-16T10:14:22.285Z</time>
      </trkpt>
      <trkpt lat="44.87239" lon="5.70166">
        <ele>526.9</ele>
        <time>2023-05-16T10:14:23.648Z</time>
      </trkpt>
      <trkpt lat="44.87238" lon="5.70161">
        <ele>526.6</ele>
        <time>2023-05-16T10:14:24.796Z</time>
      </trkpt>
      <trkpt lat="44.87236" lon="5.70156">
        <ele>526.4</ele>
        <time>2023-05-16T10:14:26.065Z</time>
      </trkpt>
      <trkpt lat="44.87235" lon="5.70152">
        <ele>526.2</ele>
        <time>2023-05-16T10:14:27.003Z</time>
      </trkpt>
      <trkpt lat="44.87233" lon="5.70147">
        <ele>526</ele>
        <time>2023-05-16T10:14:28.272Z</time>
      </trkpt>
      <trkpt lat="44.87232" lon="5.70143">
        <ele>525.7</ele>
        <time>2023-05-16T10:14:29.209Z</time>
      </trkpt>
      <trkpt lat="44.8723" lon="5.70138">
        <ele>525.5</ele>
        <time>2023-05-16T10:14:30.478Z</time>
      </trkpt>
      <trkpt lat="44.87228" lon="5.70134">
        <ele>525.3</ele>
        <time>2023-05-16T10:14:31.560Z</time>
      </trkpt>
      <trkpt lat="44.87226" lon="5.70129">
        <ele>525.1</ele>
        <time>2023-05-16T10:14:32.830Z</time>
      </trkpt>
      <trkpt lat="44.87225" lon="5.70125">
        <ele>524.9</ele>
        <time>2023-05-16T10:14:33.767Z</time>
      </trkpt>
      <trkpt lat="44.87223" lon="5.70121">
        <ele>524.8</ele>
        <time>2023-05-16T10:14:34.901Z</time>
      </trkpt>
      <trkpt lat="44.87222" lon="5.70117">
        <ele>524.5</ele>
        <time>2023-05-16T10:14:35.838Z</time>
      </trkpt>
      <trkpt lat="44.8722" lon="5.70113">
        <ele>524.3</ele>
        <time>2023-05-16T10:14:36.920Z</time>
      </trkpt>
      <trkpt lat="44.87219" lon="5.7011">
        <ele>524</ele>
        <time>2023-05-16T10:14:37.653Z</time>
      </trkpt>
      <trkpt lat="44.87216" lon="5.70104">
        <ele>523.6</ele>
        <time>2023-05-16T10:14:39.276Z</time>
      </trkpt>
      <trkpt lat="44.87213" lon="5.70097">
        <ele>523.1</ele>
        <time>2023-05-16T10:14:41.084Z</time>
      </trkpt>
      <trkpt lat="44.8721" lon="5.70091">
        <ele>522.7</ele>
        <time>2023-05-16T10:14:42.707Z</time>
      </trkpt>
      <trkpt lat="44.87208" lon="5.70085">
        <ele>522</ele>
        <time>2023-05-16T10:14:44.173Z</time>
      </trkpt>
      <trkpt lat="44.87205" lon="5.70079">
        <ele>520.6</ele>
        <time>2023-05-16T10:14:45.796Z</time>
      </trkpt>
      <trkpt lat="44.87203" lon="5.70075">
        <ele>519.6</ele>
        <time>2023-05-16T10:14:46.878Z</time>
      </trkpt>
      <trkpt lat="44.872" lon="5.7007">
        <ele>518.1</ele>
        <time>2023-05-16T10:14:48.326Z</time>
      </trkpt>
      <trkpt lat="44.87199" lon="5.70061">
        <ele>516.5</ele>
        <time>2023-05-16T10:14:50.340Z</time>
      </trkpt>
      <trkpt lat="44.87202" lon="5.70055">
        <ele>516</ele>
        <time>2023-05-16T10:14:51.963Z</time>
      </trkpt>
      <trkpt lat="44.87204" lon="5.70053">
        <ele>516</ele>
        <time>2023-05-16T10:14:52.837Z</time>
      </trkpt>
      <trkpt lat="44.87207" lon="5.70051">
        <ele>516</ele>
        <time>2023-05-16T10:14:54.019Z</time>
      </trkpt>
      <trkpt lat="44.8721" lon="5.70049">
        <ele>516</ele>
        <time>2023-05-16T10:14:55.202Z</time>
      </trkpt>
      <trkpt lat="44.87213" lon="5.70048">
        <ele>516</ele>
        <time>2023-05-16T10:14:56.301Z</time>
      </trkpt>
      <trkpt lat="44.87215" lon="5.70048">
        <ele>516</ele>
        <time>2023-05-16T10:14:57.014Z</time>
      </trkpt>
      <trkpt lat="44.87218" lon="5.70048">
        <ele>516.1</ele>
        <time>2023-05-16T10:14:58.201Z</time>
      </trkpt>
      <trkpt lat="44.87221" lon="5.70048">
        <ele>516.5</ele>
        <time>2023-05-16T10:14:59.873Z</time>
      </trkpt>
      <trkpt lat="44.87225" lon="5.70048">
        <ele>516.8</ele>
        <time>2023-05-16T10:15:01.689Z</time>
      </trkpt>
      <trkpt lat="44.8723" lon="5.70047">
        <ele>517.4</ele>
        <time>2023-05-16T10:15:04.359Z</time>
      </trkpt>
      <trkpt lat="44.87234" lon="5.70046">
        <ele>518.1</ele>
        <time>2023-05-16T10:15:06.975Z</time>
      </trkpt>
      <trkpt lat="44.87238" lon="5.70046">
        <ele>518.8</ele>
        <time>2023-05-16T10:15:09.578Z</time>
      </trkpt>
      <trkpt lat="44.87243" lon="5.70045">
        <ele>519.4</ele>
        <time>2023-05-16T10:15:12.248Z</time>
      </trkpt>
      <trkpt lat="44.87246" lon="5.70045">
        <ele>519.9</ele>
        <time>2023-05-16T10:15:14.139Z</time>
      </trkpt>
      <trkpt lat="44.87252" lon="5.70044">
        <ele>521</ele>
        <time>2023-05-16T10:15:18.177Z</time>
      </trkpt>
      <trkpt lat="44.87257" lon="5.70044">
        <ele>521.1</ele>
        <time>2023-05-16T10:15:20.074Z</time>
      </trkpt>
      <trkpt lat="44.8726" lon="5.70044">
        <ele>521</ele>
        <time>2023-05-16T10:15:21.041Z</time>
      </trkpt>
      <trkpt lat="44.87265" lon="5.70043">
        <ele>521.4</ele>
        <time>2023-05-16T10:15:23.367Z</time>
      </trkpt>
      <trkpt lat="44.87268" lon="5.70043">
        <ele>521.8</ele>
        <time>2023-05-16T10:15:25.039Z</time>
      </trkpt>
      <trkpt lat="44.87273" lon="5.70043">
        <ele>522.7</ele>
        <time>2023-05-16T10:15:28.354Z</time>
      </trkpt>
      <trkpt lat="44.87276" lon="5.70044">
        <ele>523.2</ele>
        <time>2023-05-16T10:15:30.265Z</time>
      </trkpt>
      <trkpt lat="44.87281" lon="5.70045">
        <ele>523.9</ele>
        <time>2023-05-16T10:15:33.133Z</time>
      </trkpt>
      <trkpt lat="44.87285" lon="5.70045">
        <ele>524.4</ele>
        <time>2023-05-16T10:15:35.296Z</time>
      </trkpt>
      <trkpt lat="44.87289" lon="5.70045">
        <ele>525</ele>
        <time>2023-05-16T10:15:37.665Z</time>
      </trkpt>
      <trkpt lat="44.87292" lon="5.70045">
        <ele>525.6</ele>
        <time>2023-05-16T10:15:39.814Z</time>
      </trkpt>
      <trkpt lat="44.87297" lon="5.70045">
        <ele>526.8</ele>
        <time>2023-05-16T10:15:44.017Z</time>
      </trkpt>
      <trkpt lat="44.87302" lon="5.70045">
        <ele>527.8</ele>
        <time>2023-05-16T10:15:47.600Z</time>
      </trkpt>
      <trkpt lat="44.87307" lon="5.70045">
        <ele>528.7</ele>
        <time>2023-05-16T10:15:50.916Z</time>
      </trkpt>
      <trkpt lat="44.87312" lon="5.70045">
        <ele>529.6</ele>
        <time>2023-05-16T10:15:54.232Z</time>
      </trkpt>
      <trkpt lat="44.87316" lon="5.70045">
        <ele>530.8</ele>
        <time>2023-05-16T10:15:58.540Z</time>
      </trkpt>
      <trkpt lat="44.87321" lon="5.70044">
        <ele>531.6</ele>
        <time>2023-05-16T10:16:01.627Z</time>
      </trkpt>
      <trkpt lat="44.87326" lon="5.70045">
        <ele>532.5</ele>
        <time>2023-05-16T10:16:04.953Z</time>
      </trkpt>
      <trkpt lat="44.87329" lon="5.70045">
        <ele>533.4</ele>
        <time>2023-05-16T10:16:08.184Z</time>
      </trkpt>
      <trkpt lat="44.87334" lon="5.70045">
        <ele>534.4</ele>
        <time>2023-05-16T10:16:11.767Z</time>
      </trkpt>
      <trkpt lat="44.87338" lon="5.70045">
        <ele>535.1</ele>
        <time>2023-05-16T10:16:14.369Z</time>
      </trkpt>
      <trkpt lat="44.87343" lon="5.70045">
        <ele>536</ele>
        <time>2023-05-16T10:16:17.685Z</time>
      </trkpt>
      <trkpt lat="44.87348" lon="5.70044">
        <ele>537</ele>
        <time>2023-05-16T10:16:21.276Z</time>
      </trkpt>
      <trkpt lat="44.87352" lon="5.70043">
        <ele>537</ele>
        <time>2023-05-16T10:16:22.724Z</time>
      </trkpt>
      <trkpt lat="44.87355" lon="5.70045">
        <ele>537</ele>
        <time>2023-05-16T10:16:23.907Z</time>
      </trkpt>
      <trkpt lat="44.87355" lon="5.7005">
        <ele>537.9</ele>
        <time>2023-05-16T10:16:27.061Z</time>
      </trkpt>
      <trkpt lat="44.87353" lon="5.70051">
        <ele>538.5</ele>
        <time>2023-05-16T10:16:29.188Z</time>
      </trkpt>
      <trkpt lat="44.87349" lon="5.70051">
        <ele>539.3</ele>
        <time>2023-05-16T10:16:32.054Z</time>
      </trkpt>
      <trkpt lat="44.87345" lon="5.70051">
        <ele>540</ele>
        <time>2023-05-16T10:16:34.656Z</time>
      </trkpt>
      <trkpt lat="44.87341" lon="5.70051">
        <ele>540.5</ele>
        <time>2023-05-16T10:16:36.819Z</time>
      </trkpt>
      <trkpt lat="44.87337" lon="5.70051">
        <ele>540.9</ele>
        <time>2023-05-16T10:16:38.798Z</time>
      </trkpt>
      <trkpt lat="44.87333" lon="5.70052">
        <ele>541.3</ele>
        <time>2023-05-16T10:16:40.797Z</time>
      </trkpt>
      <trkpt lat="44.87329" lon="5.70053">
        <ele>541.6</ele>
        <time>2023-05-16T10:16:42.634Z</time>
      </trkpt>
      <trkpt lat="44.87326" lon="5.70053">
        <ele>542</ele>
        <time>2023-05-16T10:16:44.306Z</time>
      </trkpt>
      <trkpt lat="44.87322" lon="5.70054">
        <ele>542.3</ele>
        <time>2023-05-16T10:16:46.143Z</time>
      </trkpt>
      <trkpt lat="44.87318" lon="5.70055">
        <ele>542.6</ele>
        <time>2023-05-16T10:16:47.981Z</time>
      </trkpt>
      <trkpt lat="44.87315" lon="5.70056">
        <ele>543.3</ele>
        <time>2023-05-16T10:16:50.440Z</time>
      </trkpt>
      <trkpt lat="44.87311" lon="5.70057">
        <ele>544</ele>
        <time>2023-05-16T10:16:53.056Z</time>
      </trkpt>
      <trkpt lat="44.87307" lon="5.70057">
        <ele>544.8</ele>
        <time>2023-05-16T10:16:55.923Z</time>
      </trkpt>
      <trkpt lat="44.87303" lon="5.70057">
        <ele>545.6</ele>
        <time>2023-05-16T10:16:58.789Z</time>
      </trkpt>
      <trkpt lat="44.873" lon="5.70058">
        <ele>546.5</ele>
        <time>2023-05-16T10:17:02.000Z</time>
      </trkpt>
      <trkpt lat="44.87296" lon="5.7006">
        <ele>547.5</ele>
        <time>2023-05-16T10:17:05.505Z</time>
      </trkpt>
      <trkpt lat="44.87292" lon="5.70061">
        <ele>548.2</ele>
        <time>2023-05-16T10:17:08.121Z</time>
      </trkpt>
      <trkpt lat="44.87289" lon="5.70062">
        <ele>548.9</ele>
        <time>2023-05-16T10:17:10.580Z</time>
      </trkpt>
      <trkpt lat="44.87286" lon="5.70063">
        <ele>549.6</ele>
        <time>2023-05-16T10:17:13.040Z</time>
      </trkpt>
      <trkpt lat="44.87282" lon="5.70065">
        <ele>550</ele>
        <time>2023-05-16T10:17:15.098Z</time>
      </trkpt>
      <trkpt lat="44.87279" lon="5.70067">
        <ele>550.2</ele>
        <time>2023-05-16T10:17:16.532Z</time>
      </trkpt>
      <trkpt lat="44.87277" lon="5.70071">
        <ele>550.5</ele>
        <time>2023-05-16T10:17:18.170Z</time>
      </trkpt>
      <trkpt lat="44.87276" lon="5.70076">
        <ele>550.7</ele>
        <time>2023-05-16T10:17:19.730Z</time>
      </trkpt>
      <trkpt lat="44.87277" lon="5.70083">
        <ele>551</ele>
        <time>2023-05-16T10:17:21.910Z</time>
      </trkpt>
      <trkpt lat="44.87278" lon="5.7009">
        <ele>551.3</ele>
        <time>2023-05-16T10:17:24.090Z</time>
      </trkpt>
      <trkpt lat="44.87281" lon="5.70094">
        <ele>551.5</ele>
        <time>2023-05-16T10:17:25.806Z</time>
      </trkpt>
      <trkpt lat="44.87286" lon="5.70098">
        <ele>551.8</ele>
        <time>2023-05-16T10:17:28.225Z</time>
      </trkpt>
      <trkpt lat="44.8729" lon="5.70099">
        <ele>552</ele>
        <time>2023-05-16T10:17:29.918Z</time>
      </trkpt>
      <trkpt lat="44.87294" lon="5.70098">
        <ele>552</ele>
        <time>2023-05-16T10:17:31.366Z</time>
      </trkpt>
      <trkpt lat="44.87299" lon="5.70097">
        <ele>552.1</ele>
        <time>2023-05-16T10:17:33.281Z</time>
      </trkpt>
      <trkpt lat="44.87303" lon="5.70095">
        <ele>552.3</ele>
        <time>2023-05-16T10:17:35.037Z</time>
      </trkpt>
      <trkpt lat="44.87307" lon="5.70091">
        <ele>552.4</ele>
        <time>2023-05-16T10:17:36.899Z</time>
      </trkpt>
      <trkpt lat="44.8731" lon="5.70089">
        <ele>552.5</ele>
        <time>2023-05-16T10:17:38.199Z</time>
      </trkpt>
      <trkpt lat="44.87313" lon="5.70087">
        <ele>552.6</ele>
        <time>2023-05-16T10:17:39.499Z</time>
      </trkpt>
      <trkpt lat="44.87316" lon="5.70086">
        <ele>552.7</ele>
        <time>2023-05-16T10:17:40.716Z</time>
      </trkpt>
      <trkpt lat="44.87319" lon="5.70085">
        <ele>552.8</ele>
        <time>2023-05-16T10:17:41.933Z</time>
      </trkpt>
      <trkpt lat="44.87322" lon="5.70084">
        <ele>552.9</ele>
        <time>2023-05-16T10:17:43.149Z</time>
      </trkpt>
      <trkpt lat="44.87327" lon="5.70084">
        <ele>553.3</ele>
        <time>2023-05-16T10:17:45.459Z</time>
      </trkpt>
      <trkpt lat="44.87331" lon="5.70084">
        <ele>553.7</ele>
        <time>2023-05-16T10:17:47.438Z</time>
      </trkpt>
      <trkpt lat="44.87334" lon="5.70083">
        <ele>554.2</ele>
        <time>2023-05-16T10:17:49.348Z</time>
      </trkpt>
      <trkpt lat="44.87338" lon="5.70083">
        <ele>554.4</ele>
        <time>2023-05-16T10:17:51.020Z</time>
      </trkpt>
      <trkpt lat="44.87341" lon="5.70083">
        <ele>554.5</ele>
        <time>2023-05-16T10:17:52.207Z</time>
      </trkpt>
      <trkpt lat="44.87345" lon="5.70083">
        <ele>554.7</ele>
        <time>2023-05-16T10:17:53.878Z</time>
      </trkpt>
      <trkpt lat="44.8735" lon="5.70083">
        <ele>555</ele>
        <time>2023-05-16T10:17:56.037Z</time>
      </trkpt>
      <trkpt lat="44.87354" lon="5.70083">
        <ele>555.4</ele>
        <time>2023-05-16T10:17:58.016Z</time>
      </trkpt>
      <trkpt lat="44.87357" lon="5.70082">
        <ele>555.8</ele>
        <time>2023-05-16T10:17:59.712Z</time>
      </trkpt>
      <trkpt lat="44.87361" lon="5.70082">
        <ele>556.3</ele>
        <time>2023-05-16T10:18:01.874Z</time>
      </trkpt>
      <trkpt lat="44.87364" lon="5.70082">
        <ele>556.7</ele>
        <time>2023-05-16T10:18:03.545Z</time>
      </trkpt>
      <trkpt lat="44.87368" lon="5.70083">
        <ele>557.1</ele>
        <time>2023-05-16T10:18:05.545Z</time>
      </trkpt>
      <trkpt lat="44.87372" lon="5.70083">
        <ele>557.4</ele>
        <time>2023-05-16T10:18:07.361Z</time>
      </trkpt>
      <trkpt lat="44.87376" lon="5.70083">
        <ele>557.6</ele>
        <time>2023-05-16T10:18:09.032Z</time>
      </trkpt>
      <trkpt lat="44.8738" lon="5.70083">
        <ele>558.1</ele>
        <time>2023-05-16T10:18:11.194Z</time>
      </trkpt>
      <trkpt lat="44.87383" lon="5.70082">
        <ele>558.5</ele>
        <time>2023-05-16T10:18:12.890Z</time>
      </trkpt>
      <trkpt lat="44.87387" lon="5.70082">
        <ele>558.9</ele>
        <time>2023-05-16T10:18:14.869Z</time>
      </trkpt>
      <trkpt lat="44.8739" lon="5.70083">
        <ele>559.1</ele>
        <time>2023-05-16T10:18:16.222Z</time>
      </trkpt>
      <trkpt lat="44.87395" lon="5.70084">
        <ele>559.3</ele>
        <time>2023-05-16T10:18:18.261Z</time>
      </trkpt>
      <trkpt lat="44.87398" lon="5.70084">
        <ele>559.4</ele>
        <time>2023-05-16T10:18:19.449Z</time>
      </trkpt>
      <trkpt lat="44.87401" lon="5.70084">
        <ele>559.6</ele>
        <time>2023-05-16T10:18:20.773Z</time>
      </trkpt>
      <trkpt lat="44.87406" lon="5.70085">
        <ele>559.8</ele>
        <time>2023-05-16T10:18:22.813Z</time>
      </trkpt>
      <trkpt lat="44.87409" lon="5.70086">
        <ele>560</ele>
        <time>2023-05-16T10:18:24.166Z</time>
      </trkpt>
      <trkpt lat="44.87414" lon="5.70087">
        <ele>560.2</ele>
        <time>2023-05-16T10:18:26.206Z</time>
      </trkpt>
      <trkpt lat="44.87419" lon="5.70088">
        <ele>560.7</ele>
        <time>2023-05-16T10:18:28.696Z</time>
      </trkpt>
      <trkpt lat="44.87423" lon="5.70087">
        <ele>561.5</ele>
        <time>2023-05-16T10:18:31.572Z</time>
      </trkpt>
      <trkpt lat="44.87427" lon="5.70087">
        <ele>561.9</ele>
        <time>2023-05-16T10:18:33.551Z</time>
      </trkpt>
      <trkpt lat="44.87431" lon="5.70087">
        <ele>562.1</ele>
        <time>2023-05-16T10:18:35.222Z</time>
      </trkpt>
      <trkpt lat="44.87436" lon="5.70087">
        <ele>562.3</ele>
        <time>2023-05-16T10:18:37.245Z</time>
      </trkpt>
      <trkpt lat="44.87441" lon="5.70088">
        <ele>562.5</ele>
        <time>2023-05-16T10:18:39.284Z</time>
      </trkpt>
      <trkpt lat="44.87445" lon="5.70088">
        <ele>562.9</ele>
        <time>2023-05-16T10:18:41.263Z</time>
      </trkpt>
      <trkpt lat="44.87449" lon="5.70088">
        <ele>563.4</ele>
        <time>2023-05-16T10:18:43.426Z</time>
      </trkpt>
      <trkpt lat="44.87453" lon="5.70088">
        <ele>563.9</ele>
        <time>2023-05-16T10:18:45.588Z</time>
      </trkpt>
      <trkpt lat="44.87457" lon="5.70088">
        <ele>564.1</ele>
        <time>2023-05-16T10:18:47.259Z</time>
      </trkpt>
      <trkpt lat="44.87462" lon="5.70088">
        <ele>564.4</ele>
        <time>2023-05-16T10:18:49.418Z</time>
      </trkpt>
      <trkpt lat="44.87466" lon="5.70089">
        <ele>564.7</ele>
        <time>2023-05-16T10:18:51.256Z</time>
      </trkpt>
      <trkpt lat="44.8747" lon="5.70089">
        <ele>564.9</ele>
        <time>2023-05-16T10:18:52.927Z</time>
      </trkpt>
      <trkpt lat="44.87474" lon="5.7009">
        <ele>565.5</ele>
        <time>2023-05-16T10:18:55.313Z</time>
      </trkpt>
      <trkpt lat="44.87478" lon="5.7009">
        <ele>566</ele>
        <time>2023-05-16T10:18:57.475Z</time>
      </trkpt>
      <trkpt lat="44.87482" lon="5.70091">
        <ele>566.4</ele>
        <time>2023-05-16T10:18:59.474Z</time>
      </trkpt>
      <trkpt lat="44.87487" lon="5.70091">
        <ele>566.6</ele>
        <time>2023-05-16T10:19:01.496Z</time>
      </trkpt>
      <trkpt lat="44.87491" lon="5.70092">
        <ele>566.8</ele>
        <time>2023-05-16T10:19:03.189Z</time>
      </trkpt>
      <trkpt lat="44.87495" lon="5.70091">
        <ele>567</ele>
        <time>2023-05-16T10:19:04.882Z</time>
      </trkpt>
      <trkpt lat="44.87499" lon="5.70092">
        <ele>567.2</ele>
        <time>2023-05-16T10:19:06.575Z</time>
      </trkpt>
      <trkpt lat="44.87503" lon="5.70092">
        <ele>567.6</ele>
        <time>2023-05-16T10:19:08.554Z</time>
      </trkpt>
      <trkpt lat="44.87506" lon="5.70093">
        <ele>568.1</ele>
        <time>2023-05-16T10:19:10.465Z</time>
      </trkpt>
      <trkpt lat="44.8751" lon="5.70093">
        <ele>573.4</ele>
        <time>2023-05-16T10:19:17.951Z</time>
      </trkpt>
      <trkpt lat="44.87515" lon="5.70094">
        <ele>578.7</ele>
        <time>2023-05-16T10:19:27.401Z</time>
      </trkpt>
      <trkpt lat="44.87519" lon="5.70094">
        <ele>578</ele>
        <time>2023-05-16T10:19:28.649Z</time>
      </trkpt>
      <trkpt lat="44.87523" lon="5.70094">
        <ele>577.2</ele>
        <time>2023-05-16T10:19:29.896Z</time>
      </trkpt>
      <trkpt lat="44.87527" lon="5.70094">
        <ele>576.7</ele>
        <time>2023-05-16T10:19:31.144Z</time>
      </trkpt>
      <trkpt lat="44.87532" lon="5.70094">
        <ele>576.4</ele>
        <time>2023-05-16T10:19:32.703Z</time>
      </trkpt>
      <trkpt lat="44.87535" lon="5.70094">
        <ele>576.2</ele>
        <time>2023-05-16T10:19:33.639Z</time>
      </trkpt>
      <trkpt lat="44.87539" lon="5.70094">
        <ele>575.7</ele>
        <time>2023-05-16T10:19:34.887Z</time>
      </trkpt>
      <trkpt lat="44.87543" lon="5.70093">
        <ele>574.9</ele>
        <time>2023-05-16T10:19:36.154Z</time>
      </trkpt>
      <trkpt lat="44.87546" lon="5.70093">
        <ele>574.4</ele>
        <time>2023-05-16T10:19:37.089Z</time>
      </trkpt>
      <trkpt lat="44.87551" lon="5.70092">
        <ele>574.1</ele>
        <time>2023-05-16T10:19:38.664Z</time>
      </trkpt>
      <trkpt lat="44.87555" lon="5.70091">
        <ele>573.8</ele>
        <time>2023-05-16T10:19:39.932Z</time>
      </trkpt>
      <trkpt lat="44.87559" lon="5.7009">
        <ele>573.3</ele>
        <time>2023-05-16T10:19:41.199Z</time>
      </trkpt>
      <trkpt lat="44.87563" lon="5.7009">
        <ele>574.1</ele>
        <time>2023-05-16T10:19:44.065Z</time>
      </trkpt>
      <trkpt lat="44.87567" lon="5.70091">
        <ele>574.2</ele>
        <time>2023-05-16T10:19:45.629Z</time>
      </trkpt>
      <trkpt lat="44.8757" lon="5.70093">
        <ele>574.4</ele>
        <time>2023-05-16T10:19:47.063Z</time>
      </trkpt>
      <trkpt lat="44.87572" lon="5.70097">
        <ele>574.7</ele>
        <time>2023-05-16T10:19:48.701Z</time>
      </trkpt>
      <trkpt lat="44.8757" lon="5.70102">
        <ele>575</ele>
        <time>2023-05-16T10:19:50.540Z</time>
      </trkpt>
      <trkpt lat="44.87567" lon="5.70107">
        <ele>575.5</ele>
        <time>2023-05-16T10:19:52.900Z</time>
      </trkpt>
      <trkpt lat="44.87563" lon="5.70109">
        <ele>575.9</ele>
        <time>2023-05-16T10:19:54.958Z</time>
      </trkpt>
      <trkpt lat="44.87558" lon="5.70109">
        <ele>576.2</ele>
        <time>2023-05-16T10:19:57.118Z</time>
      </trkpt>
      <trkpt lat="44.87553" lon="5.70108">
        <ele>576.4</ele>
        <time>2023-05-16T10:19:59.157Z</time>
      </trkpt>
      <trkpt lat="44.87548" lon="5.70107">
        <ele>576.6</ele>
        <time>2023-05-16T10:20:01.197Z</time>
      </trkpt>
      <trkpt lat="44.87544" lon="5.70106">
        <ele>576.8</ele>
        <time>2023-05-16T10:20:02.890Z</time>
      </trkpt>
      <trkpt lat="44.8754" lon="5.70105">
        <ele>577.1</ele>
        <time>2023-05-16T10:20:04.727Z</time>
      </trkpt>
      <trkpt lat="44.87536" lon="5.70105">
        <ele>577.5</ele>
        <time>2023-05-16T10:20:06.706Z</time>
      </trkpt>
      <trkpt lat="44.87531" lon="5.70105">
        <ele>578.1</ele>
        <time>2023-05-16T10:20:09.361Z</time>
      </trkpt>
      <trkpt lat="44.87527" lon="5.70105">
        <ele>578.5</ele>
        <time>2023-05-16T10:20:11.340Z</time>
      </trkpt>
      <trkpt lat="44.87523" lon="5.70105">
        <ele>578.8</ele>
        <time>2023-05-16T10:20:13.157Z</time>
      </trkpt>
      <trkpt lat="44.87519" lon="5.70105">
        <ele>579</ele>
        <time>2023-05-16T10:20:14.828Z</time>
      </trkpt>
      <trkpt lat="44.87516" lon="5.70106">
        <ele>579.3</ele>
        <time>2023-05-16T10:20:16.339Z</time>
      </trkpt>
      <trkpt lat="44.87511" lon="5.70108">
        <ele>579.5</ele>
        <time>2023-05-16T10:20:18.430Z</time>
      </trkpt>
      <trkpt lat="44.87507" lon="5.70109">
        <ele>580.1</ele>
        <time>2023-05-16T10:20:20.816Z</time>
      </trkpt>
      <trkpt lat="44.87503" lon="5.7011">
        <ele>580.6</ele>
        <time>2023-05-16T10:20:22.997Z</time>
      </trkpt>
      <trkpt lat="44.875" lon="5.70111">
        <ele>581</ele>
        <time>2023-05-16T10:20:24.692Z</time>
      </trkpt>
      <trkpt lat="44.87497" lon="5.70112">
        <ele>581.2</ele>
        <time>2023-05-16T10:20:26.045Z</time>
      </trkpt>
      <trkpt lat="44.87494" lon="5.70113">
        <ele>581.4</ele>
        <time>2023-05-16T10:20:27.398Z</time>
      </trkpt>
      <trkpt lat="44.8749" lon="5.70114">
        <ele>581.6</ele>
        <time>2023-05-16T10:20:29.091Z</time>
      </trkpt>
      <trkpt lat="44.87486" lon="5.70114">
        <ele>581.8</ele>
        <time>2023-05-16T10:20:30.762Z</time>
      </trkpt>
      <trkpt lat="44.87483" lon="5.70115">
        <ele>582.1</ele>
        <time>2023-05-16T10:20:32.273Z</time>
      </trkpt>
      <trkpt lat="44.8748" lon="5.70116">
        <ele>582.4</ele>
        <time>2023-05-16T10:20:33.784Z</time>
      </trkpt>
      <trkpt lat="44.87477" lon="5.70117">
        <ele>582.8</ele>
        <time>2023-05-16T10:20:35.479Z</time>
      </trkpt>
      <trkpt lat="44.87472" lon="5.70119">
        <ele>583.3</ele>
        <time>2023-05-16T10:20:38.017Z</time>
      </trkpt>
      <trkpt lat="44.87467" lon="5.7012">
        <ele>583.6</ele>
        <time>2023-05-16T10:20:40.194Z</time>
      </trkpt>
      <trkpt lat="44.87462" lon="5.70121">
        <ele>583.8</ele>
        <time>2023-05-16T10:20:42.233Z</time>
      </trkpt>
      <trkpt lat="44.87457" lon="5.70123">
        <ele>584.2</ele>
        <time>2023-05-16T10:20:44.609Z</time>
      </trkpt>
      <trkpt lat="44.87454" lon="5.70124">
        <ele>584.6</ele>
        <time>2023-05-16T10:20:46.304Z</time>
      </trkpt>
      <trkpt lat="44.87449" lon="5.70125">
        <ele>585.2</ele>
        <time>2023-05-16T10:20:48.974Z</time>
      </trkpt>
      <trkpt lat="44.87445" lon="5.70126">
        <ele>585.8</ele>
        <time>2023-05-16T10:20:51.360Z</time>
      </trkpt>
      <trkpt lat="44.8744" lon="5.70127">
        <ele>586.1</ele>
        <time>2023-05-16T10:20:53.536Z</time>
      </trkpt>
      <trkpt lat="44.87436" lon="5.70129">
        <ele>586.5</ele>
        <time>2023-05-16T10:20:55.594Z</time>
      </trkpt>
      <trkpt lat="44.87432" lon="5.7013">
        <ele>586.8</ele>
        <time>2023-05-16T10:20:57.432Z</time>
      </trkpt>
      <trkpt lat="44.87428" lon="5.70131">
        <ele>587.4</ele>
        <time>2023-05-16T10:20:59.817Z</time>
      </trkpt>
      <trkpt lat="44.87424" lon="5.70133">
        <ele>587.9</ele>
        <time>2023-05-16T10:21:02.053Z</time>
      </trkpt>
      <trkpt lat="44.8742" lon="5.70134">
        <ele>588.4</ele>
        <time>2023-05-16T10:21:04.234Z</time>
      </trkpt>
      <trkpt lat="44.87415" lon="5.70134">
        <ele>588.8</ele>
        <time>2023-05-16T10:21:06.543Z</time>
      </trkpt>
      <trkpt lat="44.87411" lon="5.70135">
        <ele>589.1</ele>
        <time>2023-05-16T10:21:08.380Z</time>
      </trkpt>
      <trkpt lat="44.87407" lon="5.70136">
        <ele>589.4</ele>
        <time>2023-05-16T10:21:10.218Z</time>
      </trkpt>
      <trkpt lat="44.87403" lon="5.70138">
        <ele>589.9</ele>
        <time>2023-05-16T10:21:12.454Z</time>
      </trkpt>
      <trkpt lat="44.874" lon="5.7014">
        <ele>590.4</ele>
        <time>2023-05-16T10:21:14.424Z</time>
      </trkpt>
      <trkpt lat="44.87396" lon="5.70142">
        <ele>590.8</ele>
        <time>2023-05-16T10:21:16.482Z</time>
      </trkpt>
      <trkpt lat="44.87393" lon="5.70146">
        <ele>591.1</ele>
        <time>2023-05-16T10:21:18.341Z</time>
      </trkpt>
      <trkpt lat="44.8739" lon="5.70151">
        <ele>591.3</ele>
        <time>2023-05-16T10:21:20.238Z</time>
      </trkpt>
      <trkpt lat="44.87387" lon="5.70156">
        <ele>591.7</ele>
        <time>2023-05-16T10:21:22.428Z</time>
      </trkpt>
      <trkpt lat="44.87386" lon="5.7016">
        <ele>592</ele>
        <time>2023-05-16T10:21:23.914Z</time>
      </trkpt>
      <trkpt lat="44.87384" lon="5.70166">
        <ele>592.6</ele>
        <time>2023-05-16T10:21:26.479Z</time>
      </trkpt>
      <trkpt lat="44.87384" lon="5.70171">
        <ele>592.9</ele>
        <time>2023-05-16T10:21:28.141Z</time>
      </trkpt>
      <trkpt lat="44.87384" lon="5.70177">
        <ele>593.2</ele>
        <time>2023-05-16T10:21:30.043Z</time>
      </trkpt>
      <trkpt lat="44.87384" lon="5.70184">
        <ele>593.5</ele>
        <time>2023-05-16T10:21:32.189Z</time>
      </trkpt>
      <trkpt lat="44.87385" lon="5.70191">
        <ele>593.7</ele>
        <time>2023-05-16T10:21:34.232Z</time>
      </trkpt>
      <trkpt lat="44.87385" lon="5.70196">
        <ele>593.9</ele>
        <time>2023-05-16T10:21:35.744Z</time>
      </trkpt>
      <trkpt lat="44.87385" lon="5.70202">
        <ele>594.3</ele>
        <time>2023-05-16T10:21:37.805Z</time>
      </trkpt>
      <trkpt lat="44.87386" lon="5.70206">
        <ele>594.6</ele>
        <time>2023-05-16T10:21:39.291Z</time>
      </trkpt>
      <trkpt lat="44.87386" lon="5.7021">
        <ele>594.9</ele>
        <time>2023-05-16T10:21:40.723Z</time>
      </trkpt>
      <trkpt lat="44.87386" lon="5.70215">
        <ele>595.3</ele>
        <time>2023-05-16T10:21:42.557Z</time>
      </trkpt>
      <trkpt lat="44.87386" lon="5.7022">
        <ele>595.6</ele>
        <time>2023-05-16T10:21:44.220Z</time>
      </trkpt>
      <trkpt lat="44.87387" lon="5.70224">
        <ele>595.7</ele>
        <time>2023-05-16T10:21:45.410Z</time>
      </trkpt>
      <trkpt lat="44.87387" lon="5.70231">
        <ele>596</ele>
        <time>2023-05-16T10:21:47.555Z</time>
      </trkpt>
      <trkpt lat="44.87387" lon="5.70237">
        <ele>596.2</ele>
        <time>2023-05-16T10:21:49.314Z</time>
      </trkpt>
      <trkpt lat="44.87388" lon="5.70243">
        <ele>596.5</ele>
        <time>2023-05-16T10:21:51.256Z</time>
      </trkpt>
      <trkpt lat="44.87388" lon="5.70248">
        <ele>596.9</ele>
        <time>2023-05-16T10:21:53.090Z</time>
      </trkpt>
      <trkpt lat="44.87389" lon="5.70253">
        <ele>597.4</ele>
        <time>2023-05-16T10:21:55.160Z</time>
      </trkpt>
      <trkpt lat="44.8739" lon="5.70258">
        <ele>597.7</ele>
        <time>2023-05-16T10:21:56.869Z</time>
      </trkpt>
      <trkpt lat="44.87392" lon="5.70264">
        <ele>598.1</ele>
        <time>2023-05-16T10:21:59.077Z</time>
      </trkpt>
      <trkpt lat="44.87395" lon="5.70269">
        <ele>598.5</ele>
        <time>2023-05-16T10:22:01.267Z</time>
      </trkpt>
      <trkpt lat="44.87397" lon="5.70274">
        <ele>599</ele>
        <time>2023-05-16T10:22:03.450Z</time>
      </trkpt>
      <trkpt lat="44.874" lon="5.70279">
        <ele>599.6</ele>
        <time>2023-05-16T10:22:05.998Z</time>
      </trkpt>
      <trkpt lat="44.87404" lon="5.70283">
        <ele>600.1</ele>
        <time>2023-05-16T10:22:08.441Z</time>
      </trkpt>
      <trkpt lat="44.87407" lon="5.70287">
        <ele>600.3</ele>
        <time>2023-05-16T10:22:10.157Z</time>
      </trkpt>
      <trkpt lat="44.8741" lon="5.70292">
        <ele>600.5</ele>
        <time>2023-05-16T10:22:12.053Z</time>
      </trkpt>
      <trkpt lat="44.87414" lon="5.70296">
        <ele>600.7</ele>
        <time>2023-05-16T10:22:14.041Z</time>
      </trkpt>
      <trkpt lat="44.87417" lon="5.703">
        <ele>600.9</ele>
        <time>2023-05-16T10:22:15.757Z</time>
      </trkpt>
      <trkpt lat="44.8742" lon="5.70303">
        <ele>601.3</ele>
        <time>2023-05-16T10:22:17.633Z</time>
      </trkpt>
      <trkpt lat="44.87422" lon="5.70306">
        <ele>601.7</ele>
        <time>2023-05-16T10:22:19.281Z</time>
      </trkpt>
      <trkpt lat="44.87425" lon="5.70311">
        <ele>602.3</ele>
        <time>2023-05-16T10:22:21.830Z</time>
      </trkpt>
      <trkpt lat="44.87429" lon="5.70315">
        <ele>602.6</ele>
        <time>2023-05-16T10:22:23.955Z</time>
      </trkpt>
      <trkpt lat="44.87431" lon="5.70319">
        <ele>602.8</ele>
        <time>2023-05-16T10:22:25.441Z</time>
      </trkpt>
      <trkpt lat="44.87435" lon="5.70323">
        <ele>603</ele>
        <time>2023-05-16T10:22:27.429Z</time>
      </trkpt>
      <trkpt lat="44.87438" lon="5.70329">
        <ele>603.2</ele>
        <time>2023-05-16T10:22:29.523Z</time>
      </trkpt>
      <trkpt lat="44.87441" lon="5.70333">
        <ele>603.7</ele>
        <time>2023-05-16T10:22:31.724Z</time>
      </trkpt>
      <trkpt lat="44.87445" lon="5.70338">
        <ele>604.3</ele>
        <time>2023-05-16T10:22:34.484Z</time>
      </trkpt>
      <trkpt lat="44.87447" lon="5.70341">
        <ele>604.6</ele>
        <time>2023-05-16T10:22:35.943Z</time>
      </trkpt>
      <trkpt lat="44.8745" lon="5.70346">
        <ele>604.9</ele>
        <time>2023-05-16T10:22:37.978Z</time>
      </trkpt>
      <trkpt lat="44.87454" lon="5.7035">
        <ele>605.2</ele>
        <time>2023-05-16T10:22:40.104Z</time>
      </trkpt>
      <trkpt lat="44.87457" lon="5.70355">
        <ele>605.4</ele>
        <time>2023-05-16T10:22:42.000Z</time>
      </trkpt>
      <trkpt lat="44.8746" lon="5.7036">
        <ele>605.5</ele>
        <time>2023-05-16T10:22:43.770Z</time>
      </trkpt>
      <trkpt lat="44.87462" lon="5.70364">
        <ele>605.7</ele>
        <time>2023-05-16T10:22:45.257Z</time>
      </trkpt>
      <trkpt lat="44.87464" lon="5.70367">
        <ele>605.8</ele>
        <time>2023-05-16T10:22:46.415Z</time>
      </trkpt>
      <trkpt lat="44.87466" lon="5.70369">
        <ele>606.1</ele>
        <time>2023-05-16T10:22:47.728Z</time>
      </trkpt>
      <trkpt lat="44.8747" lon="5.70375">
        <ele>606.6</ele>
        <time>2023-05-16T10:22:50.477Z</time>
      </trkpt>
      <trkpt lat="44.87473" lon="5.7038">
        <ele>607.1</ele>
        <time>2023-05-16T10:22:52.837Z</time>
      </trkpt>
      <trkpt lat="44.87476" lon="5.70384">
        <ele>607.3</ele>
        <time>2023-05-16T10:22:54.552Z</time>
      </trkpt>
      <trkpt lat="44.87479" lon="5.70389">
        <ele>607.6</ele>
        <time>2023-05-16T10:22:56.588Z</time>
      </trkpt>
      <trkpt lat="44.87482" lon="5.70395">
        <ele>607.9</ele>
        <time>2023-05-16T10:22:58.818Z</time>
      </trkpt>
      <trkpt lat="44.87485" lon="5.704">
        <ele>608.1</ele>
        <time>2023-05-16T10:23:00.714Z</time>
      </trkpt>
      <trkpt lat="44.87488" lon="5.70404">
        <ele>608.3</ele>
        <time>2023-05-16T10:23:02.430Z</time>
      </trkpt>
      <trkpt lat="44.87489" lon="5.70407">
        <ele>608.7</ele>
        <time>2023-05-16T10:23:03.931Z</time>
      </trkpt>
      <trkpt lat="44.87493" lon="5.70412">
        <ele>609.3</ele>
        <time>2023-05-16T10:23:06.692Z</time>
      </trkpt>
      <trkpt lat="44.87496" lon="5.70417">
        <ele>609.7</ele>
        <time>2023-05-16T10:23:08.881Z</time>
      </trkpt>
      <trkpt lat="44.87499" lon="5.70421">
        <ele>609.9</ele>
        <time>2023-05-16T10:23:10.597Z</time>
      </trkpt>
      <trkpt lat="44.87501" lon="5.70426">
        <ele>610.1</ele>
        <time>2023-05-16T10:23:12.292Z</time>
      </trkpt>
      <trkpt lat="44.87504" lon="5.70431">
        <ele>610.3</ele>
        <time>2023-05-16T10:23:14.189Z</time>
      </trkpt>
      <trkpt lat="44.87507" lon="5.70436">
        <ele>610.7</ele>
        <time>2023-05-16T10:23:16.379Z</time>
      </trkpt>
      <trkpt lat="44.8751" lon="5.7044">
        <ele>611.2</ele>
        <time>2023-05-16T10:23:18.579Z</time>
      </trkpt>
      <trkpt lat="44.87512" lon="5.70444">
        <ele>611.6</ele>
        <time>2023-05-16T10:23:20.391Z</time>
      </trkpt>
      <trkpt lat="44.87513" lon="5.70447">
        <ele>611.8</ele>
        <time>2023-05-16T10:23:21.495Z</time>
      </trkpt>
      <trkpt lat="44.87516" lon="5.70453">
        <ele>612</ele>
        <time>2023-05-16T10:23:23.589Z</time>
      </trkpt>
      <trkpt lat="44.87519" lon="5.70458">
        <ele>612.3</ele>
        <time>2023-05-16T10:23:25.624Z</time>
      </trkpt>
      <trkpt lat="44.87522" lon="5.70462">
        <ele>612.5</ele>
        <time>2023-05-16T10:23:27.340Z</time>
      </trkpt>
      <trkpt lat="44.87523" lon="5.70465">
        <ele>612.6</ele>
        <time>2023-05-16T10:23:28.298Z</time>
      </trkpt>
      <trkpt lat="44.87526" lon="5.70471">
        <ele>612.8</ele>
        <time>2023-05-16T10:23:30.392Z</time>
      </trkpt>
      <trkpt lat="44.87528" lon="5.70477">
        <ele>613.1</ele>
        <time>2023-05-16T10:23:32.447Z</time>
      </trkpt>
      <trkpt lat="44.8753" lon="5.70482">
        <ele>613.6</ele>
        <time>2023-05-16T10:23:34.630Z</time>
      </trkpt>
      <trkpt lat="44.87531" lon="5.70488">
        <ele>614.2</ele>
        <time>2023-05-16T10:23:37.100Z</time>
      </trkpt>
      <trkpt lat="44.87533" lon="5.70493">
        <ele>614.4</ele>
        <time>2023-05-16T10:23:38.795Z</time>
      </trkpt>
      <trkpt lat="44.87535" lon="5.70499">
        <ele>614.6</ele>
        <time>2023-05-16T10:23:40.711Z</time>
      </trkpt>
      <trkpt lat="44.87537" lon="5.70505">
        <ele>614.8</ele>
        <time>2023-05-16T10:23:42.627Z</time>
      </trkpt>
      <trkpt lat="44.87537" lon="5.7051">
        <ele>615</ele>
        <time>2023-05-16T10:23:44.139Z</time>
      </trkpt>
      <trkpt lat="44.87539" lon="5.70515">
        <ele>615.3</ele>
        <time>2023-05-16T10:23:45.979Z</time>
      </trkpt>
      <trkpt lat="44.87541" lon="5.70521">
        <ele>615.8</ele>
        <time>2023-05-16T10:23:48.356Z</time>
      </trkpt>
      <trkpt lat="44.87542" lon="5.70526">
        <ele>616.3</ele>
        <time>2023-05-16T10:23:50.426Z</time>
      </trkpt>
      <trkpt lat="44.87544" lon="5.70533">
        <ele>616.7</ele>
        <time>2023-05-16T10:23:52.853Z</time>
      </trkpt>
      <trkpt lat="44.87545" lon="5.70537">
        <ele>616.9</ele>
        <time>2023-05-16T10:23:54.179Z</time>
      </trkpt>
      <trkpt lat="44.87547" lon="5.70543">
        <ele>617.2</ele>
        <time>2023-05-16T10:23:56.235Z</time>
      </trkpt>
      <trkpt lat="44.87549" lon="5.70549">
        <ele>617.4</ele>
        <time>2023-05-16T10:23:58.151Z</time>
      </trkpt>
      <trkpt lat="44.87551" lon="5.70555">
        <ele>617.6</ele>
        <time>2023-05-16T10:24:00.067Z</time>
      </trkpt>
      <trkpt lat="44.87552" lon="5.7056">
        <ele>617.9</ele>
        <time>2023-05-16T10:24:01.776Z</time>
      </trkpt>
      <trkpt lat="44.87554" lon="5.70565">
        <ele>618.4</ele>
        <time>2023-05-16T10:24:03.959Z</time>
      </trkpt>
      <trkpt lat="44.87556" lon="5.70571">
        <ele>619</ele>
        <time>2023-05-16T10:24:06.523Z</time>
      </trkpt>
      <trkpt lat="44.87558" lon="5.70578">
        <ele>619.4</ele>
        <time>2023-05-16T10:24:08.950Z</time>
      </trkpt>
      <trkpt lat="44.87559" lon="5.70583">
        <ele>619.6</ele>
        <time>2023-05-16T10:24:10.511Z</time>
      </trkpt>
      <trkpt lat="44.87561" lon="5.70588">
        <ele>619.9</ele>
        <time>2023-05-16T10:24:12.350Z</time>
      </trkpt>
      <trkpt lat="44.87562" lon="5.70592">
        <ele>620.1</ele>
        <time>2023-05-16T10:24:13.677Z</time>
      </trkpt>
      <trkpt lat="44.87563" lon="5.70596">
        <ele>620.2</ele>
        <time>2023-05-16T10:24:14.866Z</time>
      </trkpt>
      <trkpt lat="44.87566" lon="5.70602">
        <ele>620.8</ele>
        <time>2023-05-16T10:24:17.583Z</time>
      </trkpt>
      <trkpt lat="44.87568" lon="5.70608">
        <ele>621.4</ele>
        <time>2023-05-16T10:24:20.148Z</time>
      </trkpt>
      <trkpt lat="44.8757" lon="5.70613">
        <ele>621.9</ele>
        <time>2023-05-16T10:24:22.331Z</time>
      </trkpt>
      <trkpt lat="44.87572" lon="5.70617">
        <ele>622.2</ele>
        <time>2023-05-16T10:24:23.969Z</time>
      </trkpt>
      <trkpt lat="44.87573" lon="5.70621">
        <ele>622.4</ele>
        <time>2023-05-16T10:24:25.296Z</time>
      </trkpt>
      <trkpt lat="44.87574" lon="5.70625">
        <ele>622.6</ele>
        <time>2023-05-16T10:24:26.622Z</time>
      </trkpt>
      <trkpt lat="44.87575" lon="5.70631">
        <ele>623.2</ele>
        <time>2023-05-16T10:24:29.092Z</time>
      </trkpt>
      <trkpt lat="44.87576" lon="5.70638">
        <ele>623.7</ele>
        <time>2023-05-16T10:24:31.585Z</time>
      </trkpt>
      <trkpt lat="44.87576" lon="5.70645">
        <ele>624.1</ele>
        <time>2023-05-16T10:24:33.881Z</time>
      </trkpt>
      <trkpt lat="44.87575" lon="5.70651">
        <ele>624.3</ele>
        <time>2023-05-16T10:24:35.681Z</time>
      </trkpt>
      <trkpt lat="44.87575" lon="5.70655">
        <ele>624.4</ele>
        <time>2023-05-16T10:24:36.810Z</time>
      </trkpt>
      <trkpt lat="44.87574" lon="5.70659">
        <ele>624.5</ele>
        <time>2023-05-16T10:24:37.999Z</time>
      </trkpt>
      <trkpt lat="44.87573" lon="5.70663">
        <ele>624.6</ele>
        <time>2023-05-16T10:24:39.189Z</time>
      </trkpt>
      <trkpt lat="44.87572" lon="5.70666">
        <ele>624.7</ele>
        <time>2023-05-16T10:24:40.147Z</time>
      </trkpt>
      <trkpt lat="44.87571" lon="5.7067">
        <ele>624.9</ele>
        <time>2023-05-16T10:24:41.473Z</time>
      </trkpt>
      <trkpt lat="44.87569" lon="5.70674">
        <ele>625.1</ele>
        <time>2023-05-16T10:24:42.960Z</time>
      </trkpt>
      <trkpt lat="44.87568" lon="5.70678">
        <ele>625.4</ele>
        <time>2023-05-16T10:24:44.446Z</time>
      </trkpt>
      <trkpt lat="44.87566" lon="5.70683">
        <ele>625.9</ele>
        <time>2023-05-16T10:24:46.629Z</time>
      </trkpt>
      <trkpt lat="44.87563" lon="5.70688">
        <ele>626.3</ele>
        <time>2023-05-16T10:24:48.819Z</time>
      </trkpt>
      <trkpt lat="44.87562" lon="5.70694">
        <ele>626.6</ele>
        <time>2023-05-16T10:24:50.760Z</time>
      </trkpt>
      <trkpt lat="44.8756" lon="5.70699">
        <ele>626.8</ele>
        <time>2023-05-16T10:24:52.455Z</time>
      </trkpt>
      <trkpt lat="44.87558" lon="5.70705">
        <ele>626.9</ele>
        <time>2023-05-16T10:24:54.245Z</time>
      </trkpt>
      <trkpt lat="44.87556" lon="5.7071">
        <ele>627.1</ele>
        <time>2023-05-16T10:24:55.940Z</time>
      </trkpt>
      <trkpt lat="44.87554" lon="5.70716">
        <ele>627.2</ele>
        <time>2023-05-16T10:24:57.730Z</time>
      </trkpt>
      <trkpt lat="44.87553" lon="5.70722">
        <ele>627.4</ele>
        <time>2023-05-16T10:24:59.530Z</time>
      </trkpt>
      <trkpt lat="44.87551" lon="5.70727">
        <ele>627.8</ele>
        <time>2023-05-16T10:25:01.532Z</time>
      </trkpt>
      <trkpt lat="44.87549" lon="5.70732">
        <ele>628.3</ele>
        <time>2023-05-16T10:25:03.714Z</time>
      </trkpt>
      <trkpt lat="44.87548" lon="5.70738">
        <ele>628.8</ele>
        <time>2023-05-16T10:25:05.988Z</time>
      </trkpt>
      <trkpt lat="44.87546" lon="5.70743">
        <ele>629.1</ele>
        <time>2023-05-16T10:25:07.828Z</time>
      </trkpt>
      <trkpt lat="44.87545" lon="5.70748">
        <ele>629.3</ele>
        <time>2023-05-16T10:25:09.388Z</time>
      </trkpt>
      <trkpt lat="44.87543" lon="5.70754">
        <ele>629.6</ele>
        <time>2023-05-16T10:25:11.443Z</time>
      </trkpt>
      <trkpt lat="44.87542" lon="5.70759">
        <ele>629.9</ele>
        <time>2023-05-16T10:25:13.152Z</time>
      </trkpt>
      <trkpt lat="44.8754" lon="5.70765">
        <ele>630.4</ele>
        <time>2023-05-16T10:25:15.530Z</time>
      </trkpt>
      <trkpt lat="44.87539" lon="5.70769">
        <ele>630.8</ele>
        <time>2023-05-16T10:25:17.203Z</time>
      </trkpt>
      <trkpt lat="44.87538" lon="5.70774">
        <ele>631.3</ele>
        <time>2023-05-16T10:25:19.273Z</time>
      </trkpt>
      <trkpt lat="44.87536" lon="5.7078">
        <ele>631.7</ele>
        <time>2023-05-16T10:25:21.481Z</time>
      </trkpt>
      <trkpt lat="44.87535" lon="5.70787">
        <ele>631.9</ele>
        <time>2023-05-16T10:25:23.524Z</time>
      </trkpt>
      <trkpt lat="44.87535" lon="5.70793">
        <ele>632.2</ele>
        <time>2023-05-16T10:25:25.426Z</time>
      </trkpt>
      <trkpt lat="44.87534" lon="5.708">
        <ele>632.6</ele>
        <time>2023-05-16T10:25:27.756Z</time>
      </trkpt>
      <trkpt lat="44.87534" lon="5.70806">
        <ele>633.1</ele>
        <time>2023-05-16T10:25:29.994Z</time>
      </trkpt>
      <trkpt lat="44.87534" lon="5.7081">
        <ele>633.4</ele>
        <time>2023-05-16T10:25:31.425Z</time>
      </trkpt>
      <trkpt lat="44.87534" lon="5.70816">
        <ele>633.6</ele>
        <time>2023-05-16T10:25:33.185Z</time>
      </trkpt>
      <trkpt lat="44.87534" lon="5.70823">
        <ele>633.7</ele>
        <time>2023-05-16T10:25:35.068Z</time>
      </trkpt>
      <trkpt lat="44.87533" lon="5.70827">
        <ele>633.8</ele>
        <time>2023-05-16T10:25:36.257Z</time>
      </trkpt>
      <trkpt lat="44.87533" lon="5.70831">
        <ele>633.9</ele>
        <time>2023-05-16T10:25:37.386Z</time>
      </trkpt>
      <trkpt lat="44.87533" lon="5.70835">
        <ele>634</ele>
        <time>2023-05-16T10:25:38.515Z</time>
      </trkpt>
      <trkpt lat="44.87533" lon="5.70842">
        <ele>634.2</ele>
        <time>2023-05-16T10:25:40.523Z</time>
      </trkpt>
      <trkpt lat="44.87532" lon="5.70848">
        <ele>634.3</ele>
        <time>2023-05-16T10:25:42.196Z</time>
      </trkpt>
      <trkpt lat="44.87532" lon="5.70855">
        <ele>634.5</ele>
        <time>2023-05-16T10:25:44.204Z</time>
      </trkpt>
      <trkpt lat="44.87532" lon="5.70861">
        <ele>634.6</ele>
        <time>2023-05-16T10:25:45.835Z</time>
      </trkpt>
      <trkpt lat="44.87531" lon="5.70867">
        <ele>634.8</ele>
        <time>2023-05-16T10:25:47.635Z</time>
      </trkpt>
      <trkpt lat="44.8753" lon="5.70874">
        <ele>634.9</ele>
        <time>2023-05-16T10:25:49.554Z</time>
      </trkpt>
      <trkpt lat="44.8753" lon="5.70879">
        <ele>635.1</ele>
        <time>2023-05-16T10:25:51.066Z</time>
      </trkpt>
      <trkpt lat="44.8753" lon="5.70886">
        <ele>635.2</ele>
        <time>2023-05-16T10:25:52.949Z</time>
      </trkpt>
      <trkpt lat="44.8753" lon="5.70893">
        <ele>635.4</ele>
        <time>2023-05-16T10:25:54.957Z</time>
      </trkpt>
      <trkpt lat="44.87529" lon="5.709">
        <ele>635.6</ele>
        <time>2023-05-16T10:25:57.000Z</time>
      </trkpt>
      <trkpt lat="44.87528" lon="5.70906">
        <ele>635.8</ele>
        <time>2023-05-16T10:25:58.800Z</time>
      </trkpt>
      <trkpt lat="44.87527" lon="5.70912">
        <ele>636</ele>
        <time>2023-05-16T10:26:00.600Z</time>
      </trkpt>
      <trkpt lat="44.87526" lon="5.70919">
        <ele>636.2</ele>
        <time>2023-05-16T10:26:02.643Z</time>
      </trkpt>
      <trkpt lat="44.87524" lon="5.70924">
        <ele>636.4</ele>
        <time>2023-05-16T10:26:04.339Z</time>
      </trkpt>
      <trkpt lat="44.87523" lon="5.70929">
        <ele>636.6</ele>
        <time>2023-05-16T10:26:05.899Z</time>
      </trkpt>
      <trkpt lat="44.87521" lon="5.70932">
        <ele>636.7</ele>
        <time>2023-05-16T10:26:07.058Z</time>
      </trkpt>
      <trkpt lat="44.87518" lon="5.70935">
        <ele>636.8</ele>
        <time>2023-05-16T10:26:08.485Z</time>
      </trkpt>
      <trkpt lat="44.87515" lon="5.70939">
        <ele>636.9</ele>
        <time>2023-05-16T10:26:10.072Z</time>
      </trkpt>
      <trkpt lat="44.87512" lon="5.70943">
        <ele>637</ele>
        <time>2023-05-16T10:26:11.659Z</time>
      </trkpt>
      <trkpt lat="44.87508" lon="5.70946">
        <ele>637.2</ele>
        <time>2023-05-16T10:26:13.516Z</time>
      </trkpt>
      <trkpt lat="44.87504" lon="5.70949">
        <ele>637.3</ele>
        <time>2023-05-16T10:26:15.245Z</time>
      </trkpt>
      <trkpt lat="44.87499" lon="5.70953">
        <ele>637.5</ele>
        <time>2023-05-16T10:26:17.531Z</time>
      </trkpt>
      <trkpt lat="44.87496" lon="5.70955">
        <ele>637.6</ele>
        <time>2023-05-16T10:26:18.831Z</time>
      </trkpt>
      <trkpt lat="44.87493" lon="5.70959">
        <ele>637.7</ele>
        <time>2023-05-16T10:26:20.418Z</time>
      </trkpt>
      <trkpt lat="44.87488" lon="5.70963">
        <ele>637.9</ele>
        <time>2023-05-16T10:26:22.704Z</time>
      </trkpt>
      <trkpt lat="44.87484" lon="5.70967">
        <ele>638</ele>
        <time>2023-05-16T10:26:24.566Z</time>
      </trkpt>
      <trkpt lat="44.87482" lon="5.70969">
        <ele>638.1</ele>
        <time>2023-05-16T10:26:25.560Z</time>
      </trkpt>
      <trkpt lat="44.87478" lon="5.70971">
        <ele>638.1</ele>
        <time>2023-05-16T10:26:27.073Z</time>
      </trkpt>
      <trkpt lat="44.87475" lon="5.70974">
        <ele>638.2</ele>
        <time>2023-05-16T10:26:28.500Z</time>
      </trkpt>
      <trkpt lat="44.87472" lon="5.70976">
        <ele>638.2</ele>
        <time>2023-05-16T10:26:29.683Z</time>
      </trkpt>
      <trkpt lat="44.8747" lon="5.70978">
        <ele>638.3</ele>
        <time>2023-05-16T10:26:30.677Z</time>
      </trkpt>
      <trkpt lat="44.87467" lon="5.70981">
        <ele>638.4</ele>
        <time>2023-05-16T10:26:32.104Z</time>
      </trkpt>
      <trkpt lat="44.87464" lon="5.70984">
        <ele>638.4</ele>
        <time>2023-05-16T10:26:33.414Z</time>
      </trkpt>
      <trkpt lat="44.87462" lon="5.70987">
        <ele>638.5</ele>
        <time>2023-05-16T10:26:34.573Z</time>
      </trkpt>
      <trkpt lat="44.87459" lon="5.70989">
        <ele>638.5</ele>
        <time>2023-05-16T10:26:35.756Z</time>
      </trkpt>
      <trkpt lat="44.87456" lon="5.70991">
        <ele>638.5</ele>
        <time>2023-05-16T10:26:36.939Z</time>
      </trkpt>
      <trkpt lat="44.87454" lon="5.70993">
        <ele>638.6</ele>
        <time>2023-05-16T10:26:37.932Z</time>
      </trkpt>
      <trkpt lat="44.87451" lon="5.70995">
        <ele>638.6</ele>
        <time>2023-05-16T10:26:39.115Z</time>
      </trkpt>
      <trkpt lat="44.87448" lon="5.70997">
        <ele>638.6</ele>
        <time>2023-05-16T10:26:40.298Z</time>
      </trkpt>
      <trkpt lat="44.87446" lon="5.70999">
        <ele>638.6</ele>
        <time>2023-05-16T10:26:41.172Z</time>
      </trkpt>
      <trkpt lat="44.87443" lon="5.71001">
        <ele>638.5</ele>
        <time>2023-05-16T10:26:42.251Z</time>
      </trkpt>
      <trkpt lat="44.87441" lon="5.71003">
        <ele>638.5</ele>
        <time>2023-05-16T10:26:43.125Z</time>
      </trkpt>
      <trkpt lat="44.87439" lon="5.71005">
        <ele>638.5</ele>
        <time>2023-05-16T10:26:43.999Z</time>
      </trkpt>
      <trkpt lat="44.87437" lon="5.7101">
        <ele>638.5</ele>
        <time>2023-05-16T10:26:45.449Z</time>
      </trkpt>
      <trkpt lat="44.87437" lon="5.71015">
        <ele>638.4</ele>
        <time>2023-05-16T10:26:46.609Z</time>
      </trkpt>
      <trkpt lat="44.87441" lon="5.71018">
        <ele>638.5</ele>
        <time>2023-05-16T10:26:48.339Z</time>
      </trkpt>
      <trkpt lat="44.87446" lon="5.71021">
        <ele>638.5</ele>
        <time>2023-05-16T10:26:50.276Z</time>
      </trkpt>
      <trkpt lat="44.87449" lon="5.71023">
        <ele>638.6</ele>
        <time>2023-05-16T10:26:51.575Z</time>
      </trkpt>
      <trkpt lat="44.87453" lon="5.71021">
        <ele>638.7</ele>
        <time>2023-05-16T10:26:53.204Z</time>
      </trkpt>
      <trkpt lat="44.87457" lon="5.71018">
        <ele>638.8</ele>
        <time>2023-05-16T10:26:54.934Z</time>
      </trkpt>
      <trkpt lat="44.87462" lon="5.71015">
        <ele>638.9</ele>
        <time>2023-05-16T10:26:56.985Z</time>
      </trkpt>
      <trkpt lat="44.87467" lon="5.71013">
        <ele>639</ele>
        <time>2023-05-16T10:26:58.951Z</time>
      </trkpt>
      <trkpt lat="44.87469" lon="5.71007">
        <ele>639.1</ele>
        <time>2023-05-16T10:27:00.741Z</time>
      </trkpt>
      <trkpt lat="44.87472" lon="5.71001">
        <ele>639.2</ele>
        <time>2023-05-16T10:27:02.711Z</time>
      </trkpt>
      <trkpt lat="44.87475" lon="5.70997">
        <ele>639.2</ele>
        <time>2023-05-16T10:27:04.182Z</time>
      </trkpt>
      <trkpt lat="44.87478" lon="5.70994">
        <ele>639.3</ele>
        <time>2023-05-16T10:27:05.609Z</time>
      </trkpt>
      <trkpt lat="44.87482" lon="5.7099">
        <ele>639.4</ele>
        <time>2023-05-16T10:27:07.471Z</time>
      </trkpt>
      <trkpt lat="44.87486" lon="5.70988">
        <ele>639.5</ele>
        <time>2023-05-16T10:27:09.100Z</time>
      </trkpt>
      <trkpt lat="44.8749" lon="5.70987">
        <ele>639.6</ele>
        <time>2023-05-16T10:27:10.663Z</time>
      </trkpt>
      <trkpt lat="44.87493" lon="5.70985">
        <ele>639.6</ele>
        <time>2023-05-16T10:27:11.846Z</time>
      </trkpt>
      <trkpt lat="44.87497" lon="5.70985">
        <ele>639.7</ele>
        <time>2023-05-16T10:27:13.388Z</time>
      </trkpt>
      <trkpt lat="44.87502" lon="5.70984">
        <ele>639.8</ele>
        <time>2023-05-16T10:27:15.303Z</time>
      </trkpt>
      <trkpt lat="44.87506" lon="5.70981">
        <ele>639.9</ele>
        <time>2023-05-16T10:27:17.032Z</time>
      </trkpt>
      <trkpt lat="44.87508" lon="5.70979">
        <ele>639.9</ele>
        <time>2023-05-16T10:27:17.906Z</time>
      </trkpt>
      <trkpt lat="44.87512" lon="5.70977">
        <ele>640</ele>
        <time>2023-05-16T10:27:19.534Z</time>
      </trkpt>
      <trkpt lat="44.87517" lon="5.70974">
        <ele>640.3</ele>
        <time>2023-05-16T10:27:21.844Z</time>
      </trkpt>
      <trkpt lat="44.87522" lon="5.70971">
        <ele>640.6</ele>
        <time>2023-05-16T10:27:24.153Z</time>
      </trkpt>
      <trkpt lat="44.87526" lon="5.70968">
        <ele>640.9</ele>
        <time>2023-05-16T10:27:26.150Z</time>
      </trkpt>
      <trkpt lat="44.87531" lon="5.70965">
        <ele>641.3</ele>
        <time>2023-05-16T10:27:28.606Z</time>
      </trkpt>
      <trkpt lat="44.87536" lon="5.70963">
        <ele>641.6</ele>
        <time>2023-05-16T10:27:30.833Z</time>
      </trkpt>
      <trkpt lat="44.8754" lon="5.70961">
        <ele>641.9</ele>
        <time>2023-05-16T10:27:32.732Z</time>
      </trkpt>
      <trkpt lat="44.87544" lon="5.70958">
        <ele>642.2</ele>
        <time>2023-05-16T10:27:34.729Z</time>
      </trkpt>
      <trkpt lat="44.87548" lon="5.70956">
        <ele>642.5</ele>
        <time>2023-05-16T10:27:36.628Z</time>
      </trkpt>
      <trkpt lat="44.87552" lon="5.70953">
        <ele>642.8</ele>
        <time>2023-05-16T10:27:38.625Z</time>
      </trkpt>
      <trkpt lat="44.87557" lon="5.70951">
        <ele>643.1</ele>
        <time>2023-05-16T10:27:40.853Z</time>
      </trkpt>
      <trkpt lat="44.87562" lon="5.70948">
        <ele>643.5</ele>
        <time>2023-05-16T10:27:43.308Z</time>
      </trkpt>
      <trkpt lat="44.87566" lon="5.70946">
        <ele>643.8</ele>
        <time>2023-05-16T10:27:45.207Z</time>
      </trkpt>
      <trkpt lat="44.87571" lon="5.70944">
        <ele>644.2</ele>
        <time>2023-05-16T10:27:47.583Z</time>
      </trkpt>
      <trkpt lat="44.87575" lon="5.70942">
        <ele>644.5</ele>
        <time>2023-05-16T10:27:49.482Z</time>
      </trkpt>
      <trkpt lat="44.87579" lon="5.70939">
        <ele>644.8</ele>
        <time>2023-05-16T10:27:51.479Z</time>
      </trkpt>
      <trkpt lat="44.87583" lon="5.70937">
        <ele>645.2</ele>
        <time>2023-05-16T10:27:53.537Z</time>
      </trkpt>
      <trkpt lat="44.87586" lon="5.70936">
        <ele>645.4</ele>
        <time>2023-05-16T10:27:54.890Z</time>
      </trkpt>
      <trkpt lat="44.87589" lon="5.70934">
        <ele>645.7</ele>
        <time>2023-05-16T10:27:56.478Z</time>
      </trkpt>
      <trkpt lat="44.87592" lon="5.70932">
        <ele>645.9</ele>
        <time>2023-05-16T10:27:57.912Z</time>
      </trkpt>
      <trkpt lat="44.87594" lon="5.7093">
        <ele>646.2</ele>
        <time>2023-05-16T10:27:59.225Z</time>
      </trkpt>
      <trkpt lat="44.87597" lon="5.70929">
        <ele>646.5</ele>
        <time>2023-05-16T10:28:00.736Z</time>
      </trkpt>
      <trkpt lat="44.876" lon="5.70928">
        <ele>646.8</ele>
        <time>2023-05-16T10:28:02.247Z</time>
      </trkpt>
      <trkpt lat="44.87605" lon="5.70925">
        <ele>647.2</ele>
        <time>2023-05-16T10:28:04.702Z</time>
      </trkpt>
      <trkpt lat="44.87608" lon="5.70924">
        <ele>647.6</ele>
        <time>2023-05-16T10:28:06.398Z</time>
      </trkpt>
      <trkpt lat="44.87613" lon="5.70921">
        <ele>648.1</ele>
        <time>2023-05-16T10:28:09.013Z</time>
      </trkpt>
      <trkpt lat="44.87615" lon="5.70919">
        <ele>648.4</ele>
        <time>2023-05-16T10:28:10.325Z</time>
      </trkpt>
      <trkpt lat="44.87619" lon="5.70917">
        <ele>648.8</ele>
        <time>2023-05-16T10:28:12.383Z</time>
      </trkpt>
      <trkpt lat="44.87624" lon="5.70913">
        <ele>649.4</ele>
        <time>2023-05-16T10:28:15.271Z</time>
      </trkpt>
      <trkpt lat="44.87627" lon="5.70911">
        <ele>649.7</ele>
        <time>2023-05-16T10:28:16.859Z</time>
      </trkpt>
      <trkpt lat="44.87629" lon="5.70909">
        <ele>650</ele>
        <time>2023-05-16T10:28:18.172Z</time>
      </trkpt>
      <trkpt lat="44.87633" lon="5.70904">
        <ele>650.5</ele>
        <time>2023-05-16T10:28:20.757Z</time>
      </trkpt>
      <trkpt lat="44.87636" lon="5.70898">
        <ele>651</ele>
        <time>2023-05-16T10:28:23.297Z</time>
      </trkpt>
      <trkpt lat="44.87639" lon="5.70894">
        <ele>651.4</ele>
        <time>2023-05-16T10:28:25.317Z</time>
      </trkpt>
      <trkpt lat="44.87642" lon="5.7089">
        <ele>651.7</ele>
        <time>2023-05-16T10:28:27.177Z</time>
      </trkpt>
      <trkpt lat="44.87644" lon="5.70887">
        <ele>652</ele>
        <time>2023-05-16T10:28:28.635Z</time>
      </trkpt>
      <trkpt lat="44.87646" lon="5.70884">
        <ele>652.2</ele>
        <time>2023-05-16T10:28:29.932Z</time>
      </trkpt>
      <trkpt lat="44.87649" lon="5.7088">
        <ele>652.6</ele>
        <time>2023-05-16T10:28:31.952Z</time>
      </trkpt>
      <trkpt lat="44.87651" lon="5.70877">
        <ele>652.8</ele>
        <time>2023-05-16T10:28:33.249Z</time>
      </trkpt>
      <trkpt lat="44.87653" lon="5.70874">
        <ele>653</ele>
        <time>2023-05-16T10:28:34.546Z</time>
      </trkpt>
      <trkpt lat="44.87655" lon="5.70871">
        <ele>653.2</ele>
        <time>2023-05-16T10:28:35.842Z</time>
      </trkpt>
      <trkpt lat="44.87657" lon="5.70868">
        <ele>653.5</ele>
        <time>2023-05-16T10:28:37.301Z</time>
      </trkpt>
      <trkpt lat="44.87659" lon="5.70865">
        <ele>653.6</ele>
        <time>2023-05-16T10:28:38.459Z</time>
      </trkpt>
      <trkpt lat="44.87662" lon="5.7086">
        <ele>654</ele>
        <time>2023-05-16T10:28:40.649Z</time>
      </trkpt>
      <trkpt lat="44.87666" lon="5.70855">
        <ele>654.3</ele>
        <time>2023-05-16T10:28:42.927Z</time>
      </trkpt>
      <trkpt lat="44.87668" lon="5.70852">
        <ele>654.5</ele>
        <time>2023-05-16T10:28:44.224Z</time>
      </trkpt>
      <trkpt lat="44.8767" lon="5.70849">
        <ele>654.7</ele>
        <time>2023-05-16T10:28:45.521Z</time>
      </trkpt>
      <trkpt lat="44.87672" lon="5.70845">
        <ele>654.9</ele>
        <time>2023-05-16T10:28:47.007Z</time>
      </trkpt>
      <trkpt lat="44.87673" lon="5.70841">
        <ele>655.1</ele>
        <time>2023-05-16T10:28:48.334Z</time>
      </trkpt>
      <trkpt lat="44.87675" lon="5.70837">
        <ele>655.4</ele>
        <time>2023-05-16T10:28:49.972Z</time>
      </trkpt>
      <trkpt lat="44.87676" lon="5.70833">
        <ele>655.6</ele>
        <time>2023-05-16T10:28:51.298Z</time>
      </trkpt>
      <trkpt lat="44.87678" lon="5.70829">
        <ele>655.8</ele>
        <time>2023-05-16T10:28:52.784Z</time>
      </trkpt>
      <trkpt lat="44.87679" lon="5.70825">
        <ele>656</ele>
        <time>2023-05-16T10:28:54.111Z</time>
      </trkpt>
      <trkpt lat="44.8768" lon="5.70821">
        <ele>656.2</ele>
        <time>2023-05-16T10:28:55.437Z</time>
      </trkpt>
      <trkpt lat="44.87681" lon="5.70817">
        <ele>656.4</ele>
        <time>2023-05-16T10:28:56.764Z</time>
      </trkpt>
      <trkpt lat="44.87682" lon="5.7081">
        <ele>656.8</ele>
        <time>2023-05-16T10:28:59.093Z</time>
      </trkpt>
      <trkpt lat="44.87684" lon="5.70803">
        <ele>657.2</ele>
        <time>2023-05-16T10:29:01.520Z</time>
      </trkpt>
      <trkpt lat="44.87684" lon="5.70799">
        <ele>657.4</ele>
        <time>2023-05-16T10:29:02.788Z</time>
      </trkpt>
      <trkpt lat="44.87684" lon="5.70793">
        <ele>657.7</ele>
        <time>2023-05-16T10:29:04.690Z</time>
      </trkpt>
      <trkpt lat="44.87685" lon="5.70788">
        <ele>658</ele>
        <time>2023-05-16T10:29:06.399Z</time>
      </trkpt>
      <trkpt lat="44.87685" lon="5.70783">
        <ele>658.3</ele>
        <time>2023-05-16T10:29:08.062Z</time>
      </trkpt>
      <trkpt lat="44.87685" lon="5.70778">
        <ele>658.5</ele>
        <time>2023-05-16T10:29:09.574Z</time>
      </trkpt>
      <trkpt lat="44.87685" lon="5.70774">
        <ele>658.8</ele>
        <time>2023-05-16T10:29:11.005Z</time>
      </trkpt>
      <trkpt lat="44.87685" lon="5.7077">
        <ele>659</ele>
        <time>2023-05-16T10:29:12.273Z</time>
      </trkpt>
      <trkpt lat="44.87684" lon="5.70763">
        <ele>659.4</ele>
        <time>2023-05-16T10:29:14.602Z</time>
      </trkpt>
      <trkpt lat="44.87683" lon="5.70759">
        <ele>659.7</ele>
        <time>2023-05-16T10:29:16.088Z</time>
      </trkpt>
      <trkpt lat="44.87682" lon="5.70755">
        <ele>659.9</ele>
        <time>2023-05-16T10:29:17.415Z</time>
      </trkpt>
      <trkpt lat="44.87682" lon="5.70751">
        <ele>660.1</ele>
        <time>2023-05-16T10:29:18.683Z</time>
      </trkpt>
      <trkpt lat="44.87682" lon="5.70747">
        <ele>660.4</ele>
        <time>2023-05-16T10:29:20.114Z</time>
      </trkpt>
      <trkpt lat="44.87681" lon="5.70739">
        <ele>660.8</ele>
        <time>2023-05-16T10:29:22.680Z</time>
      </trkpt>
      <trkpt lat="44.87681" lon="5.70735">
        <ele>661.1</ele>
        <time>2023-05-16T10:29:24.111Z</time>
      </trkpt>
      <trkpt lat="44.87681" lon="5.70731">
        <ele>661.3</ele>
        <time>2023-05-16T10:29:25.379Z</time>
      </trkpt>
      <trkpt lat="44.87681" lon="5.70727">
        <ele>661.5</ele>
        <time>2023-05-16T10:29:26.647Z</time>
      </trkpt>
      <trkpt lat="44.87682" lon="5.70722">
        <ele>661.9</ele>
        <time>2023-05-16T10:29:28.525Z</time>
      </trkpt>
      <trkpt lat="44.87684" lon="5.70716">
        <ele>662.3</ele>
        <time>2023-05-16T10:29:30.733Z</time>
      </trkpt>
      <trkpt lat="44.87685" lon="5.70712">
        <ele>662.5</ele>
        <time>2023-05-16T10:29:32.060Z</time>
      </trkpt>
      <trkpt lat="44.87688" lon="5.70706">
        <ele>663</ele>
        <time>2023-05-16T10:29:34.600Z</time>
      </trkpt>
      <trkpt lat="44.8769" lon="5.70702">
        <ele>663.2</ele>
        <time>2023-05-16T10:29:36.086Z</time>
      </trkpt>
      <trkpt lat="44.87692" lon="5.70699">
        <ele>663.5</ele>
        <time>2023-05-16T10:29:37.544Z</time>
      </trkpt>
      <trkpt lat="44.87694" lon="5.70695">
        <ele>663.7</ele>
        <time>2023-05-16T10:29:39.031Z</time>
      </trkpt>
      <trkpt lat="44.87695" lon="5.70693">
        <ele>663.9</ele>
        <time>2023-05-16T10:29:39.936Z</time>
      </trkpt>
      <trkpt lat="44.87699" lon="5.70688">
        <ele>664.3</ele>
        <time>2023-05-16T10:29:42.361Z</time>
      </trkpt>
      <trkpt lat="44.87702" lon="5.70683">
        <ele>664.7</ele>
        <time>2023-05-16T10:29:44.551Z</time>
      </trkpt>
      <trkpt lat="44.87706" lon="5.70678">
        <ele>665.1</ele>
        <time>2023-05-16T10:29:46.976Z</time>
      </trkpt>
      <trkpt lat="44.87707" lon="5.70675">
        <ele>665.3</ele>
        <time>2023-05-16T10:29:48.080Z</time>
      </trkpt>
      <trkpt lat="44.8771" lon="5.7067">
        <ele>665.6</ele>
        <time>2023-05-16T10:29:50.116Z</time>
      </trkpt>
      <trkpt lat="44.87712" lon="5.70667">
        <ele>665.8</ele>
        <time>2023-05-16T10:29:51.413Z</time>
      </trkpt>
      <trkpt lat="44.87714" lon="5.70664">
        <ele>666</ele>
        <time>2023-05-16T10:29:52.710Z</time>
      </trkpt>
      <trkpt lat="44.87715" lon="5.7066">
        <ele>666.2</ele>
        <time>2023-05-16T10:29:54.036Z</time>
      </trkpt>
      <trkpt lat="44.87716" lon="5.70656">
        <ele>666.4</ele>
        <time>2023-05-16T10:29:55.363Z</time>
      </trkpt>
      <trkpt lat="44.87717" lon="5.70652">
        <ele>666.6</ele>
        <time>2023-05-16T10:29:56.689Z</time>
      </trkpt>
      <trkpt lat="44.87718" lon="5.70647">
        <ele>666.8</ele>
        <time>2023-05-16T10:29:58.249Z</time>
      </trkpt>
      <trkpt lat="44.87719" lon="5.70642">
        <ele>667</ele>
        <time>2023-05-16T10:29:59.810Z</time>
      </trkpt>
      <trkpt lat="44.87719" lon="5.70638">
        <ele>667.1</ele>
        <time>2023-05-16T10:30:00.939Z</time>
      </trkpt>
      <trkpt lat="44.8772" lon="5.70631">
        <ele>667.4</ele>
        <time>2023-05-16T10:30:03.118Z</time>
      </trkpt>
      <trkpt lat="44.8772" lon="5.70626">
        <ele>667.6</ele>
        <time>2023-05-16T10:30:04.631Z</time>
      </trkpt>
      <trkpt lat="44.87719" lon="5.70622">
        <ele>667.7</ele>
        <time>2023-05-16T10:30:05.820Z</time>
      </trkpt>
      <trkpt lat="44.87718" lon="5.70615">
        <ele>667.9</ele>
        <time>2023-05-16T10:30:07.863Z</time>
      </trkpt>
      <trkpt lat="44.87717" lon="5.70611">
        <ele>668.1</ele>
        <time>2023-05-16T10:30:09.190Z</time>
      </trkpt>
      <trkpt lat="44.87716" lon="5.70607">
        <ele>668.2</ele>
        <time>2023-05-16T10:30:10.379Z</time>
      </trkpt>
      <trkpt lat="44.87715" lon="5.70603">
        <ele>668.4</ele>
        <time>2023-05-16T10:30:11.706Z</time>
      </trkpt>
      <trkpt lat="44.87712" lon="5.70596">
        <ele>668.6</ele>
        <time>2023-05-16T10:30:14.009Z</time>
      </trkpt>
      <trkpt lat="44.87711" lon="5.70593">
        <ele>668.7</ele>
        <time>2023-05-16T10:30:14.967Z</time>
      </trkpt>
      <trkpt lat="44.8771" lon="5.70589">
        <ele>668.9</ele>
        <time>2023-05-16T10:30:16.294Z</time>
      </trkpt>
      <trkpt lat="44.87707" lon="5.70582">
        <ele>669.2</ele>
        <time>2023-05-16T10:30:18.730Z</time>
      </trkpt>
      <trkpt lat="44.87706" lon="5.70579">
        <ele>669.3</ele>
        <time>2023-05-16T10:30:19.688Z</time>
      </trkpt>
      <trkpt lat="44.87703" lon="5.70572">
        <ele>669.5</ele>
        <time>2023-05-16T10:30:21.991Z</time>
      </trkpt>
      <trkpt lat="44.87702" lon="5.70569">
        <ele>669.7</ele>
        <time>2023-05-16T10:30:23.095Z</time>
      </trkpt>
      <trkpt lat="44.877" lon="5.70562">
        <ele>670</ele>
        <time>2023-05-16T10:30:25.375Z</time>
      </trkpt>
      <trkpt lat="44.87699" lon="5.70558">
        <ele>670.1</ele>
        <time>2023-05-16T10:30:26.564Z</time>
      </trkpt>
      <trkpt lat="44.87698" lon="5.70554">
        <ele>670.3</ele>
        <time>2023-05-16T10:30:27.891Z</time>
      </trkpt>
      <trkpt lat="44.87697" lon="5.7055">
        <ele>670.5</ele>
        <time>2023-05-16T10:30:29.217Z</time>
      </trkpt>
      <trkpt lat="44.87696" lon="5.70546">
        <ele>670.6</ele>
        <time>2023-05-16T10:30:30.407Z</time>
      </trkpt>
      <trkpt lat="44.87696" lon="5.70542">
        <ele>670.8</ele>
        <time>2023-05-16T10:30:31.675Z</time>
      </trkpt>
      <trkpt lat="44.87696" lon="5.70536">
        <ele>671</ele>
        <time>2023-05-16T10:30:33.434Z</time>
      </trkpt>
      <trkpt lat="44.87697" lon="5.70529">
        <ele>671.3</ele>
        <time>2023-05-16T10:30:35.614Z</time>
      </trkpt>
      <trkpt lat="44.87698" lon="5.70525">
        <ele>671.5</ele>
        <time>2023-05-16T10:30:36.941Z</time>
      </trkpt>
      <trkpt lat="44.87699" lon="5.70517">
        <ele>671.8</ele>
        <time>2023-05-16T10:30:39.362Z</time>
      </trkpt>
      <trkpt lat="44.877" lon="5.70513">
        <ele>672.1</ele>
        <time>2023-05-16T10:30:40.849Z</time>
      </trkpt>
      <trkpt lat="44.87701" lon="5.70509">
        <ele>672.2</ele>
        <time>2023-05-16T10:30:42.038Z</time>
      </trkpt>
      <trkpt lat="44.87703" lon="5.70505">
        <ele>672.4</ele>
        <time>2023-05-16T10:30:43.524Z</time>
      </trkpt>
      <trkpt lat="44.87704" lon="5.70502">
        <ele>672.6</ele>
        <time>2023-05-16T10:30:44.629Z</time>
      </trkpt>
      <trkpt lat="44.87706" lon="5.70499">
        <ele>672.7</ele>
        <time>2023-05-16T10:30:45.787Z</time>
      </trkpt>
      <trkpt lat="44.87709" lon="5.70493">
        <ele>673.1</ele>
        <time>2023-05-16T10:30:48.165Z</time>
      </trkpt>
      <trkpt lat="44.87713" lon="5.70489">
        <ele>673.4</ele>
        <time>2023-05-16T10:30:50.291Z</time>
      </trkpt>
      <trkpt lat="44.87717" lon="5.70484">
        <ele>673.7</ele>
        <time>2023-05-16T10:30:52.569Z</time>
      </trkpt>
      <trkpt lat="44.87722" lon="5.70481">
        <ele>674</ele>
        <time>2023-05-16T10:30:54.878Z</time>
      </trkpt>
      <trkpt lat="44.87727" lon="5.70479">
        <ele>674.3</ele>
        <time>2023-05-16T10:30:57.105Z</time>
      </trkpt>
      <trkpt lat="44.87732" lon="5.70476">
        <ele>674.6</ele>
        <time>2023-05-16T10:30:59.415Z</time>
      </trkpt>
      <trkpt lat="44.87736" lon="5.70474">
        <ele>674.9</ele>
        <time>2023-05-16T10:31:01.314Z</time>
      </trkpt>
      <trkpt lat="44.87741" lon="5.70473">
        <ele>675.1</ele>
        <time>2023-05-16T10:31:03.353Z</time>
      </trkpt>
      <trkpt lat="44.87745" lon="5.70471">
        <ele>675.4</ele>
        <time>2023-05-16T10:31:05.253Z</time>
      </trkpt>
      <trkpt lat="44.87749" lon="5.70469">
        <ele>675.6</ele>
        <time>2023-05-16T10:31:07.009Z</time>
      </trkpt>
      <trkpt lat="44.87751" lon="5.70467">
        <ele>675.8</ele>
        <time>2023-05-16T10:31:08.147Z</time>
      </trkpt>
      <trkpt lat="44.87754" lon="5.70466">
        <ele>675.9</ele>
        <time>2023-05-16T10:31:09.364Z</time>
      </trkpt>
      <trkpt lat="44.87756" lon="5.70464">
        <ele>676.1</ele>
        <time>2023-05-16T10:31:10.502Z</time>
      </trkpt>
      <trkpt lat="44.87759" lon="5.70463">
        <ele>676.2</ele>
        <time>2023-05-16T10:31:11.719Z</time>
      </trkpt>
      <trkpt lat="44.87761" lon="5.70461">
        <ele>676.4</ele>
        <time>2023-05-16T10:31:12.857Z</time>
      </trkpt>
      <trkpt lat="44.87766" lon="5.70459">
        <ele>676.6</ele>
        <time>2023-05-16T10:31:14.948Z</time>
      </trkpt>
      <trkpt lat="44.87769" lon="5.70457">
        <ele>676.8</ele>
        <time>2023-05-16T10:31:16.383Z</time>
      </trkpt>
      <trkpt lat="44.87774" lon="5.70455">
        <ele>677.1</ele>
        <time>2023-05-16T10:31:18.610Z</time>
      </trkpt>
      <trkpt lat="44.87778" lon="5.70452">
        <ele>677.3</ele>
        <time>2023-05-16T10:31:20.467Z</time>
      </trkpt>
      <trkpt lat="44.87783" lon="5.70451">
        <ele>677.6</ele>
        <time>2023-05-16T10:31:22.643Z</time>
      </trkpt>
      <trkpt lat="44.87786" lon="5.7045">
        <ele>677.8</ele>
        <time>2023-05-16T10:31:23.996Z</time>
      </trkpt>
      <trkpt lat="44.87789" lon="5.70448">
        <ele>677.9</ele>
        <time>2023-05-16T10:31:25.296Z</time>
      </trkpt>
      <trkpt lat="44.87791" lon="5.70447">
        <ele>678.1</ele>
        <time>2023-05-16T10:31:26.325Z</time>
      </trkpt>
      <trkpt lat="44.87795" lon="5.70446">
        <ele>678.3</ele>
        <time>2023-05-16T10:31:28.018Z</time>
      </trkpt>
      <trkpt lat="44.87798" lon="5.70445">
        <ele>678.5</ele>
        <time>2023-05-16T10:31:29.371Z</time>
      </trkpt>
      <trkpt lat="44.87802" lon="5.70444">
        <ele>678.7</ele>
        <time>2023-05-16T10:31:31.064Z</time>
      </trkpt>
      <trkpt lat="44.87806" lon="5.70442">
        <ele>679</ele>
        <time>2023-05-16T10:31:32.963Z</time>
      </trkpt>
      <trkpt lat="44.87809" lon="5.70441">
        <ele>679.2</ele>
        <time>2023-05-16T10:31:34.316Z</time>
      </trkpt>
      <trkpt lat="44.87812" lon="5.7044">
        <ele>679.4</ele>
        <time>2023-05-16T10:31:35.669Z</time>
      </trkpt>
      <trkpt lat="44.87816" lon="5.70439">
        <ele>679.6</ele>
        <time>2023-05-16T10:31:37.362Z</time>
      </trkpt>
      <trkpt lat="44.87819" lon="5.70438">
        <ele>679.8</ele>
        <time>2023-05-16T10:31:38.715Z</time>
      </trkpt>
      <trkpt lat="44.87824" lon="5.70436">
        <ele>680.1</ele>
        <time>2023-05-16T10:31:40.942Z</time>
      </trkpt>
      <trkpt lat="44.87827" lon="5.70435">
        <ele>680.3</ele>
        <time>2023-05-16T10:31:42.295Z</time>
      </trkpt>
      <trkpt lat="44.8783" lon="5.70434">
        <ele>680.5</ele>
        <time>2023-05-16T10:31:43.648Z</time>
      </trkpt>
      <trkpt lat="44.87834" lon="5.70433">
        <ele>680.8</ele>
        <time>2023-05-16T10:31:45.485Z</time>
      </trkpt>
      <trkpt lat="44.87837" lon="5.70431">
        <ele>681</ele>
        <time>2023-05-16T10:31:46.919Z</time>
      </trkpt>
      <trkpt lat="44.87844" lon="5.70428">
        <ele>681.5</ele>
        <time>2023-05-16T10:31:50.167Z</time>
      </trkpt>
      <trkpt lat="44.87847" lon="5.70427">
        <ele>681.7</ele>
        <time>2023-05-16T10:31:51.520Z</time>
      </trkpt>
      <trkpt lat="44.87851" lon="5.70425">
        <ele>682</ele>
        <time>2023-05-16T10:31:53.419Z</time>
      </trkpt>
      <trkpt lat="44.87854" lon="5.70424">
        <ele>682.2</ele>
        <time>2023-05-16T10:31:54.772Z</time>
      </trkpt>
      <trkpt lat="44.8786" lon="5.70422">
        <ele>682.6</ele>
        <time>2023-05-16T10:31:57.478Z</time>
      </trkpt>
      <trkpt lat="44.87863" lon="5.70421">
        <ele>682.8</ele>
        <time>2023-05-16T10:31:58.831Z</time>
      </trkpt>
      <trkpt lat="44.87868" lon="5.70419">
        <ele>683.2</ele>
        <time>2023-05-16T10:32:01.207Z</time>
      </trkpt>
      <trkpt lat="44.87871" lon="5.70418">
        <ele>683.4</ele>
        <time>2023-05-16T10:32:02.559Z</time>
      </trkpt>
      <trkpt lat="44.87876" lon="5.70417">
        <ele>683.7</ele>
        <time>2023-05-16T10:32:04.736Z</time>
      </trkpt>
      <trkpt lat="44.87878" lon="5.70416">
        <ele>683.9</ele>
        <time>2023-05-16T10:32:05.765Z</time>
      </trkpt>
      <trkpt lat="44.87881" lon="5.70416">
        <ele>684.1</ele>
        <time>2023-05-16T10:32:07.089Z</time>
      </trkpt>
      <trkpt lat="44.87884" lon="5.70415">
        <ele>684.3</ele>
        <time>2023-05-16T10:32:08.442Z</time>
      </trkpt>
      <trkpt lat="44.87887" lon="5.70415">
        <ele>684.5</ele>
        <time>2023-05-16T10:32:09.767Z</time>
      </trkpt>
      <trkpt lat="44.87889" lon="5.70414">
        <ele>684.7</ele>
        <time>2023-05-16T10:32:10.796Z</time>
      </trkpt>
      <trkpt lat="44.87892" lon="5.70413">
        <ele>684.9</ele>
        <time>2023-05-16T10:32:12.149Z</time>
      </trkpt>
      <trkpt lat="44.87897" lon="5.70412">
        <ele>685.2</ele>
        <time>2023-05-16T10:32:14.325Z</time>
      </trkpt>
      <trkpt lat="44.87902" lon="5.7041">
        <ele>685.6</ele>
        <time>2023-05-16T10:32:16.701Z</time>
      </trkpt>
      <trkpt lat="44.87905" lon="5.7041">
        <ele>685.8</ele>
        <time>2023-05-16T10:32:18.025Z</time>
      </trkpt>
      <trkpt lat="44.87908" lon="5.70409">
        <ele>686</ele>
        <time>2023-05-16T10:32:19.378Z</time>
      </trkpt>
      <trkpt lat="44.8791" lon="5.70408">
        <ele>686.2</ele>
        <time>2023-05-16T10:32:20.407Z</time>
      </trkpt>
      <trkpt lat="44.87916" lon="5.70406">
        <ele>686.6</ele>
        <time>2023-05-16T10:32:23.113Z</time>
      </trkpt>
      <trkpt lat="44.87919" lon="5.70405">
        <ele>686.8</ele>
        <time>2023-05-16T10:32:24.466Z</time>
      </trkpt>
      <trkpt lat="44.87921" lon="5.70404">
        <ele>687</ele>
        <time>2023-05-16T10:32:25.495Z</time>
      </trkpt>
      <trkpt lat="44.87924" lon="5.70403">
        <ele>687.2</ele>
        <time>2023-05-16T10:32:26.848Z</time>
      </trkpt>
      <trkpt lat="44.87927" lon="5.70402">
        <ele>687.4</ele>
        <time>2023-05-16T10:32:28.201Z</time>
      </trkpt>
      <trkpt lat="44.87929" lon="5.70402">
        <ele>687.6</ele>
        <time>2023-05-16T10:32:29.190Z</time>
      </trkpt>
      <trkpt lat="44.87932" lon="5.70401">
        <ele>687.8</ele>
        <time>2023-05-16T10:32:30.543Z</time>
      </trkpt>
      <trkpt lat="44.87935" lon="5.704">
        <ele>688</ele>
        <time>2023-05-16T10:32:31.896Z</time>
      </trkpt>
      <trkpt lat="44.87938" lon="5.70398">
        <ele>688.2</ele>
        <time>2023-05-16T10:32:33.330Z</time>
      </trkpt>
      <trkpt lat="44.8794" lon="5.70397">
        <ele>688.4</ele>
        <time>2023-05-16T10:32:34.359Z</time>
      </trkpt>
      <trkpt lat="44.87945" lon="5.70394">
        <ele>688.8</ele>
        <time>2023-05-16T10:32:36.815Z</time>
      </trkpt>
      <trkpt lat="44.8795" lon="5.70393">
        <ele>689.1</ele>
        <time>2023-05-16T10:32:38.991Z</time>
      </trkpt>
      <trkpt lat="44.87955" lon="5.70392">
        <ele>689.4</ele>
        <time>2023-05-16T10:32:41.168Z</time>
      </trkpt>
      <trkpt lat="44.8796" lon="5.7039">
        <ele>689.8</ele>
        <time>2023-05-16T10:32:43.543Z</time>
      </trkpt>
      <trkpt lat="44.87965" lon="5.70389">
        <ele>690.1</ele>
        <time>2023-05-16T10:32:45.719Z</time>
      </trkpt>
      <trkpt lat="44.87968" lon="5.70388">
        <ele>690.2</ele>
        <time>2023-05-16T10:32:46.936Z</time>
      </trkpt>
      <trkpt lat="44.87974" lon="5.70386">
        <ele>690.5</ele>
        <time>2023-05-16T10:32:49.501Z</time>
      </trkpt>
      <trkpt lat="44.87976" lon="5.70385">
        <ele>690.7</ele>
        <time>2023-05-16T10:32:50.530Z</time>
      </trkpt>
      <trkpt lat="44.87979" lon="5.70384">
        <ele>690.8</ele>
        <time>2023-05-16T10:32:51.746Z</time>
      </trkpt>
      <trkpt lat="44.87982" lon="5.70383">
        <ele>691</ele>
        <time>2023-05-16T10:32:53.099Z</time>
      </trkpt>
      <trkpt lat="44.87985" lon="5.70383">
        <ele>691.1</ele>
        <time>2023-05-16T10:32:54.287Z</time>
      </trkpt>
      <trkpt lat="44.87988" lon="5.70382">
        <ele>691.2</ele>
        <time>2023-05-16T10:32:55.503Z</time>
      </trkpt>
      <trkpt lat="44.87991" lon="5.70382">
        <ele>691.4</ele>
        <time>2023-05-16T10:32:56.828Z</time>
      </trkpt>
      <trkpt lat="44.87994" lon="5.70381">
        <ele>691.5</ele>
        <time>2023-05-16T10:32:58.045Z</time>
      </trkpt>
      <trkpt lat="44.87997" lon="5.70381">
        <ele>691.6</ele>
        <time>2023-05-16T10:32:59.232Z</time>
      </trkpt>
      <trkpt lat="44.88" lon="5.70381">
        <ele>691.7</ele>
        <time>2023-05-16T10:33:00.420Z</time>
      </trkpt>
      <trkpt lat="44.88003" lon="5.70381">
        <ele>691.8</ele>
        <time>2023-05-16T10:33:01.607Z</time>
      </trkpt>
      <trkpt lat="44.88006" lon="5.70382">
        <ele>691.9</ele>
        <time>2023-05-16T10:33:02.824Z</time>
      </trkpt>
      <trkpt lat="44.88009" lon="5.70382">
        <ele>692</ele>
        <time>2023-05-16T10:33:04.011Z</time>
      </trkpt>
      <trkpt lat="44.88012" lon="5.70382">
        <ele>692.1</ele>
        <time>2023-05-16T10:33:05.199Z</time>
      </trkpt>
      <trkpt lat="44.88015" lon="5.70383">
        <ele>692.2</ele>
        <time>2023-05-16T10:33:06.415Z</time>
      </trkpt>
      <trkpt lat="44.88018" lon="5.70384">
        <ele>692.3</ele>
        <time>2023-05-16T10:33:07.632Z</time>
      </trkpt>
      <trkpt lat="44.88022" lon="5.70386">
        <ele>692.4</ele>
        <time>2023-05-16T10:33:09.260Z</time>
      </trkpt>
      <trkpt lat="44.88024" lon="5.70387">
        <ele>692.5</ele>
        <time>2023-05-16T10:33:10.139Z</time>
      </trkpt>
      <trkpt lat="44.88027" lon="5.70388">
        <ele>692.6</ele>
        <time>2023-05-16T10:33:11.355Z</time>
      </trkpt>
      <trkpt lat="44.8803" lon="5.7039">
        <ele>692.7</ele>
        <time>2023-05-16T10:33:12.655Z</time>
      </trkpt>
      <trkpt lat="44.88035" lon="5.70392">
        <ele>692.9</ele>
        <time>2023-05-16T10:33:14.747Z</time>
      </trkpt>
      <trkpt lat="44.8804" lon="5.70395">
        <ele>693.1</ele>
        <time>2023-05-16T10:33:16.921Z</time>
      </trkpt>
      <trkpt lat="44.88043" lon="5.70396">
        <ele>693.2</ele>
        <time>2023-05-16T10:33:18.138Z</time>
      </trkpt>
      <trkpt lat="44.88046" lon="5.70397">
        <ele>693.3</ele>
        <time>2023-05-16T10:33:19.355Z</time>
      </trkpt>
      <trkpt lat="44.88048" lon="5.70398">
        <ele>693.4</ele>
        <time>2023-05-16T10:33:20.233Z</time>
      </trkpt>
      <trkpt lat="44.88051" lon="5.70399">
        <ele>693.5</ele>
        <time>2023-05-16T10:33:21.450Z</time>
      </trkpt>
      <trkpt lat="44.88054" lon="5.704">
        <ele>693.6</ele>
        <time>2023-05-16T10:33:22.666Z</time>
      </trkpt>
      <trkpt lat="44.88057" lon="5.70401">
        <ele>693.8</ele>
        <time>2023-05-16T10:33:24.019Z</time>
      </trkpt>
      <trkpt lat="44.8806" lon="5.70403">
        <ele>693.9</ele>
        <time>2023-05-16T10:33:25.319Z</time>
      </trkpt>
      <trkpt lat="44.88063" lon="5.70405">
        <ele>694.1</ele>
        <time>2023-05-16T10:33:26.753Z</time>
      </trkpt>
      <trkpt lat="44.88066" lon="5.70406">
        <ele>694.2</ele>
        <time>2023-05-16T10:33:27.970Z</time>
      </trkpt>
      <trkpt lat="44.88069" lon="5.70408">
        <ele>694.4</ele>
        <time>2023-05-16T10:33:29.404Z</time>
      </trkpt>
      <trkpt lat="44.88072" lon="5.7041">
        <ele>694.6</ele>
        <time>2023-05-16T10:33:30.838Z</time>
      </trkpt>
      <trkpt lat="44.88075" lon="5.70412">
        <ele>694.8</ele>
        <time>2023-05-16T10:33:32.272Z</time>
      </trkpt>
      <trkpt lat="44.88078" lon="5.70413">
        <ele>695</ele>
        <time>2023-05-16T10:33:33.625Z</time>
      </trkpt>
      <trkpt lat="44.88081" lon="5.70415">
        <ele>695.3</ele>
        <time>2023-05-16T10:33:35.213Z</time>
      </trkpt>
      <trkpt lat="44.88085" lon="5.70417">
        <ele>695.5</ele>
        <time>2023-05-16T10:33:36.969Z</time>
      </trkpt>
      <trkpt lat="44.88088" lon="5.7042">
        <ele>695.8</ele>
        <time>2023-05-16T10:33:38.677Z</time>
      </trkpt>
      <trkpt lat="44.88092" lon="5.70422">
        <ele>696.1</ele>
        <time>2023-05-16T10:33:40.576Z</time>
      </trkpt>
      <trkpt lat="44.88095" lon="5.70424">
        <ele>696.3</ele>
        <time>2023-05-16T10:33:42.010Z</time>
      </trkpt>
      <trkpt lat="44.88099" lon="5.70426">
        <ele>696.6</ele>
        <time>2023-05-16T10:33:43.909Z</time>
      </trkpt>
      <trkpt lat="44.88102" lon="5.70428">
        <ele>696.8</ele>
        <time>2023-05-16T10:33:45.343Z</time>
      </trkpt>
      <trkpt lat="44.88105" lon="5.70429">
        <ele>697</ele>
        <time>2023-05-16T10:33:46.696Z</time>
      </trkpt>
      <trkpt lat="44.88108" lon="5.70431">
        <ele>697.2</ele>
        <time>2023-05-16T10:33:48.130Z</time>
      </trkpt>
      <trkpt lat="44.88111" lon="5.70433">
        <ele>697.4</ele>
        <time>2023-05-16T10:33:49.564Z</time>
      </trkpt>
      <trkpt lat="44.88114" lon="5.70435">
        <ele>697.6</ele>
        <time>2023-05-16T10:33:50.998Z</time>
      </trkpt>
      <trkpt lat="44.88117" lon="5.70437">
        <ele>697.8</ele>
        <time>2023-05-16T10:33:52.432Z</time>
      </trkpt>
      <trkpt lat="44.8812" lon="5.70439">
        <ele>697.9</ele>
        <time>2023-05-16T10:33:53.732Z</time>
      </trkpt>
      <trkpt lat="44.88123" lon="5.70443">
        <ele>698.2</ele>
        <time>2023-05-16T10:33:55.591Z</time>
      </trkpt>
      <trkpt lat="44.88128" lon="5.70448">
        <ele>698.4</ele>
        <time>2023-05-16T10:33:58.012Z</time>
      </trkpt>
      <trkpt lat="44.8813" lon="5.7045">
        <ele>698.5</ele>
        <time>2023-05-16T10:33:59.006Z</time>
      </trkpt>
      <trkpt lat="44.88134" lon="5.70453">
        <ele>698.7</ele>
        <time>2023-05-16T10:34:00.862Z</time>
      </trkpt>
      <trkpt lat="44.88137" lon="5.70456">
        <ele>698.8</ele>
        <time>2023-05-16T10:34:02.289Z</time>
      </trkpt>
      <trkpt lat="44.88139" lon="5.7046">
        <ele>698.9</ele>
        <time>2023-05-16T10:34:03.643Z</time>
      </trkpt>
      <trkpt lat="44.88143" lon="5.70463">
        <ele>699</ele>
        <time>2023-05-16T10:34:05.373Z</time>
      </trkpt>
      <trkpt lat="44.88146" lon="5.70464">
        <ele>699.2</ele>
        <time>2023-05-16T10:34:06.726Z</time>
      </trkpt>
      <trkpt lat="44.88149" lon="5.70463">
        <ele>699.4</ele>
        <time>2023-05-16T10:34:08.078Z</time>
      </trkpt>
      <trkpt lat="44.88152" lon="5.70463">
        <ele>699.6</ele>
        <time>2023-05-16T10:34:09.403Z</time>
      </trkpt>
      <trkpt lat="44.88155" lon="5.70464">
        <ele>699.7</ele>
        <time>2023-05-16T10:34:10.620Z</time>
      </trkpt>
      <trkpt lat="44.88159" lon="5.70464">
        <ele>699.9</ele>
        <time>2023-05-16T10:34:12.291Z</time>
      </trkpt>
      <trkpt lat="44.88162" lon="5.70464">
        <ele>700.1</ele>
        <time>2023-05-16T10:34:13.615Z</time>
      </trkpt>
      <trkpt lat="44.88165" lon="5.70464">
        <ele>700.3</ele>
        <time>2023-05-16T10:34:14.940Z</time>
      </trkpt>
      <trkpt lat="44.88169" lon="5.70464">
        <ele>700.5</ele>
        <time>2023-05-16T10:34:16.611Z</time>
      </trkpt>
      <trkpt lat="44.88172" lon="5.70463">
        <ele>700.7</ele>
        <time>2023-05-16T10:34:17.964Z</time>
      </trkpt>
      <trkpt lat="44.88176" lon="5.70463">
        <ele>700.9</ele>
        <time>2023-05-16T10:34:19.635Z</time>
      </trkpt>
      <trkpt lat="44.8818" lon="5.70463">
        <ele>701.1</ele>
        <time>2023-05-16T10:34:21.307Z</time>
      </trkpt>
      <trkpt lat="44.88184" lon="5.70463">
        <ele>701.3</ele>
        <time>2023-05-16T10:34:22.978Z</time>
      </trkpt>
      <trkpt lat="44.88187" lon="5.70463">
        <ele>701.5</ele>
        <time>2023-05-16T10:34:24.302Z</time>
      </trkpt>
      <trkpt lat="44.88191" lon="5.70463">
        <ele>701.7</ele>
        <time>2023-05-16T10:34:25.974Z</time>
      </trkpt>
      <trkpt lat="44.88194" lon="5.70464">
        <ele>701.9</ele>
        <time>2023-05-16T10:34:27.327Z</time>
      </trkpt>
      <trkpt lat="44.88197" lon="5.70464">
        <ele>702.1</ele>
        <time>2023-05-16T10:34:28.651Z</time>
      </trkpt>
      <trkpt lat="44.882" lon="5.70464">
        <ele>702.3</ele>
        <time>2023-05-16T10:34:29.976Z</time>
      </trkpt>
      <trkpt lat="44.88203" lon="5.70464">
        <ele>702.4</ele>
        <time>2023-05-16T10:34:31.163Z</time>
      </trkpt>
      <trkpt lat="44.88206" lon="5.70464">
        <ele>702.6</ele>
        <time>2023-05-16T10:34:32.488Z</time>
      </trkpt>
      <trkpt lat="44.88209" lon="5.70464">
        <ele>702.8</ele>
        <time>2023-05-16T10:34:33.812Z</time>
      </trkpt>
      <trkpt lat="44.88212" lon="5.70464">
        <ele>702.9</ele>
        <time>2023-05-16T10:34:35.000Z</time>
      </trkpt>
      <trkpt lat="44.88215" lon="5.70464">
        <ele>703.1</ele>
        <time>2023-05-16T10:34:36.324Z</time>
      </trkpt>
      <trkpt lat="44.88218" lon="5.70464">
        <ele>703.2</ele>
        <time>2023-05-16T10:34:37.512Z</time>
      </trkpt>
      <trkpt lat="44.8822" lon="5.70463">
        <ele>703.4</ele>
        <time>2023-05-16T10:34:38.541Z</time>
      </trkpt>
      <trkpt lat="44.88223" lon="5.70463">
        <ele>703.6</ele>
        <time>2023-05-16T10:34:39.865Z</time>
      </trkpt>
      <trkpt lat="44.88226" lon="5.70463">
        <ele>703.7</ele>
        <time>2023-05-16T10:34:41.053Z</time>
      </trkpt>
      <trkpt lat="44.8823" lon="5.70462">
        <ele>703.9</ele>
        <time>2023-05-16T10:34:42.746Z</time>
      </trkpt>
      <trkpt lat="44.88233" lon="5.7046">
        <ele>704.1</ele>
        <time>2023-05-16T10:34:44.180Z</time>
      </trkpt>
      <trkpt lat="44.88236" lon="5.70459">
        <ele>704.3</ele>
        <time>2023-05-16T10:34:45.533Z</time>
      </trkpt>
      <trkpt lat="44.88239" lon="5.70458">
        <ele>704.4</ele>
        <time>2023-05-16T10:34:46.749Z</time>
      </trkpt>
      <trkpt lat="44.88242" lon="5.70456">
        <ele>704.6</ele>
        <time>2023-05-16T10:34:48.183Z</time>
      </trkpt>
      <trkpt lat="44.88245" lon="5.70454">
        <ele>704.8</ele>
        <time>2023-05-16T10:34:49.617Z</time>
      </trkpt>
      <trkpt lat="44.88248" lon="5.70452">
        <ele>704.9</ele>
        <time>2023-05-16T10:34:50.917Z</time>
      </trkpt>
      <trkpt lat="44.88251" lon="5.70451">
        <ele>705.1</ele>
        <time>2023-05-16T10:34:52.270Z</time>
      </trkpt>
      <trkpt lat="44.88254" lon="5.70449">
        <ele>705.2</ele>
        <time>2023-05-16T10:34:53.570Z</time>
      </trkpt>
      <trkpt lat="44.88257" lon="5.70446">
        <ele>705.4</ele>
        <time>2023-05-16T10:34:55.129Z</time>
      </trkpt>
      <trkpt lat="44.8826" lon="5.70444">
        <ele>705.5</ele>
        <time>2023-05-16T10:34:56.429Z</time>
      </trkpt>
      <trkpt lat="44.88263" lon="5.70441">
        <ele>705.7</ele>
        <time>2023-05-16T10:34:57.987Z</time>
      </trkpt>
      <trkpt lat="44.88266" lon="5.70438">
        <ele>705.8</ele>
        <time>2023-05-16T10:34:59.414Z</time>
      </trkpt>
      <trkpt lat="44.88269" lon="5.70435">
        <ele>705.9</ele>
        <time>2023-05-16T10:35:00.841Z</time>
      </trkpt>
      <trkpt lat="44.88271" lon="5.70432">
        <ele>706.1</ele>
        <time>2023-05-16T10:35:02.138Z</time>
      </trkpt>
      <trkpt lat="44.88274" lon="5.70429">
        <ele>706.2</ele>
        <time>2023-05-16T10:35:03.565Z</time>
      </trkpt>
      <trkpt lat="44.88277" lon="5.70427">
        <ele>706.3</ele>
        <time>2023-05-16T10:35:04.865Z</time>
      </trkpt>
      <trkpt lat="44.8828" lon="5.70424">
        <ele>706.4</ele>
        <time>2023-05-16T10:35:06.292Z</time>
      </trkpt>
      <trkpt lat="44.88282" lon="5.70421">
        <ele>706.5</ele>
        <time>2023-05-16T10:35:07.451Z</time>
      </trkpt>
      <trkpt lat="44.88284" lon="5.70418">
        <ele>706.6</ele>
        <time>2023-05-16T10:35:08.610Z</time>
      </trkpt>
      <trkpt lat="44.88286" lon="5.70414">
        <ele>706.7</ele>
        <time>2023-05-16T10:35:09.963Z</time>
      </trkpt>
      <trkpt lat="44.88288" lon="5.70411">
        <ele>706.9</ele>
        <time>2023-05-16T10:35:11.260Z</time>
      </trkpt>
      <trkpt lat="44.8829" lon="5.70407">
        <ele>707</ele>
        <time>2023-05-16T10:35:12.613Z</time>
      </trkpt>
      <trkpt lat="44.88292" lon="5.70403">
        <ele>707.1</ele>
        <time>2023-05-16T10:35:13.967Z</time>
      </trkpt>
      <trkpt lat="44.88293" lon="5.70399">
        <ele>707.2</ele>
        <time>2023-05-16T10:35:15.156Z</time>
      </trkpt>
      <trkpt lat="44.88295" lon="5.70394">
        <ele>707.3</ele>
        <time>2023-05-16T10:35:16.722Z</time>
      </trkpt>
      <trkpt lat="44.88296" lon="5.7039">
        <ele>707.4</ele>
        <time>2023-05-16T10:35:17.911Z</time>
      </trkpt>
      <trkpt lat="44.88297" lon="5.70386">
        <ele>707.5</ele>
        <time>2023-05-16T10:35:19.101Z</time>
      </trkpt>
      <trkpt lat="44.88297" lon="5.70381">
        <ele>707.6</ele>
        <time>2023-05-16T10:35:20.480Z</time>
      </trkpt>
      <trkpt lat="44.88297" lon="5.70377">
        <ele>707.8</ele>
        <time>2023-05-16T10:35:21.748Z</time>
      </trkpt>
      <trkpt lat="44.88297" lon="5.70372">
        <ele>707.9</ele>
        <time>2023-05-16T10:35:23.128Z</time>
      </trkpt>
      <trkpt lat="44.88296" lon="5.70368">
        <ele>708</ele>
        <time>2023-05-16T10:35:24.317Z</time>
      </trkpt>
      <trkpt lat="44.88295" lon="5.70363">
        <ele>708.1</ele>
        <time>2023-05-16T10:35:25.746Z</time>
      </trkpt>
      <trkpt lat="44.88294" lon="5.70359">
        <ele>708.2</ele>
        <time>2023-05-16T10:35:26.935Z</time>
      </trkpt>
      <trkpt lat="44.88294" lon="5.70355">
        <ele>708.4</ele>
        <time>2023-05-16T10:35:28.203Z</time>
      </trkpt>
      <trkpt lat="44.88293" lon="5.7035">
        <ele>708.5</ele>
        <time>2023-05-16T10:35:29.632Z</time>
      </trkpt>
      <trkpt lat="44.88292" lon="5.70346">
        <ele>708.6</ele>
        <time>2023-05-16T10:35:30.821Z</time>
      </trkpt>
      <trkpt lat="44.88291" lon="5.70342">
        <ele>708.7</ele>
        <time>2023-05-16T10:35:32.011Z</time>
      </trkpt>
      <trkpt lat="44.88291" lon="5.70337">
        <ele>708.8</ele>
        <time>2023-05-16T10:35:33.390Z</time>
      </trkpt>
      <trkpt lat="44.8829" lon="5.70332">
        <ele>708.9</ele>
        <time>2023-05-16T10:35:34.819Z</time>
      </trkpt>
      <trkpt lat="44.88289" lon="5.70328">
        <ele>709.1</ele>
        <time>2023-05-16T10:35:36.145Z</time>
      </trkpt>
      <trkpt lat="44.88288" lon="5.70322">
        <ele>709.2</ele>
        <time>2023-05-16T10:35:37.817Z</time>
      </trkpt>
      <trkpt lat="44.88289" lon="5.70311">
        <ele>709.5</ele>
        <time>2023-05-16T10:35:40.977Z</time>
      </trkpt>
      <trkpt lat="44.88289" lon="5.70306">
        <ele>709.6</ele>
        <time>2023-05-16T10:35:42.356Z</time>
      </trkpt>
      <trkpt lat="44.88291" lon="5.70298">
        <ele>709.8</ele>
        <time>2023-05-16T10:35:44.735Z</time>
      </trkpt>
      <trkpt lat="44.88292" lon="5.70294">
        <ele>709.9</ele>
        <time>2023-05-16T10:35:45.925Z</time>
      </trkpt>
      <trkpt lat="44.88293" lon="5.7029">
        <ele>710</ele>
        <time>2023-05-16T10:35:47.114Z</time>
      </trkpt>
      <trkpt lat="44.88295" lon="5.70286">
        <ele>710.1</ele>
        <time>2023-05-16T10:35:48.467Z</time>
      </trkpt>
      <trkpt lat="44.88297" lon="5.70283">
        <ele>710.2</ele>
        <time>2023-05-16T10:35:49.626Z</time>
      </trkpt>
      <trkpt lat="44.88299" lon="5.7028">
        <ele>710.3</ele>
        <time>2023-05-16T10:35:50.785Z</time>
      </trkpt>
      <trkpt lat="44.88301" lon="5.70277">
        <ele>710.4</ele>
        <time>2023-05-16T10:35:51.944Z</time>
      </trkpt>
      <trkpt lat="44.88305" lon="5.70273">
        <ele>710.5</ele>
        <time>2023-05-16T10:35:53.806Z</time>
      </trkpt>
      <trkpt lat="44.88308" lon="5.7027">
        <ele>710.7</ele>
        <time>2023-05-16T10:35:55.364Z</time>
      </trkpt>
      <trkpt lat="44.88312" lon="5.70268">
        <ele>710.8</ele>
        <time>2023-05-16T10:35:56.992Z</time>
      </trkpt>
      <trkpt lat="44.88314" lon="5.70266">
        <ele>710.9</ele>
        <time>2023-05-16T10:35:57.986Z</time>
      </trkpt>
      <trkpt lat="44.88317" lon="5.70263">
        <ele>710.9</ele>
        <time>2023-05-16T10:35:59.297Z</time>
      </trkpt>
      <trkpt lat="44.88319" lon="5.70261">
        <ele>711</ele>
        <time>2023-05-16T10:36:00.291Z</time>
      </trkpt>
      <trkpt lat="44.88322" lon="5.70259">
        <ele>711.1</ele>
        <time>2023-05-16T10:36:01.591Z</time>
      </trkpt>
      <trkpt lat="44.88325" lon="5.70256">
        <ele>711.2</ele>
        <time>2023-05-16T10:36:03.018Z</time>
      </trkpt>
      <trkpt lat="44.88328" lon="5.70253">
        <ele>711.3</ele>
        <time>2023-05-16T10:36:04.445Z</time>
      </trkpt>
      <trkpt lat="44.88331" lon="5.7025">
        <ele>711.4</ele>
        <time>2023-05-16T10:36:05.872Z</time>
      </trkpt>
      <trkpt lat="44.88335" lon="5.70247">
        <ele>711.5</ele>
        <time>2023-05-16T10:36:07.602Z</time>
      </trkpt>
      <trkpt lat="44.88342" lon="5.70239">
        <ele>711.7</ele>
        <time>2023-05-16T10:36:11.043Z</time>
      </trkpt>
      <trkpt lat="44.88347" lon="5.70235">
        <ele>711.9</ele>
        <time>2023-05-16T10:36:13.329Z</time>
      </trkpt>
      <trkpt lat="44.8835" lon="5.70233">
        <ele>712</ele>
        <time>2023-05-16T10:36:14.629Z</time>
      </trkpt>
      <trkpt lat="44.88353" lon="5.70232">
        <ele>712.1</ele>
        <time>2023-05-16T10:36:15.845Z</time>
      </trkpt>
      <trkpt lat="44.88356" lon="5.7023">
        <ele>712.2</ele>
        <time>2023-05-16T10:36:17.145Z</time>
      </trkpt>
      <trkpt lat="44.88359" lon="5.70228">
        <ele>712.3</ele>
        <time>2023-05-16T10:36:18.445Z</time>
      </trkpt>
      <trkpt lat="44.88361" lon="5.70227">
        <ele>712.4</ele>
        <time>2023-05-16T10:36:19.323Z</time>
      </trkpt>
      <trkpt lat="44.88365" lon="5.70225">
        <ele>712.5</ele>
        <time>2023-05-16T10:36:20.952Z</time>
      </trkpt>
      <trkpt lat="44.88368" lon="5.70224">
        <ele>712.6</ele>
        <time>2023-05-16T10:36:22.168Z</time>
      </trkpt>
      <trkpt lat="44.88371" lon="5.70222">
        <ele>712.7</ele>
        <time>2023-05-16T10:36:23.468Z</time>
      </trkpt>
      <trkpt lat="44.88374" lon="5.7022">
        <ele>712.8</ele>
        <time>2023-05-16T10:36:24.768Z</time>
      </trkpt>
      <trkpt lat="44.88377" lon="5.70218">
        <ele>713</ele>
        <time>2023-05-16T10:36:26.202Z</time>
      </trkpt>
      <trkpt lat="44.88382" lon="5.70216">
        <ele>713.2</ele>
        <time>2023-05-16T10:36:28.294Z</time>
      </trkpt>
      <trkpt lat="44.88385" lon="5.70214">
        <ele>713.3</ele>
        <time>2023-05-16T10:36:29.593Z</time>
      </trkpt>
      <trkpt lat="44.88389" lon="5.70212">
        <ele>713.5</ele>
        <time>2023-05-16T10:36:31.350Z</time>
      </trkpt>
      <trkpt lat="44.88393" lon="5.70209">
        <ele>713.8</ele>
        <time>2023-05-16T10:36:33.347Z</time>
      </trkpt>
      <trkpt lat="44.88397" lon="5.70208">
        <ele>713.9</ele>
        <time>2023-05-16T10:36:34.911Z</time>
      </trkpt>
      <trkpt lat="44.884" lon="5.70206">
        <ele>714.1</ele>
        <time>2023-05-16T10:36:36.345Z</time>
      </trkpt>
      <trkpt lat="44.88404" lon="5.70204">
        <ele>714.4</ele>
        <time>2023-05-16T10:36:38.244Z</time>
      </trkpt>
      <trkpt lat="44.88407" lon="5.70202">
        <ele>714.6</ele>
        <time>2023-05-16T10:36:39.678Z</time>
      </trkpt>
      <trkpt lat="44.8841" lon="5.702">
        <ele>714.8</ele>
        <time>2023-05-16T10:36:41.112Z</time>
      </trkpt>
      <trkpt lat="44.88414" lon="5.70199">
        <ele>715</ele>
        <time>2023-05-16T10:36:42.805Z</time>
      </trkpt>
      <trkpt lat="44.88417" lon="5.70197">
        <ele>715.2</ele>
        <time>2023-05-16T10:36:44.239Z</time>
      </trkpt>
      <trkpt lat="44.8842" lon="5.70195">
        <ele>715.4</ele>
        <time>2023-05-16T10:36:45.673Z</time>
      </trkpt>
      <trkpt lat="44.88423" lon="5.70193">
        <ele>715.6</ele>
        <time>2023-05-16T10:36:47.107Z</time>
      </trkpt>
      <trkpt lat="44.88426" lon="5.70191">
        <ele>715.8</ele>
        <time>2023-05-16T10:36:48.541Z</time>
      </trkpt>
      <trkpt lat="44.88429" lon="5.70188">
        <ele>716</ele>
        <time>2023-05-16T10:36:50.100Z</time>
      </trkpt>
      <trkpt lat="44.88433" lon="5.70185">
        <ele>716.2</ele>
        <time>2023-05-16T10:36:51.956Z</time>
      </trkpt>
      <trkpt lat="44.88436" lon="5.70183">
        <ele>716.3</ele>
        <time>2023-05-16T10:36:53.256Z</time>
      </trkpt>
      <trkpt lat="44.88439" lon="5.70179">
        <ele>716.5</ele>
        <time>2023-05-16T10:36:54.972Z</time>
      </trkpt>
      <trkpt lat="44.88442" lon="5.70176">
        <ele>716.7</ele>
        <time>2023-05-16T10:36:56.530Z</time>
      </trkpt>
      <trkpt lat="44.88445" lon="5.70173">
        <ele>716.8</ele>
        <time>2023-05-16T10:36:57.958Z</time>
      </trkpt>
      <trkpt lat="44.88447" lon="5.70169">
        <ele>717</ele>
        <time>2023-05-16T10:36:59.444Z</time>
      </trkpt>
      <trkpt lat="44.8845" lon="5.70165">
        <ele>717.1</ele>
        <time>2023-05-16T10:37:01.031Z</time>
      </trkpt>
      <trkpt lat="44.88452" lon="5.7016">
        <ele>717.3</ele>
        <time>2023-05-16T10:37:02.726Z</time>
      </trkpt>
      <trkpt lat="44.88454" lon="5.70154">
        <ele>717.4</ele>
        <time>2023-05-16T10:37:04.515Z</time>
      </trkpt>
      <trkpt lat="44.88456" lon="5.70149">
        <ele>717.6</ele>
        <time>2023-05-16T10:37:06.210Z</time>
      </trkpt>
      <trkpt lat="44.88458" lon="5.70144">
        <ele>717.7</ele>
        <time>2023-05-16T10:37:07.776Z</time>
      </trkpt>
      <trkpt lat="44.88461" lon="5.70137">
        <ele>717.9</ele>
        <time>2023-05-16T10:37:10.079Z</time>
      </trkpt>
      <trkpt lat="44.88462" lon="5.70132">
        <ele>718</ele>
        <time>2023-05-16T10:37:11.508Z</time>
      </trkpt>
      <trkpt lat="44.88463" lon="5.70128">
        <ele>718.2</ele>
        <time>2023-05-16T10:37:12.835Z</time>
      </trkpt>
      <trkpt lat="44.88464" lon="5.70125">
        <ele>718.2</ele>
        <time>2023-05-16T10:37:13.672Z</time>
      </trkpt>
      <trkpt lat="44.88465" lon="5.70121">
        <ele>718.3</ele>
        <time>2023-05-16T10:37:14.861Z</time>
      </trkpt>
      <trkpt lat="44.88467" lon="5.70117">
        <ele>718.4</ele>
        <time>2023-05-16T10:37:16.215Z</time>
      </trkpt>
      <trkpt lat="44.88469" lon="5.70113">
        <ele>718.5</ele>
        <time>2023-05-16T10:37:17.568Z</time>
      </trkpt>
      <trkpt lat="44.88471" lon="5.70109">
        <ele>718.7</ele>
        <time>2023-05-16T10:37:19.054Z</time>
      </trkpt>
      <trkpt lat="44.88473" lon="5.70104">
        <ele>718.8</ele>
        <time>2023-05-16T10:37:20.620Z</time>
      </trkpt>
      <trkpt lat="44.88474" lon="5.701">
        <ele>718.9</ele>
        <time>2023-05-16T10:37:21.810Z</time>
      </trkpt>
      <trkpt lat="44.88476" lon="5.70095">
        <ele>719</ele>
        <time>2023-05-16T10:37:23.376Z</time>
      </trkpt>
      <trkpt lat="44.88478" lon="5.7009">
        <ele>719.1</ele>
        <time>2023-05-16T10:37:24.941Z</time>
      </trkpt>
      <trkpt lat="44.8848" lon="5.70085">
        <ele>719.2</ele>
        <time>2023-05-16T10:37:26.507Z</time>
      </trkpt>
      <trkpt lat="44.88482" lon="5.70079">
        <ele>719.3</ele>
        <time>2023-05-16T10:37:28.297Z</time>
      </trkpt>
      <trkpt lat="44.88485" lon="5.70072">
        <ele>719.4</ele>
        <time>2023-05-16T10:37:30.477Z</time>
      </trkpt>
      <trkpt lat="44.88487" lon="5.70068">
        <ele>719.5</ele>
        <time>2023-05-16T10:37:31.831Z</time>
      </trkpt>
      <trkpt lat="44.88489" lon="5.70063">
        <ele>719.6</ele>
        <time>2023-05-16T10:37:33.397Z</time>
      </trkpt>
      <trkpt lat="44.88491" lon="5.70058">
        <ele>719.7</ele>
        <time>2023-05-16T10:37:34.962Z</time>
      </trkpt>
      <trkpt lat="44.88494" lon="5.70053">
        <ele>719.8</ele>
        <time>2023-05-16T10:37:36.732Z</time>
      </trkpt>
      <trkpt lat="44.88496" lon="5.70048">
        <ele>719.8</ele>
        <time>2023-05-16T10:37:38.182Z</time>
      </trkpt>
      <trkpt lat="44.88499" lon="5.70044">
        <ele>719.9</ele>
        <time>2023-05-16T10:37:39.769Z</time>
      </trkpt>
      <trkpt lat="44.88501" lon="5.70041">
        <ele>719.9</ele>
        <time>2023-05-16T10:37:40.810Z</time>
      </trkpt>
      <trkpt lat="44.88504" lon="5.70036">
        <ele>720</ele>
        <time>2023-05-16T10:37:42.579Z</time>
      </trkpt>
      <trkpt lat="44.88506" lon="5.70031">
        <ele>720</ele>
        <time>2023-05-16T10:37:44.029Z</time>
      </trkpt>
      <trkpt lat="44.88508" lon="5.70028">
        <ele>720.1</ele>
        <time>2023-05-16T10:37:45.188Z</time>
      </trkpt>
      <trkpt lat="44.88512" lon="5.70023">
        <ele>720.1</ele>
        <time>2023-05-16T10:37:47.093Z</time>
      </trkpt>
      <trkpt lat="44.88516" lon="5.70018">
        <ele>720.2</ele>
        <time>2023-05-16T10:37:49.112Z</time>
      </trkpt>
      <trkpt lat="44.88519" lon="5.70014">
        <ele>720.2</ele>
        <time>2023-05-16T10:37:50.583Z</time>
      </trkpt>
      <trkpt lat="44.88522" lon="5.70011">
        <ele>720.2</ele>
        <time>2023-05-16T10:37:51.893Z</time>
      </trkpt>
      <trkpt lat="44.88525" lon="5.70009">
        <ele>720.3</ele>
        <time>2023-05-16T10:37:53.193Z</time>
      </trkpt>
      <trkpt lat="44.88529" lon="5.70006">
        <ele>720.4</ele>
        <time>2023-05-16T10:37:54.923Z</time>
      </trkpt>
      <trkpt lat="44.88532" lon="5.70004">
        <ele>720.4</ele>
        <time>2023-05-16T10:37:56.106Z</time>
      </trkpt>
      <trkpt lat="44.88536" lon="5.70002">
        <ele>720.5</ele>
        <time>2023-05-16T10:37:57.734Z</time>
      </trkpt>
      <trkpt lat="44.88541" lon="5.7">
        <ele>720.6</ele>
        <time>2023-05-16T10:37:59.701Z</time>
      </trkpt>
      <trkpt lat="44.88546" lon="5.69999">
        <ele>720.7</ele>
        <time>2023-05-16T10:38:01.616Z</time>
      </trkpt>
      <trkpt lat="44.8855" lon="5.69998">
        <ele>720.8</ele>
        <time>2023-05-16T10:38:03.179Z</time>
      </trkpt>
      <trkpt lat="44.88553" lon="5.69997">
        <ele>720.9</ele>
        <time>2023-05-16T10:38:04.396Z</time>
      </trkpt>
      <trkpt lat="44.88556" lon="5.69997">
        <ele>721</ele>
        <time>2023-05-16T10:38:05.584Z</time>
      </trkpt>
      <trkpt lat="44.8856" lon="5.69997">
        <ele>721.1</ele>
        <time>2023-05-16T10:38:07.125Z</time>
      </trkpt>
      <trkpt lat="44.88564" lon="5.69997">
        <ele>721.3</ele>
        <time>2023-05-16T10:38:08.797Z</time>
      </trkpt>
      <trkpt lat="44.88568" lon="5.69997">
        <ele>721.4</ele>
        <time>2023-05-16T10:38:10.338Z</time>
      </trkpt>
      <trkpt lat="44.88573" lon="5.69998">
        <ele>721.6</ele>
        <time>2023-05-16T10:38:12.378Z</time>
      </trkpt>
      <trkpt lat="44.88578" lon="5.69998">
        <ele>721.7</ele>
        <time>2023-05-16T10:38:14.275Z</time>
      </trkpt>
      <trkpt lat="44.88582" lon="5.69998">
        <ele>721.9</ele>
        <time>2023-05-16T10:38:15.946Z</time>
      </trkpt>
      <trkpt lat="44.88586" lon="5.69999">
        <ele>722</ele>
        <time>2023-05-16T10:38:17.510Z</time>
      </trkpt>
      <trkpt lat="44.88588" lon="5.69999">
        <ele>722.1</ele>
        <time>2023-05-16T10:38:18.346Z</time>
      </trkpt>
      <trkpt lat="44.88592" lon="5.69999">
        <ele>722.2</ele>
        <time>2023-05-16T10:38:19.887Z</time>
      </trkpt>
      <trkpt lat="44.88595" lon="5.69999">
        <ele>722.3</ele>
        <time>2023-05-16T10:38:21.075Z</time>
      </trkpt>
      <trkpt lat="44.88599" lon="5.69999">
        <ele>722.5</ele>
        <time>2023-05-16T10:38:22.746Z</time>
      </trkpt>
      <trkpt lat="44.88602" lon="5.69999">
        <ele>722.6</ele>
        <time>2023-05-16T10:38:23.934Z</time>
      </trkpt>
      <trkpt lat="44.88606" lon="5.69999">
        <ele>722.7</ele>
        <time>2023-05-16T10:38:25.475Z</time>
      </trkpt>
      <trkpt lat="44.8861" lon="5.69999">
        <ele>722.8</ele>
        <time>2023-05-16T10:38:27.017Z</time>
      </trkpt>
      <trkpt lat="44.88614" lon="5.7">
        <ele>723</ele>
        <time>2023-05-16T10:38:28.710Z</time>
      </trkpt>
      <trkpt lat="44.88619" lon="5.7">
        <ele>723.2</ele>
        <time>2023-05-16T10:38:30.732Z</time>
      </trkpt>
      <trkpt lat="44.88623" lon="5.70001">
        <ele>723.3</ele>
        <time>2023-05-16T10:38:32.296Z</time>
      </trkpt>
      <trkpt lat="44.88629" lon="5.70002">
        <ele>723.5</ele>
        <time>2023-05-16T10:38:34.686Z</time>
      </trkpt>
      <trkpt lat="44.88635" lon="5.70002">
        <ele>723.7</ele>
        <time>2023-05-16T10:38:37.061Z</time>
      </trkpt>
      <trkpt lat="44.88638" lon="5.70002">
        <ele>723.9</ele>
        <time>2023-05-16T10:38:38.385Z</time>
      </trkpt>
      <trkpt lat="44.88641" lon="5.70003">
        <ele>724</ele>
        <time>2023-05-16T10:38:39.602Z</time>
      </trkpt>
      <trkpt lat="44.88644" lon="5.70003">
        <ele>724.1</ele>
        <time>2023-05-16T10:38:40.789Z</time>
      </trkpt>
      <trkpt lat="44.88647" lon="5.70003">
        <ele>724.2</ele>
        <time>2023-05-16T10:38:41.977Z</time>
      </trkpt>
      <trkpt lat="44.8865" lon="5.70003">
        <ele>724.3</ele>
        <time>2023-05-16T10:38:43.164Z</time>
      </trkpt>
      <trkpt lat="44.88654" lon="5.70004">
        <ele>724.5</ele>
        <time>2023-05-16T10:38:44.857Z</time>
      </trkpt>
      <trkpt lat="44.88657" lon="5.70004">
        <ele>724.6</ele>
        <time>2023-05-16T10:38:46.045Z</time>
      </trkpt>
      <trkpt lat="44.8866" lon="5.70005">
        <ele>724.7</ele>
        <time>2023-05-16T10:38:47.262Z</time>
      </trkpt>
      <trkpt lat="44.88663" lon="5.70005">
        <ele>724.8</ele>
        <time>2023-05-16T10:38:48.449Z</time>
      </trkpt>
      <trkpt lat="44.88669" lon="5.70005">
        <ele>725</ele>
        <time>2023-05-16T10:38:50.824Z</time>
      </trkpt>
      <trkpt lat="44.88672" lon="5.70006">
        <ele>725.1</ele>
        <time>2023-05-16T10:38:52.041Z</time>
      </trkpt>
      <trkpt lat="44.88676" lon="5.70006">
        <ele>725.2</ele>
        <time>2023-05-16T10:38:53.582Z</time>
      </trkpt>
      <trkpt lat="44.88679" lon="5.70006">
        <ele>725.3</ele>
        <time>2023-05-16T10:38:54.770Z</time>
      </trkpt>
      <trkpt lat="44.88682" lon="5.70006">
        <ele>725.4</ele>
        <time>2023-05-16T10:38:55.957Z</time>
      </trkpt>
      <trkpt lat="44.88685" lon="5.70006">
        <ele>725.5</ele>
        <time>2023-05-16T10:38:57.145Z</time>
      </trkpt>
      <trkpt lat="44.88688" lon="5.70006">
        <ele>725.5</ele>
        <time>2023-05-16T10:38:58.214Z</time>
      </trkpt>
      <trkpt lat="44.88691" lon="5.70006">
        <ele>725.6</ele>
        <time>2023-05-16T10:38:59.402Z</time>
      </trkpt>
      <trkpt lat="44.88694" lon="5.70006">
        <ele>725.6</ele>
        <time>2023-05-16T10:39:00.471Z</time>
      </trkpt>
      <trkpt lat="44.88697" lon="5.70006">
        <ele>725.7</ele>
        <time>2023-05-16T10:39:01.659Z</time>
      </trkpt>
      <trkpt lat="44.887" lon="5.70007">
        <ele>725.7</ele>
        <time>2023-05-16T10:39:02.757Z</time>
      </trkpt>
      <trkpt lat="44.88703" lon="5.70008">
        <ele>725.7</ele>
        <time>2023-05-16T10:39:03.856Z</time>
      </trkpt>
      <trkpt lat="44.88706" lon="5.70008">
        <ele>725.7</ele>
        <time>2023-05-16T10:39:04.926Z</time>
      </trkpt>
      <trkpt lat="44.88709" lon="5.70008">
        <ele>725.7</ele>
        <time>2023-05-16T10:39:05.995Z</time>
      </trkpt>
      <trkpt lat="44.88712" lon="5.70009">
        <ele>725.8</ele>
        <time>2023-05-16T10:39:07.212Z</time>
      </trkpt>
      <trkpt lat="44.88715" lon="5.70009">
        <ele>725.8</ele>
        <time>2023-05-16T10:39:08.281Z</time>
      </trkpt>
      <trkpt lat="44.88718" lon="5.7001">
        <ele>725.8</ele>
        <time>2023-05-16T10:39:09.380Z</time>
      </trkpt>
      <trkpt lat="44.88721" lon="5.7001">
        <ele>725.7</ele>
        <time>2023-05-16T10:39:10.347Z</time>
      </trkpt>
      <trkpt lat="44.88724" lon="5.7001">
        <ele>725.7</ele>
        <time>2023-05-16T10:39:11.416Z</time>
      </trkpt>
      <trkpt lat="44.88727" lon="5.70011">
        <ele>725.7</ele>
        <time>2023-05-16T10:39:12.515Z</time>
      </trkpt>
      <trkpt lat="44.8873" lon="5.70011">
        <ele>725.7</ele>
        <time>2023-05-16T10:39:13.584Z</time>
      </trkpt>
      <trkpt lat="44.88733" lon="5.70011">
        <ele>725.7</ele>
        <time>2023-05-16T10:39:14.654Z</time>
      </trkpt>
      <trkpt lat="44.88736" lon="5.70011">
        <ele>725.7</ele>
        <time>2023-05-16T10:39:15.723Z</time>
      </trkpt>
      <trkpt lat="44.8874" lon="5.70011">
        <ele>725.7</ele>
        <time>2023-05-16T10:39:17.149Z</time>
      </trkpt>
      <trkpt lat="44.88743" lon="5.7001">
        <ele>725.7</ele>
        <time>2023-05-16T10:39:18.248Z</time>
      </trkpt>
      <trkpt lat="44.88747" lon="5.7001">
        <ele>725.6</ele>
        <time>2023-05-16T10:39:19.569Z</time>
      </trkpt>
      <trkpt lat="44.8875" lon="5.70009">
        <ele>725.6</ele>
        <time>2023-05-16T10:39:20.668Z</time>
      </trkpt>
      <trkpt lat="44.88754" lon="5.70008">
        <ele>725.6</ele>
        <time>2023-05-16T10:39:22.116Z</time>
      </trkpt>
      <trkpt lat="44.88757" lon="5.70007">
        <ele>725.6</ele>
        <time>2023-05-16T10:39:23.215Z</time>
      </trkpt>
      <trkpt lat="44.88761" lon="5.70005">
        <ele>725.6</ele>
        <time>2023-05-16T10:39:24.728Z</time>
      </trkpt>
      <trkpt lat="44.88764" lon="5.70004">
        <ele>725.5</ele>
        <time>2023-05-16T10:39:25.724Z</time>
      </trkpt>
      <trkpt lat="44.88768" lon="5.70002">
        <ele>725.5</ele>
        <time>2023-05-16T10:39:27.237Z</time>
      </trkpt>
      <trkpt lat="44.88771" lon="5.7">
        <ele>725.5</ele>
        <time>2023-05-16T10:39:28.419Z</time>
      </trkpt>
      <trkpt lat="44.88775" lon="5.69998">
        <ele>725.5</ele>
        <time>2023-05-16T10:39:29.932Z</time>
      </trkpt>
      <trkpt lat="44.88778" lon="5.69996">
        <ele>725.5</ele>
        <time>2023-05-16T10:39:31.115Z</time>
      </trkpt>
      <trkpt lat="44.88781" lon="5.69994">
        <ele>725.4</ele>
        <time>2023-05-16T10:39:32.194Z</time>
      </trkpt>
      <trkpt lat="44.88784" lon="5.69992">
        <ele>725.4</ele>
        <time>2023-05-16T10:39:33.377Z</time>
      </trkpt>
      <trkpt lat="44.88787" lon="5.6999">
        <ele>725.4</ele>
        <time>2023-05-16T10:39:34.560Z</time>
      </trkpt>
      <trkpt lat="44.8879" lon="5.69988">
        <ele>725.4</ele>
        <time>2023-05-16T10:39:35.742Z</time>
      </trkpt>
      <trkpt lat="44.88792" lon="5.69986">
        <ele>725.4</ele>
        <time>2023-05-16T10:39:36.616Z</time>
      </trkpt>
      <trkpt lat="44.88795" lon="5.69984">
        <ele>725.3</ele>
        <time>2023-05-16T10:39:37.696Z</time>
      </trkpt>
      <trkpt lat="44.88799" lon="5.6998">
        <ele>725.3</ele>
        <time>2023-05-16T10:39:39.443Z</time>
      </trkpt>
      <trkpt lat="44.88804" lon="5.69977">
        <ele>725.3</ele>
        <time>2023-05-16T10:39:41.380Z</time>
      </trkpt>
      <trkpt lat="44.88806" lon="5.69975">
        <ele>725.3</ele>
        <time>2023-05-16T10:39:42.253Z</time>
      </trkpt>
      <trkpt lat="44.88811" lon="5.69972">
        <ele>725.2</ele>
        <time>2023-05-16T10:39:44.085Z</time>
      </trkpt>
      <trkpt lat="44.88814" lon="5.6997">
        <ele>725.2</ele>
        <time>2023-05-16T10:39:45.267Z</time>
      </trkpt>
      <trkpt lat="44.88817" lon="5.69968">
        <ele>725.2</ele>
        <time>2023-05-16T10:39:46.450Z</time>
      </trkpt>
      <trkpt lat="44.8882" lon="5.69966">
        <ele>725.2</ele>
        <time>2023-05-16T10:39:47.633Z</time>
      </trkpt>
      <trkpt lat="44.88823" lon="5.69963">
        <ele>725.1</ele>
        <time>2023-05-16T10:39:48.840Z</time>
      </trkpt>
      <trkpt lat="44.88826" lon="5.69961">
        <ele>725.1</ele>
        <time>2023-05-16T10:39:50.022Z</time>
      </trkpt>
      <trkpt lat="44.88829" lon="5.69959">
        <ele>725.1</ele>
        <time>2023-05-16T10:39:51.205Z</time>
      </trkpt>
      <trkpt lat="44.88833" lon="5.69957">
        <ele>725.1</ele>
        <time>2023-05-16T10:39:52.717Z</time>
      </trkpt>
      <trkpt lat="44.88836" lon="5.69955">
        <ele>725</ele>
        <time>2023-05-16T10:39:53.797Z</time>
      </trkpt>
      <trkpt lat="44.88839" lon="5.69954">
        <ele>725</ele>
        <time>2023-05-16T10:39:54.896Z</time>
      </trkpt>
      <trkpt lat="44.88842" lon="5.69953">
        <ele>725</ele>
        <time>2023-05-16T10:39:55.995Z</time>
      </trkpt>
      <trkpt lat="44.88847" lon="5.69951">
        <ele>724.3</ele>
        <time>2023-05-16T10:39:57.616Z</time>
      </trkpt>
      <trkpt lat="44.88851" lon="5.69948">
        <ele>723.6</ele>
        <time>2023-05-16T10:39:59.028Z</time>
      </trkpt>
      <trkpt lat="44.88853" lon="5.69945">
        <ele>723.1</ele>
        <time>2023-05-16T10:39:59.939Z</time>
      </trkpt>
      <trkpt lat="44.88855" lon="5.69942">
        <ele>722.5</ele>
        <time>2023-05-16T10:40:00.849Z</time>
      </trkpt>
      <trkpt lat="44.88857" lon="5.69939">
        <ele>722</ele>
        <time>2023-05-16T10:40:01.759Z</time>
      </trkpt>
      <trkpt lat="44.88859" lon="5.69936">
        <ele>721.5</ele>
        <time>2023-05-16T10:40:02.669Z</time>
      </trkpt>
      <trkpt lat="44.88861" lon="5.69933">
        <ele>721</ele>
        <time>2023-05-16T10:40:03.580Z</time>
      </trkpt>
      <trkpt lat="44.88866" lon="5.69929">
        <ele>720.1</ele>
        <time>2023-05-16T10:40:05.372Z</time>
      </trkpt>
      <trkpt lat="44.88868" lon="5.69927">
        <ele>719.6</ele>
        <time>2023-05-16T10:40:06.137Z</time>
      </trkpt>
      <trkpt lat="44.8887" lon="5.69924">
        <ele>719.2</ele>
        <time>2023-05-16T10:40:07.047Z</time>
      </trkpt>
      <trkpt lat="44.88874" lon="5.6992">
        <ele>718.3</ele>
        <time>2023-05-16T10:40:08.576Z</time>
      </trkpt>
      <trkpt lat="44.88878" lon="5.69916">
        <ele>717.5</ele>
        <time>2023-05-16T10:40:10.105Z</time>
      </trkpt>
      <trkpt lat="44.88882" lon="5.69911">
        <ele>716.7</ele>
        <time>2023-05-16T10:40:11.772Z</time>
      </trkpt>
      <trkpt lat="44.88886" lon="5.69906">
        <ele>716</ele>
        <time>2023-05-16T10:40:13.438Z</time>
      </trkpt>
      <trkpt lat="44.88889" lon="5.69901">
        <ele>715.9</ele>
        <time>2023-05-16T10:40:14.988Z</time>
      </trkpt>
      <trkpt lat="44.88891" lon="5.69895">
        <ele>715.8</ele>
        <time>2023-05-16T10:40:16.558Z</time>
      </trkpt>
      <trkpt lat="44.88894" lon="5.69888">
        <ele>715.7</ele>
        <time>2023-05-16T10:40:18.518Z</time>
      </trkpt>
      <trkpt lat="44.88895" lon="5.69884">
        <ele>715.7</ele>
        <time>2023-05-16T10:40:19.589Z</time>
      </trkpt>
      <trkpt lat="44.88897" lon="5.6988">
        <ele>715.6</ele>
        <time>2023-05-16T10:40:20.722Z</time>
      </trkpt>
      <trkpt lat="44.88898" lon="5.69876">
        <ele>715.6</ele>
        <time>2023-05-16T10:40:21.794Z</time>
      </trkpt>
      <trkpt lat="44.889" lon="5.69871">
        <ele>715.5</ele>
        <time>2023-05-16T10:40:23.139Z</time>
      </trkpt>
      <trkpt lat="44.88901" lon="5.69867">
        <ele>715.5</ele>
        <time>2023-05-16T10:40:24.211Z</time>
      </trkpt>
      <trkpt lat="44.88903" lon="5.69863">
        <ele>715.4</ele>
        <time>2023-05-16T10:40:25.344Z</time>
      </trkpt>
      <trkpt lat="44.88904" lon="5.69858">
        <ele>715.4</ele>
        <time>2023-05-16T10:40:26.656Z</time>
      </trkpt>
      <trkpt lat="44.88906" lon="5.69854">
        <ele>715.3</ele>
        <time>2023-05-16T10:40:27.789Z</time>
      </trkpt>
      <trkpt lat="44.88907" lon="5.69849">
        <ele>715.3</ele>
        <time>2023-05-16T10:40:29.101Z</time>
      </trkpt>
      <trkpt lat="44.88909" lon="5.69844">
        <ele>715.2</ele>
        <time>2023-05-16T10:40:30.447Z</time>
      </trkpt>
      <trkpt lat="44.88911" lon="5.6984">
        <ele>715.2</ele>
        <time>2023-05-16T10:40:31.683Z</time>
      </trkpt>
      <trkpt lat="44.88912" lon="5.69835">
        <ele>715.1</ele>
        <time>2023-05-16T10:40:32.892Z</time>
      </trkpt>
      <trkpt lat="44.88914" lon="5.6983">
        <ele>715</ele>
        <time>2023-05-16T10:40:34.238Z</time>
      </trkpt>
      <trkpt lat="44.88916" lon="5.69825">
        <ele>715</ele>
        <time>2023-05-16T10:40:35.688Z</time>
      </trkpt>
      <trkpt lat="44.88917" lon="5.6982">
        <ele>714.9</ele>
        <time>2023-05-16T10:40:36.896Z</time>
      </trkpt>
      <trkpt lat="44.88919" lon="5.69815">
        <ele>714.9</ele>
        <time>2023-05-16T10:40:38.346Z</time>
      </trkpt>
      <trkpt lat="44.88921" lon="5.6981">
        <ele>714.8</ele>
        <time>2023-05-16T10:40:39.692Z</time>
      </trkpt>
      <trkpt lat="44.88923" lon="5.69804">
        <ele>714.7</ele>
        <time>2023-05-16T10:40:41.262Z</time>
      </trkpt>
      <trkpt lat="44.88925" lon="5.69797">
        <ele>714.7</ele>
        <time>2023-05-16T10:40:43.168Z</time>
      </trkpt>
      <trkpt lat="44.88927" lon="5.69791">
        <ele>714.6</ele>
        <time>2023-05-16T10:40:44.738Z</time>
      </trkpt>
      <trkpt lat="44.8893" lon="5.69786">
        <ele>714.5</ele>
        <time>2023-05-16T10:40:46.288Z</time>
      </trkpt>
      <trkpt lat="44.88932" lon="5.6978">
        <ele>714.4</ele>
        <time>2023-05-16T10:40:47.857Z</time>
      </trkpt>
      <trkpt lat="44.88934" lon="5.69773">
        <ele>714.4</ele>
        <time>2023-05-16T10:40:49.763Z</time>
      </trkpt>
      <trkpt lat="44.88937" lon="5.69767">
        <ele>714.2</ele>
        <time>2023-05-16T10:40:51.416Z</time>
      </trkpt>
      <trkpt lat="44.88939" lon="5.6976">
        <ele>714.1</ele>
        <time>2023-05-16T10:40:53.216Z</time>
      </trkpt>
      <trkpt lat="44.88941" lon="5.69753">
        <ele>713.9</ele>
        <time>2023-05-16T10:40:54.920Z</time>
      </trkpt>
      <trkpt lat="44.88944" lon="5.69746">
        <ele>713.7</ele>
        <time>2023-05-16T10:40:56.782Z</time>
      </trkpt>
      <trkpt lat="44.88946" lon="5.6974">
        <ele>713.5</ele>
        <time>2023-05-16T10:40:58.255Z</time>
      </trkpt>
      <trkpt lat="44.88948" lon="5.69733">
        <ele>713.2</ele>
        <time>2023-05-16T10:40:59.923Z</time>
      </trkpt>
      <trkpt lat="44.8895" lon="5.69726">
        <ele>712.9</ele>
        <time>2023-05-16T10:41:01.591Z</time>
      </trkpt>
      <trkpt lat="44.88952" lon="5.6972">
        <ele>712.6</ele>
        <time>2023-05-16T10:41:03.056Z</time>
      </trkpt>
      <trkpt lat="44.88954" lon="5.69715">
        <ele>712.3</ele>
        <time>2023-05-16T10:41:04.325Z</time>
      </trkpt>
      <trkpt lat="44.88955" lon="5.69709">
        <ele>712.1</ele>
        <time>2023-05-16T10:41:05.687Z</time>
      </trkpt>
      <trkpt lat="44.88958" lon="5.69704">
        <ele>711.9</ele>
        <time>2023-05-16T10:41:07.141Z</time>
      </trkpt>
      <trkpt lat="44.8896" lon="5.69698">
        <ele>711.7</ele>
        <time>2023-05-16T10:41:08.615Z</time>
      </trkpt>
      <trkpt lat="44.88962" lon="5.69693">
        <ele>711.6</ele>
        <time>2023-05-16T10:41:09.961Z</time>
      </trkpt>
      <trkpt lat="44.88965" lon="5.69688">
        <ele>711.4</ele>
        <time>2023-05-16T10:41:11.415Z</time>
      </trkpt>
      <trkpt lat="44.88967" lon="5.69682">
        <ele>711.2</ele>
        <time>2023-05-16T10:41:12.889Z</time>
      </trkpt>
      <trkpt lat="44.88969" lon="5.69677">
        <ele>711.1</ele>
        <time>2023-05-16T10:41:14.235Z</time>
      </trkpt>
      <trkpt lat="44.88971" lon="5.69672">
        <ele>710.9</ele>
        <time>2023-05-16T10:41:15.504Z</time>
      </trkpt>
      <trkpt lat="44.88974" lon="5.69666">
        <ele>710.7</ele>
        <time>2023-05-16T10:41:17.156Z</time>
      </trkpt>
      <trkpt lat="44.88976" lon="5.69661">
        <ele>710.4</ele>
        <time>2023-05-16T10:41:18.425Z</time>
      </trkpt>
      <trkpt lat="44.88979" lon="5.69656">
        <ele>710.2</ele>
        <time>2023-05-16T10:41:19.879Z</time>
      </trkpt>
      <trkpt lat="44.88982" lon="5.69651">
        <ele>709.9</ele>
        <time>2023-05-16T10:41:21.327Z</time>
      </trkpt>
      <trkpt lat="44.88985" lon="5.69647">
        <ele>709.6</ele>
        <time>2023-05-16T10:41:22.614Z</time>
      </trkpt>
      <trkpt lat="44.88988" lon="5.69643">
        <ele>709.3</ele>
        <time>2023-05-16T10:41:23.901Z</time>
      </trkpt>
      <trkpt lat="44.8899" lon="5.69639">
        <ele>709</ele>
        <time>2023-05-16T10:41:24.983Z</time>
      </trkpt>
      <trkpt lat="44.8899" lon="5.69635">
        <ele>709</ele>
        <time>2023-05-16T10:41:25.993Z</time>
      </trkpt>
      <trkpt lat="44.8899" lon="5.69629">
        <ele>709</ele>
        <time>2023-05-16T10:41:27.508Z</time>
      </trkpt>
      <trkpt lat="44.88992" lon="5.69625">
        <ele>708.9</ele>
        <time>2023-05-16T10:41:28.641Z</time>
      </trkpt>
      <trkpt lat="44.8899" lon="5.69619">
        <ele>708.5</ele>
        <time>2023-05-16T10:41:30.107Z</time>
      </trkpt>
      <trkpt lat="44.88989" lon="5.69615">
        <ele>708.3</ele>
        <time>2023-05-16T10:41:31.044Z</time>
      </trkpt>
      <trkpt lat="44.88987" lon="5.6961">
        <ele>707.8</ele>
        <time>2023-05-16T10:41:32.313Z</time>
      </trkpt>
      <trkpt lat="44.88985" lon="5.69605">
        <ele>707.3</ele>
        <time>2023-05-16T10:41:33.582Z</time>
      </trkpt>
      <trkpt lat="44.88982" lon="5.69599">
        <ele>706.7</ele>
        <time>2023-05-16T10:41:35.204Z</time>
      </trkpt>
      <trkpt lat="44.88978" lon="5.69594">
        <ele>705.8</ele>
        <time>2023-05-16T10:41:36.871Z</time>
      </trkpt>
      <trkpt lat="44.88973" lon="5.69588">
        <ele>705</ele>
        <time>2023-05-16T10:41:38.918Z</time>
      </trkpt>
      <trkpt lat="44.8897" lon="5.69579">
        <ele>704.3</ele>
        <time>2023-05-16T10:41:41.116Z</time>
      </trkpt>
      <trkpt lat="44.88967" lon="5.6957">
        <ele>703.4</ele>
        <time>2023-05-16T10:41:43.313Z</time>
      </trkpt>
      <trkpt lat="44.88964" lon="5.69559">
        <ele>702.4</ele>
        <time>2023-05-16T10:41:45.918Z</time>
      </trkpt>
      <trkpt lat="44.88963" lon="5.69547">
        <ele>701.7</ele>
        <time>2023-05-16T10:41:48.588Z</time>
      </trkpt>
      <trkpt lat="44.88965" lon="5.69535">
        <ele>700.6</ele>
        <time>2023-05-16T10:41:51.312Z</time>
      </trkpt>
      <trkpt lat="44.88967" lon="5.69524">
        <ele>699.7</ele>
        <time>2023-05-16T10:41:53.821Z</time>
      </trkpt>
      <trkpt lat="44.88967" lon="5.69515">
        <ele>699</ele>
        <time>2023-05-16T10:41:55.810Z</time>
      </trkpt>
      <trkpt lat="44.88968" lon="5.69508">
        <ele>698.3</ele>
        <time>2023-05-16T10:41:57.388Z</time>
      </trkpt>
      <trkpt lat="44.88968" lon="5.69503">
        <ele>697.7</ele>
        <time>2023-05-16T10:41:58.493Z</time>
      </trkpt>
      <trkpt lat="44.88966" lon="5.69497">
        <ele>697</ele>
        <time>2023-05-16T10:41:59.958Z</time>
      </trkpt>
      <trkpt lat="44.88963" lon="5.6949">
        <ele>696.3</ele>
        <time>2023-05-16T10:42:01.766Z</time>
      </trkpt>
      <trkpt lat="44.88959" lon="5.69483">
        <ele>695.5</ele>
        <time>2023-05-16T10:42:03.753Z</time>
      </trkpt>
      <trkpt lat="44.88956" lon="5.69475">
        <ele>694.8</ele>
        <time>2023-05-16T10:42:05.753Z</time>
      </trkpt>
      <trkpt lat="44.88954" lon="5.69467">
        <ele>694.2</ele>
        <time>2023-05-16T10:42:07.628Z</time>
      </trkpt>
      <trkpt lat="44.8895" lon="5.69457">
        <ele>693</ele>
        <time>2023-05-16T10:42:10.165Z</time>
      </trkpt>
      <trkpt lat="44.88948" lon="5.69447">
        <ele>691.7</ele>
        <time>2023-05-16T10:42:12.462Z</time>
      </trkpt>
      <trkpt lat="44.88945" lon="5.69434">
        <ele>690.6</ele>
        <time>2023-05-16T10:42:15.483Z</time>
      </trkpt>
      <trkpt lat="44.88942" lon="5.69422">
        <ele>689.3</ele>
        <time>2023-05-16T10:42:18.295Z</time>
      </trkpt>
      <trkpt lat="44.88941" lon="5.6941">
        <ele>688.3</ele>
        <time>2023-05-16T10:42:20.965Z</time>
      </trkpt>
      <trkpt lat="44.8894" lon="5.69399">
        <ele>686.8</ele>
        <time>2023-05-16T10:42:23.415Z</time>
      </trkpt>
      <trkpt lat="44.88941" lon="5.69387">
        <ele>685.8</ele>
        <time>2023-05-16T10:42:26.085Z</time>
      </trkpt>
      <trkpt lat="44.88943" lon="5.69376">
        <ele>684.9</ele>
        <time>2023-05-16T10:42:28.595Z</time>
      </trkpt>
      <trkpt lat="44.88946" lon="5.69367">
        <ele>684.1</ele>
        <time>2023-05-16T10:42:30.792Z</time>
      </trkpt>
      <trkpt lat="44.8895" lon="5.69361">
        <ele>683.3</ele>
        <time>2023-05-16T10:42:32.613Z</time>
      </trkpt>
      <trkpt lat="44.88955" lon="5.69357">
        <ele>682.5</ele>
        <time>2023-05-16T10:42:34.406Z</time>
      </trkpt>
      <trkpt lat="44.88959" lon="5.69355">
        <ele>681.9</ele>
        <time>2023-05-16T10:42:35.729Z</time>
      </trkpt>
      <trkpt lat="44.88965" lon="5.69352">
        <ele>681.1</ele>
        <time>2023-05-16T10:42:37.714Z</time>
      </trkpt>
      <trkpt lat="44.88972" lon="5.69349">
        <ele>679.6</ele>
        <time>2023-05-16T10:42:39.996Z</time>
      </trkpt>
      <trkpt lat="44.88977" lon="5.69343">
        <ele>678.6</ele>
        <time>2023-05-16T10:42:42.043Z</time>
      </trkpt>
      <trkpt lat="44.88979" lon="5.69338">
        <ele>678</ele>
        <time>2023-05-16T10:42:43.312Z</time>
      </trkpt>
      <trkpt lat="44.8898" lon="5.69333">
        <ele>677.5</ele>
        <time>2023-05-16T10:42:44.460Z</time>
      </trkpt>
      <trkpt lat="44.8898" lon="5.69326">
        <ele>676.8</ele>
        <time>2023-05-16T10:42:46.007Z</time>
      </trkpt>
      <trkpt lat="44.88979" lon="5.69319">
        <ele>676.1</ele>
        <time>2023-05-16T10:42:47.585Z</time>
      </trkpt>
      <trkpt lat="44.88977" lon="5.69311">
        <ele>675.5</ele>
        <time>2023-05-16T10:42:49.459Z</time>
      </trkpt>
      <trkpt lat="44.88975" lon="5.69303">
        <ele>674.7</ele>
        <time>2023-05-16T10:42:51.334Z</time>
      </trkpt>
      <trkpt lat="44.88974" lon="5.69294">
        <ele>673.8</ele>
        <time>2023-05-16T10:42:53.347Z</time>
      </trkpt>
      <trkpt lat="44.88972" lon="5.69287">
        <ele>673.3</ele>
        <time>2023-05-16T10:42:55.015Z</time>
      </trkpt>
      <trkpt lat="44.8897" lon="5.69281">
        <ele>672.7</ele>
        <time>2023-05-16T10:42:56.480Z</time>
      </trkpt>
      <trkpt lat="44.88967" lon="5.69274">
        <ele>671.9</ele>
        <time>2023-05-16T10:42:58.288Z</time>
      </trkpt>
      <trkpt lat="44.88965" lon="5.69269">
        <ele>670.7</ele>
        <time>2023-05-16T10:42:59.556Z</time>
      </trkpt>
      <trkpt lat="44.88965" lon="5.69262">
        <ele>669.7</ele>
        <time>2023-05-16T10:43:01.103Z</time>
      </trkpt>
      <trkpt lat="44.88966" lon="5.69257">
        <ele>668.9</ele>
        <time>2023-05-16T10:43:02.251Z</time>
      </trkpt>
      <trkpt lat="44.88968" lon="5.6925">
        <ele>667.9</ele>
        <time>2023-05-16T10:43:03.919Z</time>
      </trkpt>
      <trkpt lat="44.8897" lon="5.69244">
        <ele>666.9</ele>
        <time>2023-05-16T10:43:05.384Z</time>
      </trkpt>
      <trkpt lat="44.88973" lon="5.69238">
        <ele>665.8</ele>
        <time>2023-05-16T10:43:07.007Z</time>
      </trkpt>
      <trkpt lat="44.88978" lon="5.69233">
        <ele>664.6</ele>
        <time>2023-05-16T10:43:08.918Z</time>
      </trkpt>
      <trkpt lat="44.88983" lon="5.69229">
        <ele>663.3</ele>
        <time>2023-05-16T10:43:10.711Z</time>
      </trkpt>
      <trkpt lat="44.88987" lon="5.69224">
        <ele>662</ele>
        <time>2023-05-16T10:43:12.377Z</time>
      </trkpt>
      <trkpt lat="44.88989" lon="5.69221">
        <ele>660.9</ele>
        <time>2023-05-16T10:43:13.288Z</time>
      </trkpt>
      <trkpt lat="44.88992" lon="5.69219">
        <ele>660</ele>
        <time>2023-05-16T10:43:14.322Z</time>
      </trkpt>
      <trkpt lat="44.88995" lon="5.6922">
        <ele>659.4</ele>
        <time>2023-05-16T10:43:15.284Z</time>
      </trkpt>
      <trkpt lat="44.88998" lon="5.69222">
        <ele>658.9</ele>
        <time>2023-05-16T10:43:16.319Z</time>
      </trkpt>
      <trkpt lat="44.89001" lon="5.69223">
        <ele>658.5</ele>
        <time>2023-05-16T10:43:17.280Z</time>
      </trkpt>
      <trkpt lat="44.89003" lon="5.6922">
        <ele>657.9</ele>
        <time>2023-05-16T10:43:18.190Z</time>
      </trkpt>
      <trkpt lat="44.89006" lon="5.69217">
        <ele>657.2</ele>
        <time>2023-05-16T10:43:19.337Z</time>
      </trkpt>
      <trkpt lat="44.89006" lon="5.69213">
        <ele>656.5</ele>
        <time>2023-05-16T10:43:20.221Z</time>
      </trkpt>
      <trkpt lat="44.89001" lon="5.69207">
        <ele>655.2</ele>
        <time>2023-05-16T10:43:22.268Z</time>
      </trkpt>
      <trkpt lat="44.88995" lon="5.69199">
        <ele>656.2</ele>
        <time>2023-05-16T10:43:26.669Z</time>
      </trkpt>
      <trkpt lat="44.88992" lon="5.69198">
        <ele>656.4</ele>
        <time>2023-05-16T10:43:28.022Z</time>
      </trkpt>
      <trkpt lat="44.88986" lon="5.69196">
        <ele>656.8</ele>
        <time>2023-05-16T10:43:30.727Z</time>
      </trkpt>
      <trkpt lat="44.88983" lon="5.69195">
        <ele>657.2</ele>
        <time>2023-05-16T10:43:32.423Z</time>
      </trkpt>
      <trkpt lat="44.8898" lon="5.69196">
        <ele>657.6</ele>
        <time>2023-05-16T10:43:34.118Z</time>
      </trkpt>
      <trkpt lat="44.88975" lon="5.69196">
        <ele>658.1</ele>
        <time>2023-05-16T10:43:36.592Z</time>
      </trkpt>
      <trkpt lat="44.8897" lon="5.69196">
        <ele>658.5</ele>
        <time>2023-05-16T10:43:38.901Z</time>
      </trkpt>
      <trkpt lat="44.88966" lon="5.69197">
        <ele>658.7</ele>
        <time>2023-05-16T10:43:40.594Z</time>
      </trkpt>
      <trkpt lat="44.88963" lon="5.69194">
        <ele>658.6</ele>
        <time>2023-05-16T10:43:41.801Z</time>
      </trkpt>
      <trkpt lat="44.88955" lon="5.69189">
        <ele>657.9</ele>
        <time>2023-05-16T10:43:44.530Z</time>
      </trkpt>
      <trkpt lat="44.88952" lon="5.69187">
        <ele>657.5</ele>
        <time>2023-05-16T10:43:45.564Z</time>
      </trkpt>
      <trkpt lat="44.88945" lon="5.69185">
        <ele>656.8</ele>
        <time>2023-05-16T10:43:47.792Z</time>
      </trkpt>
      <trkpt lat="44.88941" lon="5.69184">
        <ele>656.9</ele>
        <time>2023-05-16T10:43:49.356Z</time>
      </trkpt>
      <trkpt lat="44.88941" lon="5.69178">
        <ele>657.4</ele>
        <time>2023-05-16T10:43:51.594Z</time>
      </trkpt>
      <trkpt lat="44.88943" lon="5.69174">
        <ele>657.3</ele>
        <time>2023-05-16T10:43:52.727Z</time>
      </trkpt>
      <trkpt lat="44.88941" lon="5.69169">
        <ele>656.3</ele>
        <time>2023-05-16T10:43:53.996Z</time>
      </trkpt>
      <trkpt lat="44.88937" lon="5.69164">
        <ele>655.1</ele>
        <time>2023-05-16T10:43:55.662Z</time>
      </trkpt>
      <trkpt lat="44.88931" lon="5.69161">
        <ele>654.4</ele>
        <time>2023-05-16T10:43:57.648Z</time>
      </trkpt>
      <trkpt lat="44.88925" lon="5.69159">
        <ele>654.3</ele>
        <time>2023-05-16T10:43:59.739Z</time>
      </trkpt>
      <trkpt lat="44.8892" lon="5.69159">
        <ele>654.1</ele>
        <time>2023-05-16T10:44:01.320Z</time>
      </trkpt>
      <trkpt lat="44.88915" lon="5.69161">
        <ele>653.8</ele>
        <time>2023-05-16T10:44:02.941Z</time>
      </trkpt>
      <trkpt lat="44.8891" lon="5.69162">
        <ele>652.9</ele>
        <time>2023-05-16T10:44:04.516Z</time>
      </trkpt>
      <trkpt lat="44.88906" lon="5.69162">
        <ele>652.1</ele>
        <time>2023-05-16T10:44:05.763Z</time>
      </trkpt>
      <trkpt lat="44.88903" lon="5.69158">
        <ele>651.3</ele>
        <time>2023-05-16T10:44:07.051Z</time>
      </trkpt>
      <trkpt lat="44.88902" lon="5.69154">
        <ele>650.8</ele>
        <time>2023-05-16T10:44:07.988Z</time>
      </trkpt>
      <trkpt lat="44.88907" lon="5.6915">
        <ele>649.8</ele>
        <time>2023-05-16T10:44:09.780Z</time>
      </trkpt>
      <trkpt lat="44.88911" lon="5.69148">
        <ele>649.2</ele>
        <time>2023-05-16T10:44:11.104Z</time>
      </trkpt>
      <trkpt lat="44.88913" lon="5.69147">
        <ele>648.7</ele>
        <time>2023-05-16T10:44:11.766Z</time>
      </trkpt>
      <trkpt lat="44.88915" lon="5.69143">
        <ele>648.2</ele>
        <time>2023-05-16T10:44:12.848Z</time>
      </trkpt>
      <trkpt lat="44.88918" lon="5.6914">
        <ele>647.8</ele>
        <time>2023-05-16T10:44:13.994Z</time>
      </trkpt>
      <trkpt lat="44.88921" lon="5.69136">
        <ele>647.2</ele>
        <time>2023-05-16T10:44:15.281Z</time>
      </trkpt>
      <trkpt lat="44.88924" lon="5.6913">
        <ele>646.1</ele>
        <time>2023-05-16T10:44:16.904Z</time>
      </trkpt>
      <trkpt lat="44.88926" lon="5.69124">
        <ele>645.2</ele>
        <time>2023-05-16T10:44:18.369Z</time>
      </trkpt>
      <trkpt lat="44.88928" lon="5.69118">
        <ele>644.4</ele>
        <time>2023-05-16T10:44:19.835Z</time>
      </trkpt>
      <trkpt lat="44.88929" lon="5.6911">
        <ele>643.5</ele>
        <time>2023-05-16T10:44:21.630Z</time>
      </trkpt>
      <trkpt lat="44.88928" lon="5.69101">
        <ele>642.3</ele>
        <time>2023-05-16T10:44:23.643Z</time>
      </trkpt>
      <trkpt lat="44.88928" lon="5.69093">
        <ele>641.3</ele>
        <time>2023-05-16T10:44:25.411Z</time>
      </trkpt>
      <trkpt lat="44.88927" lon="5.69085">
        <ele>640.5</ele>
        <time>2023-05-16T10:44:27.206Z</time>
      </trkpt>
      <trkpt lat="44.88926" lon="5.69076">
        <ele>639.7</ele>
        <time>2023-05-16T10:44:29.219Z</time>
      </trkpt>
      <trkpt lat="44.88926" lon="5.69068">
        <ele>638.8</ele>
        <time>2023-05-16T10:44:30.987Z</time>
      </trkpt>
      <trkpt lat="44.88925" lon="5.6906">
        <ele>638.2</ele>
        <time>2023-05-16T10:44:32.782Z</time>
      </trkpt>
      <trkpt lat="44.88921" lon="5.69052">
        <ele>637.5</ele>
        <time>2023-05-16T10:44:34.945Z</time>
      </trkpt>
      <trkpt lat="44.88918" lon="5.69043">
        <ele>636.5</ele>
        <time>2023-05-16T10:44:37.143Z</time>
      </trkpt>
      <trkpt lat="44.88914" lon="5.69035">
        <ele>636</ele>
        <time>2023-05-16T10:44:39.307Z</time>
      </trkpt>
      <trkpt lat="44.88911" lon="5.69028">
        <ele>635.4</ele>
        <time>2023-05-16T10:44:41.115Z</time>
      </trkpt>
      <trkpt lat="44.88908" lon="5.69023">
        <ele>635</ele>
        <time>2023-05-16T10:44:42.563Z</time>
      </trkpt>
      <trkpt lat="44.88908" lon="5.69013">
        <ele>634.6</ele>
        <time>2023-05-16T10:44:44.772Z</time>
      </trkpt>
      <trkpt lat="44.88907" lon="5.69004">
        <ele>634.4</ele>
        <time>2023-05-16T10:44:46.867Z</time>
      </trkpt>
      <trkpt lat="44.88904" lon="5.68995">
        <ele>634.3</ele>
        <time>2023-05-16T10:44:49.273Z</time>
      </trkpt>
      <trkpt lat="44.889" lon="5.68987">
        <ele>634.3</ele>
        <time>2023-05-16T10:44:51.746Z</time>
      </trkpt>
      <trkpt lat="44.88894" lon="5.6898">
        <ele>634.3</ele>
        <time>2023-05-16T10:44:54.520Z</time>
      </trkpt>
      <trkpt lat="44.88888" lon="5.68975">
        <ele>634.2</ele>
        <time>2023-05-16T10:44:56.898Z</time>
      </trkpt>
      <trkpt lat="44.88883" lon="5.68972">
        <ele>634.2</ele>
        <time>2023-05-16T10:44:58.834Z</time>
      </trkpt>
      <trkpt lat="44.88875" lon="5.68971">
        <ele>634</ele>
        <time>2023-05-16T10:45:01.489Z</time>
      </trkpt>
      <trkpt lat="44.88868" lon="5.68971">
        <ele>634.1</ele>
        <time>2023-05-16T10:45:04.097Z</time>
      </trkpt>
      <trkpt lat="44.88861" lon="5.6897">
        <ele>634.2</ele>
        <time>2023-05-16T10:45:06.718Z</time>
      </trkpt>
      <trkpt lat="44.88854" lon="5.68969">
        <ele>634.4</ele>
        <time>2023-05-16T10:45:09.460Z</time>
      </trkpt>
      <trkpt lat="44.88848" lon="5.68968">
        <ele>634.5</ele>
        <time>2023-05-16T10:45:11.727Z</time>
      </trkpt>
      <trkpt lat="44.88842" lon="5.68968">
        <ele>634.6</ele>
        <time>2023-05-16T10:45:13.980Z</time>
      </trkpt>
      <trkpt lat="44.88835" lon="5.68968">
        <ele>634.6</ele>
        <time>2023-05-16T10:45:16.475Z</time>
      </trkpt>
      <trkpt lat="44.88828" lon="5.68969">
        <ele>634.5</ele>
        <time>2023-05-16T10:45:18.877Z</time>
      </trkpt>
      <trkpt lat="44.88822" lon="5.68969">
        <ele>634.3</ele>
        <time>2023-05-16T10:45:20.811Z</time>
      </trkpt>
      <trkpt lat="44.88815" lon="5.68967">
        <ele>633.5</ele>
        <time>2023-05-16T10:45:23.038Z</time>
      </trkpt>
      <trkpt lat="44.88811" lon="5.68966">
        <ele>633</ele>
        <time>2023-05-16T10:45:24.305Z</time>
      </trkpt>
      <trkpt lat="44.88804" lon="5.68967">
        <ele>632.1</ele>
        <time>2023-05-16T10:45:26.500Z</time>
      </trkpt>
      <trkpt lat="44.888" lon="5.68969">
        <ele>631.3</ele>
        <time>2023-05-16T10:45:27.823Z</time>
      </trkpt>
      <trkpt lat="44.88793" lon="5.6897">
        <ele>629.7</ele>
        <time>2023-05-16T10:45:30.018Z</time>
      </trkpt>
      <trkpt lat="44.88787" lon="5.68971">
        <ele>627.9</ele>
        <time>2023-05-16T10:45:31.902Z</time>
      </trkpt>
      <trkpt lat="44.88781" lon="5.68972">
        <ele>626.1</ele>
        <time>2023-05-16T10:45:33.787Z</time>
      </trkpt>
      <trkpt lat="44.88775" lon="5.68972">
        <ele>624.8</ele>
        <time>2023-05-16T10:45:35.658Z</time>
      </trkpt>
      <trkpt lat="44.88769" lon="5.68973">
        <ele>623.6</ele>
        <time>2023-05-16T10:45:37.542Z</time>
      </trkpt>
      <trkpt lat="44.88763" lon="5.68974">
        <ele>622</ele>
        <time>2023-05-16T10:45:39.427Z</time>
      </trkpt>
      <trkpt lat="44.88756" lon="5.68974">
        <ele>619.6</ele>
        <time>2023-05-16T10:45:41.610Z</time>
      </trkpt>
      <trkpt lat="44.8875" lon="5.68972">
        <ele>617.6</ele>
        <time>2023-05-16T10:45:43.533Z</time>
      </trkpt>
      <trkpt lat="44.88744" lon="5.68968">
        <ele>615.7</ele>
        <time>2023-05-16T10:45:45.603Z</time>
      </trkpt>
      <trkpt lat="44.88737" lon="5.68967">
        <ele>613.8</ele>
        <time>2023-05-16T10:45:47.797Z</time>
      </trkpt>
      <trkpt lat="44.8873" lon="5.68963">
        <ele>611.6</ele>
        <time>2023-05-16T10:45:50.152Z</time>
      </trkpt>
      <trkpt lat="44.88723" lon="5.68961">
        <ele>609.4</ele>
        <time>2023-05-16T10:45:52.380Z</time>
      </trkpt>
      <trkpt lat="44.88718" lon="5.68958">
        <ele>607.8</ele>
        <time>2023-05-16T10:45:54.075Z</time>
      </trkpt>
      <trkpt lat="44.88712" lon="5.68954">
        <ele>605.9</ele>
        <time>2023-05-16T10:45:56.144Z</time>
      </trkpt>
      <trkpt lat="44.88705" lon="5.6895">
        <ele>602.9</ele>
        <time>2023-05-16T10:45:58.500Z</time>
      </trkpt>
      <trkpt lat="44.88699" lon="5.68946">
        <ele>601.6</ele>
        <time>2023-05-16T10:46:00.569Z</time>
      </trkpt>
      <trkpt lat="44.88695" lon="5.68942">
        <ele>600.4</ele>
        <time>2023-05-16T10:46:02.098Z</time>
      </trkpt>
      <trkpt lat="44.88689" lon="5.6894">
        <ele>599.1</ele>
        <time>2023-05-16T10:46:04.021Z</time>
      </trkpt>
      <trkpt lat="44.88683" lon="5.68942">
        <ele>597.7</ele>
        <time>2023-05-16T10:46:05.944Z</time>
      </trkpt>
      <trkpt lat="44.88676" lon="5.68937">
        <ele>595.8</ele>
        <time>2023-05-16T10:46:08.391Z</time>
      </trkpt>
      <trkpt lat="44.88673" lon="5.68935">
        <ele>595.3</ele>
        <time>2023-05-16T10:46:09.426Z</time>
      </trkpt>
      <trkpt lat="44.8867" lon="5.68933">
        <ele>594.6</ele>
        <time>2023-05-16T10:46:10.461Z</time>
      </trkpt>
      <trkpt lat="44.88667" lon="5.68931">
        <ele>593.9</ele>
        <time>2023-05-16T10:46:11.496Z</time>
      </trkpt>
      <trkpt lat="44.88666" lon="5.68926">
        <ele>593.1</ele>
        <time>2023-05-16T10:46:12.644Z</time>
      </trkpt>
      <trkpt lat="44.88664" lon="5.68922">
        <ele>592.6</ele>
        <time>2023-05-16T10:46:13.725Z</time>
      </trkpt>
      <trkpt lat="44.88661" lon="5.68918">
        <ele>592.1</ele>
        <time>2023-05-16T10:46:15.013Z</time>
      </trkpt>
      <trkpt lat="44.88659" lon="5.68916">
        <ele>591.7</ele>
        <time>2023-05-16T10:46:15.777Z</time>
      </trkpt>
      <trkpt lat="44.88655" lon="5.68915">
        <ele>591</ele>
        <time>2023-05-16T10:46:17.044Z</time>
      </trkpt>
      <trkpt lat="44.88652" lon="5.68916">
        <ele>590.5</ele>
        <time>2023-05-16T10:46:18.006Z</time>
      </trkpt>
      <trkpt lat="44.88639" lon="5.68901">
        <ele>587.9</ele>
        <time>2023-05-16T10:46:23.243Z</time>
      </trkpt>
      <trkpt lat="44.8863" lon="5.68887">
        <ele>586.4</ele>
        <time>2023-05-16T10:46:27.420Z</time>
      </trkpt>
      <trkpt lat="44.88625" lon="5.68886">
        <ele>586.1</ele>
        <time>2023-05-16T10:46:28.995Z</time>
      </trkpt>
      <trkpt lat="44.88619" lon="5.68886">
        <ele>585.4</ele>
        <time>2023-05-16T10:46:30.867Z</time>
      </trkpt>
      <trkpt lat="44.88613" lon="5.68887">
        <ele>585</ele>
        <time>2023-05-16T10:46:32.751Z</time>
      </trkpt>
      <trkpt lat="44.8861" lon="5.6889">
        <ele>584.7</ele>
        <time>2023-05-16T10:46:33.898Z</time>
      </trkpt>
      <trkpt lat="44.88607" lon="5.68896">
        <ele>584.7</ele>
        <time>2023-05-16T10:46:35.753Z</time>
      </trkpt>
      <trkpt lat="44.88603" lon="5.68903">
        <ele>584.8</ele>
        <time>2023-05-16T10:46:38.137Z</time>
      </trkpt>
      <trkpt lat="44.88601" lon="5.6891">
        <ele>585</ele>
        <time>2023-05-16T10:46:40.282Z</time>
      </trkpt>
      <trkpt lat="44.88598" lon="5.68914">
        <ele>585.2</ele>
        <time>2023-05-16T10:46:41.998Z</time>
      </trkpt>
      <trkpt lat="44.88594" lon="5.68916">
        <ele>585.1</ele>
        <time>2023-05-16T10:46:43.406Z</time>
      </trkpt>
      <trkpt lat="44.8859" lon="5.68918">
        <ele>585</ele>
        <time>2023-05-16T10:46:44.814Z</time>
      </trkpt>
      <trkpt lat="44.88586" lon="5.68918">
        <ele>584.9</ele>
        <time>2023-05-16T10:46:46.136Z</time>
      </trkpt>
      <trkpt lat="44.88584" lon="5.68915">
        <ele>584.8</ele>
        <time>2023-05-16T10:46:47.074Z</time>
      </trkpt>
      <trkpt lat="44.8858" lon="5.68915">
        <ele>584.7</ele>
        <time>2023-05-16T10:46:48.396Z</time>
      </trkpt>
      <trkpt lat="44.88574" lon="5.68918">
        <ele>584.5</ele>
        <time>2023-05-16T10:46:50.460Z</time>
      </trkpt>
      <trkpt lat="44.88569" lon="5.6892">
        <ele>584.4</ele>
        <time>2023-05-16T10:46:52.207Z</time>
      </trkpt>
      <trkpt lat="44.88563" lon="5.68922">
        <ele>584.3</ele>
        <time>2023-05-16T10:46:54.298Z</time>
      </trkpt>
      <trkpt lat="44.88561" lon="5.68928">
        <ele>584</ele>
        <time>2023-05-16T10:46:55.764Z</time>
      </trkpt>
      <trkpt lat="44.88557" lon="5.6893">
        <ele>583.8</ele>
        <time>2023-05-16T10:46:57.087Z</time>
      </trkpt>
      <trkpt lat="44.88552" lon="5.6893">
        <ele>583.4</ele>
        <time>2023-05-16T10:46:58.647Z</time>
      </trkpt>
      <trkpt lat="44.88546" lon="5.68931">
        <ele>583.1</ele>
        <time>2023-05-16T10:47:00.531Z</time>
      </trkpt>
      <trkpt lat="44.8854" lon="5.68927">
        <ele>582.9</ele>
        <time>2023-05-16T10:47:02.690Z</time>
      </trkpt>
      <trkpt lat="44.88537" lon="5.68922">
        <ele>582.5</ele>
        <time>2023-05-16T10:47:04.138Z</time>
      </trkpt>
      <trkpt lat="44.88532" lon="5.68917">
        <ele>581.9</ele>
        <time>2023-05-16T10:47:06.050Z</time>
      </trkpt>
      <trkpt lat="44.88527" lon="5.68914">
        <ele>581.3</ele>
        <time>2023-05-16T10:47:07.744Z</time>
      </trkpt>
      <trkpt lat="44.8852" lon="5.68914">
        <ele>580.4</ele>
        <time>2023-05-16T10:47:09.928Z</time>
      </trkpt>
      <trkpt lat="44.88514" lon="5.68914">
        <ele>579.7</ele>
        <time>2023-05-16T10:47:11.799Z</time>
      </trkpt>
      <trkpt lat="44.88506" lon="5.68915">
        <ele>578.2</ele>
        <time>2023-05-16T10:47:14.304Z</time>
      </trkpt>
      <trkpt lat="44.88498" lon="5.68914">
        <ele>576.6</ele>
        <time>2023-05-16T10:47:16.809Z</time>
      </trkpt>
      <trkpt lat="44.88492" lon="5.68912">
        <ele>575.4</ele>
        <time>2023-05-16T10:47:18.732Z</time>
      </trkpt>
      <trkpt lat="44.88486" lon="5.68911">
        <ele>574.3</ele>
        <time>2023-05-16T10:47:20.616Z</time>
      </trkpt>
      <trkpt lat="44.88477" lon="5.68911">
        <ele>573.2</ele>
        <time>2023-05-16T10:47:23.423Z</time>
      </trkpt>
      <trkpt lat="44.88469" lon="5.6891">
        <ele>571.2</ele>
        <time>2023-05-16T10:47:25.928Z</time>
      </trkpt>
      <trkpt lat="44.8846" lon="5.68913">
        <ele>569.5</ele>
        <time>2023-05-16T10:47:28.812Z</time>
      </trkpt>
      <trkpt lat="44.88453" lon="5.68916">
        <ele>567.9</ele>
        <time>2023-05-16T10:47:31.094Z</time>
      </trkpt>
      <trkpt lat="44.88448" lon="5.68918">
        <ele>567</ele>
        <time>2023-05-16T10:47:32.715Z</time>
      </trkpt>
      <trkpt lat="44.88444" lon="5.68918">
        <ele>566.5</ele>
        <time>2023-05-16T10:47:33.963Z</time>
      </trkpt>
      <trkpt lat="44.88441" lon="5.68922">
        <ele>565.8</ele>
        <time>2023-05-16T10:47:35.250Z</time>
      </trkpt>
      <trkpt lat="44.88439" lon="5.68927">
        <ele>565</ele>
        <time>2023-05-16T10:47:36.519Z</time>
      </trkpt>
      <trkpt lat="44.88435" lon="5.68927">
        <ele>564.3</ele>
        <time>2023-05-16T10:47:37.766Z</time>
      </trkpt>
      <trkpt lat="44.88434" lon="5.68922">
        <ele>564.3</ele>
        <time>2023-05-16T10:47:39.079Z</time>
      </trkpt>
      <trkpt lat="44.88432" lon="5.68908">
        <ele>562.8</ele>
        <time>2023-05-16T10:47:42.235Z</time>
      </trkpt>
      <trkpt lat="44.88433" lon="5.68899">
        <ele>561.9</ele>
        <time>2023-05-16T10:47:44.248Z</time>
      </trkpt>
      <trkpt lat="44.8843" lon="5.68895">
        <ele>561.2</ele>
        <time>2023-05-16T10:47:45.535Z</time>
      </trkpt>
      <trkpt lat="44.88428" lon="5.68898">
        <ele>560.5</ele>
        <time>2023-05-16T10:47:46.445Z</time>
      </trkpt>
      <trkpt lat="44.88424" lon="5.68903">
        <ele>560.4</ele>
        <time>2023-05-16T10:47:48.245Z</time>
      </trkpt>
      <trkpt lat="44.8842" lon="5.68908">
        <ele>560</ele>
        <time>2023-05-16T10:47:49.911Z</time>
      </trkpt>
      <trkpt lat="44.88419" lon="5.68913">
        <ele>560.5</ele>
        <time>2023-05-16T10:47:51.981Z</time>
      </trkpt>
      <trkpt lat="44.88418" lon="5.68919">
        <ele>560</ele>
        <time>2023-05-16T10:47:53.343Z</time>
      </trkpt>
      <trkpt lat="44.88416" lon="5.68927">
        <ele>560.8</ele>
        <time>2023-05-16T10:47:56.689Z</time>
      </trkpt>
      <trkpt lat="44.88416" lon="5.68936">
        <ele>561.5</ele>
        <time>2023-05-16T10:47:59.954Z</time>
      </trkpt>
      <trkpt lat="44.88415" lon="5.68943">
        <ele>561.1</ele>
        <time>2023-05-16T10:48:01.532Z</time>
      </trkpt>
      <trkpt lat="44.88417" lon="5.6895">
        <ele>560.3</ele>
        <time>2023-05-16T10:48:03.200Z</time>
      </trkpt>
      <trkpt lat="44.8842" lon="5.68955">
        <ele>559.9</ele>
        <time>2023-05-16T10:48:04.648Z</time>
      </trkpt>
      <trkpt lat="44.88422" lon="5.68958">
        <ele>559.6</ele>
        <time>2023-05-16T10:48:05.558Z</time>
      </trkpt>
      <trkpt lat="44.88425" lon="5.68963">
        <ele>559.2</ele>
        <time>2023-05-16T10:48:07.006Z</time>
      </trkpt>
      <trkpt lat="44.88425" lon="5.68967">
        <ele>559.3</ele>
        <time>2023-05-16T10:48:08.135Z</time>
      </trkpt>
      <trkpt lat="44.88424" lon="5.68972">
        <ele>559.4</ele>
        <time>2023-05-16T10:48:09.564Z</time>
      </trkpt>
      <trkpt lat="44.88425" lon="5.68977">
        <ele>559.5</ele>
        <time>2023-05-16T10:48:10.992Z</time>
      </trkpt>
      <trkpt lat="44.88424" lon="5.68981">
        <ele>559.6</ele>
        <time>2023-05-16T10:48:12.182Z</time>
      </trkpt>
      <trkpt lat="44.88421" lon="5.68988">
        <ele>559.7</ele>
        <time>2023-05-16T10:48:14.362Z</time>
      </trkpt>
      <trkpt lat="44.88421" lon="5.68996">
        <ele>559.9</ele>
        <time>2023-05-16T10:48:16.619Z</time>
      </trkpt>
      <trkpt lat="44.8842" lon="5.69002">
        <ele>560.6</ele>
        <time>2023-05-16T10:48:19.307Z</time>
      </trkpt>
      <trkpt lat="44.88421" lon="5.69007">
        <ele>561.4</ele>
        <time>2023-05-16T10:48:22.132Z</time>
      </trkpt>
      <trkpt lat="44.88423" lon="5.69011">
        <ele>562.3</ele>
        <time>2023-05-16T10:48:25.289Z</time>
      </trkpt>
      <trkpt lat="44.88426" lon="5.69015">
        <ele>563.1</ele>
        <time>2023-05-16T10:48:28.176Z</time>
      </trkpt>
      <trkpt lat="44.88427" lon="5.6902">
        <ele>563.6</ele>
        <time>2023-05-16T10:48:30.246Z</time>
      </trkpt>
      <trkpt lat="44.88429" lon="5.69025">
        <ele>564</ele>
        <time>2023-05-16T10:48:32.247Z</time>
      </trkpt>
      <trkpt lat="44.88432" lon="5.69031">
        <ele>564.6</ele>
        <time>2023-05-16T10:48:34.964Z</time>
      </trkpt>
      <trkpt lat="44.88433" lon="5.69039">
        <ele>564.6</ele>
        <time>2023-05-16T10:48:37.016Z</time>
      </trkpt>
      <trkpt lat="44.88434" lon="5.69047">
        <ele>564.1</ele>
        <time>2023-05-16T10:48:38.811Z</time>
      </trkpt>
      <trkpt lat="44.88431" lon="5.69052">
        <ele>562.9</ele>
        <time>2023-05-16T10:48:40.259Z</time>
      </trkpt>
      <trkpt lat="44.88426" lon="5.69055">
        <ele>561.4</ele>
        <time>2023-05-16T10:48:41.953Z</time>
      </trkpt>
      <trkpt lat="44.88421" lon="5.69056">
        <ele>560.1</ele>
        <time>2023-05-16T10:48:43.528Z</time>
      </trkpt>
      <trkpt lat="44.88418" lon="5.69057">
        <ele>559.5</ele>
        <time>2023-05-16T10:48:44.490Z</time>
      </trkpt>
      <trkpt lat="44.88413" lon="5.69058">
        <ele>558.6</ele>
        <time>2023-05-16T10:48:46.065Z</time>
      </trkpt>
      <trkpt lat="44.88408" lon="5.69054">
        <ele>557.5</ele>
        <time>2023-05-16T10:48:47.857Z</time>
      </trkpt>
      <trkpt lat="44.88405" lon="5.69048">
        <ele>556.4</ele>
        <time>2023-05-16T10:48:49.480Z</time>
      </trkpt>
      <trkpt lat="44.88401" lon="5.69041">
        <ele>555.3</ele>
        <time>2023-05-16T10:48:51.468Z</time>
      </trkpt>
      <trkpt lat="44.88398" lon="5.69034">
        <ele>554.1</ele>
        <time>2023-05-16T10:48:53.276Z</time>
      </trkpt>
      <trkpt lat="44.88394" lon="5.69028">
        <ele>552.7</ele>
        <time>2023-05-16T10:48:55.096Z</time>
      </trkpt>
      <trkpt lat="44.8839" lon="5.69021">
        <ele>551.6</ele>
        <time>2023-05-16T10:48:57.084Z</time>
      </trkpt>
      <trkpt lat="44.88387" lon="5.69013">
        <ele>550.8</ele>
        <time>2023-05-16T10:48:59.084Z</time>
      </trkpt>
      <trkpt lat="44.88383" lon="5.69007">
        <ele>550.2</ele>
        <time>2023-05-16T10:49:00.904Z</time>
      </trkpt>
      <trkpt lat="44.8838" lon="5.69002">
        <ele>549.4</ele>
        <time>2023-05-16T10:49:02.352Z</time>
      </trkpt>
      <trkpt lat="44.88376" lon="5.68997">
        <ele>548.3</ele>
        <time>2023-05-16T10:49:04.019Z</time>
      </trkpt>
      <trkpt lat="44.88371" lon="5.68993">
        <ele>547.2</ele>
        <time>2023-05-16T10:49:05.812Z</time>
      </trkpt>
      <trkpt lat="44.88367" lon="5.68989">
        <ele>546.2</ele>
        <time>2023-05-16T10:49:07.341Z</time>
      </trkpt>
      <trkpt lat="44.88363" lon="5.68984">
        <ele>545.1</ele>
        <time>2023-05-16T10:49:09.007Z</time>
      </trkpt>
      <trkpt lat="44.88361" lon="5.68978">
        <ele>544.2</ele>
        <time>2023-05-16T10:49:10.473Z</time>
      </trkpt>
      <trkpt lat="44.88359" lon="5.68971">
        <ele>543.2</ele>
        <time>2023-05-16T10:49:12.140Z</time>
      </trkpt>
      <trkpt lat="44.88357" lon="5.68964">
        <ele>542.4</ele>
        <time>2023-05-16T10:49:13.808Z</time>
      </trkpt>
      <trkpt lat="44.88354" lon="5.68958">
        <ele>541.4</ele>
        <time>2023-05-16T10:49:15.431Z</time>
      </trkpt>
      <trkpt lat="44.8835" lon="5.68953">
        <ele>540.5</ele>
        <time>2023-05-16T10:49:17.098Z</time>
      </trkpt>
      <trkpt lat="44.88346" lon="5.68948">
        <ele>539.5</ele>
        <time>2023-05-16T10:49:18.764Z</time>
      </trkpt>
      <trkpt lat="44.88342" lon="5.68944">
        <ele>538.5</ele>
        <time>2023-05-16T10:49:20.294Z</time>
      </trkpt>
      <trkpt lat="44.8834" lon="5.6894">
        <ele>537.5</ele>
        <time>2023-05-16T10:49:21.375Z</time>
      </trkpt>
      <trkpt lat="44.8834" lon="5.68935">
        <ele>536.9</ele>
        <time>2023-05-16T10:49:22.480Z</time>
      </trkpt>
      <trkpt lat="44.88339" lon="5.6893">
        <ele>536.3</ele>
        <time>2023-05-16T10:49:23.629Z</time>
      </trkpt>
      <trkpt lat="44.88339" lon="5.68924">
        <ele>535.6</ele>
        <time>2023-05-16T10:49:24.955Z</time>
      </trkpt>
      <trkpt lat="44.88337" lon="5.68919">
        <ele>534.8</ele>
        <time>2023-05-16T10:49:26.223Z</time>
      </trkpt>
      <trkpt lat="44.88336" lon="5.68914">
        <ele>533.1</ele>
        <time>2023-05-16T10:49:27.372Z</time>
      </trkpt>
      <trkpt lat="44.88334" lon="5.6891">
        <ele>532</ele>
        <time>2023-05-16T10:49:28.453Z</time>
      </trkpt>
      <trkpt lat="44.88331" lon="5.68905">
        <ele>530.6</ele>
        <time>2023-05-16T10:49:29.901Z</time>
      </trkpt>
      <trkpt lat="44.88328" lon="5.68896">
        <ele>528.3</ele>
        <time>2023-05-16T10:49:32.099Z</time>
      </trkpt>
      <trkpt lat="44.88324" lon="5.68889">
        <ele>525.8</ele>
        <time>2023-05-16T10:49:34.087Z</time>
      </trkpt>
      <trkpt lat="44.8832" lon="5.68881">
        <ele>523.4</ele>
        <time>2023-05-16T10:49:36.251Z</time>
      </trkpt>
      <trkpt lat="44.88317" lon="5.68873">
        <ele>520.9</ele>
        <time>2023-05-16T10:49:38.251Z</time>
      </trkpt>
      <trkpt lat="44.88314" lon="5.68867">
        <ele>518.8</ele>
        <time>2023-05-16T10:49:39.874Z</time>
      </trkpt>
      <trkpt lat="44.8831" lon="5.68863">
        <ele>517.4</ele>
        <time>2023-05-16T10:49:41.403Z</time>
      </trkpt>
      <trkpt lat="44.88304" lon="5.68859">
        <ele>514.1</ele>
        <time>2023-05-16T10:49:43.473Z</time>
      </trkpt>
      <trkpt lat="44.88297" lon="5.68858">
        <ele>512.3</ele>
        <time>2023-05-16T10:49:45.667Z</time>
      </trkpt>
      <trkpt lat="44.8829" lon="5.68858">
        <ele>510.4</ele>
        <time>2023-05-16T10:49:47.850Z</time>
      </trkpt>
      <trkpt lat="44.88281" lon="5.68859">
        <ele>508.1</ele>
        <time>2023-05-16T10:49:50.666Z</time>
      </trkpt>
      <trkpt lat="44.88272" lon="5.68859">
        <ele>506.3</ele>
        <time>2023-05-16T10:49:53.473Z</time>
      </trkpt>
      <trkpt lat="44.88263" lon="5.68862">
        <ele>504.2</ele>
        <time>2023-05-16T10:49:56.357Z</time>
      </trkpt>
      <trkpt lat="44.88254" lon="5.68869">
        <ele>503.1</ele>
        <time>2023-05-16T10:49:59.563Z</time>
      </trkpt>
      <trkpt lat="44.88246" lon="5.68877">
        <ele>501.2</ele>
        <time>2023-05-16T10:50:02.621Z</time>
      </trkpt>
      <trkpt lat="44.88239" lon="5.68882">
        <ele>500.5</ele>
        <time>2023-05-16T10:50:05.068Z</time>
      </trkpt>
      <trkpt lat="44.88232" lon="5.68884">
        <ele>499.2</ele>
        <time>2023-05-16T10:50:07.295Z</time>
      </trkpt>
      <trkpt lat="44.88225" lon="5.68885">
        <ele>497.6</ele>
        <time>2023-05-16T10:50:09.490Z</time>
      </trkpt>
      <trkpt lat="44.88217" lon="5.68884">
        <ele>495.8</ele>
        <time>2023-05-16T10:50:11.995Z</time>
      </trkpt>
      <trkpt lat="44.88211" lon="5.68884">
        <ele>494.7</ele>
        <time>2023-05-16T10:50:13.866Z</time>
      </trkpt>
      <trkpt lat="44.88207" lon="5.68883">
        <ele>494</ele>
        <time>2023-05-16T10:50:15.133Z</time>
      </trkpt>
      <trkpt lat="44.88203" lon="5.68883">
        <ele>493.3</ele>
        <time>2023-05-16T10:50:16.381Z</time>
      </trkpt>
      <trkpt lat="44.88204" lon="5.68879">
        <ele>493</ele>
        <time>2023-05-16T10:50:17.318Z</time>
      </trkpt>
      <trkpt lat="44.88208" lon="5.68878">
        <ele>493.2</ele>
        <time>2023-05-16T10:50:19.011Z</time>
      </trkpt>
      <trkpt lat="44.8821" lon="5.6888">
        <ele>493.4</ele>
        <time>2023-05-16T10:50:20.149Z</time>
      </trkpt>
      <trkpt lat="44.88207" lon="5.68879">
        <ele>493.7</ele>
        <time>2023-05-16T10:50:21.660Z</time>
      </trkpt>
      <trkpt lat="44.88204" lon="5.68881">
        <ele>493.9</ele>
        <time>2023-05-16T10:50:23.094Z</time>
      </trkpt>
      <trkpt lat="44.88202" lon="5.68884">
        <ele>494.1</ele>
        <time>2023-05-16T10:50:24.391Z</time>
      </trkpt>
      <trkpt lat="44.88199" lon="5.68889">
        <ele>494.4</ele>
        <time>2023-05-16T10:50:26.427Z</time>
      </trkpt>
      <trkpt lat="44.88197" lon="5.68896">
        <ele>494.8</ele>
        <time>2023-05-16T10:50:28.853Z</time>
      </trkpt>
      <trkpt lat="44.88196" lon="5.68903">
        <ele>495.1</ele>
        <time>2023-05-16T10:50:31.033Z</time>
      </trkpt>
      <trkpt lat="44.88196" lon="5.68909">
        <ele>495.4</ele>
        <time>2023-05-16T10:50:32.935Z</time>
      </trkpt>
      <trkpt lat="44.88195" lon="5.68914">
        <ele>495.7</ele>
        <time>2023-05-16T10:50:34.644Z</time>
      </trkpt>
      <trkpt lat="44.88194" lon="5.68921">
        <ele>496</ele>
        <time>2023-05-16T10:50:36.823Z</time>
      </trkpt>
      <trkpt lat="44.88193" lon="5.68928">
        <ele>495.3</ele>
        <time>2023-05-16T10:50:38.402Z</time>
      </trkpt>
      <trkpt lat="44.88192" lon="5.68932">
        <ele>495</ele>
        <time>2023-05-16T10:50:39.339Z</time>
      </trkpt>
      <trkpt lat="44.88192" lon="5.68941">
        <ele>494.3</ele>
        <time>2023-05-16T10:50:41.328Z</time>
      </trkpt>
      <trkpt lat="44.88192" lon="5.68945">
        <ele>494</ele>
        <time>2023-05-16T10:50:42.212Z</time>
      </trkpt>
      <trkpt lat="44.88191" lon="5.68953">
        <ele>493.4</ele>
        <time>2023-05-16T10:50:44.007Z</time>
      </trkpt>
      <trkpt lat="44.8819" lon="5.68957">
        <ele>493</ele>
        <time>2023-05-16T10:50:44.945Z</time>
      </trkpt>
      <trkpt lat="44.88188" lon="5.68961">
        <ele>492.7</ele>
        <time>2023-05-16T10:50:46.027Z</time>
      </trkpt>
      <trkpt lat="44.88186" lon="5.68965">
        <ele>492.3</ele>
        <time>2023-05-16T10:50:47.109Z</time>
      </trkpt>
      <trkpt lat="44.88185" lon="5.68968">
        <ele>492</ele>
        <time>2023-05-16T10:50:47.841Z</time>
      </trkpt>
      <trkpt lat="44.88183" lon="5.68971">
        <ele>491.7</ele>
        <time>2023-05-16T10:50:48.752Z</time>
      </trkpt>
      <trkpt lat="44.8818" lon="5.68976">
        <ele>490.9</ele>
        <time>2023-05-16T10:50:50.200Z</time>
      </trkpt>
      <trkpt lat="44.88177" lon="5.6898">
        <ele>490.5</ele>
        <time>2023-05-16T10:50:51.487Z</time>
      </trkpt>
      <trkpt lat="44.88175" lon="5.68983">
        <ele>490.1</ele>
        <time>2023-05-16T10:50:52.397Z</time>
      </trkpt>
      <trkpt lat="44.88171" lon="5.68984">
        <ele>489.8</ele>
        <time>2023-05-16T10:50:53.664Z</time>
      </trkpt>
      <trkpt lat="44.88168" lon="5.68984">
        <ele>489.5</ele>
        <time>2023-05-16T10:50:54.600Z</time>
      </trkpt>
      <trkpt lat="44.88163" lon="5.68983">
        <ele>489.2</ele>
        <time>2023-05-16T10:50:56.175Z</time>
      </trkpt>
      <trkpt lat="44.88161" lon="5.68982">
        <ele>489</ele>
        <time>2023-05-16T10:50:56.837Z</time>
      </trkpt>
      <trkpt lat="44.88157" lon="5.68982">
        <ele>488.8</ele>
        <time>2023-05-16T10:50:58.084Z</time>
      </trkpt>
      <trkpt lat="44.88154" lon="5.68981">
        <ele>488.5</ele>
        <time>2023-05-16T10:50:59.046Z</time>
      </trkpt>
      <trkpt lat="44.8815" lon="5.68981">
        <ele>488.3</ele>
        <time>2023-05-16T10:51:00.293Z</time>
      </trkpt>
      <trkpt lat="44.88146" lon="5.6898">
        <ele>488.2</ele>
        <time>2023-05-16T10:51:01.637Z</time>
      </trkpt>
      <trkpt lat="44.88142" lon="5.68979">
        <ele>488.5</ele>
        <time>2023-05-16T10:51:03.475Z</time>
      </trkpt>
      <trkpt lat="44.88137" lon="5.68976">
        <ele>489.4</ele>
        <time>2023-05-16T10:51:06.886Z</time>
      </trkpt>
      <trkpt lat="44.88133" lon="5.68973">
        <ele>490</ele>
        <time>2023-05-16T10:51:09.402Z</time>
      </trkpt>
      <trkpt lat="44.88128" lon="5.68968">
        <ele>490.6</ele>
        <time>2023-05-16T10:51:12.412Z</time>
      </trkpt>
      <trkpt lat="44.88124" lon="5.68962">
        <ele>491.5</ele>
        <time>2023-05-16T10:51:15.923Z</time>
      </trkpt>
      <trkpt lat="44.8812" lon="5.68955">
        <ele>492.7</ele>
        <time>2023-05-16T10:51:20.286Z</time>
      </trkpt>
      <trkpt lat="44.88113" lon="5.68951">
        <ele>493.8</ele>
        <time>2023-05-16T10:51:24.688Z</time>
      </trkpt>
      <trkpt lat="44.88106" lon="5.68947">
        <ele>493.5</ele>
        <time>2023-05-16T10:51:27.077Z</time>
      </trkpt>
      <trkpt lat="44.88099" lon="5.68943">
        <ele>492.3</ele>
        <time>2023-05-16T10:51:29.433Z</time>
      </trkpt>
      <trkpt lat="44.88092" lon="5.68939">
        <ele>490.8</ele>
        <time>2023-05-16T10:51:31.788Z</time>
      </trkpt>
      <trkpt lat="44.88087" lon="5.68938">
        <ele>488.7</ele>
        <time>2023-05-16T10:51:33.363Z</time>
      </trkpt>
      <trkpt lat="44.88082" lon="5.68938">
        <ele>486.1</ele>
        <time>2023-05-16T10:51:34.923Z</time>
      </trkpt>
      <trkpt lat="44.88077" lon="5.68938">
        <ele>484.2</ele>
        <time>2023-05-16T10:51:36.482Z</time>
      </trkpt>
      <trkpt lat="44.88074" lon="5.68938">
        <ele>484.1</ele>
        <time>2023-05-16T10:51:37.449Z</time>
      </trkpt>
      <trkpt lat="44.88068" lon="5.68935">
        <ele>484</ele>
        <time>2023-05-16T10:51:39.612Z</time>
      </trkpt>
      <trkpt lat="44.88065" lon="5.68934">
        <ele>484</ele>
        <time>2023-05-16T10:51:40.711Z</time>
      </trkpt>
      <trkpt lat="44.88062" lon="5.68933">
        <ele>481.1</ele>
        <time>2023-05-16T10:51:41.672Z</time>
      </trkpt>
      <trkpt lat="44.88058" lon="5.68933">
        <ele>480.2</ele>
        <time>2023-05-16T10:51:42.920Z</time>
      </trkpt>
      <trkpt lat="44.88056" lon="5.68935">
        <ele>481.3</ele>
        <time>2023-05-16T10:51:47.507Z</time>
      </trkpt>
      <trkpt lat="44.88059" lon="5.68934">
        <ele>480.6</ele>
        <time>2023-05-16T10:51:48.469Z</time>
      </trkpt>
      <trkpt lat="44.88056" lon="5.68934">
        <ele>479.6</ele>
        <time>2023-05-16T10:51:49.404Z</time>
      </trkpt>
      <trkpt lat="44.88053" lon="5.68935">
        <ele>478.5</ele>
        <time>2023-05-16T10:51:50.366Z</time>
      </trkpt>
      <trkpt lat="44.88053" lon="5.6894">
        <ele>480.2</ele>
        <time>2023-05-16T10:51:56.996Z</time>
      </trkpt>
      <trkpt lat="44.88054" lon="5.68944">
        <ele>482.3</ele>
        <time>2023-05-16T10:52:02.620Z</time>
      </trkpt>
      <trkpt lat="44.88056" lon="5.68947">
        <ele>484.7</ele>
        <time>2023-05-16T10:52:08.082Z</time>
      </trkpt>
      <trkpt lat="44.88058" lon="5.6895">
        <ele>487.1</ele>
        <time>2023-05-16T10:52:13.544Z</time>
      </trkpt>
      <trkpt lat="44.8806" lon="5.68956">
        <ele>488.9</ele>
        <time>2023-05-16T10:52:20.653Z</time>
      </trkpt>
      <trkpt lat="44.88061" lon="5.6896">
        <ele>490.6</ele>
        <time>2023-05-16T10:52:26.277Z</time>
      </trkpt>
      <trkpt lat="44.88062" lon="5.68964">
        <ele>491.4</ele>
        <time>2023-05-16T10:52:29.090Z</time>
      </trkpt>
      <trkpt lat="44.88063" lon="5.68968">
        <ele>491.8</ele>
        <time>2023-05-16T10:52:30.763Z</time>
      </trkpt>
      <trkpt lat="44.88064" lon="5.68972">
        <ele>491.5</ele>
        <time>2023-05-16T10:52:31.700Z</time>
      </trkpt>
      <trkpt lat="44.88065" lon="5.68976">
        <ele>490.8</ele>
        <time>2023-05-16T10:52:32.638Z</time>
      </trkpt>
      <trkpt lat="44.88066" lon="5.68981">
        <ele>490.3</ele>
        <time>2023-05-16T10:52:33.786Z</time>
      </trkpt>
      <trkpt lat="44.88067" lon="5.68984">
        <ele>489.4</ele>
        <time>2023-05-16T10:52:34.519Z</time>
      </trkpt>
      <trkpt lat="44.88065" lon="5.68988">
        <ele>489.4</ele>
        <time>2023-05-16T10:52:35.755Z</time>
      </trkpt>
      <trkpt lat="44.8806" lon="5.6899">
        <ele>489.5</ele>
        <time>2023-05-16T10:52:37.722Z</time>
      </trkpt>
      <trkpt lat="44.88055" lon="5.68991">
        <ele>489.5</ele>
        <time>2023-05-16T10:52:39.522Z</time>
      </trkpt>
      <trkpt lat="44.88052" lon="5.68992">
        <ele>489.5</ele>
        <time>2023-05-16T10:52:40.621Z</time>
      </trkpt>
      <trkpt lat="44.88047" lon="5.68992">
        <ele>489.5</ele>
        <time>2023-05-16T10:52:42.403Z</time>
      </trkpt>
      <trkpt lat="44.88044" lon="5.68993">
        <ele>489.5</ele>
        <time>2023-05-16T10:52:43.502Z</time>
      </trkpt>
      <trkpt lat="44.88041" lon="5.68993">
        <ele>489.6</ele>
        <time>2023-05-16T10:52:44.690Z</time>
      </trkpt>
      <trkpt lat="44.88038" lon="5.68994">
        <ele>489.6</ele>
        <time>2023-05-16T10:52:45.788Z</time>
      </trkpt>
      <trkpt lat="44.88035" lon="5.68995">
        <ele>489.6</ele>
        <time>2023-05-16T10:52:46.887Z</time>
      </trkpt>
      <trkpt lat="44.88032" lon="5.68996">
        <ele>489.6</ele>
        <time>2023-05-16T10:52:47.986Z</time>
      </trkpt>
      <trkpt lat="44.88029" lon="5.68998">
        <ele>489.6</ele>
        <time>2023-05-16T10:52:49.169Z</time>
      </trkpt>
      <trkpt lat="44.88026" lon="5.68999">
        <ele>489.6</ele>
        <time>2023-05-16T10:52:50.267Z</time>
      </trkpt>
      <trkpt lat="44.88023" lon="5.69001">
        <ele>489.7</ele>
        <time>2023-05-16T10:52:51.567Z</time>
      </trkpt>
      <trkpt lat="44.88017" lon="5.69003">
        <ele>489.7</ele>
        <time>2023-05-16T10:52:53.765Z</time>
      </trkpt>
      <trkpt lat="44.88014" lon="5.69003">
        <ele>489.7</ele>
        <time>2023-05-16T10:52:54.834Z</time>
      </trkpt>
      <trkpt lat="44.8801" lon="5.69004">
        <ele>489.7</ele>
        <time>2023-05-16T10:52:56.282Z</time>
      </trkpt>
      <trkpt lat="44.88004" lon="5.69005">
        <ele>489.8</ele>
        <time>2023-05-16T10:52:58.550Z</time>
      </trkpt>
      <trkpt lat="44.87999" lon="5.69007">
        <ele>489.8</ele>
        <time>2023-05-16T10:53:00.402Z</time>
      </trkpt>
      <trkpt lat="44.87995" lon="5.6901">
        <ele>489.9</ele>
        <time>2023-05-16T10:53:02.132Z</time>
      </trkpt>
      <trkpt lat="44.8799" lon="5.69011">
        <ele>489.9</ele>
        <time>2023-05-16T10:53:03.932Z</time>
      </trkpt>
      <trkpt lat="44.87985" lon="5.69012">
        <ele>489.9</ele>
        <time>2023-05-16T10:53:05.732Z</time>
      </trkpt>
      <trkpt lat="44.8798" lon="5.69015">
        <ele>490</ele>
        <time>2023-05-16T10:53:07.783Z</time>
      </trkpt>
      <trkpt lat="44.87976" lon="5.69017">
        <ele>490</ele>
        <time>2023-05-16T10:53:09.296Z</time>
      </trkpt>
      <trkpt lat="44.87972" lon="5.69019">
        <ele>490</ele>
        <time>2023-05-16T10:53:10.808Z</time>
      </trkpt>
      <trkpt lat="44.87967" lon="5.69021">
        <ele>490</ele>
        <time>2023-05-16T10:53:12.661Z</time>
      </trkpt>
      <trkpt lat="44.87963" lon="5.69024">
        <ele>490.1</ele>
        <time>2023-05-16T10:53:14.391Z</time>
      </trkpt>
      <trkpt lat="44.8796" lon="5.69027">
        <ele>490.1</ele>
        <time>2023-05-16T10:53:15.701Z</time>
      </trkpt>
      <trkpt lat="44.87957" lon="5.69031">
        <ele>490.1</ele>
        <time>2023-05-16T10:53:17.173Z</time>
      </trkpt>
      <trkpt lat="44.87954" lon="5.69033">
        <ele>490.2</ele>
        <time>2023-05-16T10:53:18.472Z</time>
      </trkpt>
      <trkpt lat="44.8795" lon="5.69035">
        <ele>490.2</ele>
        <time>2023-05-16T10:53:19.985Z</time>
      </trkpt>
      <trkpt lat="44.87947" lon="5.69037">
        <ele>490.2</ele>
        <time>2023-05-16T10:53:21.168Z</time>
      </trkpt>
      <trkpt lat="44.87944" lon="5.69039">
        <ele>490.3</ele>
        <time>2023-05-16T10:53:22.468Z</time>
      </trkpt>
      <trkpt lat="44.87941" lon="5.69041">
        <ele>490.3</ele>
        <time>2023-05-16T10:53:23.650Z</time>
      </trkpt>
      <trkpt lat="44.87937" lon="5.69042">
        <ele>490.3</ele>
        <time>2023-05-16T10:53:25.099Z</time>
      </trkpt>
      <trkpt lat="44.87934" lon="5.69043">
        <ele>490.4</ele>
        <time>2023-05-16T10:53:26.315Z</time>
      </trkpt>
      <trkpt lat="44.87932" lon="5.69045">
        <ele>490.4</ele>
        <time>2023-05-16T10:53:27.189Z</time>
      </trkpt>
      <trkpt lat="44.87928" lon="5.69048">
        <ele>490.4</ele>
        <time>2023-05-16T10:53:28.804Z</time>
      </trkpt>
      <trkpt lat="44.87924" lon="5.6905">
        <ele>490.5</ele>
        <time>2023-05-16T10:53:30.432Z</time>
      </trkpt>
      <trkpt lat="44.87921" lon="5.69051">
        <ele>490.5</ele>
        <time>2023-05-16T10:53:31.531Z</time>
      </trkpt>
      <trkpt lat="44.87916" lon="5.69053">
        <ele>490.5</ele>
        <time>2023-05-16T10:53:33.383Z</time>
      </trkpt>
      <trkpt lat="44.87913" lon="5.69057">
        <ele>490.5</ele>
        <time>2023-05-16T10:53:34.854Z</time>
      </trkpt>
      <trkpt lat="44.87909" lon="5.69059">
        <ele>490.6</ele>
        <time>2023-05-16T10:53:36.482Z</time>
      </trkpt>
      <trkpt lat="44.87904" lon="5.69062">
        <ele>490.6</ele>
        <time>2023-05-16T10:53:38.419Z</time>
      </trkpt>
      <trkpt lat="44.87902" lon="5.69063">
        <ele>490.6</ele>
        <time>2023-05-16T10:53:39.176Z</time>
      </trkpt>
      <trkpt lat="44.87897" lon="5.69067">
        <ele>490.6</ele>
        <time>2023-05-16T10:53:41.224Z</time>
      </trkpt>
      <trkpt lat="44.87894" lon="5.6907">
        <ele>490.6</ele>
        <time>2023-05-16T10:53:42.535Z</time>
      </trkpt>
      <trkpt lat="44.8789" lon="5.69074">
        <ele>490.7</ele>
        <time>2023-05-16T10:53:44.397Z</time>
      </trkpt>
      <trkpt lat="44.87887" lon="5.69076">
        <ele>490.7</ele>
        <time>2023-05-16T10:53:45.580Z</time>
      </trkpt>
      <trkpt lat="44.87883" lon="5.69078">
        <ele>490.7</ele>
        <time>2023-05-16T10:53:47.092Z</time>
      </trkpt>
      <trkpt lat="44.87879" lon="5.69081">
        <ele>490.7</ele>
        <time>2023-05-16T10:53:48.707Z</time>
      </trkpt>
      <trkpt lat="44.87875" lon="5.69084">
        <ele>490.7</ele>
        <time>2023-05-16T10:53:50.322Z</time>
      </trkpt>
      <trkpt lat="44.87872" lon="5.69086">
        <ele>490.8</ele>
        <time>2023-05-16T10:53:51.622Z</time>
      </trkpt>
      <trkpt lat="44.87868" lon="5.69088">
        <ele>490.8</ele>
        <time>2023-05-16T10:53:53.134Z</time>
      </trkpt>
      <trkpt lat="44.87863" lon="5.6909">
        <ele>490.8</ele>
        <time>2023-05-16T10:53:54.987Z</time>
      </trkpt>
      <trkpt lat="44.87859" lon="5.69093">
        <ele>490.8</ele>
        <time>2023-05-16T10:53:56.602Z</time>
      </trkpt>
      <trkpt lat="44.87854" lon="5.69096">
        <ele>490.8</ele>
        <time>2023-05-16T10:53:58.538Z</time>
      </trkpt>
      <trkpt lat="44.87851" lon="5.69099">
        <ele>490.9</ele>
        <time>2023-05-16T10:53:59.965Z</time>
      </trkpt>
      <trkpt lat="44.87847" lon="5.69102">
        <ele>490.9</ele>
        <time>2023-05-16T10:54:01.580Z</time>
      </trkpt>
      <trkpt lat="44.87843" lon="5.69105">
        <ele>490.9</ele>
        <time>2023-05-16T10:54:03.195Z</time>
      </trkpt>
      <trkpt lat="44.87839" lon="5.69107">
        <ele>490.9</ele>
        <time>2023-05-16T10:54:04.707Z</time>
      </trkpt>
      <trkpt lat="44.87836" lon="5.69108">
        <ele>490.9</ele>
        <time>2023-05-16T10:54:05.806Z</time>
      </trkpt>
      <trkpt lat="44.87834" lon="5.6911">
        <ele>490.9</ele>
        <time>2023-05-16T10:54:06.680Z</time>
      </trkpt>
      <trkpt lat="44.87831" lon="5.69112">
        <ele>490.9</ele>
        <time>2023-05-16T10:54:07.863Z</time>
      </trkpt>
      <trkpt lat="44.87829" lon="5.69114">
        <ele>490.9</ele>
        <time>2023-05-16T10:54:08.736Z</time>
      </trkpt>
      <trkpt lat="44.87826" lon="5.69116">
        <ele>491</ele>
        <time>2023-05-16T10:54:10.036Z</time>
      </trkpt>
      <trkpt lat="44.87822" lon="5.69119">
        <ele>491</ele>
        <time>2023-05-16T10:54:11.651Z</time>
      </trkpt>
      <trkpt lat="44.87817" lon="5.69122">
        <ele>491</ele>
        <time>2023-05-16T10:54:13.588Z</time>
      </trkpt>
      <trkpt lat="44.87812" lon="5.69126">
        <ele>490.9</ele>
        <time>2023-05-16T10:54:15.531Z</time>
      </trkpt>
      <trkpt lat="44.8781" lon="5.69128">
        <ele>490.7</ele>
        <time>2023-05-16T10:54:16.295Z</time>
      </trkpt>
      <trkpt lat="44.87807" lon="5.69129">
        <ele>490.6</ele>
        <time>2023-05-16T10:54:17.292Z</time>
      </trkpt>
      <trkpt lat="44.87805" lon="5.69131">
        <ele>490.5</ele>
        <time>2023-05-16T10:54:18.065Z</time>
      </trkpt>
      <trkpt lat="44.87802" lon="5.69133">
        <ele>490.4</ele>
        <time>2023-05-16T10:54:19.144Z</time>
      </trkpt>
      <trkpt lat="44.87798" lon="5.69136">
        <ele>490.1</ele>
        <time>2023-05-16T10:54:20.557Z</time>
      </trkpt>
      <trkpt lat="44.87793" lon="5.69139">
        <ele>489.9</ele>
        <time>2023-05-16T10:54:22.291Z</time>
      </trkpt>
      <trkpt lat="44.87788" lon="5.69142">
        <ele>489.7</ele>
        <time>2023-05-16T10:54:24.024Z</time>
      </trkpt>
      <trkpt lat="44.87786" lon="5.69144">
        <ele>489.5</ele>
        <time>2023-05-16T10:54:24.789Z</time>
      </trkpt>
      <trkpt lat="44.87781" lon="5.69147">
        <ele>489.3</ele>
        <time>2023-05-16T10:54:26.523Z</time>
      </trkpt>
      <trkpt lat="44.87778" lon="5.69148">
        <ele>489.2</ele>
        <time>2023-05-16T10:54:27.519Z</time>
      </trkpt>
      <trkpt lat="44.87776" lon="5.6915">
        <ele>489.1</ele>
        <time>2023-05-16T10:54:28.292Z</time>
      </trkpt>
      <trkpt lat="44.87771" lon="5.69153">
        <ele>488.8</ele>
        <time>2023-05-16T10:54:29.987Z</time>
      </trkpt>
      <trkpt lat="44.87768" lon="5.69155">
        <ele>488.6</ele>
        <time>2023-05-16T10:54:31.021Z</time>
      </trkpt>
      <trkpt lat="44.87766" lon="5.69157">
        <ele>488.5</ele>
        <time>2023-05-16T10:54:31.794Z</time>
      </trkpt>
      <trkpt lat="44.87763" lon="5.69159">
        <ele>488.3</ele>
        <time>2023-05-16T10:54:32.829Z</time>
      </trkpt>
      <trkpt lat="44.8776" lon="5.69161">
        <ele>488.1</ele>
        <time>2023-05-16T10:54:33.864Z</time>
      </trkpt>
      <trkpt lat="44.87757" lon="5.69162">
        <ele>488</ele>
        <time>2023-05-16T10:54:34.861Z</time>
      </trkpt>
      <trkpt lat="44.87754" lon="5.69164">
        <ele>487.8</ele>
        <time>2023-05-16T10:54:35.895Z</time>
      </trkpt>
      <trkpt lat="44.87752" lon="5.69166">
        <ele>487.7</ele>
        <time>2023-05-16T10:54:36.668Z</time>
      </trkpt>
      <trkpt lat="44.8775" lon="5.69168">
        <ele>487.6</ele>
        <time>2023-05-16T10:54:37.441Z</time>
      </trkpt>
      <trkpt lat="44.87748" lon="5.69171">
        <ele>487.4</ele>
        <time>2023-05-16T10:54:38.352Z</time>
      </trkpt>
      <trkpt lat="44.87746" lon="5.69173">
        <ele>487.1</ele>
        <time>2023-05-16T10:54:39.116Z</time>
      </trkpt>
      <trkpt lat="44.87741" lon="5.69178">
        <ele>486.6</ele>
        <time>2023-05-16T10:54:41.028Z</time>
      </trkpt>
      <trkpt lat="44.87739" lon="5.69181">
        <ele>486.4</ele>
        <time>2023-05-16T10:54:41.938Z</time>
      </trkpt>
      <trkpt lat="44.87737" lon="5.69184">
        <ele>486.3</ele>
        <time>2023-05-16T10:54:42.876Z</time>
      </trkpt>
      <trkpt lat="44.87734" lon="5.69191">
        <ele>485.9</ele>
        <time>2023-05-16T10:54:44.684Z</time>
      </trkpt>
      <trkpt lat="44.87733" lon="5.69194">
        <ele>485.8</ele>
        <time>2023-05-16T10:54:45.422Z</time>
      </trkpt>
      <trkpt lat="44.87731" lon="5.69198">
        <ele>485.6</ele>
        <time>2023-05-16T10:54:46.504Z</time>
      </trkpt>
      <trkpt lat="44.8773" lon="5.69202">
        <ele>485.4</ele>
        <time>2023-05-16T10:54:47.441Z</time>
      </trkpt>
      <trkpt lat="44.87728" lon="5.69206">
        <ele>485.2</ele>
        <time>2023-05-16T10:54:48.523Z</time>
      </trkpt>
      <trkpt lat="44.87727" lon="5.6921">
        <ele>484.9</ele>
        <time>2023-05-16T10:54:49.460Z</time>
      </trkpt>
      <trkpt lat="44.87726" lon="5.69213">
        <ele>484.7</ele>
        <time>2023-05-16T10:54:50.193Z</time>
      </trkpt>
      <trkpt lat="44.87725" lon="5.69218">
        <ele>484.3</ele>
        <time>2023-05-16T10:54:51.341Z</time>
      </trkpt>
      <trkpt lat="44.87724" lon="5.69223">
        <ele>484</ele>
        <time>2023-05-16T10:54:52.490Z</time>
      </trkpt>
      <trkpt lat="44.87723" lon="5.69228">
        <ele>483.7</ele>
        <time>2023-05-16T10:54:53.638Z</time>
      </trkpt>
      <trkpt lat="44.87722" lon="5.69233">
        <ele>483.3</ele>
        <time>2023-05-16T10:54:54.786Z</time>
      </trkpt>
      <trkpt lat="44.87721" lon="5.69238">
        <ele>483.1</ele>
        <time>2023-05-16T10:54:55.935Z</time>
      </trkpt>
      <trkpt lat="44.8772" lon="5.69243">
        <ele>482.9</ele>
        <time>2023-05-16T10:54:57.083Z</time>
      </trkpt>
      <trkpt lat="44.87719" lon="5.69249">
        <ele>482.6</ele>
        <time>2023-05-16T10:54:58.445Z</time>
      </trkpt>
      <trkpt lat="44.87718" lon="5.69255">
        <ele>482.3</ele>
        <time>2023-05-16T10:54:59.807Z</time>
      </trkpt>
      <trkpt lat="44.87717" lon="5.69261">
        <ele>482.1</ele>
        <time>2023-05-16T10:55:01.170Z</time>
      </trkpt>
      <trkpt lat="44.87716" lon="5.69266">
        <ele>482</ele>
        <time>2023-05-16T10:55:02.378Z</time>
      </trkpt>
      <trkpt lat="44.87715" lon="5.69272">
        <ele>482</ele>
        <time>2023-05-16T10:55:03.935Z</time>
      </trkpt>
      <trkpt lat="44.87714" lon="5.69278">
        <ele>482.1</ele>
        <time>2023-05-16T10:55:05.608Z</time>
      </trkpt>
      <trkpt lat="44.87713" lon="5.69284">
        <ele>482.1</ele>
        <time>2023-05-16T10:55:07.165Z</time>
      </trkpt>
      <trkpt lat="44.87711" lon="5.6929">
        <ele>482.1</ele>
        <time>2023-05-16T10:55:08.839Z</time>
      </trkpt>
      <trkpt lat="44.8771" lon="5.69295">
        <ele>482.1</ele>
        <time>2023-05-16T10:55:10.152Z</time>
      </trkpt>
      <trkpt lat="44.87709" lon="5.69301">
        <ele>482.1</ele>
        <time>2023-05-16T10:55:11.709Z</time>
      </trkpt>
      <trkpt lat="44.87708" lon="5.69307">
        <ele>482.2</ele>
        <time>2023-05-16T10:55:13.381Z</time>
      </trkpt>
      <trkpt lat="44.87706" lon="5.69317">
        <ele>482.2</ele>
        <time>2023-05-16T10:55:16.005Z</time>
      </trkpt>
      <trkpt lat="44.87705" lon="5.69321">
        <ele>482.2</ele>
        <time>2023-05-16T10:55:17.077Z</time>
      </trkpt>
      <trkpt lat="44.87703" lon="5.69326">
        <ele>482.3</ele>
        <time>2023-05-16T10:55:18.643Z</time>
      </trkpt>
      <trkpt lat="44.87702" lon="5.6933">
        <ele>482.3</ele>
        <time>2023-05-16T10:55:19.714Z</time>
      </trkpt>
      <trkpt lat="44.87701" lon="5.69335">
        <ele>482.3</ele>
        <time>2023-05-16T10:55:21.027Z</time>
      </trkpt>
      <trkpt lat="44.877" lon="5.6934">
        <ele>482.3</ele>
        <time>2023-05-16T10:55:22.339Z</time>
      </trkpt>
      <trkpt lat="44.87698" lon="5.69345">
        <ele>482.4</ele>
        <time>2023-05-16T10:55:23.905Z</time>
      </trkpt>
      <trkpt lat="44.87697" lon="5.69349">
        <ele>482.4</ele>
        <time>2023-05-16T10:55:24.977Z</time>
      </trkpt>
      <trkpt lat="44.87696" lon="5.69359">
        <ele>482.4</ele>
        <time>2023-05-16T10:55:27.527Z</time>
      </trkpt>
      <trkpt lat="44.87695" lon="5.69362">
        <ele>482.5</ele>
        <time>2023-05-16T10:55:28.486Z</time>
      </trkpt>
      <trkpt lat="44.87694" lon="5.69372">
        <ele>482.5</ele>
        <time>2023-05-16T10:55:31.036Z</time>
      </trkpt>
      <trkpt lat="44.87694" lon="5.69377">
        <ele>482.5</ele>
        <time>2023-05-16T10:55:32.299Z</time>
      </trkpt>
      <trkpt lat="44.87694" lon="5.69381">
        <ele>482.6</ele>
        <time>2023-05-16T10:55:33.428Z</time>
      </trkpt>
      <trkpt lat="44.87694" lon="5.69386">
        <ele>482.6</ele>
        <time>2023-05-16T10:55:34.691Z</time>
      </trkpt>
      <trkpt lat="44.87695" lon="5.69389">
        <ele>482.6</ele>
        <time>2023-05-16T10:55:35.529Z</time>
      </trkpt>
      <trkpt lat="44.87695" lon="5.69394">
        <ele>482.7</ele>
        <time>2023-05-16T10:55:36.909Z</time>
      </trkpt>
      <trkpt lat="44.87695" lon="5.69397">
        <ele>482.7</ele>
        <time>2023-05-16T10:55:37.666Z</time>
      </trkpt>
      <trkpt lat="44.87695" lon="5.69401">
        <ele>482.8</ele>
        <time>2023-05-16T10:55:38.795Z</time>
      </trkpt>
      <trkpt lat="44.87696" lon="5.69405">
        <ele>482.9</ele>
        <time>2023-05-16T10:55:39.985Z</time>
      </trkpt>
      <trkpt lat="44.87697" lon="5.69409">
        <ele>483</ele>
        <time>2023-05-16T10:55:41.174Z</time>
      </trkpt>
      <trkpt lat="44.87699" lon="5.69416">
        <ele>483.2</ele>
        <time>2023-05-16T10:55:43.319Z</time>
      </trkpt>
      <trkpt lat="44.87701" lon="5.69423">
        <ele>483.3</ele>
        <time>2023-05-16T10:55:45.340Z</time>
      </trkpt>
      <trkpt lat="44.87702" lon="5.69426">
        <ele>483.3</ele>
        <time>2023-05-16T10:55:46.177Z</time>
      </trkpt>
      <trkpt lat="44.87704" lon="5.6943">
        <ele>483.4</ele>
        <time>2023-05-16T10:55:47.531Z</time>
      </trkpt>
      <trkpt lat="44.87705" lon="5.69433">
        <ele>483.4</ele>
        <time>2023-05-16T10:55:48.368Z</time>
      </trkpt>
      <trkpt lat="44.87707" lon="5.69436">
        <ele>483.5</ele>
        <time>2023-05-16T10:55:49.527Z</time>
      </trkpt>
      <trkpt lat="44.87709" lon="5.69442">
        <ele>483.6</ele>
        <time>2023-05-16T10:55:51.317Z</time>
      </trkpt>
      <trkpt lat="44.87713" lon="5.69448">
        <ele>483.7</ele>
        <time>2023-05-16T10:55:53.512Z</time>
      </trkpt>
      <trkpt lat="44.87716" lon="5.69454">
        <ele>483.8</ele>
        <time>2023-05-16T10:55:55.481Z</time>
      </trkpt>
      <trkpt lat="44.87719" lon="5.6946">
        <ele>483.9</ele>
        <time>2023-05-16T10:55:57.450Z</time>
      </trkpt>
      <trkpt lat="44.87722" lon="5.69465">
        <ele>484</ele>
        <time>2023-05-16T10:55:59.220Z</time>
      </trkpt>
      <trkpt lat="44.87726" lon="5.69471">
        <ele>484.1</ele>
        <time>2023-05-16T10:56:01.415Z</time>
      </trkpt>
      <trkpt lat="44.87729" lon="5.69476">
        <ele>484.2</ele>
        <time>2023-05-16T10:56:03.185Z</time>
      </trkpt>
      <trkpt lat="44.87732" lon="5.69481">
        <ele>484.2</ele>
        <time>2023-05-16T10:56:04.840Z</time>
      </trkpt>
      <trkpt lat="44.87736" lon="5.69486">
        <ele>484.3</ele>
        <time>2023-05-16T10:56:06.859Z</time>
      </trkpt>
      <trkpt lat="44.87739" lon="5.69491">
        <ele>484.4</ele>
        <time>2023-05-16T10:56:08.629Z</time>
      </trkpt>
      <trkpt lat="44.87742" lon="5.69496">
        <ele>484.5</ele>
        <time>2023-05-16T10:56:10.399Z</time>
      </trkpt>
      <trkpt lat="44.87745" lon="5.69502">
        <ele>484.7</ele>
        <time>2023-05-16T10:56:12.492Z</time>
      </trkpt>
      <trkpt lat="44.87747" lon="5.69508">
        <ele>485.1</ele>
        <time>2023-05-16T10:56:14.701Z</time>
      </trkpt>
      <trkpt lat="44.87748" lon="5.69514">
        <ele>485.5</ele>
        <time>2023-05-16T10:56:16.800Z</time>
      </trkpt>
      <trkpt lat="44.87749" lon="5.69521">
        <ele>485.8</ele>
        <time>2023-05-16T10:56:18.979Z</time>
      </trkpt>
      <trkpt lat="44.87747" lon="5.69527">
        <ele>486</ele>
        <time>2023-05-16T10:56:20.896Z</time>
      </trkpt>
      <trkpt lat="44.87745" lon="5.69533">
        <ele>486.2</ele>
        <time>2023-05-16T10:56:22.812Z</time>
      </trkpt>
      <trkpt lat="44.87741" lon="5.69538">
        <ele>486.4</ele>
        <time>2023-05-16T10:56:24.955Z</time>
      </trkpt>
      <trkpt lat="44.87736" lon="5.69542">
        <ele>486.7</ele>
        <time>2023-05-16T10:56:27.374Z</time>
      </trkpt>
      <trkpt lat="44.87732" lon="5.69545">
        <ele>486.9</ele>
        <time>2023-05-16T10:56:29.230Z</time>
      </trkpt>
      <trkpt lat="44.87728" lon="5.69547">
        <ele>487.4</ele>
        <time>2023-05-16T10:56:31.466Z</time>
      </trkpt>
      <trkpt lat="44.87724" lon="5.69548">
        <ele>488.1</ele>
        <time>2023-05-16T10:56:34.082Z</time>
      </trkpt>
      <trkpt lat="44.87719" lon="5.69547">
        <ele>488.8</ele>
        <time>2023-05-16T10:56:36.950Z</time>
      </trkpt>
      <trkpt lat="44.87715" lon="5.69546">
        <ele>489.1</ele>
        <time>2023-05-16T10:56:38.788Z</time>
      </trkpt>
      <trkpt lat="44.87712" lon="5.69547">
        <ele>489.3</ele>
        <time>2023-05-16T10:56:40.141Z</time>
      </trkpt>
      <trkpt lat="44.87708" lon="5.69547">
        <ele>489.5</ele>
        <time>2023-05-16T10:56:41.812Z</time>
      </trkpt>
      <trkpt lat="44.87704" lon="5.69546">
        <ele>489.7</ele>
        <time>2023-05-16T10:56:43.505Z</time>
      </trkpt>
      <trkpt lat="44.877" lon="5.69546">
        <ele>489.8</ele>
        <time>2023-05-16T10:56:45.047Z</time>
      </trkpt>
      <trkpt lat="44.87696" lon="5.69546">
        <ele>489.9</ele>
        <time>2023-05-16T10:56:46.589Z</time>
      </trkpt>
      <trkpt lat="44.87692" lon="5.69545">
        <ele>490</ele>
        <time>2023-05-16T10:56:48.152Z</time>
      </trkpt>
      <trkpt lat="44.87689" lon="5.69545">
        <ele>490.2</ele>
        <time>2023-05-16T10:56:49.477Z</time>
      </trkpt>
      <trkpt lat="44.87685" lon="5.69546">
        <ele>490.3</ele>
        <time>2023-05-16T10:56:51.041Z</time>
      </trkpt>
      <trkpt lat="44.87682" lon="5.69546">
        <ele>490.5</ele>
        <time>2023-05-16T10:56:52.365Z</time>
      </trkpt>
      <trkpt lat="44.87679" lon="5.69547">
        <ele>490.6</ele>
        <time>2023-05-16T10:56:53.582Z</time>
      </trkpt>
      <trkpt lat="44.87675" lon="5.69547">
        <ele>490.7</ele>
        <time>2023-05-16T10:56:55.124Z</time>
      </trkpt>
      <trkpt lat="44.87672" lon="5.69547">
        <ele>491</ele>
        <time>2023-05-16T10:56:56.608Z</time>
      </trkpt>
      <trkpt lat="44.87669" lon="5.69546">
        <ele>491.3</ele>
        <time>2023-05-16T10:56:58.119Z</time>
      </trkpt>
      <trkpt lat="44.87665" lon="5.69543">
        <ele>490.8</ele>
        <time>2023-05-16T10:56:59.532Z</time>
      </trkpt>
      <trkpt lat="44.87662" lon="5.69539">
        <ele>488.8</ele>
        <time>2023-05-16T10:57:00.819Z</time>
      </trkpt>
      <trkpt lat="44.8766" lon="5.69536">
        <ele>489.2</ele>
        <time>2023-05-16T10:57:02.467Z</time>
      </trkpt>
      <trkpt lat="44.87656" lon="5.69535">
        <ele>489.7</ele>
        <time>2023-05-16T10:57:04.648Z</time>
      </trkpt>
      <trkpt lat="44.8765" lon="5.69539">
        <ele>490.4</ele>
        <time>2023-05-16T10:57:07.995Z</time>
      </trkpt>
      <trkpt lat="44.87646" lon="5.6954">
        <ele>490.6</ele>
        <time>2023-05-16T10:57:09.688Z</time>
      </trkpt>
      <trkpt lat="44.87643" lon="5.69541">
        <ele>490.7</ele>
        <time>2023-05-16T10:57:10.905Z</time>
      </trkpt>
      <trkpt lat="44.8764" lon="5.69544">
        <ele>490.9</ele>
        <time>2023-05-16T10:57:12.464Z</time>
      </trkpt>
      <trkpt lat="44.87637" lon="5.69549">
        <ele>491</ele>
        <time>2023-05-16T10:57:14.233Z</time>
      </trkpt>
      <trkpt lat="44.87636" lon="5.69555">
        <ele>490.9</ele>
        <time>2023-05-16T10:57:15.686Z</time>
      </trkpt>
      <trkpt lat="44.87635" lon="5.6956">
        <ele>490.8</ele>
        <time>2023-05-16T10:57:16.895Z</time>
      </trkpt>
      <trkpt lat="44.87633" lon="5.69565">
        <ele>490.6</ele>
        <time>2023-05-16T10:57:18.164Z</time>
      </trkpt>
      <trkpt lat="44.87632" lon="5.6957">
        <ele>490.5</ele>
        <time>2023-05-16T10:57:19.372Z</time>
      </trkpt>
      <trkpt lat="44.8763" lon="5.69574">
        <ele>490.1</ele>
        <time>2023-05-16T10:57:20.454Z</time>
      </trkpt>
      <trkpt lat="44.87628" lon="5.6958">
        <ele>489.5</ele>
        <time>2023-05-16T10:57:21.920Z</time>
      </trkpt>
      <trkpt lat="44.87623" lon="5.69583">
        <ele>489.1</ele>
        <time>2023-05-16T10:57:23.614Z</time>
      </trkpt>
      <trkpt lat="44.87619" lon="5.69587">
        <ele>488.7</ele>
        <time>2023-05-16T10:57:25.144Z</time>
      </trkpt>
      <trkpt lat="44.87614" lon="5.69594">
        <ele>488</ele>
        <time>2023-05-16T10:57:27.340Z</time>
      </trkpt>
      <trkpt lat="44.87609" lon="5.69601">
        <ele>487.2</ele>
        <time>2023-05-16T10:57:29.537Z</time>
      </trkpt>
      <trkpt lat="44.87604" lon="5.69608">
        <ele>486.5</ele>
        <time>2023-05-16T10:57:31.734Z</time>
      </trkpt>
      <trkpt lat="44.87601" lon="5.69616">
        <ele>485.9</ele>
        <time>2023-05-16T10:57:33.734Z</time>
      </trkpt>
      <trkpt lat="44.87599" lon="5.69623">
        <ele>485.5</ele>
        <time>2023-05-16T10:57:35.402Z</time>
      </trkpt>
      <trkpt lat="44.87597" lon="5.6963">
        <ele>485.2</ele>
        <time>2023-05-16T10:57:37.071Z</time>
      </trkpt>
      <trkpt lat="44.87595" lon="5.69635">
        <ele>485</ele>
        <time>2023-05-16T10:57:38.340Z</time>
      </trkpt>
      <trkpt lat="44.87594" lon="5.69638">
        <ele>484.8</ele>
        <time>2023-05-16T10:57:39.072Z</time>
      </trkpt>
      <trkpt lat="44.87592" lon="5.69642">
        <ele>484.7</ele>
        <time>2023-05-16T10:57:40.206Z</time>
      </trkpt>
      <trkpt lat="44.87591" lon="5.69646">
        <ele>484.5</ele>
        <time>2023-05-16T10:57:41.143Z</time>
      </trkpt>
      <trkpt lat="44.87591" lon="5.69651">
        <ele>484.4</ele>
        <time>2023-05-16T10:57:42.303Z</time>
      </trkpt>
      <trkpt lat="44.8759" lon="5.69655">
        <ele>484.2</ele>
        <time>2023-05-16T10:57:43.240Z</time>
      </trkpt>
      <trkpt lat="44.87589" lon="5.6966">
        <ele>484.1</ele>
        <time>2023-05-16T10:57:44.449Z</time>
      </trkpt>
      <trkpt lat="44.8759" lon="5.69665">
        <ele>484</ele>
        <time>2023-05-16T10:57:45.658Z</time>
      </trkpt>
      <trkpt lat="44.87588" lon="5.69671">
        <ele>484</ele>
        <time>2023-05-16T10:57:47.333Z</time>
      </trkpt>
      <trkpt lat="44.87587" lon="5.69675">
        <ele>484</ele>
        <time>2023-05-16T10:57:48.404Z</time>
      </trkpt>
      <trkpt lat="44.87582" lon="5.69674">
        <ele>483.9</ele>
        <time>2023-05-16T10:57:50.099Z</time>
      </trkpt>
      <trkpt lat="44.8758" lon="5.69676">
        <ele>483.9</ele>
        <time>2023-05-16T10:57:50.973Z</time>
      </trkpt>
      <trkpt lat="44.87577" lon="5.6968">
        <ele>483.9</ele>
        <time>2023-05-16T10:57:52.444Z</time>
      </trkpt>
      <trkpt lat="44.87576" lon="5.69684">
        <ele>483.6</ele>
        <time>2023-05-16T10:57:53.382Z</time>
      </trkpt>
      <trkpt lat="44.87577" lon="5.69691">
        <ele>482.8</ele>
        <time>2023-05-16T10:57:54.960Z</time>
      </trkpt>
      <trkpt lat="44.87577" lon="5.69697">
        <ele>482.4</ele>
        <time>2023-05-16T10:57:56.286Z</time>
      </trkpt>
      <trkpt lat="44.87577" lon="5.69702">
        <ele>482.2</ele>
        <time>2023-05-16T10:57:57.391Z</time>
      </trkpt>
      <trkpt lat="44.87575" lon="5.69705">
        <ele>482.1</ele>
        <time>2023-05-16T10:57:58.330Z</time>
      </trkpt>
      <trkpt lat="44.87571" lon="5.697">
        <ele>481.9</ele>
        <time>2023-05-16T10:58:00.031Z</time>
      </trkpt>
      <trkpt lat="44.87569" lon="5.69698">
        <ele>481.8</ele>
        <time>2023-05-16T10:58:00.805Z</time>
      </trkpt>
      <trkpt lat="44.87565" lon="5.69695">
        <ele>481.6</ele>
        <time>2023-05-16T10:58:02.219Z</time>
      </trkpt>
      <trkpt lat="44.87561" lon="5.69694">
        <ele>481.3</ele>
        <time>2023-05-16T10:58:03.486Z</time>
      </trkpt>
      <trkpt lat="44.87559" lon="5.69692">
        <ele>480.6</ele>
        <time>2023-05-16T10:58:04.251Z</time>
      </trkpt>
      <trkpt lat="44.87557" lon="5.69688">
        <ele>480.1</ele>
        <time>2023-05-16T10:58:05.333Z</time>
      </trkpt>
      <trkpt lat="44.87556" lon="5.69685">
        <ele>479.9</ele>
        <time>2023-05-16T10:58:06.066Z</time>
      </trkpt>
      <trkpt lat="44.87552" lon="5.69684">
        <ele>479.7</ele>
        <time>2023-05-16T10:58:07.333Z</time>
      </trkpt>
      <trkpt lat="44.87549" lon="5.69683">
        <ele>479.3</ele>
        <time>2023-05-16T10:58:08.294Z</time>
      </trkpt>
      <trkpt lat="44.87546" lon="5.69682">
        <ele>479</ele>
        <time>2023-05-16T10:58:09.255Z</time>
      </trkpt>
      <trkpt lat="44.87543" lon="5.69682">
        <ele>478.7</ele>
        <time>2023-05-16T10:58:10.191Z</time>
      </trkpt>
      <trkpt lat="44.8754" lon="5.69682">
        <ele>478.6</ele>
        <time>2023-05-16T10:58:11.158Z</time>
      </trkpt>
      <trkpt lat="44.87538" lon="5.69678">
        <ele>478.8</ele>
        <time>2023-05-16T10:58:12.645Z</time>
      </trkpt>
      <trkpt lat="44.87535" lon="5.69675">
        <ele>479.5</ele>
        <time>2023-05-16T10:58:15.183Z</time>
      </trkpt>
      <trkpt lat="44.87533" lon="5.69678">
        <ele>481</ele>
        <time>2023-05-16T10:58:20.645Z</time>
      </trkpt>
      <trkpt lat="44.8753" lon="5.69681">
        <ele>481.9</ele>
        <time>2023-05-16T10:58:23.796Z</time>
      </trkpt>
      <trkpt lat="44.87526" lon="5.69682">
        <ele>482.6</ele>
        <time>2023-05-16T10:58:26.412Z</time>
      </trkpt>
      <trkpt lat="44.87522" lon="5.69683">
        <ele>482.9</ele>
        <time>2023-05-16T10:58:28.250Z</time>
      </trkpt>
      <trkpt lat="44.87518" lon="5.69683">
        <ele>483</ele>
        <time>2023-05-16T10:58:29.791Z</time>
      </trkpt>
      <trkpt lat="44.87512" lon="5.69681">
        <ele>483</ele>
        <time>2023-05-16T10:58:31.989Z</time>
      </trkpt>
      <trkpt lat="44.87506" lon="5.69681">
        <ele>483</ele>
        <time>2023-05-16T10:58:34.128Z</time>
      </trkpt>
      <trkpt lat="44.87498" lon="5.69683">
        <ele>482.9</ele>
        <time>2023-05-16T10:58:36.917Z</time>
      </trkpt>
      <trkpt lat="44.87492" lon="5.69686">
        <ele>482.8</ele>
        <time>2023-05-16T10:58:39.080Z</time>
      </trkpt>
      <trkpt lat="44.87485" lon="5.69689">
        <ele>482.6</ele>
        <time>2023-05-16T10:58:41.481Z</time>
      </trkpt>
      <trkpt lat="44.87479" lon="5.69692">
        <ele>482.2</ele>
        <time>2023-05-16T10:58:43.466Z</time>
      </trkpt>
      <trkpt lat="44.87475" lon="5.69695">
        <ele>482</ele>
        <time>2023-05-16T10:58:44.881Z</time>
      </trkpt>
      <trkpt lat="44.87471" lon="5.69698">
        <ele>481.9</ele>
        <time>2023-05-16T10:58:46.391Z</time>
      </trkpt>
      <trkpt lat="44.87467" lon="5.69701">
        <ele>481.8</ele>
        <time>2023-05-16T10:58:47.901Z</time>
      </trkpt>
      <trkpt lat="44.87464" lon="5.69703">
        <ele>481.8</ele>
        <time>2023-05-16T10:58:49.083Z</time>
      </trkpt>
      <trkpt lat="44.87461" lon="5.69705">
        <ele>481.8</ele>
        <time>2023-05-16T10:58:50.266Z</time>
      </trkpt>
      <trkpt lat="44.87458" lon="5.69707">
        <ele>481.9</ele>
        <time>2023-05-16T10:58:51.566Z</time>
      </trkpt>
      <trkpt lat="44.87456" lon="5.6971">
        <ele>481.9</ele>
        <time>2023-05-16T10:58:52.606Z</time>
      </trkpt>
      <trkpt lat="44.87453" lon="5.69711">
        <ele>481.9</ele>
        <time>2023-05-16T10:58:53.705Z</time>
      </trkpt>
      <trkpt lat="44.8745" lon="5.69714">
        <ele>481.9</ele>
        <time>2023-05-16T10:58:55.016Z</time>
      </trkpt>
      <trkpt lat="44.87448" lon="5.69718">
        <ele>482</ele>
        <time>2023-05-16T10:58:56.369Z</time>
      </trkpt>
      <trkpt lat="44.87446" lon="5.6972">
        <ele>482.1</ele>
        <time>2023-05-16T10:58:57.363Z</time>
      </trkpt>
      <trkpt lat="44.87442" lon="5.69723">
        <ele>482.5</ele>
        <time>2023-05-16T10:58:59.516Z</time>
      </trkpt>
      <trkpt lat="44.8744" lon="5.69726">
        <ele>483</ele>
        <time>2023-05-16T10:59:01.388Z</time>
      </trkpt>
      <trkpt lat="44.87438" lon="5.69729">
        <ele>483.5</ele>
        <time>2023-05-16T10:59:03.261Z</time>
      </trkpt>
      <trkpt lat="44.87436" lon="5.69732">
        <ele>484</ele>
        <time>2023-05-16T10:59:05.133Z</time>
      </trkpt>
      <trkpt lat="44.87435" lon="5.69737">
        <ele>484.4</ele>
        <time>2023-05-16T10:59:07.011Z</time>
      </trkpt>
      <trkpt lat="44.87434" lon="5.69742">
        <ele>484.7</ele>
        <time>2023-05-16T10:59:08.720Z</time>
      </trkpt>
      <trkpt lat="44.87431" lon="5.69746">
        <ele>485.4</ele>
        <time>2023-05-16T10:59:11.350Z</time>
      </trkpt>
      <trkpt lat="44.8743" lon="5.6975">
        <ele>486.1</ele>
        <time>2023-05-16T10:59:13.805Z</time>
      </trkpt>
      <trkpt lat="44.87429" lon="5.69755">
        <ele>486.6</ele>
        <time>2023-05-16T10:59:15.875Z</time>
      </trkpt>
      <trkpt lat="44.87428" lon="5.69759">
        <ele>486.8</ele>
        <time>2023-05-16T10:59:17.202Z</time>
      </trkpt>
      <trkpt lat="44.87427" lon="5.69764">
        <ele>487.3</ele>
        <time>2023-05-16T10:59:19.271Z</time>
      </trkpt>
      <trkpt lat="44.87426" lon="5.69769">
        <ele>487.9</ele>
        <time>2023-05-16T10:59:21.560Z</time>
      </trkpt>
      <trkpt lat="44.87425" lon="5.69772">
        <ele>488.3</ele>
        <time>2023-05-16T10:59:23.061Z</time>
      </trkpt>
      <trkpt lat="44.87424" lon="5.69777">
        <ele>488.6</ele>
        <time>2023-05-16T10:59:24.770Z</time>
      </trkpt>
      <trkpt lat="44.87424" lon="5.69781">
        <ele>488.9</ele>
        <time>2023-05-16T10:59:26.202Z</time>
      </trkpt>
      <trkpt lat="44.87423" lon="5.69785">
        <ele>489.3</ele>
        <time>2023-05-16T10:59:27.875Z</time>
      </trkpt>
      <trkpt lat="44.87421" lon="5.6979">
        <ele>489.9</ele>
        <time>2023-05-16T10:59:30.262Z</time>
      </trkpt>
      <trkpt lat="44.8742" lon="5.69793">
        <ele>490.2</ele>
        <time>2023-05-16T10:59:31.544Z</time>
      </trkpt>
      <trkpt lat="44.87418" lon="5.69797">
        <ele>490.6</ele>
        <time>2023-05-16T10:59:33.356Z</time>
      </trkpt>
      <trkpt lat="44.87415" lon="5.69802">
        <ele>490.9</ele>
        <time>2023-05-16T10:59:35.392Z</time>
      </trkpt>
      <trkpt lat="44.87414" lon="5.69805">
        <ele>491.3</ele>
        <time>2023-05-16T10:59:36.893Z</time>
      </trkpt>
      <trkpt lat="44.87412" lon="5.69808">
        <ele>491.9</ele>
        <time>2023-05-16T10:59:39.031Z</time>
      </trkpt>
      <trkpt lat="44.87411" lon="5.69812">
        <ele>492.3</ele>
        <time>2023-05-16T10:59:40.704Z</time>
      </trkpt>
      <trkpt lat="44.87414" lon="5.69814">
        <ele>492.8</ele>
        <time>2023-05-16T10:59:42.674Z</time>
      </trkpt>
      <trkpt lat="44.87418" lon="5.69812">
        <ele>493.1</ele>
        <time>2023-05-16T10:59:44.573Z</time>
      </trkpt>
      <trkpt lat="44.87421" lon="5.69811">
        <ele>493.3</ele>
        <time>2023-05-16T10:59:45.926Z</time>
      </trkpt>
      <trkpt lat="44.87424" lon="5.69808">
        <ele>493.6</ele>
        <time>2023-05-16T10:59:47.633Z</time>
      </trkpt>
      <trkpt lat="44.87428" lon="5.69806">
        <ele>494.2</ele>
        <time>2023-05-16T10:59:50.068Z</time>
      </trkpt>
      <trkpt lat="44.87431" lon="5.69804">
        <ele>494.8</ele>
        <time>2023-05-16T10:59:52.275Z</time>
      </trkpt>
      <trkpt lat="44.87434" lon="5.69802">
        <ele>495.1</ele>
        <time>2023-05-16T10:59:53.863Z</time>
      </trkpt>
      <trkpt lat="44.87438" lon="5.69801">
        <ele>495.4</ele>
        <time>2023-05-16T10:59:55.701Z</time>
      </trkpt>
      <trkpt lat="44.87441" lon="5.69798">
        <ele>495.7</ele>
        <time>2023-05-16T10:59:57.408Z</time>
      </trkpt>
      <trkpt lat="44.87444" lon="5.69796">
        <ele>496.2</ele>
        <time>2023-05-16T10:59:59.378Z</time>
      </trkpt>
      <trkpt lat="44.87448" lon="5.69794">
        <ele>496.8</ele>
        <time>2023-05-16T11:00:01.813Z</time>
      </trkpt>
      <trkpt lat="44.87451" lon="5.69792">
        <ele>497</ele>
        <time>2023-05-16T11:00:03.247Z</time>
      </trkpt>
      <trkpt lat="44.87454" lon="5.6979">
        <ele>497.1</ele>
        <time>2023-05-16T11:00:04.547Z</time>
      </trkpt>
      <trkpt lat="44.87457" lon="5.69787">
        <ele>497.3</ele>
        <time>2023-05-16T11:00:06.106Z</time>
      </trkpt>
      <trkpt lat="44.8746" lon="5.69785">
        <ele>497.4</ele>
        <time>2023-05-16T11:00:07.405Z</time>
      </trkpt>
      <trkpt lat="44.87464" lon="5.69784">
        <ele>498</ele>
        <time>2023-05-16T11:00:09.791Z</time>
      </trkpt>
      <trkpt lat="44.87467" lon="5.69786">
        <ele>498.4</ele>
        <time>2023-05-16T11:00:11.556Z</time>
      </trkpt>
      <trkpt lat="44.87468" lon="5.69789">
        <ele>498.7</ele>
        <time>2023-05-16T11:00:12.839Z</time>
      </trkpt>
      <trkpt lat="44.87466" lon="5.69794">
        <ele>499.1</ele>
        <time>2023-05-16T11:00:14.840Z</time>
      </trkpt>
      <trkpt lat="44.87464" lon="5.69798">
        <ele>499.5</ele>
        <time>2023-05-16T11:00:16.651Z</time>
      </trkpt>
      <trkpt lat="44.87462" lon="5.69801">
        <ele>499.8</ele>
        <time>2023-05-16T11:00:18.110Z</time>
      </trkpt>
      <trkpt lat="44.87459" lon="5.69804">
        <ele>500.2</ele>
        <time>2023-05-16T11:00:19.986Z</time>
      </trkpt>
      <trkpt lat="44.87457" lon="5.69807">
        <ele>500.6</ele>
        <time>2023-05-16T11:00:21.634Z</time>
      </trkpt>
      <trkpt lat="44.87455" lon="5.69811">
        <ele>501.1</ele>
        <time>2023-05-16T11:00:23.645Z</time>
      </trkpt>
      <trkpt lat="44.87453" lon="5.69815">
        <ele>501.2</ele>
        <time>2023-05-16T11:00:24.998Z</time>
      </trkpt>
      <trkpt lat="44.8745" lon="5.6982">
        <ele>501.4</ele>
        <time>2023-05-16T11:00:26.895Z</time>
      </trkpt>
      <trkpt lat="44.87449" lon="5.69824">
        <ele>501.6</ele>
        <time>2023-05-16T11:00:28.221Z</time>
      </trkpt>
      <trkpt lat="44.87447" lon="5.69829">
        <ele>501.9</ele>
        <time>2023-05-16T11:00:30.061Z</time>
      </trkpt>
      <trkpt lat="44.87446" lon="5.69832">
        <ele>502.2</ele>
        <time>2023-05-16T11:00:31.343Z</time>
      </trkpt>
      <trkpt lat="44.87444" lon="5.69837">
        <ele>502.7</ele>
        <time>2023-05-16T11:00:33.526Z</time>
      </trkpt>
      <trkpt lat="44.87442" lon="5.69841">
        <ele>503.1</ele>
        <time>2023-05-16T11:00:35.338Z</time>
      </trkpt>
      <trkpt lat="44.8744" lon="5.69845">
        <ele>503.3</ele>
        <time>2023-05-16T11:00:36.824Z</time>
      </trkpt>
      <trkpt lat="44.87439" lon="5.6985">
        <ele>503.5</ele>
        <time>2023-05-16T11:00:38.384Z</time>
      </trkpt>
      <trkpt lat="44.87437" lon="5.69853">
        <ele>503.7</ele>
        <time>2023-05-16T11:00:39.681Z</time>
      </trkpt>
      <trkpt lat="44.87436" lon="5.69857">
        <ele>503.9</ele>
        <time>2023-05-16T11:00:41.008Z</time>
      </trkpt>
      <trkpt lat="44.87435" lon="5.69861">
        <ele>504.1</ele>
        <time>2023-05-16T11:00:42.334Z</time>
      </trkpt>
      <trkpt lat="44.87433" lon="5.69865">
        <ele>504.5</ele>
        <time>2023-05-16T11:00:44.146Z</time>
      </trkpt>
      <trkpt lat="44.87431" lon="5.69869">
        <ele>505.1</ele>
        <time>2023-05-16T11:00:46.385Z</time>
      </trkpt>
      <trkpt lat="44.87428" lon="5.69873">
        <ele>505.6</ele>
        <time>2023-05-16T11:00:48.586Z</time>
      </trkpt>
      <trkpt lat="44.87426" lon="5.69876">
        <ele>505.8</ele>
        <time>2023-05-16T11:00:49.882Z</time>
      </trkpt>
      <trkpt lat="44.87424" lon="5.6988">
        <ele>506.1</ele>
        <time>2023-05-16T11:00:51.520Z</time>
      </trkpt>
      <trkpt lat="44.87422" lon="5.69884">
        <ele>506.5</ele>
        <time>2023-05-16T11:00:53.332Z</time>
      </trkpt>
      <trkpt lat="44.87419" lon="5.69888">
        <ele>507.1</ele>
        <time>2023-05-16T11:00:55.735Z</time>
      </trkpt>
      <trkpt lat="44.87417" lon="5.69891">
        <ele>507.6</ele>
        <time>2023-05-16T11:00:57.607Z</time>
      </trkpt>
      <trkpt lat="44.87415" lon="5.69895">
        <ele>507.9</ele>
        <time>2023-05-16T11:00:59.245Z</time>
      </trkpt>
      <trkpt lat="44.87413" lon="5.69898">
        <ele>508.1</ele>
        <time>2023-05-16T11:01:00.542Z</time>
      </trkpt>
      <trkpt lat="44.87411" lon="5.69902">
        <ele>508.4</ele>
        <time>2023-05-16T11:01:02.180Z</time>
      </trkpt>
      <trkpt lat="44.87409" lon="5.69906">
        <ele>508.9</ele>
        <time>2023-05-16T11:01:04.191Z</time>
      </trkpt>
      <trkpt lat="44.87408" lon="5.69909">
        <ele>509.3</ele>
        <time>2023-05-16T11:01:05.692Z</time>
      </trkpt>
      <trkpt lat="44.87406" lon="5.69914">
        <ele>509.8</ele>
        <time>2023-05-16T11:01:07.875Z</time>
      </trkpt>
      <trkpt lat="44.87405" lon="5.69918">
        <ele>510.2</ele>
        <time>2023-05-16T11:01:09.548Z</time>
      </trkpt>
      <trkpt lat="44.87403" lon="5.69921">
        <ele>510.5</ele>
        <time>2023-05-16T11:01:11.006Z</time>
      </trkpt>
      <trkpt lat="44.87401" lon="5.69925">
        <ele>510.8</ele>
        <time>2023-05-16T11:01:12.644Z</time>
      </trkpt>
      <trkpt lat="44.87399" lon="5.6993">
        <ele>511.4</ele>
        <time>2023-05-16T11:01:15.031Z</time>
      </trkpt>
      <trkpt lat="44.87398" lon="5.69936">
        <ele>512</ele>
        <time>2023-05-16T11:01:17.501Z</time>
      </trkpt>
      <trkpt lat="44.87396" lon="5.69941">
        <ele>512.2</ele>
        <time>2023-05-16T11:01:19.196Z</time>
      </trkpt>
      <trkpt lat="44.87395" lon="5.69945">
        <ele>512.5</ele>
        <time>2023-05-16T11:01:20.682Z</time>
      </trkpt>
      <trkpt lat="44.87393" lon="5.69949">
        <ele>512.9</ele>
        <time>2023-05-16T11:01:22.494Z</time>
      </trkpt>
      <trkpt lat="44.87391" lon="5.69952">
        <ele>513.3</ele>
        <time>2023-05-16T11:01:24.142Z</time>
      </trkpt>
      <trkpt lat="44.87389" lon="5.69955">
        <ele>513.8</ele>
        <time>2023-05-16T11:01:26.014Z</time>
      </trkpt>
      <trkpt lat="44.87387" lon="5.6996">
        <ele>514</ele>
        <time>2023-05-16T11:01:27.710Z</time>
      </trkpt>
      <trkpt lat="44.87385" lon="5.69963">
        <ele>514</ele>
        <time>2023-05-16T11:01:28.750Z</time>
      </trkpt>
      <trkpt lat="44.87382" lon="5.69965">
        <ele>514.1</ele>
        <time>2023-05-16T11:01:30.050Z</time>
      </trkpt>
      <trkpt lat="44.87381" lon="5.69968">
        <ele>514.1</ele>
        <time>2023-05-16T11:01:30.888Z</time>
      </trkpt>
      <trkpt lat="44.87378" lon="5.69973">
        <ele>514.1</ele>
        <time>2023-05-16T11:01:32.543Z</time>
      </trkpt>
      <trkpt lat="44.87375" lon="5.69976">
        <ele>514.2</ele>
        <time>2023-05-16T11:01:33.970Z</time>
      </trkpt>
      <trkpt lat="44.87373" lon="5.69978">
        <ele>514.3</ele>
        <time>2023-05-16T11:01:34.964Z</time>
      </trkpt>
      <trkpt lat="44.87371" lon="5.69982">
        <ele>514.3</ele>
        <time>2023-05-16T11:01:36.200Z</time>
      </trkpt>
      <trkpt lat="44.87369" lon="5.69985">
        <ele>514.4</ele>
        <time>2023-05-16T11:01:37.359Z</time>
      </trkpt>
      <trkpt lat="44.87366" lon="5.69988">
        <ele>514.4</ele>
        <time>2023-05-16T11:01:38.670Z</time>
      </trkpt>
      <trkpt lat="44.87364" lon="5.6999">
        <ele>514.5</ele>
        <time>2023-05-16T11:01:39.664Z</time>
      </trkpt>
      <trkpt lat="44.87362" lon="5.69993">
        <ele>514.6</ele>
        <time>2023-05-16T11:01:40.822Z</time>
      </trkpt>
      <trkpt lat="44.87359" lon="5.69996">
        <ele>514.7</ele>
        <time>2023-05-16T11:01:42.250Z</time>
      </trkpt>
      <trkpt lat="44.87357" lon="5.69998">
        <ele>514.8</ele>
        <time>2023-05-16T11:01:43.244Z</time>
      </trkpt>
      <trkpt lat="44.87354" lon="5.70002">
        <ele>514.8</ele>
        <time>2023-05-16T11:01:44.715Z</time>
      </trkpt>
      <trkpt lat="44.87351" lon="5.70005">
        <ele>514.9</ele>
        <time>2023-05-16T11:01:46.142Z</time>
      </trkpt>
      <trkpt lat="44.87349" lon="5.70007">
        <ele>514.9</ele>
        <time>2023-05-16T11:01:47.016Z</time>
      </trkpt>
      <trkpt lat="44.87345" lon="5.70009">
        <ele>514.9</ele>
        <time>2023-05-16T11:01:48.528Z</time>
      </trkpt>
      <trkpt lat="44.87342" lon="5.7001">
        <ele>515</ele>
        <time>2023-05-16T11:01:49.745Z</time>
      </trkpt>
      <trkpt lat="44.87339" lon="5.70011">
        <ele>515</ele>
        <time>2023-05-16T11:01:50.844Z</time>
      </trkpt>
      <trkpt lat="44.87335" lon="5.70011">
        <ele>515.1</ele>
        <time>2023-05-16T11:01:52.386Z</time>
      </trkpt>
      <trkpt lat="44.87332" lon="5.70012">
        <ele>515.1</ele>
        <time>2023-05-16T11:01:53.484Z</time>
      </trkpt>
      <trkpt lat="44.87329" lon="5.70012">
        <ele>515.2</ele>
        <time>2023-05-16T11:01:54.672Z</time>
      </trkpt>
      <trkpt lat="44.87326" lon="5.70012">
        <ele>515.2</ele>
        <time>2023-05-16T11:01:55.741Z</time>
      </trkpt>
      <trkpt lat="44.87323" lon="5.70013">
        <ele>515.2</ele>
        <time>2023-05-16T11:01:56.840Z</time>
      </trkpt>
      <trkpt lat="44.8732" lon="5.70014">
        <ele>515.2</ele>
        <time>2023-05-16T11:01:57.939Z</time>
      </trkpt>
      <trkpt lat="44.87316" lon="5.70015">
        <ele>515.2</ele>
        <time>2023-05-16T11:01:59.387Z</time>
      </trkpt>
      <trkpt lat="44.87313" lon="5.70015">
        <ele>515.2</ele>
        <time>2023-05-16T11:02:00.456Z</time>
      </trkpt>
      <trkpt lat="44.8731" lon="5.70016">
        <ele>515.2</ele>
        <time>2023-05-16T11:02:01.555Z</time>
      </trkpt>
      <trkpt lat="44.87306" lon="5.70016">
        <ele>515.2</ele>
        <time>2023-05-16T11:02:02.981Z</time>
      </trkpt>
      <trkpt lat="44.87303" lon="5.70016">
        <ele>515.2</ele>
        <time>2023-05-16T11:02:04.050Z</time>
      </trkpt>
      <trkpt lat="44.873" lon="5.70017">
        <ele>515.2</ele>
        <time>2023-05-16T11:02:05.149Z</time>
      </trkpt>
      <trkpt lat="44.87295" lon="5.70018">
        <ele>515.2</ele>
        <time>2023-05-16T11:02:06.949Z</time>
      </trkpt>
      <trkpt lat="44.87291" lon="5.7002">
        <ele>515.2</ele>
        <time>2023-05-16T11:02:08.462Z</time>
      </trkpt>
      <trkpt lat="44.87287" lon="5.70022">
        <ele>515.2</ele>
        <time>2023-05-16T11:02:09.975Z</time>
      </trkpt>
      <trkpt lat="44.87282" lon="5.70023">
        <ele>515.2</ele>
        <time>2023-05-16T11:02:11.775Z</time>
      </trkpt>
      <trkpt lat="44.87278" lon="5.70024">
        <ele>515.3</ele>
        <time>2023-05-16T11:02:13.338Z</time>
      </trkpt>
      <trkpt lat="44.87274" lon="5.70025">
        <ele>515.3</ele>
        <time>2023-05-16T11:02:14.786Z</time>
      </trkpt>
      <trkpt lat="44.8727" lon="5.70026">
        <ele>515.4</ele>
        <time>2023-05-16T11:02:16.350Z</time>
      </trkpt>
      <trkpt lat="44.87265" lon="5.70026">
        <ele>515.4</ele>
        <time>2023-05-16T11:02:18.133Z</time>
      </trkpt>
      <trkpt lat="44.87261" lon="5.70027">
        <ele>515.4</ele>
        <time>2023-05-16T11:02:19.581Z</time>
      </trkpt>
      <trkpt lat="44.87257" lon="5.70028">
        <ele>515.5</ele>
        <time>2023-05-16T11:02:21.145Z</time>
      </trkpt>
      <trkpt lat="44.87253" lon="5.70029">
        <ele>515.5</ele>
        <time>2023-05-16T11:02:22.593Z</time>
      </trkpt>
      <trkpt lat="44.87248" lon="5.70031">
        <ele>515.5</ele>
        <time>2023-05-16T11:02:24.445Z</time>
      </trkpt>
      <trkpt lat="44.87244" lon="5.70032">
        <ele>515.6</ele>
        <time>2023-05-16T11:02:26.009Z</time>
      </trkpt>
      <trkpt lat="44.8724" lon="5.70034">
        <ele>515.6</ele>
        <time>2023-05-16T11:02:27.522Z</time>
      </trkpt>
      <trkpt lat="44.87235" lon="5.70035">
        <ele>515.7</ele>
        <time>2023-05-16T11:02:29.436Z</time>
      </trkpt>
      <trkpt lat="44.87231" lon="5.70036">
        <ele>515.8</ele>
        <time>2023-05-16T11:02:31.000Z</time>
      </trkpt>
      <trkpt lat="44.87228" lon="5.70038">
        <ele>515.9</ele>
        <time>2023-05-16T11:02:32.300Z</time>
      </trkpt>
      <trkpt lat="44.87225" lon="5.7004">
        <ele>515.9</ele>
        <time>2023-05-16T11:02:33.483Z</time>
      </trkpt>
      <trkpt lat="44.87222" lon="5.7004">
        <ele>515.9</ele>
        <time>2023-05-16T11:02:34.552Z</time>
      </trkpt>
      <trkpt lat="44.87218" lon="5.70042">
        <ele>516</ele>
        <time>2023-05-16T11:02:36.180Z</time>
      </trkpt>
      <trkpt lat="44.87215" lon="5.70045">
        <ele>516</ele>
        <time>2023-05-16T11:02:37.491Z</time>
      </trkpt>
      <trkpt lat="44.87212" lon="5.70046">
        <ele>516</ele>
        <time>2023-05-16T11:02:38.590Z</time>
      </trkpt>
      <trkpt lat="44.87208" lon="5.70047">
        <ele>516</ele>
        <time>2023-05-16T11:02:40.038Z</time>
      </trkpt>
      <trkpt lat="44.87204" lon="5.7005">
        <ele>516</ele>
        <time>2023-05-16T11:02:41.653Z</time>
      </trkpt>
      <trkpt lat="44.872" lon="5.70053">
        <ele>516</ele>
        <time>2023-05-16T11:02:43.267Z</time>
      </trkpt>
      <trkpt lat="44.87199" lon="5.70057">
        <ele>516</ele>
        <time>2023-05-16T11:02:44.339Z</time>
      </trkpt>
      <trkpt lat="44.87198" lon="5.70062">
        <ele>516.6</ele>
        <time>2023-05-16T11:02:46.628Z</time>
      </trkpt>
      <trkpt lat="44.87199" lon="5.70069">
        <ele>517.7</ele>
        <time>2023-05-16T11:02:50.511Z</time>
      </trkpt>
      <trkpt lat="44.872" lon="5.70073">
        <ele>518.6</ele>
        <time>2023-05-16T11:02:53.741Z</time>
      </trkpt>
      <trkpt lat="44.87201" lon="5.70076">
        <ele>519.6</ele>
        <time>2023-05-16T11:02:57.889Z</time>
      </trkpt>
      <trkpt lat="44.87202" lon="5.7008">
        <ele>520.5</ele>
        <time>2023-05-16T11:03:01.118Z</time>
      </trkpt>
      <trkpt lat="44.87204" lon="5.70083">
        <ele>521.4</ele>
        <time>2023-05-16T11:03:04.373Z</time>
      </trkpt>
      <trkpt lat="44.87206" lon="5.70085">
        <ele>522.1</ele>
        <time>2023-05-16T11:03:06.859Z</time>
      </trkpt>
      <trkpt lat="44.87209" lon="5.70088">
        <ele>522.6</ele>
        <time>2023-05-16T11:03:08.928Z</time>
      </trkpt>
      <trkpt lat="44.8721" lon="5.70091">
        <ele>522.8</ele>
        <time>2023-05-16T11:03:10.032Z</time>
      </trkpt>
      <trkpt lat="44.87212" lon="5.70095">
        <ele>523.1</ele>
        <time>2023-05-16T11:03:11.670Z</time>
      </trkpt>
      <trkpt lat="44.8722" lon="5.70114">
        <ele>524.5</ele>
        <time>2023-05-16T11:03:19.139Z</time>
      </trkpt>
      <trkpt lat="44.87222" lon="5.70118">
        <ele>524.7</ele>
        <time>2023-05-16T11:03:20.626Z</time>
      </trkpt>
      <trkpt lat="44.87224" lon="5.70122">
        <ele>524.9</ele>
        <time>2023-05-16T11:03:22.112Z</time>
      </trkpt>
      <trkpt lat="44.87226" lon="5.70126">
        <ele>525.1</ele>
        <time>2023-05-16T11:03:23.599Z</time>
      </trkpt>
      <trkpt lat="44.87227" lon="5.7013">
        <ele>525.3</ele>
        <time>2023-05-16T11:03:24.925Z</time>
      </trkpt>
      <trkpt lat="44.87228" lon="5.70134">
        <ele>525.5</ele>
        <time>2023-05-16T11:03:26.252Z</time>
      </trkpt>
      <trkpt lat="44.8723" lon="5.70138">
        <ele>525.7</ele>
        <time>2023-05-16T11:03:27.738Z</time>
      </trkpt>
      <trkpt lat="44.87231" lon="5.70142">
        <ele>525.9</ele>
        <time>2023-05-16T11:03:29.065Z</time>
      </trkpt>
      <trkpt lat="44.87233" lon="5.70146">
        <ele>526.1</ele>
        <time>2023-05-16T11:03:30.551Z</time>
      </trkpt>
      <trkpt lat="44.87235" lon="5.70151">
        <ele>526.3</ele>
        <time>2023-05-16T11:03:32.247Z</time>
      </trkpt>
      <trkpt lat="44.87236" lon="5.70156">
        <ele>526.6</ele>
        <time>2023-05-16T11:03:33.956Z</time>
      </trkpt>
      <trkpt lat="44.87238" lon="5.7016">
        <ele>526.8</ele>
        <time>2023-05-16T11:03:35.442Z</time>
      </trkpt>
      <trkpt lat="44.87239" lon="5.70165">
        <ele>527.1</ele>
        <time>2023-05-16T11:03:37.151Z</time>
      </trkpt>
      <trkpt lat="44.87239" lon="5.70169">
        <ele>527.4</ele>
        <time>2023-05-16T11:03:38.583Z</time>
      </trkpt>
      <trkpt lat="44.8724" lon="5.70174">
        <ele>527.8</ele>
        <time>2023-05-16T11:03:40.460Z</time>
      </trkpt>
      <trkpt lat="44.87241" lon="5.70179">
        <ele>528</ele>
        <time>2023-05-16T11:03:42.021Z</time>
      </trkpt>
      <trkpt lat="44.87241" lon="5.70184">
        <ele>528.2</ele>
        <time>2023-05-16T11:03:43.533Z</time>
      </trkpt>
      <trkpt lat="44.87241" lon="5.7019">
        <ele>528.5</ele>
        <time>2023-05-16T11:03:45.435Z</time>
      </trkpt>
      <trkpt lat="44.87241" lon="5.70194">
        <ele>528.7</ele>
        <time>2023-05-16T11:03:46.703Z</time>
      </trkpt>
      <trkpt lat="44.87241" lon="5.70199">
        <ele>528.9</ele>
        <time>2023-05-16T11:03:48.215Z</time>
      </trkpt>
      <trkpt lat="44.87241" lon="5.70204">
        <ele>529.2</ele>
        <time>2023-05-16T11:03:49.878Z</time>
      </trkpt>
      <trkpt lat="44.87241" lon="5.70209">
        <ele>529.4</ele>
        <time>2023-05-16T11:03:51.390Z</time>
      </trkpt>
      <trkpt lat="44.87241" lon="5.70214">
        <ele>529.6</ele>
        <time>2023-05-16T11:03:52.902Z</time>
      </trkpt>
      <trkpt lat="44.87242" lon="5.70219">
        <ele>529.8</ele>
        <time>2023-05-16T11:03:54.462Z</time>
      </trkpt>
      <trkpt lat="44.87242" lon="5.70231">
        <ele>530.2</ele>
        <time>2023-05-16T11:03:57.981Z</time>
      </trkpt>
      <trkpt lat="44.87243" lon="5.70236">
        <ele>530.3</ele>
        <time>2023-05-16T11:03:59.410Z</time>
      </trkpt>
      <trkpt lat="44.87243" lon="5.7024">
        <ele>530.5</ele>
        <time>2023-05-16T11:04:00.678Z</time>
      </trkpt>
      <trkpt lat="44.87244" lon="5.70244">
        <ele>530.6</ele>
        <time>2023-05-16T11:04:01.868Z</time>
      </trkpt>
      <trkpt lat="44.87244" lon="5.70249">
        <ele>531.1</ele>
        <time>2023-05-16T11:04:03.899Z</time>
      </trkpt>
      <trkpt lat="44.87245" lon="5.70253">
        <ele>531.3</ele>
        <time>2023-05-16T11:04:05.225Z</time>
      </trkpt>
      <trkpt lat="44.87246" lon="5.70258">
        <ele>531.6</ele>
        <time>2023-05-16T11:04:06.934Z</time>
      </trkpt>
      <trkpt lat="44.87247" lon="5.70262">
        <ele>531.8</ele>
        <time>2023-05-16T11:04:08.261Z</time>
      </trkpt>
      <trkpt lat="44.87248" lon="5.70266">
        <ele>532</ele>
        <time>2023-05-16T11:04:09.587Z</time>
      </trkpt>
      <trkpt lat="44.87249" lon="5.7027">
        <ele>532.2</ele>
        <time>2023-05-16T11:04:10.914Z</time>
      </trkpt>
      <trkpt lat="44.87251" lon="5.70274">
        <ele>532.4</ele>
        <time>2023-05-16T11:04:12.400Z</time>
      </trkpt>
      <trkpt lat="44.87252" lon="5.70278">
        <ele>532.6</ele>
        <time>2023-05-16T11:04:13.727Z</time>
      </trkpt>
      <trkpt lat="44.87254" lon="5.70281">
        <ele>532.8</ele>
        <time>2023-05-16T11:04:15.024Z</time>
      </trkpt>
      <trkpt lat="44.87255" lon="5.70285">
        <ele>533.3</ele>
        <time>2023-05-16T11:04:16.916Z</time>
      </trkpt>
      <trkpt lat="44.87257" lon="5.70288">
        <ele>533.9</ele>
        <time>2023-05-16T11:04:19.054Z</time>
      </trkpt>
      <trkpt lat="44.8726" lon="5.70295">
        <ele>535.1</ele>
        <time>2023-05-16T11:04:23.324Z</time>
      </trkpt>
      <trkpt lat="44.87261" lon="5.70299">
        <ele>535.8</ele>
        <time>2023-05-16T11:04:25.779Z</time>
      </trkpt>
      <trkpt lat="44.87265" lon="5.70304">
        <ele>536.6</ele>
        <time>2023-05-16T11:04:28.940Z</time>
      </trkpt>
      <trkpt lat="44.87267" lon="5.70308">
        <ele>537</ele>
        <time>2023-05-16T11:04:30.752Z</time>
      </trkpt>
      <trkpt lat="44.87269" lon="5.70312">
        <ele>537.4</ele>
        <time>2023-05-16T11:04:32.563Z</time>
      </trkpt>
      <trkpt lat="44.8727" lon="5.70315">
        <ele>537.8</ele>
        <time>2023-05-16T11:04:34.065Z</time>
      </trkpt>
      <trkpt lat="44.87272" lon="5.70319">
        <ele>538.2</ele>
        <time>2023-05-16T11:04:35.876Z</time>
      </trkpt>
      <trkpt lat="44.87275" lon="5.70322">
        <ele>538.4</ele>
        <time>2023-05-16T11:04:37.435Z</time>
      </trkpt>
      <trkpt lat="44.87277" lon="5.70326">
        <ele>538.6</ele>
        <time>2023-05-16T11:04:38.921Z</time>
      </trkpt>
      <trkpt lat="44.87279" lon="5.70329">
        <ele>538.9</ele>
        <time>2023-05-16T11:04:40.379Z</time>
      </trkpt>
      <trkpt lat="44.87281" lon="5.70333">
        <ele>539.1</ele>
        <time>2023-05-16T11:04:41.866Z</time>
      </trkpt>
      <trkpt lat="44.87283" lon="5.70336">
        <ele>539.3</ele>
        <time>2023-05-16T11:04:43.163Z</time>
      </trkpt>
      <trkpt lat="44.87285" lon="5.70339">
        <ele>539.5</ele>
        <time>2023-05-16T11:04:44.459Z</time>
      </trkpt>
      <trkpt lat="44.87287" lon="5.70343">
        <ele>539.7</ele>
        <time>2023-05-16T11:04:45.946Z</time>
      </trkpt>
      <trkpt lat="44.87288" lon="5.70346">
        <ele>540</ele>
        <time>2023-05-16T11:04:47.228Z</time>
      </trkpt>
      <trkpt lat="44.8729" lon="5.70349">
        <ele>540.6</ele>
        <time>2023-05-16T11:04:49.366Z</time>
      </trkpt>
      <trkpt lat="44.87292" lon="5.70353">
        <ele>541.3</ele>
        <time>2023-05-16T11:04:51.869Z</time>
      </trkpt>
      <trkpt lat="44.87293" lon="5.70356">
        <ele>542</ele>
        <time>2023-05-16T11:04:54.378Z</time>
      </trkpt>
      <trkpt lat="44.87294" lon="5.7036">
        <ele>542.7</ele>
        <time>2023-05-16T11:04:56.833Z</time>
      </trkpt>
      <trkpt lat="44.87295" lon="5.70364">
        <ele>543.5</ele>
        <time>2023-05-16T11:04:59.646Z</time>
      </trkpt>
      <trkpt lat="44.87297" lon="5.70367">
        <ele>544</ele>
        <time>2023-05-16T11:05:01.518Z</time>
      </trkpt>
      <trkpt lat="44.87298" lon="5.70371">
        <ele>544.4</ele>
        <time>2023-05-16T11:05:03.191Z</time>
      </trkpt>
      <trkpt lat="44.87299" lon="5.70375">
        <ele>544.8</ele>
        <time>2023-05-16T11:05:04.864Z</time>
      </trkpt>
      <trkpt lat="44.873" lon="5.70379">
        <ele>545.1</ele>
        <time>2023-05-16T11:05:06.351Z</time>
      </trkpt>
      <trkpt lat="44.87301" lon="5.70383">
        <ele>545.3</ele>
        <time>2023-05-16T11:05:07.677Z</time>
      </trkpt>
      <trkpt lat="44.87303" lon="5.70387">
        <ele>545.5</ele>
        <time>2023-05-16T11:05:09.164Z</time>
      </trkpt>
      <trkpt lat="44.87304" lon="5.7039">
        <ele>545.7</ele>
        <time>2023-05-16T11:05:10.268Z</time>
      </trkpt>
      <trkpt lat="44.87306" lon="5.70394">
        <ele>545.9</ele>
        <time>2023-05-16T11:05:11.754Z</time>
      </trkpt>
      <trkpt lat="44.87308" lon="5.70397">
        <ele>546.2</ele>
        <time>2023-05-16T11:05:13.213Z</time>
      </trkpt>
      <trkpt lat="44.8731" lon="5.704">
        <ele>546.5</ele>
        <time>2023-05-16T11:05:14.671Z</time>
      </trkpt>
      <trkpt lat="44.87313" lon="5.70403">
        <ele>546.8</ele>
        <time>2023-05-16T11:05:16.378Z</time>
      </trkpt>
      <trkpt lat="44.87316" lon="5.70406">
        <ele>547.2</ele>
        <time>2023-05-16T11:05:18.254Z</time>
      </trkpt>
      <trkpt lat="44.87319" lon="5.70408">
        <ele>547.5</ele>
        <time>2023-05-16T11:05:19.842Z</time>
      </trkpt>
      <trkpt lat="44.87322" lon="5.70411">
        <ele>548</ele>
        <time>2023-05-16T11:05:21.911Z</time>
      </trkpt>
      <trkpt lat="44.8732" lon="5.70416">
        <ele>546.8</ele>
        <time>2023-05-16T11:05:23.180Z</time>
      </trkpt>
      <trkpt lat="44.87316" lon="5.70418">
        <ele>545.7</ele>
        <time>2023-05-16T11:05:24.503Z</time>
      </trkpt>
      <trkpt lat="44.87306" lon="5.70418">
        <ele>543.5</ele>
        <time>2023-05-16T11:05:27.622Z</time>
      </trkpt>
      <trkpt lat="44.873" lon="5.70417">
        <ele>542.4</ele>
        <time>2023-05-16T11:05:29.507Z</time>
      </trkpt>
      <trkpt lat="44.87292" lon="5.70416">
        <ele>541.3</ele>
        <time>2023-05-16T11:05:32.012Z</time>
      </trkpt>
      <trkpt lat="44.87284" lon="5.70417">
        <ele>540.2</ele>
        <time>2023-05-16T11:05:34.517Z</time>
      </trkpt>
      <trkpt lat="44.87276" lon="5.70419">
        <ele>538.7</ele>
        <time>2023-05-16T11:05:37.051Z</time>
      </trkpt>
      <trkpt lat="44.87269" lon="5.7042">
        <ele>537.2</ele>
        <time>2023-05-16T11:05:39.245Z</time>
      </trkpt>
      <trkpt lat="44.87261" lon="5.70423">
        <ele>535.9</ele>
        <time>2023-05-16T11:05:41.827Z</time>
      </trkpt>
      <trkpt lat="44.87255" lon="5.70427">
        <ele>534.8</ele>
        <time>2023-05-16T11:05:43.897Z</time>
      </trkpt>
      <trkpt lat="44.87249" lon="5.7043">
        <ele>533.8</ele>
        <time>2023-05-16T11:05:45.882Z</time>
      </trkpt>
      <trkpt lat="44.87242" lon="5.70435">
        <ele>532.4</ele>
        <time>2023-05-16T11:05:48.329Z</time>
      </trkpt>
      <trkpt lat="44.87235" lon="5.70442">
        <ele>530.9</ele>
        <time>2023-05-16T11:05:51.005Z</time>
      </trkpt>
      <trkpt lat="44.8723" lon="5.70448">
        <ele>529.4</ele>
        <time>2023-05-16T11:05:53.052Z</time>
      </trkpt>
      <trkpt lat="44.87225" lon="5.70454">
        <ele>528.1</ele>
        <time>2023-05-16T11:05:55.099Z</time>
      </trkpt>
      <trkpt lat="44.87221" lon="5.70459">
        <ele>526.9</ele>
        <time>2023-05-16T11:05:56.766Z</time>
      </trkpt>
      <trkpt lat="44.87219" lon="5.70465">
        <ele>525.7</ele>
        <time>2023-05-16T11:05:58.232Z</time>
      </trkpt>
      <trkpt lat="44.87218" lon="5.70471">
        <ele>524.7</ele>
        <time>2023-05-16T11:05:59.594Z</time>
      </trkpt>
      <trkpt lat="44.87218" lon="5.70477">
        <ele>524</ele>
        <time>2023-05-16T11:06:00.920Z</time>
      </trkpt>
      <trkpt lat="44.87219" lon="5.70483">
        <ele>523.4</ele>
        <time>2023-05-16T11:06:02.283Z</time>
      </trkpt>
      <trkpt lat="44.87221" lon="5.70488">
        <ele>522.8</ele>
        <time>2023-05-16T11:06:03.552Z</time>
      </trkpt>
      <trkpt lat="44.87223" lon="5.70493">
        <ele>522.1</ele>
        <time>2023-05-16T11:06:04.821Z</time>
      </trkpt>
      <trkpt lat="44.87225" lon="5.70497">
        <ele>521.3</ele>
        <time>2023-05-16T11:06:05.903Z</time>
      </trkpt>
      <trkpt lat="44.87228" lon="5.70503">
        <ele>520.5</ele>
        <time>2023-05-16T11:06:07.526Z</time>
      </trkpt>
      <trkpt lat="44.8723" lon="5.70508">
        <ele>519.6</ele>
        <time>2023-05-16T11:06:08.795Z</time>
      </trkpt>
      <trkpt lat="44.87231" lon="5.70515">
        <ele>519</ele>
        <time>2023-05-16T11:06:10.374Z</time>
      </trkpt>
      <trkpt lat="44.87229" lon="5.70522">
        <ele>519</ele>
        <time>2023-05-16T11:06:12.280Z</time>
      </trkpt>
      <trkpt lat="44.87227" lon="5.70529">
        <ele>519</ele>
        <time>2023-05-16T11:06:14.187Z</time>
      </trkpt>
      <trkpt lat="44.87223" lon="5.70535">
        <ele>519</ele>
        <time>2023-05-16T11:06:16.268Z</time>
      </trkpt>
      <trkpt lat="44.8722" lon="5.70542">
        <ele>519</ele>
        <time>2023-05-16T11:06:18.334Z</time>
      </trkpt>
      <trkpt lat="44.87217" lon="5.7055">
        <ele>518.9</ele>
        <time>2023-05-16T11:06:20.515Z</time>
      </trkpt>
      <trkpt lat="44.87214" lon="5.70558">
        <ele>518.8</ele>
        <time>2023-05-16T11:06:22.695Z</time>
      </trkpt>
      <trkpt lat="44.87212" lon="5.70565">
        <ele>518.7</ele>
        <time>2023-05-16T11:06:24.496Z</time>
      </trkpt>
      <trkpt lat="44.87209" lon="5.70572">
        <ele>518.6</ele>
        <time>2023-05-16T11:06:26.457Z</time>
      </trkpt>
      <trkpt lat="44.87206" lon="5.70578">
        <ele>518.6</ele>
        <time>2023-05-16T11:06:28.312Z</time>
      </trkpt>
      <trkpt lat="44.87204" lon="5.70583">
        <ele>518.5</ele>
        <time>2023-05-16T11:06:29.658Z</time>
      </trkpt>
      <trkpt lat="44.87202" lon="5.70588">
        <ele>518.4</ele>
        <time>2023-05-16T11:06:31.004Z</time>
      </trkpt>
      <trkpt lat="44.872" lon="5.70593">
        <ele>518.3</ele>
        <time>2023-05-16T11:06:32.350Z</time>
      </trkpt>
      <trkpt lat="44.87198" lon="5.70597">
        <ele>518.2</ele>
        <time>2023-05-16T11:06:33.484Z</time>
      </trkpt>
      <trkpt lat="44.87196" lon="5.70602">
        <ele>518.1</ele>
        <time>2023-05-16T11:06:34.830Z</time>
      </trkpt>
      <trkpt lat="44.87194" lon="5.70606">
        <ele>518</ele>
        <time>2023-05-16T11:06:35.963Z</time>
      </trkpt>
      <trkpt lat="44.87191" lon="5.70611">
        <ele>517.9</ele>
        <time>2023-05-16T11:06:37.514Z</time>
      </trkpt>
      <trkpt lat="44.87189" lon="5.70615">
        <ele>517.7</ele>
        <time>2023-05-16T11:06:38.596Z</time>
      </trkpt>
      <trkpt lat="44.87187" lon="5.7062">
        <ele>517.6</ele>
        <time>2023-05-16T11:06:39.942Z</time>
      </trkpt>
      <trkpt lat="44.87183" lon="5.70626">
        <ele>517.4</ele>
        <time>2023-05-16T11:06:41.819Z</time>
      </trkpt>
      <trkpt lat="44.87179" lon="5.70631">
        <ele>517</ele>
        <time>2023-05-16T11:06:43.485Z</time>
      </trkpt>
      <trkpt lat="44.87175" lon="5.70638">
        <ele>516.6</ele>
        <time>2023-05-16T11:06:45.473Z</time>
      </trkpt>
      <trkpt lat="44.87169" lon="5.70645">
        <ele>515.6</ele>
        <time>2023-05-16T11:06:47.901Z</time>
      </trkpt>
      <trkpt lat="44.87162" lon="5.70651">
        <ele>514.3</ele>
        <time>2023-05-16T11:06:50.456Z</time>
      </trkpt>
      <trkpt lat="44.87155" lon="5.70659">
        <ele>513.1</ele>
        <time>2023-05-16T11:06:53.265Z</time>
      </trkpt>
      <trkpt lat="44.87149" lon="5.70668">
        <ele>511.6</ele>
        <time>2023-05-16T11:06:55.997Z</time>
      </trkpt>
      <trkpt lat="44.87143" lon="5.70675">
        <ele>510.1</ele>
        <time>2023-05-16T11:06:58.425Z</time>
      </trkpt>
      <trkpt lat="44.87139" lon="5.70682">
        <ele>508.6</ele>
        <time>2023-05-16T11:07:00.412Z</time>
      </trkpt>
      <trkpt lat="44.87136" lon="5.70689">
        <ele>507.4</ele>
        <time>2023-05-16T11:07:02.221Z</time>
      </trkpt>
      <trkpt lat="44.87134" lon="5.70695">
        <ele>506.5</ele>
        <time>2023-05-16T11:07:03.686Z</time>
      </trkpt>
      <trkpt lat="44.87135" lon="5.707">
        <ele>505.9</ele>
        <time>2023-05-16T11:07:04.835Z</time>
      </trkpt>
      <trkpt lat="44.87138" lon="5.70705">
        <ele>505.3</ele>
        <time>2023-05-16T11:07:06.283Z</time>
      </trkpt>
      <trkpt lat="44.87142" lon="5.70709">
        <ele>504.9</ele>
        <time>2023-05-16T11:07:07.812Z</time>
      </trkpt>
      <trkpt lat="44.87148" lon="5.70713">
        <ele>504.3</ele>
        <time>2023-05-16T11:07:09.882Z</time>
      </trkpt>
      <trkpt lat="44.87154" lon="5.70718">
        <ele>503.7</ele>
        <time>2023-05-16T11:07:12.055Z</time>
      </trkpt>
      <trkpt lat="44.8716" lon="5.70724">
        <ele>503.2</ele>
        <time>2023-05-16T11:07:14.349Z</time>
      </trkpt>
      <trkpt lat="44.87164" lon="5.70732">
        <ele>502.4</ele>
        <time>2023-05-16T11:07:16.513Z</time>
      </trkpt>
      <trkpt lat="44.87167" lon="5.7074">
        <ele>501.5</ele>
        <time>2023-05-16T11:07:18.513Z</time>
      </trkpt>
      <trkpt lat="44.87169" lon="5.7075">
        <ele>500.7</ele>
        <time>2023-05-16T11:07:20.810Z</time>
      </trkpt>
      <trkpt lat="44.87169" lon="5.70761">
        <ele>499.7</ele>
        <time>2023-05-16T11:07:23.242Z</time>
      </trkpt>
      <trkpt lat="44.8717" lon="5.70771">
        <ele>498.7</ele>
        <time>2023-05-16T11:07:25.474Z</time>
      </trkpt>
      <trkpt lat="44.87169" lon="5.7078">
        <ele>497.7</ele>
        <time>2023-05-16T11:07:27.487Z</time>
      </trkpt>
      <trkpt lat="44.87168" lon="5.70787">
        <ele>496.6</ele>
        <time>2023-05-16T11:07:29.066Z</time>
      </trkpt>
      <trkpt lat="44.87166" lon="5.70791">
        <ele>495.9</ele>
        <time>2023-05-16T11:07:30.148Z</time>
      </trkpt>
      <trkpt lat="44.87164" lon="5.70794">
        <ele>495.4</ele>
        <time>2023-05-16T11:07:31.058Z</time>
      </trkpt>
      <trkpt lat="44.87159" lon="5.70794">
        <ele>494.8</ele>
        <time>2023-05-16T11:07:32.618Z</time>
      </trkpt>
      <trkpt lat="44.87156" lon="5.70794">
        <ele>494.7</ele>
        <time>2023-05-16T11:07:33.585Z</time>
      </trkpt>
      <trkpt lat="44.87153" lon="5.70789">
        <ele>494.5</ele>
        <time>2023-05-16T11:07:35.039Z</time>
      </trkpt>
      <trkpt lat="44.87149" lon="5.7079">
        <ele>494.4</ele>
        <time>2023-05-16T11:07:36.383Z</time>
      </trkpt>
      <trkpt lat="44.87146" lon="5.7079">
        <ele>494.2</ele>
        <time>2023-05-16T11:07:37.319Z</time>
      </trkpt>
      <trkpt lat="44.87143" lon="5.70791">
        <ele>494.1</ele>
        <time>2023-05-16T11:07:38.315Z</time>
      </trkpt>
      <trkpt lat="44.8714" lon="5.70792">
        <ele>494</ele>
        <time>2023-05-16T11:07:39.312Z</time>
      </trkpt>
      <trkpt lat="44.87137" lon="5.70793">
        <ele>493.9</ele>
        <time>2023-05-16T11:07:40.308Z</time>
      </trkpt>
      <trkpt lat="44.87134" lon="5.70794">
        <ele>493.8</ele>
        <time>2023-05-16T11:07:41.304Z</time>
      </trkpt>
      <trkpt lat="44.87131" lon="5.70795">
        <ele>493.7</ele>
        <time>2023-05-16T11:07:42.301Z</time>
      </trkpt>
      <trkpt lat="44.87126" lon="5.70798">
        <ele>493.6</ele>
        <time>2023-05-16T11:07:44.132Z</time>
      </trkpt>
      <trkpt lat="44.87123" lon="5.70799">
        <ele>493.5</ele>
        <time>2023-05-16T11:07:45.128Z</time>
      </trkpt>
      <trkpt lat="44.8712" lon="5.70801">
        <ele>493.4</ele>
        <time>2023-05-16T11:07:46.208Z</time>
      </trkpt>
      <trkpt lat="44.87118" lon="5.70802">
        <ele>493.4</ele>
        <time>2023-05-16T11:07:46.964Z</time>
      </trkpt>
      <trkpt lat="44.87113" lon="5.70804">
        <ele>493.2</ele>
        <time>2023-05-16T11:07:48.615Z</time>
      </trkpt>
      <trkpt lat="44.87109" lon="5.70806">
        <ele>493.2</ele>
        <time>2023-05-16T11:07:50.127Z</time>
      </trkpt>
      <trkpt lat="44.87106" lon="5.70811">
        <ele>493.2</ele>
        <time>2023-05-16T11:07:51.782Z</time>
      </trkpt>
      <trkpt lat="44.87106" lon="5.70815">
        <ele>493.2</ele>
        <time>2023-05-16T11:07:52.793Z</time>
      </trkpt>
      <trkpt lat="44.87106" lon="5.7082">
        <ele>493.2</ele>
        <time>2023-05-16T11:07:54.056Z</time>
      </trkpt>
      <trkpt lat="44.87107" lon="5.70824">
        <ele>493.2</ele>
        <time>2023-05-16T11:07:55.127Z</time>
      </trkpt>
      <trkpt lat="44.87109" lon="5.7083">
        <ele>493.3</ele>
        <time>2023-05-16T11:07:56.917Z</time>
      </trkpt>
      <trkpt lat="44.87109" lon="5.70837">
        <ele>493.4</ele>
        <time>2023-05-16T11:07:58.800Z</time>
      </trkpt>
      <trkpt lat="44.87107" lon="5.7084">
        <ele>493.4</ele>
        <time>2023-05-16T11:07:59.841Z</time>
      </trkpt>
      <trkpt lat="44.87105" lon="5.70844">
        <ele>493.5</ele>
        <time>2023-05-16T11:08:01.194Z</time>
      </trkpt>
      <trkpt lat="44.87103" lon="5.70847">
        <ele>493.4</ele>
        <time>2023-05-16T11:08:02.133Z</time>
      </trkpt>
      <trkpt lat="44.871" lon="5.70851">
        <ele>493.4</ele>
        <time>2023-05-16T11:08:03.604Z</time>
      </trkpt>
      <trkpt lat="44.87097" lon="5.70851">
        <ele>493.3</ele>
        <time>2023-05-16T11:08:04.571Z</time>
      </trkpt>
      <trkpt lat="44.87093" lon="5.70852">
        <ele>493.3</ele>
        <time>2023-05-16T11:08:06.019Z</time>
      </trkpt>
      <trkpt lat="44.8709" lon="5.7085">
        <ele>493.2</ele>
        <time>2023-05-16T11:08:07.099Z</time>
      </trkpt>
      <trkpt lat="44.87086" lon="5.7085">
        <ele>493.2</ele>
        <time>2023-05-16T11:08:08.525Z</time>
      </trkpt>
      <trkpt lat="44.87079" lon="5.70849">
        <ele>493.1</ele>
        <time>2023-05-16T11:08:10.926Z</time>
      </trkpt>
      <trkpt lat="44.87077" lon="5.70848">
        <ele>493.1</ele>
        <time>2023-05-16T11:08:11.683Z</time>
      </trkpt>
      <trkpt lat="44.87073" lon="5.70848">
        <ele>493.1</ele>
        <time>2023-05-16T11:08:13.108Z</time>
      </trkpt>
      <trkpt lat="44.8707" lon="5.70845">
        <ele>493.1</ele>
        <time>2023-05-16T11:08:14.419Z</time>
      </trkpt>
      <trkpt lat="44.87066" lon="5.7084">
        <ele>493.3</ele>
        <time>2023-05-16T11:08:16.562Z</time>
      </trkpt>
      <trkpt lat="44.87064" lon="5.70836">
        <ele>493.3</ele>
        <time>2023-05-16T11:08:17.799Z</time>
      </trkpt>
      <trkpt lat="44.87062" lon="5.70834">
        <ele>493.4</ele>
        <time>2023-05-16T11:08:18.793Z</time>
      </trkpt>
      <trkpt lat="44.8706" lon="5.70831">
        <ele>493.4</ele>
        <time>2023-05-16T11:08:19.833Z</time>
      </trkpt>
      <trkpt lat="44.87058" lon="5.70828">
        <ele>493.4</ele>
        <time>2023-05-16T11:08:20.874Z</time>
      </trkpt>
      <trkpt lat="44.87055" lon="5.70825">
        <ele>493.5</ele>
        <time>2023-05-16T11:08:22.301Z</time>
      </trkpt>
      <trkpt lat="44.87052" lon="5.70825">
        <ele>493.5</ele>
        <time>2023-05-16T11:08:23.370Z</time>
      </trkpt>
      <trkpt lat="44.87048" lon="5.70824">
        <ele>493.5</ele>
        <time>2023-05-16T11:08:24.818Z</time>
      </trkpt>
      <trkpt lat="44.87044" lon="5.70828">
        <ele>493.6</ele>
        <time>2023-05-16T11:08:26.681Z</time>
      </trkpt>
      <trkpt lat="44.87041" lon="5.7083">
        <ele>493.6</ele>
        <time>2023-05-16T11:08:27.864Z</time>
      </trkpt>
      <trkpt lat="44.87037" lon="5.70834">
        <ele>493.7</ele>
        <time>2023-05-16T11:08:29.726Z</time>
      </trkpt>
      <trkpt lat="44.87033" lon="5.70837">
        <ele>493.7</ele>
        <time>2023-05-16T11:08:31.341Z</time>
      </trkpt>
      <trkpt lat="44.87031" lon="5.7084">
        <ele>493.7</ele>
        <time>2023-05-16T11:08:32.381Z</time>
      </trkpt>
      <trkpt lat="44.87029" lon="5.70844">
        <ele>493.7</ele>
        <time>2023-05-16T11:08:33.618Z</time>
      </trkpt>
      <trkpt lat="44.87028" lon="5.70848">
        <ele>493.6</ele>
        <time>2023-05-16T11:08:34.587Z</time>
      </trkpt>
      <trkpt lat="44.87028" lon="5.70854">
        <ele>493.6</ele>
        <time>2023-05-16T11:08:36.103Z</time>
      </trkpt>
      <trkpt lat="44.87029" lon="5.7086">
        <ele>493.6</ele>
        <time>2023-05-16T11:08:37.660Z</time>
      </trkpt>
      <trkpt lat="44.8703" lon="5.70867">
        <ele>493.5</ele>
        <time>2023-05-16T11:08:39.358Z</time>
      </trkpt>
      <trkpt lat="44.87031" lon="5.7087">
        <ele>493.5</ele>
        <time>2023-05-16T11:08:40.196Z</time>
      </trkpt>
      <trkpt lat="44.87031" lon="5.70874">
        <ele>493.5</ele>
        <time>2023-05-16T11:08:41.206Z</time>
      </trkpt>
      <trkpt lat="44.8703" lon="5.70878">
        <ele>493.5</ele>
        <time>2023-05-16T11:08:42.278Z</time>
      </trkpt>
      <trkpt lat="44.87029" lon="5.70884">
        <ele>493.5</ele>
        <time>2023-05-16T11:08:43.835Z</time>
      </trkpt>
      <trkpt lat="44.87027" lon="5.70889">
        <ele>493.6</ele>
        <time>2023-05-16T11:08:45.401Z</time>
      </trkpt>
      <trkpt lat="44.87024" lon="5.70893">
        <ele>493.8</ele>
        <time>2023-05-16T11:08:47.117Z</time>
      </trkpt>
      <trkpt lat="44.87022" lon="5.70897">
        <ele>494</ele>
        <time>2023-05-16T11:08:48.604Z</time>
      </trkpt>
      <trkpt lat="44.8702" lon="5.709">
        <ele>494.1</ele>
        <time>2023-05-16T11:08:49.762Z</time>
      </trkpt>
      <trkpt lat="44.87018" lon="5.70903">
        <ele>494.2</ele>
        <time>2023-05-16T11:08:50.921Z</time>
      </trkpt>
      <trkpt lat="44.87016" lon="5.70907">
        <ele>494.5</ele>
        <time>2023-05-16T11:08:52.559Z</time>
      </trkpt>
      <trkpt lat="44.87014" lon="5.7091">
        <ele>494.7</ele>
        <time>2023-05-16T11:08:53.856Z</time>
      </trkpt>
      <trkpt lat="44.87012" lon="5.70914">
        <ele>494.9</ele>
        <time>2023-05-16T11:08:55.343Z</time>
      </trkpt>
      <trkpt lat="44.8701" lon="5.70918">
        <ele>495.1</ele>
        <time>2023-05-16T11:08:56.829Z</time>
      </trkpt>
      <trkpt lat="44.87008" lon="5.70923">
        <ele>495.4</ele>
        <time>2023-05-16T11:08:58.669Z</time>
      </trkpt>
      <trkpt lat="44.87006" lon="5.70927">
        <ele>495.5</ele>
        <time>2023-05-16T11:09:00.022Z</time>
      </trkpt>
      <trkpt lat="44.87005" lon="5.70931">
        <ele>495.6</ele>
        <time>2023-05-16T11:09:01.212Z</time>
      </trkpt>
      <trkpt lat="44.87003" lon="5.70935">
        <ele>495.7</ele>
        <time>2023-05-16T11:09:02.566Z</time>
      </trkpt>
      <trkpt lat="44.87002" lon="5.70939">
        <ele>495.8</ele>
        <time>2023-05-16T11:09:03.755Z</time>
      </trkpt>
      <trkpt lat="44.87" lon="5.70943">
        <ele>495.9</ele>
        <time>2023-05-16T11:09:05.109Z</time>
      </trkpt>
      <trkpt lat="44.86996" lon="5.70944">
        <ele>495.7</ele>
        <time>2023-05-16T11:09:06.376Z</time>
      </trkpt>
      <trkpt lat="44.86992" lon="5.70945">
        <ele>495.5</ele>
        <time>2023-05-16T11:09:07.643Z</time>
      </trkpt>
      <trkpt lat="44.86988" lon="5.70945">
        <ele>495.2</ele>
        <time>2023-05-16T11:09:08.890Z</time>
      </trkpt>
      <trkpt lat="44.86985" lon="5.70946">
        <ele>495</ele>
        <time>2023-05-16T11:09:09.852Z</time>
      </trkpt>
      <trkpt lat="44.86982" lon="5.70946">
        <ele>494.9</ele>
        <time>2023-05-16T11:09:10.819Z</time>
      </trkpt>
      <trkpt lat="44.86979" lon="5.70947">
        <ele>494.7</ele>
        <time>2023-05-16T11:09:11.780Z</time>
      </trkpt>
      <trkpt lat="44.86977" lon="5.70944">
        <ele>494.3</ele>
        <time>2023-05-16T11:09:12.691Z</time>
      </trkpt>
      <trkpt lat="44.86974" lon="5.70941">
        <ele>493.8</ele>
        <time>2023-05-16T11:09:13.838Z</time>
      </trkpt>
      <trkpt lat="44.86971" lon="5.70938">
        <ele>493</ele>
        <time>2023-05-16T11:09:14.985Z</time>
      </trkpt>
      <trkpt lat="44.86967" lon="5.70938">
        <ele>493</ele>
        <time>2023-05-16T11:09:16.410Z</time>
      </trkpt>
      <trkpt lat="44.86962" lon="5.70935">
        <ele>490.5</ele>
        <time>2023-05-16T11:09:18.105Z</time>
      </trkpt>
      <trkpt lat="44.8696" lon="5.70933">
        <ele>488.9</ele>
        <time>2023-05-16T11:09:18.870Z</time>
      </trkpt>
      <trkpt lat="44.86955" lon="5.70929">
        <ele>485.6</ele>
        <time>2023-05-16T11:09:20.662Z</time>
      </trkpt>
      <trkpt lat="44.86952" lon="5.70926">
        <ele>483.3</ele>
        <time>2023-05-16T11:09:21.809Z</time>
      </trkpt>
      <trkpt lat="44.86948" lon="5.70923">
        <ele>477.7</ele>
        <time>2023-05-16T11:09:23.222Z</time>
      </trkpt>
      <trkpt lat="44.86944" lon="5.70919">
        <ele>471.1</ele>
        <time>2023-05-16T11:09:24.751Z</time>
      </trkpt>
      <trkpt lat="44.8694" lon="5.70915">
        <ele>467.5</ele>
        <time>2023-05-16T11:09:26.280Z</time>
      </trkpt>
      <trkpt lat="44.86938" lon="5.70913">
        <ele>465.9</ele>
        <time>2023-05-16T11:09:27.045Z</time>
      </trkpt>
      <trkpt lat="44.86934" lon="5.70911">
        <ele>464.8</ele>
        <time>2023-05-16T11:09:28.369Z</time>
      </trkpt>
      <trkpt lat="44.86931" lon="5.70908">
        <ele>464.5</ele>
        <time>2023-05-16T11:09:29.515Z</time>
      </trkpt>
      <trkpt lat="44.86929" lon="5.70906">
        <ele>464.3</ele>
        <time>2023-05-16T11:09:30.280Z</time>
      </trkpt>
      <trkpt lat="44.86926" lon="5.70904">
        <ele>465.6</ele>
        <time>2023-05-16T11:09:35.470Z</time>
      </trkpt>
      <trkpt lat="44.86923" lon="5.70901">
        <ele>467.4</ele>
        <time>2023-05-16T11:09:42.351Z</time>
      </trkpt>
      <trkpt lat="44.86919" lon="5.70899">
        <ele>469.7</ele>
        <time>2023-05-16T11:09:50.293Z</time>
      </trkpt>
      <trkpt lat="44.86916" lon="5.70897">
        <ele>471.8</ele>
        <time>2023-05-16T11:09:56.502Z</time>
      </trkpt>
      <trkpt lat="44.86912" lon="5.70894">
        <ele>475.1</ele>
        <time>2023-05-16T11:10:04.979Z</time>
      </trkpt>
      <trkpt lat="44.86909" lon="5.70891">
        <ele>476.7</ele>
        <time>2023-05-16T11:10:11.674Z</time>
      </trkpt>
      <trkpt lat="44.86905" lon="5.70888">
        <ele>479.5</ele>
        <time>2023-05-16T11:10:20.151Z</time>
      </trkpt>
      <trkpt lat="44.86902" lon="5.70886">
        <ele>480.9</ele>
        <time>2023-05-16T11:10:25.936Z</time>
      </trkpt>
      <trkpt lat="44.869" lon="5.70884">
        <ele>482.4</ele>
        <time>2023-05-16T11:10:30.524Z</time>
      </trkpt>
      <trkpt lat="44.86897" lon="5.70882">
        <ele>483.7</ele>
        <time>2023-05-16T11:10:35.714Z</time>
      </trkpt>
      <trkpt lat="44.86895" lon="5.7088">
        <ele>485.1</ele>
        <time>2023-05-16T11:10:40.301Z</time>
      </trkpt>
      <trkpt lat="44.86892" lon="5.70878">
        <ele>486.7</ele>
        <time>2023-05-16T11:10:46.510Z</time>
      </trkpt>
      <trkpt lat="44.86889" lon="5.70875">
        <ele>488.4</ele>
        <time>2023-05-16T11:10:53.392Z</time>
      </trkpt>
      <trkpt lat="44.86886" lon="5.70873">
        <ele>489.9</ele>
        <time>2023-05-16T11:10:59.601Z</time>
      </trkpt>
      <trkpt lat="44.86882" lon="5.70871">
        <ele>491.8</ele>
        <time>2023-05-16T11:11:07.543Z</time>
      </trkpt>
      <trkpt lat="44.86879" lon="5.70869">
        <ele>493.3</ele>
        <time>2023-05-16T11:11:13.752Z</time>
      </trkpt>
      <trkpt lat="44.86875" lon="5.70866">
        <ele>495.4</ele>
        <time>2023-05-16T11:11:22.229Z</time>
      </trkpt>
      <trkpt lat="44.86871" lon="5.70863">
        <ele>497.7</ele>
        <time>2023-05-16T11:11:30.707Z</time>
      </trkpt>
      <trkpt lat="44.86867" lon="5.7086">
        <ele>500.2</ele>
        <time>2023-05-16T11:11:39.184Z</time>
      </trkpt>
      <trkpt lat="44.86863" lon="5.70857">
        <ele>502.6</ele>
        <time>2023-05-16T11:11:47.661Z</time>
      </trkpt>
      <trkpt lat="44.86859" lon="5.70853">
        <ele>505.6</ele>
        <time>2023-05-16T11:11:56.836Z</time>
      </trkpt>
      <trkpt lat="44.86855" lon="5.70849">
        <ele>507.9</ele>
        <time>2023-05-16T11:12:06.011Z</time>
      </trkpt>
      <trkpt lat="44.86852" lon="5.70847">
        <ele>509.1</ele>
        <time>2023-05-16T11:12:10.623Z</time>
      </trkpt>
      <trkpt lat="44.86849" lon="5.70844">
        <ele>510.5</ele>
        <time>2023-05-16T11:12:16.135Z</time>
      </trkpt>
      <trkpt lat="44.86845" lon="5.7084">
        <ele>511.8</ele>
        <time>2023-05-16T11:12:20.704Z</time>
      </trkpt>
      <trkpt lat="44.86841" lon="5.70836">
        <ele>513</ele>
        <time>2023-05-16T11:12:24.905Z</time>
      </trkpt>
      <trkpt lat="44.86838" lon="5.70834">
        <ele>514</ele>
        <time>2023-05-16T11:12:28.500Z</time>
      </trkpt>
      <trkpt lat="44.86834" lon="5.70831">
        <ele>515.1</ele>
        <time>2023-05-16T11:12:32.352Z</time>
      </trkpt>
      <trkpt lat="44.86831" lon="5.70829">
        <ele>516.3</ele>
        <time>2023-05-16T11:12:36.964Z</time>
      </trkpt>
      <trkpt lat="44.86828" lon="5.70826">
        <ele>517.5</ele>
        <time>2023-05-16T11:12:41.384Z</time>
      </trkpt>
      <trkpt lat="44.86825" lon="5.70824">
        <ele>519.3</ele>
        <time>2023-05-16T11:12:47.594Z</time>
      </trkpt>
      <trkpt lat="44.86822" lon="5.70821">
        <ele>521.1</ele>
        <time>2023-05-16T11:12:54.475Z</time>
      </trkpt>
      <trkpt lat="44.86819" lon="5.70819">
        <ele>524.5</ele>
        <time>2023-05-16T11:13:00.684Z</time>
      </trkpt>
      <trkpt lat="44.86817" lon="5.70817">
        <ele>528</ele>
        <time>2023-05-16T11:13:05.272Z</time>
      </trkpt>
      <trkpt lat="44.86814" lon="5.70815">
        <ele>532.2</ele>
        <time>2023-05-16T11:13:11.481Z</time>
      </trkpt>
      <trkpt lat="44.86811" lon="5.70812">
        <ele>537.8</ele>
        <time>2023-05-16T11:13:18.362Z</time>
      </trkpt>
      <trkpt lat="44.86808" lon="5.7081">
        <ele>541.9</ele>
        <time>2023-05-16T11:13:24.571Z</time>
      </trkpt>
      <trkpt lat="44.86805" lon="5.70807">
        <ele>547.6</ele>
        <time>2023-05-16T11:13:31.453Z</time>
      </trkpt>
      <trkpt lat="44.86803" lon="5.70805">
        <ele>554.6</ele>
        <time>2023-05-16T11:13:36.040Z</time>
      </trkpt>
      <trkpt lat="44.868" lon="5.70802">
        <ele>563.7</ele>
        <time>2023-05-16T11:13:42.921Z</time>
      </trkpt>
      <trkpt lat="44.86797" lon="5.70799">
        <ele>569</ele>
        <time>2023-05-16T11:13:49.803Z</time>
      </trkpt>
      <trkpt lat="44.86794" lon="5.70797">
        <ele>569</ele>
        <time>2023-05-16T11:13:50.985Z</time>
      </trkpt>
      <trkpt lat="44.86791" lon="5.70795">
        <ele>569</ele>
        <time>2023-05-16T11:13:52.168Z</time>
      </trkpt>
      <trkpt lat="44.86788" lon="5.70792">
        <ele>569</ele>
        <time>2023-05-16T11:13:53.479Z</time>
      </trkpt>
      <trkpt lat="44.86785" lon="5.7079">
        <ele>569</ele>
        <time>2023-05-16T11:13:54.661Z</time>
      </trkpt>
      <trkpt lat="44.86784" lon="5.70785">
        <ele>569</ele>
        <time>2023-05-16T11:13:55.974Z</time>
      </trkpt>
      <trkpt lat="44.86783" lon="5.7078">
        <ele>569.2</ele>
        <time>2023-05-16T11:13:57.534Z</time>
      </trkpt>
      <trkpt lat="44.8678" lon="5.70776">
        <ele>570.2</ele>
        <time>2023-05-16T11:14:01.036Z</time>
      </trkpt>
      <trkpt lat="44.86778" lon="5.70773">
        <ele>571</ele>
        <time>2023-05-16T11:14:03.858Z</time>
      </trkpt>
      <trkpt lat="44.86776" lon="5.70768">
        <ele>572</ele>
        <time>2023-05-16T11:14:07.360Z</time>
      </trkpt>
      <trkpt lat="44.86772" lon="5.70766">
        <ele>572.9</ele>
        <time>2023-05-16T11:14:10.549Z</time>
      </trkpt>
      <trkpt lat="44.86771" lon="5.70763">
        <ele>573.5</ele>
        <time>2023-05-16T11:14:12.652Z</time>
      </trkpt>
      <trkpt lat="44.8677" lon="5.70759">
        <ele>574.2</ele>
        <time>2023-05-16T11:14:15.107Z</time>
      </trkpt>
      <trkpt lat="44.86768" lon="5.70754">
        <ele>575.1</ele>
        <time>2023-05-16T11:14:18.278Z</time>
      </trkpt>
      <trkpt lat="44.86767" lon="5.7075">
        <ele>575.9</ele>
        <time>2023-05-16T11:14:21.090Z</time>
      </trkpt>
      <trkpt lat="44.86766" lon="5.70745">
        <ele>576.8</ele>
        <time>2023-05-16T11:14:24.242Z</time>
      </trkpt>
      <trkpt lat="44.86764" lon="5.70741">
        <ele>577.5</ele>
        <time>2023-05-16T11:14:26.745Z</time>
      </trkpt>
      <trkpt lat="44.86762" lon="5.70737">
        <ele>578.4</ele>
        <time>2023-05-16T11:14:29.902Z</time>
      </trkpt>
      <trkpt lat="44.86759" lon="5.70733">
        <ele>579.3</ele>
        <time>2023-05-16T11:14:33.079Z</time>
      </trkpt>
      <trkpt lat="44.86758" lon="5.7073">
        <ele>579.9</ele>
        <time>2023-05-16T11:14:35.181Z</time>
      </trkpt>
      <trkpt lat="44.86756" lon="5.70726">
        <ele>580.7</ele>
        <time>2023-05-16T11:14:37.989Z</time>
      </trkpt>
      <trkpt lat="44.86754" lon="5.70722">
        <ele>581.4</ele>
        <time>2023-05-16T11:14:40.492Z</time>
      </trkpt>
      <trkpt lat="44.86752" lon="5.70718">
        <ele>582</ele>
        <time>2023-05-16T11:14:42.732Z</time>
      </trkpt>
      <trkpt lat="44.86749" lon="5.70714">
        <ele>582.7</ele>
        <time>2023-05-16T11:14:45.363Z</time>
      </trkpt>
      <trkpt lat="44.86746" lon="5.70711">
        <ele>583.3</ele>
        <time>2023-05-16T11:14:47.650Z</time>
      </trkpt>
      <trkpt lat="44.86744" lon="5.70707">
        <ele>583.9</ele>
        <time>2023-05-16T11:14:49.890Z</time>
      </trkpt>
      <trkpt lat="44.86742" lon="5.70703">
        <ele>584.4</ele>
        <time>2023-05-16T11:14:51.901Z</time>
      </trkpt>
      <trkpt lat="44.86741" lon="5.70698">
        <ele>584.9</ele>
        <time>2023-05-16T11:14:53.970Z</time>
      </trkpt>
      <trkpt lat="44.8674" lon="5.70694">
        <ele>585.4</ele>
        <time>2023-05-16T11:14:55.863Z</time>
      </trkpt>
      <trkpt lat="44.86738" lon="5.70691">
        <ele>585.8</ele>
        <time>2023-05-16T11:14:57.511Z</time>
      </trkpt>
      <trkpt lat="44.86736" lon="5.70687">
        <ele>586.2</ele>
        <time>2023-05-16T11:14:59.323Z</time>
      </trkpt>
      <trkpt lat="44.86735" lon="5.70682">
        <ele>586.7</ele>
        <time>2023-05-16T11:15:01.392Z</time>
      </trkpt>
      <trkpt lat="44.86733" lon="5.70677">
        <ele>587.1</ele>
        <time>2023-05-16T11:15:03.394Z</time>
      </trkpt>
      <trkpt lat="44.86731" lon="5.70673">
        <ele>587.5</ele>
        <time>2023-05-16T11:15:05.205Z</time>
      </trkpt>
      <trkpt lat="44.86731" lon="5.70669">
        <ele>587.8</ele>
        <time>2023-05-16T11:15:06.637Z</time>
      </trkpt>
      <trkpt lat="44.8673" lon="5.70664">
        <ele>588.1</ele>
        <time>2023-05-16T11:15:08.346Z</time>
      </trkpt>
      <trkpt lat="44.86729" lon="5.7066">
        <ele>588.3</ele>
        <time>2023-05-16T11:15:09.673Z</time>
      </trkpt>
      <trkpt lat="44.86728" lon="5.70656">
        <ele>588.6</ele>
        <time>2023-05-16T11:15:11.159Z</time>
      </trkpt>
      <trkpt lat="44.86728" lon="5.70651">
        <ele>588.8</ele>
        <time>2023-05-16T11:15:12.671Z</time>
      </trkpt>
      <trkpt lat="44.86729" lon="5.70647">
        <ele>588.9</ele>
        <time>2023-05-16T11:15:13.861Z</time>
      </trkpt>
      <trkpt lat="44.8673" lon="5.70643">
        <ele>589.1</ele>
        <time>2023-05-16T11:15:15.188Z</time>
      </trkpt>
      <trkpt lat="44.86729" lon="5.70638">
        <ele>589.3</ele>
        <time>2023-05-16T11:15:16.748Z</time>
      </trkpt>
      <trkpt lat="44.86728" lon="5.70634">
        <ele>589.4</ele>
        <time>2023-05-16T11:15:17.938Z</time>
      </trkpt>
      <trkpt lat="44.86727" lon="5.70629">
        <ele>589.5</ele>
        <time>2023-05-16T11:15:19.367Z</time>
      </trkpt>
      <trkpt lat="44.86728" lon="5.70623">
        <ele>589.5</ele>
        <time>2023-05-16T11:15:20.924Z</time>
      </trkpt>
      <trkpt lat="44.86729" lon="5.70618">
        <ele>589.5</ele>
        <time>2023-05-16T11:15:22.236Z</time>
      </trkpt>
      <trkpt lat="44.86728" lon="5.70613">
        <ele>589.5</ele>
        <time>2023-05-16T11:15:23.549Z</time>
      </trkpt>
      <trkpt lat="44.86725" lon="5.70609">
        <ele>589.5</ele>
        <time>2023-05-16T11:15:25.020Z</time>
      </trkpt>
      <trkpt lat="44.86724" lon="5.70604">
        <ele>589.5</ele>
        <time>2023-05-16T11:15:26.333Z</time>
      </trkpt>
      <trkpt lat="44.86722" lon="5.70601">
        <ele>589.4</ele>
        <time>2023-05-16T11:15:27.271Z</time>
      </trkpt>
      <trkpt lat="44.8672" lon="5.70598">
        <ele>589.4</ele>
        <time>2023-05-16T11:15:28.312Z</time>
      </trkpt>
      <trkpt lat="44.86718" lon="5.70595">
        <ele>589.4</ele>
        <time>2023-05-16T11:15:29.352Z</time>
      </trkpt>
      <trkpt lat="44.86716" lon="5.70592">
        <ele>589.4</ele>
        <time>2023-05-16T11:15:30.393Z</time>
      </trkpt>
      <trkpt lat="44.86716" lon="5.70597">
        <ele>589.4</ele>
        <time>2023-05-16T11:15:31.656Z</time>
      </trkpt>
      <trkpt lat="44.86716" lon="5.70601">
        <ele>589.4</ele>
        <time>2023-05-16T11:15:32.666Z</time>
      </trkpt>
      <trkpt lat="44.86716" lon="5.70605">
        <ele>589.5</ele>
        <time>2023-05-16T11:15:33.796Z</time>
      </trkpt>
      <trkpt lat="44.86715" lon="5.70609">
        <ele>589.5</ele>
        <time>2023-05-16T11:15:34.867Z</time>
      </trkpt>
      <trkpt lat="44.86715" lon="5.70615">
        <ele>589.5</ele>
        <time>2023-05-16T11:15:36.383Z</time>
      </trkpt>
      <trkpt lat="44.86716" lon="5.70622">
        <ele>589.7</ele>
        <time>2023-05-16T11:15:38.427Z</time>
      </trkpt>
      <trkpt lat="44.86717" lon="5.70629">
        <ele>589.9</ele>
        <time>2023-05-16T11:15:40.470Z</time>
      </trkpt>
      <trkpt lat="44.86717" lon="5.70634">
        <ele>590.2</ele>
        <time>2023-05-16T11:15:42.133Z</time>
      </trkpt>
      <trkpt lat="44.86716" lon="5.70638">
        <ele>590.4</ele>
        <time>2023-05-16T11:15:43.460Z</time>
      </trkpt>
      <trkpt lat="44.86716" lon="5.70642">
        <ele>590.7</ele>
        <time>2023-05-16T11:15:44.891Z</time>
      </trkpt>
      <trkpt lat="44.86715" lon="5.70647">
        <ele>591</ele>
        <time>2023-05-16T11:15:46.600Z</time>
      </trkpt>
      <trkpt lat="44.86715" lon="5.70651">
        <ele>591.3</ele>
        <time>2023-05-16T11:15:48.032Z</time>
      </trkpt>
      <trkpt lat="44.86715" lon="5.70655">
        <ele>591.8</ele>
        <time>2023-05-16T11:15:49.886Z</time>
      </trkpt>
      <trkpt lat="44.86714" lon="5.7066">
        <ele>592.4</ele>
        <time>2023-05-16T11:15:52.175Z</time>
      </trkpt>
      <trkpt lat="44.86714" lon="5.70664">
        <ele>592.9</ele>
        <time>2023-05-16T11:15:54.029Z</time>
      </trkpt>
      <trkpt lat="44.86715" lon="5.70668">
        <ele>593.5</ele>
        <time>2023-05-16T11:15:56.180Z</time>
      </trkpt>
      <trkpt lat="44.86715" lon="5.70673">
        <ele>594.3</ele>
        <time>2023-05-16T11:15:58.992Z</time>
      </trkpt>
      <trkpt lat="44.86715" lon="5.7068">
        <ele>595.2</ele>
        <time>2023-05-16T11:16:02.300Z</time>
      </trkpt>
      <trkpt lat="44.86716" lon="5.70686">
        <ele>596.2</ele>
        <time>2023-05-16T11:16:05.811Z</time>
      </trkpt>
      <trkpt lat="44.86716" lon="5.70692">
        <ele>597.5</ele>
        <time>2023-05-16T11:16:10.502Z</time>
      </trkpt>
      <trkpt lat="44.86716" lon="5.70696">
        <ele>598.3</ele>
        <time>2023-05-16T11:16:13.337Z</time>
      </trkpt>
      <trkpt lat="44.86715" lon="5.70701">
        <ele>599</ele>
        <time>2023-05-16T11:16:15.876Z</time>
      </trkpt>
      <trkpt lat="44.86711" lon="5.70705">
        <ele>599.8</ele>
        <time>2023-05-16T11:16:18.926Z</time>
      </trkpt>
      <trkpt lat="44.86708" lon="5.70705">
        <ele>600.3</ele>
        <time>2023-05-16T11:16:20.817Z</time>
      </trkpt>
      <trkpt lat="44.86705" lon="5.70702">
        <ele>600.8</ele>
        <time>2023-05-16T11:16:22.885Z</time>
      </trkpt>
      <trkpt lat="44.86702" lon="5.70699">
        <ele>601.3</ele>
        <time>2023-05-16T11:16:24.954Z</time>
      </trkpt>
      <trkpt lat="44.867" lon="5.70695">
        <ele>601.7</ele>
        <time>2023-05-16T11:16:26.765Z</time>
      </trkpt>
      <trkpt lat="44.86699" lon="5.70691">
        <ele>602.1</ele>
        <time>2023-05-16T11:16:28.438Z</time>
      </trkpt>
      <trkpt lat="44.86699" lon="5.70687">
        <ele>602.4</ele>
        <time>2023-05-16T11:16:29.870Z</time>
      </trkpt>
      <trkpt lat="44.867" lon="5.70683">
        <ele>602.7</ele>
        <time>2023-05-16T11:16:31.356Z</time>
      </trkpt>
      <trkpt lat="44.867" lon="5.70678">
        <ele>603</ele>
        <time>2023-05-16T11:16:33.019Z</time>
      </trkpt>
      <trkpt lat="44.86698" lon="5.70675">
        <ele>603.3</ele>
        <time>2023-05-16T11:16:34.477Z</time>
      </trkpt>
      <trkpt lat="44.86696" lon="5.7067">
        <ele>603.7</ele>
        <time>2023-05-16T11:16:36.479Z</time>
      </trkpt>
      <trkpt lat="44.86696" lon="5.70666">
        <ele>604</ele>
        <time>2023-05-16T11:16:37.910Z</time>
      </trkpt>
      <trkpt lat="44.86696" lon="5.70661">
        <ele>604.2</ele>
        <time>2023-05-16T11:16:39.423Z</time>
      </trkpt>
      <trkpt lat="44.86694" lon="5.70657">
        <ele>604.6</ele>
        <time>2023-05-16T11:16:41.234Z</time>
      </trkpt>
      <trkpt lat="44.86692" lon="5.70652">
        <ele>604.9</ele>
        <time>2023-05-16T11:16:43.074Z</time>
      </trkpt>
      <trkpt lat="44.8669" lon="5.70648">
        <ele>605.1</ele>
        <time>2023-05-16T11:16:44.560Z</time>
      </trkpt>
      <trkpt lat="44.86688" lon="5.70644">
        <ele>605.4</ele>
        <time>2023-05-16T11:16:46.198Z</time>
      </trkpt>
      <trkpt lat="44.86688" lon="5.7064">
        <ele>605.6</ele>
        <time>2023-05-16T11:16:47.467Z</time>
      </trkpt>
      <trkpt lat="44.86687" lon="5.70635">
        <ele>605.8</ele>
        <time>2023-05-16T11:16:49.027Z</time>
      </trkpt>
      <trkpt lat="44.86685" lon="5.70632">
        <ele>606</ele>
        <time>2023-05-16T11:16:50.324Z</time>
      </trkpt>
      <trkpt lat="44.86684" lon="5.70628">
        <ele>606.2</ele>
        <time>2023-05-16T11:16:51.650Z</time>
      </trkpt>
      <trkpt lat="44.86683" lon="5.70623">
        <ele>606.3</ele>
        <time>2023-05-16T11:16:53.079Z</time>
      </trkpt>
      <trkpt lat="44.86682" lon="5.70619">
        <ele>606.4</ele>
        <time>2023-05-16T11:16:54.269Z</time>
      </trkpt>
      <trkpt lat="44.86681" lon="5.70615">
        <ele>606.5</ele>
        <time>2023-05-16T11:16:55.459Z</time>
      </trkpt>
      <trkpt lat="44.86682" lon="5.7061">
        <ele>606.6</ele>
        <time>2023-05-16T11:16:56.888Z</time>
      </trkpt>
      <trkpt lat="44.86682" lon="5.70605">
        <ele>606.6</ele>
        <time>2023-05-16T11:16:58.151Z</time>
      </trkpt>
      <trkpt lat="44.86682" lon="5.70601">
        <ele>606.7</ele>
        <time>2023-05-16T11:16:59.280Z</time>
      </trkpt>
      <trkpt lat="44.86682" lon="5.70597">
        <ele>606.8</ele>
        <time>2023-05-16T11:17:00.409Z</time>
      </trkpt>
      <trkpt lat="44.86681" lon="5.70593">
        <ele>606.8</ele>
        <time>2023-05-16T11:17:01.481Z</time>
      </trkpt>
      <trkpt lat="44.8668" lon="5.70588">
        <ele>606.9</ele>
        <time>2023-05-16T11:17:02.910Z</time>
      </trkpt>
      <trkpt lat="44.8668" lon="5.70584">
        <ele>607</ele>
        <time>2023-05-16T11:17:04.039Z</time>
      </trkpt>
      <trkpt lat="44.8668" lon="5.70579">
        <ele>607.2</ele>
        <time>2023-05-16T11:17:05.551Z</time>
      </trkpt>
      <trkpt lat="44.8668" lon="5.70574">
        <ele>607.4</ele>
        <time>2023-05-16T11:17:07.064Z</time>
      </trkpt>
      <trkpt lat="44.86679" lon="5.70568">
        <ele>607.6</ele>
        <time>2023-05-16T11:17:08.864Z</time>
      </trkpt>
      <trkpt lat="44.8668" lon="5.70564">
        <ele>607.8</ele>
        <time>2023-05-16T11:17:10.191Z</time>
      </trkpt>
      <trkpt lat="44.86681" lon="5.7056">
        <ele>608.1</ele>
        <time>2023-05-16T11:17:11.677Z</time>
      </trkpt>
      <trkpt lat="44.8668" lon="5.70556">
        <ele>608.4</ele>
        <time>2023-05-16T11:17:13.163Z</time>
      </trkpt>
      <trkpt lat="44.86681" lon="5.70552">
        <ele>608.7</ele>
        <time>2023-05-16T11:17:14.650Z</time>
      </trkpt>
      <trkpt lat="44.86679" lon="5.70549">
        <ele>609</ele>
        <time>2023-05-16T11:17:16.108Z</time>
      </trkpt>
      <trkpt lat="44.86676" lon="5.70547">
        <ele>609.3</ele>
        <time>2023-05-16T11:17:17.696Z</time>
      </trkpt>
      <trkpt lat="44.86674" lon="5.70545">
        <ele>609.6</ele>
        <time>2023-05-16T11:17:19.009Z</time>
      </trkpt>
      <trkpt lat="44.8667" lon="5.70543">
        <ele>610.1</ele>
        <time>2023-05-16T11:17:21.245Z</time>
      </trkpt>
      <trkpt lat="44.86666" lon="5.70541">
        <ele>610.6</ele>
        <time>2023-05-16T11:17:23.480Z</time>
      </trkpt>
      <trkpt lat="44.86663" lon="5.70539">
        <ele>611</ele>
        <time>2023-05-16T11:17:25.246Z</time>
      </trkpt>
      <trkpt lat="44.86658" lon="5.70539">
        <ele>611.6</ele>
        <time>2023-05-16T11:17:27.901Z</time>
      </trkpt>
      <trkpt lat="44.86654" lon="5.70538">
        <ele>612.1</ele>
        <time>2023-05-16T11:17:30.082Z</time>
      </trkpt>
      <trkpt lat="44.86651" lon="5.70539">
        <ele>612.4</ele>
        <time>2023-05-16T11:17:31.593Z</time>
      </trkpt>
      <trkpt lat="44.86648" lon="5.70539">
        <ele>612.9</ele>
        <time>2023-05-16T11:17:33.484Z</time>
      </trkpt>
      <trkpt lat="44.86644" lon="5.7054">
        <ele>613.4</ele>
        <time>2023-05-16T11:17:35.665Z</time>
      </trkpt>
      <trkpt lat="44.86641" lon="5.7054">
        <ele>613.7</ele>
        <time>2023-05-16T11:17:37.149Z</time>
      </trkpt>
      <trkpt lat="44.86638" lon="5.7054">
        <ele>614.2</ele>
        <time>2023-05-16T11:17:39.040Z</time>
      </trkpt>
      <trkpt lat="44.86635" lon="5.7054">
        <ele>614.6</ele>
        <time>2023-05-16T11:17:40.711Z</time>
      </trkpt>
      <trkpt lat="44.86631" lon="5.70541">
        <ele>615.1</ele>
        <time>2023-05-16T11:17:42.892Z</time>
      </trkpt>
      <trkpt lat="44.86628" lon="5.70542">
        <ele>615.5</ele>
        <time>2023-05-16T11:17:44.588Z</time>
      </trkpt>
      <trkpt lat="44.86624" lon="5.70544">
        <ele>616</ele>
        <time>2023-05-16T11:17:46.824Z</time>
      </trkpt>
      <trkpt lat="44.8662" lon="5.70546">
        <ele>616.5</ele>
        <time>2023-05-16T11:17:49.059Z</time>
      </trkpt>
      <trkpt lat="44.86616" lon="5.70548">
        <ele>616.9</ele>
        <time>2023-05-16T11:17:51.118Z</time>
      </trkpt>
      <trkpt lat="44.86614" lon="5.7055">
        <ele>617.3</ele>
        <time>2023-05-16T11:17:52.643Z</time>
      </trkpt>
      <trkpt lat="44.86612" lon="5.70553">
        <ele>618</ele>
        <time>2023-05-16T11:17:55.094Z</time>
      </trkpt>
      <trkpt lat="44.8661" lon="5.70556">
        <ele>618.3</ele>
        <time>2023-05-16T11:17:56.553Z</time>
      </trkpt>
      <trkpt lat="44.86608" lon="5.70559">
        <ele>618.7</ele>
        <time>2023-05-16T11:17:58.201Z</time>
      </trkpt>
      <trkpt lat="44.86606" lon="5.70561">
        <ele>619.1</ele>
        <time>2023-05-16T11:17:59.726Z</time>
      </trkpt>
      <trkpt lat="44.86603" lon="5.70564">
        <ele>619.5</ele>
        <time>2023-05-16T11:18:01.602Z</time>
      </trkpt>
      <trkpt lat="44.866" lon="5.70567">
        <ele>620</ele>
        <time>2023-05-16T11:18:03.671Z</time>
      </trkpt>
      <trkpt lat="44.86598" lon="5.70569">
        <ele>620.4</ele>
        <time>2023-05-16T11:18:05.196Z</time>
      </trkpt>
      <trkpt lat="44.86596" lon="5.70572">
        <ele>621</ele>
        <time>2023-05-16T11:18:07.334Z</time>
      </trkpt>
      <trkpt lat="44.86593" lon="5.70576">
        <ele>621.5</ele>
        <time>2023-05-16T11:18:09.534Z</time>
      </trkpt>
      <trkpt lat="44.86592" lon="5.7058">
        <ele>622.1</ele>
        <time>2023-05-16T11:18:11.685Z</time>
      </trkpt>
      <trkpt lat="44.8659" lon="5.70582">
        <ele>622.5</ele>
        <time>2023-05-16T11:18:13.210Z</time>
      </trkpt>
      <trkpt lat="44.86587" lon="5.70585">
        <ele>623.1</ele>
        <time>2023-05-16T11:18:15.498Z</time>
      </trkpt>
      <trkpt lat="44.86583" lon="5.70588">
        <ele>623.7</ele>
        <time>2023-05-16T11:18:18.013Z</time>
      </trkpt>
      <trkpt lat="44.86581" lon="5.70589">
        <ele>624.2</ele>
        <time>2023-05-16T11:18:19.766Z</time>
      </trkpt>
      <trkpt lat="44.86578" lon="5.70592">
        <ele>624.6</ele>
        <time>2023-05-16T11:18:21.642Z</time>
      </trkpt>
      <trkpt lat="44.86575" lon="5.70595">
        <ele>625.3</ele>
        <time>2023-05-16T11:18:24.180Z</time>
      </trkpt>
      <trkpt lat="44.86572" lon="5.70597">
        <ele>625.8</ele>
        <time>2023-05-16T11:18:26.150Z</time>
      </trkpt>
      <trkpt lat="44.8657" lon="5.706">
        <ele>626.2</ele>
        <time>2023-05-16T11:18:27.798Z</time>
      </trkpt>
      <trkpt lat="44.86568" lon="5.70604">
        <ele>626.7</ele>
        <time>2023-05-16T11:18:29.809Z</time>
      </trkpt>
      <trkpt lat="44.86565" lon="5.70607">
        <ele>627.2</ele>
        <time>2023-05-16T11:18:31.877Z</time>
      </trkpt>
      <trkpt lat="44.86563" lon="5.7061">
        <ele>627.6</ele>
        <time>2023-05-16T11:18:33.526Z</time>
      </trkpt>
      <trkpt lat="44.86561" lon="5.70614">
        <ele>628</ele>
        <time>2023-05-16T11:18:35.337Z</time>
      </trkpt>
      <trkpt lat="44.86559" lon="5.70617">
        <ele>628.4</ele>
        <time>2023-05-16T11:18:36.986Z</time>
      </trkpt>
      <trkpt lat="44.86558" lon="5.70621">
        <ele>628.8</ele>
        <time>2023-05-16T11:18:38.659Z</time>
      </trkpt>
      <trkpt lat="44.86557" lon="5.70625">
        <ele>629.2</ele>
        <time>2023-05-16T11:18:40.332Z</time>
      </trkpt>
      <trkpt lat="44.86555" lon="5.70629">
        <ele>629.5</ele>
        <time>2023-05-16T11:18:41.970Z</time>
      </trkpt>
      <trkpt lat="44.86554" lon="5.70633">
        <ele>629.9</ele>
        <time>2023-05-16T11:18:43.643Z</time>
      </trkpt>
      <trkpt lat="44.86552" lon="5.70638">
        <ele>630.3</ele>
        <time>2023-05-16T11:18:45.645Z</time>
      </trkpt>
      <trkpt lat="44.86551" lon="5.70643">
        <ele>630.7</ele>
        <time>2023-05-16T11:18:47.522Z</time>
      </trkpt>
      <trkpt lat="44.8655" lon="5.70647">
        <ele>631.2</ele>
        <time>2023-05-16T11:18:49.415Z</time>
      </trkpt>
      <trkpt lat="44.86548" lon="5.70651">
        <ele>631.6</ele>
        <time>2023-05-16T11:18:51.226Z</time>
      </trkpt>
      <trkpt lat="44.86549" lon="5.70655">
        <ele>632</ele>
        <time>2023-05-16T11:18:52.900Z</time>
      </trkpt>
      <trkpt lat="44.86548" lon="5.70659">
        <ele>632.4</ele>
        <time>2023-05-16T11:18:54.573Z</time>
      </trkpt>
      <trkpt lat="44.86546" lon="5.70663">
        <ele>633</ele>
        <time>2023-05-16T11:18:56.812Z</time>
      </trkpt>
      <trkpt lat="44.86545" lon="5.70667">
        <ele>633.5</ele>
        <time>2023-05-16T11:18:58.705Z</time>
      </trkpt>
      <trkpt lat="44.86543" lon="5.7067">
        <ele>634</ele>
        <time>2023-05-16T11:19:00.577Z</time>
      </trkpt>
      <trkpt lat="44.8654" lon="5.70673">
        <ele>634.5</ele>
        <time>2023-05-16T11:19:02.646Z</time>
      </trkpt>
      <trkpt lat="44.86538" lon="5.70675">
        <ele>634.9</ele>
        <time>2023-05-16T11:19:04.171Z</time>
      </trkpt>
      <trkpt lat="44.86537" lon="5.70679">
        <ele>635.4</ele>
        <time>2023-05-16T11:19:06.063Z</time>
      </trkpt>
      <trkpt lat="44.86537" lon="5.70683">
        <ele>635.6</ele>
        <time>2023-05-16T11:19:07.332Z</time>
      </trkpt>
      <trkpt lat="44.86533" lon="5.70687">
        <ele>635.9</ele>
        <time>2023-05-16T11:19:09.457Z</time>
      </trkpt>
      <trkpt lat="44.86531" lon="5.70689">
        <ele>636.1</ele>
        <time>2023-05-16T11:19:10.595Z</time>
      </trkpt>
      <trkpt lat="44.86528" lon="5.70693">
        <ele>636.3</ele>
        <time>2023-05-16T11:19:12.311Z</time>
      </trkpt>
      <trkpt lat="44.86526" lon="5.70697">
        <ele>636.5</ele>
        <time>2023-05-16T11:19:13.798Z</time>
      </trkpt>
      <trkpt lat="44.86523" lon="5.70701">
        <ele>636.7</ele>
        <time>2023-05-16T11:19:15.514Z</time>
      </trkpt>
      <trkpt lat="44.86521" lon="5.70704">
        <ele>636.9</ele>
        <time>2023-05-16T11:19:16.810Z</time>
      </trkpt>
      <trkpt lat="44.86519" lon="5.70708">
        <ele>637</ele>
        <time>2023-05-16T11:19:18.164Z</time>
      </trkpt>
      <trkpt lat="44.86516" lon="5.70709">
        <ele>637</ele>
        <time>2023-05-16T11:19:19.263Z</time>
      </trkpt>
      <trkpt lat="44.86513" lon="5.70711">
        <ele>637.1</ele>
        <time>2023-05-16T11:19:20.563Z</time>
      </trkpt>
      <trkpt lat="44.8651" lon="5.70712">
        <ele>637.1</ele>
        <time>2023-05-16T11:19:21.662Z</time>
      </trkpt>
      <trkpt lat="44.86507" lon="5.70713">
        <ele>637.1</ele>
        <time>2023-05-16T11:19:22.761Z</time>
      </trkpt>
      <trkpt lat="44.86504" lon="5.70715">
        <ele>637.2</ele>
        <time>2023-05-16T11:19:24.061Z</time>
      </trkpt>
      <trkpt lat="44.865" lon="5.70717">
        <ele>637.2</ele>
        <time>2023-05-16T11:19:25.573Z</time>
      </trkpt>
      <trkpt lat="44.86498" lon="5.70719">
        <ele>637.3</ele>
        <time>2023-05-16T11:19:26.567Z</time>
      </trkpt>
      <trkpt lat="44.86495" lon="5.70721">
        <ele>637.3</ele>
        <time>2023-05-16T11:19:27.750Z</time>
      </trkpt>
      <trkpt lat="44.86492" lon="5.70721">
        <ele>637.4</ele>
        <time>2023-05-16T11:19:28.937Z</time>
      </trkpt>
      <trkpt lat="44.86489" lon="5.7072">
        <ele>637.4</ele>
        <time>2023-05-16T11:19:30.036Z</time>
      </trkpt>
      <trkpt lat="44.86486" lon="5.70718">
        <ele>637.5</ele>
        <time>2023-05-16T11:19:31.336Z</time>
      </trkpt>
      <trkpt lat="44.86483" lon="5.70717">
        <ele>637.6</ele>
        <time>2023-05-16T11:19:32.553Z</time>
      </trkpt>
      <trkpt lat="44.86481" lon="5.70715">
        <ele>637.7</ele>
        <time>2023-05-16T11:19:33.547Z</time>
      </trkpt>
      <trkpt lat="44.86478" lon="5.70712">
        <ele>637.8</ele>
        <time>2023-05-16T11:19:34.974Z</time>
      </trkpt>
      <trkpt lat="44.86476" lon="5.7071">
        <ele>638</ele>
        <time>2023-05-16T11:19:36.112Z</time>
      </trkpt>
      <trkpt lat="44.86474" lon="5.70705">
        <ele>638.2</ele>
        <time>2023-05-16T11:19:37.808Z</time>
      </trkpt>
      <trkpt lat="44.86471" lon="5.70702">
        <ele>638.4</ele>
        <time>2023-05-16T11:19:39.366Z</time>
      </trkpt>
      <trkpt lat="44.86468" lon="5.70698">
        <ele>638.7</ele>
        <time>2023-05-16T11:19:41.226Z</time>
      </trkpt>
      <trkpt lat="44.86465" lon="5.70696">
        <ele>638.9</ele>
        <time>2023-05-16T11:19:42.660Z</time>
      </trkpt>
      <trkpt lat="44.86462" lon="5.70693">
        <ele>639</ele>
        <time>2023-05-16T11:19:44.087Z</time>
      </trkpt>
      <trkpt lat="44.8646" lon="5.70691">
        <ele>639.1</ele>
        <time>2023-05-16T11:19:45.081Z</time>
      </trkpt>
      <trkpt lat="44.86458" lon="5.70687">
        <ele>639.2</ele>
        <time>2023-05-16T11:19:46.435Z</time>
      </trkpt>
      <trkpt lat="44.86456" lon="5.70683">
        <ele>639.2</ele>
        <time>2023-05-16T11:19:47.672Z</time>
      </trkpt>
      <trkpt lat="44.86455" lon="5.70679">
        <ele>639.3</ele>
        <time>2023-05-16T11:19:48.862Z</time>
      </trkpt>
      <trkpt lat="44.86454" lon="5.70674">
        <ele>639.3</ele>
        <time>2023-05-16T11:19:50.174Z</time>
      </trkpt>
      <trkpt lat="44.86453" lon="5.70669">
        <ele>639.4</ele>
        <time>2023-05-16T11:19:51.603Z</time>
      </trkpt>
      <trkpt lat="44.86452" lon="5.70665">
        <ele>639.4</ele>
        <time>2023-05-16T11:19:52.675Z</time>
      </trkpt>
      <trkpt lat="44.86451" lon="5.7066">
        <ele>639.5</ele>
        <time>2023-05-16T11:19:54.104Z</time>
      </trkpt>
      <trkpt lat="44.8645" lon="5.70656">
        <ele>639.5</ele>
        <time>2023-05-16T11:19:55.175Z</time>
      </trkpt>
      <trkpt lat="44.86449" lon="5.70651">
        <ele>639.6</ele>
        <time>2023-05-16T11:19:56.604Z</time>
      </trkpt>
      <trkpt lat="44.8645" lon="5.70645">
        <ele>639.6</ele>
        <time>2023-05-16T11:19:58.162Z</time>
      </trkpt>
      <trkpt lat="44.8645" lon="5.70641">
        <ele>639.6</ele>
        <time>2023-05-16T11:19:59.172Z</time>
      </trkpt>
      <trkpt lat="44.8645" lon="5.70635">
        <ele>639.7</ele>
        <time>2023-05-16T11:20:00.804Z</time>
      </trkpt>
      <trkpt lat="44.8645" lon="5.70631">
        <ele>639.7</ele>
        <time>2023-05-16T11:20:01.814Z</time>
      </trkpt>
      <trkpt lat="44.8645" lon="5.70627">
        <ele>639.7</ele>
        <time>2023-05-16T11:20:02.825Z</time>
      </trkpt>
      <trkpt lat="44.86449" lon="5.70623">
        <ele>639.8</ele>
        <time>2023-05-16T11:20:04.015Z</time>
      </trkpt>
      <trkpt lat="44.86447" lon="5.70617">
        <ele>639.9</ele>
        <time>2023-05-16T11:20:05.805Z</time>
      </trkpt>
      <trkpt lat="44.86444" lon="5.70613">
        <ele>639.9</ele>
        <time>2023-05-16T11:20:07.276Z</time>
      </trkpt>
      <trkpt lat="44.86442" lon="5.7061">
        <ele>640</ele>
        <time>2023-05-16T11:20:08.435Z</time>
      </trkpt>
      <trkpt lat="44.8644" lon="5.70607">
        <ele>640</ele>
        <time>2023-05-16T11:20:09.476Z</time>
      </trkpt>
      <trkpt lat="44.86438" lon="5.70602">
        <ele>640.1</ele>
        <time>2023-05-16T11:20:11.042Z</time>
      </trkpt>
      <trkpt lat="44.86436" lon="5.70599">
        <ele>640.2</ele>
        <time>2023-05-16T11:20:12.201Z</time>
      </trkpt>
      <trkpt lat="44.86433" lon="5.70595">
        <ele>640.3</ele>
        <time>2023-05-16T11:20:13.788Z</time>
      </trkpt>
      <trkpt lat="44.8643" lon="5.70591">
        <ele>640.3</ele>
        <time>2023-05-16T11:20:15.259Z</time>
      </trkpt>
      <trkpt lat="44.86417" lon="5.7057">
        <ele>640.8</ele>
        <time>2023-05-16T11:20:22.884Z</time>
      </trkpt>
      <trkpt lat="44.86413" lon="5.70566">
        <ele>641.1</ele>
        <time>2023-05-16T11:20:25.009Z</time>
      </trkpt>
      <trkpt lat="44.8641" lon="5.70563">
        <ele>641.4</ele>
        <time>2023-05-16T11:20:26.716Z</time>
      </trkpt>
      <trkpt lat="44.86407" lon="5.70559">
        <ele>641.7</ele>
        <time>2023-05-16T11:20:28.576Z</time>
      </trkpt>
      <trkpt lat="44.86405" lon="5.70555">
        <ele>642</ele>
        <time>2023-05-16T11:20:30.214Z</time>
      </trkpt>
      <trkpt lat="44.86404" lon="5.70552">
        <ele>642.4</ele>
        <time>2023-05-16T11:20:31.716Z</time>
      </trkpt>
      <trkpt lat="44.86401" lon="5.70547">
        <ele>642.9</ele>
        <time>2023-05-16T11:20:34.076Z</time>
      </trkpt>
      <trkpt lat="44.86398" lon="5.70545">
        <ele>643.4</ele>
        <time>2023-05-16T11:20:36.046Z</time>
      </trkpt>
      <trkpt lat="44.86396" lon="5.70542">
        <ele>643.8</ele>
        <time>2023-05-16T11:20:37.694Z</time>
      </trkpt>
      <trkpt lat="44.86394" lon="5.70539">
        <ele>644.2</ele>
        <time>2023-05-16T11:20:39.342Z</time>
      </trkpt>
      <trkpt lat="44.86392" lon="5.70534">
        <ele>644.7</ele>
        <time>2023-05-16T11:20:41.525Z</time>
      </trkpt>
      <trkpt lat="44.8639" lon="5.7053">
        <ele>645.2</ele>
        <time>2023-05-16T11:20:43.536Z</time>
      </trkpt>
      <trkpt lat="44.86388" lon="5.70525">
        <ele>645.8</ele>
        <time>2023-05-16T11:20:45.923Z</time>
      </trkpt>
      <trkpt lat="44.86386" lon="5.70521">
        <ele>646.3</ele>
        <time>2023-05-16T11:20:47.934Z</time>
      </trkpt>
      <trkpt lat="44.86385" lon="5.70517">
        <ele>646.7</ele>
        <time>2023-05-16T11:20:49.607Z</time>
      </trkpt>
      <trkpt lat="44.86383" lon="5.70512">
        <ele>647.3</ele>
        <time>2023-05-16T11:20:51.995Z</time>
      </trkpt>
      <trkpt lat="44.86381" lon="5.70507">
        <ele>647.9</ele>
        <time>2023-05-16T11:20:54.382Z</time>
      </trkpt>
      <trkpt lat="44.8638" lon="5.70502">
        <ele>648.6</ele>
        <time>2023-05-16T11:20:56.921Z</time>
      </trkpt>
      <trkpt lat="44.86379" lon="5.70497">
        <ele>649.2</ele>
        <time>2023-05-16T11:20:59.210Z</time>
      </trkpt>
      <trkpt lat="44.86377" lon="5.70492">
        <ele>650</ele>
        <time>2023-05-16T11:21:02.087Z</time>
      </trkpt>
      <trkpt lat="44.86374" lon="5.70489">
        <ele>650.8</ele>
        <time>2023-05-16T11:21:04.912Z</time>
      </trkpt>
      <trkpt lat="44.86372" lon="5.70486">
        <ele>651.4</ele>
        <time>2023-05-16T11:21:07.049Z</time>
      </trkpt>
      <trkpt lat="44.8637" lon="5.70481">
        <ele>652.1</ele>
        <time>2023-05-16T11:21:09.667Z</time>
      </trkpt>
      <trkpt lat="44.86369" lon="5.70477">
        <ele>652.7</ele>
        <time>2023-05-16T11:21:11.818Z</time>
      </trkpt>
      <trkpt lat="44.86368" lon="5.70473">
        <ele>653.2</ele>
        <time>2023-05-16T11:21:13.710Z</time>
      </trkpt>
      <trkpt lat="44.86369" lon="5.70468">
        <ele>653.8</ele>
        <time>2023-05-16T11:21:15.999Z</time>
      </trkpt>
      <trkpt lat="44.8637" lon="5.70464">
        <ele>654.3</ele>
        <time>2023-05-16T11:21:17.892Z</time>
      </trkpt>
      <trkpt lat="44.8637" lon="5.7046">
        <ele>654.7</ele>
        <time>2023-05-16T11:21:19.517Z</time>
      </trkpt>
      <trkpt lat="44.86371" lon="5.70455">
        <ele>655.2</ele>
        <time>2023-05-16T11:21:21.587Z</time>
      </trkpt>
      <trkpt lat="44.86372" lon="5.70451">
        <ele>655.6</ele>
        <time>2023-05-16T11:21:23.260Z</time>
      </trkpt>
      <trkpt lat="44.86374" lon="5.70448">
        <ele>655.9</ele>
        <time>2023-05-16T11:21:24.718Z</time>
      </trkpt>
      <trkpt lat="44.86374" lon="5.70444">
        <ele>656.3</ele>
        <time>2023-05-16T11:21:26.343Z</time>
      </trkpt>
      <trkpt lat="44.86376" lon="5.70439">
        <ele>656.8</ele>
        <time>2023-05-16T11:21:28.526Z</time>
      </trkpt>
      <trkpt lat="44.86378" lon="5.70435">
        <ele>657.2</ele>
        <time>2023-05-16T11:21:30.338Z</time>
      </trkpt>
      <trkpt lat="44.86379" lon="5.70431">
        <ele>657.5</ele>
        <time>2023-05-16T11:21:31.824Z</time>
      </trkpt>
      <trkpt lat="44.86381" lon="5.70428">
        <ele>657.9</ele>
        <time>2023-05-16T11:21:33.472Z</time>
      </trkpt>
      <trkpt lat="44.86383" lon="5.70424">
        <ele>658.4</ele>
        <time>2023-05-16T11:21:35.483Z</time>
      </trkpt>
      <trkpt lat="44.86385" lon="5.70421">
        <ele>658.7</ele>
        <time>2023-05-16T11:21:36.941Z</time>
      </trkpt>
      <trkpt lat="44.86388" lon="5.70418">
        <ele>659.1</ele>
        <time>2023-05-16T11:21:38.817Z</time>
      </trkpt>
      <trkpt lat="44.8639" lon="5.70415">
        <ele>659.5</ele>
        <time>2023-05-16T11:21:40.466Z</time>
      </trkpt>
      <trkpt lat="44.86392" lon="5.70411">
        <ele>660.1</ele>
        <time>2023-05-16T11:21:42.705Z</time>
      </trkpt>
      <trkpt lat="44.86394" lon="5.70408">
        <ele>660.5</ele>
        <time>2023-05-16T11:21:44.354Z</time>
      </trkpt>
      <trkpt lat="44.86396" lon="5.70404">
        <ele>660.9</ele>
        <time>2023-05-16T11:21:46.165Z</time>
      </trkpt>
      <trkpt lat="44.86397" lon="5.70401">
        <ele>661.3</ele>
        <time>2023-05-16T11:21:47.667Z</time>
      </trkpt>
      <trkpt lat="44.86398" lon="5.70397">
        <ele>661.7</ele>
        <time>2023-05-16T11:21:49.340Z</time>
      </trkpt>
      <trkpt lat="44.86399" lon="5.70393">
        <ele>662.1</ele>
        <time>2023-05-16T11:21:51.013Z</time>
      </trkpt>
      <trkpt lat="44.86399" lon="5.70389">
        <ele>662.4</ele>
        <time>2023-05-16T11:21:52.445Z</time>
      </trkpt>
      <trkpt lat="44.86398" lon="5.70384">
        <ele>662.8</ele>
        <time>2023-05-16T11:21:54.322Z</time>
      </trkpt>
      <trkpt lat="44.86396" lon="5.70381">
        <ele>663.1</ele>
        <time>2023-05-16T11:21:55.781Z</time>
      </trkpt>
      <trkpt lat="44.86394" lon="5.70377">
        <ele>663.4</ele>
        <time>2023-05-16T11:21:57.419Z</time>
      </trkpt>
      <trkpt lat="44.86392" lon="5.70373">
        <ele>663.8</ele>
        <time>2023-05-16T11:21:59.231Z</time>
      </trkpt>
      <trkpt lat="44.8639" lon="5.70368">
        <ele>664.2</ele>
        <time>2023-05-16T11:22:01.232Z</time>
      </trkpt>
      <trkpt lat="44.86387" lon="5.70364">
        <ele>664.5</ele>
        <time>2023-05-16T11:22:03.092Z</time>
      </trkpt>
      <trkpt lat="44.86385" lon="5.70361">
        <ele>664.8</ele>
        <time>2023-05-16T11:22:04.550Z</time>
      </trkpt>
      <trkpt lat="44.86384" lon="5.70357">
        <ele>665.1</ele>
        <time>2023-05-16T11:22:06.036Z</time>
      </trkpt>
      <trkpt lat="44.86383" lon="5.70352">
        <ele>665.5</ele>
        <time>2023-05-16T11:22:07.914Z</time>
      </trkpt>
      <trkpt lat="44.86383" lon="5.70347">
        <ele>665.8</ele>
        <time>2023-05-16T11:22:09.577Z</time>
      </trkpt>
      <trkpt lat="44.86382" lon="5.70344">
        <ele>666</ele>
        <time>2023-05-16T11:22:10.681Z</time>
      </trkpt>
      <trkpt lat="44.86381" lon="5.7034">
        <ele>666.3</ele>
        <time>2023-05-16T11:22:12.168Z</time>
      </trkpt>
      <trkpt lat="44.86379" lon="5.70337">
        <ele>666.6</ele>
        <time>2023-05-16T11:22:13.626Z</time>
      </trkpt>
      <trkpt lat="44.86377" lon="5.70333">
        <ele>666.9</ele>
        <time>2023-05-16T11:22:15.264Z</time>
      </trkpt>
      <trkpt lat="44.86376" lon="5.70329">
        <ele>667.2</ele>
        <time>2023-05-16T11:22:16.751Z</time>
      </trkpt>
      <trkpt lat="44.86374" lon="5.70326">
        <ele>667.5</ele>
        <time>2023-05-16T11:22:18.209Z</time>
      </trkpt>
      <trkpt lat="44.86373" lon="5.70322">
        <ele>667.8</ele>
        <time>2023-05-16T11:22:19.695Z</time>
      </trkpt>
      <trkpt lat="44.86371" lon="5.70317">
        <ele>668</ele>
        <time>2023-05-16T11:22:21.391Z</time>
      </trkpt>
      <trkpt lat="44.86371" lon="5.70313">
        <ele>668.1</ele>
        <time>2023-05-16T11:22:22.520Z</time>
      </trkpt>
      <trkpt lat="44.8637" lon="5.70307">
        <ele>668.3</ele>
        <time>2023-05-16T11:22:24.320Z</time>
      </trkpt>
      <trkpt lat="44.86369" lon="5.70303">
        <ele>668.3</ele>
        <time>2023-05-16T11:22:25.392Z</time>
      </trkpt>
      <trkpt lat="44.86371" lon="5.70299">
        <ele>668.4</ele>
        <time>2023-05-16T11:22:26.746Z</time>
      </trkpt>
      <trkpt lat="44.86374" lon="5.70297">
        <ele>668.4</ele>
        <time>2023-05-16T11:22:27.928Z</time>
      </trkpt>
      <trkpt lat="44.86377" lon="5.70294">
        <ele>668.5</ele>
        <time>2023-05-16T11:22:29.356Z</time>
      </trkpt>
      <trkpt lat="44.86379" lon="5.70291">
        <ele>668.5</ele>
        <time>2023-05-16T11:22:30.396Z</time>
      </trkpt>
      <trkpt lat="44.86382" lon="5.70288">
        <ele>668.6</ele>
        <time>2023-05-16T11:22:31.823Z</time>
      </trkpt>
      <trkpt lat="44.86385" lon="5.70285">
        <ele>668.7</ele>
        <time>2023-05-16T11:22:33.251Z</time>
      </trkpt>
      <trkpt lat="44.86388" lon="5.70283">
        <ele>668.7</ele>
        <time>2023-05-16T11:22:34.433Z</time>
      </trkpt>
      <trkpt lat="44.86391" lon="5.70282">
        <ele>668.7</ele>
        <time>2023-05-16T11:22:35.532Z</time>
      </trkpt>
      <trkpt lat="44.86393" lon="5.70281">
        <ele>668.8</ele>
        <time>2023-05-16T11:22:36.410Z</time>
      </trkpt>
      <trkpt lat="44.86397" lon="5.70278">
        <ele>668.8</ele>
        <time>2023-05-16T11:22:38.025Z</time>
      </trkpt>
      <trkpt lat="44.86399" lon="5.70277">
        <ele>668.7</ele>
        <time>2023-05-16T11:22:38.687Z</time>
      </trkpt>
      <trkpt lat="44.86402" lon="5.70276">
        <ele>668.6</ele>
        <time>2023-05-16T11:22:39.683Z</time>
      </trkpt>
      <trkpt lat="44.86405" lon="5.70275">
        <ele>668.4</ele>
        <time>2023-05-16T11:22:40.645Z</time>
      </trkpt>
      <trkpt lat="44.86407" lon="5.70272">
        <ele>667.9</ele>
        <time>2023-05-16T11:22:41.555Z</time>
      </trkpt>
      <trkpt lat="44.86408" lon="5.70268">
        <ele>667.5</ele>
        <time>2023-05-16T11:22:42.493Z</time>
      </trkpt>
      <trkpt lat="44.86406" lon="5.70263">
        <ele>667.3</ele>
        <time>2023-05-16T11:22:43.762Z</time>
      </trkpt>
      <trkpt lat="44.86404" lon="5.7026">
        <ele>667</ele>
        <time>2023-05-16T11:22:44.673Z</time>
      </trkpt>
      <trkpt lat="44.86401" lon="5.70257">
        <ele>666.4</ele>
        <time>2023-05-16T11:22:45.820Z</time>
      </trkpt>
      <trkpt lat="44.86397" lon="5.70256">
        <ele>665.9</ele>
        <time>2023-05-16T11:22:47.087Z</time>
      </trkpt>
      <trkpt lat="44.86375" lon="5.70246">
        <ele>663.6</ele>
        <time>2023-05-16T11:22:54.296Z</time>
      </trkpt>
      <trkpt lat="44.86369" lon="5.70243">
        <ele>663.2</ele>
        <time>2023-05-16T11:22:56.281Z</time>
      </trkpt>
      <trkpt lat="44.86362" lon="5.70238">
        <ele>662.3</ele>
        <time>2023-05-16T11:22:58.728Z</time>
      </trkpt>
      <trkpt lat="44.86356" lon="5.70233">
        <ele>661.7</ele>
        <time>2023-05-16T11:23:00.902Z</time>
      </trkpt>
      <trkpt lat="44.86353" lon="5.7022">
        <ele>660.6</ele>
        <time>2023-05-16T11:23:03.924Z</time>
      </trkpt>
      <trkpt lat="44.8635" lon="5.70208">
        <ele>659.4</ele>
        <time>2023-05-16T11:23:06.737Z</time>
      </trkpt>
      <trkpt lat="44.8635" lon="5.70196">
        <ele>658</ele>
        <time>2023-05-16T11:23:09.390Z</time>
      </trkpt>
      <trkpt lat="44.86352" lon="5.70182">
        <ele>657.3</ele>
        <time>2023-05-16T11:23:12.547Z</time>
      </trkpt>
      <trkpt lat="44.86352" lon="5.70166">
        <ele>656.1</ele>
        <time>2023-05-16T11:23:16.084Z</time>
      </trkpt>
      <trkpt lat="44.86349" lon="5.70153">
        <ele>655.2</ele>
        <time>2023-05-16T11:23:19.107Z</time>
      </trkpt>
      <trkpt lat="44.86346" lon="5.7014">
        <ele>654.3</ele>
        <time>2023-05-16T11:23:22.129Z</time>
      </trkpt>
      <trkpt lat="44.86343" lon="5.70127">
        <ele>653.1</ele>
        <time>2023-05-16T11:23:25.152Z</time>
      </trkpt>
      <trkpt lat="44.86339" lon="5.70114">
        <ele>651.7</ele>
        <time>2023-05-16T11:23:28.285Z</time>
      </trkpt>
      <trkpt lat="44.86337" lon="5.70099">
        <ele>650.2</ele>
        <time>2023-05-16T11:23:31.659Z</time>
      </trkpt>
      <trkpt lat="44.86338" lon="5.70085">
        <ele>649.2</ele>
        <time>2023-05-16T11:23:34.770Z</time>
      </trkpt>
      <trkpt lat="44.86339" lon="5.7007">
        <ele>648.8</ele>
        <time>2023-05-16T11:23:38.171Z</time>
      </trkpt>
      <trkpt lat="44.86341" lon="5.70056">
        <ele>649.2</ele>
        <time>2023-05-16T11:23:42.258Z</time>
      </trkpt>
      <trkpt lat="44.86345" lon="5.70042">
        <ele>650.1</ele>
        <time>2023-05-16T11:23:47.269Z</time>
      </trkpt>
      <trkpt lat="44.86352" lon="5.70027">
        <ele>651.4</ele>
        <time>2023-05-16T11:23:53.614Z</time>
      </trkpt>
      <trkpt lat="44.86357" lon="5.70012">
        <ele>652.6</ele>
        <time>2023-05-16T11:23:59.471Z</time>
      </trkpt>
      <trkpt lat="44.86363" lon="5.7">
        <ele>653.6</ele>
        <time>2023-05-16T11:24:04.551Z</time>
      </trkpt>
      <trkpt lat="44.86367" lon="5.69989">
        <ele>654.5</ele>
        <time>2023-05-16T11:24:08.928Z</time>
      </trkpt>
      <trkpt lat="44.86371" lon="5.69979">
        <ele>655.2</ele>
        <time>2023-05-16T11:24:12.764Z</time>
      </trkpt>
      <trkpt lat="44.86374" lon="5.6997">
        <ele>655.8</ele>
        <time>2023-05-16T11:24:16.077Z</time>
      </trkpt>
      <trkpt lat="44.86376" lon="5.69963">
        <ele>656.3</ele>
        <time>2023-05-16T11:24:18.664Z</time>
      </trkpt>
      <trkpt lat="44.86378" lon="5.69957">
        <ele>656.7</ele>
        <time>2023-05-16T11:24:20.873Z</time>
      </trkpt>
      <trkpt lat="44.86382" lon="5.6995">
        <ele>657.2</ele>
        <time>2023-05-16T11:24:23.801Z</time>
      </trkpt>
      <trkpt lat="44.86384" lon="5.69946">
        <ele>657.5</ele>
        <time>2023-05-16T11:24:25.439Z</time>
      </trkpt>
      <trkpt lat="44.86387" lon="5.6994">
        <ele>657.8</ele>
        <time>2023-05-16T11:24:27.669Z</time>
      </trkpt>
      <trkpt lat="44.86388" lon="5.69936">
        <ele>658</ele>
        <time>2023-05-16T11:24:28.996Z</time>
      </trkpt>
      <trkpt lat="44.86387" lon="5.69932">
        <ele>658.1</ele>
        <time>2023-05-16T11:24:30.185Z</time>
      </trkpt>
      <trkpt lat="44.86388" lon="5.69927">
        <ele>658.2</ele>
        <time>2023-05-16T11:24:31.614Z</time>
      </trkpt>
      <trkpt lat="44.8639" lon="5.69924">
        <ele>658.3</ele>
        <time>2023-05-16T11:24:32.773Z</time>
      </trkpt>
      <trkpt lat="44.86391" lon="5.6992">
        <ele>658.4</ele>
        <time>2023-05-16T11:24:33.963Z</time>
      </trkpt>
      <trkpt lat="44.86392" lon="5.69916">
        <ele>658.4</ele>
        <time>2023-05-16T11:24:35.035Z</time>
      </trkpt>
      <trkpt lat="44.86393" lon="5.69911">
        <ele>658.5</ele>
        <time>2023-05-16T11:24:36.464Z</time>
      </trkpt>
      <trkpt lat="44.86393" lon="5.69906">
        <ele>659.4</ele>
        <time>2023-05-16T11:24:39.617Z</time>
      </trkpt>
      <trkpt lat="44.86391" lon="5.69903">
        <ele>659.7</ele>
        <time>2023-05-16T11:24:41.076Z</time>
      </trkpt>
      <trkpt lat="44.86388" lon="5.69902">
        <ele>660.3</ele>
        <time>2023-05-16T11:24:43.239Z</time>
      </trkpt>
      <trkpt lat="44.86384" lon="5.69903">
        <ele>660.9</ele>
        <time>2023-05-16T11:24:45.625Z</time>
      </trkpt>
      <trkpt lat="44.86381" lon="5.69904">
        <ele>661.4</ele>
        <time>2023-05-16T11:24:47.535Z</time>
      </trkpt>
      <trkpt lat="44.86378" lon="5.69905">
        <ele>661.7</ele>
        <time>2023-05-16T11:24:49.046Z</time>
      </trkpt>
      <trkpt lat="44.86376" lon="5.69907">
        <ele>661.8</ele>
        <time>2023-05-16T11:24:50.040Z</time>
      </trkpt>
      <trkpt lat="44.86372" lon="5.69908">
        <ele>661.9</ele>
        <time>2023-05-16T11:24:51.604Z</time>
      </trkpt>
      <trkpt lat="44.86368" lon="5.6991">
        <ele>662</ele>
        <time>2023-05-16T11:24:53.232Z</time>
      </trkpt>
      <trkpt lat="44.86364" lon="5.69911">
        <ele>662.1</ele>
        <time>2023-05-16T11:24:54.796Z</time>
      </trkpt>
      <trkpt lat="44.86361" lon="5.69912">
        <ele>662.1</ele>
        <time>2023-05-16T11:24:55.895Z</time>
      </trkpt>
      <trkpt lat="44.86357" lon="5.69913">
        <ele>662.1</ele>
        <time>2023-05-16T11:24:57.343Z</time>
      </trkpt>
      <trkpt lat="44.86353" lon="5.69916">
        <ele>662.1</ele>
        <time>2023-05-16T11:24:58.958Z</time>
      </trkpt>
      <trkpt lat="44.86349" lon="5.69918">
        <ele>662.1</ele>
        <time>2023-05-16T11:25:00.471Z</time>
      </trkpt>
      <trkpt lat="44.86346" lon="5.6992">
        <ele>662.2</ele>
        <time>2023-05-16T11:25:01.771Z</time>
      </trkpt>
      <trkpt lat="44.86343" lon="5.69922">
        <ele>662.1</ele>
        <time>2023-05-16T11:25:02.850Z</time>
      </trkpt>
      <trkpt lat="44.86339" lon="5.69922">
        <ele>662.1</ele>
        <time>2023-05-16T11:25:04.276Z</time>
      </trkpt>
      <trkpt lat="44.86335" lon="5.6992">
        <ele>662</ele>
        <time>2023-05-16T11:25:05.685Z</time>
      </trkpt>
      <trkpt lat="44.8633" lon="5.69915">
        <ele>661.8</ele>
        <time>2023-05-16T11:25:07.664Z</time>
      </trkpt>
      <trkpt lat="44.86328" lon="5.69912">
        <ele>661.6</ele>
        <time>2023-05-16T11:25:08.575Z</time>
      </trkpt>
      <trkpt lat="44.86327" lon="5.69908">
        <ele>661.3</ele>
        <time>2023-05-16T11:25:09.512Z</time>
      </trkpt>
      <trkpt lat="44.86325" lon="5.69903">
        <ele>661</ele>
        <time>2023-05-16T11:25:10.782Z</time>
      </trkpt>
      <trkpt lat="44.86322" lon="5.69897">
        <ele>660.8</ele>
        <time>2023-05-16T11:25:12.434Z</time>
      </trkpt>
      <trkpt lat="44.8632" lon="5.6989">
        <ele>660.8</ele>
        <time>2023-05-16T11:25:14.341Z</time>
      </trkpt>
      <trkpt lat="44.86302" lon="5.69842">
        <ele>661.3</ele>
        <time>2023-05-16T11:25:28.626Z</time>
      </trkpt>
      <trkpt lat="44.863" lon="5.69834">
        <ele>661.8</ele>
        <time>2023-05-16T11:25:31.433Z</time>
      </trkpt>
      <trkpt lat="44.86298" lon="5.69827">
        <ele>662.3</ele>
        <time>2023-05-16T11:25:34.020Z</time>
      </trkpt>
      <trkpt lat="44.86296" lon="5.6982">
        <ele>662.9</ele>
        <time>2023-05-16T11:25:36.782Z</time>
      </trkpt>
      <trkpt lat="44.86293" lon="5.69814">
        <ele>663.4</ele>
        <time>2023-05-16T11:25:39.322Z</time>
      </trkpt>
      <trkpt lat="44.86291" lon="5.69808">
        <ele>663.9</ele>
        <time>2023-05-16T11:25:41.700Z</time>
      </trkpt>
      <trkpt lat="44.86289" lon="5.69803">
        <ele>664.4</ele>
        <time>2023-05-16T11:25:43.883Z</time>
      </trkpt>
      <trkpt lat="44.86288" lon="5.69799">
        <ele>664.8</ele>
        <time>2023-05-16T11:25:45.557Z</time>
      </trkpt>
      <trkpt lat="44.86287" lon="5.69795">
        <ele>665.1</ele>
        <time>2023-05-16T11:25:47.043Z</time>
      </trkpt>
      <trkpt lat="44.86287" lon="5.69791">
        <ele>665.4</ele>
        <time>2023-05-16T11:25:48.475Z</time>
      </trkpt>
      <trkpt lat="44.86285" lon="5.69784">
        <ele>666.1</ele>
        <time>2023-05-16T11:25:51.428Z</time>
      </trkpt>
      <trkpt lat="44.86283" lon="5.6978">
        <ele>666.6</ele>
        <time>2023-05-16T11:25:53.439Z</time>
      </trkpt>
      <trkpt lat="44.86281" lon="5.69775">
        <ele>667.1</ele>
        <time>2023-05-16T11:25:55.622Z</time>
      </trkpt>
      <trkpt lat="44.8628" lon="5.69771">
        <ele>667.5</ele>
        <time>2023-05-16T11:25:57.295Z</time>
      </trkpt>
      <trkpt lat="44.86277" lon="5.69766">
        <ele>668.2</ele>
        <time>2023-05-16T11:26:00.053Z</time>
      </trkpt>
      <trkpt lat="44.86275" lon="5.69761">
        <ele>668.8</ele>
        <time>2023-05-16T11:26:02.440Z</time>
      </trkpt>
      <trkpt lat="44.86273" lon="5.69755">
        <ele>669.4</ele>
        <time>2023-05-16T11:26:05.005Z</time>
      </trkpt>
      <trkpt lat="44.86273" lon="5.6975">
        <ele>670</ele>
        <time>2023-05-16T11:26:07.262Z</time>
      </trkpt>
      <trkpt lat="44.86273" lon="5.69744">
        <ele>670.6</ele>
        <time>2023-05-16T11:26:09.699Z</time>
      </trkpt>
      <trkpt lat="44.86272" lon="5.69739">
        <ele>671.1</ele>
        <time>2023-05-16T11:26:11.769Z</time>
      </trkpt>
      <trkpt lat="44.86272" lon="5.69734">
        <ele>671.7</ele>
        <time>2023-05-16T11:26:14.025Z</time>
      </trkpt>
      <trkpt lat="44.86271" lon="5.6973">
        <ele>672.2</ele>
        <time>2023-05-16T11:26:15.918Z</time>
      </trkpt>
      <trkpt lat="44.86271" lon="5.69725">
        <ele>672.8</ele>
        <time>2023-05-16T11:26:18.174Z</time>
      </trkpt>
      <trkpt lat="44.86272" lon="5.69721">
        <ele>673.5</ele>
        <time>2023-05-16T11:26:20.629Z</time>
      </trkpt>
      <trkpt lat="44.86272" lon="5.69716">
        <ele>674</ele>
        <time>2023-05-16T11:26:22.660Z</time>
      </trkpt>
      <trkpt lat="44.86272" lon="5.69712">
        <ele>674.6</ele>
        <time>2023-05-16T11:26:24.787Z</time>
      </trkpt>
      <trkpt lat="44.86271" lon="5.69708">
        <ele>675.1</ele>
        <time>2023-05-16T11:26:26.680Z</time>
      </trkpt>
      <trkpt lat="44.86271" lon="5.69703">
        <ele>675.7</ele>
        <time>2023-05-16T11:26:28.936Z</time>
      </trkpt>
      <trkpt lat="44.86271" lon="5.69699">
        <ele>676.2</ele>
        <time>2023-05-16T11:26:30.790Z</time>
      </trkpt>
      <trkpt lat="44.86271" lon="5.69695">
        <ele>676.6</ele>
        <time>2023-05-16T11:26:32.415Z</time>
      </trkpt>
      <trkpt lat="44.86271" lon="5.69691">
        <ele>677</ele>
        <time>2023-05-16T11:26:34.040Z</time>
      </trkpt>
      <trkpt lat="44.8627" lon="5.69686">
        <ele>677.6</ele>
        <time>2023-05-16T11:26:36.329Z</time>
      </trkpt>
      <trkpt lat="44.86271" lon="5.6968">
        <ele>678</ele>
        <time>2023-05-16T11:26:38.428Z</time>
      </trkpt>
      <trkpt lat="44.86271" lon="5.69676">
        <ele>678.4</ele>
        <time>2023-05-16T11:26:40.053Z</time>
      </trkpt>
      <trkpt lat="44.86272" lon="5.6967">
        <ele>678.7</ele>
        <time>2023-05-16T11:26:41.995Z</time>
      </trkpt>
      <trkpt lat="44.86272" lon="5.69666">
        <ele>679</ele>
        <time>2023-05-16T11:26:43.426Z</time>
      </trkpt>
      <trkpt lat="44.86273" lon="5.69662">
        <ele>679.3</ele>
        <time>2023-05-16T11:26:44.912Z</time>
      </trkpt>
      <trkpt lat="44.86273" lon="5.69656">
        <ele>679.5</ele>
        <time>2023-05-16T11:26:46.672Z</time>
      </trkpt>
      <trkpt lat="44.86273" lon="5.69652">
        <ele>679.7</ele>
        <time>2023-05-16T11:26:47.940Z</time>
      </trkpt>
      <trkpt lat="44.86274" lon="5.69648">
        <ele>679.8</ele>
        <time>2023-05-16T11:26:49.130Z</time>
      </trkpt>
      <trkpt lat="44.86274" lon="5.69645">
        <ele>679.9</ele>
        <time>2023-05-16T11:26:50.010Z</time>
      </trkpt>
      <trkpt lat="44.86274" lon="5.69639">
        <ele>680</ele>
        <time>2023-05-16T11:26:51.641Z</time>
      </trkpt>
      <trkpt lat="44.86275" lon="5.69633">
        <ele>680.2</ele>
        <time>2023-05-16T11:26:53.442Z</time>
      </trkpt>
      <trkpt lat="44.86276" lon="5.69629">
        <ele>680.2</ele>
        <time>2023-05-16T11:26:54.513Z</time>
      </trkpt>
      <trkpt lat="44.86276" lon="5.69625">
        <ele>680.2</ele>
        <time>2023-05-16T11:26:55.524Z</time>
      </trkpt>
      <trkpt lat="44.86277" lon="5.69621">
        <ele>680.3</ele>
        <time>2023-05-16T11:26:56.714Z</time>
      </trkpt>
      <trkpt lat="44.86278" lon="5.69617">
        <ele>680.3</ele>
        <time>2023-05-16T11:26:57.785Z</time>
      </trkpt>
      <trkpt lat="44.86278" lon="5.69612">
        <ele>680.4</ele>
        <time>2023-05-16T11:26:59.165Z</time>
      </trkpt>
      <trkpt lat="44.86279" lon="5.69608">
        <ele>680.4</ele>
        <time>2023-05-16T11:27:00.237Z</time>
      </trkpt>
      <trkpt lat="44.86279" lon="5.69604">
        <ele>680.5</ele>
        <time>2023-05-16T11:27:01.366Z</time>
      </trkpt>
      <trkpt lat="44.8628" lon="5.696">
        <ele>680.5</ele>
        <time>2023-05-16T11:27:02.438Z</time>
      </trkpt>
      <trkpt lat="44.86281" lon="5.69596">
        <ele>680.6</ele>
        <time>2023-05-16T11:27:03.628Z</time>
      </trkpt>
      <trkpt lat="44.86282" lon="5.69591">
        <ele>680.6</ele>
        <time>2023-05-16T11:27:04.940Z</time>
      </trkpt>
      <trkpt lat="44.86283" lon="5.69586">
        <ele>680.6</ele>
        <time>2023-05-16T11:27:06.253Z</time>
      </trkpt>
      <trkpt lat="44.86284" lon="5.69581">
        <ele>680.6</ele>
        <time>2023-05-16T11:27:07.565Z</time>
      </trkpt>
      <trkpt lat="44.86285" lon="5.69578">
        <ele>680.6</ele>
        <time>2023-05-16T11:27:08.403Z</time>
      </trkpt>
      <trkpt lat="44.86286" lon="5.69573">
        <ele>680.7</ele>
        <time>2023-05-16T11:27:09.832Z</time>
      </trkpt>
      <trkpt lat="44.86287" lon="5.69568">
        <ele>680.7</ele>
        <time>2023-05-16T11:27:11.145Z</time>
      </trkpt>
      <trkpt lat="44.86288" lon="5.69564">
        <ele>680.7</ele>
        <time>2023-05-16T11:27:12.216Z</time>
      </trkpt>
      <trkpt lat="44.86289" lon="5.69559">
        <ele>680.7</ele>
        <time>2023-05-16T11:27:13.529Z</time>
      </trkpt>
      <trkpt lat="44.86289" lon="5.69555">
        <ele>680.7</ele>
        <time>2023-05-16T11:27:14.540Z</time>
      </trkpt>
      <trkpt lat="44.86291" lon="5.69551">
        <ele>680.7</ele>
        <time>2023-05-16T11:27:15.776Z</time>
      </trkpt>
      <trkpt lat="44.86293" lon="5.69547">
        <ele>680.7</ele>
        <time>2023-05-16T11:27:17.013Z</time>
      </trkpt>
      <trkpt lat="44.86295" lon="5.69542">
        <ele>680.6</ele>
        <time>2023-05-16T11:27:18.360Z</time>
      </trkpt>
      <trkpt lat="44.86296" lon="5.69538">
        <ele>680.6</ele>
        <time>2023-05-16T11:27:19.431Z</time>
      </trkpt>
      <trkpt lat="44.86298" lon="5.69532">
        <ele>680.6</ele>
        <time>2023-05-16T11:27:21.106Z</time>
      </trkpt>
      <trkpt lat="44.863" lon="5.69528">
        <ele>680.6</ele>
        <time>2023-05-16T11:27:22.343Z</time>
      </trkpt>
      <trkpt lat="44.86301" lon="5.69523">
        <ele>680.5</ele>
        <time>2023-05-16T11:27:23.552Z</time>
      </trkpt>
      <trkpt lat="44.86303" lon="5.69518">
        <ele>680.4</ele>
        <time>2023-05-16T11:27:24.899Z</time>
      </trkpt>
      <trkpt lat="44.86306" lon="5.69512">
        <ele>680.2</ele>
        <time>2023-05-16T11:27:26.551Z</time>
      </trkpt>
      <trkpt lat="44.86309" lon="5.69505">
        <ele>679.7</ele>
        <time>2023-05-16T11:27:28.360Z</time>
      </trkpt>
      <trkpt lat="44.86312" lon="5.69498">
        <ele>679.4</ele>
        <time>2023-05-16T11:27:30.168Z</time>
      </trkpt>
      <trkpt lat="44.86315" lon="5.69495">
        <ele>679.2</ele>
        <time>2023-05-16T11:27:31.315Z</time>
      </trkpt>
      <trkpt lat="44.86318" lon="5.69494">
        <ele>679.1</ele>
        <time>2023-05-16T11:27:32.311Z</time>
      </trkpt>
      <trkpt lat="44.86322" lon="5.69491">
        <ele>678.7</ele>
        <time>2023-05-16T11:27:33.724Z</time>
      </trkpt>
      <trkpt lat="44.86327" lon="5.69489">
        <ele>678.1</ele>
        <time>2023-05-16T11:27:35.345Z</time>
      </trkpt>
      <trkpt lat="44.86334" lon="5.69482">
        <ele>676.4</ele>
        <time>2023-05-16T11:27:38.021Z</time>
      </trkpt>
      <trkpt lat="44.8634" lon="5.69475">
        <ele>675.2</ele>
        <time>2023-05-16T11:27:40.450Z</time>
      </trkpt>
      <trkpt lat="44.86346" lon="5.69466">
        <ele>674</ele>
        <time>2023-05-16T11:27:43.181Z</time>
      </trkpt>
      <trkpt lat="44.86353" lon="5.69457">
        <ele>673.2</ele>
        <time>2023-05-16T11:27:46.135Z</time>
      </trkpt>
      <trkpt lat="44.86358" lon="5.69448">
        <ele>673.1</ele>
        <time>2023-05-16T11:27:48.917Z</time>
      </trkpt>
      <trkpt lat="44.86362" lon="5.69438">
        <ele>673</ele>
        <time>2023-05-16T11:27:51.712Z</time>
      </trkpt>
      <trkpt lat="44.86364" lon="5.6943">
        <ele>673</ele>
        <time>2023-05-16T11:27:53.855Z</time>
      </trkpt>
      <trkpt lat="44.86366" lon="5.69422">
        <ele>673</ele>
        <time>2023-05-16T11:27:55.998Z</time>
      </trkpt>
      <trkpt lat="44.86366" lon="5.69414">
        <ele>673</ele>
        <time>2023-05-16T11:27:58.019Z</time>
      </trkpt>
      <trkpt lat="44.86363" lon="5.69408">
        <ele>673</ele>
        <time>2023-05-16T11:27:59.874Z</time>
      </trkpt>
      <trkpt lat="44.8636" lon="5.69406">
        <ele>673.1</ele>
        <time>2023-05-16T11:28:01.174Z</time>
      </trkpt>
      <trkpt lat="44.86356" lon="5.69402">
        <ele>673.1</ele>
        <time>2023-05-16T11:28:02.922Z</time>
      </trkpt>
      <trkpt lat="44.86352" lon="5.69398">
        <ele>673.2</ele>
        <time>2023-05-16T11:28:04.784Z</time>
      </trkpt>
      <trkpt lat="44.86349" lon="5.69395">
        <ele>673.2</ele>
        <time>2023-05-16T11:28:06.095Z</time>
      </trkpt>
      <trkpt lat="44.86346" lon="5.69392">
        <ele>673.2</ele>
        <time>2023-05-16T11:28:07.406Z</time>
      </trkpt>
      <trkpt lat="44.86344" lon="5.69388">
        <ele>673.2</ele>
        <time>2023-05-16T11:28:08.643Z</time>
      </trkpt>
      <trkpt lat="44.86344" lon="5.69382">
        <ele>673.2</ele>
        <time>2023-05-16T11:28:10.159Z</time>
      </trkpt>
      <trkpt lat="44.86342" lon="5.69377">
        <ele>673.2</ele>
        <time>2023-05-16T11:28:11.609Z</time>
      </trkpt>
      <trkpt lat="44.86342" lon="5.69372">
        <ele>673.2</ele>
        <time>2023-05-16T11:28:12.872Z</time>
      </trkpt>
      <trkpt lat="44.86342" lon="5.69366">
        <ele>673.1</ele>
        <time>2023-05-16T11:28:14.284Z</time>
      </trkpt>
      <trkpt lat="44.86343" lon="5.69361">
        <ele>673.1</ele>
        <time>2023-05-16T11:28:15.597Z</time>
      </trkpt>
      <trkpt lat="44.86343" lon="5.69356">
        <ele>673.1</ele>
        <time>2023-05-16T11:28:16.860Z</time>
      </trkpt>
      <trkpt lat="44.86343" lon="5.69351">
        <ele>673</ele>
        <time>2023-05-16T11:28:18.020Z</time>
      </trkpt>
      <trkpt lat="44.86342" lon="5.69346">
        <ele>673</ele>
        <time>2023-05-16T11:28:19.332Z</time>
      </trkpt>
      <trkpt lat="44.86342" lon="5.69342">
        <ele>672.9</ele>
        <time>2023-05-16T11:28:20.241Z</time>
      </trkpt>
      <trkpt lat="44.86343" lon="5.69337">
        <ele>672.9</ele>
        <time>2023-05-16T11:28:21.554Z</time>
      </trkpt>
      <trkpt lat="44.86344" lon="5.69332">
        <ele>672.8</ele>
        <time>2023-05-16T11:28:22.763Z</time>
      </trkpt>
      <trkpt lat="44.86344" lon="5.69328">
        <ele>672.8</ele>
        <time>2023-05-16T11:28:23.773Z</time>
      </trkpt>
      <trkpt lat="44.86345" lon="5.69323">
        <ele>672.7</ele>
        <time>2023-05-16T11:28:24.982Z</time>
      </trkpt>
      <trkpt lat="44.86346" lon="5.69319">
        <ele>672.6</ele>
        <time>2023-05-16T11:28:25.952Z</time>
      </trkpt>
      <trkpt lat="44.86347" lon="5.69315">
        <ele>672.5</ele>
        <time>2023-05-16T11:28:26.921Z</time>
      </trkpt>
      <trkpt lat="44.86348" lon="5.6931">
        <ele>672.2</ele>
        <time>2023-05-16T11:28:28.069Z</time>
      </trkpt>
      <trkpt lat="44.86348" lon="5.69306">
        <ele>672</ele>
        <time>2023-05-16T11:28:28.954Z</time>
      </trkpt>
      <trkpt lat="44.8635" lon="5.69301">
        <ele>671.5</ele>
        <time>2023-05-16T11:28:30.223Z</time>
      </trkpt>
      <trkpt lat="44.86351" lon="5.69296">
        <ele>671.2</ele>
        <time>2023-05-16T11:28:31.372Z</time>
      </trkpt>
      <trkpt lat="44.86353" lon="5.69292">
        <ele>670.9</ele>
        <time>2023-05-16T11:28:32.454Z</time>
      </trkpt>
      <trkpt lat="44.86355" lon="5.69285">
        <ele>670.5</ele>
        <time>2023-05-16T11:28:34.122Z</time>
      </trkpt>
      <trkpt lat="44.86359" lon="5.69277">
        <ele>669.7</ele>
        <time>2023-05-16T11:28:36.286Z</time>
      </trkpt>
      <trkpt lat="44.86363" lon="5.69271">
        <ele>669.1</ele>
        <time>2023-05-16T11:28:38.107Z</time>
      </trkpt>
      <trkpt lat="44.86388" lon="5.69233">
        <ele>666.5</ele>
        <time>2023-05-16T11:28:49.569Z</time>
      </trkpt>
      <trkpt lat="44.86395" lon="5.69229">
        <ele>666.1</ele>
        <time>2023-05-16T11:28:51.925Z</time>
      </trkpt>
      <trkpt lat="44.864" lon="5.69225">
        <ele>665.5</ele>
        <time>2023-05-16T11:28:53.718Z</time>
      </trkpt>
      <trkpt lat="44.86407" lon="5.6922">
        <ele>664.5</ele>
        <time>2023-05-16T11:28:56.165Z</time>
      </trkpt>
      <trkpt lat="44.86414" lon="5.69213">
        <ele>663.5</ele>
        <time>2023-05-16T11:28:58.841Z</time>
      </trkpt>
      <trkpt lat="44.86422" lon="5.69206">
        <ele>662.6</ele>
        <time>2023-05-16T11:29:01.777Z</time>
      </trkpt>
      <trkpt lat="44.86429" lon="5.69198">
        <ele>661.7</ele>
        <time>2023-05-16T11:29:04.587Z</time>
      </trkpt>
      <trkpt lat="44.86436" lon="5.6919">
        <ele>661</ele>
        <time>2023-05-16T11:29:07.396Z</time>
      </trkpt>
      <trkpt lat="44.86444" lon="5.69182">
        <ele>660.5</ele>
        <time>2023-05-16T11:29:10.455Z</time>
      </trkpt>
      <trkpt lat="44.86452" lon="5.69175">
        <ele>660</ele>
        <time>2023-05-16T11:29:13.391Z</time>
      </trkpt>
      <trkpt lat="44.8646" lon="5.6917">
        <ele>659.6</ele>
        <time>2023-05-16T11:29:16.120Z</time>
      </trkpt>
      <trkpt lat="44.86466" lon="5.69165">
        <ele>659.1</ele>
        <time>2023-05-16T11:29:18.293Z</time>
      </trkpt>
      <trkpt lat="44.86473" lon="5.69161">
        <ele>658.5</ele>
        <time>2023-05-16T11:29:20.649Z</time>
      </trkpt>
      <trkpt lat="44.8648" lon="5.69156">
        <ele>658.1</ele>
        <time>2023-05-16T11:29:23.096Z</time>
      </trkpt>
      <trkpt lat="44.86486" lon="5.69151">
        <ele>657.4</ele>
        <time>2023-05-16T11:29:25.269Z</time>
      </trkpt>
      <trkpt lat="44.86492" lon="5.69143">
        <ele>656.8</ele>
        <time>2023-05-16T11:29:27.844Z</time>
      </trkpt>
      <trkpt lat="44.86498" lon="5.69137">
        <ele>656.4</ele>
        <time>2023-05-16T11:29:30.138Z</time>
      </trkpt>
      <trkpt lat="44.86503" lon="5.6913">
        <ele>656.3</ele>
        <time>2023-05-16T11:29:32.542Z</time>
      </trkpt>
      <trkpt lat="44.86508" lon="5.69123">
        <ele>656.2</ele>
        <time>2023-05-16T11:29:34.947Z</time>
      </trkpt>
      <trkpt lat="44.86511" lon="5.69114">
        <ele>656.1</ele>
        <time>2023-05-16T11:29:37.353Z</time>
      </trkpt>
      <trkpt lat="44.86514" lon="5.69106">
        <ele>656</ele>
        <time>2023-05-16T11:29:39.534Z</time>
      </trkpt>
      <trkpt lat="44.86517" lon="5.69097">
        <ele>656</ele>
        <time>2023-05-16T11:29:42.046Z</time>
      </trkpt>
      <trkpt lat="44.8652" lon="5.69091">
        <ele>656</ele>
        <time>2023-05-16T11:29:43.901Z</time>
      </trkpt>
      <trkpt lat="44.86524" lon="5.69084">
        <ele>656</ele>
        <time>2023-05-16T11:29:46.173Z</time>
      </trkpt>
      <trkpt lat="44.86528" lon="5.69078">
        <ele>656</ele>
        <time>2023-05-16T11:29:48.254Z</time>
      </trkpt>
      <trkpt lat="44.8653" lon="5.69073">
        <ele>656</ele>
        <time>2023-05-16T11:29:49.705Z</time>
      </trkpt>
      <trkpt lat="44.86533" lon="5.69069">
        <ele>656</ele>
        <time>2023-05-16T11:29:51.176Z</time>
      </trkpt>
      <trkpt lat="44.86535" lon="5.69066">
        <ele>656</ele>
        <time>2023-05-16T11:29:52.217Z</time>
      </trkpt>
      <trkpt lat="44.86536" lon="5.69063">
        <ele>656</ele>
        <time>2023-05-16T11:29:53.054Z</time>
      </trkpt>
      <trkpt lat="44.86538" lon="5.69059">
        <ele>656</ele>
        <time>2023-05-16T11:29:54.291Z</time>
      </trkpt>
      <trkpt lat="44.86537" lon="5.69055">
        <ele>656.1</ele>
        <time>2023-05-16T11:29:55.481Z</time>
      </trkpt>
      <trkpt lat="44.86535" lon="5.69051">
        <ele>656.1</ele>
        <time>2023-05-16T11:29:56.717Z</time>
      </trkpt>
      <trkpt lat="44.86531" lon="5.69049">
        <ele>656.3</ele>
        <time>2023-05-16T11:29:58.474Z</time>
      </trkpt>
      <trkpt lat="44.86529" lon="5.69048">
        <ele>656.4</ele>
        <time>2023-05-16T11:29:59.352Z</time>
      </trkpt>
      <trkpt lat="44.86526" lon="5.69044">
        <ele>656.6</ele>
        <time>2023-05-16T11:30:01.068Z</time>
      </trkpt>
      <trkpt lat="44.86524" lon="5.69042">
        <ele>656.9</ele>
        <time>2023-05-16T11:30:02.381Z</time>
      </trkpt>
      <trkpt lat="44.8652" lon="5.69038">
        <ele>657.1</ele>
        <time>2023-05-16T11:30:04.369Z</time>
      </trkpt>
      <trkpt lat="44.86519" lon="5.69035">
        <ele>657.2</ele>
        <time>2023-05-16T11:30:05.327Z</time>
      </trkpt>
      <trkpt lat="44.86515" lon="5.69034">
        <ele>657.3</ele>
        <time>2023-05-16T11:30:06.891Z</time>
      </trkpt>
      <trkpt lat="44.86511" lon="5.69034">
        <ele>657.4</ele>
        <time>2023-05-16T11:30:08.432Z</time>
      </trkpt>
      <trkpt lat="44.86506" lon="5.69033">
        <ele>657.5</ele>
        <time>2023-05-16T11:30:10.347Z</time>
      </trkpt>
      <trkpt lat="44.86503" lon="5.69032">
        <ele>657.6</ele>
        <time>2023-05-16T11:30:11.564Z</time>
      </trkpt>
      <trkpt lat="44.865" lon="5.69031">
        <ele>657.6</ele>
        <time>2023-05-16T11:30:12.663Z</time>
      </trkpt>
      <trkpt lat="44.86497" lon="5.6903">
        <ele>657.7</ele>
        <time>2023-05-16T11:30:13.879Z</time>
      </trkpt>
      <trkpt lat="44.86493" lon="5.69028">
        <ele>657.7</ele>
        <time>2023-05-16T11:30:15.392Z</time>
      </trkpt>
      <trkpt lat="44.8649" lon="5.69026">
        <ele>657.8</ele>
        <time>2023-05-16T11:30:16.692Z</time>
      </trkpt>
      <trkpt lat="44.86486" lon="5.69023">
        <ele>657.9</ele>
        <time>2023-05-16T11:30:18.422Z</time>
      </trkpt>
      <trkpt lat="44.86484" lon="5.6902">
        <ele>658.1</ele>
        <time>2023-05-16T11:30:19.719Z</time>
      </trkpt>
      <trkpt lat="44.86481" lon="5.69017">
        <ele>658.3</ele>
        <time>2023-05-16T11:30:21.277Z</time>
      </trkpt>
      <trkpt lat="44.86477" lon="5.69014">
        <ele>658.6</ele>
        <time>2023-05-16T11:30:23.275Z</time>
      </trkpt>
      <trkpt lat="44.86474" lon="5.69011">
        <ele>658.9</ele>
        <time>2023-05-16T11:30:24.982Z</time>
      </trkpt>
      <trkpt lat="44.86471" lon="5.69008">
        <ele>659.4</ele>
        <time>2023-05-16T11:30:27.050Z</time>
      </trkpt>
      <trkpt lat="44.86467" lon="5.69006">
        <ele>659.9</ele>
        <time>2023-05-16T11:30:29.286Z</time>
      </trkpt>
      <trkpt lat="44.86464" lon="5.69003">
        <ele>660.4</ele>
        <time>2023-05-16T11:30:31.355Z</time>
      </trkpt>
      <trkpt lat="44.86462" lon="5.69001">
        <ele>660.8</ele>
        <time>2023-05-16T11:30:32.880Z</time>
      </trkpt>
      <trkpt lat="44.86458" lon="5.68998">
        <ele>661.4</ele>
        <time>2023-05-16T11:30:35.395Z</time>
      </trkpt>
      <trkpt lat="44.86456" lon="5.68995">
        <ele>662</ele>
        <time>2023-05-16T11:30:37.533Z</time>
      </trkpt>
      <trkpt lat="44.86454" lon="5.68992">
        <ele>662.5</ele>
        <time>2023-05-16T11:30:39.406Z</time>
      </trkpt>
      <trkpt lat="44.86452" lon="5.68989">
        <ele>663.1</ele>
        <time>2023-05-16T11:30:41.544Z</time>
      </trkpt>
      <trkpt lat="44.86449" lon="5.68985">
        <ele>663.8</ele>
        <time>2023-05-16T11:30:44.174Z</time>
      </trkpt>
      <trkpt lat="44.86447" lon="5.6898">
        <ele>664.5</ele>
        <time>2023-05-16T11:30:46.792Z</time>
      </trkpt>
      <trkpt lat="44.86444" lon="5.68977">
        <ele>665</ele>
        <time>2023-05-16T11:30:48.860Z</time>
      </trkpt>
      <trkpt lat="44.86442" lon="5.68974">
        <ele>665.5</ele>
        <time>2023-05-16T11:30:50.733Z</time>
      </trkpt>
      <trkpt lat="44.86439" lon="5.68971">
        <ele>666</ele>
        <time>2023-05-16T11:30:52.801Z</time>
      </trkpt>
      <trkpt lat="44.86437" lon="5.68968">
        <ele>666.4</ele>
        <time>2023-05-16T11:30:54.450Z</time>
      </trkpt>
      <trkpt lat="44.86435" lon="5.68964">
        <ele>666.9</ele>
        <time>2023-05-16T11:30:56.460Z</time>
      </trkpt>
      <trkpt lat="44.86433" lon="5.68962">
        <ele>667.2</ele>
        <time>2023-05-16T11:30:57.773Z</time>
      </trkpt>
      <trkpt lat="44.8643" lon="5.6896">
        <ele>667.7</ele>
        <time>2023-05-16T11:30:59.743Z</time>
      </trkpt>
      <trkpt lat="44.86428" lon="5.68958">
        <ele>668.1</ele>
        <time>2023-05-16T11:31:01.268Z</time>
      </trkpt>
      <trkpt lat="44.86426" lon="5.68955">
        <ele>668.4</ele>
        <time>2023-05-16T11:31:02.727Z</time>
      </trkpt>
      <trkpt lat="44.86423" lon="5.68953">
        <ele>668.9</ele>
        <time>2023-05-16T11:31:04.697Z</time>
      </trkpt>
      <trkpt lat="44.86421" lon="5.6895">
        <ele>669.3</ele>
        <time>2023-05-16T11:31:06.345Z</time>
      </trkpt>
      <trkpt lat="44.86419" lon="5.68947">
        <ele>669.7</ele>
        <time>2023-05-16T11:31:07.993Z</time>
      </trkpt>
      <trkpt lat="44.86416" lon="5.68944">
        <ele>670.1</ele>
        <time>2023-05-16T11:31:09.870Z</time>
      </trkpt>
      <trkpt lat="44.86414" lon="5.68941">
        <ele>670.5</ele>
        <time>2023-05-16T11:31:11.518Z</time>
      </trkpt>
      <trkpt lat="44.86412" lon="5.68937">
        <ele>670.9</ele>
        <time>2023-05-16T11:31:13.330Z</time>
      </trkpt>
      <trkpt lat="44.86412" lon="5.68933">
        <ele>671.3</ele>
        <time>2023-05-16T11:31:14.954Z</time>
      </trkpt>
      <trkpt lat="44.86411" lon="5.68929">
        <ele>671.8</ele>
        <time>2023-05-16T11:31:16.847Z</time>
      </trkpt>
      <trkpt lat="44.86411" lon="5.68924">
        <ele>672.2</ele>
        <time>2023-05-16T11:31:18.682Z</time>
      </trkpt>
      <trkpt lat="44.86411" lon="5.6892">
        <ele>672.6</ele>
        <time>2023-05-16T11:31:20.306Z</time>
      </trkpt>
      <trkpt lat="44.86408" lon="5.68919">
        <ele>673</ele>
        <time>2023-05-16T11:31:22.002Z</time>
      </trkpt>
      <trkpt lat="44.86405" lon="5.68918">
        <ele>673.3</ele>
        <time>2023-05-16T11:31:23.513Z</time>
      </trkpt>
      <trkpt lat="44.86402" lon="5.68915">
        <ele>673.6</ele>
        <time>2023-05-16T11:31:25.220Z</time>
      </trkpt>
      <trkpt lat="44.86399" lon="5.68913">
        <ele>674</ele>
        <time>2023-05-16T11:31:26.985Z</time>
      </trkpt>
      <trkpt lat="44.86396" lon="5.68915">
        <ele>674.4</ele>
        <time>2023-05-16T11:31:28.751Z</time>
      </trkpt>
      <trkpt lat="44.86393" lon="5.68917">
        <ele>674.7</ele>
        <time>2023-05-16T11:31:30.339Z</time>
      </trkpt>
      <trkpt lat="44.86392" lon="5.6891">
        <ele>675.1</ele>
        <time>2023-05-16T11:31:32.669Z</time>
      </trkpt>
      <trkpt lat="44.86391" lon="5.68905">
        <ele>675.6</ele>
        <time>2023-05-16T11:31:34.738Z</time>
      </trkpt>
      <trkpt lat="44.86387" lon="5.68905">
        <ele>676.2</ele>
        <time>2023-05-16T11:31:37.107Z</time>
      </trkpt>
      <trkpt lat="44.86385" lon="5.68904">
        <ele>676.6</ele>
        <time>2023-05-16T11:31:38.561Z</time>
      </trkpt>
      <trkpt lat="44.86384" lon="5.68898">
        <ele>677.3</ele>
        <time>2023-05-16T11:31:41.249Z</time>
      </trkpt>
      <trkpt lat="44.86385" lon="5.68895">
        <ele>677.8</ele>
        <time>2023-05-16T11:31:43.020Z</time>
      </trkpt>
      <trkpt lat="44.86383" lon="5.68892">
        <ele>678.2</ele>
        <time>2023-05-16T11:31:44.669Z</time>
      </trkpt>
      <trkpt lat="44.86379" lon="5.68892">
        <ele>678.8</ele>
        <time>2023-05-16T11:31:47.038Z</time>
      </trkpt>
      <trkpt lat="44.86376" lon="5.68893">
        <ele>679.2</ele>
        <time>2023-05-16T11:31:48.733Z</time>
      </trkpt>
      <trkpt lat="44.86373" lon="5.68893">
        <ele>679.5</ele>
        <time>2023-05-16T11:31:50.217Z</time>
      </trkpt>
      <trkpt lat="44.8637" lon="5.68892">
        <ele>680.3</ele>
        <time>2023-05-16T11:31:53.024Z</time>
      </trkpt>
      <trkpt lat="44.86368" lon="5.68888">
        <ele>680.8</ele>
        <time>2023-05-16T11:31:55.034Z</time>
      </trkpt>
      <trkpt lat="44.86365" lon="5.68885">
        <ele>681.3</ele>
        <time>2023-05-16T11:31:57.103Z</time>
      </trkpt>
      <trkpt lat="44.86361" lon="5.68885">
        <ele>682.6</ele>
        <time>2023-05-16T11:32:01.885Z</time>
      </trkpt>
      <trkpt lat="44.86359" lon="5.68889">
        <ele>682.9</ele>
        <time>2023-05-16T11:32:03.523Z</time>
      </trkpt>
      <trkpt lat="44.86358" lon="5.68893">
        <ele>683.1</ele>
        <time>2023-05-16T11:32:04.850Z</time>
      </trkpt>
      <trkpt lat="44.86358" lon="5.68897">
        <ele>683.4</ele>
        <time>2023-05-16T11:32:06.281Z</time>
      </trkpt>
      <trkpt lat="44.8636" lon="5.689">
        <ele>682</ele>
        <time>2023-05-16T11:32:07.192Z</time>
      </trkpt>
      <trkpt lat="44.86364" lon="5.68898">
        <ele>680.5</ele>
        <time>2023-05-16T11:32:08.515Z</time>
      </trkpt>
      <trkpt lat="44.86365" lon="5.68894">
        <ele>680.7</ele>
        <time>2023-05-16T11:32:09.842Z</time>
      </trkpt>
      <trkpt lat="44.86364" lon="5.6889">
        <ele>680.9</ele>
        <time>2023-05-16T11:32:11.169Z</time>
      </trkpt>
      <trkpt lat="44.86363" lon="5.68887">
        <ele>682.5</ele>
        <time>2023-05-16T11:32:15.566Z</time>
      </trkpt>
      <trkpt lat="44.86359" lon="5.68885">
        <ele>682.9</ele>
        <time>2023-05-16T11:32:17.624Z</time>
      </trkpt>
      <trkpt lat="44.86357" lon="5.68888">
        <ele>683.2</ele>
        <time>2023-05-16T11:32:19.083Z</time>
      </trkpt>
      <trkpt lat="44.86355" lon="5.6889">
        <ele>683.5</ele>
        <time>2023-05-16T11:32:20.396Z</time>
      </trkpt>
      <trkpt lat="44.86351" lon="5.68893">
        <ele>684</ele>
        <time>2023-05-16T11:32:22.720Z</time>
      </trkpt>
      <trkpt lat="44.86349" lon="5.68895">
        <ele>684.5</ele>
        <time>2023-05-16T11:32:24.504Z</time>
      </trkpt>
      <trkpt lat="44.86345" lon="5.68898">
        <ele>685.2</ele>
        <time>2023-05-16T11:32:27.233Z</time>
      </trkpt>
      <trkpt lat="44.86341" lon="5.689">
        <ele>685.7</ele>
        <time>2023-05-16T11:32:29.469Z</time>
      </trkpt>
      <trkpt lat="44.86339" lon="5.68902">
        <ele>686.2</ele>
        <time>2023-05-16T11:32:31.253Z</time>
      </trkpt>
      <trkpt lat="44.86335" lon="5.68905">
        <ele>686.7</ele>
        <time>2023-05-16T11:32:33.577Z</time>
      </trkpt>
      <trkpt lat="44.86333" lon="5.68907">
        <ele>687.1</ele>
        <time>2023-05-16T11:32:35.102Z</time>
      </trkpt>
      <trkpt lat="44.86331" lon="5.6891">
        <ele>687.5</ele>
        <time>2023-05-16T11:32:36.751Z</time>
      </trkpt>
      <trkpt lat="44.86327" lon="5.68911">
        <ele>688</ele>
        <time>2023-05-16T11:32:38.932Z</time>
      </trkpt>
      <trkpt lat="44.86324" lon="5.68914">
        <ele>688.4</ele>
        <time>2023-05-16T11:32:40.808Z</time>
      </trkpt>
      <trkpt lat="44.86322" lon="5.68916">
        <ele>688.6</ele>
        <time>2023-05-16T11:32:41.946Z</time>
      </trkpt>
      <trkpt lat="44.86319" lon="5.68917">
        <ele>688.9</ele>
        <time>2023-05-16T11:32:43.457Z</time>
      </trkpt>
      <trkpt lat="44.86315" lon="5.6892">
        <ele>689.1</ele>
        <time>2023-05-16T11:32:45.314Z</time>
      </trkpt>
      <trkpt lat="44.86312" lon="5.68923">
        <ele>689.4</ele>
        <time>2023-05-16T11:32:47.021Z</time>
      </trkpt>
      <trkpt lat="44.8631" lon="5.68924">
        <ele>689.6</ele>
        <time>2023-05-16T11:32:48.051Z</time>
      </trkpt>
      <trkpt lat="44.86307" lon="5.68926">
        <ele>689.8</ele>
        <time>2023-05-16T11:32:49.485Z</time>
      </trkpt>
      <trkpt lat="44.86304" lon="5.68928">
        <ele>690.1</ele>
        <time>2023-05-16T11:32:51.073Z</time>
      </trkpt>
      <trkpt lat="44.86301" lon="5.6893">
        <ele>691</ele>
        <time>2023-05-16T11:32:54.243Z</time>
      </trkpt>
      <trkpt lat="44.86297" lon="5.6893">
        <ele>691</ele>
        <time>2023-05-16T11:32:55.669Z</time>
      </trkpt>
      <trkpt lat="44.86294" lon="5.6893">
        <ele>690.9</ele>
        <time>2023-05-16T11:32:56.636Z</time>
      </trkpt>
      <trkpt lat="44.8629" lon="5.6893">
        <ele>690.9</ele>
        <time>2023-05-16T11:32:58.062Z</time>
      </trkpt>
      <trkpt lat="44.86288" lon="5.6893">
        <ele>690.8</ele>
        <time>2023-05-16T11:32:58.686Z</time>
      </trkpt>
      <trkpt lat="44.86284" lon="5.6893">
        <ele>690.8</ele>
        <time>2023-05-16T11:33:00.112Z</time>
      </trkpt>
      <trkpt lat="44.86281" lon="5.68931">
        <ele>690.7</ele>
        <time>2023-05-16T11:33:01.108Z</time>
      </trkpt>
      <trkpt lat="44.86277" lon="5.6893">
        <ele>690.6</ele>
        <time>2023-05-16T11:33:02.452Z</time>
      </trkpt>
      <trkpt lat="44.86274" lon="5.6893">
        <ele>690.6</ele>
        <time>2023-05-16T11:33:03.521Z</time>
      </trkpt>
      <trkpt lat="44.86271" lon="5.68929">
        <ele>690.4</ele>
        <time>2023-05-16T11:33:04.483Z</time>
      </trkpt>
      <trkpt lat="44.86268" lon="5.68929">
        <ele>690</ele>
        <time>2023-05-16T11:33:05.418Z</time>
      </trkpt>
      <trkpt lat="44.86265" lon="5.6893">
        <ele>689.5</ele>
        <time>2023-05-16T11:33:06.380Z</time>
      </trkpt>
      <trkpt lat="44.86261" lon="5.6893">
        <ele>688.8</ele>
        <time>2023-05-16T11:33:07.628Z</time>
      </trkpt>
      <trkpt lat="44.86257" lon="5.6893">
        <ele>688.4</ele>
        <time>2023-05-16T11:33:08.875Z</time>
      </trkpt>
      <trkpt lat="44.86254" lon="5.68929">
        <ele>687.4</ele>
        <time>2023-05-16T11:33:09.837Z</time>
      </trkpt>
      <trkpt lat="44.8625" lon="5.68929">
        <ele>686.6</ele>
        <time>2023-05-16T11:33:11.084Z</time>
      </trkpt>
      <trkpt lat="44.86244" lon="5.68929">
        <ele>685.6</ele>
        <time>2023-05-16T11:33:12.956Z</time>
      </trkpt>
      <trkpt lat="44.86242" lon="5.68929">
        <ele>684.8</ele>
        <time>2023-05-16T11:33:13.579Z</time>
      </trkpt>
      <trkpt lat="44.86239" lon="5.68927">
        <ele>684.1</ele>
        <time>2023-05-16T11:33:14.614Z</time>
      </trkpt>
      <trkpt lat="44.86243" lon="5.68923">
        <ele>683.1</ele>
        <time>2023-05-16T11:33:16.143Z</time>
      </trkpt>
      <trkpt lat="44.86247" lon="5.6892">
        <ele>682.2</ele>
        <time>2023-05-16T11:33:17.556Z</time>
      </trkpt>
      <trkpt lat="44.8625" lon="5.68916">
        <ele>681.9</ele>
        <time>2023-05-16T11:33:18.844Z</time>
      </trkpt>
      <trkpt lat="44.8625" lon="5.68912">
        <ele>681.7</ele>
        <time>2023-05-16T11:33:19.728Z</time>
      </trkpt>
      <trkpt lat="44.86251" lon="5.68908">
        <ele>681.4</ele>
        <time>2023-05-16T11:33:20.666Z</time>
      </trkpt>
      <trkpt lat="44.8625" lon="5.68903">
        <ele>681.1</ele>
        <time>2023-05-16T11:33:21.814Z</time>
      </trkpt>
      <trkpt lat="44.86253" lon="5.68901">
        <ele>680.7</ele>
        <time>2023-05-16T11:33:22.849Z</time>
      </trkpt>
      <trkpt lat="44.86256" lon="5.68901">
        <ele>680.3</ele>
        <time>2023-05-16T11:33:23.785Z</time>
      </trkpt>
      <trkpt lat="44.86255" lon="5.68896">
        <ele>679.9</ele>
        <time>2023-05-16T11:33:24.934Z</time>
      </trkpt>
      <trkpt lat="44.86251" lon="5.68893">
        <ele>679.6</ele>
        <time>2023-05-16T11:33:26.346Z</time>
      </trkpt>
      <trkpt lat="44.86247" lon="5.6889">
        <ele>679.3</ele>
        <time>2023-05-16T11:33:27.759Z</time>
      </trkpt>
      <trkpt lat="44.86242" lon="5.68888">
        <ele>679.1</ele>
        <time>2023-05-16T11:33:29.410Z</time>
      </trkpt>
      <trkpt lat="44.86239" lon="5.68885">
        <ele>679</ele>
        <time>2023-05-16T11:33:30.617Z</time>
      </trkpt>
      <trkpt lat="44.86239" lon="5.6888">
        <ele>678.8</ele>
        <time>2023-05-16T11:33:31.722Z</time>
      </trkpt>
      <trkpt lat="44.86243" lon="5.68877">
        <ele>678.4</ele>
        <time>2023-05-16T11:33:33.135Z</time>
      </trkpt>
      <trkpt lat="44.86248" lon="5.68878">
        <ele>677.7</ele>
        <time>2023-05-16T11:33:34.710Z</time>
      </trkpt>
      <trkpt lat="44.86251" lon="5.68878">
        <ele>677.4</ele>
        <time>2023-05-16T11:33:35.646Z</time>
      </trkpt>
      <trkpt lat="44.86254" lon="5.68879">
        <ele>677.2</ele>
        <time>2023-05-16T11:33:36.607Z</time>
      </trkpt>
      <trkpt lat="44.86258" lon="5.68879">
        <ele>676.9</ele>
        <time>2023-05-16T11:33:37.855Z</time>
      </trkpt>
      <trkpt lat="44.86261" lon="5.6888">
        <ele>676.5</ele>
        <time>2023-05-16T11:33:38.816Z</time>
      </trkpt>
      <trkpt lat="44.86264" lon="5.6888">
        <ele>676.2</ele>
        <time>2023-05-16T11:33:39.752Z</time>
      </trkpt>
      <trkpt lat="44.86268" lon="5.68876">
        <ele>675.7</ele>
        <time>2023-05-16T11:33:41.281Z</time>
      </trkpt>
      <trkpt lat="44.86271" lon="5.68871">
        <ele>675.1</ele>
        <time>2023-05-16T11:33:42.729Z</time>
      </trkpt>
      <trkpt lat="44.86274" lon="5.68869">
        <ele>674.8</ele>
        <time>2023-05-16T11:33:43.764Z</time>
      </trkpt>
      <trkpt lat="44.86278" lon="5.68867">
        <ele>674</ele>
        <time>2023-05-16T11:33:45.088Z</time>
      </trkpt>
      <trkpt lat="44.86284" lon="5.68864">
        <ele>673.5</ele>
        <time>2023-05-16T11:33:47.073Z</time>
      </trkpt>
      <trkpt lat="44.8629" lon="5.68861">
        <ele>673.2</ele>
        <time>2023-05-16T11:33:49.059Z</time>
      </trkpt>
      <trkpt lat="44.86299" lon="5.68856">
        <ele>672.2</ele>
        <time>2023-05-16T11:33:52.076Z</time>
      </trkpt>
      <trkpt lat="44.86306" lon="5.6885">
        <ele>670.6</ele>
        <time>2023-05-16T11:33:54.630Z</time>
      </trkpt>
      <trkpt lat="44.86312" lon="5.68847">
        <ele>669.6</ele>
        <time>2023-05-16T11:33:56.616Z</time>
      </trkpt>
      <trkpt lat="44.8632" lon="5.68843">
        <ele>668.8</ele>
        <time>2023-05-16T11:33:59.263Z</time>
      </trkpt>
      <trkpt lat="44.86327" lon="5.68837">
        <ele>668.3</ele>
        <time>2023-05-16T11:34:01.818Z</time>
      </trkpt>
      <trkpt lat="44.86332" lon="5.68835">
        <ele>667.8</ele>
        <time>2023-05-16T11:34:03.439Z</time>
      </trkpt>
      <trkpt lat="44.86338" lon="5.68829">
        <ele>666.9</ele>
        <time>2023-05-16T11:34:05.732Z</time>
      </trkpt>
      <trkpt lat="44.86342" lon="5.68822">
        <ele>666.6</ele>
        <time>2023-05-16T11:34:07.720Z</time>
      </trkpt>
      <trkpt lat="44.86347" lon="5.68815">
        <ele>666.3</ele>
        <time>2023-05-16T11:34:09.930Z</time>
      </trkpt>
      <trkpt lat="44.86349" lon="5.68813">
        <ele>666.2</ele>
        <time>2023-05-16T11:34:10.703Z</time>
      </trkpt>
      <trkpt lat="44.86355" lon="5.68809">
        <ele>666.1</ele>
        <time>2023-05-16T11:34:12.962Z</time>
      </trkpt>
      <trkpt lat="44.86356" lon="5.68803">
        <ele>666</ele>
        <time>2023-05-16T11:34:14.415Z</time>
      </trkpt>
      <trkpt lat="44.86356" lon="5.68797">
        <ele>666</ele>
        <time>2023-05-16T11:34:15.931Z</time>
      </trkpt>
      <trkpt lat="44.86358" lon="5.68791">
        <ele>665.9</ele>
        <time>2023-05-16T11:34:17.501Z</time>
      </trkpt>
      <trkpt lat="44.86361" lon="5.68788">
        <ele>665.8</ele>
        <time>2023-05-16T11:34:18.709Z</time>
      </trkpt>
      <trkpt lat="44.86364" lon="5.68785">
        <ele>665.6</ele>
        <time>2023-05-16T11:34:19.855Z</time>
      </trkpt>
      <trkpt lat="44.86366" lon="5.68784">
        <ele>665.3</ele>
        <time>2023-05-16T11:34:20.517Z</time>
      </trkpt>
      <trkpt lat="44.86371" lon="5.68781">
        <ele>664.6</ele>
        <time>2023-05-16T11:34:22.212Z</time>
      </trkpt>
      <trkpt lat="44.86386" lon="5.6877">
        <ele>662.7</ele>
        <time>2023-05-16T11:34:27.485Z</time>
      </trkpt>
      <trkpt lat="44.86388" lon="5.68767">
        <ele>662.5</ele>
        <time>2023-05-16T11:34:28.395Z</time>
      </trkpt>
      <trkpt lat="44.8639" lon="5.68759">
        <ele>662.2</ele>
        <time>2023-05-16T11:34:30.270Z</time>
      </trkpt>
      <trkpt lat="44.86391" lon="5.6875">
        <ele>661.9</ele>
        <time>2023-05-16T11:34:32.284Z</time>
      </trkpt>
      <trkpt lat="44.86393" lon="5.68744">
        <ele>661.6</ele>
        <time>2023-05-16T11:34:33.750Z</time>
      </trkpt>
      <trkpt lat="44.86396" lon="5.68741">
        <ele>661.1</ele>
        <time>2023-05-16T11:34:34.897Z</time>
      </trkpt>
      <trkpt lat="44.864" lon="5.68743">
        <ele>660.5</ele>
        <time>2023-05-16T11:34:36.221Z</time>
      </trkpt>
      <trkpt lat="44.86405" lon="5.68742">
        <ele>659.7</ele>
        <time>2023-05-16T11:34:37.796Z</time>
      </trkpt>
      <trkpt lat="44.86407" lon="5.68741">
        <ele>659.3</ele>
        <time>2023-05-16T11:34:38.458Z</time>
      </trkpt>
      <trkpt lat="44.8641" lon="5.68739">
        <ele>658.8</ele>
        <time>2023-05-16T11:34:39.493Z</time>
      </trkpt>
      <trkpt lat="44.86412" lon="5.68735">
        <ele>658.4</ele>
        <time>2023-05-16T11:34:40.575Z</time>
      </trkpt>
      <trkpt lat="44.86413" lon="5.68731">
        <ele>658.1</ele>
        <time>2023-05-16T11:34:41.512Z</time>
      </trkpt>
      <trkpt lat="44.86419" lon="5.68716">
        <ele>657.4</ele>
        <time>2023-05-16T11:34:45.320Z</time>
      </trkpt>
      <trkpt lat="44.86436" lon="5.68679">
        <ele>653.6</ele>
        <time>2023-05-16T11:34:55.068Z</time>
      </trkpt>
      <trkpt lat="44.8644" lon="5.68668">
        <ele>652.9</ele>
        <time>2023-05-16T11:34:57.801Z</time>
      </trkpt>
      <trkpt lat="44.86442" lon="5.6866">
        <ele>652.6</ele>
        <time>2023-05-16T11:34:59.676Z</time>
      </trkpt>
      <trkpt lat="44.86447" lon="5.68651">
        <ele>651.5</ele>
        <time>2023-05-16T11:35:02.204Z</time>
      </trkpt>
      <trkpt lat="44.86449" lon="5.68642">
        <ele>650.9</ele>
        <time>2023-05-16T11:35:04.289Z</time>
      </trkpt>
      <trkpt lat="44.86449" lon="5.68632">
        <ele>649.4</ele>
        <time>2023-05-16T11:35:06.500Z</time>
      </trkpt>
      <trkpt lat="44.86454" lon="5.68623">
        <ele>647.9</ele>
        <time>2023-05-16T11:35:09.028Z</time>
      </trkpt>
      <trkpt lat="44.86457" lon="5.68615">
        <ele>647.2</ele>
        <time>2023-05-16T11:35:11.029Z</time>
      </trkpt>
      <trkpt lat="44.86458" lon="5.68607">
        <ele>646.9</ele>
        <time>2023-05-16T11:35:12.824Z</time>
      </trkpt>
      <trkpt lat="44.86458" lon="5.68602">
        <ele>646.7</ele>
        <time>2023-05-16T11:35:13.930Z</time>
      </trkpt>
      <trkpt lat="44.86457" lon="5.68594">
        <ele>646.3</ele>
        <time>2023-05-16T11:35:15.726Z</time>
      </trkpt>
      <trkpt lat="44.86455" lon="5.68589">
        <ele>645.6</ele>
        <time>2023-05-16T11:35:16.995Z</time>
      </trkpt>
      <trkpt lat="44.86453" lon="5.68583">
        <ele>644.8</ele>
        <time>2023-05-16T11:35:18.461Z</time>
      </trkpt>
      <trkpt lat="44.86453" lon="5.68576">
        <ele>644</ele>
        <time>2023-05-16T11:35:20.008Z</time>
      </trkpt>
      <trkpt lat="44.86453" lon="5.68571">
        <ele>643.2</ele>
        <time>2023-05-16T11:35:21.113Z</time>
      </trkpt>
      <trkpt lat="44.86454" lon="5.68563">
        <ele>642.7</ele>
        <time>2023-05-16T11:35:22.909Z</time>
      </trkpt>
      <trkpt lat="44.86455" lon="5.68555">
        <ele>642</ele>
        <time>2023-05-16T11:35:24.705Z</time>
      </trkpt>
      <trkpt lat="44.86457" lon="5.68549">
        <ele>641.1</ele>
        <time>2023-05-16T11:35:26.171Z</time>
      </trkpt>
      <trkpt lat="44.86458" lon="5.68542">
        <ele>640.3</ele>
        <time>2023-05-16T11:35:27.749Z</time>
      </trkpt>
      <trkpt lat="44.86457" lon="5.68535">
        <ele>639.4</ele>
        <time>2023-05-16T11:35:29.328Z</time>
      </trkpt>
      <trkpt lat="44.86458" lon="5.68529">
        <ele>638.8</ele>
        <time>2023-05-16T11:35:30.691Z</time>
      </trkpt>
      <trkpt lat="44.86457" lon="5.68523">
        <ele>638.7</ele>
        <time>2023-05-16T11:35:32.143Z</time>
      </trkpt>
      <trkpt lat="44.86459" lon="5.68521">
        <ele>638.5</ele>
        <time>2023-05-16T11:35:32.908Z</time>
      </trkpt>
      <trkpt lat="44.86463" lon="5.68518">
        <ele>638.4</ele>
        <time>2023-05-16T11:35:34.418Z</time>
      </trkpt>
      <trkpt lat="44.86465" lon="5.68513">
        <ele>638.3</ele>
        <time>2023-05-16T11:35:35.764Z</time>
      </trkpt>
      <trkpt lat="44.8647" lon="5.68507">
        <ele>638.2</ele>
        <time>2023-05-16T11:35:37.998Z</time>
      </trkpt>
      <trkpt lat="44.86473" lon="5.68502">
        <ele>638.2</ele>
        <time>2023-05-16T11:35:39.653Z</time>
      </trkpt>
      <trkpt lat="44.86479" lon="5.68499">
        <ele>638.1</ele>
        <time>2023-05-16T11:35:41.816Z</time>
      </trkpt>
      <trkpt lat="44.8648" lon="5.68494">
        <ele>638.1</ele>
        <time>2023-05-16T11:35:43.129Z</time>
      </trkpt>
      <trkpt lat="44.86481" lon="5.68488">
        <ele>638.2</ele>
        <time>2023-05-16T11:35:44.801Z</time>
      </trkpt>
      <trkpt lat="44.86484" lon="5.68484">
        <ele>638.3</ele>
        <time>2023-05-16T11:35:46.388Z</time>
      </trkpt>
      <trkpt lat="44.86487" lon="5.68482">
        <ele>638.4</ele>
        <time>2023-05-16T11:35:47.688Z</time>
      </trkpt>
      <trkpt lat="44.86488" lon="5.68477">
        <ele>638.6</ele>
        <time>2023-05-16T11:35:49.249Z</time>
      </trkpt>
      <trkpt lat="44.8649" lon="5.68474">
        <ele>638.7</ele>
        <time>2023-05-16T11:35:50.408Z</time>
      </trkpt>
      <trkpt lat="44.86492" lon="5.6847">
        <ele>638.9</ele>
        <time>2023-05-16T11:35:51.894Z</time>
      </trkpt>
      <trkpt lat="44.86493" lon="5.68467">
        <ele>639</ele>
        <time>2023-05-16T11:35:52.852Z</time>
      </trkpt>
      <trkpt lat="44.86495" lon="5.68462">
        <ele>639.2</ele>
        <time>2023-05-16T11:35:54.548Z</time>
      </trkpt>
      <trkpt lat="44.86496" lon="5.68458">
        <ele>639.4</ele>
        <time>2023-05-16T11:35:55.874Z</time>
      </trkpt>
      <trkpt lat="44.86499" lon="5.68452">
        <ele>639.7</ele>
        <time>2023-05-16T11:35:58.104Z</time>
      </trkpt>
      <trkpt lat="44.86501" lon="5.68448">
        <ele>639.9</ele>
        <time>2023-05-16T11:35:59.591Z</time>
      </trkpt>
      <trkpt lat="44.86503" lon="5.68445">
        <ele>640</ele>
        <time>2023-05-16T11:36:00.750Z</time>
      </trkpt>
      <trkpt lat="44.86506" lon="5.6844">
        <ele>640.3</ele>
        <time>2023-05-16T11:36:02.786Z</time>
      </trkpt>
      <trkpt lat="44.86508" lon="5.68433">
        <ele>640.5</ele>
        <time>2023-05-16T11:36:04.931Z</time>
      </trkpt>
      <trkpt lat="44.86508" lon="5.68428">
        <ele>640.7</ele>
        <time>2023-05-16T11:36:06.443Z</time>
      </trkpt>
      <trkpt lat="44.86509" lon="5.68424">
        <ele>640.9</ele>
        <time>2023-05-16T11:36:07.770Z</time>
      </trkpt>
      <trkpt lat="44.8651" lon="5.68418">
        <ele>641.2</ele>
        <time>2023-05-16T11:36:09.712Z</time>
      </trkpt>
      <trkpt lat="44.86513" lon="5.68414">
        <ele>641.5</ele>
        <time>2023-05-16T11:36:11.571Z</time>
      </trkpt>
      <trkpt lat="44.86515" lon="5.68409">
        <ele>641.7</ele>
        <time>2023-05-16T11:36:13.267Z</time>
      </trkpt>
      <trkpt lat="44.86519" lon="5.68404">
        <ele>642</ele>
        <time>2023-05-16T11:36:15.545Z</time>
      </trkpt>
      <trkpt lat="44.86522" lon="5.684">
        <ele>642.1</ele>
        <time>2023-05-16T11:36:17.132Z</time>
      </trkpt>
      <trkpt lat="44.86526" lon="5.68397">
        <ele>642.2</ele>
        <time>2023-05-16T11:36:18.862Z</time>
      </trkpt>
      <trkpt lat="44.86529" lon="5.68393">
        <ele>642.2</ele>
        <time>2023-05-16T11:36:20.333Z</time>
      </trkpt>
      <trkpt lat="44.86533" lon="5.68391">
        <ele>642.3</ele>
        <time>2023-05-16T11:36:21.962Z</time>
      </trkpt>
      <trkpt lat="44.86535" lon="5.68388">
        <ele>642.4</ele>
        <time>2023-05-16T11:36:23.121Z</time>
      </trkpt>
      <trkpt lat="44.86538" lon="5.68385">
        <ele>642.4</ele>
        <time>2023-05-16T11:36:24.431Z</time>
      </trkpt>
      <trkpt lat="44.86541" lon="5.68382">
        <ele>642.5</ele>
        <time>2023-05-16T11:36:25.859Z</time>
      </trkpt>
      <trkpt lat="44.86543" lon="5.68377">
        <ele>642.5</ele>
        <time>2023-05-16T11:36:27.309Z</time>
      </trkpt>
      <trkpt lat="44.86544" lon="5.68374">
        <ele>642.5</ele>
        <time>2023-05-16T11:36:28.147Z</time>
      </trkpt>
      <trkpt lat="44.86547" lon="5.68369">
        <ele>642.4</ele>
        <time>2023-05-16T11:36:29.697Z</time>
      </trkpt>
      <trkpt lat="44.8655" lon="5.68366">
        <ele>642.4</ele>
        <time>2023-05-16T11:36:31.008Z</time>
      </trkpt>
      <trkpt lat="44.86553" lon="5.68362">
        <ele>642.3</ele>
        <time>2023-05-16T11:36:32.375Z</time>
      </trkpt>
      <trkpt lat="44.86561" lon="5.68357">
        <ele>641.9</ele>
        <time>2023-05-16T11:36:35.104Z</time>
      </trkpt>
      <trkpt lat="44.86563" lon="5.68353">
        <ele>641.4</ele>
        <time>2023-05-16T11:36:36.186Z</time>
      </trkpt>
      <trkpt lat="44.86565" lon="5.68349">
        <ele>640.9</ele>
        <time>2023-05-16T11:36:37.268Z</time>
      </trkpt>
      <trkpt lat="44.86565" lon="5.68345">
        <ele>640.7</ele>
        <time>2023-05-16T11:36:38.152Z</time>
      </trkpt>
      <trkpt lat="44.86565" lon="5.6834">
        <ele>640.4</ele>
        <time>2023-05-16T11:36:39.258Z</time>
      </trkpt>
      <trkpt lat="44.86566" lon="5.68334">
        <ele>639.8</ele>
        <time>2023-05-16T11:36:40.620Z</time>
      </trkpt>
      <trkpt lat="44.86566" lon="5.68328">
        <ele>639.2</ele>
        <time>2023-05-16T11:36:41.947Z</time>
      </trkpt>
      <trkpt lat="44.86567" lon="5.68323">
        <ele>638.9</ele>
        <time>2023-05-16T11:36:43.095Z</time>
      </trkpt>
      <trkpt lat="44.86569" lon="5.68317">
        <ele>638.6</ele>
        <time>2023-05-16T11:36:44.561Z</time>
      </trkpt>
      <trkpt lat="44.86577" lon="5.68318">
        <ele>638.3</ele>
        <time>2023-05-16T11:36:47.119Z</time>
      </trkpt>
      <trkpt lat="44.86582" lon="5.68315">
        <ele>638.3</ele>
        <time>2023-05-16T11:36:49.056Z</time>
      </trkpt>
      <trkpt lat="44.86587" lon="5.68315">
        <ele>638.2</ele>
        <time>2023-05-16T11:36:50.733Z</time>
      </trkpt>
      <trkpt lat="44.86594" lon="5.68315">
        <ele>638.2</ele>
        <time>2023-05-16T11:36:53.228Z</time>
      </trkpt>
      <trkpt lat="44.86598" lon="5.68316">
        <ele>638.2</ele>
        <time>2023-05-16T11:36:54.676Z</time>
      </trkpt>
      <trkpt lat="44.86601" lon="5.68315">
        <ele>638.2</ele>
        <time>2023-05-16T11:36:55.775Z</time>
      </trkpt>
      <trkpt lat="44.86605" lon="5.68313">
        <ele>638.2</ele>
        <time>2023-05-16T11:36:57.288Z</time>
      </trkpt>
      <trkpt lat="44.86608" lon="5.68309">
        <ele>638.2</ele>
        <time>2023-05-16T11:36:58.759Z</time>
      </trkpt>
      <trkpt lat="44.86612" lon="5.68304">
        <ele>638.2</ele>
        <time>2023-05-16T11:37:00.664Z</time>
      </trkpt>
      <trkpt lat="44.86616" lon="5.68302">
        <ele>638.3</ele>
        <time>2023-05-16T11:37:02.292Z</time>
      </trkpt>
      <trkpt lat="44.86617" lon="5.68299">
        <ele>638.3</ele>
        <time>2023-05-16T11:37:03.130Z</time>
      </trkpt>
      <trkpt lat="44.86619" lon="5.68293">
        <ele>638.3</ele>
        <time>2023-05-16T11:37:04.805Z</time>
      </trkpt>
      <trkpt lat="44.86624" lon="5.68288">
        <ele>638.3</ele>
        <time>2023-05-16T11:37:06.990Z</time>
      </trkpt>
      <trkpt lat="44.86627" lon="5.68283">
        <ele>638.4</ele>
        <time>2023-05-16T11:37:08.760Z</time>
      </trkpt>
      <trkpt lat="44.86631" lon="5.6828">
        <ele>638.5</ele>
        <time>2023-05-16T11:37:10.490Z</time>
      </trkpt>
      <trkpt lat="44.86635" lon="5.68277">
        <ele>638.6</ele>
        <time>2023-05-16T11:37:12.220Z</time>
      </trkpt>
      <trkpt lat="44.86639" lon="5.68273">
        <ele>638.9</ele>
        <time>2023-05-16T11:37:14.345Z</time>
      </trkpt>
      <trkpt lat="44.86641" lon="5.6827">
        <ele>639.1</ele>
        <time>2023-05-16T11:37:15.642Z</time>
      </trkpt>
      <trkpt lat="44.86644" lon="5.68267">
        <ele>639.3</ele>
        <time>2023-05-16T11:37:17.201Z</time>
      </trkpt>
      <trkpt lat="44.86646" lon="5.68263">
        <ele>639.6</ele>
        <time>2023-05-16T11:37:18.839Z</time>
      </trkpt>
      <trkpt lat="44.86647" lon="5.6826">
        <ele>639.7</ele>
        <time>2023-05-16T11:37:19.797Z</time>
      </trkpt>
      <trkpt lat="44.86649" lon="5.68256">
        <ele>639.9</ele>
        <time>2023-05-16T11:37:21.283Z</time>
      </trkpt>
      <trkpt lat="44.86651" lon="5.68252">
        <ele>639.9</ele>
        <time>2023-05-16T11:37:22.520Z</time>
      </trkpt>
      <trkpt lat="44.86652" lon="5.68248">
        <ele>640</ele>
        <time>2023-05-16T11:37:23.710Z</time>
      </trkpt>
      <trkpt lat="44.86654" lon="5.68244">
        <ele>640.1</ele>
        <time>2023-05-16T11:37:25.063Z</time>
      </trkpt>
      <trkpt lat="44.86657" lon="5.68241">
        <ele>640.1</ele>
        <time>2023-05-16T11:37:26.374Z</time>
      </trkpt>
      <trkpt lat="44.8666" lon="5.68237">
        <ele>640.2</ele>
        <time>2023-05-16T11:37:27.961Z</time>
      </trkpt>
      <trkpt lat="44.86664" lon="5.68236">
        <ele>640.3</ele>
        <time>2023-05-16T11:37:29.525Z</time>
      </trkpt>
      <trkpt lat="44.86667" lon="5.68236">
        <ele>640.3</ele>
        <time>2023-05-16T11:37:30.594Z</time>
      </trkpt>
      <trkpt lat="44.86671" lon="5.68236">
        <ele>640.3</ele>
        <time>2023-05-16T11:37:32.020Z</time>
      </trkpt>
      <trkpt lat="44.86673" lon="5.68232">
        <ele>640.3</ele>
        <time>2023-05-16T11:37:33.257Z</time>
      </trkpt>
      <trkpt lat="44.86672" lon="5.68226">
        <ele>639.9</ele>
        <time>2023-05-16T11:37:34.619Z</time>
      </trkpt>
      <trkpt lat="44.86671" lon="5.68221">
        <ele>639.4</ele>
        <time>2023-05-16T11:37:35.768Z</time>
      </trkpt>
      <trkpt lat="44.86672" lon="5.68216">
        <ele>639</ele>
        <time>2023-05-16T11:37:36.916Z</time>
      </trkpt>
      <trkpt lat="44.86675" lon="5.68209">
        <ele>638.7</ele>
        <time>2023-05-16T11:37:38.725Z</time>
      </trkpt>
      <trkpt lat="44.86678" lon="5.68202">
        <ele>638.2</ele>
        <time>2023-05-16T11:37:40.533Z</time>
      </trkpt>
      <trkpt lat="44.86687" lon="5.68189">
        <ele>636.5</ele>
        <time>2023-05-16T11:37:44.550Z</time>
      </trkpt>
      <trkpt lat="44.86689" lon="5.68178">
        <ele>636</ele>
        <time>2023-05-16T11:37:47.061Z</time>
      </trkpt>
      <trkpt lat="44.86689" lon="5.68169">
        <ele>634.5</ele>
        <time>2023-05-16T11:37:49.050Z</time>
      </trkpt>
      <trkpt lat="44.86689" lon="5.68157">
        <ele>633.7</ele>
        <time>2023-05-16T11:37:51.703Z</time>
      </trkpt>
      <trkpt lat="44.8669" lon="5.68149">
        <ele>632.7</ele>
        <time>2023-05-16T11:37:53.499Z</time>
      </trkpt>
      <trkpt lat="44.86692" lon="5.68141">
        <ele>632.1</ele>
        <time>2023-05-16T11:37:55.374Z</time>
      </trkpt>
      <trkpt lat="44.86697" lon="5.68136">
        <ele>631.7</ele>
        <time>2023-05-16T11:37:57.285Z</time>
      </trkpt>
      <trkpt lat="44.86702" lon="5.68129">
        <ele>630.5</ele>
        <time>2023-05-16T11:37:59.482Z</time>
      </trkpt>
      <trkpt lat="44.86704" lon="5.68126">
        <ele>629.7</ele>
        <time>2023-05-16T11:38:00.393Z</time>
      </trkpt>
      <trkpt lat="44.86708" lon="5.68121">
        <ele>628.1</ele>
        <time>2023-05-16T11:38:02.059Z</time>
      </trkpt>
      <trkpt lat="44.86712" lon="5.68115">
        <ele>626.5</ele>
        <time>2023-05-16T11:38:03.880Z</time>
      </trkpt>
      <trkpt lat="44.86715" lon="5.68109">
        <ele>625.1</ele>
        <time>2023-05-16T11:38:05.504Z</time>
      </trkpt>
      <trkpt lat="44.86716" lon="5.68105">
        <ele>624.3</ele>
        <time>2023-05-16T11:38:06.441Z</time>
      </trkpt>
      <trkpt lat="44.86718" lon="5.68102">
        <ele>623.7</ele>
        <time>2023-05-16T11:38:07.352Z</time>
      </trkpt>
      <trkpt lat="44.86717" lon="5.68096">
        <ele>622.7</ele>
        <time>2023-05-16T11:38:08.714Z</time>
      </trkpt>
      <trkpt lat="44.86718" lon="5.68091">
        <ele>621.9</ele>
        <time>2023-05-16T11:38:09.863Z</time>
      </trkpt>
      <trkpt lat="44.86721" lon="5.68084">
        <ele>620.7</ele>
        <time>2023-05-16T11:38:11.671Z</time>
      </trkpt>
      <trkpt lat="44.86721" lon="5.68077">
        <ele>619.6</ele>
        <time>2023-05-16T11:38:13.218Z</time>
      </trkpt>
      <trkpt lat="44.86722" lon="5.68069">
        <ele>618.5</ele>
        <time>2023-05-16T11:38:15.014Z</time>
      </trkpt>
      <trkpt lat="44.86724" lon="5.68063">
        <ele>617.7</ele>
        <time>2023-05-16T11:38:16.480Z</time>
      </trkpt>
      <trkpt lat="44.86729" lon="5.68057">
        <ele>617</ele>
        <time>2023-05-16T11:38:18.527Z</time>
      </trkpt>
      <trkpt lat="44.86732" lon="5.68047">
        <ele>616.5</ele>
        <time>2023-05-16T11:38:20.927Z</time>
      </trkpt>
      <trkpt lat="44.86737" lon="5.68039">
        <ele>616.3</ele>
        <time>2023-05-16T11:38:23.415Z</time>
      </trkpt>
      <trkpt lat="44.86741" lon="5.68029">
        <ele>616.1</ele>
        <time>2023-05-16T11:38:26.107Z</time>
      </trkpt>
      <trkpt lat="44.86746" lon="5.68019">
        <ele>616</ele>
        <time>2023-05-16T11:38:29.092Z</time>
      </trkpt>
      <trkpt lat="44.86752" lon="5.68011">
        <ele>615.8</ele>
        <time>2023-05-16T11:38:31.826Z</time>
      </trkpt>
      <trkpt lat="44.86755" lon="5.68003">
        <ele>615.7</ele>
        <time>2023-05-16T11:38:34.007Z</time>
      </trkpt>
      <trkpt lat="44.8676" lon="5.67995">
        <ele>615.4</ele>
        <time>2023-05-16T11:38:36.398Z</time>
      </trkpt>
      <trkpt lat="44.86764" lon="5.67988">
        <ele>614.9</ele>
        <time>2023-05-16T11:38:38.386Z</time>
      </trkpt>
      <trkpt lat="44.86769" lon="5.67981">
        <ele>614.6</ele>
        <time>2023-05-16T11:38:40.596Z</time>
      </trkpt>
      <trkpt lat="44.86772" lon="5.67974">
        <ele>614.4</ele>
        <time>2023-05-16T11:38:42.458Z</time>
      </trkpt>
      <trkpt lat="44.86775" lon="5.67968">
        <ele>614.3</ele>
        <time>2023-05-16T11:38:44.208Z</time>
      </trkpt>
      <trkpt lat="44.86779" lon="5.6796">
        <ele>614.2</ele>
        <time>2023-05-16T11:38:46.575Z</time>
      </trkpt>
      <trkpt lat="44.86783" lon="5.67953">
        <ele>614.1</ele>
        <time>2023-05-16T11:38:48.741Z</time>
      </trkpt>
      <trkpt lat="44.86787" lon="5.67947">
        <ele>614</ele>
        <time>2023-05-16T11:38:50.716Z</time>
      </trkpt>
      <trkpt lat="44.8679" lon="5.67941">
        <ele>614</ele>
        <time>2023-05-16T11:38:52.571Z</time>
      </trkpt>
      <trkpt lat="44.86794" lon="5.67934">
        <ele>613.9</ele>
        <time>2023-05-16T11:38:54.736Z</time>
      </trkpt>
      <trkpt lat="44.86798" lon="5.6793">
        <ele>613.8</ele>
        <time>2023-05-16T11:38:56.379Z</time>
      </trkpt>
      <trkpt lat="44.86801" lon="5.67929">
        <ele>613.7</ele>
        <time>2023-05-16T11:38:57.375Z</time>
      </trkpt>
      <trkpt lat="44.86804" lon="5.67923">
        <ele>613.5</ele>
        <time>2023-05-16T11:38:59.028Z</time>
      </trkpt>
      <trkpt lat="44.86803" lon="5.67918">
        <ele>613.2</ele>
        <time>2023-05-16T11:39:00.176Z</time>
      </trkpt>
      <trkpt lat="44.86806" lon="5.67913">
        <ele>612.8</ele>
        <time>2023-05-16T11:39:01.625Z</time>
      </trkpt>
      <trkpt lat="44.86808" lon="5.67907">
        <ele>612.4</ele>
        <time>2023-05-16T11:39:03.090Z</time>
      </trkpt>
      <trkpt lat="44.8681" lon="5.67904">
        <ele>612.2</ele>
        <time>2023-05-16T11:39:04.001Z</time>
      </trkpt>
      <trkpt lat="44.86812" lon="5.679">
        <ele>612.1</ele>
        <time>2023-05-16T11:39:05.134Z</time>
      </trkpt>
      <trkpt lat="44.86814" lon="5.67897">
        <ele>612</ele>
        <time>2023-05-16T11:39:06.073Z</time>
      </trkpt>
      <trkpt lat="44.86816" lon="5.67894">
        <ele>611.8</ele>
        <time>2023-05-16T11:39:06.983Z</time>
      </trkpt>
      <trkpt lat="44.86819" lon="5.67889">
        <ele>611.6</ele>
        <time>2023-05-16T11:39:08.438Z</time>
      </trkpt>
      <trkpt lat="44.86823" lon="5.67885">
        <ele>611.2</ele>
        <time>2023-05-16T11:39:09.967Z</time>
      </trkpt>
      <trkpt lat="44.86826" lon="5.67878">
        <ele>610.7</ele>
        <time>2023-05-16T11:39:11.775Z</time>
      </trkpt>
      <trkpt lat="44.86828" lon="5.67872">
        <ele>610.3</ele>
        <time>2023-05-16T11:39:13.241Z</time>
      </trkpt>
      <trkpt lat="44.86834" lon="5.67864">
        <ele>609.7</ele>
        <time>2023-05-16T11:39:15.815Z</time>
      </trkpt>
      <trkpt lat="44.86838" lon="5.67851">
        <ele>608.8</ele>
        <time>2023-05-16T11:39:18.948Z</time>
      </trkpt>
      <trkpt lat="44.86842" lon="5.67846">
        <ele>608.4</ele>
        <time>2023-05-16T11:39:20.615Z</time>
      </trkpt>
      <trkpt lat="44.86847" lon="5.67835">
        <ele>608</ele>
        <time>2023-05-16T11:39:23.516Z</time>
      </trkpt>
      <trkpt lat="44.86851" lon="5.67823">
        <ele>607.5</ele>
        <time>2023-05-16T11:39:26.447Z</time>
      </trkpt>
      <trkpt lat="44.86854" lon="5.67814">
        <ele>606.6</ele>
        <time>2023-05-16T11:39:28.645Z</time>
      </trkpt>
      <trkpt lat="44.86857" lon="5.67809">
        <ele>606</ele>
        <time>2023-05-16T11:39:30.094Z</time>
      </trkpt>
      <trkpt lat="44.86859" lon="5.67804">
        <ele>605.7</ele>
        <time>2023-05-16T11:39:31.363Z</time>
      </trkpt>
      <trkpt lat="44.86863" lon="5.67795">
        <ele>604.7</ele>
        <time>2023-05-16T11:39:33.711Z</time>
      </trkpt>
      <trkpt lat="44.86865" lon="5.67787">
        <ele>604</ele>
        <time>2023-05-16T11:39:35.586Z</time>
      </trkpt>
      <trkpt lat="44.86867" lon="5.67783">
        <ele>603.8</ele>
        <time>2023-05-16T11:39:36.668Z</time>
      </trkpt>
      <trkpt lat="44.8687" lon="5.6778">
        <ele>603.6</ele>
        <time>2023-05-16T11:39:37.815Z</time>
      </trkpt>
      <trkpt lat="44.86872" lon="5.67776">
        <ele>603.2</ele>
        <time>2023-05-16T11:39:38.897Z</time>
      </trkpt>
      <trkpt lat="44.86874" lon="5.67772">
        <ele>602.8</ele>
        <time>2023-05-16T11:39:39.979Z</time>
      </trkpt>
      <trkpt lat="44.86876" lon="5.67768">
        <ele>602.3</ele>
        <time>2023-05-16T11:39:41.061Z</time>
      </trkpt>
      <trkpt lat="44.86878" lon="5.67762">
        <ele>602</ele>
        <time>2023-05-16T11:39:42.527Z</time>
      </trkpt>
      <trkpt lat="44.86878" lon="5.67756">
        <ele>601.7</ele>
        <time>2023-05-16T11:39:43.853Z</time>
      </trkpt>
      <trkpt lat="44.8688" lon="5.67751">
        <ele>601.2</ele>
        <time>2023-05-16T11:39:45.123Z</time>
      </trkpt>
      <trkpt lat="44.86881" lon="5.67745">
        <ele>600.3</ele>
        <time>2023-05-16T11:39:46.485Z</time>
      </trkpt>
      <trkpt lat="44.86887" lon="5.67735">
        <ele>598.4</ele>
        <time>2023-05-16T11:39:49.381Z</time>
      </trkpt>
      <trkpt lat="44.86889" lon="5.67728">
        <ele>597.3</ele>
        <time>2023-05-16T11:39:51.050Z</time>
      </trkpt>
      <trkpt lat="44.86892" lon="5.67722">
        <ele>596.5</ele>
        <time>2023-05-16T11:39:52.673Z</time>
      </trkpt>
      <trkpt lat="44.86894" lon="5.67717">
        <ele>596</ele>
        <time>2023-05-16T11:39:53.942Z</time>
      </trkpt>
      <trkpt lat="44.86896" lon="5.67712">
        <ele>595.7</ele>
        <time>2023-05-16T11:39:55.211Z</time>
      </trkpt>
      <trkpt lat="44.869" lon="5.67706">
        <ele>595.2</ele>
        <time>2023-05-16T11:39:57.032Z</time>
      </trkpt>
      <trkpt lat="44.86902" lon="5.67696">
        <ele>594.7</ele>
        <time>2023-05-16T11:39:59.329Z</time>
      </trkpt>
      <trkpt lat="44.86904" lon="5.67692">
        <ele>594.4</ele>
        <time>2023-05-16T11:40:00.411Z</time>
      </trkpt>
      <trkpt lat="44.86906" lon="5.67689">
        <ele>594.1</ele>
        <time>2023-05-16T11:40:01.321Z</time>
      </trkpt>
      <trkpt lat="44.86909" lon="5.67683">
        <ele>593.8</ele>
        <time>2023-05-16T11:40:02.944Z</time>
      </trkpt>
      <trkpt lat="44.86912" lon="5.67678">
        <ele>593.7</ele>
        <time>2023-05-16T11:40:04.495Z</time>
      </trkpt>
      <trkpt lat="44.86914" lon="5.67675">
        <ele>593.6</ele>
        <time>2023-05-16T11:40:05.433Z</time>
      </trkpt>
      <trkpt lat="44.86916" lon="5.67671">
        <ele>593.5</ele>
        <time>2023-05-16T11:40:06.567Z</time>
      </trkpt>
      <trkpt lat="44.86918" lon="5.67667">
        <ele>593.5</ele>
        <time>2023-05-16T11:40:07.803Z</time>
      </trkpt>
      <trkpt lat="44.86923" lon="5.67658">
        <ele>593.2</ele>
        <time>2023-05-16T11:40:10.388Z</time>
      </trkpt>
      <trkpt lat="44.86929" lon="5.67649">
        <ele>593.1</ele>
        <time>2023-05-16T11:40:13.402Z</time>
      </trkpt>
      <trkpt lat="44.86931" lon="5.67642">
        <ele>593.1</ele>
        <time>2023-05-16T11:40:15.309Z</time>
      </trkpt>
      <trkpt lat="44.86934" lon="5.67639">
        <ele>593.1</ele>
        <time>2023-05-16T11:40:16.619Z</time>
      </trkpt>
      <trkpt lat="44.86937" lon="5.67634">
        <ele>593.1</ele>
        <time>2023-05-16T11:40:18.274Z</time>
      </trkpt>
      <trkpt lat="44.86939" lon="5.67632">
        <ele>593</ele>
        <time>2023-05-16T11:40:19.048Z</time>
      </trkpt>
      <trkpt lat="44.86942" lon="5.67629">
        <ele>593</ele>
        <time>2023-05-16T11:40:20.358Z</time>
      </trkpt>
      <trkpt lat="44.86944" lon="5.67624">
        <ele>593</ele>
        <time>2023-05-16T11:40:21.809Z</time>
      </trkpt>
      <trkpt lat="44.86947" lon="5.67619">
        <ele>593</ele>
        <time>2023-05-16T11:40:23.464Z</time>
      </trkpt>
      <trkpt lat="44.8695" lon="5.67614">
        <ele>592.9</ele>
        <time>2023-05-16T11:40:25.014Z</time>
      </trkpt>
      <trkpt lat="44.86951" lon="5.6761">
        <ele>592.9</ele>
        <time>2023-05-16T11:40:26.085Z</time>
      </trkpt>
      <trkpt lat="44.86953" lon="5.67605">
        <ele>592.8</ele>
        <time>2023-05-16T11:40:27.432Z</time>
      </trkpt>
      <trkpt lat="44.86954" lon="5.676">
        <ele>592.8</ele>
        <time>2023-05-16T11:40:28.744Z</time>
      </trkpt>
      <trkpt lat="44.86955" lon="5.67592">
        <ele>592.7</ele>
        <time>2023-05-16T11:40:30.691Z</time>
      </trkpt>
      <trkpt lat="44.86957" lon="5.67582">
        <ele>592.5</ele>
        <time>2023-05-16T11:40:33.108Z</time>
      </trkpt>
      <trkpt lat="44.86958" lon="5.67576">
        <ele>592.4</ele>
        <time>2023-05-16T11:40:34.561Z</time>
      </trkpt>
      <trkpt lat="44.86957" lon="5.67568">
        <ele>592.2</ele>
        <time>2023-05-16T11:40:36.409Z</time>
      </trkpt>
      <trkpt lat="44.86957" lon="5.67562">
        <ele>592.1</ele>
        <time>2023-05-16T11:40:37.821Z</time>
      </trkpt>
      <trkpt lat="44.86956" lon="5.67557">
        <ele>592</ele>
        <time>2023-05-16T11:40:39.029Z</time>
      </trkpt>
      <trkpt lat="44.86955" lon="5.67554">
        <ele>591.8</ele>
        <time>2023-05-16T11:40:39.762Z</time>
      </trkpt>
      <trkpt lat="44.86954" lon="5.6755">
        <ele>591.6</ele>
        <time>2023-05-16T11:40:40.700Z</time>
      </trkpt>
      <trkpt lat="44.86955" lon="5.67545">
        <ele>591.2</ele>
        <time>2023-05-16T11:40:41.848Z</time>
      </trkpt>
      <trkpt lat="44.86956" lon="5.67539">
        <ele>590.8</ele>
        <time>2023-05-16T11:40:43.211Z</time>
      </trkpt>
      <trkpt lat="44.86959" lon="5.67534">
        <ele>590.4</ele>
        <time>2023-05-16T11:40:44.659Z</time>
      </trkpt>
      <trkpt lat="44.8696" lon="5.6753">
        <ele>590.2</ele>
        <time>2023-05-16T11:40:45.596Z</time>
      </trkpt>
      <trkpt lat="44.86961" lon="5.67526">
        <ele>590.1</ele>
        <time>2023-05-16T11:40:46.566Z</time>
      </trkpt>
      <trkpt lat="44.86963" lon="5.67522">
        <ele>589.9</ele>
        <time>2023-05-16T11:40:47.648Z</time>
      </trkpt>
      <trkpt lat="44.86966" lon="5.67516">
        <ele>589.6</ele>
        <time>2023-05-16T11:40:49.271Z</time>
      </trkpt>
      <trkpt lat="44.86968" lon="5.67512">
        <ele>589.4</ele>
        <time>2023-05-16T11:40:50.353Z</time>
      </trkpt>
      <trkpt lat="44.86971" lon="5.67506">
        <ele>588.6</ele>
        <time>2023-05-16T11:40:51.976Z</time>
      </trkpt>
      <trkpt lat="44.86977" lon="5.67501">
        <ele>587.4</ele>
        <time>2023-05-16T11:40:54.150Z</time>
      </trkpt>
      <trkpt lat="44.86982" lon="5.67494">
        <ele>586.5</ele>
        <time>2023-05-16T11:40:56.346Z</time>
      </trkpt>
      <trkpt lat="44.86984" lon="5.67486">
        <ele>585.7</ele>
        <time>2023-05-16T11:40:58.222Z</time>
      </trkpt>
      <trkpt lat="44.86989" lon="5.67475">
        <ele>583.7</ele>
        <time>2023-05-16T11:41:01.110Z</time>
      </trkpt>
      <trkpt lat="44.86994" lon="5.67465">
        <ele>581.6</ele>
        <time>2023-05-16T11:41:03.815Z</time>
      </trkpt>
      <trkpt lat="44.86998" lon="5.67456">
        <ele>580.7</ele>
        <time>2023-05-16T11:41:06.164Z</time>
      </trkpt>
      <trkpt lat="44.87002" lon="5.67449">
        <ele>579.5</ele>
        <time>2023-05-16T11:41:08.151Z</time>
      </trkpt>
      <trkpt lat="44.87004" lon="5.67443">
        <ele>578.8</ele>
        <time>2023-05-16T11:41:09.617Z</time>
      </trkpt>
      <trkpt lat="44.87005" lon="5.67436">
        <ele>578.4</ele>
        <time>2023-05-16T11:41:11.195Z</time>
      </trkpt>
      <trkpt lat="44.87006" lon="5.67431">
        <ele>578.1</ele>
        <time>2023-05-16T11:41:12.344Z</time>
      </trkpt>
      <trkpt lat="44.87007" lon="5.67426">
        <ele>571.7</ele>
        <time>2023-05-16T11:41:13.492Z</time>
      </trkpt>
      <trkpt lat="44.8701" lon="5.67418">
        <ele>564</ele>
        <time>2023-05-16T11:41:15.493Z</time>
      </trkpt>
      <trkpt lat="44.87013" lon="5.6741">
        <ele>555</ele>
        <time>2023-05-16T11:41:17.494Z</time>
      </trkpt>
      <trkpt lat="44.87015" lon="5.67406">
        <ele>549.4</ele>
        <time>2023-05-16T11:41:18.576Z</time>
      </trkpt>
      <trkpt lat="44.87018" lon="5.67404">
        <ele>536.6</ele>
        <time>2023-05-16T11:41:19.611Z</time>
      </trkpt>
      <trkpt lat="44.87022" lon="5.67403">
        <ele>541.8</ele>
        <time>2023-05-16T11:41:27.213Z</time>
      </trkpt>
      <trkpt lat="44.87025" lon="5.67406">
        <ele>545.7</ele>
        <time>2023-05-16T11:41:34.094Z</time>
      </trkpt>
      <trkpt lat="44.87027" lon="5.67409">
        <ele>547.9</ele>
        <time>2023-05-16T11:41:39.556Z</time>
      </trkpt>
      <trkpt lat="44.87031" lon="5.67412">
        <ele>550.7</ele>
        <time>2023-05-16T11:41:48.034Z</time>
      </trkpt>
      <trkpt lat="44.87036" lon="5.67415">
        <ele>552.6</ele>
        <time>2023-05-16T11:41:55.227Z</time>
      </trkpt>
      <trkpt lat="44.87039" lon="5.6742">
        <ele>553.9</ele>
        <time>2023-05-16T11:41:59.828Z</time>
      </trkpt>
      <trkpt lat="44.87037" lon="5.67426">
        <ele>556.1</ele>
        <time>2023-05-16T11:42:08.622Z</time>
      </trkpt>
      <trkpt lat="44.87035" lon="5.6743">
        <ele>558.2</ele>
        <time>2023-05-16T11:42:15.114Z</time>
      </trkpt>
      <trkpt lat="44.87035" lon="5.67439">
        <ele>559.7</ele>
        <time>2023-05-16T11:42:20.372Z</time>
      </trkpt>
      <trkpt lat="44.87034" lon="5.67444">
        <ele>560</ele>
        <time>2023-05-16T11:42:22.081Z</time>
      </trkpt>
      <trkpt lat="44.87027" lon="5.67452">
        <ele>560.3</ele>
        <time>2023-05-16T11:42:25.646Z</time>
      </trkpt>
      <trkpt lat="44.87027" lon="5.67456">
        <ele>560.5</ele>
        <time>2023-05-16T11:42:26.914Z</time>
      </trkpt>
      <trkpt lat="44.87024" lon="5.67458">
        <ele>560.8</ele>
        <time>2023-05-16T11:42:28.502Z</time>
      </trkpt>
      <trkpt lat="44.87026" lon="5.67462">
        <ele>561</ele>
        <time>2023-05-16T11:42:29.989Z</time>
      </trkpt>
      <trkpt lat="44.87027" lon="5.67469">
        <ele>561.4</ele>
        <time>2023-05-16T11:42:32.318Z</time>
      </trkpt>
      <trkpt lat="44.87028" lon="5.67474">
        <ele>561.5</ele>
        <time>2023-05-16T11:42:33.747Z</time>
      </trkpt>
      <trkpt lat="44.87029" lon="5.6748">
        <ele>561.6</ele>
        <time>2023-05-16T11:42:35.420Z</time>
      </trkpt>
      <trkpt lat="44.87029" lon="5.67486">
        <ele>562</ele>
        <time>2023-05-16T11:42:37.481Z</time>
      </trkpt>
      <trkpt lat="44.87028" lon="5.67495">
        <ele>563.9</ele>
        <time>2023-05-16T11:42:44.271Z</time>
      </trkpt>
      <trkpt lat="44.87029" lon="5.67505">
        <ele>568.2</ele>
        <time>2023-05-16T11:42:57.665Z</time>
      </trkpt>
      <trkpt lat="44.87031" lon="5.67511">
        <ele>569.2</ele>
        <time>2023-05-16T11:43:01.206Z</time>
      </trkpt>
      <trkpt lat="44.87031" lon="5.67518">
        <ele>570.7</ele>
        <time>2023-05-16T11:43:06.603Z</time>
      </trkpt>
      <trkpt lat="44.87033" lon="5.67522">
        <ele>571.7</ele>
        <time>2023-05-16T11:43:10.161Z</time>
      </trkpt>
      <trkpt lat="44.87036" lon="5.67525">
        <ele>573</ele>
        <time>2023-05-16T11:43:15.106Z</time>
      </trkpt>
      <trkpt lat="44.87037" lon="5.6753">
        <ele>573.8</ele>
        <time>2023-05-16T11:43:17.931Z</time>
      </trkpt>
      <trkpt lat="44.87037" lon="5.67535">
        <ele>575.1</ele>
        <time>2023-05-16T11:43:22.960Z</time>
      </trkpt>
      <trkpt lat="44.87037" lon="5.6754">
        <ele>576.6</ele>
        <time>2023-05-16T11:43:29.167Z</time>
      </trkpt>
      <trkpt lat="44.87037" lon="5.67545">
        <ele>578.1</ele>
        <time>2023-05-16T11:43:35.374Z</time>
      </trkpt>
      <trkpt lat="44.87036" lon="5.67555">
        <ele>579.5</ele>
        <time>2023-05-16T11:43:40.415Z</time>
      </trkpt>
      <trkpt lat="44.87033" lon="5.67563">
        <ele>580.7</ele>
        <time>2023-05-16T11:43:44.787Z</time>
      </trkpt>
      <trkpt lat="44.87034" lon="5.67567">
        <ele>581.1</ele>
        <time>2023-05-16T11:43:46.460Z</time>
      </trkpt>
      <trkpt lat="44.87035" lon="5.67572">
        <ele>581.8</ele>
        <time>2023-05-16T11:43:48.998Z</time>
      </trkpt>
      <trkpt lat="44.87035" lon="5.6758">
        <ele>582.7</ele>
        <time>2023-05-16T11:43:52.467Z</time>
      </trkpt>
      <trkpt lat="44.87037" lon="5.67586">
        <ele>583.2</ele>
        <time>2023-05-16T11:43:54.845Z</time>
      </trkpt>
      <trkpt lat="44.8704" lon="5.6759">
        <ele>583</ele>
        <time>2023-05-16T11:43:56.132Z</time>
      </trkpt>
      <trkpt lat="44.87045" lon="5.6759">
        <ele>583.1</ele>
        <time>2023-05-16T11:43:58.029Z</time>
      </trkpt>
      <trkpt lat="44.87048" lon="5.67589">
        <ele>583.4</ele>
        <time>2023-05-16T11:43:59.540Z</time>
      </trkpt>
      <trkpt lat="44.87051" lon="5.67589">
        <ele>583.6</ele>
        <time>2023-05-16T11:44:00.865Z</time>
      </trkpt>
      <trkpt lat="44.87054" lon="5.6759">
        <ele>584</ele>
        <time>2023-05-16T11:44:02.560Z</time>
      </trkpt>
      <trkpt lat="44.87057" lon="5.67591">
        <ele>584.5</ele>
        <time>2023-05-16T11:44:04.471Z</time>
      </trkpt>
      <trkpt lat="44.87061" lon="5.67596">
        <ele>584.5</ele>
        <time>2023-05-16T11:44:06.376Z</time>
      </trkpt>
      <trkpt lat="44.87064" lon="5.67601">
        <ele>583.1</ele>
        <time>2023-05-16T11:44:07.824Z</time>
      </trkpt>
      <trkpt lat="44.87068" lon="5.67606">
        <ele>581.7</ele>
        <time>2023-05-16T11:44:09.491Z</time>
      </trkpt>
      <trkpt lat="44.87071" lon="5.67608">
        <ele>581.2</ele>
        <time>2023-05-16T11:44:10.525Z</time>
      </trkpt>
      <trkpt lat="44.87074" lon="5.6761">
        <ele>580.9</ele>
        <time>2023-05-16T11:44:11.560Z</time>
      </trkpt>
      <trkpt lat="44.87076" lon="5.67613">
        <ele>580.7</ele>
        <time>2023-05-16T11:44:12.471Z</time>
      </trkpt>
      <trkpt lat="44.87078" lon="5.67618">
        <ele>581</ele>
        <time>2023-05-16T11:44:14.310Z</time>
      </trkpt>
      <trkpt lat="44.87077" lon="5.67624">
        <ele>581.4</ele>
        <time>2023-05-16T11:44:16.409Z</time>
      </trkpt>
      <trkpt lat="44.87077" lon="5.67628">
        <ele>581.7</ele>
        <time>2023-05-16T11:44:17.841Z</time>
      </trkpt>
      <trkpt lat="44.87077" lon="5.67633">
        <ele>581.7</ele>
        <time>2023-05-16T11:44:19.104Z</time>
      </trkpt>
      <trkpt lat="44.87078" lon="5.67638">
        <ele>581.8</ele>
        <time>2023-05-16T11:44:20.533Z</time>
      </trkpt>
      <trkpt lat="44.87077" lon="5.67642">
        <ele>582.2</ele>
        <time>2023-05-16T11:44:22.206Z</time>
      </trkpt>
      <trkpt lat="44.8708" lon="5.67644">
        <ele>582.6</ele>
        <time>2023-05-16T11:44:23.971Z</time>
      </trkpt>
      <trkpt lat="44.87083" lon="5.67642">
        <ele>583.2</ele>
        <time>2023-05-16T11:44:26.179Z</time>
      </trkpt>
      <trkpt lat="44.87086" lon="5.67644">
        <ele>583.9</ele>
        <time>2023-05-16T11:44:28.661Z</time>
      </trkpt>
      <trkpt lat="44.87086" lon="5.67648">
        <ele>584.5</ele>
        <time>2023-05-16T11:44:30.788Z</time>
      </trkpt>
      <trkpt lat="44.87089" lon="5.67648">
        <ele>585.2</ele>
        <time>2023-05-16T11:44:33.243Z</time>
      </trkpt>
      <trkpt lat="44.87087" lon="5.67653">
        <ele>586</ele>
        <time>2023-05-16T11:44:36.120Z</time>
      </trkpt>
      <trkpt lat="44.87082" lon="5.67655">
        <ele>586</ele>
        <time>2023-05-16T11:44:37.973Z</time>
      </trkpt>
      <trkpt lat="44.87079" lon="5.67657">
        <ele>585.8</ele>
        <time>2023-05-16T11:44:39.008Z</time>
      </trkpt>
      <trkpt lat="44.87082" lon="5.6766">
        <ele>585</ele>
        <time>2023-05-16T11:44:40.155Z</time>
      </trkpt>
      <trkpt lat="44.87086" lon="5.67659">
        <ele>584.3</ele>
        <time>2023-05-16T11:44:41.422Z</time>
      </trkpt>
      <trkpt lat="44.87089" lon="5.67659">
        <ele>582.9</ele>
        <time>2023-05-16T11:44:42.357Z</time>
      </trkpt>
      <trkpt lat="44.87092" lon="5.67658">
        <ele>581.2</ele>
        <time>2023-05-16T11:44:43.319Z</time>
      </trkpt>
      <trkpt lat="44.87095" lon="5.67658">
        <ele>579.6</ele>
        <time>2023-05-16T11:44:44.254Z</time>
      </trkpt>
      <trkpt lat="44.87098" lon="5.67658">
        <ele>578.2</ele>
        <time>2023-05-16T11:44:45.190Z</time>
      </trkpt>
      <trkpt lat="44.87101" lon="5.67658">
        <ele>575.1</ele>
        <time>2023-05-16T11:44:46.126Z</time>
      </trkpt>
      <trkpt lat="44.87104" lon="5.67657">
        <ele>572.1</ele>
        <time>2023-05-16T11:44:47.087Z</time>
      </trkpt>
      <trkpt lat="44.87108" lon="5.67654">
        <ele>567.3</ele>
        <time>2023-05-16T11:44:48.500Z</time>
      </trkpt>
      <trkpt lat="44.87111" lon="5.67651">
        <ele>563.6</ele>
        <time>2023-05-16T11:44:49.647Z</time>
      </trkpt>
      <trkpt lat="44.8711" lon="5.67647">
        <ele>560.8</ele>
        <time>2023-05-16T11:44:50.585Z</time>
      </trkpt>
      <trkpt lat="44.87112" lon="5.67644">
        <ele>557.6</ele>
        <time>2023-05-16T11:44:51.495Z</time>
      </trkpt>
      <trkpt lat="44.87115" lon="5.67646">
        <ele>554.2</ele>
        <time>2023-05-16T11:44:52.530Z</time>
      </trkpt>
      <trkpt lat="44.87118" lon="5.67648">
        <ele>550.3</ele>
        <time>2023-05-16T11:44:53.565Z</time>
      </trkpt>
      <trkpt lat="44.87122" lon="5.67649">
        <ele>546.6</ele>
        <time>2023-05-16T11:44:54.832Z</time>
      </trkpt>
      <trkpt lat="44.87125" lon="5.67651">
        <ele>537.7</ele>
        <time>2023-05-16T11:44:55.867Z</time>
      </trkpt>
      <trkpt lat="44.87129" lon="5.67653">
        <ele>536.6</ele>
        <time>2023-05-16T11:44:57.190Z</time>
      </trkpt>
      <trkpt lat="44.87132" lon="5.67654">
        <ele>535.6</ele>
        <time>2023-05-16T11:44:58.152Z</time>
      </trkpt>
      <trkpt lat="44.87135" lon="5.67655">
        <ele>534.9</ele>
        <time>2023-05-16T11:44:59.113Z</time>
      </trkpt>
      <trkpt lat="44.87137" lon="5.67658">
        <ele>534.2</ele>
        <time>2023-05-16T11:45:00.024Z</time>
      </trkpt>
      <trkpt lat="44.8714" lon="5.67658">
        <ele>533.5</ele>
        <time>2023-05-16T11:45:00.959Z</time>
      </trkpt>
      <trkpt lat="44.87143" lon="5.6766">
        <ele>532.8</ele>
        <time>2023-05-16T11:45:01.994Z</time>
      </trkpt>
      <trkpt lat="44.87146" lon="5.67661">
        <ele>531.9</ele>
        <time>2023-05-16T11:45:02.956Z</time>
      </trkpt>
      <trkpt lat="44.87149" lon="5.67663">
        <ele>530.9</ele>
        <time>2023-05-16T11:45:03.990Z</time>
      </trkpt>
      <trkpt lat="44.87152" lon="5.67666">
        <ele>530.3</ele>
        <time>2023-05-16T11:45:05.137Z</time>
      </trkpt>
      <trkpt lat="44.87154" lon="5.67667">
        <ele>529.9</ele>
        <time>2023-05-16T11:45:05.799Z</time>
      </trkpt>
      <trkpt lat="44.87157" lon="5.67669">
        <ele>529.5</ele>
        <time>2023-05-16T11:45:06.834Z</time>
      </trkpt>
      <trkpt lat="44.8716" lon="5.6767">
        <ele>528.9</ele>
        <time>2023-05-16T11:45:07.795Z</time>
      </trkpt>
      <trkpt lat="44.87163" lon="5.67671">
        <ele>528.5</ele>
        <time>2023-05-16T11:45:08.757Z</time>
      </trkpt>
      <trkpt lat="44.87166" lon="5.67672">
        <ele>528</ele>
        <time>2023-05-16T11:45:09.718Z</time>
      </trkpt>
      <trkpt lat="44.87169" lon="5.67673">
        <ele>527.3</ele>
        <time>2023-05-16T11:45:10.680Z</time>
      </trkpt>
      <trkpt lat="44.87172" lon="5.67674">
        <ele>526.5</ele>
        <time>2023-05-16T11:45:11.641Z</time>
      </trkpt>
      <trkpt lat="44.87175" lon="5.67675">
        <ele>526.2</ele>
        <time>2023-05-16T11:45:12.603Z</time>
      </trkpt>
      <trkpt lat="44.87178" lon="5.67677">
        <ele>525.8</ele>
        <time>2023-05-16T11:45:13.638Z</time>
      </trkpt>
      <trkpt lat="44.87181" lon="5.67678">
        <ele>525.4</ele>
        <time>2023-05-16T11:45:14.599Z</time>
      </trkpt>
      <trkpt lat="44.87184" lon="5.67679">
        <ele>525</ele>
        <time>2023-05-16T11:45:15.560Z</time>
      </trkpt>
      <trkpt lat="44.87188" lon="5.6768">
        <ele>524.6</ele>
        <time>2023-05-16T11:45:16.827Z</time>
      </trkpt>
      <trkpt lat="44.87191" lon="5.67682">
        <ele>524.1</ele>
        <time>2023-05-16T11:45:17.862Z</time>
      </trkpt>
      <trkpt lat="44.87194" lon="5.67683">
        <ele>523.8</ele>
        <time>2023-05-16T11:45:18.824Z</time>
      </trkpt>
      <trkpt lat="44.87196" lon="5.67685">
        <ele>523.3</ele>
        <time>2023-05-16T11:45:19.588Z</time>
      </trkpt>
      <trkpt lat="44.87199" lon="5.67686">
        <ele>522.3</ele>
        <time>2023-05-16T11:45:20.550Z</time>
      </trkpt>
      <trkpt lat="44.87203" lon="5.67687">
        <ele>521.3</ele>
        <time>2023-05-16T11:45:21.817Z</time>
      </trkpt>
      <trkpt lat="44.87207" lon="5.67688">
        <ele>520.2</ele>
        <time>2023-05-16T11:45:23.084Z</time>
      </trkpt>
      <trkpt lat="44.87209" lon="5.6769">
        <ele>519.5</ele>
        <time>2023-05-16T11:45:23.848Z</time>
      </trkpt>
      <trkpt lat="44.87212" lon="5.67691">
        <ele>518.8</ele>
        <time>2023-05-16T11:45:24.810Z</time>
      </trkpt>
      <trkpt lat="44.87215" lon="5.67692">
        <ele>518.2</ele>
        <time>2023-05-16T11:45:25.771Z</time>
      </trkpt>
      <trkpt lat="44.87219" lon="5.67694">
        <ele>517.7</ele>
        <time>2023-05-16T11:45:27.095Z</time>
      </trkpt>
      <trkpt lat="44.87222" lon="5.67696">
        <ele>517.2</ele>
        <time>2023-05-16T11:45:28.130Z</time>
      </trkpt>
      <trkpt lat="44.87225" lon="5.67698">
        <ele>516.7</ele>
        <time>2023-05-16T11:45:29.165Z</time>
      </trkpt>
      <trkpt lat="44.87228" lon="5.67699">
        <ele>516.3</ele>
        <time>2023-05-16T11:45:30.126Z</time>
      </trkpt>
      <trkpt lat="44.87231" lon="5.677">
        <ele>515.8</ele>
        <time>2023-05-16T11:45:31.088Z</time>
      </trkpt>
      <trkpt lat="44.87234" lon="5.67701">
        <ele>515.1</ele>
        <time>2023-05-16T11:45:32.049Z</time>
      </trkpt>
      <trkpt lat="44.87238" lon="5.67703">
        <ele>515.6</ele>
        <time>2023-05-16T11:45:34.285Z</time>
      </trkpt>
      <trkpt lat="44.87241" lon="5.67705">
        <ele>517.1</ele>
        <time>2023-05-16T11:45:40.494Z</time>
      </trkpt>
      <trkpt lat="44.87245" lon="5.67707">
        <ele>518.3</ele>
        <time>2023-05-16T11:45:44.748Z</time>
      </trkpt>
      <trkpt lat="44.87248" lon="5.67708">
        <ele>526.2</ele>
        <time>2023-05-16T11:45:50.517Z</time>
      </trkpt>
      <trkpt lat="44.87251" lon="5.67709">
        <ele>523.5</ele>
        <time>2023-05-16T11:45:51.478Z</time>
      </trkpt>
      <trkpt lat="44.87253" lon="5.6771">
        <ele>523</ele>
        <time>2023-05-16T11:45:52.140Z</time>
      </trkpt>
      <trkpt lat="44.87257" lon="5.67712">
        <ele>525.3</ele>
        <time>2023-05-16T11:46:00.082Z</time>
      </trkpt>
      <trkpt lat="44.87259" lon="5.67713">
        <ele>527.3</ele>
        <time>2023-05-16T11:46:04.052Z</time>
      </trkpt>
      <trkpt lat="44.87262" lon="5.67714">
        <ele>528.7</ele>
        <time>2023-05-16T11:46:09.821Z</time>
      </trkpt>
      <trkpt lat="44.87266" lon="5.67715">
        <ele>522.9</ele>
        <time>2023-05-16T11:46:11.088Z</time>
      </trkpt>
      <trkpt lat="44.87269" lon="5.67717">
        <ele>523.4</ele>
        <time>2023-05-16T11:46:13.058Z</time>
      </trkpt>
      <trkpt lat="44.87271" lon="5.67718">
        <ele>523.5</ele>
        <time>2023-05-16T11:46:13.937Z</time>
      </trkpt>
      <trkpt lat="44.87274" lon="5.6772">
        <ele>517</ele>
        <time>2023-05-16T11:46:14.971Z</time>
      </trkpt>
      <trkpt lat="44.87277" lon="5.67722">
        <ele>517.4</ele>
        <time>2023-05-16T11:46:16.737Z</time>
      </trkpt>
      <trkpt lat="44.8728" lon="5.67723">
        <ele>513</ele>
        <time>2023-05-16T11:46:17.698Z</time>
      </trkpt>
      <trkpt lat="44.87284" lon="5.67724">
        <ele>513.9</ele>
        <time>2023-05-16T11:46:20.868Z</time>
      </trkpt>
      <trkpt lat="44.87286" lon="5.67727">
        <ele>514.4</ele>
        <time>2023-05-16T11:46:22.741Z</time>
      </trkpt>
      <trkpt lat="44.87287" lon="5.67732">
        <ele>507.5</ele>
        <time>2023-05-16T11:46:23.889Z</time>
      </trkpt>
      <trkpt lat="44.87289" lon="5.67736">
        <ele>507.9</ele>
        <time>2023-05-16T11:46:25.701Z</time>
      </trkpt>
      <trkpt lat="44.87292" lon="5.67737">
        <ele>508.9</ele>
        <time>2023-05-16T11:46:29.377Z</time>
      </trkpt>
      <trkpt lat="44.87295" lon="5.67736">
        <ele>509.1</ele>
        <time>2023-05-16T11:46:30.730Z</time>
      </trkpt>
      <trkpt lat="44.87298" lon="5.67735">
        <ele>508.4</ele>
        <time>2023-05-16T11:46:31.691Z</time>
      </trkpt>
      <trkpt lat="44.87301" lon="5.67734">
        <ele>506.8</ele>
        <time>2023-05-16T11:46:32.653Z</time>
      </trkpt>
      <trkpt lat="44.87302" lon="5.67729">
        <ele>504.2</ele>
        <time>2023-05-16T11:46:33.801Z</time>
      </trkpt>
      <trkpt lat="44.873" lon="5.67724">
        <ele>502</ele>
        <time>2023-05-16T11:46:35.070Z</time>
      </trkpt>
      <trkpt lat="44.87298" lon="5.6772">
        <ele>499.1</ele>
        <time>2023-05-16T11:46:36.152Z</time>
      </trkpt>
      <trkpt lat="44.87297" lon="5.67716">
        <ele>498.9</ele>
        <time>2023-05-16T11:46:37.090Z</time>
      </trkpt>
      <trkpt lat="44.87296" lon="5.67712">
        <ele>498.7</ele>
        <time>2023-05-16T11:46:38.027Z</time>
      </trkpt>
      <trkpt lat="44.87295" lon="5.67708">
        <ele>498.5</ele>
        <time>2023-05-16T11:46:38.965Z</time>
      </trkpt>
      <trkpt lat="44.87292" lon="5.67705">
        <ele>498.3</ele>
        <time>2023-05-16T11:46:40.112Z</time>
      </trkpt>
      <trkpt lat="44.87291" lon="5.67702">
        <ele>498.1</ele>
        <time>2023-05-16T11:46:40.844Z</time>
      </trkpt>
      <trkpt lat="44.87289" lon="5.67698">
        <ele>497.9</ele>
        <time>2023-05-16T11:46:41.926Z</time>
      </trkpt>
      <trkpt lat="44.87288" lon="5.67694">
        <ele>497.6</ele>
        <time>2023-05-16T11:46:42.864Z</time>
      </trkpt>
      <trkpt lat="44.87286" lon="5.6769">
        <ele>497.5</ele>
        <time>2023-05-16T11:46:43.997Z</time>
      </trkpt>
      <trkpt lat="44.87284" lon="5.67687">
        <ele>497.5</ele>
        <time>2023-05-16T11:46:45.038Z</time>
      </trkpt>
      <trkpt lat="44.87283" lon="5.67682">
        <ele>497.4</ele>
        <time>2023-05-16T11:46:46.247Z</time>
      </trkpt>
      <trkpt lat="44.87282" lon="5.67678">
        <ele>497.4</ele>
        <time>2023-05-16T11:46:47.318Z</time>
      </trkpt>
      <trkpt lat="44.87282" lon="5.67674">
        <ele>497.3</ele>
        <time>2023-05-16T11:46:48.227Z</time>
      </trkpt>
      <trkpt lat="44.87283" lon="5.6767">
        <ele>497.3</ele>
        <time>2023-05-16T11:46:49.298Z</time>
      </trkpt>
      <trkpt lat="44.87287" lon="5.67667">
        <ele>497.2</ele>
        <time>2023-05-16T11:46:50.808Z</time>
      </trkpt>
      <trkpt lat="44.8729" lon="5.67666">
        <ele>497.2</ele>
        <time>2023-05-16T11:46:51.907Z</time>
      </trkpt>
      <trkpt lat="44.87294" lon="5.67666">
        <ele>497.2</ele>
        <time>2023-05-16T11:46:53.333Z</time>
      </trkpt>
      <trkpt lat="44.87298" lon="5.67666">
        <ele>497.2</ele>
        <time>2023-05-16T11:46:54.759Z</time>
      </trkpt>
      <trkpt lat="44.87301" lon="5.67665">
        <ele>497.2</ele>
        <time>2023-05-16T11:46:55.857Z</time>
      </trkpt>
      <trkpt lat="44.87304" lon="5.67664">
        <ele>497.2</ele>
        <time>2023-05-16T11:46:56.956Z</time>
      </trkpt>
      <trkpt lat="44.87307" lon="5.67663">
        <ele>497.2</ele>
        <time>2023-05-16T11:46:58.055Z</time>
      </trkpt>
      <trkpt lat="44.8731" lon="5.67662">
        <ele>497.2</ele>
        <time>2023-05-16T11:46:59.154Z</time>
      </trkpt>
      <trkpt lat="44.87313" lon="5.67661">
        <ele>499.2</ele>
        <time>2023-05-16T11:47:04.923Z</time>
      </trkpt>
      <trkpt lat="44.87316" lon="5.6766">
        <ele>501.1</ele>
        <time>2023-05-16T11:47:10.691Z</time>
      </trkpt>
      <trkpt lat="44.87318" lon="5.67658">
        <ele>504.8</ele>
        <time>2023-05-16T11:47:15.279Z</time>
      </trkpt>
      <trkpt lat="44.87321" lon="5.67655">
        <ele>506.5</ele>
        <time>2023-05-16T11:47:22.160Z</time>
      </trkpt>
      <trkpt lat="44.87324" lon="5.67652">
        <ele>509.3</ele>
        <time>2023-05-16T11:47:29.041Z</time>
      </trkpt>
      <trkpt lat="44.87326" lon="5.6765">
        <ele>508.6</ele>
        <time>2023-05-16T11:47:29.805Z</time>
      </trkpt>
      <trkpt lat="44.87329" lon="5.67653">
        <ele>507.5</ele>
        <time>2023-05-16T11:47:30.952Z</time>
      </trkpt>
      <trkpt lat="44.87332" lon="5.67655">
        <ele>506.7</ele>
        <time>2023-05-16T11:47:31.987Z</time>
      </trkpt>
      <trkpt lat="44.87334" lon="5.67657">
        <ele>505.8</ele>
        <time>2023-05-16T11:47:32.751Z</time>
      </trkpt>
      <trkpt lat="44.87337" lon="5.67658">
        <ele>504.9</ele>
        <time>2023-05-16T11:47:33.713Z</time>
      </trkpt>
      <trkpt lat="44.8734" lon="5.67659">
        <ele>504</ele>
        <time>2023-05-16T11:47:34.674Z</time>
      </trkpt>
      <trkpt lat="44.87344" lon="5.6766">
        <ele>503.3</ele>
        <time>2023-05-16T11:47:35.941Z</time>
      </trkpt>
      <trkpt lat="44.87347" lon="5.67661">
        <ele>502.9</ele>
        <time>2023-05-16T11:47:36.903Z</time>
      </trkpt>
      <trkpt lat="44.87349" lon="5.67662">
        <ele>502.6</ele>
        <time>2023-05-16T11:47:37.565Z</time>
      </trkpt>
      <trkpt lat="44.87354" lon="5.67664">
        <ele>502.2</ele>
        <time>2023-05-16T11:47:39.186Z</time>
      </trkpt>
      <trkpt lat="44.87357" lon="5.67666">
        <ele>501.7</ele>
        <time>2023-05-16T11:47:40.220Z</time>
      </trkpt>
      <trkpt lat="44.8736" lon="5.67667">
        <ele>501.4</ele>
        <time>2023-05-16T11:47:41.182Z</time>
      </trkpt>
      <trkpt lat="44.87364" lon="5.67668">
        <ele>501.8</ele>
        <time>2023-05-16T11:47:43.181Z</time>
      </trkpt>
      <trkpt lat="44.87367" lon="5.67669">
        <ele>502.2</ele>
        <time>2023-05-16T11:47:44.876Z</time>
      </trkpt>
      <trkpt lat="44.8737" lon="5.67671">
        <ele>502</ele>
        <time>2023-05-16T11:47:45.911Z</time>
      </trkpt>
      <trkpt lat="44.87373" lon="5.67671">
        <ele>501.6</ele>
        <time>2023-05-16T11:47:46.847Z</time>
      </trkpt>
      <trkpt lat="44.87376" lon="5.67672">
        <ele>501</ele>
        <time>2023-05-16T11:47:47.808Z</time>
      </trkpt>
      <trkpt lat="44.8738" lon="5.67674">
        <ele>500.5</ele>
        <time>2023-05-16T11:47:49.132Z</time>
      </trkpt>
      <trkpt lat="44.87383" lon="5.67675">
        <ele>500.1</ele>
        <time>2023-05-16T11:47:50.093Z</time>
      </trkpt>
      <trkpt lat="44.87385" lon="5.67678">
        <ele>499.7</ele>
        <time>2023-05-16T11:47:51.004Z</time>
      </trkpt>
      <trkpt lat="44.87388" lon="5.67681">
        <ele>500.1</ele>
        <time>2023-05-16T11:47:52.880Z</time>
      </trkpt>
      <trkpt lat="44.87392" lon="5.67682">
        <ele>500.6</ele>
        <time>2023-05-16T11:47:55.061Z</time>
      </trkpt>
      <trkpt lat="44.87397" lon="5.67683">
        <ele>500.4</ele>
        <time>2023-05-16T11:47:56.659Z</time>
      </trkpt>
      <trkpt lat="44.874" lon="5.67684">
        <ele>499.9</ele>
        <time>2023-05-16T11:47:57.621Z</time>
      </trkpt>
      <trkpt lat="44.87404" lon="5.67686">
        <ele>499.3</ele>
        <time>2023-05-16T11:47:58.944Z</time>
      </trkpt>
      <trkpt lat="44.87407" lon="5.67687">
        <ele>498.7</ele>
        <time>2023-05-16T11:47:59.906Z</time>
      </trkpt>
      <trkpt lat="44.87412" lon="5.67689">
        <ele>497.8</ele>
        <time>2023-05-16T11:48:01.526Z</time>
      </trkpt>
      <trkpt lat="44.87416" lon="5.67691">
        <ele>497.2</ele>
        <time>2023-05-16T11:48:02.850Z</time>
      </trkpt>
      <trkpt lat="44.87419" lon="5.67692">
        <ele>496.7</ele>
        <time>2023-05-16T11:48:03.812Z</time>
      </trkpt>
      <trkpt lat="44.87423" lon="5.67694">
        <ele>496</ele>
        <time>2023-05-16T11:48:05.135Z</time>
      </trkpt>
      <trkpt lat="44.87427" lon="5.67695">
        <ele>495.3</ele>
        <time>2023-05-16T11:48:06.402Z</time>
      </trkpt>
      <trkpt lat="44.87432" lon="5.67697">
        <ele>494.5</ele>
        <time>2023-05-16T11:48:08.023Z</time>
      </trkpt>
      <trkpt lat="44.87436" lon="5.67698">
        <ele>494</ele>
        <time>2023-05-16T11:48:09.290Z</time>
      </trkpt>
      <trkpt lat="44.87439" lon="5.67699">
        <ele>493.5</ele>
        <time>2023-05-16T11:48:10.252Z</time>
      </trkpt>
      <trkpt lat="44.87443" lon="5.677">
        <ele>493.7</ele>
        <time>2023-05-16T11:48:11.945Z</time>
      </trkpt>
      <trkpt lat="44.87448" lon="5.67701">
        <ele>494.6</ele>
        <time>2023-05-16T11:48:15.271Z</time>
      </trkpt>
      <trkpt lat="44.87453" lon="5.67702">
        <ele>495.6</ele>
        <time>2023-05-16T11:48:18.862Z</time>
      </trkpt>
      <trkpt lat="44.87457" lon="5.67703">
        <ele>496.6</ele>
        <time>2023-05-16T11:48:22.363Z</time>
      </trkpt>
      <trkpt lat="44.87461" lon="5.67703">
        <ele>497.4</ele>
        <time>2023-05-16T11:48:25.230Z</time>
      </trkpt>
      <trkpt lat="44.87464" lon="5.67702">
        <ele>498</ele>
        <time>2023-05-16T11:48:27.393Z</time>
      </trkpt>
      <trkpt lat="44.87469" lon="5.67702">
        <ele>498.9</ele>
        <time>2023-05-16T11:48:30.709Z</time>
      </trkpt>
      <trkpt lat="44.87473" lon="5.67701">
        <ele>499.7</ele>
        <time>2023-05-16T11:48:33.585Z</time>
      </trkpt>
      <trkpt lat="44.87477" lon="5.677">
        <ele>500.9</ele>
        <time>2023-05-16T11:48:37.877Z</time>
      </trkpt>
      <trkpt lat="44.87481" lon="5.677">
        <ele>502</ele>
        <time>2023-05-16T11:48:41.760Z</time>
      </trkpt>
      <trkpt lat="44.87485" lon="5.67699">
        <ele>503.2</ele>
        <time>2023-05-16T11:48:46.052Z</time>
      </trkpt>
      <trkpt lat="44.87488" lon="5.67698">
        <ele>504.1</ele>
        <time>2023-05-16T11:48:49.263Z</time>
      </trkpt>
      <trkpt lat="44.87491" lon="5.67698">
        <ele>505.6</ele>
        <time>2023-05-16T11:48:54.877Z</time>
      </trkpt>
      <trkpt lat="44.87494" lon="5.67698">
        <ele>507.9</ele>
        <time>2023-05-16T11:49:00.491Z</time>
      </trkpt>
      <trkpt lat="44.87499" lon="5.67697">
        <ele>512.1</ele>
        <time>2023-05-16T11:49:09.941Z</time>
      </trkpt>
      <trkpt lat="44.87504" lon="5.67696">
        <ele>514.3</ele>
        <time>2023-05-16T11:49:19.150Z</time>
      </trkpt>
      <trkpt lat="44.87509" lon="5.67697">
        <ele>513.3</ele>
        <time>2023-05-16T11:49:20.725Z</time>
      </trkpt>
      <trkpt lat="44.87513" lon="5.677">
        <ele>515.3</ele>
        <time>2023-05-16T11:49:29.136Z</time>
      </trkpt>
      <trkpt lat="44.87517" lon="5.67702">
        <ele>514.6</ele>
        <time>2023-05-16T11:49:30.460Z</time>
      </trkpt>
      <trkpt lat="44.87521" lon="5.67702">
        <ele>516</ele>
        <time>2023-05-16T11:49:35.762Z</time>
      </trkpt>
      <trkpt lat="44.87526" lon="5.67703">
        <ele>518</ele>
        <time>2023-05-16T11:49:43.789Z</time>
      </trkpt>
      <trkpt lat="44.8753" lon="5.67704">
        <ele>519.4</ele>
        <time>2023-05-16T11:49:49.056Z</time>
      </trkpt>
      <trkpt lat="44.87533" lon="5.67704">
        <ele>520.7</ele>
        <time>2023-05-16T11:49:54.487Z</time>
      </trkpt>
      <trkpt lat="44.87536" lon="5.67705">
        <ele>522</ele>
        <time>2023-05-16T11:49:59.858Z</time>
      </trkpt>
      <trkpt lat="44.87539" lon="5.67706">
        <ele>521.9</ele>
        <time>2023-05-16T11:50:00.854Z</time>
      </trkpt>
      <trkpt lat="44.87542" lon="5.67707">
        <ele>523.2</ele>
        <time>2023-05-16T11:50:06.225Z</time>
      </trkpt>
      <trkpt lat="44.87546" lon="5.67707">
        <ele>524.5</ele>
        <time>2023-05-16T11:50:11.007Z</time>
      </trkpt>
      <trkpt lat="44.87549" lon="5.67707">
        <ele>526.3</ele>
        <time>2023-05-16T11:50:16.621Z</time>
      </trkpt>
      <trkpt lat="44.87552" lon="5.67706">
        <ele>527.6</ele>
        <time>2023-05-16T11:50:21.992Z</time>
      </trkpt>
      <trkpt lat="44.87557" lon="5.67707">
        <ele>528.9</ele>
        <time>2023-05-16T11:50:26.550Z</time>
      </trkpt>
      <trkpt lat="44.8756" lon="5.67708">
        <ele>530.2</ele>
        <time>2023-05-16T11:50:31.921Z</time>
      </trkpt>
      <trkpt lat="44.87564" lon="5.67709">
        <ele>531.4</ele>
        <time>2023-05-16T11:50:36.213Z</time>
      </trkpt>
      <trkpt lat="44.87567" lon="5.67711">
        <ele>532.5</ele>
        <time>2023-05-16T11:50:40.289Z</time>
      </trkpt>
      <trkpt lat="44.8758" lon="5.67715">
        <ele>532.6</ele>
        <time>2023-05-16T11:50:45.143Z</time>
      </trkpt>
      <trkpt lat="44.87588" lon="5.67717">
        <ele>532.5</ele>
        <time>2023-05-16T11:50:47.932Z</time>
      </trkpt>
      <trkpt lat="44.87594" lon="5.67719">
        <ele>530</ele>
        <time>2023-05-16T11:50:49.855Z</time>
      </trkpt>
      <trkpt lat="44.876" lon="5.67722">
        <ele>529.6</ele>
        <time>2023-05-16T11:50:51.841Z</time>
      </trkpt>
      <trkpt lat="44.87606" lon="5.67724">
        <ele>527</ele>
        <time>2023-05-16T11:50:53.764Z</time>
      </trkpt>
      <trkpt lat="44.87611" lon="5.67724">
        <ele>527.6</ele>
        <time>2023-05-16T11:50:56.418Z</time>
      </trkpt>
      <trkpt lat="44.87617" lon="5.67725">
        <ele>528.7</ele>
        <time>2023-05-16T11:51:00.457Z</time>
      </trkpt>
      <trkpt lat="44.87621" lon="5.67724">
        <ele>529.8</ele>
        <time>2023-05-16T11:51:04.332Z</time>
      </trkpt>
      <trkpt lat="44.87626" lon="5.67725">
        <ele>531.2</ele>
        <time>2023-05-16T11:51:09.278Z</time>
      </trkpt>
      <trkpt lat="44.87633" lon="5.67725">
        <ele>532.7</ele>
        <time>2023-05-16T11:51:14.585Z</time>
      </trkpt>
      <trkpt lat="44.8764" lon="5.67725">
        <ele>534.2</ele>
        <time>2023-05-16T11:51:19.892Z</time>
      </trkpt>
      <trkpt lat="44.87645" lon="5.67725">
        <ele>535.5</ele>
        <time>2023-05-16T11:51:24.453Z</time>
      </trkpt>
      <trkpt lat="44.87651" lon="5.67724">
        <ele>536.8</ele>
        <time>2023-05-16T11:51:29.050Z</time>
      </trkpt>
      <trkpt lat="44.87656" lon="5.67723">
        <ele>537.8</ele>
        <time>2023-05-16T11:51:32.641Z</time>
      </trkpt>
      <trkpt lat="44.87662" lon="5.67722">
        <ele>540.9</ele>
        <time>2023-05-16T11:51:43.947Z</time>
      </trkpt>
      <trkpt lat="44.87668" lon="5.67721">
        <ele>541.5</ele>
        <time>2023-05-16T11:51:46.929Z</time>
      </trkpt>
      <trkpt lat="44.87672" lon="5.67718">
        <ele>544.5</ele>
        <time>2023-05-16T11:51:55.406Z</time>
      </trkpt>
      <trkpt lat="44.87677" lon="5.67717">
        <ele>545</ele>
        <time>2023-05-16T11:51:57.896Z</time>
      </trkpt>
      <trkpt lat="44.87682" lon="5.67716">
        <ele>545.7</ele>
        <time>2023-05-16T11:52:00.764Z</time>
      </trkpt>
      <trkpt lat="44.87688" lon="5.67716">
        <ele>546.3</ele>
        <time>2023-05-16T11:52:03.733Z</time>
      </trkpt>
      <trkpt lat="44.87691" lon="5.67716">
        <ele>547</ele>
        <time>2023-05-16T11:52:06.188Z</time>
      </trkpt>
      <trkpt lat="44.87698" lon="5.67715">
        <ele>547.5</ele>
        <time>2023-05-16T11:52:09.340Z</time>
      </trkpt>
      <trkpt lat="44.87702" lon="5.67715">
        <ele>547.9</ele>
        <time>2023-05-16T11:52:11.319Z</time>
      </trkpt>
      <trkpt lat="44.87706" lon="5.67716">
        <ele>548.4</ele>
        <time>2023-05-16T11:52:13.500Z</time>
      </trkpt>
      <trkpt lat="44.8771" lon="5.67715">
        <ele>548.5</ele>
        <time>2023-05-16T11:52:15.064Z</time>
      </trkpt>
      <trkpt lat="44.87713" lon="5.67715">
        <ele>548.8</ele>
        <time>2023-05-16T11:52:16.549Z</time>
      </trkpt>
      <trkpt lat="44.8772" lon="5.67713">
        <ele>550.9</ele>
        <time>2023-05-16T11:52:24.052Z</time>
      </trkpt>
      <trkpt lat="44.87733" lon="5.67712">
        <ele>549.5</ele>
        <time>2023-05-16T11:52:28.113Z</time>
      </trkpt>
      <trkpt lat="44.8774" lon="5.6771">
        <ele>551.8</ele>
        <time>2023-05-16T11:52:36.546Z</time>
      </trkpt>
      <trkpt lat="44.87746" lon="5.67709">
        <ele>551.7</ele>
        <time>2023-05-16T11:52:38.594Z</time>
      </trkpt>
      <trkpt lat="44.87752" lon="5.67708">
        <ele>551.6</ele>
        <time>2023-05-16T11:52:40.642Z</time>
      </trkpt>
      <trkpt lat="44.8776" lon="5.67709">
        <ele>551.2</ele>
        <time>2023-05-16T11:52:43.147Z</time>
      </trkpt>
      <trkpt lat="44.87765" lon="5.67707">
        <ele>551.3</ele>
        <time>2023-05-16T11:52:45.114Z</time>
      </trkpt>
      <trkpt lat="44.87771" lon="5.67706">
        <ele>551.5</ele>
        <time>2023-05-16T11:52:47.503Z</time>
      </trkpt>
      <trkpt lat="44.87775" lon="5.67704">
        <ele>553.9</ele>
        <time>2023-05-16T11:52:55.445Z</time>
      </trkpt>
      <trkpt lat="44.8778" lon="5.67704">
        <ele>554.4</ele>
        <time>2023-05-16T11:52:57.919Z</time>
      </trkpt>
      <trkpt lat="44.87784" lon="5.67702">
        <ele>554.7</ele>
        <time>2023-05-16T11:52:59.818Z</time>
      </trkpt>
      <trkpt lat="44.8779" lon="5.67701">
        <ele>556.9</ele>
        <time>2023-05-16T11:53:08.299Z</time>
      </trkpt>
      <trkpt lat="44.87796" lon="5.67701">
        <ele>557.5</ele>
        <time>2023-05-16T11:53:11.268Z</time>
      </trkpt>
      <trkpt lat="44.87802" lon="5.67701">
        <ele>556.1</ele>
        <time>2023-05-16T11:53:13.139Z</time>
      </trkpt>
      <trkpt lat="44.87808" lon="5.67701">
        <ele>558.4</ele>
        <time>2023-05-16T11:53:22.225Z</time>
      </trkpt>
      <trkpt lat="44.87813" lon="5.677">
        <ele>559.1</ele>
        <time>2023-05-16T11:53:25.093Z</time>
      </trkpt>
      <trkpt lat="44.87819" lon="5.677">
        <ele>559.6</ele>
        <time>2023-05-16T11:53:27.896Z</time>
      </trkpt>
      <trkpt lat="44.87825" lon="5.67699">
        <ele>560.1</ele>
        <time>2023-05-16T11:53:30.712Z</time>
      </trkpt>
      <trkpt lat="44.8783" lon="5.67698">
        <ele>560.5</ele>
        <time>2023-05-16T11:53:33.038Z</time>
      </trkpt>
      <trkpt lat="44.87834" lon="5.67698">
        <ele>561.1</ele>
        <time>2023-05-16T11:53:35.407Z</time>
      </trkpt>
      <trkpt lat="44.8784" lon="5.67698">
        <ele>561.3</ele>
        <time>2023-05-16T11:53:37.782Z</time>
      </trkpt>
      <trkpt lat="44.87844" lon="5.67697">
        <ele>563.3</ele>
        <time>2023-05-16T11:53:45.384Z</time>
      </trkpt>
      <trkpt lat="44.87848" lon="5.67696">
        <ele>563.8</ele>
        <time>2023-05-16T11:53:47.565Z</time>
      </trkpt>
      <trkpt lat="44.87852" lon="5.67696">
        <ele>564.3</ele>
        <time>2023-05-16T11:53:49.727Z</time>
      </trkpt>
      <trkpt lat="44.87857" lon="5.67695">
        <ele>564.6</ele>
        <time>2023-05-16T11:53:51.904Z</time>
      </trkpt>
      <trkpt lat="44.87861" lon="5.67695">
        <ele>565.1</ele>
        <time>2023-05-16T11:53:54.066Z</time>
      </trkpt>
      <trkpt lat="44.87868" lon="5.67694">
        <ele>565.2</ele>
        <time>2023-05-16T11:53:56.687Z</time>
      </trkpt>
      <trkpt lat="44.87874" lon="5.67694">
        <ele>565.2</ele>
        <time>2023-05-16T11:53:58.826Z</time>
      </trkpt>
      <trkpt lat="44.87882" lon="5.67691">
        <ele>568</ele>
        <time>2023-05-16T11:54:09.282Z</time>
      </trkpt>
      <trkpt lat="44.87887" lon="5.67689">
        <ele>568.3</ele>
        <time>2023-05-16T11:54:11.509Z</time>
      </trkpt>
      <trkpt lat="44.87894" lon="5.67688">
        <ele>571.2</ele>
        <time>2023-05-16T11:54:23.369Z</time>
      </trkpt>
      <trkpt lat="44.87901" lon="5.67686">
        <ele>571.5</ele>
        <time>2023-05-16T11:54:26.276Z</time>
      </trkpt>
      <trkpt lat="44.87907" lon="5.67684">
        <ele>574.4</ele>
        <time>2023-05-16T11:54:37.813Z</time>
      </trkpt>
      <trkpt lat="44.87914" lon="5.67682">
        <ele>574.2</ele>
        <time>2023-05-16T11:54:40.152Z</time>
      </trkpt>
      <trkpt lat="44.8792" lon="5.6768">
        <ele>574.1</ele>
        <time>2023-05-16T11:54:42.244Z</time>
      </trkpt>
      <trkpt lat="44.87928" lon="5.67681">
        <ele>573.8</ele>
        <time>2023-05-16T11:54:44.802Z</time>
      </trkpt>
      <trkpt lat="44.87933" lon="5.67677">
        <ele>576.4</ele>
        <time>2023-05-16T11:54:55.558Z</time>
      </trkpt>
      <trkpt lat="44.87939" lon="5.67674">
        <ele>579.1</ele>
        <time>2023-05-16T11:55:06.740Z</time>
      </trkpt>
      <trkpt lat="44.87945" lon="5.67671">
        <ele>579.7</ele>
        <time>2023-05-16T11:55:09.827Z</time>
      </trkpt>
      <trkpt lat="44.8795" lon="5.67669">
        <ele>579.8</ele>
        <time>2023-05-16T11:55:11.794Z</time>
      </trkpt>
      <trkpt lat="44.87955" lon="5.67668">
        <ele>581</ele>
        <time>2023-05-16T11:55:15.999Z</time>
      </trkpt>
      <trkpt lat="44.8796" lon="5.67665">
        <ele>581.8</ele>
        <time>2023-05-16T11:55:19.184Z</time>
      </trkpt>
      <trkpt lat="44.87965" lon="5.67662">
        <ele>581.9</ele>
        <time>2023-05-16T11:55:21.235Z</time>
      </trkpt>
      <trkpt lat="44.87969" lon="5.67658">
        <ele>582.8</ele>
        <time>2023-05-16T11:55:24.531Z</time>
      </trkpt>
      <trkpt lat="44.87972" lon="5.67654">
        <ele>583.6</ele>
        <time>2023-05-16T11:55:27.418Z</time>
      </trkpt>
      <trkpt lat="44.87976" lon="5.67652">
        <ele>583.7</ele>
        <time>2023-05-16T11:55:29.046Z</time>
      </trkpt>
      <trkpt lat="44.87978" lon="5.67649">
        <ele>583.6</ele>
        <time>2023-05-16T11:55:29.985Z</time>
      </trkpt>
      <trkpt lat="44.87982" lon="5.67644">
        <ele>583.6</ele>
        <time>2023-05-16T11:55:31.889Z</time>
      </trkpt>
      <trkpt lat="44.87984" lon="5.67641">
        <ele>583.7</ele>
        <time>2023-05-16T11:55:33.048Z</time>
      </trkpt>
      <trkpt lat="44.87986" lon="5.67639">
        <ele>583.9</ele>
        <time>2023-05-16T11:55:34.186Z</time>
      </trkpt>
      <trkpt lat="44.8799" lon="5.67635">
        <ele>585</ele>
        <time>2023-05-16T11:55:38.056Z</time>
      </trkpt>
      <trkpt lat="44.87992" lon="5.67633">
        <ele>585.8</ele>
        <time>2023-05-16T11:55:41.003Z</time>
      </trkpt>
      <trkpt lat="44.87996" lon="5.67631">
        <ele>586</ele>
        <time>2023-05-16T11:55:42.759Z</time>
      </trkpt>
      <trkpt lat="44.88" lon="5.6763">
        <ele>585.7</ele>
        <time>2023-05-16T11:55:44.026Z</time>
      </trkpt>
      <trkpt lat="44.88004" lon="5.67629">
        <ele>585</ele>
        <time>2023-05-16T11:55:45.293Z</time>
      </trkpt>
      <trkpt lat="44.88009" lon="5.67627">
        <ele>584.2</ele>
        <time>2023-05-16T11:55:46.914Z</time>
      </trkpt>
      <trkpt lat="44.88012" lon="5.67625">
        <ele>583.8</ele>
        <time>2023-05-16T11:55:47.949Z</time>
      </trkpt>
      <trkpt lat="44.88015" lon="5.67623">
        <ele>583.7</ele>
        <time>2023-05-16T11:55:49.029Z</time>
      </trkpt>
      <trkpt lat="44.88018" lon="5.67622">
        <ele>583.5</ele>
        <time>2023-05-16T11:55:49.990Z</time>
      </trkpt>
      <trkpt lat="44.88023" lon="5.67618">
        <ele>583.2</ele>
        <time>2023-05-16T11:55:51.783Z</time>
      </trkpt>
      <trkpt lat="44.88027" lon="5.67616">
        <ele>583</ele>
        <time>2023-05-16T11:55:53.107Z</time>
      </trkpt>
      <trkpt lat="44.88031" lon="5.67613">
        <ele>582.7</ele>
        <time>2023-05-16T11:55:54.519Z</time>
      </trkpt>
      <trkpt lat="44.88038" lon="5.6761">
        <ele>582.5</ele>
        <time>2023-05-16T11:55:56.920Z</time>
      </trkpt>
      <trkpt lat="44.88042" lon="5.67608">
        <ele>582.4</ele>
        <time>2023-05-16T11:55:58.328Z</time>
      </trkpt>
      <trkpt lat="44.88048" lon="5.67605">
        <ele>582.1</ele>
        <time>2023-05-16T11:56:00.314Z</time>
      </trkpt>
      <trkpt lat="44.88054" lon="5.67601">
        <ele>581.8</ele>
        <time>2023-05-16T11:56:02.383Z</time>
      </trkpt>
      <trkpt lat="44.88059" lon="5.67598">
        <ele>581.6</ele>
        <time>2023-05-16T11:56:04.117Z</time>
      </trkpt>
      <trkpt lat="44.88065" lon="5.67596">
        <ele>581.2</ele>
        <time>2023-05-16T11:56:06.040Z</time>
      </trkpt>
      <trkpt lat="44.88071" lon="5.67593">
        <ele>580.6</ele>
        <time>2023-05-16T11:56:08.025Z</time>
      </trkpt>
      <trkpt lat="44.88076" lon="5.67591">
        <ele>579.8</ele>
        <time>2023-05-16T11:56:09.646Z</time>
      </trkpt>
      <trkpt lat="44.88081" lon="5.67589">
        <ele>579.1</ele>
        <time>2023-05-16T11:56:11.267Z</time>
      </trkpt>
      <trkpt lat="44.88086" lon="5.67587">
        <ele>578.6</ele>
        <time>2023-05-16T11:56:12.888Z</time>
      </trkpt>
      <trkpt lat="44.8809" lon="5.67585">
        <ele>578.2</ele>
        <time>2023-05-16T11:56:14.212Z</time>
      </trkpt>
      <trkpt lat="44.88095" lon="5.67582">
        <ele>577.8</ele>
        <time>2023-05-16T11:56:15.906Z</time>
      </trkpt>
      <trkpt lat="44.881" lon="5.6758">
        <ele>576.7</ele>
        <time>2023-05-16T11:56:17.527Z</time>
      </trkpt>
      <trkpt lat="44.88106" lon="5.67578">
        <ele>575.4</ele>
        <time>2023-05-16T11:56:19.450Z</time>
      </trkpt>
      <trkpt lat="44.88112" lon="5.67575">
        <ele>574.4</ele>
        <time>2023-05-16T11:56:21.435Z</time>
      </trkpt>
      <trkpt lat="44.88116" lon="5.67573">
        <ele>573.2</ele>
        <time>2023-05-16T11:56:22.759Z</time>
      </trkpt>
      <trkpt lat="44.88123" lon="5.67573">
        <ele>572.2</ele>
        <time>2023-05-16T11:56:24.942Z</time>
      </trkpt>
      <trkpt lat="44.88131" lon="5.67573">
        <ele>571.1</ele>
        <time>2023-05-16T11:56:27.437Z</time>
      </trkpt>
      <trkpt lat="44.88139" lon="5.67571">
        <ele>569</ele>
        <time>2023-05-16T11:56:29.971Z</time>
      </trkpt>
      <trkpt lat="44.88148" lon="5.67569">
        <ele>567.1</ele>
        <time>2023-05-16T11:56:32.813Z</time>
      </trkpt>
      <trkpt lat="44.88157" lon="5.67569">
        <ele>565.3</ele>
        <time>2023-05-16T11:56:35.620Z</time>
      </trkpt>
      <trkpt lat="44.88167" lon="5.67569">
        <ele>563.8</ele>
        <time>2023-05-16T11:56:38.739Z</time>
      </trkpt>
      <trkpt lat="44.88177" lon="5.67569">
        <ele>561.8</ele>
        <time>2023-05-16T11:56:41.858Z</time>
      </trkpt>
      <trkpt lat="44.88188" lon="5.67567">
        <ele>560</ele>
        <time>2023-05-16T11:56:45.317Z</time>
      </trkpt>
      <trkpt lat="44.882" lon="5.67566">
        <ele>558.5</ele>
        <time>2023-05-16T11:56:49.067Z</time>
      </trkpt>
      <trkpt lat="44.88213" lon="5.67564">
        <ele>557.4</ele>
        <time>2023-05-16T11:56:53.145Z</time>
      </trkpt>
      <trkpt lat="44.88224" lon="5.67563">
        <ele>555.4</ele>
        <time>2023-05-16T11:56:56.583Z</time>
      </trkpt>
      <trkpt lat="44.88237" lon="5.67563">
        <ele>553.8</ele>
        <time>2023-05-16T11:57:00.638Z</time>
      </trkpt>
      <trkpt lat="44.88248" lon="5.67563">
        <ele>552.1</ele>
        <time>2023-05-16T11:57:04.069Z</time>
      </trkpt>
      <trkpt lat="44.8826" lon="5.67562">
        <ele>551.1</ele>
        <time>2023-05-16T11:57:07.818Z</time>
      </trkpt>
      <trkpt lat="44.88272" lon="5.67561">
        <ele>550</ele>
        <time>2023-05-16T11:57:11.568Z</time>
      </trkpt>
      <trkpt lat="44.88284" lon="5.67559">
        <ele>548.8</ele>
        <time>2023-05-16T11:57:15.336Z</time>
      </trkpt>
      <trkpt lat="44.88296" lon="5.67555">
        <ele>548.4</ele>
        <time>2023-05-16T11:57:19.322Z</time>
      </trkpt>
      <trkpt lat="44.88307" lon="5.6755">
        <ele>548</ele>
        <time>2023-05-16T11:57:23.033Z</time>
      </trkpt>
      <trkpt lat="44.88315" lon="5.67542">
        <ele>547.8</ele>
        <time>2023-05-16T11:57:26.318Z</time>
      </trkpt>
      <trkpt lat="44.88324" lon="5.67534">
        <ele>547.6</ele>
        <time>2023-05-16T11:57:29.898Z</time>
      </trkpt>
      <trkpt lat="44.88331" lon="5.67527">
        <ele>547.3</ele>
        <time>2023-05-16T11:57:32.651Z</time>
      </trkpt>
      <trkpt lat="44.88339" lon="5.67519">
        <ele>546.7</ele>
        <time>2023-05-16T11:57:35.709Z</time>
      </trkpt>
      <trkpt lat="44.88346" lon="5.67511">
        <ele>545.7</ele>
        <time>2023-05-16T11:57:38.518Z</time>
      </trkpt>
      <trkpt lat="44.88354" lon="5.67505">
        <ele>544.8</ele>
        <time>2023-05-16T11:57:41.344Z</time>
      </trkpt>
      <trkpt lat="44.88361" lon="5.675">
        <ele>544.3</ele>
        <time>2023-05-16T11:57:43.791Z</time>
      </trkpt>
      <trkpt lat="44.8837" lon="5.67495">
        <ele>543.9</ele>
        <time>2023-05-16T11:57:46.836Z</time>
      </trkpt>
      <trkpt lat="44.8838" lon="5.67492">
        <ele>543.7</ele>
        <time>2023-05-16T11:57:50.270Z</time>
      </trkpt>
      <trkpt lat="44.88388" lon="5.6749">
        <ele>543.5</ele>
        <time>2023-05-16T11:57:52.958Z</time>
      </trkpt>
      <trkpt lat="44.88396" lon="5.67489">
        <ele>543.4</ele>
        <time>2023-05-16T11:57:55.714Z</time>
      </trkpt>
      <trkpt lat="44.88404" lon="5.67488">
        <ele>543.3</ele>
        <time>2023-05-16T11:57:58.469Z</time>
      </trkpt>
      <trkpt lat="44.88413" lon="5.67486">
        <ele>543.1</ele>
        <time>2023-05-16T11:58:01.508Z</time>
      </trkpt>
      <trkpt lat="44.88421" lon="5.67484">
        <ele>542.9</ele>
        <time>2023-05-16T11:58:04.195Z</time>
      </trkpt>
      <trkpt lat="44.88429" lon="5.67481">
        <ele>542.7</ele>
        <time>2023-05-16T11:58:06.938Z</time>
      </trkpt>
      <trkpt lat="44.88437" lon="5.67479">
        <ele>542.5</ele>
        <time>2023-05-16T11:58:09.625Z</time>
      </trkpt>
      <trkpt lat="44.88445" lon="5.67478">
        <ele>542.3</ele>
        <time>2023-05-16T11:58:12.280Z</time>
      </trkpt>
      <trkpt lat="44.88452" lon="5.67476">
        <ele>541.6</ele>
        <time>2023-05-16T11:58:14.508Z</time>
      </trkpt>
      <trkpt lat="44.8846" lon="5.67474">
        <ele>541</ele>
        <time>2023-05-16T11:58:17.042Z</time>
      </trkpt>
      <trkpt lat="44.88467" lon="5.67473">
        <ele>540.8</ele>
        <time>2023-05-16T11:58:19.343Z</time>
      </trkpt>
      <trkpt lat="44.88474" lon="5.67471">
        <ele>540.6</ele>
        <time>2023-05-16T11:58:21.682Z</time>
      </trkpt>
      <trkpt lat="44.88481" lon="5.67469">
        <ele>540.4</ele>
        <time>2023-05-16T11:58:24.021Z</time>
      </trkpt>
      <trkpt lat="44.88488" lon="5.67467">
        <ele>540.2</ele>
        <time>2023-05-16T11:58:26.360Z</time>
      </trkpt>
      <trkpt lat="44.88494" lon="5.67464">
        <ele>540.1</ele>
        <time>2023-05-16T11:58:28.523Z</time>
      </trkpt>
      <trkpt lat="44.88501" lon="5.67462">
        <ele>540</ele>
        <time>2023-05-16T11:58:30.962Z</time>
      </trkpt>
      <trkpt lat="44.88507" lon="5.67459">
        <ele>539.8</ele>
        <time>2023-05-16T11:58:33.026Z</time>
      </trkpt>
      <trkpt lat="44.88513" lon="5.67454">
        <ele>539.7</ele>
        <time>2023-05-16T11:58:35.403Z</time>
      </trkpt>
      <trkpt lat="44.88519" lon="5.67449">
        <ele>539.6</ele>
        <time>2023-05-16T11:58:37.780Z</time>
      </trkpt>
      <trkpt lat="44.88523" lon="5.67444">
        <ele>539.5</ele>
        <time>2023-05-16T11:58:39.580Z</time>
      </trkpt>
      <trkpt lat="44.88528" lon="5.67439">
        <ele>539.4</ele>
        <time>2023-05-16T11:58:41.658Z</time>
      </trkpt>
      <trkpt lat="44.88534" lon="5.67435">
        <ele>539.3</ele>
        <time>2023-05-16T11:58:43.917Z</time>
      </trkpt>
      <trkpt lat="44.8854" lon="5.67433">
        <ele>539.1</ele>
        <time>2023-05-16T11:58:45.910Z</time>
      </trkpt>
      <trkpt lat="44.88548" lon="5.67431">
        <ele>539</ele>
        <time>2023-05-16T11:58:48.699Z</time>
      </trkpt>
      <trkpt lat="44.88555" lon="5.67429">
        <ele>538.9</ele>
        <time>2023-05-16T11:58:51.138Z</time>
      </trkpt>
      <trkpt lat="44.88561" lon="5.67428">
        <ele>538.8</ele>
        <time>2023-05-16T11:58:53.186Z</time>
      </trkpt>
      <trkpt lat="44.88569" lon="5.67427">
        <ele>538.7</ele>
        <time>2023-05-16T11:58:55.942Z</time>
      </trkpt>
      <trkpt lat="44.88577" lon="5.67426">
        <ele>538.6</ele>
        <time>2023-05-16T11:58:58.698Z</time>
      </trkpt>
      <trkpt lat="44.88585" lon="5.67425">
        <ele>538.3</ele>
        <time>2023-05-16T11:59:01.256Z</time>
      </trkpt>
      <trkpt lat="44.88594" lon="5.67423">
        <ele>538</ele>
        <time>2023-05-16T11:59:04.197Z</time>
      </trkpt>
      <trkpt lat="44.88602" lon="5.67422">
        <ele>537.8</ele>
        <time>2023-05-16T11:59:06.851Z</time>
      </trkpt>
      <trkpt lat="44.8861" lon="5.6742">
        <ele>537.2</ele>
        <time>2023-05-16T11:59:09.386Z</time>
      </trkpt>
      <trkpt lat="44.88618" lon="5.67419">
        <ele>536.5</ele>
        <time>2023-05-16T11:59:11.890Z</time>
      </trkpt>
      <trkpt lat="44.88625" lon="5.67419">
        <ele>536.1</ele>
        <time>2023-05-16T11:59:14.074Z</time>
      </trkpt>
      <trkpt lat="44.88633" lon="5.67418">
        <ele>535.8</ele>
        <time>2023-05-16T11:59:16.632Z</time>
      </trkpt>
      <trkpt lat="44.88641" lon="5.67417">
        <ele>535.6</ele>
        <time>2023-05-16T11:59:19.287Z</time>
      </trkpt>
      <trkpt lat="44.88648" lon="5.67416">
        <ele>535.4</ele>
        <time>2023-05-16T11:59:21.588Z</time>
      </trkpt>
      <trkpt lat="44.88655" lon="5.67414">
        <ele>535.2</ele>
        <time>2023-05-16T11:59:23.927Z</time>
      </trkpt>
      <trkpt lat="44.88662" lon="5.67413">
        <ele>535</ele>
        <time>2023-05-16T11:59:26.229Z</time>
      </trkpt>
      <trkpt lat="44.88669" lon="5.67411">
        <ele>534.8</ele>
        <time>2023-05-16T11:59:28.568Z</time>
      </trkpt>
      <trkpt lat="44.88677" lon="5.67409">
        <ele>534.7</ele>
        <time>2023-05-16T11:59:31.357Z</time>
      </trkpt>
      <trkpt lat="44.88684" lon="5.67407">
        <ele>534.6</ele>
        <time>2023-05-16T11:59:33.796Z</time>
      </trkpt>
      <trkpt lat="44.88691" lon="5.67404">
        <ele>534.5</ele>
        <time>2023-05-16T11:59:36.297Z</time>
      </trkpt>
      <trkpt lat="44.88697" lon="5.674">
        <ele>534.4</ele>
        <time>2023-05-16T11:59:38.556Z</time>
      </trkpt>
      <trkpt lat="44.88703" lon="5.67397">
        <ele>534.3</ele>
        <time>2023-05-16T11:59:40.719Z</time>
      </trkpt>
      <trkpt lat="44.8871" lon="5.67394">
        <ele>534.3</ele>
        <time>2023-05-16T11:59:43.327Z</time>
      </trkpt>
      <trkpt lat="44.88717" lon="5.67391">
        <ele>534.2</ele>
        <time>2023-05-16T11:59:45.828Z</time>
      </trkpt>
      <trkpt lat="44.88724" lon="5.6739">
        <ele>534.1</ele>
        <time>2023-05-16T11:59:48.229Z</time>
      </trkpt>
      <trkpt lat="44.88731" lon="5.67387">
        <ele>534.1</ele>
        <time>2023-05-16T11:59:50.837Z</time>
      </trkpt>
      <trkpt lat="44.88737" lon="5.67385">
        <ele>534</ele>
        <time>2023-05-16T11:59:52.929Z</time>
      </trkpt>
      <trkpt lat="44.88742" lon="5.67383">
        <ele>534</ele>
        <time>2023-05-16T11:59:54.781Z</time>
      </trkpt>
      <trkpt lat="44.88748" lon="5.67381">
        <ele>533.9</ele>
        <time>2023-05-16T11:59:56.873Z</time>
      </trkpt>
      <trkpt lat="44.88755" lon="5.6738">
        <ele>533.9</ele>
        <time>2023-05-16T11:59:59.381Z</time>
      </trkpt>
      <trkpt lat="44.8876" lon="5.67377">
        <ele>533.8</ele>
        <time>2023-05-16T12:00:01.212Z</time>
      </trkpt>
      <trkpt lat="44.88767" lon="5.67376">
        <ele>533.8</ele>
        <time>2023-05-16T12:00:03.720Z</time>
      </trkpt>
      <trkpt lat="44.88772" lon="5.67375">
        <ele>533.8</ele>
        <time>2023-05-16T12:00:05.520Z</time>
      </trkpt>
      <trkpt lat="44.88777" lon="5.67373">
        <ele>533.7</ele>
        <time>2023-05-16T12:00:07.267Z</time>
      </trkpt>
      <trkpt lat="44.88783" lon="5.67371">
        <ele>533.7</ele>
        <time>2023-05-16T12:00:09.465Z</time>
      </trkpt>
      <trkpt lat="44.88789" lon="5.6737">
        <ele>533.6</ele>
        <time>2023-05-16T12:00:11.512Z</time>
      </trkpt>
      <trkpt lat="44.88795" lon="5.67369">
        <ele>533.6</ele>
        <time>2023-05-16T12:00:13.666Z</time>
      </trkpt>
      <trkpt lat="44.88801" lon="5.67367">
        <ele>533.5</ele>
        <time>2023-05-16T12:00:15.757Z</time>
      </trkpt>
      <trkpt lat="44.88807" lon="5.67366">
        <ele>533.4</ele>
        <time>2023-05-16T12:00:17.805Z</time>
      </trkpt>
      <trkpt lat="44.88814" lon="5.67365">
        <ele>533.4</ele>
        <time>2023-05-16T12:00:20.313Z</time>
      </trkpt>
      <trkpt lat="44.8882" lon="5.67363">
        <ele>533.3</ele>
        <time>2023-05-16T12:00:22.405Z</time>
      </trkpt>
      <trkpt lat="44.88826" lon="5.67361">
        <ele>533.2</ele>
        <time>2023-05-16T12:00:24.496Z</time>
      </trkpt>
      <trkpt lat="44.88832" lon="5.6736">
        <ele>533.2</ele>
        <time>2023-05-16T12:00:26.650Z</time>
      </trkpt>
      <trkpt lat="44.88839" lon="5.67358">
        <ele>533.1</ele>
        <time>2023-05-16T12:00:29.089Z</time>
      </trkpt>
      <trkpt lat="44.88845" lon="5.67357">
        <ele>533</ele>
        <time>2023-05-16T12:00:31.137Z</time>
      </trkpt>
      <trkpt lat="44.88852" lon="5.67356">
        <ele>532.9</ele>
        <time>2023-05-16T12:00:33.538Z</time>
      </trkpt>
      <trkpt lat="44.88857" lon="5.67356">
        <ele>532.8</ele>
        <time>2023-05-16T12:00:35.215Z</time>
      </trkpt>
      <trkpt lat="44.88864" lon="5.67355">
        <ele>532.7</ele>
        <time>2023-05-16T12:00:37.617Z</time>
      </trkpt>
      <trkpt lat="44.8887" lon="5.67355">
        <ele>532.8</ele>
        <time>2023-05-16T12:00:39.869Z</time>
      </trkpt>
      <trkpt lat="44.88876" lon="5.67354">
        <ele>533.3</ele>
        <time>2023-05-16T12:00:42.686Z</time>
      </trkpt>
      <trkpt lat="44.88882" lon="5.67353">
        <ele>533.8</ele>
        <time>2023-05-16T12:00:45.503Z</time>
      </trkpt>
      <trkpt lat="44.88888" lon="5.67352">
        <ele>534.3</ele>
        <time>2023-05-16T12:00:48.319Z</time>
      </trkpt>
      <trkpt lat="44.88893" lon="5.67348">
        <ele>534.9</ele>
        <time>2023-05-16T12:00:51.207Z</time>
      </trkpt>
      <trkpt lat="44.88897" lon="5.67343">
        <ele>535.1</ele>
        <time>2023-05-16T12:00:53.350Z</time>
      </trkpt>
      <trkpt lat="44.88901" lon="5.67337">
        <ele>535.3</ele>
        <time>2023-05-16T12:00:55.667Z</time>
      </trkpt>
      <trkpt lat="44.88905" lon="5.6733">
        <ele>535.6</ele>
        <time>2023-05-16T12:00:58.304Z</time>
      </trkpt>
      <trkpt lat="44.8891" lon="5.67327">
        <ele>535.9</ele>
        <time>2023-05-16T12:01:00.613Z</time>
      </trkpt>
      <trkpt lat="44.88916" lon="5.67326">
        <ele>536.3</ele>
        <time>2023-05-16T12:01:03.277Z</time>
      </trkpt>
      <trkpt lat="44.88922" lon="5.67326">
        <ele>536.7</ele>
        <time>2023-05-16T12:01:05.926Z</time>
      </trkpt>
      <trkpt lat="44.88927" lon="5.67328">
        <ele>537.3</ele>
        <time>2023-05-16T12:01:08.641Z</time>
      </trkpt>
      <trkpt lat="44.88932" lon="5.6733">
        <ele>537.8</ele>
        <time>2023-05-16T12:01:11.178Z</time>
      </trkpt>
      <trkpt lat="44.88937" lon="5.67331">
        <ele>538.2</ele>
        <time>2023-05-16T12:01:13.504Z</time>
      </trkpt>
      <trkpt lat="44.88941" lon="5.67333">
        <ele>538.6</ele>
        <time>2023-05-16T12:01:15.563Z</time>
      </trkpt>
      <trkpt lat="44.88945" lon="5.67333">
        <ele>538.9</ele>
        <time>2023-05-16T12:01:17.379Z</time>
      </trkpt>
      <trkpt lat="44.8895" lon="5.67333">
        <ele>539.2</ele>
        <time>2023-05-16T12:01:19.538Z</time>
      </trkpt>
      <trkpt lat="44.88954" lon="5.67332">
        <ele>539.5</ele>
        <time>2023-05-16T12:01:21.375Z</time>
      </trkpt>
      <trkpt lat="44.88958" lon="5.67332">
        <ele>539.9</ele>
        <time>2023-05-16T12:01:23.354Z</time>
      </trkpt>
      <trkpt lat="44.88962" lon="5.67332">
        <ele>540.5</ele>
        <time>2023-05-16T12:01:25.723Z</time>
      </trkpt>
      <trkpt lat="44.88965" lon="5.67331">
        <ele>541.2</ele>
        <time>2023-05-16T12:01:28.183Z</time>
      </trkpt>
      <trkpt lat="44.88968" lon="5.6733">
        <ele>541.8</ele>
        <time>2023-05-16T12:01:30.346Z</time>
      </trkpt>
      <trkpt lat="44.88972" lon="5.6733">
        <ele>542.5</ele>
        <time>2023-05-16T12:01:32.949Z</time>
      </trkpt>
      <trkpt lat="44.88976" lon="5.6733">
        <ele>543.1</ele>
        <time>2023-05-16T12:01:35.318Z</time>
      </trkpt>
      <trkpt lat="44.8898" lon="5.6733">
        <ele>543.3</ele>
        <time>2023-05-16T12:01:36.989Z</time>
      </trkpt>
      <trkpt lat="44.88984" lon="5.6733">
        <ele>543.6</ele>
        <time>2023-05-16T12:01:38.805Z</time>
      </trkpt>
      <trkpt lat="44.88989" lon="5.6733">
        <ele>543.9</ele>
        <time>2023-05-16T12:01:40.964Z</time>
      </trkpt>
      <trkpt lat="44.88993" lon="5.67329">
        <ele>544.2</ele>
        <time>2023-05-16T12:01:42.802Z</time>
      </trkpt>
      <trkpt lat="44.88997" lon="5.67328">
        <ele>544.4</ele>
        <time>2023-05-16T12:01:44.495Z</time>
      </trkpt>
      <trkpt lat="44.89002" lon="5.67327">
        <ele>544.6</ele>
        <time>2023-05-16T12:01:46.534Z</time>
      </trkpt>
      <trkpt lat="44.89006" lon="5.67328">
        <ele>544.7</ele>
        <time>2023-05-16T12:01:48.098Z</time>
      </trkpt>
      <trkpt lat="44.89011" lon="5.67329">
        <ele>544.9</ele>
        <time>2023-05-16T12:01:50.138Z</time>
      </trkpt>
      <trkpt lat="44.89015" lon="5.67329">
        <ele>545.1</ele>
        <time>2023-05-16T12:01:51.809Z</time>
      </trkpt>
      <trkpt lat="44.8902" lon="5.67329">
        <ele>545.3</ele>
        <time>2023-05-16T12:01:53.831Z</time>
      </trkpt>
      <trkpt lat="44.89024" lon="5.67328">
        <ele>545.4</ele>
        <time>2023-05-16T12:01:55.395Z</time>
      </trkpt>
      <trkpt lat="44.89028" lon="5.67327">
        <ele>545.6</ele>
        <time>2023-05-16T12:01:57.088Z</time>
      </trkpt>
      <trkpt lat="44.89032" lon="5.67327">
        <ele>545.8</ele>
        <time>2023-05-16T12:01:58.759Z</time>
      </trkpt>
      <trkpt lat="44.89037" lon="5.67327">
        <ele>546</ele>
        <time>2023-05-16T12:02:00.781Z</time>
      </trkpt>
      <trkpt lat="44.89041" lon="5.67326">
        <ele>546.2</ele>
        <time>2023-05-16T12:02:02.474Z</time>
      </trkpt>
      <trkpt lat="44.89046" lon="5.67326">
        <ele>546.4</ele>
        <time>2023-05-16T12:02:04.496Z</time>
      </trkpt>
      <trkpt lat="44.8905" lon="5.67325">
        <ele>546.6</ele>
        <time>2023-05-16T12:02:06.189Z</time>
      </trkpt>
      <trkpt lat="44.89054" lon="5.67325">
        <ele>546.8</ele>
        <time>2023-05-16T12:02:07.861Z</time>
      </trkpt>
      <trkpt lat="44.89058" lon="5.67324">
        <ele>547</ele>
        <time>2023-05-16T12:02:09.554Z</time>
      </trkpt>
      <trkpt lat="44.89062" lon="5.67324">
        <ele>547.2</ele>
        <time>2023-05-16T12:02:11.225Z</time>
      </trkpt>
      <trkpt lat="44.89066" lon="5.67324">
        <ele>547.4</ele>
        <time>2023-05-16T12:02:12.896Z</time>
      </trkpt>
      <trkpt lat="44.8907" lon="5.67324">
        <ele>547.8</ele>
        <time>2023-05-16T12:02:14.875Z</time>
      </trkpt>
      <trkpt lat="44.89073" lon="5.67324">
        <ele>548.4</ele>
        <time>2023-05-16T12:02:17.025Z</time>
      </trkpt>
      <trkpt lat="44.89077" lon="5.67324">
        <ele>549</ele>
        <time>2023-05-16T12:02:19.394Z</time>
      </trkpt>
      <trkpt lat="44.8908" lon="5.67324">
        <ele>549.7</ele>
        <time>2023-05-16T12:02:21.849Z</time>
      </trkpt>
      <trkpt lat="44.89083" lon="5.67324">
        <ele>550.4</ele>
        <time>2023-05-16T12:02:24.303Z</time>
      </trkpt>
      <trkpt lat="44.89087" lon="5.67324">
        <ele>551.1</ele>
        <time>2023-05-16T12:02:26.906Z</time>
      </trkpt>
      <trkpt lat="44.8909" lon="5.67324">
        <ele>551.7</ele>
        <time>2023-05-16T12:02:29.056Z</time>
      </trkpt>
      <trkpt lat="44.89093" lon="5.67324">
        <ele>552.2</ele>
        <time>2023-05-16T12:02:30.947Z</time>
      </trkpt>
      <trkpt lat="44.89097" lon="5.67324">
        <ele>552.6</ele>
        <time>2023-05-16T12:02:32.926Z</time>
      </trkpt>
      <trkpt lat="44.891" lon="5.67323">
        <ele>553</ele>
        <time>2023-05-16T12:02:34.621Z</time>
      </trkpt>
      <trkpt lat="44.89103" lon="5.67323">
        <ele>553.5</ele>
        <time>2023-05-16T12:02:36.512Z</time>
      </trkpt>
      <trkpt lat="44.89106" lon="5.67322">
        <ele>553.9</ele>
        <time>2023-05-16T12:02:38.207Z</time>
      </trkpt>
      <trkpt lat="44.8911" lon="5.67321">
        <ele>554.8</ele>
        <time>2023-05-16T12:02:41.377Z</time>
      </trkpt>
      <trkpt lat="44.89113" lon="5.6732">
        <ele>556.1</ele>
        <time>2023-05-16T12:02:46.748Z</time>
      </trkpt>
      <trkpt lat="44.89117" lon="5.6732">
        <ele>557.3</ele>
        <time>2023-05-16T12:02:51.057Z</time>
      </trkpt>
      <trkpt lat="44.89122" lon="5.67319">
        <ele>558.5</ele>
        <time>2023-05-16T12:02:55.261Z</time>
      </trkpt>
      <trkpt lat="44.89125" lon="5.67319">
        <ele>559.1</ele>
        <time>2023-05-16T12:02:57.411Z</time>
      </trkpt>
      <trkpt lat="44.89132" lon="5.67316">
        <ele>560.2</ele>
        <time>2023-05-16T12:03:01.749Z</time>
      </trkpt>
      <trkpt lat="44.89135" lon="5.67315">
        <ele>560.8</ele>
        <time>2023-05-16T12:03:03.913Z</time>
      </trkpt>
      <trkpt lat="44.89139" lon="5.67315">
        <ele>561.9</ele>
        <time>2023-05-16T12:03:07.795Z</time>
      </trkpt>
      <trkpt lat="44.89144" lon="5.67312">
        <ele>563.5</ele>
        <time>2023-05-16T12:03:13.514Z</time>
      </trkpt>
      <trkpt lat="44.89147" lon="5.67311">
        <ele>564</ele>
        <time>2023-05-16T12:03:15.424Z</time>
      </trkpt>
      <trkpt lat="44.8915" lon="5.67309">
        <ele>564.5</ele>
        <time>2023-05-16T12:03:17.394Z</time>
      </trkpt>
      <trkpt lat="44.89152" lon="5.67308">
        <ele>564.9</ele>
        <time>2023-05-16T12:03:18.849Z</time>
      </trkpt>
      <trkpt lat="44.89156" lon="5.67308">
        <ele>565.4</ele>
        <time>2023-05-16T12:03:21.011Z</time>
      </trkpt>
      <trkpt lat="44.89162" lon="5.67307">
        <ele>567.4</ele>
        <time>2023-05-16T12:03:28.417Z</time>
      </trkpt>
      <trkpt lat="44.89168" lon="5.67306">
        <ele>568.9</ele>
        <time>2023-05-16T12:03:33.670Z</time>
      </trkpt>
      <trkpt lat="44.89171" lon="5.67305">
        <ele>569.3</ele>
        <time>2023-05-16T12:03:35.365Z</time>
      </trkpt>
      <trkpt lat="44.89175" lon="5.67305">
        <ele>569.6</ele>
        <time>2023-05-16T12:03:37.181Z</time>
      </trkpt>
      <trkpt lat="44.89179" lon="5.67303">
        <ele>570</ele>
        <time>2023-05-16T12:03:39.240Z</time>
      </trkpt>
      <trkpt lat="44.89182" lon="5.67301">
        <ele>570.1</ele>
        <time>2023-05-16T12:03:40.540Z</time>
      </trkpt>
      <trkpt lat="44.89185" lon="5.673">
        <ele>570.3</ele>
        <time>2023-05-16T12:03:41.892Z</time>
      </trkpt>
      <trkpt lat="44.89189" lon="5.67299">
        <ele>570.5</ele>
        <time>2023-05-16T12:03:43.585Z</time>
      </trkpt>
      <trkpt lat="44.89193" lon="5.67299">
        <ele>570.7</ele>
        <time>2023-05-16T12:03:45.257Z</time>
      </trkpt>
      <trkpt lat="44.89196" lon="5.67298">
        <ele>570.9</ele>
        <time>2023-05-16T12:03:46.610Z</time>
      </trkpt>
      <trkpt lat="44.892" lon="5.67297">
        <ele>571.1</ele>
        <time>2023-05-16T12:03:48.303Z</time>
      </trkpt>
      <trkpt lat="44.89204" lon="5.67297">
        <ele>571.2</ele>
        <time>2023-05-16T12:03:49.844Z</time>
      </trkpt>
      <trkpt lat="44.89209" lon="5.67296">
        <ele>571.3</ele>
        <time>2023-05-16T12:03:51.759Z</time>
      </trkpt>
      <trkpt lat="44.89212" lon="5.67296">
        <ele>571.5</ele>
        <time>2023-05-16T12:03:53.083Z</time>
      </trkpt>
      <trkpt lat="44.89216" lon="5.67297">
        <ele>571.6</ele>
        <time>2023-05-16T12:03:54.647Z</time>
      </trkpt>
      <trkpt lat="44.89221" lon="5.67297">
        <ele>571.8</ele>
        <time>2023-05-16T12:03:56.669Z</time>
      </trkpt>
      <trkpt lat="44.89224" lon="5.67297">
        <ele>571.9</ele>
        <time>2023-05-16T12:03:57.857Z</time>
      </trkpt>
      <trkpt lat="44.89227" lon="5.67297">
        <ele>572</ele>
        <time>2023-05-16T12:03:59.044Z</time>
      </trkpt>
      <trkpt lat="44.89232" lon="5.67298">
        <ele>572.2</ele>
        <time>2023-05-16T12:04:01.084Z</time>
      </trkpt>
      <trkpt lat="44.89236" lon="5.67299">
        <ele>572.3</ele>
        <time>2023-05-16T12:04:02.648Z</time>
      </trkpt>
      <trkpt lat="44.8924" lon="5.67299">
        <ele>572.4</ele>
        <time>2023-05-16T12:04:04.190Z</time>
      </trkpt>
      <trkpt lat="44.89244" lon="5.67299">
        <ele>572.6</ele>
        <time>2023-05-16T12:04:05.861Z</time>
      </trkpt>
      <trkpt lat="44.89249" lon="5.673">
        <ele>572.7</ele>
        <time>2023-05-16T12:04:07.776Z</time>
      </trkpt>
      <trkpt lat="44.89253" lon="5.67302">
        <ele>572.9</ele>
        <time>2023-05-16T12:04:09.532Z</time>
      </trkpt>
      <trkpt lat="44.89257" lon="5.67302">
        <ele>573</ele>
        <time>2023-05-16T12:04:11.074Z</time>
      </trkpt>
      <trkpt lat="44.8926" lon="5.67303">
        <ele>573.1</ele>
        <time>2023-05-16T12:04:12.290Z</time>
      </trkpt>
      <trkpt lat="44.89265" lon="5.67303">
        <ele>573.2</ele>
        <time>2023-05-16T12:04:14.187Z</time>
      </trkpt>
      <trkpt lat="44.8927" lon="5.67303">
        <ele>573.3</ele>
        <time>2023-05-16T12:04:16.084Z</time>
      </trkpt>
      <trkpt lat="44.89275" lon="5.67303">
        <ele>573.5</ele>
        <time>2023-05-16T12:04:18.106Z</time>
      </trkpt>
      <trkpt lat="44.89279" lon="5.67302">
        <ele>573.6</ele>
        <time>2023-05-16T12:04:19.670Z</time>
      </trkpt>
      <trkpt lat="44.89283" lon="5.67301">
        <ele>573.7</ele>
        <time>2023-05-16T12:04:21.234Z</time>
      </trkpt>
      <trkpt lat="44.89287" lon="5.673">
        <ele>573.9</ele>
        <time>2023-05-16T12:04:22.927Z</time>
      </trkpt>
      <trkpt lat="44.89299" lon="5.67299">
        <ele>574.2</ele>
        <time>2023-05-16T12:04:27.560Z</time>
      </trkpt>
      <trkpt lat="44.89307" lon="5.67298">
        <ele>574.5</ele>
        <time>2023-05-16T12:04:30.780Z</time>
      </trkpt>
      <trkpt lat="44.89311" lon="5.67297">
        <ele>574.6</ele>
        <time>2023-05-16T12:04:32.344Z</time>
      </trkpt>
      <trkpt lat="44.89314" lon="5.67296">
        <ele>574.7</ele>
        <time>2023-05-16T12:04:33.561Z</time>
      </trkpt>
      <trkpt lat="44.89318" lon="5.67295">
        <ele>574.8</ele>
        <time>2023-05-16T12:04:35.124Z</time>
      </trkpt>
      <trkpt lat="44.89322" lon="5.67295">
        <ele>574.9</ele>
        <time>2023-05-16T12:04:36.666Z</time>
      </trkpt>
      <trkpt lat="44.89325" lon="5.67294">
        <ele>575</ele>
        <time>2023-05-16T12:04:37.883Z</time>
      </trkpt>
      <trkpt lat="44.89329" lon="5.67293">
        <ele>575.1</ele>
        <time>2023-05-16T12:04:39.447Z</time>
      </trkpt>
      <trkpt lat="44.89332" lon="5.67292">
        <ele>575.2</ele>
        <time>2023-05-16T12:04:40.663Z</time>
      </trkpt>
      <trkpt lat="44.89335" lon="5.6729">
        <ele>575.3</ele>
        <time>2023-05-16T12:04:41.963Z</time>
      </trkpt>
      <trkpt lat="44.89339" lon="5.6729">
        <ele>575.4</ele>
        <time>2023-05-16T12:04:43.505Z</time>
      </trkpt>
      <trkpt lat="44.89343" lon="5.67289">
        <ele>575.5</ele>
        <time>2023-05-16T12:04:45.069Z</time>
      </trkpt>
      <trkpt lat="44.89347" lon="5.67288">
        <ele>575.7</ele>
        <time>2023-05-16T12:04:46.762Z</time>
      </trkpt>
      <trkpt lat="44.89349" lon="5.67287">
        <ele>575.7</ele>
        <time>2023-05-16T12:04:47.518Z</time>
      </trkpt>
      <trkpt lat="44.89353" lon="5.67286">
        <ele>575.8</ele>
        <time>2023-05-16T12:04:49.082Z</time>
      </trkpt>
      <trkpt lat="44.89356" lon="5.67284">
        <ele>575.9</ele>
        <time>2023-05-16T12:04:50.382Z</time>
      </trkpt>
      <trkpt lat="44.89358" lon="5.67283">
        <ele>576</ele>
        <time>2023-05-16T12:04:51.260Z</time>
      </trkpt>
      <trkpt lat="44.89361" lon="5.67282">
        <ele>576.1</ele>
        <time>2023-05-16T12:04:52.477Z</time>
      </trkpt>
      <trkpt lat="44.89365" lon="5.6728">
        <ele>576.2</ele>
        <time>2023-05-16T12:04:54.105Z</time>
      </trkpt>
      <trkpt lat="44.89368" lon="5.67278">
        <ele>576.4</ele>
        <time>2023-05-16T12:04:55.539Z</time>
      </trkpt>
      <trkpt lat="44.89372" lon="5.67277">
        <ele>576.5</ele>
        <time>2023-05-16T12:04:57.103Z</time>
      </trkpt>
      <trkpt lat="44.89376" lon="5.67275">
        <ele>576.6</ele>
        <time>2023-05-16T12:04:58.731Z</time>
      </trkpt>
      <trkpt lat="44.89379" lon="5.67275">
        <ele>576.8</ele>
        <time>2023-05-16T12:05:00.056Z</time>
      </trkpt>
      <trkpt lat="44.89384" lon="5.67274">
        <ele>576.9</ele>
        <time>2023-05-16T12:05:01.970Z</time>
      </trkpt>
      <trkpt lat="44.89387" lon="5.67274">
        <ele>577.1</ele>
        <time>2023-05-16T12:05:03.295Z</time>
      </trkpt>
      <trkpt lat="44.89391" lon="5.67273">
        <ele>577.2</ele>
        <time>2023-05-16T12:05:04.859Z</time>
      </trkpt>
      <trkpt lat="44.89395" lon="5.67272">
        <ele>577.3</ele>
        <time>2023-05-16T12:05:06.422Z</time>
      </trkpt>
      <trkpt lat="44.89399" lon="5.67271">
        <ele>577.6</ele>
        <time>2023-05-16T12:05:08.260Z</time>
      </trkpt>
      <trkpt lat="44.89403" lon="5.67271">
        <ele>577.9</ele>
        <time>2023-05-16T12:05:10.076Z</time>
      </trkpt>
      <trkpt lat="44.89407" lon="5.6727">
        <ele>578.1</ele>
        <time>2023-05-16T12:05:11.769Z</time>
      </trkpt>
      <trkpt lat="44.89411" lon="5.6727">
        <ele>578.4</ele>
        <time>2023-05-16T12:05:13.585Z</time>
      </trkpt>
      <trkpt lat="44.89416" lon="5.67269">
        <ele>578.9</ele>
        <time>2023-05-16T12:05:16.075Z</time>
      </trkpt>
      <trkpt lat="44.89421" lon="5.67267">
        <ele>579.7</ele>
        <time>2023-05-16T12:05:19.198Z</time>
      </trkpt>
      <trkpt lat="44.89425" lon="5.67266">
        <ele>580.5</ele>
        <time>2023-05-16T12:05:22.075Z</time>
      </trkpt>
      <trkpt lat="44.8943" lon="5.67265">
        <ele>581.3</ele>
        <time>2023-05-16T12:05:25.161Z</time>
      </trkpt>
      <trkpt lat="44.89435" lon="5.67263">
        <ele>582.1</ele>
        <time>2023-05-16T12:05:28.284Z</time>
      </trkpt>
      <trkpt lat="44.8944" lon="5.67262">
        <ele>582.4</ele>
        <time>2023-05-16T12:05:30.460Z</time>
      </trkpt>
      <trkpt lat="44.89444" lon="5.6726">
        <ele>582.6</ele>
        <time>2023-05-16T12:05:32.217Z</time>
      </trkpt>
      <trkpt lat="44.89449" lon="5.67259">
        <ele>582.9</ele>
        <time>2023-05-16T12:05:34.393Z</time>
      </trkpt>
      <trkpt lat="44.89453" lon="5.67257">
        <ele>583.2</ele>
        <time>2023-05-16T12:05:36.292Z</time>
      </trkpt>
      <trkpt lat="44.89459" lon="5.67255">
        <ele>583.5</ele>
        <time>2023-05-16T12:05:38.857Z</time>
      </trkpt>
      <trkpt lat="44.89463" lon="5.67253">
        <ele>583.8</ele>
        <time>2023-05-16T12:05:40.756Z</time>
      </trkpt>
      <trkpt lat="44.89468" lon="5.67251">
        <ele>583.3</ele>
        <time>2023-05-16T12:05:42.377Z</time>
      </trkpt>
      <trkpt lat="44.89472" lon="5.67249">
        <ele>581.5</ele>
        <time>2023-05-16T12:05:43.700Z</time>
      </trkpt>
      <trkpt lat="44.89478" lon="5.67248">
        <ele>578.3</ele>
        <time>2023-05-16T12:05:45.585Z</time>
      </trkpt>
      <trkpt lat="44.89482" lon="5.67247">
        <ele>575.9</ele>
        <time>2023-05-16T12:05:46.852Z</time>
      </trkpt>
      <trkpt lat="44.89487" lon="5.67246">
        <ele>573.8</ele>
        <time>2023-05-16T12:05:48.427Z</time>
      </trkpt>
      <trkpt lat="44.89492" lon="5.67245">
        <ele>571.9</ele>
        <time>2023-05-16T12:05:50.002Z</time>
      </trkpt>
      <trkpt lat="44.89497" lon="5.67244">
        <ele>569.6</ele>
        <time>2023-05-16T12:05:51.577Z</time>
      </trkpt>
      <trkpt lat="44.89501" lon="5.67241">
        <ele>567.6</ele>
        <time>2023-05-16T12:05:52.990Z</time>
      </trkpt>
      <trkpt lat="44.89505" lon="5.6724">
        <ele>566.2</ele>
        <time>2023-05-16T12:05:54.257Z</time>
      </trkpt>
      <trkpt lat="44.89509" lon="5.67239">
        <ele>563.7</ele>
        <time>2023-05-16T12:05:55.524Z</time>
      </trkpt>
      <trkpt lat="44.89511" lon="5.6724">
        <ele>561</ele>
        <time>2023-05-16T12:05:56.186Z</time>
      </trkpt>
      <trkpt lat="44.89514" lon="5.67241">
        <ele>561</ele>
        <time>2023-05-16T12:05:57.284Z</time>
      </trkpt>
      <trkpt lat="44.89518" lon="5.67242">
        <ele>560.9</ele>
        <time>2023-05-16T12:05:58.628Z</time>
      </trkpt>
      <trkpt lat="44.89521" lon="5.67242">
        <ele>560.5</ele>
        <time>2023-05-16T12:05:59.564Z</time>
      </trkpt>
      <trkpt lat="44.89524" lon="5.67241">
        <ele>560.1</ele>
        <time>2023-05-16T12:06:00.525Z</time>
      </trkpt>
      <trkpt lat="44.89529" lon="5.67239">
        <ele>559.4</ele>
        <time>2023-05-16T12:06:02.146Z</time>
      </trkpt>
      <trkpt lat="44.89532" lon="5.67238">
        <ele>559</ele>
        <time>2023-05-16T12:06:03.108Z</time>
      </trkpt>
      <trkpt lat="44.89534" lon="5.67235">
        <ele>558.7</ele>
        <time>2023-05-16T12:06:04.018Z</time>
      </trkpt>
      <trkpt lat="44.89537" lon="5.67234">
        <ele>558.3</ele>
        <time>2023-05-16T12:06:04.979Z</time>
      </trkpt>
      <trkpt lat="44.8954" lon="5.67232">
        <ele>557.5</ele>
        <time>2023-05-16T12:06:06.014Z</time>
      </trkpt>
      <trkpt lat="44.89543" lon="5.67231">
        <ele>556.7</ele>
        <time>2023-05-16T12:06:06.975Z</time>
      </trkpt>
      <trkpt lat="44.89547" lon="5.67229">
        <ele>556.1</ele>
        <time>2023-05-16T12:06:08.299Z</time>
      </trkpt>
      <trkpt lat="44.89549" lon="5.67227">
        <ele>555.6</ele>
        <time>2023-05-16T12:06:09.063Z</time>
      </trkpt>
      <trkpt lat="44.89551" lon="5.67225">
        <ele>555</ele>
        <time>2023-05-16T12:06:09.828Z</time>
      </trkpt>
      <trkpt lat="44.89555" lon="5.67223">
        <ele>554.5</ele>
        <time>2023-05-16T12:06:11.151Z</time>
      </trkpt>
      <trkpt lat="44.89558" lon="5.67221">
        <ele>554</ele>
        <time>2023-05-16T12:06:12.186Z</time>
      </trkpt>
      <trkpt lat="44.89561" lon="5.6722">
        <ele>553.5</ele>
        <time>2023-05-16T12:06:13.148Z</time>
      </trkpt>
      <trkpt lat="44.89565" lon="5.67214">
        <ele>552.6</ele>
        <time>2023-05-16T12:06:14.968Z</time>
      </trkpt>
      <trkpt lat="44.89571" lon="5.67209">
        <ele>551.5</ele>
        <time>2023-05-16T12:06:17.141Z</time>
      </trkpt>
      <trkpt lat="44.89574" lon="5.67206">
        <ele>551</ele>
        <time>2023-05-16T12:06:18.288Z</time>
      </trkpt>
      <trkpt lat="44.89578" lon="5.67202">
        <ele>550.3</ele>
        <time>2023-05-16T12:06:19.817Z</time>
      </trkpt>
      <trkpt lat="44.89581" lon="5.67201">
        <ele>549.7</ele>
        <time>2023-05-16T12:06:20.778Z</time>
      </trkpt>
      <trkpt lat="44.89586" lon="5.67201">
        <ele>549</ele>
        <time>2023-05-16T12:06:22.338Z</time>
      </trkpt>
      <trkpt lat="44.89589" lon="5.67201">
        <ele>548.4</ele>
        <time>2023-05-16T12:06:23.274Z</time>
      </trkpt>
      <trkpt lat="44.89593" lon="5.67204">
        <ele>547.7</ele>
        <time>2023-05-16T12:06:24.686Z</time>
      </trkpt>
      <trkpt lat="44.89596" lon="5.67206">
        <ele>547</ele>
        <time>2023-05-16T12:06:25.721Z</time>
      </trkpt>
      <trkpt lat="44.896" lon="5.67208">
        <ele>546.2</ele>
        <time>2023-05-16T12:06:27.045Z</time>
      </trkpt>
      <trkpt lat="44.89606" lon="5.67212">
        <ele>546.2</ele>
        <time>2023-05-16T12:06:29.410Z</time>
      </trkpt>
      <trkpt lat="44.89609" lon="5.67214">
        <ele>546.4</ele>
        <time>2023-05-16T12:06:30.844Z</time>
      </trkpt>
      <trkpt lat="44.8962" lon="5.67223">
        <ele>546.9</ele>
        <time>2023-05-16T12:06:35.974Z</time>
      </trkpt>
      <trkpt lat="44.89624" lon="5.67226">
        <ele>547</ele>
        <time>2023-05-16T12:06:37.704Z</time>
      </trkpt>
      <trkpt lat="44.8963" lon="5.67229">
        <ele>547.2</ele>
        <time>2023-05-16T12:06:40.208Z</time>
      </trkpt>
      <trkpt lat="44.89636" lon="5.67231">
        <ele>547.3</ele>
        <time>2023-05-16T12:06:42.520Z</time>
      </trkpt>
      <trkpt lat="44.89641" lon="5.6723">
        <ele>547.5</ele>
        <time>2023-05-16T12:06:44.559Z</time>
      </trkpt>
      <trkpt lat="44.89647" lon="5.67228">
        <ele>547.7</ele>
        <time>2023-05-16T12:06:46.993Z</time>
      </trkpt>
      <trkpt lat="44.89653" lon="5.67225">
        <ele>547.9</ele>
        <time>2023-05-16T12:06:49.497Z</time>
      </trkpt>
      <trkpt lat="44.89658" lon="5.67222">
        <ele>548.1</ele>
        <time>2023-05-16T12:06:51.671Z</time>
      </trkpt>
      <trkpt lat="44.89663" lon="5.67218">
        <ele>548.3</ele>
        <time>2023-05-16T12:06:53.957Z</time>
      </trkpt>
      <trkpt lat="44.89669" lon="5.67215">
        <ele>548.5</ele>
        <time>2023-05-16T12:06:56.461Z</time>
      </trkpt>
      <trkpt lat="44.89675" lon="5.67213">
        <ele>548.7</ele>
        <time>2023-05-16T12:06:58.894Z</time>
      </trkpt>
      <trkpt lat="44.8968" lon="5.6721">
        <ele>549</ele>
        <time>2023-05-16T12:07:01.204Z</time>
      </trkpt>
      <trkpt lat="44.89685" lon="5.67207">
        <ele>549.2</ele>
        <time>2023-05-16T12:07:03.378Z</time>
      </trkpt>
      <trkpt lat="44.8969" lon="5.67204">
        <ele>549.3</ele>
        <time>2023-05-16T12:07:05.429Z</time>
      </trkpt>
      <trkpt lat="44.89694" lon="5.67201">
        <ele>549.5</ele>
        <time>2023-05-16T12:07:07.286Z</time>
      </trkpt>
      <trkpt lat="44.89699" lon="5.67198">
        <ele>549.6</ele>
        <time>2023-05-16T12:07:09.337Z</time>
      </trkpt>
      <trkpt lat="44.89704" lon="5.67196">
        <ele>549.8</ele>
        <time>2023-05-16T12:07:11.428Z</time>
      </trkpt>
      <trkpt lat="44.89709" lon="5.67195">
        <ele>549.9</ele>
        <time>2023-05-16T12:07:13.343Z</time>
      </trkpt>
      <trkpt lat="44.89715" lon="5.67194">
        <ele>550</ele>
        <time>2023-05-16T12:07:15.610Z</time>
      </trkpt>
      <trkpt lat="44.8972" lon="5.67191">
        <ele>550.2</ele>
        <time>2023-05-16T12:07:17.785Z</time>
      </trkpt>
      <trkpt lat="44.89725" lon="5.67189">
        <ele>550.3</ele>
        <time>2023-05-16T12:07:19.752Z</time>
      </trkpt>
      <trkpt lat="44.8973" lon="5.67186">
        <ele>550.4</ele>
        <time>2023-05-16T12:07:21.803Z</time>
      </trkpt>
      <trkpt lat="44.89734" lon="5.67184">
        <ele>550.6</ele>
        <time>2023-05-16T12:07:23.559Z</time>
      </trkpt>
      <trkpt lat="44.89738" lon="5.67183">
        <ele>550.7</ele>
        <time>2023-05-16T12:07:25.123Z</time>
      </trkpt>
      <trkpt lat="44.89743" lon="5.67181">
        <ele>550.9</ele>
        <time>2023-05-16T12:07:27.214Z</time>
      </trkpt>
      <trkpt lat="44.89747" lon="5.67179">
        <ele>551</ele>
        <time>2023-05-16T12:07:28.842Z</time>
      </trkpt>
      <trkpt lat="44.89752" lon="5.67177">
        <ele>551.2</ele>
        <time>2023-05-16T12:07:30.934Z</time>
      </trkpt>
      <trkpt lat="44.89756" lon="5.67175">
        <ele>551.4</ele>
        <time>2023-05-16T12:07:32.690Z</time>
      </trkpt>
      <trkpt lat="44.89761" lon="5.67173">
        <ele>551.7</ele>
        <time>2023-05-16T12:07:34.918Z</time>
      </trkpt>
      <trkpt lat="44.89765" lon="5.67171">
        <ele>552.1</ele>
        <time>2023-05-16T12:07:36.976Z</time>
      </trkpt>
      <trkpt lat="44.89769" lon="5.67169">
        <ele>552.6</ele>
        <time>2023-05-16T12:07:39.211Z</time>
      </trkpt>
      <trkpt lat="44.89773" lon="5.67168">
        <ele>553.1</ele>
        <time>2023-05-16T12:07:41.392Z</time>
      </trkpt>
      <trkpt lat="44.89777" lon="5.67167">
        <ele>553.7</ele>
        <time>2023-05-16T12:07:43.778Z</time>
      </trkpt>
      <trkpt lat="44.89781" lon="5.67165">
        <ele>554.2</ele>
        <time>2023-05-16T12:07:46.014Z</time>
      </trkpt>
      <trkpt lat="44.89785" lon="5.67165">
        <ele>554.6</ele>
        <time>2023-05-16T12:07:47.993Z</time>
      </trkpt>
      <trkpt lat="44.89789" lon="5.67163">
        <ele>554.8</ele>
        <time>2023-05-16T12:07:49.749Z</time>
      </trkpt>
      <trkpt lat="44.89792" lon="5.67162">
        <ele>555.1</ele>
        <time>2023-05-16T12:07:51.260Z</time>
      </trkpt>
      <trkpt lat="44.89795" lon="5.6716">
        <ele>555.2</ele>
        <time>2023-05-16T12:07:52.560Z</time>
      </trkpt>
      <trkpt lat="44.89798" lon="5.67159">
        <ele>555.3</ele>
        <time>2023-05-16T12:07:53.777Z</time>
      </trkpt>
      <trkpt lat="44.89801" lon="5.67158">
        <ele>555.5</ele>
        <time>2023-05-16T12:07:55.130Z</time>
      </trkpt>
      <trkpt lat="44.89805" lon="5.67157">
        <ele>555.7</ele>
        <time>2023-05-16T12:07:56.823Z</time>
      </trkpt>
      <trkpt lat="44.89808" lon="5.67156">
        <ele>555.8</ele>
        <time>2023-05-16T12:07:58.039Z</time>
      </trkpt>
      <trkpt lat="44.89812" lon="5.67154">
        <ele>555.8</ele>
        <time>2023-05-16T12:07:59.552Z</time>
      </trkpt>
      <trkpt lat="44.89815" lon="5.67153">
        <ele>555.9</ele>
        <time>2023-05-16T12:08:00.769Z</time>
      </trkpt>
      <trkpt lat="44.89818" lon="5.67151">
        <ele>556</ele>
        <time>2023-05-16T12:08:02.068Z</time>
      </trkpt>
      <trkpt lat="44.89822" lon="5.67149">
        <ele>556.1</ele>
        <time>2023-05-16T12:08:03.697Z</time>
      </trkpt>
      <trkpt lat="44.89825" lon="5.67147">
        <ele>556.1</ele>
        <time>2023-05-16T12:08:04.879Z</time>
      </trkpt>
      <trkpt lat="44.89828" lon="5.67145">
        <ele>556.2</ele>
        <time>2023-05-16T12:08:06.179Z</time>
      </trkpt>
      <trkpt lat="44.89832" lon="5.67144">
        <ele>556.3</ele>
        <time>2023-05-16T12:08:07.743Z</time>
      </trkpt>
      <trkpt lat="44.89836" lon="5.67142">
        <ele>556.4</ele>
        <time>2023-05-16T12:08:09.371Z</time>
      </trkpt>
      <trkpt lat="44.89839" lon="5.67141">
        <ele>556.5</ele>
        <time>2023-05-16T12:08:10.588Z</time>
      </trkpt>
      <trkpt lat="44.89842" lon="5.67139">
        <ele>556.5</ele>
        <time>2023-05-16T12:08:11.770Z</time>
      </trkpt>
      <trkpt lat="44.89846" lon="5.67138">
        <ele>556.6</ele>
        <time>2023-05-16T12:08:13.334Z</time>
      </trkpt>
      <trkpt lat="44.8985" lon="5.67136">
        <ele>556.8</ele>
        <time>2023-05-16T12:08:15.091Z</time>
      </trkpt>
      <trkpt lat="44.89856" lon="5.67132">
        <ele>556.9</ele>
        <time>2023-05-16T12:08:17.569Z</time>
      </trkpt>
      <trkpt lat="44.8986" lon="5.6713">
        <ele>557</ele>
        <time>2023-05-16T12:08:19.197Z</time>
      </trkpt>
      <trkpt lat="44.89865" lon="5.67127">
        <ele>557.2</ele>
        <time>2023-05-16T12:08:21.372Z</time>
      </trkpt>
      <trkpt lat="44.89869" lon="5.67125">
        <ele>557.3</ele>
        <time>2023-05-16T12:08:23.000Z</time>
      </trkpt>
      <trkpt lat="44.89873" lon="5.67123">
        <ele>557.4</ele>
        <time>2023-05-16T12:08:24.628Z</time>
      </trkpt>
      <trkpt lat="44.89878" lon="5.67121">
        <ele>557.6</ele>
        <time>2023-05-16T12:08:26.720Z</time>
      </trkpt>
      <trkpt lat="44.89882" lon="5.67118">
        <ele>557.8</ele>
        <time>2023-05-16T12:08:28.576Z</time>
      </trkpt>
      <trkpt lat="44.89886" lon="5.67117">
        <ele>558.1</ele>
        <time>2023-05-16T12:08:30.414Z</time>
      </trkpt>
      <trkpt lat="44.89891" lon="5.67115">
        <ele>558.3</ele>
        <time>2023-05-16T12:08:32.505Z</time>
      </trkpt>
      <trkpt lat="44.89895" lon="5.67112">
        <ele>558.8</ele>
        <time>2023-05-16T12:08:34.830Z</time>
      </trkpt>
      <trkpt lat="44.899" lon="5.6711">
        <ele>559.4</ele>
        <time>2023-05-16T12:08:37.545Z</time>
      </trkpt>
      <trkpt lat="44.89904" lon="5.67108">
        <ele>560.1</ele>
        <time>2023-05-16T12:08:40.202Z</time>
      </trkpt>
      <trkpt lat="44.89909" lon="5.67106">
        <ele>560.7</ele>
        <time>2023-05-16T12:08:42.917Z</time>
      </trkpt>
      <trkpt lat="44.89913" lon="5.67106">
        <ele>561.1</ele>
        <time>2023-05-16T12:08:44.897Z</time>
      </trkpt>
      <trkpt lat="44.89917" lon="5.67104">
        <ele>561.2</ele>
        <time>2023-05-16T12:08:46.525Z</time>
      </trkpt>
      <trkpt lat="44.89921" lon="5.67102">
        <ele>561.4</ele>
        <time>2023-05-16T12:08:48.281Z</time>
      </trkpt>
      <trkpt lat="44.89924" lon="5.67099">
        <ele>561.5</ele>
        <time>2023-05-16T12:08:49.708Z</time>
      </trkpt>
      <trkpt lat="44.89929" lon="5.67097">
        <ele>561.6</ele>
        <time>2023-05-16T12:08:51.675Z</time>
      </trkpt>
      <trkpt lat="44.89932" lon="5.67095">
        <ele>561.7</ele>
        <time>2023-05-16T12:08:52.975Z</time>
      </trkpt>
      <trkpt lat="44.89937" lon="5.67092">
        <ele>561.9</ele>
        <time>2023-05-16T12:08:55.150Z</time>
      </trkpt>
      <trkpt lat="44.89941" lon="5.67091">
        <ele>562</ele>
        <time>2023-05-16T12:08:56.713Z</time>
      </trkpt>
      <trkpt lat="44.89945" lon="5.67088">
        <ele>562.1</ele>
        <time>2023-05-16T12:08:58.443Z</time>
      </trkpt>
      <trkpt lat="44.89948" lon="5.67086">
        <ele>562.2</ele>
        <time>2023-05-16T12:08:59.743Z</time>
      </trkpt>
      <trkpt lat="44.89952" lon="5.67083">
        <ele>562.3</ele>
        <time>2023-05-16T12:09:01.473Z</time>
      </trkpt>
      <trkpt lat="44.89957" lon="5.67081">
        <ele>562.4</ele>
        <time>2023-05-16T12:09:03.440Z</time>
      </trkpt>
      <trkpt lat="44.89961" lon="5.67077">
        <ele>562.5</ele>
        <time>2023-05-16T12:09:05.302Z</time>
      </trkpt>
      <trkpt lat="44.89965" lon="5.67074">
        <ele>562.6</ele>
        <time>2023-05-16T12:09:07.031Z</time>
      </trkpt>
      <trkpt lat="44.89969" lon="5.67071">
        <ele>562.7</ele>
        <time>2023-05-16T12:09:08.761Z</time>
      </trkpt>
      <trkpt lat="44.89972" lon="5.67068">
        <ele>562.8</ele>
        <time>2023-05-16T12:09:10.188Z</time>
      </trkpt>
      <trkpt lat="44.89977" lon="5.67067">
        <ele>563</ele>
        <time>2023-05-16T12:09:12.228Z</time>
      </trkpt>
      <trkpt lat="44.89981" lon="5.67064">
        <ele>563.2</ele>
        <time>2023-05-16T12:09:14.084Z</time>
      </trkpt>
      <trkpt lat="44.89985" lon="5.67063">
        <ele>563.4</ele>
        <time>2023-05-16T12:09:15.777Z</time>
      </trkpt>
      <trkpt lat="44.89988" lon="5.6706">
        <ele>563.6</ele>
        <time>2023-05-16T12:09:17.336Z</time>
      </trkpt>
      <trkpt lat="44.89992" lon="5.67059">
        <ele>563.8</ele>
        <time>2023-05-16T12:09:19.029Z</time>
      </trkpt>
      <trkpt lat="44.89996" lon="5.67057">
        <ele>564</ele>
        <time>2023-05-16T12:09:20.785Z</time>
      </trkpt>
      <trkpt lat="44.89999" lon="5.67055">
        <ele>564.4</ele>
        <time>2023-05-16T12:09:22.550Z</time>
      </trkpt>
      <trkpt lat="44.90004" lon="5.67053">
        <ele>564.6</ele>
        <time>2023-05-16T12:09:24.642Z</time>
      </trkpt>
      <trkpt lat="44.9001" lon="5.67051">
        <ele>565</ele>
        <time>2023-05-16T12:09:27.348Z</time>
      </trkpt>
      <trkpt lat="44.90014" lon="5.67049">
        <ele>565.3</ele>
        <time>2023-05-16T12:09:29.247Z</time>
      </trkpt>
      <trkpt lat="44.90018" lon="5.67048">
        <ele>565.6</ele>
        <time>2023-05-16T12:09:31.084Z</time>
      </trkpt>
      <trkpt lat="44.90051" lon="5.67044">
        <ele>569.2</ele>
        <time>2023-05-16T12:09:47.979Z</time>
      </trkpt>
      <trkpt lat="44.90057" lon="5.67044">
        <ele>569.5</ele>
        <time>2023-05-16T12:09:50.486Z</time>
      </trkpt>
      <trkpt lat="44.90063" lon="5.67043">
        <ele>569.7</ele>
        <time>2023-05-16T12:09:52.875Z</time>
      </trkpt>
      <trkpt lat="44.90067" lon="5.67042">
        <ele>569.9</ele>
        <time>2023-05-16T12:09:54.568Z</time>
      </trkpt>
      <trkpt lat="44.90072" lon="5.6704">
        <ele>570</ele>
        <time>2023-05-16T12:09:56.535Z</time>
      </trkpt>
      <trkpt lat="44.90076" lon="5.67038">
        <ele>570</ele>
        <time>2023-05-16T12:09:58.048Z</time>
      </trkpt>
      <trkpt lat="44.9008" lon="5.67037">
        <ele>570</ele>
        <time>2023-05-16T12:09:59.496Z</time>
      </trkpt>
      <trkpt lat="44.90084" lon="5.67036">
        <ele>570</ele>
        <time>2023-05-16T12:10:00.944Z</time>
      </trkpt>
      <trkpt lat="44.90087" lon="5.67034">
        <ele>570.1</ele>
        <time>2023-05-16T12:10:02.244Z</time>
      </trkpt>
      <trkpt lat="44.90091" lon="5.67034">
        <ele>570.1</ele>
        <time>2023-05-16T12:10:03.669Z</time>
      </trkpt>
      <trkpt lat="44.90094" lon="5.67032">
        <ele>570.1</ele>
        <time>2023-05-16T12:10:04.852Z</time>
      </trkpt>
      <trkpt lat="44.90098" lon="5.6703">
        <ele>570.1</ele>
        <time>2023-05-16T12:10:06.365Z</time>
      </trkpt>
      <trkpt lat="44.90101" lon="5.67028">
        <ele>570.1</ele>
        <time>2023-05-16T12:10:07.547Z</time>
      </trkpt>
      <trkpt lat="44.90104" lon="5.67026">
        <ele>570.2</ele>
        <time>2023-05-16T12:10:08.847Z</time>
      </trkpt>
      <trkpt lat="44.90108" lon="5.67024">
        <ele>570.2</ele>
        <time>2023-05-16T12:10:10.360Z</time>
      </trkpt>
      <trkpt lat="44.9011" lon="5.67021">
        <ele>570.3</ele>
        <time>2023-05-16T12:10:11.518Z</time>
      </trkpt>
      <trkpt lat="44.90113" lon="5.67018">
        <ele>570.4</ele>
        <time>2023-05-16T12:10:12.945Z</time>
      </trkpt>
      <trkpt lat="44.90117" lon="5.67015">
        <ele>570.6</ele>
        <time>2023-05-16T12:10:14.802Z</time>
      </trkpt>
      <trkpt lat="44.9012" lon="5.67012">
        <ele>570.6</ele>
        <time>2023-05-16T12:10:16.112Z</time>
      </trkpt>
      <trkpt lat="44.90123" lon="5.67009">
        <ele>570.7</ele>
        <time>2023-05-16T12:10:17.539Z</time>
      </trkpt>
      <trkpt lat="44.90126" lon="5.67005">
        <ele>570.7</ele>
        <time>2023-05-16T12:10:19.010Z</time>
      </trkpt>
      <trkpt lat="44.90129" lon="5.67002">
        <ele>570.7</ele>
        <time>2023-05-16T12:10:20.321Z</time>
      </trkpt>
      <trkpt lat="44.90131" lon="5.67">
        <ele>570.7</ele>
        <time>2023-05-16T12:10:21.194Z</time>
      </trkpt>
      <trkpt lat="44.90135" lon="5.66997">
        <ele>570.7</ele>
        <time>2023-05-16T12:10:22.809Z</time>
      </trkpt>
      <trkpt lat="44.90138" lon="5.66994">
        <ele>570.7</ele>
        <time>2023-05-16T12:10:24.119Z</time>
      </trkpt>
      <trkpt lat="44.90141" lon="5.66991">
        <ele>570.7</ele>
        <time>2023-05-16T12:10:25.430Z</time>
      </trkpt>
      <trkpt lat="44.90144" lon="5.66988">
        <ele>570.7</ele>
        <time>2023-05-16T12:10:26.740Z</time>
      </trkpt>
      <trkpt lat="44.90147" lon="5.66985">
        <ele>570.7</ele>
        <time>2023-05-16T12:10:28.051Z</time>
      </trkpt>
      <trkpt lat="44.9015" lon="5.66983">
        <ele>570.7</ele>
        <time>2023-05-16T12:10:29.233Z</time>
      </trkpt>
      <trkpt lat="44.90153" lon="5.6698">
        <ele>570.7</ele>
        <time>2023-05-16T12:10:30.544Z</time>
      </trkpt>
      <trkpt lat="44.90155" lon="5.66978">
        <ele>570.6</ele>
        <time>2023-05-16T12:10:31.317Z</time>
      </trkpt>
      <trkpt lat="44.9016" lon="5.66975">
        <ele>570.6</ele>
        <time>2023-05-16T12:10:33.253Z</time>
      </trkpt>
      <trkpt lat="44.90163" lon="5.66973">
        <ele>570.6</ele>
        <time>2023-05-16T12:10:34.436Z</time>
      </trkpt>
      <trkpt lat="44.90166" lon="5.66972">
        <ele>570.6</ele>
        <time>2023-05-16T12:10:35.535Z</time>
      </trkpt>
      <trkpt lat="44.9017" lon="5.6697">
        <ele>570.6</ele>
        <time>2023-05-16T12:10:37.047Z</time>
      </trkpt>
      <trkpt lat="44.90173" lon="5.66969">
        <ele>570.6</ele>
        <time>2023-05-16T12:10:38.146Z</time>
      </trkpt>
      <trkpt lat="44.90176" lon="5.66968">
        <ele>570.6</ele>
        <time>2023-05-16T12:10:39.245Z</time>
      </trkpt>
      <trkpt lat="44.9018" lon="5.66968">
        <ele>570.6</ele>
        <time>2023-05-16T12:10:40.671Z</time>
      </trkpt>
      <trkpt lat="44.90184" lon="5.66968">
        <ele>570.7</ele>
        <time>2023-05-16T12:10:42.212Z</time>
      </trkpt>
      <trkpt lat="44.90188" lon="5.66968">
        <ele>570.8</ele>
        <time>2023-05-16T12:10:43.754Z</time>
      </trkpt>
      <trkpt lat="44.90192" lon="5.66969">
        <ele>571</ele>
        <time>2023-05-16T12:10:45.447Z</time>
      </trkpt>
      <trkpt lat="44.90197" lon="5.66969">
        <ele>571.1</ele>
        <time>2023-05-16T12:10:47.344Z</time>
      </trkpt>
      <trkpt lat="44.902" lon="5.6697">
        <ele>571.2</ele>
        <time>2023-05-16T12:10:48.561Z</time>
      </trkpt>
      <trkpt lat="44.90204" lon="5.66971">
        <ele>571.2</ele>
        <time>2023-05-16T12:10:50.009Z</time>
      </trkpt>
      <trkpt lat="44.90209" lon="5.66972">
        <ele>571.2</ele>
        <time>2023-05-16T12:10:51.809Z</time>
      </trkpt>
      <trkpt lat="44.90214" lon="5.66973">
        <ele>571.3</ele>
        <time>2023-05-16T12:10:53.723Z</time>
      </trkpt>
      <trkpt lat="44.90217" lon="5.66974">
        <ele>571.3</ele>
        <time>2023-05-16T12:10:54.822Z</time>
      </trkpt>
      <trkpt lat="44.90222" lon="5.66975">
        <ele>571.3</ele>
        <time>2023-05-16T12:10:56.622Z</time>
      </trkpt>
      <trkpt lat="44.90226" lon="5.66976">
        <ele>571.4</ele>
        <time>2023-05-16T12:10:58.186Z</time>
      </trkpt>
      <trkpt lat="44.90229" lon="5.66976">
        <ele>571.4</ele>
        <time>2023-05-16T12:10:59.255Z</time>
      </trkpt>
      <trkpt lat="44.90233" lon="5.66977">
        <ele>571.4</ele>
        <time>2023-05-16T12:11:00.703Z</time>
      </trkpt>
      <trkpt lat="44.90236" lon="5.66977">
        <ele>571.5</ele>
        <time>2023-05-16T12:11:01.891Z</time>
      </trkpt>
      <trkpt lat="44.9024" lon="5.66977">
        <ele>571.5</ele>
        <time>2023-05-16T12:11:03.317Z</time>
      </trkpt>
      <trkpt lat="44.90244" lon="5.66977">
        <ele>571.6</ele>
        <time>2023-05-16T12:11:04.858Z</time>
      </trkpt>
      <trkpt lat="44.90248" lon="5.66977">
        <ele>571.6</ele>
        <time>2023-05-16T12:11:06.284Z</time>
      </trkpt>
      <trkpt lat="44.90252" lon="5.66976">
        <ele>571.7</ele>
        <time>2023-05-16T12:11:07.848Z</time>
      </trkpt>
      <trkpt lat="44.90256" lon="5.66975">
        <ele>571.7</ele>
        <time>2023-05-16T12:11:09.296Z</time>
      </trkpt>
      <trkpt lat="44.9026" lon="5.66973">
        <ele>571.8</ele>
        <time>2023-05-16T12:11:10.924Z</time>
      </trkpt>
      <trkpt lat="44.90265" lon="5.6697">
        <ele>572</ele>
        <time>2023-05-16T12:11:13.099Z</time>
      </trkpt>
      <trkpt lat="44.90268" lon="5.66967">
        <ele>572.1</ele>
        <time>2023-05-16T12:11:14.526Z</time>
      </trkpt>
      <trkpt lat="44.9027" lon="5.66965">
        <ele>572.2</ele>
        <time>2023-05-16T12:11:15.520Z</time>
      </trkpt>
      <trkpt lat="44.90273" lon="5.66962">
        <ele>572.2</ele>
        <time>2023-05-16T12:11:16.830Z</time>
      </trkpt>
      <trkpt lat="44.90276" lon="5.66958">
        <ele>572.3</ele>
        <time>2023-05-16T12:11:18.417Z</time>
      </trkpt>
      <trkpt lat="44.90278" lon="5.66955">
        <ele>572.3</ele>
        <time>2023-05-16T12:11:19.457Z</time>
      </trkpt>
      <trkpt lat="44.90281" lon="5.66951">
        <ele>572.4</ele>
        <time>2023-05-16T12:11:21.043Z</time>
      </trkpt>
      <trkpt lat="44.90283" lon="5.66947">
        <ele>572.4</ele>
        <time>2023-05-16T12:11:22.280Z</time>
      </trkpt>
      <trkpt lat="44.90286" lon="5.66943">
        <ele>572.4</ele>
        <time>2023-05-16T12:11:23.751Z</time>
      </trkpt>
      <trkpt lat="44.90289" lon="5.6694">
        <ele>572.4</ele>
        <time>2023-05-16T12:11:25.061Z</time>
      </trkpt>
      <trkpt lat="44.90292" lon="5.66937">
        <ele>572.4</ele>
        <time>2023-05-16T12:11:26.371Z</time>
      </trkpt>
      <trkpt lat="44.90296" lon="5.66934">
        <ele>572.4</ele>
        <time>2023-05-16T12:11:27.986Z</time>
      </trkpt>
      <trkpt lat="44.90299" lon="5.66931">
        <ele>572.5</ele>
        <time>2023-05-16T12:11:29.413Z</time>
      </trkpt>
      <trkpt lat="44.90303" lon="5.66928">
        <ele>572.5</ele>
        <time>2023-05-16T12:11:31.027Z</time>
      </trkpt>
      <trkpt lat="44.90307" lon="5.66925">
        <ele>572.5</ele>
        <time>2023-05-16T12:11:32.642Z</time>
      </trkpt>
      <trkpt lat="44.9031" lon="5.66923">
        <ele>572.6</ele>
        <time>2023-05-16T12:11:33.942Z</time>
      </trkpt>
      <trkpt lat="44.90314" lon="5.66921">
        <ele>572.6</ele>
        <time>2023-05-16T12:11:35.454Z</time>
      </trkpt>
      <trkpt lat="44.90319" lon="5.66919">
        <ele>572.6</ele>
        <time>2023-05-16T12:11:37.307Z</time>
      </trkpt>
      <trkpt lat="44.90323" lon="5.66917">
        <ele>572.7</ele>
        <time>2023-05-16T12:11:38.935Z</time>
      </trkpt>
      <trkpt lat="44.90326" lon="5.66915">
        <ele>572.8</ele>
        <time>2023-05-16T12:11:40.235Z</time>
      </trkpt>
      <trkpt lat="44.9033" lon="5.66913">
        <ele>572.9</ele>
        <time>2023-05-16T12:11:41.863Z</time>
      </trkpt>
      <trkpt lat="44.90334" lon="5.6691">
        <ele>573</ele>
        <time>2023-05-16T12:11:43.593Z</time>
      </trkpt>
      <trkpt lat="44.90338" lon="5.66907">
        <ele>573</ele>
        <time>2023-05-16T12:11:45.207Z</time>
      </trkpt>
      <trkpt lat="44.90342" lon="5.66903">
        <ele>573</ele>
        <time>2023-05-16T12:11:46.954Z</time>
      </trkpt>
      <trkpt lat="44.90346" lon="5.669">
        <ele>573</ele>
        <time>2023-05-16T12:11:48.569Z</time>
      </trkpt>
      <trkpt lat="44.9035" lon="5.66897">
        <ele>573</ele>
        <time>2023-05-16T12:11:50.184Z</time>
      </trkpt>
      <trkpt lat="44.90353" lon="5.66894">
        <ele>573</ele>
        <time>2023-05-16T12:11:51.494Z</time>
      </trkpt>
      <trkpt lat="44.90356" lon="5.66892">
        <ele>573</ele>
        <time>2023-05-16T12:11:52.677Z</time>
      </trkpt>
      <trkpt lat="44.90358" lon="5.6689">
        <ele>573</ele>
        <time>2023-05-16T12:11:53.550Z</time>
      </trkpt>
      <trkpt lat="44.90362" lon="5.66888">
        <ele>573</ele>
        <time>2023-05-16T12:11:55.063Z</time>
      </trkpt>
      <trkpt lat="44.90366" lon="5.66885">
        <ele>573</ele>
        <time>2023-05-16T12:11:56.677Z</time>
      </trkpt>
      <trkpt lat="44.90369" lon="5.66882">
        <ele>573</ele>
        <time>2023-05-16T12:11:57.988Z</time>
      </trkpt>
      <trkpt lat="44.90372" lon="5.66881">
        <ele>573</ele>
        <time>2023-05-16T12:11:59.086Z</time>
      </trkpt>
      <trkpt lat="44.90375" lon="5.66878">
        <ele>573</ele>
        <time>2023-05-16T12:12:00.397Z</time>
      </trkpt>
      <trkpt lat="44.9038" lon="5.66876">
        <ele>573</ele>
        <time>2023-05-16T12:12:02.249Z</time>
      </trkpt>
      <trkpt lat="44.90383" lon="5.66874">
        <ele>573.1</ele>
        <time>2023-05-16T12:12:03.549Z</time>
      </trkpt>
      <trkpt lat="44.90388" lon="5.66872">
        <ele>573.1</ele>
        <time>2023-05-16T12:12:05.402Z</time>
      </trkpt>
      <trkpt lat="44.90392" lon="5.66871">
        <ele>573.1</ele>
        <time>2023-05-16T12:12:06.850Z</time>
      </trkpt>
      <trkpt lat="44.90401" lon="5.66872">
        <ele>573.3</ele>
        <time>2023-05-16T12:12:10.298Z</time>
      </trkpt>
      <trkpt lat="44.90405" lon="5.66874">
        <ele>573.4</ele>
        <time>2023-05-16T12:12:11.926Z</time>
      </trkpt>
      <trkpt lat="44.90408" lon="5.66876">
        <ele>573.4</ele>
        <time>2023-05-16T12:12:13.109Z</time>
      </trkpt>
      <trkpt lat="44.90412" lon="5.66877">
        <ele>573.5</ele>
        <time>2023-05-16T12:12:14.673Z</time>
      </trkpt>
      <trkpt lat="44.90415" lon="5.66878">
        <ele>573.5</ele>
        <time>2023-05-16T12:12:15.771Z</time>
      </trkpt>
      <trkpt lat="44.9042" lon="5.6688">
        <ele>573.5</ele>
        <time>2023-05-16T12:12:17.624Z</time>
      </trkpt>
      <trkpt lat="44.90424" lon="5.66882">
        <ele>573.5</ele>
        <time>2023-05-16T12:12:19.136Z</time>
      </trkpt>
      <trkpt lat="44.90427" lon="5.66882">
        <ele>573.5</ele>
        <time>2023-05-16T12:12:20.206Z</time>
      </trkpt>
      <trkpt lat="44.90431" lon="5.66883">
        <ele>573.5</ele>
        <time>2023-05-16T12:12:21.654Z</time>
      </trkpt>
      <trkpt lat="44.90434" lon="5.66883">
        <ele>573.5</ele>
        <time>2023-05-16T12:12:22.723Z</time>
      </trkpt>
      <trkpt lat="44.9044" lon="5.66882">
        <ele>573.5</ele>
        <time>2023-05-16T12:12:24.877Z</time>
      </trkpt>
      <trkpt lat="44.90443" lon="5.66881">
        <ele>573.5</ele>
        <time>2023-05-16T12:12:25.976Z</time>
      </trkpt>
      <trkpt lat="44.90446" lon="5.6688">
        <ele>573.5</ele>
        <time>2023-05-16T12:12:27.074Z</time>
      </trkpt>
      <trkpt lat="44.9045" lon="5.66879">
        <ele>573.5</ele>
        <time>2023-05-16T12:12:28.522Z</time>
      </trkpt>
      <trkpt lat="44.90454" lon="5.66878">
        <ele>573.6</ele>
        <time>2023-05-16T12:12:30.086Z</time>
      </trkpt>
      <trkpt lat="44.90457" lon="5.66877">
        <ele>573.6</ele>
        <time>2023-05-16T12:12:31.185Z</time>
      </trkpt>
      <trkpt lat="44.90461" lon="5.66876">
        <ele>573.6</ele>
        <time>2023-05-16T12:12:32.633Z</time>
      </trkpt>
      <trkpt lat="44.90465" lon="5.66875">
        <ele>573.7</ele>
        <time>2023-05-16T12:12:34.197Z</time>
      </trkpt>
      <trkpt lat="44.90469" lon="5.66873">
        <ele>573.8</ele>
        <time>2023-05-16T12:12:35.825Z</time>
      </trkpt>
      <trkpt lat="44.90475" lon="5.66872">
        <ele>574</ele>
        <time>2023-05-16T12:12:38.215Z</time>
      </trkpt>
      <trkpt lat="44.90479" lon="5.6687">
        <ele>574.1</ele>
        <time>2023-05-16T12:12:39.843Z</time>
      </trkpt>
      <trkpt lat="44.90483" lon="5.66869">
        <ele>574.1</ele>
        <time>2023-05-16T12:12:41.291Z</time>
      </trkpt>
      <trkpt lat="44.90487" lon="5.66867">
        <ele>574.2</ele>
        <time>2023-05-16T12:12:42.919Z</time>
      </trkpt>
      <trkpt lat="44.90491" lon="5.66866">
        <ele>574.2</ele>
        <time>2023-05-16T12:12:44.367Z</time>
      </trkpt>
      <trkpt lat="44.90495" lon="5.66865">
        <ele>574.2</ele>
        <time>2023-05-16T12:12:45.815Z</time>
      </trkpt>
      <trkpt lat="44.90499" lon="5.66864">
        <ele>574.3</ele>
        <time>2023-05-16T12:12:47.379Z</time>
      </trkpt>
      <trkpt lat="44.90503" lon="5.66863">
        <ele>574.3</ele>
        <time>2023-05-16T12:12:48.827Z</time>
      </trkpt>
      <trkpt lat="44.90508" lon="5.66861">
        <ele>574.4</ele>
        <time>2023-05-16T12:12:50.794Z</time>
      </trkpt>
      <trkpt lat="44.90512" lon="5.6686">
        <ele>574.4</ele>
        <time>2023-05-16T12:12:52.242Z</time>
      </trkpt>
      <trkpt lat="44.90517" lon="5.66859">
        <ele>574.5</ele>
        <time>2023-05-16T12:12:54.156Z</time>
      </trkpt>
      <trkpt lat="44.9052" lon="5.66857">
        <ele>574.5</ele>
        <time>2023-05-16T12:12:55.339Z</time>
      </trkpt>
      <trkpt lat="44.90523" lon="5.66856">
        <ele>574.5</ele>
        <time>2023-05-16T12:12:56.438Z</time>
      </trkpt>
      <trkpt lat="44.90527" lon="5.66855">
        <ele>574.6</ele>
        <time>2023-05-16T12:12:58.001Z</time>
      </trkpt>
      <trkpt lat="44.90531" lon="5.66853">
        <ele>574.6</ele>
        <time>2023-05-16T12:12:59.514Z</time>
      </trkpt>
      <trkpt lat="44.90535" lon="5.66851">
        <ele>574.7</ele>
        <time>2023-05-16T12:13:01.142Z</time>
      </trkpt>
      <trkpt lat="44.90539" lon="5.66849">
        <ele>574.8</ele>
        <time>2023-05-16T12:13:02.770Z</time>
      </trkpt>
      <trkpt lat="44.90543" lon="5.66848">
        <ele>574.9</ele>
        <time>2023-05-16T12:13:04.334Z</time>
      </trkpt>
      <trkpt lat="44.90547" lon="5.66845">
        <ele>575</ele>
        <time>2023-05-16T12:13:06.064Z</time>
      </trkpt>
      <trkpt lat="44.90551" lon="5.66843">
        <ele>575</ele>
        <time>2023-05-16T12:13:07.576Z</time>
      </trkpt>
      <trkpt lat="44.90555" lon="5.66841">
        <ele>575</ele>
        <time>2023-05-16T12:13:09.089Z</time>
      </trkpt>
      <trkpt lat="44.90559" lon="5.66839">
        <ele>575</ele>
        <time>2023-05-16T12:13:10.602Z</time>
      </trkpt>
      <trkpt lat="44.90563" lon="5.66837">
        <ele>575</ele>
        <time>2023-05-16T12:13:12.114Z</time>
      </trkpt>
      <trkpt lat="44.90567" lon="5.66836">
        <ele>575</ele>
        <time>2023-05-16T12:13:13.562Z</time>
      </trkpt>
      <trkpt lat="44.90571" lon="5.66834">
        <ele>575</ele>
        <time>2023-05-16T12:13:15.075Z</time>
      </trkpt>
      <trkpt lat="44.90575" lon="5.66832">
        <ele>575</ele>
        <time>2023-05-16T12:13:16.587Z</time>
      </trkpt>
      <trkpt lat="44.90578" lon="5.66831">
        <ele>575</ele>
        <time>2023-05-16T12:13:17.686Z</time>
      </trkpt>
      <trkpt lat="44.90584" lon="5.6683">
        <ele>575</ele>
        <time>2023-05-16T12:13:19.840Z</time>
      </trkpt>
      <trkpt lat="44.90587" lon="5.66829">
        <ele>575</ele>
        <time>2023-05-16T12:13:20.939Z</time>
      </trkpt>
      <trkpt lat="44.90591" lon="5.66828">
        <ele>575</ele>
        <time>2023-05-16T12:13:22.387Z</time>
      </trkpt>
      <trkpt lat="44.90595" lon="5.66827">
        <ele>575</ele>
        <time>2023-05-16T12:13:23.835Z</time>
      </trkpt>
      <trkpt lat="44.90599" lon="5.66826">
        <ele>575.1</ele>
        <time>2023-05-16T12:13:25.398Z</time>
      </trkpt>
      <trkpt lat="44.90603" lon="5.66825">
        <ele>575.1</ele>
        <time>2023-05-16T12:13:26.846Z</time>
      </trkpt>
      <trkpt lat="44.90608" lon="5.66824">
        <ele>575.1</ele>
        <time>2023-05-16T12:13:28.646Z</time>
      </trkpt>
      <trkpt lat="44.90612" lon="5.66822">
        <ele>575.1</ele>
        <time>2023-05-16T12:13:30.159Z</time>
      </trkpt>
      <trkpt lat="44.90617" lon="5.66821">
        <ele>575.1</ele>
        <time>2023-05-16T12:13:31.959Z</time>
      </trkpt>
      <trkpt lat="44.90621" lon="5.66821">
        <ele>575.1</ele>
        <time>2023-05-16T12:13:33.385Z</time>
      </trkpt>
      <trkpt lat="44.90626" lon="5.66819">
        <ele>575.2</ele>
        <time>2023-05-16T12:13:35.352Z</time>
      </trkpt>
      <trkpt lat="44.9063" lon="5.66819">
        <ele>575.2</ele>
        <time>2023-05-16T12:13:36.778Z</time>
      </trkpt>
      <trkpt lat="44.90633" lon="5.66818">
        <ele>575.4</ele>
        <time>2023-05-16T12:13:38.130Z</time>
      </trkpt>
      <trkpt lat="44.90638" lon="5.66817">
        <ele>575.5</ele>
        <time>2023-05-16T12:13:40.045Z</time>
      </trkpt>
      <trkpt lat="44.90642" lon="5.66816">
        <ele>575.6</ele>
        <time>2023-05-16T12:13:41.609Z</time>
      </trkpt>
      <trkpt lat="44.90646" lon="5.66814">
        <ele>575.7</ele>
        <time>2023-05-16T12:13:43.237Z</time>
      </trkpt>
      <trkpt lat="44.9065" lon="5.66813">
        <ele>575.7</ele>
        <time>2023-05-16T12:13:44.685Z</time>
      </trkpt>
      <trkpt lat="44.90655" lon="5.66812">
        <ele>575.7</ele>
        <time>2023-05-16T12:13:46.485Z</time>
      </trkpt>
      <trkpt lat="44.90659" lon="5.66811">
        <ele>575.7</ele>
        <time>2023-05-16T12:13:47.933Z</time>
      </trkpt>
      <trkpt lat="44.90663" lon="5.6681">
        <ele>575.8</ele>
        <time>2023-05-16T12:13:49.497Z</time>
      </trkpt>
      <trkpt lat="44.90668" lon="5.66809">
        <ele>575.8</ele>
        <time>2023-05-16T12:13:51.297Z</time>
      </trkpt>
      <trkpt lat="44.90673" lon="5.66808">
        <ele>575.8</ele>
        <time>2023-05-16T12:13:53.097Z</time>
      </trkpt>
      <trkpt lat="44.90676" lon="5.66807">
        <ele>575.8</ele>
        <time>2023-05-16T12:13:54.196Z</time>
      </trkpt>
      <trkpt lat="44.90682" lon="5.66806">
        <ele>575.8</ele>
        <time>2023-05-16T12:13:56.350Z</time>
      </trkpt>
      <trkpt lat="44.90685" lon="5.66806">
        <ele>575.9</ele>
        <time>2023-05-16T12:13:57.537Z</time>
      </trkpt>
      <trkpt lat="44.90689" lon="5.66805">
        <ele>575.9</ele>
        <time>2023-05-16T12:13:58.985Z</time>
      </trkpt>
      <trkpt lat="44.90694" lon="5.66804">
        <ele>576</ele>
        <time>2023-05-16T12:14:00.900Z</time>
      </trkpt>
      <trkpt lat="44.90698" lon="5.66803">
        <ele>576.1</ele>
        <time>2023-05-16T12:14:02.464Z</time>
      </trkpt>
      <trkpt lat="44.90703" lon="5.66803">
        <ele>576.3</ele>
        <time>2023-05-16T12:14:04.486Z</time>
      </trkpt>
      <trkpt lat="44.90707" lon="5.66802">
        <ele>576.3</ele>
        <time>2023-05-16T12:14:05.934Z</time>
      </trkpt>
      <trkpt lat="44.90711" lon="5.66802">
        <ele>576.4</ele>
        <time>2023-05-16T12:14:07.475Z</time>
      </trkpt>
      <trkpt lat="44.90715" lon="5.66801">
        <ele>576.4</ele>
        <time>2023-05-16T12:14:08.923Z</time>
      </trkpt>
      <trkpt lat="44.90718" lon="5.66801">
        <ele>576.4</ele>
        <time>2023-05-16T12:14:09.993Z</time>
      </trkpt>
      <trkpt lat="44.90722" lon="5.668">
        <ele>576.4</ele>
        <time>2023-05-16T12:14:11.441Z</time>
      </trkpt>
      <trkpt lat="44.90725" lon="5.668">
        <ele>576.4</ele>
        <time>2023-05-16T12:14:12.510Z</time>
      </trkpt>
      <trkpt lat="44.90729" lon="5.66799">
        <ele>576.3</ele>
        <time>2023-05-16T12:14:13.854Z</time>
      </trkpt>
      <trkpt lat="44.90734" lon="5.66799">
        <ele>576.3</ele>
        <time>2023-05-16T12:14:15.636Z</time>
      </trkpt>
      <trkpt lat="44.90738" lon="5.66798">
        <ele>576.3</ele>
        <time>2023-05-16T12:14:17.084Z</time>
      </trkpt>
      <trkpt lat="44.90741" lon="5.66798">
        <ele>576.3</ele>
        <time>2023-05-16T12:14:18.154Z</time>
      </trkpt>
      <trkpt lat="44.90745" lon="5.66798">
        <ele>576.3</ele>
        <time>2023-05-16T12:14:19.579Z</time>
      </trkpt>
      <trkpt lat="44.90749" lon="5.66798">
        <ele>576.3</ele>
        <time>2023-05-16T12:14:21.005Z</time>
      </trkpt>
      <trkpt lat="44.90751" lon="5.66798">
        <ele>576.3</ele>
        <time>2023-05-16T12:14:21.718Z</time>
      </trkpt>
      <trkpt lat="44.90754" lon="5.66798">
        <ele>576.3</ele>
        <time>2023-05-16T12:14:22.788Z</time>
      </trkpt>
      <trkpt lat="44.90758" lon="5.66798">
        <ele>576.3</ele>
        <time>2023-05-16T12:14:24.213Z</time>
      </trkpt>
      <trkpt lat="44.90762" lon="5.66798">
        <ele>576.3</ele>
        <time>2023-05-16T12:14:25.639Z</time>
      </trkpt>
      <trkpt lat="44.90766" lon="5.66798">
        <ele>576.3</ele>
        <time>2023-05-16T12:14:27.065Z</time>
      </trkpt>
      <trkpt lat="44.9077" lon="5.66798">
        <ele>576.3</ele>
        <time>2023-05-16T12:14:28.491Z</time>
      </trkpt>
      <trkpt lat="44.90775" lon="5.66798">
        <ele>576.3</ele>
        <time>2023-05-16T12:14:30.273Z</time>
      </trkpt>
      <trkpt lat="44.90779" lon="5.66798">
        <ele>576.3</ele>
        <time>2023-05-16T12:14:31.699Z</time>
      </trkpt>
      <trkpt lat="44.90784" lon="5.66797">
        <ele>576.3</ele>
        <time>2023-05-16T12:14:33.499Z</time>
      </trkpt>
      <trkpt lat="44.90789" lon="5.66797">
        <ele>576.3</ele>
        <time>2023-05-16T12:14:35.281Z</time>
      </trkpt>
      <trkpt lat="44.90792" lon="5.66797">
        <ele>576.4</ele>
        <time>2023-05-16T12:14:36.469Z</time>
      </trkpt>
      <trkpt lat="44.90795" lon="5.66797">
        <ele>576.4</ele>
        <time>2023-05-16T12:14:37.538Z</time>
      </trkpt>
      <trkpt lat="44.90798" lon="5.66797">
        <ele>576.5</ele>
        <time>2023-05-16T12:14:38.726Z</time>
      </trkpt>
      <trkpt lat="44.90802" lon="5.66797">
        <ele>576.5</ele>
        <time>2023-05-16T12:14:40.152Z</time>
      </trkpt>
      <trkpt lat="44.90806" lon="5.66798">
        <ele>576.7</ele>
        <time>2023-05-16T12:14:41.844Z</time>
      </trkpt>
      <trkpt lat="44.9081" lon="5.66798">
        <ele>576.8</ele>
        <time>2023-05-16T12:14:43.386Z</time>
      </trkpt>
      <trkpt lat="44.90815" lon="5.66798">
        <ele>576.8</ele>
        <time>2023-05-16T12:14:45.169Z</time>
      </trkpt>
      <trkpt lat="44.90818" lon="5.66798">
        <ele>576.9</ele>
        <time>2023-05-16T12:14:46.356Z</time>
      </trkpt>
      <trkpt lat="44.90821" lon="5.66798">
        <ele>576.9</ele>
        <time>2023-05-16T12:14:47.425Z</time>
      </trkpt>
      <trkpt lat="44.90824" lon="5.66798">
        <ele>576.9</ele>
        <time>2023-05-16T12:14:48.495Z</time>
      </trkpt>
      <trkpt lat="44.90827" lon="5.66798">
        <ele>576.9</ele>
        <time>2023-05-16T12:14:49.564Z</time>
      </trkpt>
      <trkpt lat="44.90831" lon="5.66798">
        <ele>576.9</ele>
        <time>2023-05-16T12:14:50.990Z</time>
      </trkpt>
      <trkpt lat="44.90836" lon="5.66797">
        <ele>577</ele>
        <time>2023-05-16T12:14:52.905Z</time>
      </trkpt>
      <trkpt lat="44.9084" lon="5.66796">
        <ele>577</ele>
        <time>2023-05-16T12:14:54.353Z</time>
      </trkpt>
      <trkpt lat="44.90843" lon="5.66795">
        <ele>577</ele>
        <time>2023-05-16T12:14:55.451Z</time>
      </trkpt>
      <trkpt lat="44.90847" lon="5.66794">
        <ele>577.5</ele>
        <time>2023-05-16T12:14:57.632Z</time>
      </trkpt>
      <trkpt lat="44.90851" lon="5.66792">
        <ele>578</ele>
        <time>2023-05-16T12:14:59.868Z</time>
      </trkpt>
      <trkpt lat="44.90855" lon="5.6679">
        <ele>578.3</ele>
        <time>2023-05-16T12:15:01.767Z</time>
      </trkpt>
      <trkpt lat="44.9086" lon="5.66788">
        <ele>578.6</ele>
        <time>2023-05-16T12:15:03.994Z</time>
      </trkpt>
      <trkpt lat="44.90867" lon="5.66785">
        <ele>579.1</ele>
        <time>2023-05-16T12:15:07.242Z</time>
      </trkpt>
      <trkpt lat="44.90873" lon="5.66781">
        <ele>579.6</ele>
        <time>2023-05-16T12:15:10.259Z</time>
      </trkpt>
      <trkpt lat="44.90876" lon="5.66779">
        <ele>579.8</ele>
        <time>2023-05-16T12:15:11.693Z</time>
      </trkpt>
      <trkpt lat="44.90879" lon="5.66777">
        <ele>580.1</ele>
        <time>2023-05-16T12:15:13.281Z</time>
      </trkpt>
      <trkpt lat="44.90883" lon="5.66774">
        <ele>580.3</ele>
        <time>2023-05-16T12:15:15.137Z</time>
      </trkpt>
      <trkpt lat="44.90886" lon="5.66772">
        <ele>580.6</ele>
        <time>2023-05-16T12:15:16.725Z</time>
      </trkpt>
      <trkpt lat="44.90889" lon="5.6677">
        <ele>581</ele>
        <time>2023-05-16T12:15:18.490Z</time>
      </trkpt>
      <trkpt lat="44.90892" lon="5.66768">
        <ele>581.4</ele>
        <time>2023-05-16T12:15:20.255Z</time>
      </trkpt>
      <trkpt lat="44.90895" lon="5.66766">
        <ele>581.8</ele>
        <time>2023-05-16T12:15:22.021Z</time>
      </trkpt>
      <trkpt lat="44.90899" lon="5.66765">
        <ele>582.2</ele>
        <time>2023-05-16T12:15:24.020Z</time>
      </trkpt>
      <trkpt lat="44.90901" lon="5.66763">
        <ele>582.3</ele>
        <time>2023-05-16T12:15:25.014Z</time>
      </trkpt>
      <trkpt lat="44.90904" lon="5.6676">
        <ele>582.5</ele>
        <time>2023-05-16T12:15:26.572Z</time>
      </trkpt>
      <trkpt lat="44.90908" lon="5.6676">
        <ele>582.7</ele>
        <time>2023-05-16T12:15:28.243Z</time>
      </trkpt>
      <trkpt lat="44.90911" lon="5.66758">
        <ele>582.8</ele>
        <time>2023-05-16T12:15:29.543Z</time>
      </trkpt>
      <trkpt lat="44.90914" lon="5.66757">
        <ele>583</ele>
        <time>2023-05-16T12:15:30.896Z</time>
      </trkpt>
      <trkpt lat="44.90917" lon="5.66756">
        <ele>583.1</ele>
        <time>2023-05-16T12:15:32.112Z</time>
      </trkpt>
      <trkpt lat="44.9092" lon="5.66755">
        <ele>583.2</ele>
        <time>2023-05-16T12:15:33.329Z</time>
      </trkpt>
      <trkpt lat="44.90923" lon="5.66754">
        <ele>583.4</ele>
        <time>2023-05-16T12:15:34.682Z</time>
      </trkpt>
      <trkpt lat="44.90926" lon="5.66753">
        <ele>583.5</ele>
        <time>2023-05-16T12:15:35.899Z</time>
      </trkpt>
      <trkpt lat="44.90929" lon="5.66751">
        <ele>583.7</ele>
        <time>2023-05-16T12:15:37.333Z</time>
      </trkpt>
      <trkpt lat="44.90933" lon="5.6675">
        <ele>583.8</ele>
        <time>2023-05-16T12:15:38.896Z</time>
      </trkpt>
      <trkpt lat="44.90936" lon="5.66748">
        <ele>584</ele>
        <time>2023-05-16T12:15:40.330Z</time>
      </trkpt>
      <trkpt lat="44.90939" lon="5.66747">
        <ele>584.1</ele>
        <time>2023-05-16T12:15:41.547Z</time>
      </trkpt>
      <trkpt lat="44.90943" lon="5.66745">
        <ele>584.3</ele>
        <time>2023-05-16T12:15:43.303Z</time>
      </trkpt>
      <trkpt lat="44.90946" lon="5.66743">
        <ele>584.6</ele>
        <time>2023-05-16T12:15:44.891Z</time>
      </trkpt>
      <trkpt lat="44.90949" lon="5.66742">
        <ele>585</ele>
        <time>2023-05-16T12:15:46.586Z</time>
      </trkpt>
      <trkpt lat="44.90952" lon="5.6674">
        <ele>585.5</ele>
        <time>2023-05-16T12:15:48.556Z</time>
      </trkpt>
      <trkpt lat="44.90956" lon="5.66739">
        <ele>585.9</ele>
        <time>2023-05-16T12:15:50.556Z</time>
      </trkpt>
      <trkpt lat="44.90959" lon="5.66737">
        <ele>586.3</ele>
        <time>2023-05-16T12:15:52.321Z</time>
      </trkpt>
      <trkpt lat="44.90962" lon="5.66736">
        <ele>586.7</ele>
        <time>2023-05-16T12:15:54.016Z</time>
      </trkpt>
      <trkpt lat="44.90965" lon="5.66734">
        <ele>587.1</ele>
        <time>2023-05-16T12:15:55.781Z</time>
      </trkpt>
      <trkpt lat="44.90969" lon="5.66732">
        <ele>587.3</ele>
        <time>2023-05-16T12:15:57.538Z</time>
      </trkpt>
      <trkpt lat="44.90972" lon="5.66731">
        <ele>587.5</ele>
        <time>2023-05-16T12:15:58.890Z</time>
      </trkpt>
      <trkpt lat="44.90975" lon="5.66729">
        <ele>587.6</ele>
        <time>2023-05-16T12:16:00.190Z</time>
      </trkpt>
      <trkpt lat="44.90979" lon="5.66728">
        <ele>587.8</ele>
        <time>2023-05-16T12:16:01.883Z</time>
      </trkpt>
      <trkpt lat="44.90982" lon="5.66726">
        <ele>588</ele>
        <time>2023-05-16T12:16:03.317Z</time>
      </trkpt>
      <trkpt lat="44.90986" lon="5.66725">
        <ele>588.3</ele>
        <time>2023-05-16T12:16:05.155Z</time>
      </trkpt>
      <trkpt lat="44.90989" lon="5.66723">
        <ele>588.5</ele>
        <time>2023-05-16T12:16:06.588Z</time>
      </trkpt>
      <trkpt lat="44.90992" lon="5.66721">
        <ele>588.8</ele>
        <time>2023-05-16T12:16:08.176Z</time>
      </trkpt>
      <trkpt lat="44.90996" lon="5.6672">
        <ele>589.3</ele>
        <time>2023-05-16T12:16:10.357Z</time>
      </trkpt>
      <trkpt lat="44.90999" lon="5.66718">
        <ele>589.7</ele>
        <time>2023-05-16T12:16:12.122Z</time>
      </trkpt>
      <trkpt lat="44.91003" lon="5.66717">
        <ele>590.2</ele>
        <time>2023-05-16T12:16:14.303Z</time>
      </trkpt>
      <trkpt lat="44.91006" lon="5.66716">
        <ele>590.7</ele>
        <time>2023-05-16T12:16:16.214Z</time>
      </trkpt>
      <trkpt lat="44.9101" lon="5.66714">
        <ele>591.1</ele>
        <time>2023-05-16T12:16:18.272Z</time>
      </trkpt>
      <trkpt lat="44.91013" lon="5.66713">
        <ele>591.5</ele>
        <time>2023-05-16T12:16:19.967Z</time>
      </trkpt>
      <trkpt lat="44.91016" lon="5.66712">
        <ele>591.7</ele>
        <time>2023-05-16T12:16:21.320Z</time>
      </trkpt>
      <trkpt lat="44.9102" lon="5.6671">
        <ele>591.9</ele>
        <time>2023-05-16T12:16:23.077Z</time>
      </trkpt>
      <trkpt lat="44.91024" lon="5.66708">
        <ele>592.1</ele>
        <time>2023-05-16T12:16:24.833Z</time>
      </trkpt>
      <trkpt lat="44.91027" lon="5.66707">
        <ele>592.3</ele>
        <time>2023-05-16T12:16:26.186Z</time>
      </trkpt>
      <trkpt lat="44.9103" lon="5.66705">
        <ele>592.4</ele>
        <time>2023-05-16T12:16:27.486Z</time>
      </trkpt>
      <trkpt lat="44.91034" lon="5.66702">
        <ele>592.6</ele>
        <time>2023-05-16T12:16:29.342Z</time>
      </trkpt>
      <trkpt lat="44.91037" lon="5.667">
        <ele>592.9</ele>
        <time>2023-05-16T12:16:30.930Z</time>
      </trkpt>
      <trkpt lat="44.9104" lon="5.66698">
        <ele>593.2</ele>
        <time>2023-05-16T12:16:32.518Z</time>
      </trkpt>
      <trkpt lat="44.91044" lon="5.66695">
        <ele>593.5</ele>
        <time>2023-05-16T12:16:34.515Z</time>
      </trkpt>
      <trkpt lat="44.91047" lon="5.66692">
        <ele>594</ele>
        <time>2023-05-16T12:16:36.583Z</time>
      </trkpt>
      <trkpt lat="44.91049" lon="5.66688">
        <ele>594.6</ele>
        <time>2023-05-16T12:16:38.822Z</time>
      </trkpt>
      <trkpt lat="44.91052" lon="5.66685">
        <ele>595.1</ele>
        <time>2023-05-16T12:16:40.890Z</time>
      </trkpt>
      <trkpt lat="44.91054" lon="5.66681">
        <ele>595.5</ele>
        <time>2023-05-16T12:16:42.701Z</time>
      </trkpt>
      <trkpt lat="44.91056" lon="5.66678">
        <ele>595.6</ele>
        <time>2023-05-16T12:16:43.860Z</time>
      </trkpt>
      <trkpt lat="44.91059" lon="5.66675">
        <ele>595.8</ele>
        <time>2023-05-16T12:16:45.418Z</time>
      </trkpt>
      <trkpt lat="44.91061" lon="5.66673">
        <ele>595.9</ele>
        <time>2023-05-16T12:16:46.412Z</time>
      </trkpt>
      <trkpt lat="44.91065" lon="5.66668">
        <ele>596.2</ele>
        <time>2023-05-16T12:16:48.689Z</time>
      </trkpt>
      <trkpt lat="44.91068" lon="5.66667">
        <ele>596.4</ele>
        <time>2023-05-16T12:16:50.042Z</time>
      </trkpt>
      <trkpt lat="44.91073" lon="5.66665">
        <ele>596.7</ele>
        <time>2023-05-16T12:16:52.270Z</time>
      </trkpt>
      <trkpt lat="44.91078" lon="5.66665">
        <ele>596</ele>
        <time>2023-05-16T12:16:53.829Z</time>
      </trkpt>
      <trkpt lat="44.91081" lon="5.66665">
        <ele>595.6</ele>
        <time>2023-05-16T12:16:54.765Z</time>
      </trkpt>
      <trkpt lat="44.91084" lon="5.66666">
        <ele>595.3</ele>
        <time>2023-05-16T12:16:55.726Z</time>
      </trkpt>
      <trkpt lat="44.91088" lon="5.66666">
        <ele>595</ele>
        <time>2023-05-16T12:16:56.974Z</time>
      </trkpt>
      <trkpt lat="44.91092" lon="5.66664">
        <ele>595.2</ele>
        <time>2023-05-16T12:16:58.730Z</time>
      </trkpt>
      <trkpt lat="44.91096" lon="5.66662">
        <ele>595.1</ele>
        <time>2023-05-16T12:17:00.138Z</time>
      </trkpt>
      <trkpt lat="44.91101" lon="5.66659">
        <ele>594.7</ele>
        <time>2023-05-16T12:17:01.833Z</time>
      </trkpt>
      <trkpt lat="44.91106" lon="5.66658">
        <ele>594.1</ele>
        <time>2023-05-16T12:17:03.408Z</time>
      </trkpt>
      <trkpt lat="44.91112" lon="5.66657">
        <ele>593.4</ele>
        <time>2023-05-16T12:17:05.292Z</time>
      </trkpt>
      <trkpt lat="44.91118" lon="5.66658">
        <ele>592.6</ele>
        <time>2023-05-16T12:17:07.177Z</time>
      </trkpt>
      <trkpt lat="44.91124" lon="5.66661">
        <ele>591.3</ele>
        <time>2023-05-16T12:17:09.162Z</time>
      </trkpt>
      <trkpt lat="44.91131" lon="5.66666">
        <ele>589.7</ele>
        <time>2023-05-16T12:17:11.609Z</time>
      </trkpt>
      <trkpt lat="44.91138" lon="5.66672">
        <ele>587.3</ele>
        <time>2023-05-16T12:17:14.163Z</time>
      </trkpt>
      <trkpt lat="44.91145" lon="5.66679">
        <ele>584.6</ele>
        <time>2023-05-16T12:17:16.838Z</time>
      </trkpt>
      <trkpt lat="44.91152" lon="5.66685">
        <ele>582.2</ele>
        <time>2023-05-16T12:17:19.392Z</time>
      </trkpt>
      <trkpt lat="44.91161" lon="5.66691">
        <ele>579.7</ele>
        <time>2023-05-16T12:17:22.496Z</time>
      </trkpt>
      <trkpt lat="44.9117" lon="5.66693">
        <ele>577.3</ele>
        <time>2023-05-16T12:17:25.338Z</time>
      </trkpt>
      <trkpt lat="44.91179" lon="5.66692">
        <ele>575.4</ele>
        <time>2023-05-16T12:17:28.154Z</time>
      </trkpt>
      <trkpt lat="44.91191" lon="5.66692">
        <ele>572.3</ele>
        <time>2023-05-16T12:17:31.897Z</time>
      </trkpt>
      <trkpt lat="44.91201" lon="5.66693">
        <ele>569.3</ele>
        <time>2023-05-16T12:17:35.023Z</time>
      </trkpt>
      <trkpt lat="44.9121" lon="5.66697">
        <ele>566.7</ele>
        <time>2023-05-16T12:17:37.966Z</time>
      </trkpt>
      <trkpt lat="44.91218" lon="5.66704">
        <ele>563.5</ele>
        <time>2023-05-16T12:17:40.902Z</time>
      </trkpt>
      <trkpt lat="44.91224" lon="5.66711">
        <ele>561.1</ele>
        <time>2023-05-16T12:17:43.329Z</time>
      </trkpt>
      <trkpt lat="44.91227" lon="5.6672">
        <ele>559.5</ele>
        <time>2023-05-16T12:17:45.526Z</time>
      </trkpt>
      <trkpt lat="44.91228" lon="5.66729">
        <ele>558.4</ele>
        <time>2023-05-16T12:17:47.539Z</time>
      </trkpt>
      <trkpt lat="44.91228" lon="5.66738">
        <ele>557.4</ele>
        <time>2023-05-16T12:17:49.527Z</time>
      </trkpt>
      <trkpt lat="44.91226" lon="5.66748">
        <ele>556.7</ele>
        <time>2023-05-16T12:17:51.822Z</time>
      </trkpt>
      <trkpt lat="44.91222" lon="5.66757">
        <ele>555.8</ele>
        <time>2023-05-16T12:17:54.169Z</time>
      </trkpt>
      <trkpt lat="44.91216" lon="5.66763">
        <ele>555.6</ele>
        <time>2023-05-16T12:17:56.582Z</time>
      </trkpt>
      <trkpt lat="44.9121" lon="5.66769">
        <ele>555.4</ele>
        <time>2023-05-16T12:17:58.996Z</time>
      </trkpt>
      <trkpt lat="44.91205" lon="5.66776">
        <ele>555</ele>
        <time>2023-05-16T12:18:01.192Z</time>
      </trkpt>
      <trkpt lat="44.91199" lon="5.66784">
        <ele>554.5</ele>
        <time>2023-05-16T12:18:03.766Z</time>
      </trkpt>
      <trkpt lat="44.91193" lon="5.66789">
        <ele>554.2</ele>
        <time>2023-05-16T12:18:05.949Z</time>
      </trkpt>
      <trkpt lat="44.91188" lon="5.66793">
        <ele>553.8</ele>
        <time>2023-05-16T12:18:07.741Z</time>
      </trkpt>
      <trkpt lat="44.91183" lon="5.66794">
        <ele>553.1</ele>
        <time>2023-05-16T12:18:09.316Z</time>
      </trkpt>
      <trkpt lat="44.9118" lon="5.66795">
        <ele>552.7</ele>
        <time>2023-05-16T12:18:10.277Z</time>
      </trkpt>
      <trkpt lat="44.91178" lon="5.66797">
        <ele>552.4</ele>
        <time>2023-05-16T12:18:11.042Z</time>
      </trkpt>
    </trkseg>
  </trk>
</gpx>